<?xml version="1.0" encoding="UTF-8" standalone="no" ?>
<gpx xmlns="http://www.topografix.com/GPX/1/1" xmlns:xsi="http://www.w3.org/2001/XMLSchema-instance" xsi:schemaLocation="http://www.topografix.com/GPX/1/1 http://www.topografix.com/GPX/1/1/gpx.xsd" version="1.1" creator="VisuGPX - https://www.visugpx.com">
  <metadata>
    <name>4 fil Aymon 2022_09_18</name>
  </metadata>
  <trk>
    <name><![CDATA[4 fil Aymon 2022_09_18_1]]></name>
    <trkseg>
      <trkpt lat="49.75391" lon="4.82189">
        <ele>203</ele>
        <time>2022-09-18T06:44:04.000Z</time>
      </trkpt>
      <trkpt lat="49.75391" lon="4.82189">
        <ele>203</ele>
        <time>2022-09-18T06:44:05.000Z</time>
      </trkpt>
      <trkpt lat="49.75391" lon="4.82189">
        <ele>202</ele>
        <time>2022-09-18T06:44:06.000Z</time>
      </trkpt>
      <trkpt lat="49.75391" lon="4.82188">
        <ele>200</ele>
        <time>2022-09-18T06:44:07.000Z</time>
      </trkpt>
      <trkpt lat="49.75391" lon="4.82186">
        <ele>199</ele>
        <time>2022-09-18T06:44:08.000Z</time>
      </trkpt>
      <trkpt lat="49.75391" lon="4.82185">
        <ele>197</ele>
        <time>2022-09-18T06:44:09.000Z</time>
      </trkpt>
      <trkpt lat="49.75392" lon="4.82184">
        <ele>197</ele>
        <time>2022-09-18T06:44:10.000Z</time>
      </trkpt>
      <trkpt lat="49.75393" lon="4.82182">
        <ele>196</ele>
        <time>2022-09-18T06:44:11.000Z</time>
      </trkpt>
      <trkpt lat="49.75395" lon="4.82182">
        <ele>196</ele>
        <time>2022-09-18T06:44:12.000Z</time>
      </trkpt>
      <trkpt lat="49.75398" lon="4.82182">
        <ele>196</ele>
        <time>2022-09-18T06:44:13.000Z</time>
      </trkpt>
      <trkpt lat="49.75402" lon="4.82183">
        <ele>195</ele>
        <time>2022-09-18T06:44:14.000Z</time>
      </trkpt>
      <trkpt lat="49.75407" lon="4.82185">
        <ele>195</ele>
        <time>2022-09-18T06:44:15.000Z</time>
      </trkpt>
      <trkpt lat="49.75412" lon="4.82188">
        <ele>195</ele>
        <time>2022-09-18T06:44:16.000Z</time>
      </trkpt>
      <trkpt lat="49.75416" lon="4.8219">
        <ele>195</ele>
        <time>2022-09-18T06:44:17.000Z</time>
      </trkpt>
      <trkpt lat="49.75421" lon="4.82193">
        <ele>195</ele>
        <time>2022-09-18T06:44:18.000Z</time>
      </trkpt>
      <trkpt lat="49.75426" lon="4.82196">
        <ele>194</ele>
        <time>2022-09-18T06:44:19.000Z</time>
      </trkpt>
      <trkpt lat="49.75431" lon="4.822">
        <ele>194</ele>
        <time>2022-09-18T06:44:20.000Z</time>
      </trkpt>
      <trkpt lat="49.75436" lon="4.82204">
        <ele>194</ele>
        <time>2022-09-18T06:44:21.000Z</time>
      </trkpt>
      <trkpt lat="49.75439" lon="4.8221">
        <ele>194</ele>
        <time>2022-09-18T06:44:22.000Z</time>
      </trkpt>
      <trkpt lat="49.75443" lon="4.82214">
        <ele>194</ele>
        <time>2022-09-18T06:44:23.000Z</time>
      </trkpt>
      <trkpt lat="49.75447" lon="4.82215">
        <ele>194</ele>
        <time>2022-09-18T06:44:24.000Z</time>
      </trkpt>
      <trkpt lat="49.75451" lon="4.82215">
        <ele>194</ele>
        <time>2022-09-18T06:44:25.000Z</time>
      </trkpt>
      <trkpt lat="49.75456" lon="4.82215">
        <ele>194</ele>
        <time>2022-09-18T06:44:26.000Z</time>
      </trkpt>
      <trkpt lat="49.75461" lon="4.82218">
        <ele>193</ele>
        <time>2022-09-18T06:44:27.000Z</time>
      </trkpt>
      <trkpt lat="49.75465" lon="4.82221">
        <ele>193</ele>
        <time>2022-09-18T06:44:28.000Z</time>
      </trkpt>
      <trkpt lat="49.75469" lon="4.82226">
        <ele>193</ele>
        <time>2022-09-18T06:44:29.000Z</time>
      </trkpt>
      <trkpt lat="49.75474" lon="4.82231">
        <ele>193</ele>
        <time>2022-09-18T06:44:30.000Z</time>
      </trkpt>
      <trkpt lat="49.75478" lon="4.82237">
        <ele>193</ele>
        <time>2022-09-18T06:44:31.000Z</time>
      </trkpt>
      <trkpt lat="49.75482" lon="4.82243">
        <ele>193</ele>
        <time>2022-09-18T06:44:32.000Z</time>
      </trkpt>
      <trkpt lat="49.75486" lon="4.82247">
        <ele>193</ele>
        <time>2022-09-18T06:44:33.000Z</time>
      </trkpt>
      <trkpt lat="49.75491" lon="4.82252">
        <ele>192</ele>
        <time>2022-09-18T06:44:34.000Z</time>
      </trkpt>
      <trkpt lat="49.75495" lon="4.82255">
        <ele>192</ele>
        <time>2022-09-18T06:44:35.000Z</time>
      </trkpt>
      <trkpt lat="49.755" lon="4.82259">
        <ele>192</ele>
        <time>2022-09-18T06:44:36.000Z</time>
      </trkpt>
      <trkpt lat="49.75505" lon="4.82262">
        <ele>192</ele>
        <time>2022-09-18T06:44:37.000Z</time>
      </trkpt>
      <trkpt lat="49.7551" lon="4.82265">
        <ele>192</ele>
        <time>2022-09-18T06:44:38.000Z</time>
      </trkpt>
      <trkpt lat="49.75515" lon="4.82268">
        <ele>192</ele>
        <time>2022-09-18T06:44:39.000Z</time>
      </trkpt>
      <trkpt lat="49.75521" lon="4.8227">
        <ele>192</ele>
        <time>2022-09-18T06:44:40.000Z</time>
      </trkpt>
      <trkpt lat="49.75526" lon="4.82273">
        <ele>192</ele>
        <time>2022-09-18T06:44:41.000Z</time>
      </trkpt>
      <trkpt lat="49.75531" lon="4.82276">
        <ele>192</ele>
        <time>2022-09-18T06:44:42.000Z</time>
      </trkpt>
      <trkpt lat="49.75536" lon="4.82277">
        <ele>192</ele>
        <time>2022-09-18T06:44:43.000Z</time>
      </trkpt>
      <trkpt lat="49.75541" lon="4.82278">
        <ele>192</ele>
        <time>2022-09-18T06:44:44.000Z</time>
      </trkpt>
      <trkpt lat="49.75546" lon="4.82277">
        <ele>192</ele>
        <time>2022-09-18T06:44:45.000Z</time>
      </trkpt>
      <trkpt lat="49.75551" lon="4.82274">
        <ele>192</ele>
        <time>2022-09-18T06:44:46.000Z</time>
      </trkpt>
      <trkpt lat="49.75556" lon="4.8227">
        <ele>192</ele>
        <time>2022-09-18T06:44:47.000Z</time>
      </trkpt>
      <trkpt lat="49.75559" lon="4.82266">
        <ele>192</ele>
        <time>2022-09-18T06:44:48.000Z</time>
      </trkpt>
      <trkpt lat="49.75562" lon="4.82261">
        <ele>191</ele>
        <time>2022-09-18T06:44:49.000Z</time>
      </trkpt>
      <trkpt lat="49.7556" lon="4.82255">
        <ele>191</ele>
        <time>2022-09-18T06:44:50.000Z</time>
      </trkpt>
      <trkpt lat="49.75556" lon="4.82249">
        <ele>191</ele>
        <time>2022-09-18T06:44:51.000Z</time>
      </trkpt>
      <trkpt lat="49.75553" lon="4.82242">
        <ele>191</ele>
        <time>2022-09-18T06:44:52.000Z</time>
      </trkpt>
      <trkpt lat="49.75549" lon="4.82236">
        <ele>191</ele>
        <time>2022-09-18T06:44:53.000Z</time>
      </trkpt>
      <trkpt lat="49.75545" lon="4.82229">
        <ele>191</ele>
        <time>2022-09-18T06:44:54.000Z</time>
      </trkpt>
      <trkpt lat="49.75541" lon="4.82223">
        <ele>191</ele>
        <time>2022-09-18T06:44:55.000Z</time>
      </trkpt>
      <trkpt lat="49.75537" lon="4.82216">
        <ele>191</ele>
        <time>2022-09-18T06:44:56.000Z</time>
      </trkpt>
      <trkpt lat="49.75534" lon="4.8221">
        <ele>191</ele>
        <time>2022-09-18T06:44:57.000Z</time>
      </trkpt>
      <trkpt lat="49.75531" lon="4.82203">
        <ele>191</ele>
        <time>2022-09-18T06:44:58.000Z</time>
      </trkpt>
      <trkpt lat="49.75527" lon="4.82197">
        <ele>191</ele>
        <time>2022-09-18T06:44:59.000Z</time>
      </trkpt>
      <trkpt lat="49.75524" lon="4.8219">
        <ele>191</ele>
        <time>2022-09-18T06:45:00.000Z</time>
      </trkpt>
      <trkpt lat="49.7552" lon="4.82184">
        <ele>191</ele>
        <time>2022-09-18T06:45:01.000Z</time>
      </trkpt>
      <trkpt lat="49.75517" lon="4.82178">
        <ele>191</ele>
        <time>2022-09-18T06:45:02.000Z</time>
      </trkpt>
      <trkpt lat="49.75513" lon="4.82172">
        <ele>192</ele>
        <time>2022-09-18T06:45:03.000Z</time>
      </trkpt>
      <trkpt lat="49.7551" lon="4.82166">
        <ele>192</ele>
        <time>2022-09-18T06:45:04.000Z</time>
      </trkpt>
      <trkpt lat="49.75506" lon="4.82159">
        <ele>192</ele>
        <time>2022-09-18T06:45:05.000Z</time>
      </trkpt>
      <trkpt lat="49.75502" lon="4.82153">
        <ele>192</ele>
        <time>2022-09-18T06:45:06.000Z</time>
      </trkpt>
      <trkpt lat="49.75499" lon="4.82147">
        <ele>192</ele>
        <time>2022-09-18T06:45:07.000Z</time>
      </trkpt>
      <trkpt lat="49.75495" lon="4.82142">
        <ele>192</ele>
        <time>2022-09-18T06:45:08.000Z</time>
      </trkpt>
      <trkpt lat="49.75492" lon="4.82136">
        <ele>192</ele>
        <time>2022-09-18T06:45:09.000Z</time>
      </trkpt>
      <trkpt lat="49.75488" lon="4.82131">
        <ele>192</ele>
        <time>2022-09-18T06:45:10.000Z</time>
      </trkpt>
      <trkpt lat="49.75484" lon="4.82126">
        <ele>192</ele>
        <time>2022-09-18T06:45:11.000Z</time>
      </trkpt>
      <trkpt lat="49.75481" lon="4.8212">
        <ele>192</ele>
        <time>2022-09-18T06:45:12.000Z</time>
      </trkpt>
      <trkpt lat="49.75477" lon="4.82115">
        <ele>192</ele>
        <time>2022-09-18T06:45:13.000Z</time>
      </trkpt>
      <trkpt lat="49.75474" lon="4.8211">
        <ele>193</ele>
        <time>2022-09-18T06:45:14.000Z</time>
      </trkpt>
      <trkpt lat="49.7547" lon="4.82105">
        <ele>193</ele>
        <time>2022-09-18T06:45:15.000Z</time>
      </trkpt>
      <trkpt lat="49.75466" lon="4.82101">
        <ele>193</ele>
        <time>2022-09-18T06:45:16.000Z</time>
      </trkpt>
      <trkpt lat="49.75463" lon="4.82097">
        <ele>193</ele>
        <time>2022-09-18T06:45:17.000Z</time>
      </trkpt>
      <trkpt lat="49.75459" lon="4.82094">
        <ele>193</ele>
        <time>2022-09-18T06:45:18.000Z</time>
      </trkpt>
      <trkpt lat="49.75455" lon="4.82091">
        <ele>193</ele>
        <time>2022-09-18T06:45:19.000Z</time>
      </trkpt>
      <trkpt lat="49.7545" lon="4.82087">
        <ele>193</ele>
        <time>2022-09-18T06:45:20.000Z</time>
      </trkpt>
      <trkpt lat="49.75446" lon="4.82084">
        <ele>193</ele>
        <time>2022-09-18T06:45:21.000Z</time>
      </trkpt>
      <trkpt lat="49.75442" lon="4.8208">
        <ele>193</ele>
        <time>2022-09-18T06:45:22.000Z</time>
      </trkpt>
      <trkpt lat="49.75438" lon="4.82075">
        <ele>193</ele>
        <time>2022-09-18T06:45:23.000Z</time>
      </trkpt>
      <trkpt lat="49.75434" lon="4.82071">
        <ele>193</ele>
        <time>2022-09-18T06:45:24.000Z</time>
      </trkpt>
      <trkpt lat="49.7543" lon="4.82068">
        <ele>193</ele>
        <time>2022-09-18T06:45:25.000Z</time>
      </trkpt>
      <trkpt lat="49.75426" lon="4.82064">
        <ele>193</ele>
        <time>2022-09-18T06:45:26.000Z</time>
      </trkpt>
      <trkpt lat="49.75422" lon="4.8206">
        <ele>193</ele>
        <time>2022-09-18T06:45:27.000Z</time>
      </trkpt>
      <trkpt lat="49.75418" lon="4.82055">
        <ele>193</ele>
        <time>2022-09-18T06:45:28.000Z</time>
      </trkpt>
      <trkpt lat="49.75414" lon="4.82051">
        <ele>193</ele>
        <time>2022-09-18T06:45:29.000Z</time>
      </trkpt>
      <trkpt lat="49.7541" lon="4.82048">
        <ele>193</ele>
        <time>2022-09-18T06:45:30.000Z</time>
      </trkpt>
      <trkpt lat="49.75406" lon="4.82044">
        <ele>193</ele>
        <time>2022-09-18T06:45:31.000Z</time>
      </trkpt>
      <trkpt lat="49.75402" lon="4.82041">
        <ele>193</ele>
        <time>2022-09-18T06:45:32.000Z</time>
      </trkpt>
      <trkpt lat="49.75398" lon="4.82037">
        <ele>193</ele>
        <time>2022-09-18T06:45:33.000Z</time>
      </trkpt>
      <trkpt lat="49.75394" lon="4.82034">
        <ele>193</ele>
        <time>2022-09-18T06:45:34.000Z</time>
      </trkpt>
      <trkpt lat="49.7539" lon="4.82032">
        <ele>193</ele>
        <time>2022-09-18T06:45:35.000Z</time>
      </trkpt>
      <trkpt lat="49.75386" lon="4.82029">
        <ele>193</ele>
        <time>2022-09-18T06:45:36.000Z</time>
      </trkpt>
      <trkpt lat="49.75382" lon="4.82026">
        <ele>193</ele>
        <time>2022-09-18T06:45:37.000Z</time>
      </trkpt>
      <trkpt lat="49.75379" lon="4.82024">
        <ele>193</ele>
        <time>2022-09-18T06:45:38.000Z</time>
      </trkpt>
      <trkpt lat="49.75375" lon="4.82022">
        <ele>193</ele>
        <time>2022-09-18T06:45:39.000Z</time>
      </trkpt>
      <trkpt lat="49.75371" lon="4.8202">
        <ele>193</ele>
        <time>2022-09-18T06:45:40.000Z</time>
      </trkpt>
      <trkpt lat="49.75367" lon="4.82018">
        <ele>193</ele>
        <time>2022-09-18T06:45:41.000Z</time>
      </trkpt>
      <trkpt lat="49.75364" lon="4.82016">
        <ele>193</ele>
        <time>2022-09-18T06:45:42.000Z</time>
      </trkpt>
      <trkpt lat="49.7536" lon="4.82014">
        <ele>193</ele>
        <time>2022-09-18T06:45:43.000Z</time>
      </trkpt>
      <trkpt lat="49.75356" lon="4.82011">
        <ele>193</ele>
        <time>2022-09-18T06:45:44.000Z</time>
      </trkpt>
      <trkpt lat="49.75352" lon="4.82009">
        <ele>193</ele>
        <time>2022-09-18T06:45:45.000Z</time>
      </trkpt>
      <trkpt lat="49.75348" lon="4.82007">
        <ele>193</ele>
        <time>2022-09-18T06:45:46.000Z</time>
      </trkpt>
      <trkpt lat="49.75344" lon="4.82005">
        <ele>193</ele>
        <time>2022-09-18T06:45:47.000Z</time>
      </trkpt>
      <trkpt lat="49.75341" lon="4.82003">
        <ele>193</ele>
        <time>2022-09-18T06:45:48.000Z</time>
      </trkpt>
      <trkpt lat="49.75337" lon="4.82001">
        <ele>193</ele>
        <time>2022-09-18T06:45:49.000Z</time>
      </trkpt>
      <trkpt lat="49.75333" lon="4.81999">
        <ele>193</ele>
        <time>2022-09-18T06:45:50.000Z</time>
      </trkpt>
      <trkpt lat="49.75329" lon="4.81996">
        <ele>193</ele>
        <time>2022-09-18T06:45:51.000Z</time>
      </trkpt>
      <trkpt lat="49.75325" lon="4.81993">
        <ele>193</ele>
        <time>2022-09-18T06:45:52.000Z</time>
      </trkpt>
      <trkpt lat="49.75322" lon="4.81991">
        <ele>193</ele>
        <time>2022-09-18T06:45:53.000Z</time>
      </trkpt>
      <trkpt lat="49.75318" lon="4.81988">
        <ele>194</ele>
        <time>2022-09-18T06:45:54.000Z</time>
      </trkpt>
      <trkpt lat="49.75315" lon="4.81986">
        <ele>194</ele>
        <time>2022-09-18T06:45:55.000Z</time>
      </trkpt>
      <trkpt lat="49.75311" lon="4.81984">
        <ele>194</ele>
        <time>2022-09-18T06:45:56.000Z</time>
      </trkpt>
      <trkpt lat="49.75308" lon="4.81982">
        <ele>194</ele>
        <time>2022-09-18T06:45:57.000Z</time>
      </trkpt>
      <trkpt lat="49.75305" lon="4.8198">
        <ele>194</ele>
        <time>2022-09-18T06:45:58.000Z</time>
      </trkpt>
      <trkpt lat="49.75301" lon="4.81979">
        <ele>194</ele>
        <time>2022-09-18T06:45:59.000Z</time>
      </trkpt>
      <trkpt lat="49.75298" lon="4.81976">
        <ele>194</ele>
        <time>2022-09-18T06:46:00.000Z</time>
      </trkpt>
      <trkpt lat="49.75296" lon="4.81973">
        <ele>195</ele>
        <time>2022-09-18T06:46:01.000Z</time>
      </trkpt>
      <trkpt lat="49.75293" lon="4.81971">
        <ele>195</ele>
        <time>2022-09-18T06:46:02.000Z</time>
      </trkpt>
      <trkpt lat="49.7529" lon="4.81969">
        <ele>195</ele>
        <time>2022-09-18T06:46:03.000Z</time>
      </trkpt>
      <trkpt lat="49.75287" lon="4.81966">
        <ele>195</ele>
        <time>2022-09-18T06:46:04.000Z</time>
      </trkpt>
      <trkpt lat="49.75284" lon="4.81964">
        <ele>195</ele>
        <time>2022-09-18T06:46:05.000Z</time>
      </trkpt>
      <trkpt lat="49.7528" lon="4.81962">
        <ele>195</ele>
        <time>2022-09-18T06:46:06.000Z</time>
      </trkpt>
      <trkpt lat="49.75277" lon="4.81959">
        <ele>195</ele>
        <time>2022-09-18T06:46:07.000Z</time>
      </trkpt>
      <trkpt lat="49.75274" lon="4.81956">
        <ele>196</ele>
        <time>2022-09-18T06:46:08.000Z</time>
      </trkpt>
      <trkpt lat="49.75271" lon="4.81954">
        <ele>196</ele>
        <time>2022-09-18T06:46:09.000Z</time>
      </trkpt>
      <trkpt lat="49.75268" lon="4.81951">
        <ele>196</ele>
        <time>2022-09-18T06:46:10.000Z</time>
      </trkpt>
      <trkpt lat="49.75265" lon="4.81949">
        <ele>196</ele>
        <time>2022-09-18T06:46:11.000Z</time>
      </trkpt>
      <trkpt lat="49.75263" lon="4.81946">
        <ele>196</ele>
        <time>2022-09-18T06:46:12.000Z</time>
      </trkpt>
      <trkpt lat="49.7526" lon="4.81942">
        <ele>196</ele>
        <time>2022-09-18T06:46:13.000Z</time>
      </trkpt>
      <trkpt lat="49.75257" lon="4.8194">
        <ele>196</ele>
        <time>2022-09-18T06:46:14.000Z</time>
      </trkpt>
      <trkpt lat="49.75255" lon="4.81936">
        <ele>197</ele>
        <time>2022-09-18T06:46:15.000Z</time>
      </trkpt>
      <trkpt lat="49.75252" lon="4.81933">
        <ele>197</ele>
        <time>2022-09-18T06:46:16.000Z</time>
      </trkpt>
      <trkpt lat="49.7525" lon="4.81929">
        <ele>197</ele>
        <time>2022-09-18T06:46:17.000Z</time>
      </trkpt>
      <trkpt lat="49.75249" lon="4.81925">
        <ele>197</ele>
        <time>2022-09-18T06:46:18.000Z</time>
      </trkpt>
      <trkpt lat="49.75246" lon="4.81922">
        <ele>197</ele>
        <time>2022-09-18T06:46:19.000Z</time>
      </trkpt>
      <trkpt lat="49.75245" lon="4.81921">
        <ele>197</ele>
        <time>2022-09-18T06:46:20.000Z</time>
      </trkpt>
      <trkpt lat="49.75244" lon="4.8192">
        <ele>197</ele>
        <time>2022-09-18T06:46:21.000Z</time>
      </trkpt>
      <trkpt lat="49.75243" lon="4.81919">
        <ele>198</ele>
        <time>2022-09-18T06:46:22.000Z</time>
      </trkpt>
      <trkpt lat="49.75243" lon="4.81919">
        <ele>198</ele>
        <time>2022-09-18T06:46:23.000Z</time>
      </trkpt>
      <trkpt lat="49.75243" lon="4.8192">
        <ele>198</ele>
        <time>2022-09-18T06:46:24.000Z</time>
      </trkpt>
      <trkpt lat="49.75244" lon="4.81921">
        <ele>198</ele>
        <time>2022-09-18T06:46:25.000Z</time>
      </trkpt>
      <trkpt lat="49.75245" lon="4.81923">
        <ele>198</ele>
        <time>2022-09-18T06:46:26.000Z</time>
      </trkpt>
      <trkpt lat="49.75248" lon="4.81927">
        <ele>198</ele>
        <time>2022-09-18T06:46:27.000Z</time>
      </trkpt>
      <trkpt lat="49.75251" lon="4.81933">
        <ele>198</ele>
        <time>2022-09-18T06:46:28.000Z</time>
      </trkpt>
      <trkpt lat="49.75255" lon="4.81938">
        <ele>198</ele>
        <time>2022-09-18T06:46:29.000Z</time>
      </trkpt>
      <trkpt lat="49.75259" lon="4.81944">
        <ele>198</ele>
        <time>2022-09-18T06:46:30.000Z</time>
      </trkpt>
      <trkpt lat="49.75265" lon="4.81949">
        <ele>198</ele>
        <time>2022-09-18T06:46:31.000Z</time>
      </trkpt>
      <trkpt lat="49.7527" lon="4.81954">
        <ele>197</ele>
        <time>2022-09-18T06:46:32.000Z</time>
      </trkpt>
      <trkpt lat="49.75276" lon="4.81959">
        <ele>197</ele>
        <time>2022-09-18T06:46:33.000Z</time>
      </trkpt>
      <trkpt lat="49.75282" lon="4.81964">
        <ele>197</ele>
        <time>2022-09-18T06:46:34.000Z</time>
      </trkpt>
      <trkpt lat="49.75288" lon="4.81968">
        <ele>197</ele>
        <time>2022-09-18T06:46:35.000Z</time>
      </trkpt>
      <trkpt lat="49.75294" lon="4.81973">
        <ele>197</ele>
        <time>2022-09-18T06:46:36.000Z</time>
      </trkpt>
      <trkpt lat="49.753" lon="4.81977">
        <ele>197</ele>
        <time>2022-09-18T06:46:37.000Z</time>
      </trkpt>
      <trkpt lat="49.75306" lon="4.81982">
        <ele>197</ele>
        <time>2022-09-18T06:46:38.000Z</time>
      </trkpt>
      <trkpt lat="49.75312" lon="4.81986">
        <ele>197</ele>
        <time>2022-09-18T06:46:39.000Z</time>
      </trkpt>
      <trkpt lat="49.75318" lon="4.8199">
        <ele>196</ele>
        <time>2022-09-18T06:46:40.000Z</time>
      </trkpt>
      <trkpt lat="49.75325" lon="4.81995">
        <ele>196</ele>
        <time>2022-09-18T06:46:41.000Z</time>
      </trkpt>
      <trkpt lat="49.75332" lon="4.81999">
        <ele>196</ele>
        <time>2022-09-18T06:46:42.000Z</time>
      </trkpt>
      <trkpt lat="49.75338" lon="4.82004">
        <ele>196</ele>
        <time>2022-09-18T06:46:43.000Z</time>
      </trkpt>
      <trkpt lat="49.75345" lon="4.82008">
        <ele>196</ele>
        <time>2022-09-18T06:46:44.000Z</time>
      </trkpt>
      <trkpt lat="49.75352" lon="4.82012">
        <ele>196</ele>
        <time>2022-09-18T06:46:45.000Z</time>
      </trkpt>
      <trkpt lat="49.75359" lon="4.82016">
        <ele>195</ele>
        <time>2022-09-18T06:46:46.000Z</time>
      </trkpt>
      <trkpt lat="49.75365" lon="4.8202">
        <ele>195</ele>
        <time>2022-09-18T06:46:47.000Z</time>
      </trkpt>
      <trkpt lat="49.75372" lon="4.82023">
        <ele>195</ele>
        <time>2022-09-18T06:46:48.000Z</time>
      </trkpt>
      <trkpt lat="49.75378" lon="4.82027">
        <ele>194</ele>
        <time>2022-09-18T06:46:49.000Z</time>
      </trkpt>
      <trkpt lat="49.75385" lon="4.82031">
        <ele>194</ele>
        <time>2022-09-18T06:46:50.000Z</time>
      </trkpt>
      <trkpt lat="49.75391" lon="4.82035">
        <ele>194</ele>
        <time>2022-09-18T06:46:51.000Z</time>
      </trkpt>
      <trkpt lat="49.75398" lon="4.8204">
        <ele>194</ele>
        <time>2022-09-18T06:46:52.000Z</time>
      </trkpt>
      <trkpt lat="49.75405" lon="4.82046">
        <ele>194</ele>
        <time>2022-09-18T06:46:53.000Z</time>
      </trkpt>
      <trkpt lat="49.75412" lon="4.82052">
        <ele>193</ele>
        <time>2022-09-18T06:46:54.000Z</time>
      </trkpt>
      <trkpt lat="49.75418" lon="4.82059">
        <ele>193</ele>
        <time>2022-09-18T06:46:55.000Z</time>
      </trkpt>
      <trkpt lat="49.75425" lon="4.82065">
        <ele>193</ele>
        <time>2022-09-18T06:46:56.000Z</time>
      </trkpt>
      <trkpt lat="49.75431" lon="4.82072">
        <ele>193</ele>
        <time>2022-09-18T06:46:57.000Z</time>
      </trkpt>
      <trkpt lat="49.75437" lon="4.82079">
        <ele>193</ele>
        <time>2022-09-18T06:46:58.000Z</time>
      </trkpt>
      <trkpt lat="49.75444" lon="4.82085">
        <ele>193</ele>
        <time>2022-09-18T06:46:59.000Z</time>
      </trkpt>
      <trkpt lat="49.7545" lon="4.8209">
        <ele>193</ele>
        <time>2022-09-18T06:47:00.000Z</time>
      </trkpt>
      <trkpt lat="49.75456" lon="4.82096">
        <ele>192</ele>
        <time>2022-09-18T06:47:01.000Z</time>
      </trkpt>
      <trkpt lat="49.75462" lon="4.82103">
        <ele>192</ele>
        <time>2022-09-18T06:47:02.000Z</time>
      </trkpt>
      <trkpt lat="49.75468" lon="4.8211">
        <ele>192</ele>
        <time>2022-09-18T06:47:03.000Z</time>
      </trkpt>
      <trkpt lat="49.75473" lon="4.82118">
        <ele>192</ele>
        <time>2022-09-18T06:47:04.000Z</time>
      </trkpt>
      <trkpt lat="49.75479" lon="4.82127">
        <ele>192</ele>
        <time>2022-09-18T06:47:05.000Z</time>
      </trkpt>
      <trkpt lat="49.75485" lon="4.82136">
        <ele>192</ele>
        <time>2022-09-18T06:47:06.000Z</time>
      </trkpt>
      <trkpt lat="49.75491" lon="4.82145">
        <ele>192</ele>
        <time>2022-09-18T06:47:07.000Z</time>
      </trkpt>
      <trkpt lat="49.75496" lon="4.82154">
        <ele>191</ele>
        <time>2022-09-18T06:47:08.000Z</time>
      </trkpt>
      <trkpt lat="49.75502" lon="4.82163">
        <ele>191</ele>
        <time>2022-09-18T06:47:09.000Z</time>
      </trkpt>
      <trkpt lat="49.75507" lon="4.82173">
        <ele>191</ele>
        <time>2022-09-18T06:47:10.000Z</time>
      </trkpt>
      <trkpt lat="49.75511" lon="4.82182">
        <ele>191</ele>
        <time>2022-09-18T06:47:11.000Z</time>
      </trkpt>
      <trkpt lat="49.75515" lon="4.82192">
        <ele>191</ele>
        <time>2022-09-18T06:47:12.000Z</time>
      </trkpt>
      <trkpt lat="49.7552" lon="4.82201">
        <ele>191</ele>
        <time>2022-09-18T06:47:13.000Z</time>
      </trkpt>
      <trkpt lat="49.75524" lon="4.8221">
        <ele>191</ele>
        <time>2022-09-18T06:47:14.000Z</time>
      </trkpt>
      <trkpt lat="49.75529" lon="4.82218">
        <ele>191</ele>
        <time>2022-09-18T06:47:15.000Z</time>
      </trkpt>
      <trkpt lat="49.75534" lon="4.82227">
        <ele>191</ele>
        <time>2022-09-18T06:47:16.000Z</time>
      </trkpt>
      <trkpt lat="49.75538" lon="4.82235">
        <ele>191</ele>
        <time>2022-09-18T06:47:17.000Z</time>
      </trkpt>
      <trkpt lat="49.75542" lon="4.82244">
        <ele>191</ele>
        <time>2022-09-18T06:47:18.000Z</time>
      </trkpt>
      <trkpt lat="49.75546" lon="4.82252">
        <ele>191</ele>
        <time>2022-09-18T06:47:19.000Z</time>
      </trkpt>
      <trkpt lat="49.75548" lon="4.82261">
        <ele>191</ele>
        <time>2022-09-18T06:47:20.000Z</time>
      </trkpt>
      <trkpt lat="49.75548" lon="4.8227">
        <ele>190</ele>
        <time>2022-09-18T06:47:21.000Z</time>
      </trkpt>
      <trkpt lat="49.75545" lon="4.82278">
        <ele>190</ele>
        <time>2022-09-18T06:47:22.000Z</time>
      </trkpt>
      <trkpt lat="49.75541" lon="4.82281">
        <ele>190</ele>
        <time>2022-09-18T06:47:23.000Z</time>
      </trkpt>
      <trkpt lat="49.75535" lon="4.8228">
        <ele>190</ele>
        <time>2022-09-18T06:47:24.000Z</time>
      </trkpt>
      <trkpt lat="49.75529" lon="4.82278">
        <ele>190</ele>
        <time>2022-09-18T06:47:25.000Z</time>
      </trkpt>
      <trkpt lat="49.75523" lon="4.82274">
        <ele>190</ele>
        <time>2022-09-18T06:47:26.000Z</time>
      </trkpt>
      <trkpt lat="49.75516" lon="4.82271">
        <ele>190</ele>
        <time>2022-09-18T06:47:27.000Z</time>
      </trkpt>
      <trkpt lat="49.7551" lon="4.82268">
        <ele>190</ele>
        <time>2022-09-18T06:47:28.000Z</time>
      </trkpt>
      <trkpt lat="49.75503" lon="4.82264">
        <ele>190</ele>
        <time>2022-09-18T06:47:29.000Z</time>
      </trkpt>
      <trkpt lat="49.75497" lon="4.8226">
        <ele>189</ele>
        <time>2022-09-18T06:47:30.000Z</time>
      </trkpt>
      <trkpt lat="49.7549" lon="4.82255">
        <ele>189</ele>
        <time>2022-09-18T06:47:31.000Z</time>
      </trkpt>
      <trkpt lat="49.75484" lon="4.8225">
        <ele>189</ele>
        <time>2022-09-18T06:47:32.000Z</time>
      </trkpt>
      <trkpt lat="49.75478" lon="4.82244">
        <ele>189</ele>
        <time>2022-09-18T06:47:33.000Z</time>
      </trkpt>
      <trkpt lat="49.75472" lon="4.82238">
        <ele>189</ele>
        <time>2022-09-18T06:47:34.000Z</time>
      </trkpt>
      <trkpt lat="49.75466" lon="4.82232">
        <ele>189</ele>
        <time>2022-09-18T06:47:35.000Z</time>
      </trkpt>
      <trkpt lat="49.7546" lon="4.82227">
        <ele>189</ele>
        <time>2022-09-18T06:47:36.000Z</time>
      </trkpt>
      <trkpt lat="49.75454" lon="4.82223">
        <ele>189</ele>
        <time>2022-09-18T06:47:37.000Z</time>
      </trkpt>
      <trkpt lat="49.75448" lon="4.82219">
        <ele>190</ele>
        <time>2022-09-18T06:47:38.000Z</time>
      </trkpt>
      <trkpt lat="49.75442" lon="4.82215">
        <ele>190</ele>
        <time>2022-09-18T06:47:39.000Z</time>
      </trkpt>
      <trkpt lat="49.75435" lon="4.82211">
        <ele>190</ele>
        <time>2022-09-18T06:47:40.000Z</time>
      </trkpt>
      <trkpt lat="49.75429" lon="4.82208">
        <ele>189</ele>
        <time>2022-09-18T06:47:41.000Z</time>
      </trkpt>
      <trkpt lat="49.75423" lon="4.82205">
        <ele>189</ele>
        <time>2022-09-18T06:47:42.000Z</time>
      </trkpt>
      <trkpt lat="49.75416" lon="4.82203">
        <ele>189</ele>
        <time>2022-09-18T06:47:43.000Z</time>
      </trkpt>
      <trkpt lat="49.7541" lon="4.822">
        <ele>190</ele>
        <time>2022-09-18T06:47:44.000Z</time>
      </trkpt>
      <trkpt lat="49.75404" lon="4.82198">
        <ele>190</ele>
        <time>2022-09-18T06:47:45.000Z</time>
      </trkpt>
      <trkpt lat="49.75399" lon="4.82196">
        <ele>190</ele>
        <time>2022-09-18T06:47:46.000Z</time>
      </trkpt>
      <trkpt lat="49.75393" lon="4.82196">
        <ele>189</ele>
        <time>2022-09-18T06:47:47.000Z</time>
      </trkpt>
      <trkpt lat="49.75388" lon="4.82198">
        <ele>190</ele>
        <time>2022-09-18T06:47:48.000Z</time>
      </trkpt>
      <trkpt lat="49.75385" lon="4.822">
        <ele>190</ele>
        <time>2022-09-18T06:47:49.000Z</time>
      </trkpt>
      <trkpt lat="49.75381" lon="4.82203">
        <ele>190</ele>
        <time>2022-09-18T06:47:50.000Z</time>
      </trkpt>
      <trkpt lat="49.75379" lon="4.82205">
        <ele>190</ele>
        <time>2022-09-18T06:47:51.000Z</time>
      </trkpt>
      <trkpt lat="49.75377" lon="4.82205">
        <ele>190</ele>
        <time>2022-09-18T06:47:52.000Z</time>
      </trkpt>
      <trkpt lat="49.75377" lon="4.82205">
        <ele>190</ele>
        <time>2022-09-18T06:47:53.000Z</time>
      </trkpt>
      <trkpt lat="49.75377" lon="4.82205">
        <ele>190</ele>
        <time>2022-09-18T06:47:54.000Z</time>
      </trkpt>
      <trkpt lat="49.75377" lon="4.82205">
        <ele>190</ele>
        <time>2022-09-18T06:47:55.000Z</time>
      </trkpt>
      <trkpt lat="49.75376" lon="4.82205">
        <ele>190</ele>
        <time>2022-09-18T06:47:56.000Z</time>
      </trkpt>
      <trkpt lat="49.75376" lon="4.82206">
        <ele>190</ele>
        <time>2022-09-18T06:47:57.000Z</time>
      </trkpt>
      <trkpt lat="49.75376" lon="4.82205">
        <ele>190</ele>
        <time>2022-09-18T06:47:58.000Z</time>
      </trkpt>
      <trkpt lat="49.75376" lon="4.82205">
        <ele>190</ele>
        <time>2022-09-18T06:47:59.000Z</time>
      </trkpt>
      <trkpt lat="49.75376" lon="4.82205">
        <ele>190</ele>
        <time>2022-09-18T06:48:00.000Z</time>
      </trkpt>
      <trkpt lat="49.75377" lon="4.82204">
        <ele>190</ele>
        <time>2022-09-18T06:48:01.000Z</time>
      </trkpt>
      <trkpt lat="49.75376" lon="4.82205">
        <ele>190</ele>
        <time>2022-09-18T06:48:02.000Z</time>
      </trkpt>
      <trkpt lat="49.75375" lon="4.82205">
        <ele>190</ele>
        <time>2022-09-18T06:48:03.000Z</time>
      </trkpt>
      <trkpt lat="49.75375" lon="4.82205">
        <ele>191</ele>
        <time>2022-09-18T06:48:18.000Z</time>
      </trkpt>
      <trkpt lat="49.75375" lon="4.82205">
        <ele>191</ele>
        <time>2022-09-18T06:48:19.000Z</time>
      </trkpt>
      <trkpt lat="49.75366" lon="4.82206">
        <ele>191</ele>
        <time>2022-09-18T06:48:20.000Z</time>
      </trkpt>
      <trkpt lat="49.75368" lon="4.82204">
        <ele>192</ele>
        <time>2022-09-18T06:48:21.000Z</time>
      </trkpt>
      <trkpt lat="49.7537" lon="4.82201">
        <ele>193</ele>
        <time>2022-09-18T06:48:22.000Z</time>
      </trkpt>
      <trkpt lat="49.75371" lon="4.82199">
        <ele>194</ele>
        <time>2022-09-18T06:48:23.000Z</time>
      </trkpt>
      <trkpt lat="49.75373" lon="4.82198">
        <ele>195</ele>
        <time>2022-09-18T06:48:24.000Z</time>
      </trkpt>
      <trkpt lat="49.75374" lon="4.82196">
        <ele>196</ele>
        <time>2022-09-18T06:48:25.000Z</time>
      </trkpt>
      <trkpt lat="49.75376" lon="4.82194">
        <ele>198</ele>
        <time>2022-09-18T06:48:26.000Z</time>
      </trkpt>
      <trkpt lat="49.75377" lon="4.82193">
        <ele>198</ele>
        <time>2022-09-18T06:48:27.000Z</time>
      </trkpt>
      <trkpt lat="49.75378" lon="4.82191">
        <ele>199</ele>
        <time>2022-09-18T06:48:28.000Z</time>
      </trkpt>
      <trkpt lat="49.75379" lon="4.8219">
        <ele>199</ele>
        <time>2022-09-18T06:48:29.000Z</time>
      </trkpt>
      <trkpt lat="49.7538" lon="4.82188">
        <ele>199</ele>
        <time>2022-09-18T06:48:30.000Z</time>
      </trkpt>
      <trkpt lat="49.75381" lon="4.82184">
        <ele>199</ele>
        <time>2022-09-18T06:48:31.000Z</time>
      </trkpt>
      <trkpt lat="49.75384" lon="4.82181">
        <ele>199</ele>
        <time>2022-09-18T06:48:32.000Z</time>
      </trkpt>
      <trkpt lat="49.75388" lon="4.8218">
        <ele>198</ele>
        <time>2022-09-18T06:48:33.000Z</time>
      </trkpt>
      <trkpt lat="49.75392" lon="4.82181">
        <ele>198</ele>
        <time>2022-09-18T06:48:34.000Z</time>
      </trkpt>
      <trkpt lat="49.75397" lon="4.82182">
        <ele>197</ele>
        <time>2022-09-18T06:48:35.000Z</time>
      </trkpt>
      <trkpt lat="49.75402" lon="4.82185">
        <ele>197</ele>
        <time>2022-09-18T06:48:36.000Z</time>
      </trkpt>
      <trkpt lat="49.75407" lon="4.82188">
        <ele>196</ele>
        <time>2022-09-18T06:48:37.000Z</time>
      </trkpt>
      <trkpt lat="49.75413" lon="4.82191">
        <ele>196</ele>
        <time>2022-09-18T06:48:38.000Z</time>
      </trkpt>
      <trkpt lat="49.75418" lon="4.82195">
        <ele>195</ele>
        <time>2022-09-18T06:48:39.000Z</time>
      </trkpt>
      <trkpt lat="49.75424" lon="4.82198">
        <ele>195</ele>
        <time>2022-09-18T06:48:40.000Z</time>
      </trkpt>
      <trkpt lat="49.7543" lon="4.82202">
        <ele>195</ele>
        <time>2022-09-18T06:48:41.000Z</time>
      </trkpt>
      <trkpt lat="49.75437" lon="4.82205">
        <ele>194</ele>
        <time>2022-09-18T06:48:42.000Z</time>
      </trkpt>
      <trkpt lat="49.75443" lon="4.82209">
        <ele>194</ele>
        <time>2022-09-18T06:48:43.000Z</time>
      </trkpt>
      <trkpt lat="49.7545" lon="4.82213">
        <ele>193</ele>
        <time>2022-09-18T06:48:44.000Z</time>
      </trkpt>
      <trkpt lat="49.75456" lon="4.82215">
        <ele>193</ele>
        <time>2022-09-18T06:48:45.000Z</time>
      </trkpt>
      <trkpt lat="49.75462" lon="4.82214">
        <ele>193</ele>
        <time>2022-09-18T06:48:46.000Z</time>
      </trkpt>
      <trkpt lat="49.75468" lon="4.82211">
        <ele>192</ele>
        <time>2022-09-18T06:48:47.000Z</time>
      </trkpt>
      <trkpt lat="49.75473" lon="4.82209">
        <ele>192</ele>
        <time>2022-09-18T06:48:48.000Z</time>
      </trkpt>
      <trkpt lat="49.75479" lon="4.82205">
        <ele>192</ele>
        <time>2022-09-18T06:48:49.000Z</time>
      </trkpt>
      <trkpt lat="49.75484" lon="4.82201">
        <ele>192</ele>
        <time>2022-09-18T06:48:50.000Z</time>
      </trkpt>
      <trkpt lat="49.75488" lon="4.82196">
        <ele>192</ele>
        <time>2022-09-18T06:48:51.000Z</time>
      </trkpt>
      <trkpt lat="49.75493" lon="4.82191">
        <ele>192</ele>
        <time>2022-09-18T06:48:52.000Z</time>
      </trkpt>
      <trkpt lat="49.75497" lon="4.82187">
        <ele>191</ele>
        <time>2022-09-18T06:48:53.000Z</time>
      </trkpt>
      <trkpt lat="49.75501" lon="4.82185">
        <ele>191</ele>
        <time>2022-09-18T06:48:54.000Z</time>
      </trkpt>
      <trkpt lat="49.75505" lon="4.82184">
        <ele>191</ele>
        <time>2022-09-18T06:48:55.000Z</time>
      </trkpt>
      <trkpt lat="49.7551" lon="4.82181">
        <ele>191</ele>
        <time>2022-09-18T06:48:56.000Z</time>
      </trkpt>
      <trkpt lat="49.75513" lon="4.82178">
        <ele>191</ele>
        <time>2022-09-18T06:48:57.000Z</time>
      </trkpt>
      <trkpt lat="49.75514" lon="4.82174">
        <ele>190</ele>
        <time>2022-09-18T06:48:58.000Z</time>
      </trkpt>
      <trkpt lat="49.75512" lon="4.8217">
        <ele>190</ele>
        <time>2022-09-18T06:48:59.000Z</time>
      </trkpt>
      <trkpt lat="49.75509" lon="4.82165">
        <ele>190</ele>
        <time>2022-09-18T06:49:00.000Z</time>
      </trkpt>
      <trkpt lat="49.75505" lon="4.82159">
        <ele>190</ele>
        <time>2022-09-18T06:49:01.000Z</time>
      </trkpt>
      <trkpt lat="49.75501" lon="4.82152">
        <ele>190</ele>
        <time>2022-09-18T06:49:02.000Z</time>
      </trkpt>
      <trkpt lat="49.75497" lon="4.82146">
        <ele>190</ele>
        <time>2022-09-18T06:49:03.000Z</time>
      </trkpt>
      <trkpt lat="49.75493" lon="4.8214">
        <ele>190</ele>
        <time>2022-09-18T06:49:04.000Z</time>
      </trkpt>
      <trkpt lat="49.75489" lon="4.82134">
        <ele>190</ele>
        <time>2022-09-18T06:49:05.000Z</time>
      </trkpt>
      <trkpt lat="49.75484" lon="4.82128">
        <ele>190</ele>
        <time>2022-09-18T06:49:06.000Z</time>
      </trkpt>
      <trkpt lat="49.7548" lon="4.82122">
        <ele>190</ele>
        <time>2022-09-18T06:49:07.000Z</time>
      </trkpt>
      <trkpt lat="49.75476" lon="4.82117">
        <ele>190</ele>
        <time>2022-09-18T06:49:08.000Z</time>
      </trkpt>
      <trkpt lat="49.75471" lon="4.82111">
        <ele>190</ele>
        <time>2022-09-18T06:49:09.000Z</time>
      </trkpt>
      <trkpt lat="49.75467" lon="4.82106">
        <ele>190</ele>
        <time>2022-09-18T06:49:10.000Z</time>
      </trkpt>
      <trkpt lat="49.75463" lon="4.82101">
        <ele>191</ele>
        <time>2022-09-18T06:49:11.000Z</time>
      </trkpt>
      <trkpt lat="49.75458" lon="4.82096">
        <ele>191</ele>
        <time>2022-09-18T06:49:12.000Z</time>
      </trkpt>
      <trkpt lat="49.75453" lon="4.82092">
        <ele>191</ele>
        <time>2022-09-18T06:49:13.000Z</time>
      </trkpt>
      <trkpt lat="49.75448" lon="4.82088">
        <ele>191</ele>
        <time>2022-09-18T06:49:14.000Z</time>
      </trkpt>
      <trkpt lat="49.75444" lon="4.82084">
        <ele>191</ele>
        <time>2022-09-18T06:49:15.000Z</time>
      </trkpt>
      <trkpt lat="49.75439" lon="4.82079">
        <ele>191</ele>
        <time>2022-09-18T06:49:16.000Z</time>
      </trkpt>
      <trkpt lat="49.75434" lon="4.82074">
        <ele>191</ele>
        <time>2022-09-18T06:49:17.000Z</time>
      </trkpt>
      <trkpt lat="49.7543" lon="4.8207">
        <ele>191</ele>
        <time>2022-09-18T06:49:18.000Z</time>
      </trkpt>
      <trkpt lat="49.75425" lon="4.82065">
        <ele>191</ele>
        <time>2022-09-18T06:49:19.000Z</time>
      </trkpt>
      <trkpt lat="49.7542" lon="4.82061">
        <ele>191</ele>
        <time>2022-09-18T06:49:20.000Z</time>
      </trkpt>
      <trkpt lat="49.75416" lon="4.82056">
        <ele>191</ele>
        <time>2022-09-18T06:49:21.000Z</time>
      </trkpt>
      <trkpt lat="49.75411" lon="4.82051">
        <ele>191</ele>
        <time>2022-09-18T06:49:22.000Z</time>
      </trkpt>
      <trkpt lat="49.75407" lon="4.82047">
        <ele>191</ele>
        <time>2022-09-18T06:49:23.000Z</time>
      </trkpt>
      <trkpt lat="49.75402" lon="4.82043">
        <ele>191</ele>
        <time>2022-09-18T06:49:24.000Z</time>
      </trkpt>
      <trkpt lat="49.75397" lon="4.82039">
        <ele>191</ele>
        <time>2022-09-18T06:49:25.000Z</time>
      </trkpt>
      <trkpt lat="49.75392" lon="4.82035">
        <ele>191</ele>
        <time>2022-09-18T06:49:26.000Z</time>
      </trkpt>
      <trkpt lat="49.75387" lon="4.82031">
        <ele>191</ele>
        <time>2022-09-18T06:49:27.000Z</time>
      </trkpt>
      <trkpt lat="49.75382" lon="4.82028">
        <ele>191</ele>
        <time>2022-09-18T06:49:28.000Z</time>
      </trkpt>
      <trkpt lat="49.75377" lon="4.82025">
        <ele>191</ele>
        <time>2022-09-18T06:49:29.000Z</time>
      </trkpt>
      <trkpt lat="49.75372" lon="4.82022">
        <ele>191</ele>
        <time>2022-09-18T06:49:30.000Z</time>
      </trkpt>
      <trkpt lat="49.75367" lon="4.82019">
        <ele>191</ele>
        <time>2022-09-18T06:49:31.000Z</time>
      </trkpt>
      <trkpt lat="49.75362" lon="4.82017">
        <ele>191</ele>
        <time>2022-09-18T06:49:32.000Z</time>
      </trkpt>
      <trkpt lat="49.75358" lon="4.82014">
        <ele>191</ele>
        <time>2022-09-18T06:49:33.000Z</time>
      </trkpt>
      <trkpt lat="49.75353" lon="4.82011">
        <ele>191</ele>
        <time>2022-09-18T06:49:34.000Z</time>
      </trkpt>
      <trkpt lat="49.75348" lon="4.82008">
        <ele>191</ele>
        <time>2022-09-18T06:49:35.000Z</time>
      </trkpt>
      <trkpt lat="49.75343" lon="4.82006">
        <ele>191</ele>
        <time>2022-09-18T06:49:36.000Z</time>
      </trkpt>
      <trkpt lat="49.75338" lon="4.82004">
        <ele>192</ele>
        <time>2022-09-18T06:49:37.000Z</time>
      </trkpt>
      <trkpt lat="49.75334" lon="4.82001">
        <ele>192</ele>
        <time>2022-09-18T06:49:38.000Z</time>
      </trkpt>
      <trkpt lat="49.75329" lon="4.81998">
        <ele>192</ele>
        <time>2022-09-18T06:49:39.000Z</time>
      </trkpt>
      <trkpt lat="49.75324" lon="4.81994">
        <ele>192</ele>
        <time>2022-09-18T06:49:40.000Z</time>
      </trkpt>
      <trkpt lat="49.7532" lon="4.81991">
        <ele>192</ele>
        <time>2022-09-18T06:49:41.000Z</time>
      </trkpt>
      <trkpt lat="49.75316" lon="4.81988">
        <ele>192</ele>
        <time>2022-09-18T06:49:42.000Z</time>
      </trkpt>
      <trkpt lat="49.75312" lon="4.81986">
        <ele>192</ele>
        <time>2022-09-18T06:49:43.000Z</time>
      </trkpt>
      <trkpt lat="49.75308" lon="4.81983">
        <ele>192</ele>
        <time>2022-09-18T06:49:44.000Z</time>
      </trkpt>
      <trkpt lat="49.75304" lon="4.81981">
        <ele>192</ele>
        <time>2022-09-18T06:49:45.000Z</time>
      </trkpt>
      <trkpt lat="49.75301" lon="4.81978">
        <ele>192</ele>
        <time>2022-09-18T06:49:46.000Z</time>
      </trkpt>
      <trkpt lat="49.75297" lon="4.81976">
        <ele>193</ele>
        <time>2022-09-18T06:49:47.000Z</time>
      </trkpt>
      <trkpt lat="49.75294" lon="4.81973">
        <ele>193</ele>
        <time>2022-09-18T06:49:48.000Z</time>
      </trkpt>
      <trkpt lat="49.7529" lon="4.8197">
        <ele>193</ele>
        <time>2022-09-18T06:49:49.000Z</time>
      </trkpt>
      <trkpt lat="49.75287" lon="4.81968">
        <ele>193</ele>
        <time>2022-09-18T06:49:50.000Z</time>
      </trkpt>
      <trkpt lat="49.75284" lon="4.81965">
        <ele>193</ele>
        <time>2022-09-18T06:49:51.000Z</time>
      </trkpt>
      <trkpt lat="49.7528" lon="4.81963">
        <ele>193</ele>
        <time>2022-09-18T06:49:52.000Z</time>
      </trkpt>
      <trkpt lat="49.75277" lon="4.8196">
        <ele>194</ele>
        <time>2022-09-18T06:49:53.000Z</time>
      </trkpt>
      <trkpt lat="49.75274" lon="4.81958">
        <ele>194</ele>
        <time>2022-09-18T06:49:54.000Z</time>
      </trkpt>
      <trkpt lat="49.7527" lon="4.81954">
        <ele>194</ele>
        <time>2022-09-18T06:49:55.000Z</time>
      </trkpt>
      <trkpt lat="49.75267" lon="4.81951">
        <ele>194</ele>
        <time>2022-09-18T06:49:56.000Z</time>
      </trkpt>
      <trkpt lat="49.75264" lon="4.81948">
        <ele>194</ele>
        <time>2022-09-18T06:49:57.000Z</time>
      </trkpt>
      <trkpt lat="49.7526" lon="4.81945">
        <ele>194</ele>
        <time>2022-09-18T06:49:58.000Z</time>
      </trkpt>
      <trkpt lat="49.75257" lon="4.81941">
        <ele>194</ele>
        <time>2022-09-18T06:49:59.000Z</time>
      </trkpt>
      <trkpt lat="49.75254" lon="4.81937">
        <ele>195</ele>
        <time>2022-09-18T06:50:00.000Z</time>
      </trkpt>
      <trkpt lat="49.75252" lon="4.81933">
        <ele>195</ele>
        <time>2022-09-18T06:50:01.000Z</time>
      </trkpt>
      <trkpt lat="49.75249" lon="4.81928">
        <ele>195</ele>
        <time>2022-09-18T06:50:02.000Z</time>
      </trkpt>
      <trkpt lat="49.75247" lon="4.81923">
        <ele>195</ele>
        <time>2022-09-18T06:50:03.000Z</time>
      </trkpt>
      <trkpt lat="49.75244" lon="4.8192">
        <ele>196</ele>
        <time>2022-09-18T06:50:04.000Z</time>
      </trkpt>
      <trkpt lat="49.75241" lon="4.81916">
        <ele>196</ele>
        <time>2022-09-18T06:50:05.000Z</time>
      </trkpt>
      <trkpt lat="49.75238" lon="4.81913">
        <ele>196</ele>
        <time>2022-09-18T06:50:06.000Z</time>
      </trkpt>
      <trkpt lat="49.75235" lon="4.81909">
        <ele>196</ele>
        <time>2022-09-18T06:50:07.000Z</time>
      </trkpt>
      <trkpt lat="49.75232" lon="4.81906">
        <ele>196</ele>
        <time>2022-09-18T06:50:08.000Z</time>
      </trkpt>
      <trkpt lat="49.75228" lon="4.81902">
        <ele>197</ele>
        <time>2022-09-18T06:50:09.000Z</time>
      </trkpt>
      <trkpt lat="49.75225" lon="4.81898">
        <ele>197</ele>
        <time>2022-09-18T06:50:10.000Z</time>
      </trkpt>
      <trkpt lat="49.75222" lon="4.81894">
        <ele>197</ele>
        <time>2022-09-18T06:50:11.000Z</time>
      </trkpt>
      <trkpt lat="49.75218" lon="4.8189">
        <ele>197</ele>
        <time>2022-09-18T06:50:12.000Z</time>
      </trkpt>
      <trkpt lat="49.75215" lon="4.81885">
        <ele>197</ele>
        <time>2022-09-18T06:50:13.000Z</time>
      </trkpt>
      <trkpt lat="49.75212" lon="4.81881">
        <ele>198</ele>
        <time>2022-09-18T06:50:14.000Z</time>
      </trkpt>
      <trkpt lat="49.75209" lon="4.81877">
        <ele>198</ele>
        <time>2022-09-18T06:50:15.000Z</time>
      </trkpt>
      <trkpt lat="49.75205" lon="4.81872">
        <ele>198</ele>
        <time>2022-09-18T06:50:16.000Z</time>
      </trkpt>
      <trkpt lat="49.75202" lon="4.81867">
        <ele>198</ele>
        <time>2022-09-18T06:50:17.000Z</time>
      </trkpt>
      <trkpt lat="49.75199" lon="4.81862">
        <ele>198</ele>
        <time>2022-09-18T06:50:18.000Z</time>
      </trkpt>
      <trkpt lat="49.75196" lon="4.81857">
        <ele>198</ele>
        <time>2022-09-18T06:50:19.000Z</time>
      </trkpt>
      <trkpt lat="49.75193" lon="4.81852">
        <ele>198</ele>
        <time>2022-09-18T06:50:20.000Z</time>
      </trkpt>
      <trkpt lat="49.7519" lon="4.81847">
        <ele>199</ele>
        <time>2022-09-18T06:50:21.000Z</time>
      </trkpt>
      <trkpt lat="49.75187" lon="4.81841">
        <ele>199</ele>
        <time>2022-09-18T06:50:22.000Z</time>
      </trkpt>
      <trkpt lat="49.75184" lon="4.81836">
        <ele>199</ele>
        <time>2022-09-18T06:50:23.000Z</time>
      </trkpt>
      <trkpt lat="49.75181" lon="4.81831">
        <ele>199</ele>
        <time>2022-09-18T06:50:24.000Z</time>
      </trkpt>
      <trkpt lat="49.75178" lon="4.81826">
        <ele>199</ele>
        <time>2022-09-18T06:50:25.000Z</time>
      </trkpt>
      <trkpt lat="49.75175" lon="4.8182">
        <ele>199</ele>
        <time>2022-09-18T06:50:26.000Z</time>
      </trkpt>
      <trkpt lat="49.75172" lon="4.81815">
        <ele>200</ele>
        <time>2022-09-18T06:50:27.000Z</time>
      </trkpt>
      <trkpt lat="49.75169" lon="4.81811">
        <ele>200</ele>
        <time>2022-09-18T06:50:28.000Z</time>
      </trkpt>
      <trkpt lat="49.75165" lon="4.81806">
        <ele>200</ele>
        <time>2022-09-18T06:50:29.000Z</time>
      </trkpt>
      <trkpt lat="49.75162" lon="4.81801">
        <ele>200</ele>
        <time>2022-09-18T06:50:30.000Z</time>
      </trkpt>
      <trkpt lat="49.7516" lon="4.81796">
        <ele>200</ele>
        <time>2022-09-18T06:50:31.000Z</time>
      </trkpt>
      <trkpt lat="49.75157" lon="4.81791">
        <ele>200</ele>
        <time>2022-09-18T06:50:32.000Z</time>
      </trkpt>
      <trkpt lat="49.75153" lon="4.81786">
        <ele>200</ele>
        <time>2022-09-18T06:50:33.000Z</time>
      </trkpt>
      <trkpt lat="49.7515" lon="4.8178">
        <ele>200</ele>
        <time>2022-09-18T06:50:34.000Z</time>
      </trkpt>
      <trkpt lat="49.75147" lon="4.81775">
        <ele>200</ele>
        <time>2022-09-18T06:50:35.000Z</time>
      </trkpt>
      <trkpt lat="49.75143" lon="4.8177">
        <ele>200</ele>
        <time>2022-09-18T06:50:36.000Z</time>
      </trkpt>
      <trkpt lat="49.7514" lon="4.81765">
        <ele>200</ele>
        <time>2022-09-18T06:50:37.000Z</time>
      </trkpt>
      <trkpt lat="49.75138" lon="4.81759">
        <ele>200</ele>
        <time>2022-09-18T06:50:38.000Z</time>
      </trkpt>
      <trkpt lat="49.75136" lon="4.81752">
        <ele>200</ele>
        <time>2022-09-18T06:50:39.000Z</time>
      </trkpt>
      <trkpt lat="49.75134" lon="4.81746">
        <ele>201</ele>
        <time>2022-09-18T06:50:40.000Z</time>
      </trkpt>
      <trkpt lat="49.75132" lon="4.81739">
        <ele>201</ele>
        <time>2022-09-18T06:50:41.000Z</time>
      </trkpt>
      <trkpt lat="49.7513" lon="4.81733">
        <ele>201</ele>
        <time>2022-09-18T06:50:42.000Z</time>
      </trkpt>
      <trkpt lat="49.75128" lon="4.81726">
        <ele>201</ele>
        <time>2022-09-18T06:50:43.000Z</time>
      </trkpt>
      <trkpt lat="49.75125" lon="4.81719">
        <ele>201</ele>
        <time>2022-09-18T06:50:44.000Z</time>
      </trkpt>
      <trkpt lat="49.75123" lon="4.81713">
        <ele>202</ele>
        <time>2022-09-18T06:50:45.000Z</time>
      </trkpt>
      <trkpt lat="49.75121" lon="4.81707">
        <ele>202</ele>
        <time>2022-09-18T06:50:46.000Z</time>
      </trkpt>
      <trkpt lat="49.75119" lon="4.817">
        <ele>202</ele>
        <time>2022-09-18T06:50:47.000Z</time>
      </trkpt>
      <trkpt lat="49.75117" lon="4.81694">
        <ele>202</ele>
        <time>2022-09-18T06:50:48.000Z</time>
      </trkpt>
      <trkpt lat="49.75115" lon="4.81687">
        <ele>203</ele>
        <time>2022-09-18T06:50:49.000Z</time>
      </trkpt>
      <trkpt lat="49.75114" lon="4.81679">
        <ele>203</ele>
        <time>2022-09-18T06:50:50.000Z</time>
      </trkpt>
      <trkpt lat="49.75114" lon="4.81672">
        <ele>203</ele>
        <time>2022-09-18T06:50:51.000Z</time>
      </trkpt>
      <trkpt lat="49.75113" lon="4.81664">
        <ele>203</ele>
        <time>2022-09-18T06:50:52.000Z</time>
      </trkpt>
      <trkpt lat="49.75113" lon="4.81657">
        <ele>203</ele>
        <time>2022-09-18T06:50:53.000Z</time>
      </trkpt>
      <trkpt lat="49.75113" lon="4.81649">
        <ele>203</ele>
        <time>2022-09-18T06:50:54.000Z</time>
      </trkpt>
      <trkpt lat="49.75112" lon="4.81641">
        <ele>204</ele>
        <time>2022-09-18T06:50:55.000Z</time>
      </trkpt>
      <trkpt lat="49.75112" lon="4.81633">
        <ele>204</ele>
        <time>2022-09-18T06:50:56.000Z</time>
      </trkpt>
      <trkpt lat="49.75112" lon="4.81626">
        <ele>204</ele>
        <time>2022-09-18T06:50:57.000Z</time>
      </trkpt>
      <trkpt lat="49.75112" lon="4.81618">
        <ele>204</ele>
        <time>2022-09-18T06:50:58.000Z</time>
      </trkpt>
      <trkpt lat="49.75112" lon="4.8161">
        <ele>204</ele>
        <time>2022-09-18T06:50:59.000Z</time>
      </trkpt>
      <trkpt lat="49.75112" lon="4.81603">
        <ele>204</ele>
        <time>2022-09-18T06:51:00.000Z</time>
      </trkpt>
      <trkpt lat="49.75112" lon="4.81596">
        <ele>204</ele>
        <time>2022-09-18T06:51:01.000Z</time>
      </trkpt>
      <trkpt lat="49.75112" lon="4.8159">
        <ele>204</ele>
        <time>2022-09-18T06:51:02.000Z</time>
      </trkpt>
      <trkpt lat="49.75112" lon="4.81583">
        <ele>204</ele>
        <time>2022-09-18T06:51:03.000Z</time>
      </trkpt>
      <trkpt lat="49.75113" lon="4.81577">
        <ele>204</ele>
        <time>2022-09-18T06:51:04.000Z</time>
      </trkpt>
      <trkpt lat="49.75113" lon="4.8157">
        <ele>204</ele>
        <time>2022-09-18T06:51:05.000Z</time>
      </trkpt>
      <trkpt lat="49.75114" lon="4.81563">
        <ele>204</ele>
        <time>2022-09-18T06:51:06.000Z</time>
      </trkpt>
      <trkpt lat="49.75115" lon="4.81556">
        <ele>204</ele>
        <time>2022-09-18T06:51:07.000Z</time>
      </trkpt>
      <trkpt lat="49.75116" lon="4.81549">
        <ele>204</ele>
        <time>2022-09-18T06:51:08.000Z</time>
      </trkpt>
      <trkpt lat="49.75117" lon="4.81542">
        <ele>204</ele>
        <time>2022-09-18T06:51:09.000Z</time>
      </trkpt>
      <trkpt lat="49.75118" lon="4.81535">
        <ele>204</ele>
        <time>2022-09-18T06:51:10.000Z</time>
      </trkpt>
      <trkpt lat="49.75119" lon="4.81528">
        <ele>204</ele>
        <time>2022-09-18T06:51:11.000Z</time>
      </trkpt>
      <trkpt lat="49.7512" lon="4.81521">
        <ele>204</ele>
        <time>2022-09-18T06:51:12.000Z</time>
      </trkpt>
      <trkpt lat="49.75122" lon="4.81514">
        <ele>204</ele>
        <time>2022-09-18T06:51:13.000Z</time>
      </trkpt>
      <trkpt lat="49.75123" lon="4.81507">
        <ele>204</ele>
        <time>2022-09-18T06:51:14.000Z</time>
      </trkpt>
      <trkpt lat="49.75125" lon="4.815">
        <ele>204</ele>
        <time>2022-09-18T06:51:15.000Z</time>
      </trkpt>
      <trkpt lat="49.75126" lon="4.81493">
        <ele>205</ele>
        <time>2022-09-18T06:51:16.000Z</time>
      </trkpt>
      <trkpt lat="49.75128" lon="4.81487">
        <ele>205</ele>
        <time>2022-09-18T06:51:17.000Z</time>
      </trkpt>
      <trkpt lat="49.75129" lon="4.81481">
        <ele>205</ele>
        <time>2022-09-18T06:51:18.000Z</time>
      </trkpt>
      <trkpt lat="49.75131" lon="4.81476">
        <ele>205</ele>
        <time>2022-09-18T06:51:19.000Z</time>
      </trkpt>
      <trkpt lat="49.75134" lon="4.81471">
        <ele>205</ele>
        <time>2022-09-18T06:51:20.000Z</time>
      </trkpt>
      <trkpt lat="49.75136" lon="4.81466">
        <ele>205</ele>
        <time>2022-09-18T06:51:21.000Z</time>
      </trkpt>
      <trkpt lat="49.75138" lon="4.81461">
        <ele>205</ele>
        <time>2022-09-18T06:51:22.000Z</time>
      </trkpt>
      <trkpt lat="49.7514" lon="4.81456">
        <ele>205</ele>
        <time>2022-09-18T06:51:23.000Z</time>
      </trkpt>
      <trkpt lat="49.7514" lon="4.81451">
        <ele>205</ele>
        <time>2022-09-18T06:51:24.000Z</time>
      </trkpt>
      <trkpt lat="49.75141" lon="4.81445">
        <ele>205</ele>
        <time>2022-09-18T06:51:25.000Z</time>
      </trkpt>
      <trkpt lat="49.75143" lon="4.8144">
        <ele>205</ele>
        <time>2022-09-18T06:51:26.000Z</time>
      </trkpt>
      <trkpt lat="49.75143" lon="4.81435">
        <ele>205</ele>
        <time>2022-09-18T06:51:27.000Z</time>
      </trkpt>
      <trkpt lat="49.75144" lon="4.81429">
        <ele>205</ele>
        <time>2022-09-18T06:51:28.000Z</time>
      </trkpt>
      <trkpt lat="49.75144" lon="4.81424">
        <ele>205</ele>
        <time>2022-09-18T06:51:29.000Z</time>
      </trkpt>
      <trkpt lat="49.75144" lon="4.81418">
        <ele>205</ele>
        <time>2022-09-18T06:51:30.000Z</time>
      </trkpt>
      <trkpt lat="49.75144" lon="4.81414">
        <ele>205</ele>
        <time>2022-09-18T06:51:31.000Z</time>
      </trkpt>
      <trkpt lat="49.75145" lon="4.81409">
        <ele>206</ele>
        <time>2022-09-18T06:51:32.000Z</time>
      </trkpt>
      <trkpt lat="49.75146" lon="4.81404">
        <ele>206</ele>
        <time>2022-09-18T06:51:33.000Z</time>
      </trkpt>
      <trkpt lat="49.75147" lon="4.814">
        <ele>206</ele>
        <time>2022-09-18T06:51:34.000Z</time>
      </trkpt>
      <trkpt lat="49.75147" lon="4.81395">
        <ele>206</ele>
        <time>2022-09-18T06:51:35.000Z</time>
      </trkpt>
      <trkpt lat="49.75146" lon="4.8139">
        <ele>206</ele>
        <time>2022-09-18T06:51:36.000Z</time>
      </trkpt>
      <trkpt lat="49.75146" lon="4.81386">
        <ele>207</ele>
        <time>2022-09-18T06:51:37.000Z</time>
      </trkpt>
      <trkpt lat="49.75146" lon="4.81381">
        <ele>207</ele>
        <time>2022-09-18T06:51:38.000Z</time>
      </trkpt>
      <trkpt lat="49.75147" lon="4.81377">
        <ele>207</ele>
        <time>2022-09-18T06:51:39.000Z</time>
      </trkpt>
      <trkpt lat="49.75147" lon="4.81373">
        <ele>207</ele>
        <time>2022-09-18T06:51:40.000Z</time>
      </trkpt>
      <trkpt lat="49.75147" lon="4.81369">
        <ele>208</ele>
        <time>2022-09-18T06:51:41.000Z</time>
      </trkpt>
      <trkpt lat="49.75146" lon="4.81364">
        <ele>208</ele>
        <time>2022-09-18T06:51:42.000Z</time>
      </trkpt>
      <trkpt lat="49.75146" lon="4.8136">
        <ele>208</ele>
        <time>2022-09-18T06:51:43.000Z</time>
      </trkpt>
      <trkpt lat="49.75146" lon="4.81355">
        <ele>208</ele>
        <time>2022-09-18T06:51:44.000Z</time>
      </trkpt>
      <trkpt lat="49.75145" lon="4.81351">
        <ele>209</ele>
        <time>2022-09-18T06:51:45.000Z</time>
      </trkpt>
      <trkpt lat="49.75145" lon="4.81346">
        <ele>209</ele>
        <time>2022-09-18T06:51:46.000Z</time>
      </trkpt>
      <trkpt lat="49.75145" lon="4.81341">
        <ele>209</ele>
        <time>2022-09-18T06:51:47.000Z</time>
      </trkpt>
      <trkpt lat="49.75145" lon="4.81336">
        <ele>209</ele>
        <time>2022-09-18T06:51:48.000Z</time>
      </trkpt>
      <trkpt lat="49.75146" lon="4.81332">
        <ele>209</ele>
        <time>2022-09-18T06:51:49.000Z</time>
      </trkpt>
      <trkpt lat="49.75145" lon="4.81327">
        <ele>209</ele>
        <time>2022-09-18T06:51:50.000Z</time>
      </trkpt>
      <trkpt lat="49.75144" lon="4.81322">
        <ele>210</ele>
        <time>2022-09-18T06:51:51.000Z</time>
      </trkpt>
      <trkpt lat="49.75144" lon="4.81317">
        <ele>210</ele>
        <time>2022-09-18T06:51:52.000Z</time>
      </trkpt>
      <trkpt lat="49.75143" lon="4.81312">
        <ele>210</ele>
        <time>2022-09-18T06:51:53.000Z</time>
      </trkpt>
      <trkpt lat="49.75142" lon="4.81306">
        <ele>210</ele>
        <time>2022-09-18T06:51:54.000Z</time>
      </trkpt>
      <trkpt lat="49.75142" lon="4.81301">
        <ele>211</ele>
        <time>2022-09-18T06:51:55.000Z</time>
      </trkpt>
      <trkpt lat="49.7514" lon="4.81297">
        <ele>211</ele>
        <time>2022-09-18T06:51:56.000Z</time>
      </trkpt>
      <trkpt lat="49.75139" lon="4.81292">
        <ele>211</ele>
        <time>2022-09-18T06:51:57.000Z</time>
      </trkpt>
      <trkpt lat="49.75138" lon="4.81286">
        <ele>211</ele>
        <time>2022-09-18T06:51:58.000Z</time>
      </trkpt>
      <trkpt lat="49.75137" lon="4.81281">
        <ele>211</ele>
        <time>2022-09-18T06:51:59.000Z</time>
      </trkpt>
      <trkpt lat="49.75136" lon="4.81276">
        <ele>212</ele>
        <time>2022-09-18T06:52:00.000Z</time>
      </trkpt>
      <trkpt lat="49.75135" lon="4.81271">
        <ele>212</ele>
        <time>2022-09-18T06:52:01.000Z</time>
      </trkpt>
      <trkpt lat="49.75134" lon="4.81265">
        <ele>212</ele>
        <time>2022-09-18T06:52:02.000Z</time>
      </trkpt>
      <trkpt lat="49.75133" lon="4.8126">
        <ele>212</ele>
        <time>2022-09-18T06:52:03.000Z</time>
      </trkpt>
      <trkpt lat="49.75131" lon="4.81256">
        <ele>212</ele>
        <time>2022-09-18T06:52:04.000Z</time>
      </trkpt>
      <trkpt lat="49.7513" lon="4.81251">
        <ele>212</ele>
        <time>2022-09-18T06:52:05.000Z</time>
      </trkpt>
      <trkpt lat="49.75129" lon="4.81247">
        <ele>213</ele>
        <time>2022-09-18T06:52:06.000Z</time>
      </trkpt>
      <trkpt lat="49.75128" lon="4.81242">
        <ele>213</ele>
        <time>2022-09-18T06:52:07.000Z</time>
      </trkpt>
      <trkpt lat="49.75127" lon="4.81238">
        <ele>213</ele>
        <time>2022-09-18T06:52:08.000Z</time>
      </trkpt>
      <trkpt lat="49.75125" lon="4.81233">
        <ele>213</ele>
        <time>2022-09-18T06:52:09.000Z</time>
      </trkpt>
      <trkpt lat="49.75124" lon="4.81228">
        <ele>213</ele>
        <time>2022-09-18T06:52:10.000Z</time>
      </trkpt>
      <trkpt lat="49.75123" lon="4.81224">
        <ele>213</ele>
        <time>2022-09-18T06:52:11.000Z</time>
      </trkpt>
      <trkpt lat="49.75123" lon="4.81219">
        <ele>213</ele>
        <time>2022-09-18T06:52:12.000Z</time>
      </trkpt>
      <trkpt lat="49.75122" lon="4.81215">
        <ele>213</ele>
        <time>2022-09-18T06:52:13.000Z</time>
      </trkpt>
      <trkpt lat="49.75122" lon="4.8121">
        <ele>213</ele>
        <time>2022-09-18T06:52:14.000Z</time>
      </trkpt>
      <trkpt lat="49.75121" lon="4.81205">
        <ele>213</ele>
        <time>2022-09-18T06:52:15.000Z</time>
      </trkpt>
      <trkpt lat="49.7512" lon="4.81201">
        <ele>213</ele>
        <time>2022-09-18T06:52:16.000Z</time>
      </trkpt>
      <trkpt lat="49.7512" lon="4.81196">
        <ele>214</ele>
        <time>2022-09-18T06:52:17.000Z</time>
      </trkpt>
      <trkpt lat="49.75118" lon="4.81191">
        <ele>214</ele>
        <time>2022-09-18T06:52:18.000Z</time>
      </trkpt>
      <trkpt lat="49.75118" lon="4.81187">
        <ele>214</ele>
        <time>2022-09-18T06:52:19.000Z</time>
      </trkpt>
      <trkpt lat="49.75117" lon="4.81182">
        <ele>214</ele>
        <time>2022-09-18T06:52:20.000Z</time>
      </trkpt>
      <trkpt lat="49.75117" lon="4.81178">
        <ele>214</ele>
        <time>2022-09-18T06:52:21.000Z</time>
      </trkpt>
      <trkpt lat="49.75116" lon="4.81174">
        <ele>214</ele>
        <time>2022-09-18T06:52:22.000Z</time>
      </trkpt>
      <trkpt lat="49.75115" lon="4.81169">
        <ele>215</ele>
        <time>2022-09-18T06:52:23.000Z</time>
      </trkpt>
      <trkpt lat="49.75114" lon="4.81165">
        <ele>215</ele>
        <time>2022-09-18T06:52:24.000Z</time>
      </trkpt>
      <trkpt lat="49.75113" lon="4.8116">
        <ele>215</ele>
        <time>2022-09-18T06:52:25.000Z</time>
      </trkpt>
      <trkpt lat="49.75112" lon="4.81155">
        <ele>216</ele>
        <time>2022-09-18T06:52:26.000Z</time>
      </trkpt>
      <trkpt lat="49.75111" lon="4.8115">
        <ele>216</ele>
        <time>2022-09-18T06:52:27.000Z</time>
      </trkpt>
      <trkpt lat="49.75109" lon="4.81144">
        <ele>216</ele>
        <time>2022-09-18T06:52:28.000Z</time>
      </trkpt>
      <trkpt lat="49.75108" lon="4.81139">
        <ele>216</ele>
        <time>2022-09-18T06:52:29.000Z</time>
      </trkpt>
      <trkpt lat="49.75107" lon="4.81134">
        <ele>216</ele>
        <time>2022-09-18T06:52:30.000Z</time>
      </trkpt>
      <trkpt lat="49.75106" lon="4.81129">
        <ele>217</ele>
        <time>2022-09-18T06:52:31.000Z</time>
      </trkpt>
      <trkpt lat="49.75105" lon="4.81124">
        <ele>217</ele>
        <time>2022-09-18T06:52:32.000Z</time>
      </trkpt>
      <trkpt lat="49.75103" lon="4.81119">
        <ele>217</ele>
        <time>2022-09-18T06:52:33.000Z</time>
      </trkpt>
      <trkpt lat="49.75101" lon="4.81114">
        <ele>217</ele>
        <time>2022-09-18T06:52:34.000Z</time>
      </trkpt>
      <trkpt lat="49.751" lon="4.81108">
        <ele>218</ele>
        <time>2022-09-18T06:52:35.000Z</time>
      </trkpt>
      <trkpt lat="49.75098" lon="4.81103">
        <ele>218</ele>
        <time>2022-09-18T06:52:36.000Z</time>
      </trkpt>
      <trkpt lat="49.75097" lon="4.81098">
        <ele>218</ele>
        <time>2022-09-18T06:52:37.000Z</time>
      </trkpt>
      <trkpt lat="49.75095" lon="4.81092">
        <ele>218</ele>
        <time>2022-09-18T06:52:38.000Z</time>
      </trkpt>
      <trkpt lat="49.75093" lon="4.81087">
        <ele>218</ele>
        <time>2022-09-18T06:52:39.000Z</time>
      </trkpt>
      <trkpt lat="49.75092" lon="4.81081">
        <ele>219</ele>
        <time>2022-09-18T06:52:40.000Z</time>
      </trkpt>
      <trkpt lat="49.75091" lon="4.81075">
        <ele>219</ele>
        <time>2022-09-18T06:52:41.000Z</time>
      </trkpt>
      <trkpt lat="49.75089" lon="4.81069">
        <ele>219</ele>
        <time>2022-09-18T06:52:42.000Z</time>
      </trkpt>
      <trkpt lat="49.75088" lon="4.81063">
        <ele>219</ele>
        <time>2022-09-18T06:52:43.000Z</time>
      </trkpt>
      <trkpt lat="49.75086" lon="4.81057">
        <ele>219</ele>
        <time>2022-09-18T06:52:44.000Z</time>
      </trkpt>
      <trkpt lat="49.75085" lon="4.8105">
        <ele>219</ele>
        <time>2022-09-18T06:52:45.000Z</time>
      </trkpt>
      <trkpt lat="49.75083" lon="4.81043">
        <ele>219</ele>
        <time>2022-09-18T06:52:46.000Z</time>
      </trkpt>
      <trkpt lat="49.75082" lon="4.81037">
        <ele>218</ele>
        <time>2022-09-18T06:52:47.000Z</time>
      </trkpt>
      <trkpt lat="49.7508" lon="4.8103">
        <ele>218</ele>
        <time>2022-09-18T06:52:48.000Z</time>
      </trkpt>
      <trkpt lat="49.75079" lon="4.81023">
        <ele>218</ele>
        <time>2022-09-18T06:52:49.000Z</time>
      </trkpt>
      <trkpt lat="49.75077" lon="4.81016">
        <ele>218</ele>
        <time>2022-09-18T06:52:50.000Z</time>
      </trkpt>
      <trkpt lat="49.75074" lon="4.81009">
        <ele>218</ele>
        <time>2022-09-18T06:52:51.000Z</time>
      </trkpt>
      <trkpt lat="49.75072" lon="4.81003">
        <ele>218</ele>
        <time>2022-09-18T06:52:52.000Z</time>
      </trkpt>
      <trkpt lat="49.7507" lon="4.80997">
        <ele>218</ele>
        <time>2022-09-18T06:52:53.000Z</time>
      </trkpt>
      <trkpt lat="49.75068" lon="4.8099">
        <ele>218</ele>
        <time>2022-09-18T06:52:54.000Z</time>
      </trkpt>
      <trkpt lat="49.75067" lon="4.80984">
        <ele>218</ele>
        <time>2022-09-18T06:52:55.000Z</time>
      </trkpt>
      <trkpt lat="49.75066" lon="4.80976">
        <ele>219</ele>
        <time>2022-09-18T06:52:56.000Z</time>
      </trkpt>
      <trkpt lat="49.75064" lon="4.80969">
        <ele>219</ele>
        <time>2022-09-18T06:52:57.000Z</time>
      </trkpt>
      <trkpt lat="49.75063" lon="4.80961">
        <ele>219</ele>
        <time>2022-09-18T06:52:58.000Z</time>
      </trkpt>
      <trkpt lat="49.75061" lon="4.80952">
        <ele>219</ele>
        <time>2022-09-18T06:52:59.000Z</time>
      </trkpt>
      <trkpt lat="49.7506" lon="4.80944">
        <ele>219</ele>
        <time>2022-09-18T06:53:00.000Z</time>
      </trkpt>
      <trkpt lat="49.75059" lon="4.80936">
        <ele>219</ele>
        <time>2022-09-18T06:53:01.000Z</time>
      </trkpt>
      <trkpt lat="49.75058" lon="4.80927">
        <ele>219</ele>
        <time>2022-09-18T06:53:02.000Z</time>
      </trkpt>
      <trkpt lat="49.75057" lon="4.80918">
        <ele>219</ele>
        <time>2022-09-18T06:53:03.000Z</time>
      </trkpt>
      <trkpt lat="49.75057" lon="4.80909">
        <ele>219</ele>
        <time>2022-09-18T06:53:04.000Z</time>
      </trkpt>
      <trkpt lat="49.75057" lon="4.809">
        <ele>219</ele>
        <time>2022-09-18T06:53:05.000Z</time>
      </trkpt>
      <trkpt lat="49.75058" lon="4.8089">
        <ele>219</ele>
        <time>2022-09-18T06:53:06.000Z</time>
      </trkpt>
      <trkpt lat="49.7506" lon="4.80881">
        <ele>219</ele>
        <time>2022-09-18T06:53:07.000Z</time>
      </trkpt>
      <trkpt lat="49.7506" lon="4.80869">
        <ele>219</ele>
        <time>2022-09-18T06:53:08.000Z</time>
      </trkpt>
      <trkpt lat="49.75061" lon="4.80858">
        <ele>219</ele>
        <time>2022-09-18T06:53:09.000Z</time>
      </trkpt>
      <trkpt lat="49.7506" lon="4.80847">
        <ele>219</ele>
        <time>2022-09-18T06:53:10.000Z</time>
      </trkpt>
      <trkpt lat="49.75061" lon="4.80836">
        <ele>219</ele>
        <time>2022-09-18T06:53:11.000Z</time>
      </trkpt>
      <trkpt lat="49.75062" lon="4.80824">
        <ele>219</ele>
        <time>2022-09-18T06:53:12.000Z</time>
      </trkpt>
      <trkpt lat="49.75064" lon="4.80813">
        <ele>219</ele>
        <time>2022-09-18T06:53:13.000Z</time>
      </trkpt>
      <trkpt lat="49.75065" lon="4.808">
        <ele>219</ele>
        <time>2022-09-18T06:53:14.000Z</time>
      </trkpt>
      <trkpt lat="49.75067" lon="4.80788">
        <ele>218</ele>
        <time>2022-09-18T06:53:15.000Z</time>
      </trkpt>
      <trkpt lat="49.75069" lon="4.80776">
        <ele>218</ele>
        <time>2022-09-18T06:53:16.000Z</time>
      </trkpt>
      <trkpt lat="49.75072" lon="4.80764">
        <ele>218</ele>
        <time>2022-09-18T06:53:17.000Z</time>
      </trkpt>
      <trkpt lat="49.75076" lon="4.80752">
        <ele>217</ele>
        <time>2022-09-18T06:53:18.000Z</time>
      </trkpt>
      <trkpt lat="49.75081" lon="4.80739">
        <ele>217</ele>
        <time>2022-09-18T06:53:19.000Z</time>
      </trkpt>
      <trkpt lat="49.75087" lon="4.80729">
        <ele>217</ele>
        <time>2022-09-18T06:53:20.000Z</time>
      </trkpt>
      <trkpt lat="49.75094" lon="4.8072">
        <ele>216</ele>
        <time>2022-09-18T06:53:21.000Z</time>
      </trkpt>
      <trkpt lat="49.75102" lon="4.80713">
        <ele>216</ele>
        <time>2022-09-18T06:53:22.000Z</time>
      </trkpt>
      <trkpt lat="49.7511" lon="4.80708">
        <ele>215</ele>
        <time>2022-09-18T06:53:23.000Z</time>
      </trkpt>
      <trkpt lat="49.75119" lon="4.80702">
        <ele>214</ele>
        <time>2022-09-18T06:53:24.000Z</time>
      </trkpt>
      <trkpt lat="49.75127" lon="4.80699">
        <ele>213</ele>
        <time>2022-09-18T06:53:25.000Z</time>
      </trkpt>
      <trkpt lat="49.75135" lon="4.80697">
        <ele>212</ele>
        <time>2022-09-18T06:53:26.000Z</time>
      </trkpt>
      <trkpt lat="49.75143" lon="4.80697">
        <ele>212</ele>
        <time>2022-09-18T06:53:27.000Z</time>
      </trkpt>
      <trkpt lat="49.75151" lon="4.80698">
        <ele>211</ele>
        <time>2022-09-18T06:53:28.000Z</time>
      </trkpt>
      <trkpt lat="49.75158" lon="4.80698">
        <ele>211</ele>
        <time>2022-09-18T06:53:29.000Z</time>
      </trkpt>
      <trkpt lat="49.75165" lon="4.80697">
        <ele>210</ele>
        <time>2022-09-18T06:53:30.000Z</time>
      </trkpt>
      <trkpt lat="49.75172" lon="4.80696">
        <ele>210</ele>
        <time>2022-09-18T06:53:31.000Z</time>
      </trkpt>
      <trkpt lat="49.75179" lon="4.80696">
        <ele>210</ele>
        <time>2022-09-18T06:53:32.000Z</time>
      </trkpt>
      <trkpt lat="49.75185" lon="4.80695">
        <ele>209</ele>
        <time>2022-09-18T06:53:33.000Z</time>
      </trkpt>
      <trkpt lat="49.75191" lon="4.80695">
        <ele>209</ele>
        <time>2022-09-18T06:53:34.000Z</time>
      </trkpt>
      <trkpt lat="49.75198" lon="4.80694">
        <ele>209</ele>
        <time>2022-09-18T06:53:35.000Z</time>
      </trkpt>
      <trkpt lat="49.75204" lon="4.80693">
        <ele>209</ele>
        <time>2022-09-18T06:53:36.000Z</time>
      </trkpt>
      <trkpt lat="49.75209" lon="4.80693">
        <ele>208</ele>
        <time>2022-09-18T06:53:37.000Z</time>
      </trkpt>
      <trkpt lat="49.75215" lon="4.80693">
        <ele>208</ele>
        <time>2022-09-18T06:53:38.000Z</time>
      </trkpt>
      <trkpt lat="49.75221" lon="4.80693">
        <ele>208</ele>
        <time>2022-09-18T06:53:39.000Z</time>
      </trkpt>
      <trkpt lat="49.75226" lon="4.80694">
        <ele>208</ele>
        <time>2022-09-18T06:53:40.000Z</time>
      </trkpt>
      <trkpt lat="49.75231" lon="4.80695">
        <ele>207</ele>
        <time>2022-09-18T06:53:41.000Z</time>
      </trkpt>
      <trkpt lat="49.75235" lon="4.80697">
        <ele>207</ele>
        <time>2022-09-18T06:53:42.000Z</time>
      </trkpt>
      <trkpt lat="49.7524" lon="4.80699">
        <ele>207</ele>
        <time>2022-09-18T06:53:43.000Z</time>
      </trkpt>
      <trkpt lat="49.75245" lon="4.807">
        <ele>207</ele>
        <time>2022-09-18T06:53:44.000Z</time>
      </trkpt>
      <trkpt lat="49.7525" lon="4.80701">
        <ele>207</ele>
        <time>2022-09-18T06:53:45.000Z</time>
      </trkpt>
      <trkpt lat="49.75254" lon="4.80701">
        <ele>207</ele>
        <time>2022-09-18T06:53:46.000Z</time>
      </trkpt>
      <trkpt lat="49.75258" lon="4.807">
        <ele>207</ele>
        <time>2022-09-18T06:53:47.000Z</time>
      </trkpt>
      <trkpt lat="49.75262" lon="4.80699">
        <ele>207</ele>
        <time>2022-09-18T06:53:48.000Z</time>
      </trkpt>
      <trkpt lat="49.75265" lon="4.80697">
        <ele>207</ele>
        <time>2022-09-18T06:53:49.000Z</time>
      </trkpt>
      <trkpt lat="49.75269" lon="4.80695">
        <ele>207</ele>
        <time>2022-09-18T06:53:50.000Z</time>
      </trkpt>
      <trkpt lat="49.75271" lon="4.80693">
        <ele>207</ele>
        <time>2022-09-18T06:53:51.000Z</time>
      </trkpt>
      <trkpt lat="49.75274" lon="4.80691">
        <ele>207</ele>
        <time>2022-09-18T06:53:52.000Z</time>
      </trkpt>
      <trkpt lat="49.75277" lon="4.80689">
        <ele>207</ele>
        <time>2022-09-18T06:53:53.000Z</time>
      </trkpt>
      <trkpt lat="49.75281" lon="4.80686">
        <ele>207</ele>
        <time>2022-09-18T06:53:54.000Z</time>
      </trkpt>
      <trkpt lat="49.75284" lon="4.80684">
        <ele>207</ele>
        <time>2022-09-18T06:53:55.000Z</time>
      </trkpt>
      <trkpt lat="49.75288" lon="4.80682">
        <ele>207</ele>
        <time>2022-09-18T06:53:56.000Z</time>
      </trkpt>
      <trkpt lat="49.75291" lon="4.8068">
        <ele>207</ele>
        <time>2022-09-18T06:53:57.000Z</time>
      </trkpt>
      <trkpt lat="49.75295" lon="4.80678">
        <ele>208</ele>
        <time>2022-09-18T06:53:58.000Z</time>
      </trkpt>
      <trkpt lat="49.75298" lon="4.80677">
        <ele>208</ele>
        <time>2022-09-18T06:53:59.000Z</time>
      </trkpt>
      <trkpt lat="49.75301" lon="4.80677">
        <ele>208</ele>
        <time>2022-09-18T06:54:00.000Z</time>
      </trkpt>
      <trkpt lat="49.75304" lon="4.80677">
        <ele>208</ele>
        <time>2022-09-18T06:54:01.000Z</time>
      </trkpt>
      <trkpt lat="49.75307" lon="4.80676">
        <ele>208</ele>
        <time>2022-09-18T06:54:02.000Z</time>
      </trkpt>
      <trkpt lat="49.75311" lon="4.80676">
        <ele>208</ele>
        <time>2022-09-18T06:54:03.000Z</time>
      </trkpt>
      <trkpt lat="49.75314" lon="4.80676">
        <ele>208</ele>
        <time>2022-09-18T06:54:04.000Z</time>
      </trkpt>
      <trkpt lat="49.75317" lon="4.80677">
        <ele>208</ele>
        <time>2022-09-18T06:54:05.000Z</time>
      </trkpt>
      <trkpt lat="49.75321" lon="4.80677">
        <ele>208</ele>
        <time>2022-09-18T06:54:06.000Z</time>
      </trkpt>
      <trkpt lat="49.75325" lon="4.80678">
        <ele>209</ele>
        <time>2022-09-18T06:54:07.000Z</time>
      </trkpt>
      <trkpt lat="49.75328" lon="4.80678">
        <ele>209</ele>
        <time>2022-09-18T06:54:08.000Z</time>
      </trkpt>
      <trkpt lat="49.75332" lon="4.8068">
        <ele>209</ele>
        <time>2022-09-18T06:54:09.000Z</time>
      </trkpt>
      <trkpt lat="49.75335" lon="4.80681">
        <ele>209</ele>
        <time>2022-09-18T06:54:10.000Z</time>
      </trkpt>
      <trkpt lat="49.75337" lon="4.80681">
        <ele>209</ele>
        <time>2022-09-18T06:54:11.000Z</time>
      </trkpt>
      <trkpt lat="49.7534" lon="4.80682">
        <ele>209</ele>
        <time>2022-09-18T06:54:12.000Z</time>
      </trkpt>
      <trkpt lat="49.75343" lon="4.80683">
        <ele>209</ele>
        <time>2022-09-18T06:54:13.000Z</time>
      </trkpt>
      <trkpt lat="49.75346" lon="4.80682">
        <ele>210</ele>
        <time>2022-09-18T06:54:14.000Z</time>
      </trkpt>
      <trkpt lat="49.75349" lon="4.80682">
        <ele>210</ele>
        <time>2022-09-18T06:54:15.000Z</time>
      </trkpt>
      <trkpt lat="49.75352" lon="4.80683">
        <ele>210</ele>
        <time>2022-09-18T06:54:16.000Z</time>
      </trkpt>
      <trkpt lat="49.75355" lon="4.80684">
        <ele>210</ele>
        <time>2022-09-18T06:54:17.000Z</time>
      </trkpt>
      <trkpt lat="49.75357" lon="4.80685">
        <ele>210</ele>
        <time>2022-09-18T06:54:18.000Z</time>
      </trkpt>
      <trkpt lat="49.7536" lon="4.80686">
        <ele>210</ele>
        <time>2022-09-18T06:54:19.000Z</time>
      </trkpt>
      <trkpt lat="49.75363" lon="4.80687">
        <ele>211</ele>
        <time>2022-09-18T06:54:20.000Z</time>
      </trkpt>
      <trkpt lat="49.75365" lon="4.80688">
        <ele>211</ele>
        <time>2022-09-18T06:54:21.000Z</time>
      </trkpt>
      <trkpt lat="49.75368" lon="4.8069">
        <ele>211</ele>
        <time>2022-09-18T06:54:22.000Z</time>
      </trkpt>
      <trkpt lat="49.7537" lon="4.8069">
        <ele>211</ele>
        <time>2022-09-18T06:54:23.000Z</time>
      </trkpt>
      <trkpt lat="49.75373" lon="4.80692">
        <ele>211</ele>
        <time>2022-09-18T06:54:24.000Z</time>
      </trkpt>
      <trkpt lat="49.75376" lon="4.80692">
        <ele>212</ele>
        <time>2022-09-18T06:54:25.000Z</time>
      </trkpt>
      <trkpt lat="49.75378" lon="4.80693">
        <ele>212</ele>
        <time>2022-09-18T06:54:26.000Z</time>
      </trkpt>
      <trkpt lat="49.75381" lon="4.80693">
        <ele>212</ele>
        <time>2022-09-18T06:54:27.000Z</time>
      </trkpt>
      <trkpt lat="49.75383" lon="4.80694">
        <ele>213</ele>
        <time>2022-09-18T06:54:28.000Z</time>
      </trkpt>
      <trkpt lat="49.75386" lon="4.80696">
        <ele>213</ele>
        <time>2022-09-18T06:54:29.000Z</time>
      </trkpt>
      <trkpt lat="49.75388" lon="4.80697">
        <ele>213</ele>
        <time>2022-09-18T06:54:30.000Z</time>
      </trkpt>
      <trkpt lat="49.75391" lon="4.80699">
        <ele>214</ele>
        <time>2022-09-18T06:54:31.000Z</time>
      </trkpt>
      <trkpt lat="49.75394" lon="4.807">
        <ele>214</ele>
        <time>2022-09-18T06:54:32.000Z</time>
      </trkpt>
      <trkpt lat="49.75397" lon="4.80701">
        <ele>215</ele>
        <time>2022-09-18T06:54:33.000Z</time>
      </trkpt>
      <trkpt lat="49.75399" lon="4.80703">
        <ele>215</ele>
        <time>2022-09-18T06:54:34.000Z</time>
      </trkpt>
      <trkpt lat="49.75402" lon="4.80703">
        <ele>215</ele>
        <time>2022-09-18T06:54:35.000Z</time>
      </trkpt>
      <trkpt lat="49.75405" lon="4.80704">
        <ele>216</ele>
        <time>2022-09-18T06:54:36.000Z</time>
      </trkpt>
      <trkpt lat="49.75407" lon="4.80705">
        <ele>216</ele>
        <time>2022-09-18T06:54:37.000Z</time>
      </trkpt>
      <trkpt lat="49.7541" lon="4.80706">
        <ele>216</ele>
        <time>2022-09-18T06:54:38.000Z</time>
      </trkpt>
      <trkpt lat="49.75413" lon="4.80706">
        <ele>217</ele>
        <time>2022-09-18T06:54:39.000Z</time>
      </trkpt>
      <trkpt lat="49.75417" lon="4.80708">
        <ele>217</ele>
        <time>2022-09-18T06:54:40.000Z</time>
      </trkpt>
      <trkpt lat="49.7542" lon="4.80709">
        <ele>217</ele>
        <time>2022-09-18T06:54:41.000Z</time>
      </trkpt>
      <trkpt lat="49.75423" lon="4.80711">
        <ele>218</ele>
        <time>2022-09-18T06:54:42.000Z</time>
      </trkpt>
      <trkpt lat="49.75426" lon="4.80713">
        <ele>218</ele>
        <time>2022-09-18T06:54:43.000Z</time>
      </trkpt>
      <trkpt lat="49.75429" lon="4.80715">
        <ele>218</ele>
        <time>2022-09-18T06:54:44.000Z</time>
      </trkpt>
      <trkpt lat="49.75432" lon="4.80717">
        <ele>218</ele>
        <time>2022-09-18T06:54:45.000Z</time>
      </trkpt>
      <trkpt lat="49.75435" lon="4.80719">
        <ele>219</ele>
        <time>2022-09-18T06:54:46.000Z</time>
      </trkpt>
      <trkpt lat="49.75438" lon="4.8072">
        <ele>219</ele>
        <time>2022-09-18T06:54:47.000Z</time>
      </trkpt>
      <trkpt lat="49.75441" lon="4.80722">
        <ele>219</ele>
        <time>2022-09-18T06:54:48.000Z</time>
      </trkpt>
      <trkpt lat="49.75444" lon="4.80725">
        <ele>219</ele>
        <time>2022-09-18T06:54:49.000Z</time>
      </trkpt>
      <trkpt lat="49.75446" lon="4.80727">
        <ele>219</ele>
        <time>2022-09-18T06:54:50.000Z</time>
      </trkpt>
      <trkpt lat="49.75449" lon="4.80729">
        <ele>219</ele>
        <time>2022-09-18T06:54:51.000Z</time>
      </trkpt>
      <trkpt lat="49.75452" lon="4.80732">
        <ele>220</ele>
        <time>2022-09-18T06:54:52.000Z</time>
      </trkpt>
      <trkpt lat="49.75455" lon="4.80734">
        <ele>220</ele>
        <time>2022-09-18T06:54:53.000Z</time>
      </trkpt>
      <trkpt lat="49.75458" lon="4.80736">
        <ele>220</ele>
        <time>2022-09-18T06:54:54.000Z</time>
      </trkpt>
      <trkpt lat="49.75461" lon="4.80738">
        <ele>220</ele>
        <time>2022-09-18T06:54:55.000Z</time>
      </trkpt>
      <trkpt lat="49.75464" lon="4.80739">
        <ele>220</ele>
        <time>2022-09-18T06:54:56.000Z</time>
      </trkpt>
      <trkpt lat="49.75467" lon="4.8074">
        <ele>221</ele>
        <time>2022-09-18T06:54:57.000Z</time>
      </trkpt>
      <trkpt lat="49.7547" lon="4.80742">
        <ele>221</ele>
        <time>2022-09-18T06:54:58.000Z</time>
      </trkpt>
      <trkpt lat="49.75474" lon="4.80744">
        <ele>221</ele>
        <time>2022-09-18T06:54:59.000Z</time>
      </trkpt>
      <trkpt lat="49.75477" lon="4.80746">
        <ele>221</ele>
        <time>2022-09-18T06:55:00.000Z</time>
      </trkpt>
      <trkpt lat="49.7548" lon="4.80748">
        <ele>221</ele>
        <time>2022-09-18T06:55:01.000Z</time>
      </trkpt>
      <trkpt lat="49.75482" lon="4.8075">
        <ele>222</ele>
        <time>2022-09-18T06:55:02.000Z</time>
      </trkpt>
      <trkpt lat="49.75485" lon="4.80753">
        <ele>222</ele>
        <time>2022-09-18T06:55:03.000Z</time>
      </trkpt>
      <trkpt lat="49.75488" lon="4.80756">
        <ele>222</ele>
        <time>2022-09-18T06:55:04.000Z</time>
      </trkpt>
      <trkpt lat="49.75491" lon="4.80759">
        <ele>222</ele>
        <time>2022-09-18T06:55:05.000Z</time>
      </trkpt>
      <trkpt lat="49.75494" lon="4.80762">
        <ele>222</ele>
        <time>2022-09-18T06:55:06.000Z</time>
      </trkpt>
      <trkpt lat="49.75497" lon="4.80764">
        <ele>222</ele>
        <time>2022-09-18T06:55:07.000Z</time>
      </trkpt>
      <trkpt lat="49.75499" lon="4.80766">
        <ele>223</ele>
        <time>2022-09-18T06:55:08.000Z</time>
      </trkpt>
      <trkpt lat="49.75503" lon="4.80768">
        <ele>223</ele>
        <time>2022-09-18T06:55:09.000Z</time>
      </trkpt>
      <trkpt lat="49.75506" lon="4.80771">
        <ele>223</ele>
        <time>2022-09-18T06:55:10.000Z</time>
      </trkpt>
      <trkpt lat="49.75508" lon="4.80772">
        <ele>223</ele>
        <time>2022-09-18T06:55:11.000Z</time>
      </trkpt>
      <trkpt lat="49.75511" lon="4.80774">
        <ele>223</ele>
        <time>2022-09-18T06:55:12.000Z</time>
      </trkpt>
      <trkpt lat="49.75514" lon="4.80776">
        <ele>224</ele>
        <time>2022-09-18T06:55:13.000Z</time>
      </trkpt>
      <trkpt lat="49.75517" lon="4.80777">
        <ele>224</ele>
        <time>2022-09-18T06:55:14.000Z</time>
      </trkpt>
      <trkpt lat="49.7552" lon="4.80778">
        <ele>224</ele>
        <time>2022-09-18T06:55:15.000Z</time>
      </trkpt>
      <trkpt lat="49.75523" lon="4.8078">
        <ele>224</ele>
        <time>2022-09-18T06:55:16.000Z</time>
      </trkpt>
      <trkpt lat="49.75525" lon="4.80782">
        <ele>225</ele>
        <time>2022-09-18T06:55:17.000Z</time>
      </trkpt>
      <trkpt lat="49.75527" lon="4.80785">
        <ele>225</ele>
        <time>2022-09-18T06:55:18.000Z</time>
      </trkpt>
      <trkpt lat="49.7553" lon="4.80787">
        <ele>225</ele>
        <time>2022-09-18T06:55:19.000Z</time>
      </trkpt>
      <trkpt lat="49.75532" lon="4.80789">
        <ele>225</ele>
        <time>2022-09-18T06:55:20.000Z</time>
      </trkpt>
      <trkpt lat="49.75534" lon="4.80791">
        <ele>226</ele>
        <time>2022-09-18T06:55:21.000Z</time>
      </trkpt>
      <trkpt lat="49.75536" lon="4.80793">
        <ele>226</ele>
        <time>2022-09-18T06:55:22.000Z</time>
      </trkpt>
      <trkpt lat="49.75538" lon="4.80795">
        <ele>226</ele>
        <time>2022-09-18T06:55:23.000Z</time>
      </trkpt>
      <trkpt lat="49.75541" lon="4.80798">
        <ele>226</ele>
        <time>2022-09-18T06:55:24.000Z</time>
      </trkpt>
      <trkpt lat="49.75543" lon="4.80801">
        <ele>227</ele>
        <time>2022-09-18T06:55:25.000Z</time>
      </trkpt>
      <trkpt lat="49.75545" lon="4.80803">
        <ele>227</ele>
        <time>2022-09-18T06:55:26.000Z</time>
      </trkpt>
      <trkpt lat="49.75547" lon="4.80806">
        <ele>227</ele>
        <time>2022-09-18T06:55:27.000Z</time>
      </trkpt>
      <trkpt lat="49.75549" lon="4.80808">
        <ele>227</ele>
        <time>2022-09-18T06:55:28.000Z</time>
      </trkpt>
      <trkpt lat="49.75552" lon="4.80811">
        <ele>227</ele>
        <time>2022-09-18T06:55:29.000Z</time>
      </trkpt>
      <trkpt lat="49.75554" lon="4.80814">
        <ele>227</ele>
        <time>2022-09-18T06:55:30.000Z</time>
      </trkpt>
      <trkpt lat="49.75556" lon="4.80817">
        <ele>227</ele>
        <time>2022-09-18T06:55:31.000Z</time>
      </trkpt>
      <trkpt lat="49.75559" lon="4.8082">
        <ele>228</ele>
        <time>2022-09-18T06:55:32.000Z</time>
      </trkpt>
      <trkpt lat="49.75561" lon="4.80823">
        <ele>228</ele>
        <time>2022-09-18T06:55:33.000Z</time>
      </trkpt>
      <trkpt lat="49.75563" lon="4.80825">
        <ele>228</ele>
        <time>2022-09-18T06:55:34.000Z</time>
      </trkpt>
      <trkpt lat="49.75566" lon="4.80828">
        <ele>228</ele>
        <time>2022-09-18T06:55:35.000Z</time>
      </trkpt>
      <trkpt lat="49.75568" lon="4.8083">
        <ele>228</ele>
        <time>2022-09-18T06:55:36.000Z</time>
      </trkpt>
      <trkpt lat="49.7557" lon="4.80832">
        <ele>228</ele>
        <time>2022-09-18T06:55:37.000Z</time>
      </trkpt>
      <trkpt lat="49.75573" lon="4.80834">
        <ele>228</ele>
        <time>2022-09-18T06:55:38.000Z</time>
      </trkpt>
      <trkpt lat="49.75575" lon="4.80835">
        <ele>228</ele>
        <time>2022-09-18T06:55:39.000Z</time>
      </trkpt>
      <trkpt lat="49.75578" lon="4.80836">
        <ele>228</ele>
        <time>2022-09-18T06:55:40.000Z</time>
      </trkpt>
      <trkpt lat="49.75581" lon="4.80837">
        <ele>228</ele>
        <time>2022-09-18T06:55:41.000Z</time>
      </trkpt>
      <trkpt lat="49.75585" lon="4.80839">
        <ele>228</ele>
        <time>2022-09-18T06:55:42.000Z</time>
      </trkpt>
      <trkpt lat="49.75587" lon="4.8084">
        <ele>229</ele>
        <time>2022-09-18T06:55:43.000Z</time>
      </trkpt>
      <trkpt lat="49.7559" lon="4.80841">
        <ele>229</ele>
        <time>2022-09-18T06:55:44.000Z</time>
      </trkpt>
      <trkpt lat="49.75593" lon="4.80842">
        <ele>229</ele>
        <time>2022-09-18T06:55:45.000Z</time>
      </trkpt>
      <trkpt lat="49.75595" lon="4.80843">
        <ele>229</ele>
        <time>2022-09-18T06:55:46.000Z</time>
      </trkpt>
      <trkpt lat="49.75598" lon="4.80844">
        <ele>229</ele>
        <time>2022-09-18T06:55:47.000Z</time>
      </trkpt>
      <trkpt lat="49.756" lon="4.80845">
        <ele>229</ele>
        <time>2022-09-18T06:55:48.000Z</time>
      </trkpt>
      <trkpt lat="49.75602" lon="4.80847">
        <ele>229</ele>
        <time>2022-09-18T06:55:49.000Z</time>
      </trkpt>
      <trkpt lat="49.75605" lon="4.80849">
        <ele>229</ele>
        <time>2022-09-18T06:55:50.000Z</time>
      </trkpt>
      <trkpt lat="49.75608" lon="4.8085">
        <ele>230</ele>
        <time>2022-09-18T06:55:51.000Z</time>
      </trkpt>
      <trkpt lat="49.75611" lon="4.80851">
        <ele>230</ele>
        <time>2022-09-18T06:55:52.000Z</time>
      </trkpt>
      <trkpt lat="49.75614" lon="4.80852">
        <ele>230</ele>
        <time>2022-09-18T06:55:53.000Z</time>
      </trkpt>
      <trkpt lat="49.75618" lon="4.80854">
        <ele>230</ele>
        <time>2022-09-18T06:55:54.000Z</time>
      </trkpt>
      <trkpt lat="49.75621" lon="4.80855">
        <ele>230</ele>
        <time>2022-09-18T06:55:55.000Z</time>
      </trkpt>
      <trkpt lat="49.75623" lon="4.80856">
        <ele>231</ele>
        <time>2022-09-18T06:55:56.000Z</time>
      </trkpt>
      <trkpt lat="49.75627" lon="4.80857">
        <ele>231</ele>
        <time>2022-09-18T06:55:57.000Z</time>
      </trkpt>
      <trkpt lat="49.7563" lon="4.80859">
        <ele>231</ele>
        <time>2022-09-18T06:55:58.000Z</time>
      </trkpt>
      <trkpt lat="49.75632" lon="4.8086">
        <ele>231</ele>
        <time>2022-09-18T06:55:59.000Z</time>
      </trkpt>
      <trkpt lat="49.75635" lon="4.80861">
        <ele>232</ele>
        <time>2022-09-18T06:56:00.000Z</time>
      </trkpt>
      <trkpt lat="49.75638" lon="4.80862">
        <ele>232</ele>
        <time>2022-09-18T06:56:01.000Z</time>
      </trkpt>
      <trkpt lat="49.7564" lon="4.80864">
        <ele>232</ele>
        <time>2022-09-18T06:56:02.000Z</time>
      </trkpt>
      <trkpt lat="49.75643" lon="4.80866">
        <ele>232</ele>
        <time>2022-09-18T06:56:03.000Z</time>
      </trkpt>
      <trkpt lat="49.75646" lon="4.80868">
        <ele>233</ele>
        <time>2022-09-18T06:56:04.000Z</time>
      </trkpt>
      <trkpt lat="49.75649" lon="4.80869">
        <ele>233</ele>
        <time>2022-09-18T06:56:05.000Z</time>
      </trkpt>
      <trkpt lat="49.75652" lon="4.8087">
        <ele>233</ele>
        <time>2022-09-18T06:56:06.000Z</time>
      </trkpt>
      <trkpt lat="49.75655" lon="4.80871">
        <ele>233</ele>
        <time>2022-09-18T06:56:07.000Z</time>
      </trkpt>
      <trkpt lat="49.75658" lon="4.80873">
        <ele>234</ele>
        <time>2022-09-18T06:56:08.000Z</time>
      </trkpt>
      <trkpt lat="49.75661" lon="4.80874">
        <ele>234</ele>
        <time>2022-09-18T06:56:09.000Z</time>
      </trkpt>
      <trkpt lat="49.75664" lon="4.80876">
        <ele>234</ele>
        <time>2022-09-18T06:56:10.000Z</time>
      </trkpt>
      <trkpt lat="49.75667" lon="4.80877">
        <ele>235</ele>
        <time>2022-09-18T06:56:11.000Z</time>
      </trkpt>
      <trkpt lat="49.7567" lon="4.80879">
        <ele>235</ele>
        <time>2022-09-18T06:56:12.000Z</time>
      </trkpt>
      <trkpt lat="49.75673" lon="4.80879">
        <ele>235</ele>
        <time>2022-09-18T06:56:13.000Z</time>
      </trkpt>
      <trkpt lat="49.75676" lon="4.8088">
        <ele>235</ele>
        <time>2022-09-18T06:56:14.000Z</time>
      </trkpt>
      <trkpt lat="49.7568" lon="4.80881">
        <ele>235</ele>
        <time>2022-09-18T06:56:15.000Z</time>
      </trkpt>
      <trkpt lat="49.75684" lon="4.80882">
        <ele>236</ele>
        <time>2022-09-18T06:56:16.000Z</time>
      </trkpt>
      <trkpt lat="49.75688" lon="4.80883">
        <ele>236</ele>
        <time>2022-09-18T06:56:17.000Z</time>
      </trkpt>
      <trkpt lat="49.75691" lon="4.80885">
        <ele>236</ele>
        <time>2022-09-18T06:56:18.000Z</time>
      </trkpt>
      <trkpt lat="49.75694" lon="4.80886">
        <ele>236</ele>
        <time>2022-09-18T06:56:19.000Z</time>
      </trkpt>
      <trkpt lat="49.75697" lon="4.80887">
        <ele>236</ele>
        <time>2022-09-18T06:56:20.000Z</time>
      </trkpt>
      <trkpt lat="49.757" lon="4.80888">
        <ele>236</ele>
        <time>2022-09-18T06:56:21.000Z</time>
      </trkpt>
      <trkpt lat="49.75704" lon="4.80889">
        <ele>236</ele>
        <time>2022-09-18T06:56:22.000Z</time>
      </trkpt>
      <trkpt lat="49.75708" lon="4.8089">
        <ele>236</ele>
        <time>2022-09-18T06:56:23.000Z</time>
      </trkpt>
      <trkpt lat="49.75711" lon="4.8089">
        <ele>237</ele>
        <time>2022-09-18T06:56:24.000Z</time>
      </trkpt>
      <trkpt lat="49.75714" lon="4.80891">
        <ele>237</ele>
        <time>2022-09-18T06:56:25.000Z</time>
      </trkpt>
      <trkpt lat="49.75718" lon="4.80893">
        <ele>237</ele>
        <time>2022-09-18T06:56:26.000Z</time>
      </trkpt>
      <trkpt lat="49.75721" lon="4.80893">
        <ele>237</ele>
        <time>2022-09-18T06:56:27.000Z</time>
      </trkpt>
      <trkpt lat="49.75724" lon="4.80894">
        <ele>237</ele>
        <time>2022-09-18T06:56:28.000Z</time>
      </trkpt>
      <trkpt lat="49.75726" lon="4.80895">
        <ele>237</ele>
        <time>2022-09-18T06:56:29.000Z</time>
      </trkpt>
      <trkpt lat="49.7573" lon="4.80897">
        <ele>237</ele>
        <time>2022-09-18T06:56:30.000Z</time>
      </trkpt>
      <trkpt lat="49.75733" lon="4.80898">
        <ele>237</ele>
        <time>2022-09-18T06:56:31.000Z</time>
      </trkpt>
      <trkpt lat="49.75736" lon="4.80899">
        <ele>237</ele>
        <time>2022-09-18T06:56:32.000Z</time>
      </trkpt>
      <trkpt lat="49.75739" lon="4.80899">
        <ele>238</ele>
        <time>2022-09-18T06:56:33.000Z</time>
      </trkpt>
      <trkpt lat="49.75741" lon="4.809">
        <ele>238</ele>
        <time>2022-09-18T06:56:34.000Z</time>
      </trkpt>
      <trkpt lat="49.75744" lon="4.80901">
        <ele>238</ele>
        <time>2022-09-18T06:56:35.000Z</time>
      </trkpt>
      <trkpt lat="49.75746" lon="4.80901">
        <ele>238</ele>
        <time>2022-09-18T06:56:36.000Z</time>
      </trkpt>
      <trkpt lat="49.75748" lon="4.80901">
        <ele>238</ele>
        <time>2022-09-18T06:56:37.000Z</time>
      </trkpt>
      <trkpt lat="49.7575" lon="4.809">
        <ele>238</ele>
        <time>2022-09-18T06:56:38.000Z</time>
      </trkpt>
      <trkpt lat="49.75753" lon="4.80901">
        <ele>239</ele>
        <time>2022-09-18T06:56:39.000Z</time>
      </trkpt>
      <trkpt lat="49.75756" lon="4.80901">
        <ele>239</ele>
        <time>2022-09-18T06:56:40.000Z</time>
      </trkpt>
      <trkpt lat="49.75759" lon="4.80902">
        <ele>239</ele>
        <time>2022-09-18T06:56:41.000Z</time>
      </trkpt>
      <trkpt lat="49.75762" lon="4.80902">
        <ele>239</ele>
        <time>2022-09-18T06:56:42.000Z</time>
      </trkpt>
      <trkpt lat="49.75765" lon="4.80902">
        <ele>239</ele>
        <time>2022-09-18T06:56:43.000Z</time>
      </trkpt>
      <trkpt lat="49.75768" lon="4.80902">
        <ele>239</ele>
        <time>2022-09-18T06:56:44.000Z</time>
      </trkpt>
      <trkpt lat="49.75772" lon="4.80903">
        <ele>239</ele>
        <time>2022-09-18T06:56:45.000Z</time>
      </trkpt>
      <trkpt lat="49.75775" lon="4.80904">
        <ele>239</ele>
        <time>2022-09-18T06:56:46.000Z</time>
      </trkpt>
      <trkpt lat="49.75778" lon="4.80905">
        <ele>240</ele>
        <time>2022-09-18T06:56:47.000Z</time>
      </trkpt>
      <trkpt lat="49.75781" lon="4.80905">
        <ele>240</ele>
        <time>2022-09-18T06:56:48.000Z</time>
      </trkpt>
      <trkpt lat="49.75785" lon="4.80906">
        <ele>240</ele>
        <time>2022-09-18T06:56:49.000Z</time>
      </trkpt>
      <trkpt lat="49.75788" lon="4.80908">
        <ele>240</ele>
        <time>2022-09-18T06:56:50.000Z</time>
      </trkpt>
      <trkpt lat="49.75791" lon="4.80909">
        <ele>240</ele>
        <time>2022-09-18T06:56:51.000Z</time>
      </trkpt>
      <trkpt lat="49.75794" lon="4.80909">
        <ele>240</ele>
        <time>2022-09-18T06:56:52.000Z</time>
      </trkpt>
      <trkpt lat="49.75798" lon="4.8091">
        <ele>240</ele>
        <time>2022-09-18T06:56:53.000Z</time>
      </trkpt>
      <trkpt lat="49.75801" lon="4.80912">
        <ele>241</ele>
        <time>2022-09-18T06:56:54.000Z</time>
      </trkpt>
      <trkpt lat="49.75804" lon="4.80913">
        <ele>241</ele>
        <time>2022-09-18T06:56:55.000Z</time>
      </trkpt>
      <trkpt lat="49.75807" lon="4.80914">
        <ele>241</ele>
        <time>2022-09-18T06:56:56.000Z</time>
      </trkpt>
      <trkpt lat="49.7581" lon="4.80915">
        <ele>241</ele>
        <time>2022-09-18T06:56:57.000Z</time>
      </trkpt>
      <trkpt lat="49.75813" lon="4.80916">
        <ele>241</ele>
        <time>2022-09-18T06:56:58.000Z</time>
      </trkpt>
      <trkpt lat="49.75816" lon="4.80918">
        <ele>242</ele>
        <time>2022-09-18T06:56:59.000Z</time>
      </trkpt>
      <trkpt lat="49.7582" lon="4.80919">
        <ele>242</ele>
        <time>2022-09-18T06:57:00.000Z</time>
      </trkpt>
      <trkpt lat="49.75823" lon="4.80922">
        <ele>242</ele>
        <time>2022-09-18T06:57:01.000Z</time>
      </trkpt>
      <trkpt lat="49.75826" lon="4.80924">
        <ele>242</ele>
        <time>2022-09-18T06:57:02.000Z</time>
      </trkpt>
      <trkpt lat="49.7583" lon="4.80926">
        <ele>243</ele>
        <time>2022-09-18T06:57:03.000Z</time>
      </trkpt>
      <trkpt lat="49.75832" lon="4.80928">
        <ele>243</ele>
        <time>2022-09-18T06:57:04.000Z</time>
      </trkpt>
      <trkpt lat="49.75835" lon="4.80929">
        <ele>243</ele>
        <time>2022-09-18T06:57:05.000Z</time>
      </trkpt>
      <trkpt lat="49.75838" lon="4.80931">
        <ele>243</ele>
        <time>2022-09-18T06:57:06.000Z</time>
      </trkpt>
      <trkpt lat="49.75841" lon="4.80933">
        <ele>243</ele>
        <time>2022-09-18T06:57:07.000Z</time>
      </trkpt>
      <trkpt lat="49.75844" lon="4.80935">
        <ele>244</ele>
        <time>2022-09-18T06:57:08.000Z</time>
      </trkpt>
      <trkpt lat="49.75846" lon="4.80938">
        <ele>244</ele>
        <time>2022-09-18T06:57:09.000Z</time>
      </trkpt>
      <trkpt lat="49.75848" lon="4.8094">
        <ele>244</ele>
        <time>2022-09-18T06:57:10.000Z</time>
      </trkpt>
      <trkpt lat="49.7585" lon="4.80943">
        <ele>244</ele>
        <time>2022-09-18T06:57:11.000Z</time>
      </trkpt>
      <trkpt lat="49.75852" lon="4.80945">
        <ele>244</ele>
        <time>2022-09-18T06:57:12.000Z</time>
      </trkpt>
      <trkpt lat="49.75854" lon="4.80947">
        <ele>244</ele>
        <time>2022-09-18T06:57:13.000Z</time>
      </trkpt>
      <trkpt lat="49.75857" lon="4.8095">
        <ele>244</ele>
        <time>2022-09-18T06:57:14.000Z</time>
      </trkpt>
      <trkpt lat="49.75859" lon="4.80952">
        <ele>244</ele>
        <time>2022-09-18T06:57:15.000Z</time>
      </trkpt>
      <trkpt lat="49.75861" lon="4.80955">
        <ele>245</ele>
        <time>2022-09-18T06:57:16.000Z</time>
      </trkpt>
      <trkpt lat="49.75864" lon="4.80958">
        <ele>245</ele>
        <time>2022-09-18T06:57:17.000Z</time>
      </trkpt>
      <trkpt lat="49.75866" lon="4.80961">
        <ele>245</ele>
        <time>2022-09-18T06:57:18.000Z</time>
      </trkpt>
      <trkpt lat="49.75868" lon="4.80963">
        <ele>245</ele>
        <time>2022-09-18T06:57:19.000Z</time>
      </trkpt>
      <trkpt lat="49.75871" lon="4.80967">
        <ele>245</ele>
        <time>2022-09-18T06:57:20.000Z</time>
      </trkpt>
      <trkpt lat="49.75873" lon="4.80969">
        <ele>245</ele>
        <time>2022-09-18T06:57:21.000Z</time>
      </trkpt>
      <trkpt lat="49.75875" lon="4.80971">
        <ele>245</ele>
        <time>2022-09-18T06:57:22.000Z</time>
      </trkpt>
      <trkpt lat="49.75878" lon="4.80973">
        <ele>245</ele>
        <time>2022-09-18T06:57:23.000Z</time>
      </trkpt>
      <trkpt lat="49.75881" lon="4.80975">
        <ele>245</ele>
        <time>2022-09-18T06:57:24.000Z</time>
      </trkpt>
      <trkpt lat="49.75883" lon="4.80978">
        <ele>245</ele>
        <time>2022-09-18T06:57:25.000Z</time>
      </trkpt>
      <trkpt lat="49.75886" lon="4.8098">
        <ele>245</ele>
        <time>2022-09-18T06:57:26.000Z</time>
      </trkpt>
      <trkpt lat="49.75888" lon="4.80984">
        <ele>245</ele>
        <time>2022-09-18T06:57:27.000Z</time>
      </trkpt>
      <trkpt lat="49.7589" lon="4.80987">
        <ele>246</ele>
        <time>2022-09-18T06:57:28.000Z</time>
      </trkpt>
      <trkpt lat="49.75893" lon="4.8099">
        <ele>246</ele>
        <time>2022-09-18T06:57:29.000Z</time>
      </trkpt>
      <trkpt lat="49.75896" lon="4.80993">
        <ele>246</ele>
        <time>2022-09-18T06:57:30.000Z</time>
      </trkpt>
      <trkpt lat="49.75898" lon="4.80996">
        <ele>246</ele>
        <time>2022-09-18T06:57:31.000Z</time>
      </trkpt>
      <trkpt lat="49.759" lon="4.80999">
        <ele>246</ele>
        <time>2022-09-18T06:57:32.000Z</time>
      </trkpt>
      <trkpt lat="49.75903" lon="4.81002">
        <ele>246</ele>
        <time>2022-09-18T06:57:33.000Z</time>
      </trkpt>
      <trkpt lat="49.75905" lon="4.81005">
        <ele>246</ele>
        <time>2022-09-18T06:57:34.000Z</time>
      </trkpt>
      <trkpt lat="49.75907" lon="4.81009">
        <ele>246</ele>
        <time>2022-09-18T06:57:35.000Z</time>
      </trkpt>
      <trkpt lat="49.75909" lon="4.81012">
        <ele>246</ele>
        <time>2022-09-18T06:57:36.000Z</time>
      </trkpt>
      <trkpt lat="49.75911" lon="4.81015">
        <ele>246</ele>
        <time>2022-09-18T06:57:37.000Z</time>
      </trkpt>
      <trkpt lat="49.75913" lon="4.81018">
        <ele>246</ele>
        <time>2022-09-18T06:57:38.000Z</time>
      </trkpt>
      <trkpt lat="49.75915" lon="4.81021">
        <ele>246</ele>
        <time>2022-09-18T06:57:39.000Z</time>
      </trkpt>
      <trkpt lat="49.75917" lon="4.81024">
        <ele>246</ele>
        <time>2022-09-18T06:57:40.000Z</time>
      </trkpt>
      <trkpt lat="49.75918" lon="4.81027">
        <ele>246</ele>
        <time>2022-09-18T06:57:41.000Z</time>
      </trkpt>
      <trkpt lat="49.7592" lon="4.8103">
        <ele>246</ele>
        <time>2022-09-18T06:57:42.000Z</time>
      </trkpt>
      <trkpt lat="49.75922" lon="4.81033">
        <ele>247</ele>
        <time>2022-09-18T06:57:43.000Z</time>
      </trkpt>
      <trkpt lat="49.75924" lon="4.81036">
        <ele>247</ele>
        <time>2022-09-18T06:57:44.000Z</time>
      </trkpt>
      <trkpt lat="49.75926" lon="4.81039">
        <ele>247</ele>
        <time>2022-09-18T06:57:45.000Z</time>
      </trkpt>
      <trkpt lat="49.75928" lon="4.81042">
        <ele>247</ele>
        <time>2022-09-18T06:57:46.000Z</time>
      </trkpt>
      <trkpt lat="49.7593" lon="4.81045">
        <ele>247</ele>
        <time>2022-09-18T06:57:47.000Z</time>
      </trkpt>
      <trkpt lat="49.75932" lon="4.81048">
        <ele>247</ele>
        <time>2022-09-18T06:57:48.000Z</time>
      </trkpt>
      <trkpt lat="49.75934" lon="4.81051">
        <ele>247</ele>
        <time>2022-09-18T06:57:49.000Z</time>
      </trkpt>
      <trkpt lat="49.75936" lon="4.81055">
        <ele>247</ele>
        <time>2022-09-18T06:57:50.000Z</time>
      </trkpt>
      <trkpt lat="49.75938" lon="4.81058">
        <ele>248</ele>
        <time>2022-09-18T06:57:51.000Z</time>
      </trkpt>
      <trkpt lat="49.75939" lon="4.81061">
        <ele>248</ele>
        <time>2022-09-18T06:57:52.000Z</time>
      </trkpt>
      <trkpt lat="49.7594" lon="4.81065">
        <ele>248</ele>
        <time>2022-09-18T06:57:53.000Z</time>
      </trkpt>
      <trkpt lat="49.75942" lon="4.81068">
        <ele>248</ele>
        <time>2022-09-18T06:57:54.000Z</time>
      </trkpt>
      <trkpt lat="49.75944" lon="4.81071">
        <ele>248</ele>
        <time>2022-09-18T06:57:55.000Z</time>
      </trkpt>
      <trkpt lat="49.75946" lon="4.81074">
        <ele>248</ele>
        <time>2022-09-18T06:57:56.000Z</time>
      </trkpt>
      <trkpt lat="49.75948" lon="4.81078">
        <ele>249</ele>
        <time>2022-09-18T06:57:57.000Z</time>
      </trkpt>
      <trkpt lat="49.7595" lon="4.81081">
        <ele>249</ele>
        <time>2022-09-18T06:57:58.000Z</time>
      </trkpt>
      <trkpt lat="49.75952" lon="4.81085">
        <ele>249</ele>
        <time>2022-09-18T06:57:59.000Z</time>
      </trkpt>
      <trkpt lat="49.75954" lon="4.81089">
        <ele>249</ele>
        <time>2022-09-18T06:58:00.000Z</time>
      </trkpt>
      <trkpt lat="49.75956" lon="4.81093">
        <ele>249</ele>
        <time>2022-09-18T06:58:01.000Z</time>
      </trkpt>
      <trkpt lat="49.75958" lon="4.81097">
        <ele>250</ele>
        <time>2022-09-18T06:58:02.000Z</time>
      </trkpt>
      <trkpt lat="49.7596" lon="4.81101">
        <ele>250</ele>
        <time>2022-09-18T06:58:03.000Z</time>
      </trkpt>
      <trkpt lat="49.75962" lon="4.81104">
        <ele>250</ele>
        <time>2022-09-18T06:58:04.000Z</time>
      </trkpt>
      <trkpt lat="49.75963" lon="4.81108">
        <ele>250</ele>
        <time>2022-09-18T06:58:05.000Z</time>
      </trkpt>
      <trkpt lat="49.75966" lon="4.81111">
        <ele>250</ele>
        <time>2022-09-18T06:58:06.000Z</time>
      </trkpt>
      <trkpt lat="49.75968" lon="4.81114">
        <ele>250</ele>
        <time>2022-09-18T06:58:07.000Z</time>
      </trkpt>
      <trkpt lat="49.7597" lon="4.81117">
        <ele>250</ele>
        <time>2022-09-18T06:58:08.000Z</time>
      </trkpt>
      <trkpt lat="49.75972" lon="4.81121">
        <ele>250</ele>
        <time>2022-09-18T06:58:09.000Z</time>
      </trkpt>
      <trkpt lat="49.75974" lon="4.81125">
        <ele>250</ele>
        <time>2022-09-18T06:58:10.000Z</time>
      </trkpt>
      <trkpt lat="49.75977" lon="4.81128">
        <ele>250</ele>
        <time>2022-09-18T06:58:11.000Z</time>
      </trkpt>
      <trkpt lat="49.75979" lon="4.8113">
        <ele>250</ele>
        <time>2022-09-18T06:58:12.000Z</time>
      </trkpt>
      <trkpt lat="49.75982" lon="4.81133">
        <ele>250</ele>
        <time>2022-09-18T06:58:13.000Z</time>
      </trkpt>
      <trkpt lat="49.75984" lon="4.81135">
        <ele>250</ele>
        <time>2022-09-18T06:58:14.000Z</time>
      </trkpt>
      <trkpt lat="49.75987" lon="4.81138">
        <ele>250</ele>
        <time>2022-09-18T06:58:15.000Z</time>
      </trkpt>
      <trkpt lat="49.75989" lon="4.81141">
        <ele>251</ele>
        <time>2022-09-18T06:58:16.000Z</time>
      </trkpt>
      <trkpt lat="49.75991" lon="4.81143">
        <ele>251</ele>
        <time>2022-09-18T06:58:17.000Z</time>
      </trkpt>
      <trkpt lat="49.75994" lon="4.81145">
        <ele>251</ele>
        <time>2022-09-18T06:58:18.000Z</time>
      </trkpt>
      <trkpt lat="49.75996" lon="4.81147">
        <ele>251</ele>
        <time>2022-09-18T06:58:19.000Z</time>
      </trkpt>
      <trkpt lat="49.75998" lon="4.81149">
        <ele>251</ele>
        <time>2022-09-18T06:58:20.000Z</time>
      </trkpt>
      <trkpt lat="49.76" lon="4.81152">
        <ele>252</ele>
        <time>2022-09-18T06:58:21.000Z</time>
      </trkpt>
      <trkpt lat="49.76002" lon="4.81154">
        <ele>252</ele>
        <time>2022-09-18T06:58:22.000Z</time>
      </trkpt>
      <trkpt lat="49.76003" lon="4.81154">
        <ele>252</ele>
        <time>2022-09-18T06:58:23.000Z</time>
      </trkpt>
      <trkpt lat="49.76003" lon="4.81154">
        <ele>253</ele>
        <time>2022-09-18T06:58:24.000Z</time>
      </trkpt>
      <trkpt lat="49.76004" lon="4.81154">
        <ele>253</ele>
        <time>2022-09-18T06:58:25.000Z</time>
      </trkpt>
      <trkpt lat="49.76005" lon="4.81154">
        <ele>254</ele>
        <time>2022-09-18T06:58:26.000Z</time>
      </trkpt>
      <trkpt lat="49.76006" lon="4.81154">
        <ele>254</ele>
        <time>2022-09-18T06:58:27.000Z</time>
      </trkpt>
      <trkpt lat="49.76006" lon="4.81153">
        <ele>254</ele>
        <time>2022-09-18T06:58:28.000Z</time>
      </trkpt>
      <trkpt lat="49.76007" lon="4.81154">
        <ele>255</ele>
        <time>2022-09-18T06:58:29.000Z</time>
      </trkpt>
      <trkpt lat="49.76008" lon="4.81154">
        <ele>255</ele>
        <time>2022-09-18T06:58:30.000Z</time>
      </trkpt>
      <trkpt lat="49.76008" lon="4.81154">
        <ele>255</ele>
        <time>2022-09-18T06:58:31.000Z</time>
      </trkpt>
      <trkpt lat="49.76009" lon="4.81156">
        <ele>255</ele>
        <time>2022-09-18T06:58:32.000Z</time>
      </trkpt>
      <trkpt lat="49.76009" lon="4.81157">
        <ele>256</ele>
        <time>2022-09-18T06:58:33.000Z</time>
      </trkpt>
      <trkpt lat="49.76009" lon="4.81158">
        <ele>256</ele>
        <time>2022-09-18T06:58:34.000Z</time>
      </trkpt>
      <trkpt lat="49.7601" lon="4.81158">
        <ele>256</ele>
        <time>2022-09-18T06:58:35.000Z</time>
      </trkpt>
      <trkpt lat="49.7601" lon="4.81159">
        <ele>256</ele>
        <time>2022-09-18T06:58:36.000Z</time>
      </trkpt>
      <trkpt lat="49.7601" lon="4.81161">
        <ele>257</ele>
        <time>2022-09-18T06:58:37.000Z</time>
      </trkpt>
      <trkpt lat="49.7601" lon="4.81162">
        <ele>257</ele>
        <time>2022-09-18T06:58:38.000Z</time>
      </trkpt>
      <trkpt lat="49.76011" lon="4.81163">
        <ele>257</ele>
        <time>2022-09-18T06:58:39.000Z</time>
      </trkpt>
      <trkpt lat="49.76011" lon="4.81164">
        <ele>257</ele>
        <time>2022-09-18T06:58:40.000Z</time>
      </trkpt>
      <trkpt lat="49.76011" lon="4.81165">
        <ele>258</ele>
        <time>2022-09-18T06:58:41.000Z</time>
      </trkpt>
      <trkpt lat="49.76012" lon="4.81167">
        <ele>258</ele>
        <time>2022-09-18T06:58:42.000Z</time>
      </trkpt>
      <trkpt lat="49.76013" lon="4.81169">
        <ele>258</ele>
        <time>2022-09-18T06:58:43.000Z</time>
      </trkpt>
      <trkpt lat="49.76015" lon="4.81171">
        <ele>259</ele>
        <time>2022-09-18T06:58:44.000Z</time>
      </trkpt>
      <trkpt lat="49.76016" lon="4.81173">
        <ele>259</ele>
        <time>2022-09-18T06:58:45.000Z</time>
      </trkpt>
      <trkpt lat="49.76018" lon="4.81175">
        <ele>259</ele>
        <time>2022-09-18T06:58:46.000Z</time>
      </trkpt>
      <trkpt lat="49.7602" lon="4.81178">
        <ele>259</ele>
        <time>2022-09-18T06:58:47.000Z</time>
      </trkpt>
      <trkpt lat="49.76021" lon="4.81181">
        <ele>260</ele>
        <time>2022-09-18T06:58:48.000Z</time>
      </trkpt>
      <trkpt lat="49.76023" lon="4.81184">
        <ele>260</ele>
        <time>2022-09-18T06:58:49.000Z</time>
      </trkpt>
      <trkpt lat="49.76025" lon="4.81187">
        <ele>260</ele>
        <time>2022-09-18T06:58:50.000Z</time>
      </trkpt>
      <trkpt lat="49.76027" lon="4.8119">
        <ele>260</ele>
        <time>2022-09-18T06:58:51.000Z</time>
      </trkpt>
      <trkpt lat="49.76029" lon="4.81193">
        <ele>260</ele>
        <time>2022-09-18T06:58:52.000Z</time>
      </trkpt>
      <trkpt lat="49.76031" lon="4.81196">
        <ele>260</ele>
        <time>2022-09-18T06:58:53.000Z</time>
      </trkpt>
      <trkpt lat="49.76033" lon="4.81199">
        <ele>260</ele>
        <time>2022-09-18T06:58:54.000Z</time>
      </trkpt>
      <trkpt lat="49.76035" lon="4.81201">
        <ele>260</ele>
        <time>2022-09-18T06:58:55.000Z</time>
      </trkpt>
      <trkpt lat="49.76037" lon="4.81203">
        <ele>260</ele>
        <time>2022-09-18T06:58:56.000Z</time>
      </trkpt>
      <trkpt lat="49.7604" lon="4.81206">
        <ele>260</ele>
        <time>2022-09-18T06:58:57.000Z</time>
      </trkpt>
      <trkpt lat="49.76042" lon="4.81209">
        <ele>261</ele>
        <time>2022-09-18T06:58:58.000Z</time>
      </trkpt>
      <trkpt lat="49.76044" lon="4.81212">
        <ele>261</ele>
        <time>2022-09-18T06:58:59.000Z</time>
      </trkpt>
      <trkpt lat="49.76045" lon="4.81215">
        <ele>261</ele>
        <time>2022-09-18T06:59:00.000Z</time>
      </trkpt>
      <trkpt lat="49.76046" lon="4.81216">
        <ele>261</ele>
        <time>2022-09-18T06:59:01.000Z</time>
      </trkpt>
      <trkpt lat="49.76048" lon="4.81218">
        <ele>261</ele>
        <time>2022-09-18T06:59:02.000Z</time>
      </trkpt>
      <trkpt lat="49.7605" lon="4.81221">
        <ele>261</ele>
        <time>2022-09-18T06:59:03.000Z</time>
      </trkpt>
      <trkpt lat="49.76052" lon="4.81224">
        <ele>261</ele>
        <time>2022-09-18T06:59:04.000Z</time>
      </trkpt>
      <trkpt lat="49.76054" lon="4.81226">
        <ele>261</ele>
        <time>2022-09-18T06:59:05.000Z</time>
      </trkpt>
      <trkpt lat="49.76056" lon="4.81229">
        <ele>261</ele>
        <time>2022-09-18T06:59:06.000Z</time>
      </trkpt>
      <trkpt lat="49.76058" lon="4.81231">
        <ele>261</ele>
        <time>2022-09-18T06:59:07.000Z</time>
      </trkpt>
      <trkpt lat="49.76061" lon="4.81234">
        <ele>261</ele>
        <time>2022-09-18T06:59:08.000Z</time>
      </trkpt>
      <trkpt lat="49.76063" lon="4.81237">
        <ele>261</ele>
        <time>2022-09-18T06:59:09.000Z</time>
      </trkpt>
      <trkpt lat="49.76066" lon="4.8124">
        <ele>261</ele>
        <time>2022-09-18T06:59:10.000Z</time>
      </trkpt>
      <trkpt lat="49.76068" lon="4.81242">
        <ele>261</ele>
        <time>2022-09-18T06:59:11.000Z</time>
      </trkpt>
      <trkpt lat="49.76071" lon="4.81245">
        <ele>262</ele>
        <time>2022-09-18T06:59:12.000Z</time>
      </trkpt>
      <trkpt lat="49.76074" lon="4.81248">
        <ele>262</ele>
        <time>2022-09-18T06:59:13.000Z</time>
      </trkpt>
      <trkpt lat="49.76076" lon="4.81251">
        <ele>262</ele>
        <time>2022-09-18T06:59:14.000Z</time>
      </trkpt>
      <trkpt lat="49.76079" lon="4.81253">
        <ele>262</ele>
        <time>2022-09-18T06:59:15.000Z</time>
      </trkpt>
      <trkpt lat="49.76081" lon="4.81256">
        <ele>262</ele>
        <time>2022-09-18T06:59:16.000Z</time>
      </trkpt>
      <trkpt lat="49.76084" lon="4.81259">
        <ele>262</ele>
        <time>2022-09-18T06:59:17.000Z</time>
      </trkpt>
      <trkpt lat="49.76086" lon="4.81261">
        <ele>262</ele>
        <time>2022-09-18T06:59:18.000Z</time>
      </trkpt>
      <trkpt lat="49.76089" lon="4.81264">
        <ele>262</ele>
        <time>2022-09-18T06:59:19.000Z</time>
      </trkpt>
      <trkpt lat="49.76091" lon="4.81266">
        <ele>262</ele>
        <time>2022-09-18T06:59:20.000Z</time>
      </trkpt>
      <trkpt lat="49.76093" lon="4.81269">
        <ele>262</ele>
        <time>2022-09-18T06:59:21.000Z</time>
      </trkpt>
      <trkpt lat="49.76096" lon="4.81271">
        <ele>262</ele>
        <time>2022-09-18T06:59:22.000Z</time>
      </trkpt>
      <trkpt lat="49.76098" lon="4.81273">
        <ele>262</ele>
        <time>2022-09-18T06:59:23.000Z</time>
      </trkpt>
      <trkpt lat="49.761" lon="4.81275">
        <ele>262</ele>
        <time>2022-09-18T06:59:24.000Z</time>
      </trkpt>
      <trkpt lat="49.76103" lon="4.81278">
        <ele>262</ele>
        <time>2022-09-18T06:59:25.000Z</time>
      </trkpt>
      <trkpt lat="49.76105" lon="4.81281">
        <ele>263</ele>
        <time>2022-09-18T06:59:26.000Z</time>
      </trkpt>
      <trkpt lat="49.76106" lon="4.81284">
        <ele>263</ele>
        <time>2022-09-18T06:59:27.000Z</time>
      </trkpt>
      <trkpt lat="49.76108" lon="4.81287">
        <ele>263</ele>
        <time>2022-09-18T06:59:28.000Z</time>
      </trkpt>
      <trkpt lat="49.76109" lon="4.8129">
        <ele>263</ele>
        <time>2022-09-18T06:59:29.000Z</time>
      </trkpt>
      <trkpt lat="49.76109" lon="4.81292">
        <ele>263</ele>
        <time>2022-09-18T06:59:30.000Z</time>
      </trkpt>
      <trkpt lat="49.76111" lon="4.81294">
        <ele>263</ele>
        <time>2022-09-18T06:59:31.000Z</time>
      </trkpt>
      <trkpt lat="49.76112" lon="4.81296">
        <ele>263</ele>
        <time>2022-09-18T06:59:32.000Z</time>
      </trkpt>
      <trkpt lat="49.76114" lon="4.81298">
        <ele>263</ele>
        <time>2022-09-18T06:59:33.000Z</time>
      </trkpt>
      <trkpt lat="49.76116" lon="4.81299">
        <ele>263</ele>
        <time>2022-09-18T06:59:34.000Z</time>
      </trkpt>
      <trkpt lat="49.76118" lon="4.81299">
        <ele>263</ele>
        <time>2022-09-18T06:59:35.000Z</time>
      </trkpt>
      <trkpt lat="49.76121" lon="4.81301">
        <ele>263</ele>
        <time>2022-09-18T06:59:36.000Z</time>
      </trkpt>
      <trkpt lat="49.76122" lon="4.81303">
        <ele>263</ele>
        <time>2022-09-18T06:59:37.000Z</time>
      </trkpt>
      <trkpt lat="49.76125" lon="4.81305">
        <ele>263</ele>
        <time>2022-09-18T06:59:38.000Z</time>
      </trkpt>
      <trkpt lat="49.76127" lon="4.81308">
        <ele>263</ele>
        <time>2022-09-18T06:59:39.000Z</time>
      </trkpt>
      <trkpt lat="49.76128" lon="4.8131">
        <ele>263</ele>
        <time>2022-09-18T06:59:40.000Z</time>
      </trkpt>
      <trkpt lat="49.7613" lon="4.81313">
        <ele>263</ele>
        <time>2022-09-18T06:59:41.000Z</time>
      </trkpt>
      <trkpt lat="49.76131" lon="4.81316">
        <ele>263</ele>
        <time>2022-09-18T06:59:42.000Z</time>
      </trkpt>
      <trkpt lat="49.76132" lon="4.81319">
        <ele>263</ele>
        <time>2022-09-18T06:59:43.000Z</time>
      </trkpt>
      <trkpt lat="49.76132" lon="4.81322">
        <ele>264</ele>
        <time>2022-09-18T06:59:44.000Z</time>
      </trkpt>
      <trkpt lat="49.76133" lon="4.81324">
        <ele>264</ele>
        <time>2022-09-18T06:59:45.000Z</time>
      </trkpt>
      <trkpt lat="49.76133" lon="4.81327">
        <ele>264</ele>
        <time>2022-09-18T06:59:46.000Z</time>
      </trkpt>
      <trkpt lat="49.76133" lon="4.8133">
        <ele>264</ele>
        <time>2022-09-18T06:59:47.000Z</time>
      </trkpt>
      <trkpt lat="49.76134" lon="4.81333">
        <ele>264</ele>
        <time>2022-09-18T06:59:48.000Z</time>
      </trkpt>
      <trkpt lat="49.76134" lon="4.81336">
        <ele>264</ele>
        <time>2022-09-18T06:59:49.000Z</time>
      </trkpt>
      <trkpt lat="49.76134" lon="4.81338">
        <ele>264</ele>
        <time>2022-09-18T06:59:50.000Z</time>
      </trkpt>
      <trkpt lat="49.76134" lon="4.81341">
        <ele>264</ele>
        <time>2022-09-18T06:59:51.000Z</time>
      </trkpt>
      <trkpt lat="49.76134" lon="4.81344">
        <ele>264</ele>
        <time>2022-09-18T06:59:52.000Z</time>
      </trkpt>
      <trkpt lat="49.76133" lon="4.81346">
        <ele>264</ele>
        <time>2022-09-18T06:59:53.000Z</time>
      </trkpt>
      <trkpt lat="49.76132" lon="4.81349">
        <ele>264</ele>
        <time>2022-09-18T06:59:54.000Z</time>
      </trkpt>
      <trkpt lat="49.76132" lon="4.81351">
        <ele>264</ele>
        <time>2022-09-18T06:59:55.000Z</time>
      </trkpt>
      <trkpt lat="49.76132" lon="4.81354">
        <ele>264</ele>
        <time>2022-09-18T06:59:56.000Z</time>
      </trkpt>
      <trkpt lat="49.76132" lon="4.81356">
        <ele>265</ele>
        <time>2022-09-18T06:59:57.000Z</time>
      </trkpt>
      <trkpt lat="49.76132" lon="4.81359">
        <ele>265</ele>
        <time>2022-09-18T06:59:58.000Z</time>
      </trkpt>
      <trkpt lat="49.76132" lon="4.81361">
        <ele>265</ele>
        <time>2022-09-18T06:59:59.000Z</time>
      </trkpt>
      <trkpt lat="49.76132" lon="4.81363">
        <ele>265</ele>
        <time>2022-09-18T07:00:00.000Z</time>
      </trkpt>
      <trkpt lat="49.76132" lon="4.81365">
        <ele>265</ele>
        <time>2022-09-18T07:00:01.000Z</time>
      </trkpt>
      <trkpt lat="49.76132" lon="4.81367">
        <ele>265</ele>
        <time>2022-09-18T07:00:02.000Z</time>
      </trkpt>
      <trkpt lat="49.76133" lon="4.81369">
        <ele>265</ele>
        <time>2022-09-18T07:00:03.000Z</time>
      </trkpt>
      <trkpt lat="49.76133" lon="4.81372">
        <ele>265</ele>
        <time>2022-09-18T07:00:04.000Z</time>
      </trkpt>
      <trkpt lat="49.76133" lon="4.81373">
        <ele>265</ele>
        <time>2022-09-18T07:00:05.000Z</time>
      </trkpt>
      <trkpt lat="49.76133" lon="4.81375">
        <ele>265</ele>
        <time>2022-09-18T07:00:06.000Z</time>
      </trkpt>
      <trkpt lat="49.76132" lon="4.81377">
        <ele>266</ele>
        <time>2022-09-18T07:00:07.000Z</time>
      </trkpt>
      <trkpt lat="49.76132" lon="4.81379">
        <ele>266</ele>
        <time>2022-09-18T07:00:08.000Z</time>
      </trkpt>
      <trkpt lat="49.76132" lon="4.81381">
        <ele>266</ele>
        <time>2022-09-18T07:00:09.000Z</time>
      </trkpt>
      <trkpt lat="49.76132" lon="4.81384">
        <ele>266</ele>
        <time>2022-09-18T07:00:10.000Z</time>
      </trkpt>
      <trkpt lat="49.76132" lon="4.81386">
        <ele>266</ele>
        <time>2022-09-18T07:00:11.000Z</time>
      </trkpt>
      <trkpt lat="49.76132" lon="4.81389">
        <ele>266</ele>
        <time>2022-09-18T07:00:12.000Z</time>
      </trkpt>
      <trkpt lat="49.76132" lon="4.81392">
        <ele>267</ele>
        <time>2022-09-18T07:00:13.000Z</time>
      </trkpt>
      <trkpt lat="49.76131" lon="4.81395">
        <ele>267</ele>
        <time>2022-09-18T07:00:14.000Z</time>
      </trkpt>
      <trkpt lat="49.76131" lon="4.81399">
        <ele>267</ele>
        <time>2022-09-18T07:00:15.000Z</time>
      </trkpt>
      <trkpt lat="49.76131" lon="4.81402">
        <ele>267</ele>
        <time>2022-09-18T07:00:16.000Z</time>
      </trkpt>
      <trkpt lat="49.76131" lon="4.81405">
        <ele>267</ele>
        <time>2022-09-18T07:00:17.000Z</time>
      </trkpt>
      <trkpt lat="49.76131" lon="4.81408">
        <ele>267</ele>
        <time>2022-09-18T07:00:18.000Z</time>
      </trkpt>
      <trkpt lat="49.76131" lon="4.81411">
        <ele>267</ele>
        <time>2022-09-18T07:00:19.000Z</time>
      </trkpt>
      <trkpt lat="49.76131" lon="4.81413">
        <ele>267</ele>
        <time>2022-09-18T07:00:20.000Z</time>
      </trkpt>
      <trkpt lat="49.76132" lon="4.81416">
        <ele>267</ele>
        <time>2022-09-18T07:00:21.000Z</time>
      </trkpt>
      <trkpt lat="49.76132" lon="4.81419">
        <ele>267</ele>
        <time>2022-09-18T07:00:22.000Z</time>
      </trkpt>
      <trkpt lat="49.76133" lon="4.81422">
        <ele>267</ele>
        <time>2022-09-18T07:00:23.000Z</time>
      </trkpt>
      <trkpt lat="49.76134" lon="4.81425">
        <ele>267</ele>
        <time>2022-09-18T07:00:24.000Z</time>
      </trkpt>
      <trkpt lat="49.76136" lon="4.81428">
        <ele>267</ele>
        <time>2022-09-18T07:00:25.000Z</time>
      </trkpt>
      <trkpt lat="49.76137" lon="4.8143">
        <ele>268</ele>
        <time>2022-09-18T07:00:26.000Z</time>
      </trkpt>
      <trkpt lat="49.76139" lon="4.81432">
        <ele>268</ele>
        <time>2022-09-18T07:00:27.000Z</time>
      </trkpt>
      <trkpt lat="49.76141" lon="4.81433">
        <ele>268</ele>
        <time>2022-09-18T07:00:28.000Z</time>
      </trkpt>
      <trkpt lat="49.76143" lon="4.81434">
        <ele>268</ele>
        <time>2022-09-18T07:00:29.000Z</time>
      </trkpt>
      <trkpt lat="49.76145" lon="4.81435">
        <ele>268</ele>
        <time>2022-09-18T07:00:30.000Z</time>
      </trkpt>
      <trkpt lat="49.76147" lon="4.81435">
        <ele>268</ele>
        <time>2022-09-18T07:00:31.000Z</time>
      </trkpt>
      <trkpt lat="49.7615" lon="4.81436">
        <ele>268</ele>
        <time>2022-09-18T07:00:32.000Z</time>
      </trkpt>
      <trkpt lat="49.76152" lon="4.81437">
        <ele>268</ele>
        <time>2022-09-18T07:00:33.000Z</time>
      </trkpt>
      <trkpt lat="49.76155" lon="4.81437">
        <ele>268</ele>
        <time>2022-09-18T07:00:34.000Z</time>
      </trkpt>
      <trkpt lat="49.76157" lon="4.81438">
        <ele>268</ele>
        <time>2022-09-18T07:00:35.000Z</time>
      </trkpt>
      <trkpt lat="49.7616" lon="4.81439">
        <ele>269</ele>
        <time>2022-09-18T07:00:36.000Z</time>
      </trkpt>
      <trkpt lat="49.76162" lon="4.8144">
        <ele>269</ele>
        <time>2022-09-18T07:00:37.000Z</time>
      </trkpt>
      <trkpt lat="49.76165" lon="4.81441">
        <ele>269</ele>
        <time>2022-09-18T07:00:38.000Z</time>
      </trkpt>
      <trkpt lat="49.76168" lon="4.81443">
        <ele>269</ele>
        <time>2022-09-18T07:00:39.000Z</time>
      </trkpt>
      <trkpt lat="49.7617" lon="4.81444">
        <ele>269</ele>
        <time>2022-09-18T07:00:40.000Z</time>
      </trkpt>
      <trkpt lat="49.76173" lon="4.81444">
        <ele>269</ele>
        <time>2022-09-18T07:00:41.000Z</time>
      </trkpt>
      <trkpt lat="49.76175" lon="4.81443">
        <ele>269</ele>
        <time>2022-09-18T07:00:42.000Z</time>
      </trkpt>
      <trkpt lat="49.76177" lon="4.81442">
        <ele>269</ele>
        <time>2022-09-18T07:00:43.000Z</time>
      </trkpt>
      <trkpt lat="49.76178" lon="4.81439">
        <ele>269</ele>
        <time>2022-09-18T07:00:44.000Z</time>
      </trkpt>
      <trkpt lat="49.76179" lon="4.81435">
        <ele>269</ele>
        <time>2022-09-18T07:00:45.000Z</time>
      </trkpt>
      <trkpt lat="49.76179" lon="4.8143">
        <ele>268</ele>
        <time>2022-09-18T07:00:46.000Z</time>
      </trkpt>
      <trkpt lat="49.76179" lon="4.81424">
        <ele>268</ele>
        <time>2022-09-18T07:00:47.000Z</time>
      </trkpt>
      <trkpt lat="49.76179" lon="4.81417">
        <ele>268</ele>
        <time>2022-09-18T07:00:48.000Z</time>
      </trkpt>
      <trkpt lat="49.7618" lon="4.81408">
        <ele>268</ele>
        <time>2022-09-18T07:00:49.000Z</time>
      </trkpt>
      <trkpt lat="49.7618" lon="4.814">
        <ele>267</ele>
        <time>2022-09-18T07:00:50.000Z</time>
      </trkpt>
      <trkpt lat="49.7618" lon="4.81391">
        <ele>267</ele>
        <time>2022-09-18T07:00:51.000Z</time>
      </trkpt>
      <trkpt lat="49.76181" lon="4.81381">
        <ele>267</ele>
        <time>2022-09-18T07:00:52.000Z</time>
      </trkpt>
      <trkpt lat="49.7618" lon="4.81371">
        <ele>266</ele>
        <time>2022-09-18T07:00:53.000Z</time>
      </trkpt>
      <trkpt lat="49.7618" lon="4.8136">
        <ele>266</ele>
        <time>2022-09-18T07:00:54.000Z</time>
      </trkpt>
      <trkpt lat="49.76181" lon="4.81349">
        <ele>265</ele>
        <time>2022-09-18T07:00:55.000Z</time>
      </trkpt>
      <trkpt lat="49.76181" lon="4.81337">
        <ele>265</ele>
        <time>2022-09-18T07:00:56.000Z</time>
      </trkpt>
      <trkpt lat="49.76182" lon="4.81326">
        <ele>265</ele>
        <time>2022-09-18T07:00:57.000Z</time>
      </trkpt>
      <trkpt lat="49.76183" lon="4.81315">
        <ele>264</ele>
        <time>2022-09-18T07:00:58.000Z</time>
      </trkpt>
      <trkpt lat="49.76183" lon="4.81304">
        <ele>264</ele>
        <time>2022-09-18T07:00:59.000Z</time>
      </trkpt>
      <trkpt lat="49.76184" lon="4.81296">
        <ele>264</ele>
        <time>2022-09-18T07:01:00.000Z</time>
      </trkpt>
      <trkpt lat="49.76185" lon="4.81289">
        <ele>264</ele>
        <time>2022-09-18T07:01:01.000Z</time>
      </trkpt>
      <trkpt lat="49.76185" lon="4.81283">
        <ele>264</ele>
        <time>2022-09-18T07:01:02.000Z</time>
      </trkpt>
      <trkpt lat="49.76185" lon="4.81278">
        <ele>264</ele>
        <time>2022-09-18T07:01:03.000Z</time>
      </trkpt>
      <trkpt lat="49.76185" lon="4.81272">
        <ele>264</ele>
        <time>2022-09-18T07:01:04.000Z</time>
      </trkpt>
      <trkpt lat="49.76185" lon="4.81266">
        <ele>264</ele>
        <time>2022-09-18T07:01:05.000Z</time>
      </trkpt>
      <trkpt lat="49.76185" lon="4.81261">
        <ele>264</ele>
        <time>2022-09-18T07:01:06.000Z</time>
      </trkpt>
      <trkpt lat="49.76186" lon="4.81256">
        <ele>264</ele>
        <time>2022-09-18T07:01:07.000Z</time>
      </trkpt>
      <trkpt lat="49.76186" lon="4.8125">
        <ele>264</ele>
        <time>2022-09-18T07:01:08.000Z</time>
      </trkpt>
      <trkpt lat="49.76187" lon="4.81244">
        <ele>263</ele>
        <time>2022-09-18T07:01:09.000Z</time>
      </trkpt>
      <trkpt lat="49.76187" lon="4.81238">
        <ele>263</ele>
        <time>2022-09-18T07:01:10.000Z</time>
      </trkpt>
      <trkpt lat="49.76188" lon="4.81233">
        <ele>263</ele>
        <time>2022-09-18T07:01:11.000Z</time>
      </trkpt>
      <trkpt lat="49.76188" lon="4.81227">
        <ele>264</ele>
        <time>2022-09-18T07:01:12.000Z</time>
      </trkpt>
      <trkpt lat="49.76188" lon="4.81221">
        <ele>264</ele>
        <time>2022-09-18T07:01:13.000Z</time>
      </trkpt>
      <trkpt lat="49.76188" lon="4.81217">
        <ele>264</ele>
        <time>2022-09-18T07:01:14.000Z</time>
      </trkpt>
      <trkpt lat="49.76189" lon="4.81213">
        <ele>264</ele>
        <time>2022-09-18T07:01:15.000Z</time>
      </trkpt>
      <trkpt lat="49.7619" lon="4.81209">
        <ele>264</ele>
        <time>2022-09-18T07:01:16.000Z</time>
      </trkpt>
      <trkpt lat="49.7619" lon="4.81205">
        <ele>264</ele>
        <time>2022-09-18T07:01:17.000Z</time>
      </trkpt>
      <trkpt lat="49.7619" lon="4.81201">
        <ele>264</ele>
        <time>2022-09-18T07:01:18.000Z</time>
      </trkpt>
      <trkpt lat="49.76191" lon="4.81196">
        <ele>264</ele>
        <time>2022-09-18T07:01:19.000Z</time>
      </trkpt>
      <trkpt lat="49.76192" lon="4.81191">
        <ele>264</ele>
        <time>2022-09-18T07:01:20.000Z</time>
      </trkpt>
      <trkpt lat="49.76193" lon="4.81186">
        <ele>265</ele>
        <time>2022-09-18T07:01:21.000Z</time>
      </trkpt>
      <trkpt lat="49.76193" lon="4.81181">
        <ele>265</ele>
        <time>2022-09-18T07:01:22.000Z</time>
      </trkpt>
      <trkpt lat="49.76193" lon="4.81176">
        <ele>265</ele>
        <time>2022-09-18T07:01:23.000Z</time>
      </trkpt>
      <trkpt lat="49.76194" lon="4.81171">
        <ele>265</ele>
        <time>2022-09-18T07:01:24.000Z</time>
      </trkpt>
      <trkpt lat="49.76195" lon="4.81164">
        <ele>265</ele>
        <time>2022-09-18T07:01:25.000Z</time>
      </trkpt>
      <trkpt lat="49.76196" lon="4.81157">
        <ele>265</ele>
        <time>2022-09-18T07:01:26.000Z</time>
      </trkpt>
      <trkpt lat="49.76197" lon="4.81151">
        <ele>265</ele>
        <time>2022-09-18T07:01:27.000Z</time>
      </trkpt>
      <trkpt lat="49.76197" lon="4.81145">
        <ele>265</ele>
        <time>2022-09-18T07:01:28.000Z</time>
      </trkpt>
      <trkpt lat="49.76198" lon="4.81139">
        <ele>265</ele>
        <time>2022-09-18T07:01:29.000Z</time>
      </trkpt>
      <trkpt lat="49.76198" lon="4.81132">
        <ele>265</ele>
        <time>2022-09-18T07:01:30.000Z</time>
      </trkpt>
      <trkpt lat="49.76199" lon="4.81125">
        <ele>265</ele>
        <time>2022-09-18T07:01:31.000Z</time>
      </trkpt>
      <trkpt lat="49.76199" lon="4.81117">
        <ele>265</ele>
        <time>2022-09-18T07:01:32.000Z</time>
      </trkpt>
      <trkpt lat="49.762" lon="4.81109">
        <ele>265</ele>
        <time>2022-09-18T07:01:33.000Z</time>
      </trkpt>
      <trkpt lat="49.762" lon="4.81101">
        <ele>265</ele>
        <time>2022-09-18T07:01:34.000Z</time>
      </trkpt>
      <trkpt lat="49.762" lon="4.81092">
        <ele>265</ele>
        <time>2022-09-18T07:01:35.000Z</time>
      </trkpt>
      <trkpt lat="49.762" lon="4.81082">
        <ele>265</ele>
        <time>2022-09-18T07:01:36.000Z</time>
      </trkpt>
      <trkpt lat="49.762" lon="4.81072">
        <ele>265</ele>
        <time>2022-09-18T07:01:37.000Z</time>
      </trkpt>
      <trkpt lat="49.76201" lon="4.81063">
        <ele>265</ele>
        <time>2022-09-18T07:01:38.000Z</time>
      </trkpt>
      <trkpt lat="49.76201" lon="4.81054">
        <ele>265</ele>
        <time>2022-09-18T07:01:39.000Z</time>
      </trkpt>
      <trkpt lat="49.76202" lon="4.81046">
        <ele>264</ele>
        <time>2022-09-18T07:01:40.000Z</time>
      </trkpt>
      <trkpt lat="49.76203" lon="4.81039">
        <ele>264</ele>
        <time>2022-09-18T07:01:41.000Z</time>
      </trkpt>
      <trkpt lat="49.76204" lon="4.81033">
        <ele>264</ele>
        <time>2022-09-18T07:01:42.000Z</time>
      </trkpt>
      <trkpt lat="49.76205" lon="4.81026">
        <ele>264</ele>
        <time>2022-09-18T07:01:43.000Z</time>
      </trkpt>
      <trkpt lat="49.76206" lon="4.81018">
        <ele>264</ele>
        <time>2022-09-18T07:01:44.000Z</time>
      </trkpt>
      <trkpt lat="49.76207" lon="4.8101">
        <ele>265</ele>
        <time>2022-09-18T07:01:45.000Z</time>
      </trkpt>
      <trkpt lat="49.76208" lon="4.81003">
        <ele>265</ele>
        <time>2022-09-18T07:01:46.000Z</time>
      </trkpt>
      <trkpt lat="49.76208" lon="4.80997">
        <ele>265</ele>
        <time>2022-09-18T07:01:47.000Z</time>
      </trkpt>
      <trkpt lat="49.76209" lon="4.8099">
        <ele>265</ele>
        <time>2022-09-18T07:01:48.000Z</time>
      </trkpt>
      <trkpt lat="49.76209" lon="4.80983">
        <ele>265</ele>
        <time>2022-09-18T07:01:49.000Z</time>
      </trkpt>
      <trkpt lat="49.76209" lon="4.80976">
        <ele>265</ele>
        <time>2022-09-18T07:01:50.000Z</time>
      </trkpt>
      <trkpt lat="49.7621" lon="4.8097">
        <ele>265</ele>
        <time>2022-09-18T07:01:51.000Z</time>
      </trkpt>
      <trkpt lat="49.7621" lon="4.80964">
        <ele>265</ele>
        <time>2022-09-18T07:01:52.000Z</time>
      </trkpt>
      <trkpt lat="49.7621" lon="4.80959">
        <ele>265</ele>
        <time>2022-09-18T07:01:53.000Z</time>
      </trkpt>
      <trkpt lat="49.76209" lon="4.80954">
        <ele>265</ele>
        <time>2022-09-18T07:01:54.000Z</time>
      </trkpt>
      <trkpt lat="49.76208" lon="4.80948">
        <ele>265</ele>
        <time>2022-09-18T07:01:55.000Z</time>
      </trkpt>
      <trkpt lat="49.76207" lon="4.80941">
        <ele>265</ele>
        <time>2022-09-18T07:01:56.000Z</time>
      </trkpt>
      <trkpt lat="49.76207" lon="4.80934">
        <ele>265</ele>
        <time>2022-09-18T07:01:57.000Z</time>
      </trkpt>
      <trkpt lat="49.76208" lon="4.80927">
        <ele>265</ele>
        <time>2022-09-18T07:01:58.000Z</time>
      </trkpt>
      <trkpt lat="49.76209" lon="4.80921">
        <ele>265</ele>
        <time>2022-09-18T07:01:59.000Z</time>
      </trkpt>
      <trkpt lat="49.76213" lon="4.80918">
        <ele>265</ele>
        <time>2022-09-18T07:02:00.000Z</time>
      </trkpt>
      <trkpt lat="49.76216" lon="4.80915">
        <ele>265</ele>
        <time>2022-09-18T07:02:01.000Z</time>
      </trkpt>
      <trkpt lat="49.76219" lon="4.80914">
        <ele>265</ele>
        <time>2022-09-18T07:02:02.000Z</time>
      </trkpt>
      <trkpt lat="49.76222" lon="4.80914">
        <ele>265</ele>
        <time>2022-09-18T07:02:03.000Z</time>
      </trkpt>
      <trkpt lat="49.76225" lon="4.80915">
        <ele>265</ele>
        <time>2022-09-18T07:02:04.000Z</time>
      </trkpt>
      <trkpt lat="49.76228" lon="4.80915">
        <ele>265</ele>
        <time>2022-09-18T07:02:05.000Z</time>
      </trkpt>
      <trkpt lat="49.7623" lon="4.80916">
        <ele>266</ele>
        <time>2022-09-18T07:02:06.000Z</time>
      </trkpt>
      <trkpt lat="49.76232" lon="4.80917">
        <ele>266</ele>
        <time>2022-09-18T07:02:07.000Z</time>
      </trkpt>
      <trkpt lat="49.76234" lon="4.80917">
        <ele>266</ele>
        <time>2022-09-18T07:02:08.000Z</time>
      </trkpt>
      <trkpt lat="49.76235" lon="4.80917">
        <ele>266</ele>
        <time>2022-09-18T07:02:09.000Z</time>
      </trkpt>
      <trkpt lat="49.76237" lon="4.80918">
        <ele>266</ele>
        <time>2022-09-18T07:02:10.000Z</time>
      </trkpt>
      <trkpt lat="49.76239" lon="4.80919">
        <ele>267</ele>
        <time>2022-09-18T07:02:11.000Z</time>
      </trkpt>
      <trkpt lat="49.76241" lon="4.80919">
        <ele>267</ele>
        <time>2022-09-18T07:02:12.000Z</time>
      </trkpt>
      <trkpt lat="49.76243" lon="4.8092">
        <ele>267</ele>
        <time>2022-09-18T07:02:13.000Z</time>
      </trkpt>
      <trkpt lat="49.76246" lon="4.80921">
        <ele>267</ele>
        <time>2022-09-18T07:02:14.000Z</time>
      </trkpt>
      <trkpt lat="49.76248" lon="4.80922">
        <ele>267</ele>
        <time>2022-09-18T07:02:15.000Z</time>
      </trkpt>
      <trkpt lat="49.7625" lon="4.80923">
        <ele>268</ele>
        <time>2022-09-18T07:02:16.000Z</time>
      </trkpt>
      <trkpt lat="49.76253" lon="4.80924">
        <ele>268</ele>
        <time>2022-09-18T07:02:17.000Z</time>
      </trkpt>
      <trkpt lat="49.76255" lon="4.80925">
        <ele>268</ele>
        <time>2022-09-18T07:02:18.000Z</time>
      </trkpt>
      <trkpt lat="49.76258" lon="4.80926">
        <ele>268</ele>
        <time>2022-09-18T07:02:19.000Z</time>
      </trkpt>
      <trkpt lat="49.76261" lon="4.80927">
        <ele>268</ele>
        <time>2022-09-18T07:02:20.000Z</time>
      </trkpt>
      <trkpt lat="49.76263" lon="4.80928">
        <ele>269</ele>
        <time>2022-09-18T07:02:21.000Z</time>
      </trkpt>
      <trkpt lat="49.76266" lon="4.80929">
        <ele>269</ele>
        <time>2022-09-18T07:02:22.000Z</time>
      </trkpt>
      <trkpt lat="49.76269" lon="4.8093">
        <ele>269</ele>
        <time>2022-09-18T07:02:23.000Z</time>
      </trkpt>
      <trkpt lat="49.76272" lon="4.80932">
        <ele>269</ele>
        <time>2022-09-18T07:02:24.000Z</time>
      </trkpt>
      <trkpt lat="49.76275" lon="4.80933">
        <ele>270</ele>
        <time>2022-09-18T07:02:25.000Z</time>
      </trkpt>
      <trkpt lat="49.76278" lon="4.80934">
        <ele>270</ele>
        <time>2022-09-18T07:02:26.000Z</time>
      </trkpt>
      <trkpt lat="49.7628" lon="4.80935">
        <ele>270</ele>
        <time>2022-09-18T07:02:27.000Z</time>
      </trkpt>
      <trkpt lat="49.76283" lon="4.80937">
        <ele>271</ele>
        <time>2022-09-18T07:02:28.000Z</time>
      </trkpt>
      <trkpt lat="49.76285" lon="4.80938">
        <ele>271</ele>
        <time>2022-09-18T07:02:29.000Z</time>
      </trkpt>
      <trkpt lat="49.76288" lon="4.80939">
        <ele>271</ele>
        <time>2022-09-18T07:02:30.000Z</time>
      </trkpt>
      <trkpt lat="49.76291" lon="4.8094">
        <ele>272</ele>
        <time>2022-09-18T07:02:31.000Z</time>
      </trkpt>
      <trkpt lat="49.76294" lon="4.80941">
        <ele>272</ele>
        <time>2022-09-18T07:02:32.000Z</time>
      </trkpt>
      <trkpt lat="49.76296" lon="4.80942">
        <ele>272</ele>
        <time>2022-09-18T07:02:33.000Z</time>
      </trkpt>
      <trkpt lat="49.76299" lon="4.80943">
        <ele>273</ele>
        <time>2022-09-18T07:02:34.000Z</time>
      </trkpt>
      <trkpt lat="49.76301" lon="4.80943">
        <ele>273</ele>
        <time>2022-09-18T07:02:35.000Z</time>
      </trkpt>
      <trkpt lat="49.76304" lon="4.80942">
        <ele>273</ele>
        <time>2022-09-18T07:02:36.000Z</time>
      </trkpt>
      <trkpt lat="49.76306" lon="4.8094">
        <ele>273</ele>
        <time>2022-09-18T07:02:37.000Z</time>
      </trkpt>
      <trkpt lat="49.76307" lon="4.80937">
        <ele>273</ele>
        <time>2022-09-18T07:02:38.000Z</time>
      </trkpt>
      <trkpt lat="49.76308" lon="4.80932">
        <ele>274</ele>
        <time>2022-09-18T07:02:39.000Z</time>
      </trkpt>
      <trkpt lat="49.76309" lon="4.80927">
        <ele>274</ele>
        <time>2022-09-18T07:02:40.000Z</time>
      </trkpt>
      <trkpt lat="49.7631" lon="4.80922">
        <ele>274</ele>
        <time>2022-09-18T07:02:41.000Z</time>
      </trkpt>
      <trkpt lat="49.76311" lon="4.80918">
        <ele>274</ele>
        <time>2022-09-18T07:02:42.000Z</time>
      </trkpt>
      <trkpt lat="49.76312" lon="4.80914">
        <ele>274</ele>
        <time>2022-09-18T07:02:43.000Z</time>
      </trkpt>
      <trkpt lat="49.76313" lon="4.8091">
        <ele>274</ele>
        <time>2022-09-18T07:02:44.000Z</time>
      </trkpt>
      <trkpt lat="49.76314" lon="4.80906">
        <ele>275</ele>
        <time>2022-09-18T07:02:45.000Z</time>
      </trkpt>
      <trkpt lat="49.76315" lon="4.80903">
        <ele>275</ele>
        <time>2022-09-18T07:02:46.000Z</time>
      </trkpt>
      <trkpt lat="49.76316" lon="4.80899">
        <ele>275</ele>
        <time>2022-09-18T07:02:47.000Z</time>
      </trkpt>
      <trkpt lat="49.76316" lon="4.80895">
        <ele>275</ele>
        <time>2022-09-18T07:02:48.000Z</time>
      </trkpt>
      <trkpt lat="49.76316" lon="4.80889">
        <ele>275</ele>
        <time>2022-09-18T07:02:49.000Z</time>
      </trkpt>
      <trkpt lat="49.76315" lon="4.80883">
        <ele>275</ele>
        <time>2022-09-18T07:02:50.000Z</time>
      </trkpt>
      <trkpt lat="49.76315" lon="4.80878">
        <ele>275</ele>
        <time>2022-09-18T07:02:51.000Z</time>
      </trkpt>
      <trkpt lat="49.76315" lon="4.80873">
        <ele>275</ele>
        <time>2022-09-18T07:02:52.000Z</time>
      </trkpt>
      <trkpt lat="49.76316" lon="4.80868">
        <ele>275</ele>
        <time>2022-09-18T07:02:53.000Z</time>
      </trkpt>
      <trkpt lat="49.76316" lon="4.80862">
        <ele>275</ele>
        <time>2022-09-18T07:02:54.000Z</time>
      </trkpt>
      <trkpt lat="49.76316" lon="4.80856">
        <ele>275</ele>
        <time>2022-09-18T07:02:55.000Z</time>
      </trkpt>
      <trkpt lat="49.76315" lon="4.8085">
        <ele>275</ele>
        <time>2022-09-18T07:02:56.000Z</time>
      </trkpt>
      <trkpt lat="49.76315" lon="4.80843">
        <ele>275</ele>
        <time>2022-09-18T07:02:57.000Z</time>
      </trkpt>
      <trkpt lat="49.76315" lon="4.80837">
        <ele>275</ele>
        <time>2022-09-18T07:02:58.000Z</time>
      </trkpt>
      <trkpt lat="49.76314" lon="4.8083">
        <ele>275</ele>
        <time>2022-09-18T07:02:59.000Z</time>
      </trkpt>
      <trkpt lat="49.76314" lon="4.80824">
        <ele>275</ele>
        <time>2022-09-18T07:03:00.000Z</time>
      </trkpt>
      <trkpt lat="49.76313" lon="4.80818">
        <ele>275</ele>
        <time>2022-09-18T07:03:01.000Z</time>
      </trkpt>
      <trkpt lat="49.76313" lon="4.80811">
        <ele>275</ele>
        <time>2022-09-18T07:03:02.000Z</time>
      </trkpt>
      <trkpt lat="49.76313" lon="4.80805">
        <ele>275</ele>
        <time>2022-09-18T07:03:03.000Z</time>
      </trkpt>
      <trkpt lat="49.76313" lon="4.80799">
        <ele>275</ele>
        <time>2022-09-18T07:03:04.000Z</time>
      </trkpt>
      <trkpt lat="49.76313" lon="4.80792">
        <ele>275</ele>
        <time>2022-09-18T07:03:05.000Z</time>
      </trkpt>
      <trkpt lat="49.76312" lon="4.80785">
        <ele>275</ele>
        <time>2022-09-18T07:03:06.000Z</time>
      </trkpt>
      <trkpt lat="49.76312" lon="4.80779">
        <ele>275</ele>
        <time>2022-09-18T07:03:07.000Z</time>
      </trkpt>
      <trkpt lat="49.76313" lon="4.80772">
        <ele>275</ele>
        <time>2022-09-18T07:03:08.000Z</time>
      </trkpt>
      <trkpt lat="49.76313" lon="4.80765">
        <ele>275</ele>
        <time>2022-09-18T07:03:09.000Z</time>
      </trkpt>
      <trkpt lat="49.76314" lon="4.80758">
        <ele>275</ele>
        <time>2022-09-18T07:03:10.000Z</time>
      </trkpt>
      <trkpt lat="49.76315" lon="4.80752">
        <ele>275</ele>
        <time>2022-09-18T07:03:11.000Z</time>
      </trkpt>
      <trkpt lat="49.76316" lon="4.80746">
        <ele>275</ele>
        <time>2022-09-18T07:03:12.000Z</time>
      </trkpt>
      <trkpt lat="49.76318" lon="4.8074">
        <ele>275</ele>
        <time>2022-09-18T07:03:13.000Z</time>
      </trkpt>
      <trkpt lat="49.7632" lon="4.80734">
        <ele>275</ele>
        <time>2022-09-18T07:03:14.000Z</time>
      </trkpt>
      <trkpt lat="49.76323" lon="4.80728">
        <ele>275</ele>
        <time>2022-09-18T07:03:15.000Z</time>
      </trkpt>
      <trkpt lat="49.76325" lon="4.80722">
        <ele>275</ele>
        <time>2022-09-18T07:03:16.000Z</time>
      </trkpt>
      <trkpt lat="49.76328" lon="4.80717">
        <ele>274</ele>
        <time>2022-09-18T07:03:17.000Z</time>
      </trkpt>
      <trkpt lat="49.76331" lon="4.80712">
        <ele>274</ele>
        <time>2022-09-18T07:03:18.000Z</time>
      </trkpt>
      <trkpt lat="49.76333" lon="4.80706">
        <ele>274</ele>
        <time>2022-09-18T07:03:19.000Z</time>
      </trkpt>
      <trkpt lat="49.76335" lon="4.80701">
        <ele>274</ele>
        <time>2022-09-18T07:03:20.000Z</time>
      </trkpt>
      <trkpt lat="49.76338" lon="4.80696">
        <ele>274</ele>
        <time>2022-09-18T07:03:21.000Z</time>
      </trkpt>
      <trkpt lat="49.76341" lon="4.80692">
        <ele>274</ele>
        <time>2022-09-18T07:03:22.000Z</time>
      </trkpt>
      <trkpt lat="49.76343" lon="4.80687">
        <ele>274</ele>
        <time>2022-09-18T07:03:23.000Z</time>
      </trkpt>
      <trkpt lat="49.76346" lon="4.80682">
        <ele>274</ele>
        <time>2022-09-18T07:03:24.000Z</time>
      </trkpt>
      <trkpt lat="49.76349" lon="4.80677">
        <ele>274</ele>
        <time>2022-09-18T07:03:25.000Z</time>
      </trkpt>
      <trkpt lat="49.76353" lon="4.80671">
        <ele>274</ele>
        <time>2022-09-18T07:03:26.000Z</time>
      </trkpt>
      <trkpt lat="49.76356" lon="4.80666">
        <ele>274</ele>
        <time>2022-09-18T07:03:27.000Z</time>
      </trkpt>
      <trkpt lat="49.76359" lon="4.80661">
        <ele>274</ele>
        <time>2022-09-18T07:03:28.000Z</time>
      </trkpt>
      <trkpt lat="49.76362" lon="4.80656">
        <ele>273</ele>
        <time>2022-09-18T07:03:29.000Z</time>
      </trkpt>
      <trkpt lat="49.76366" lon="4.80652">
        <ele>273</ele>
        <time>2022-09-18T07:03:30.000Z</time>
      </trkpt>
      <trkpt lat="49.76371" lon="4.80648">
        <ele>273</ele>
        <time>2022-09-18T07:03:31.000Z</time>
      </trkpt>
      <trkpt lat="49.76375" lon="4.80644">
        <ele>273</ele>
        <time>2022-09-18T07:03:32.000Z</time>
      </trkpt>
      <trkpt lat="49.76379" lon="4.8064">
        <ele>273</ele>
        <time>2022-09-18T07:03:33.000Z</time>
      </trkpt>
      <trkpt lat="49.76383" lon="4.80637">
        <ele>273</ele>
        <time>2022-09-18T07:03:34.000Z</time>
      </trkpt>
      <trkpt lat="49.76388" lon="4.80634">
        <ele>273</ele>
        <time>2022-09-18T07:03:35.000Z</time>
      </trkpt>
      <trkpt lat="49.76391" lon="4.80631">
        <ele>273</ele>
        <time>2022-09-18T07:03:36.000Z</time>
      </trkpt>
      <trkpt lat="49.76395" lon="4.80628">
        <ele>273</ele>
        <time>2022-09-18T07:03:37.000Z</time>
      </trkpt>
      <trkpt lat="49.76399" lon="4.80625">
        <ele>273</ele>
        <time>2022-09-18T07:03:38.000Z</time>
      </trkpt>
      <trkpt lat="49.76403" lon="4.80622">
        <ele>273</ele>
        <time>2022-09-18T07:03:39.000Z</time>
      </trkpt>
      <trkpt lat="49.76408" lon="4.80619">
        <ele>273</ele>
        <time>2022-09-18T07:03:40.000Z</time>
      </trkpt>
      <trkpt lat="49.76412" lon="4.80617">
        <ele>273</ele>
        <time>2022-09-18T07:03:41.000Z</time>
      </trkpt>
      <trkpt lat="49.76417" lon="4.80614">
        <ele>274</ele>
        <time>2022-09-18T07:03:42.000Z</time>
      </trkpt>
      <trkpt lat="49.76421" lon="4.80612">
        <ele>274</ele>
        <time>2022-09-18T07:03:43.000Z</time>
      </trkpt>
      <trkpt lat="49.76426" lon="4.80609">
        <ele>274</ele>
        <time>2022-09-18T07:03:44.000Z</time>
      </trkpt>
      <trkpt lat="49.76431" lon="4.80606">
        <ele>274</ele>
        <time>2022-09-18T07:03:45.000Z</time>
      </trkpt>
      <trkpt lat="49.76436" lon="4.80602">
        <ele>274</ele>
        <time>2022-09-18T07:03:46.000Z</time>
      </trkpt>
      <trkpt lat="49.7644" lon="4.80599">
        <ele>274</ele>
        <time>2022-09-18T07:03:47.000Z</time>
      </trkpt>
      <trkpt lat="49.76445" lon="4.80596">
        <ele>275</ele>
        <time>2022-09-18T07:03:48.000Z</time>
      </trkpt>
      <trkpt lat="49.7645" lon="4.80592">
        <ele>275</ele>
        <time>2022-09-18T07:03:49.000Z</time>
      </trkpt>
      <trkpt lat="49.76454" lon="4.80588">
        <ele>275</ele>
        <time>2022-09-18T07:03:50.000Z</time>
      </trkpt>
      <trkpt lat="49.76459" lon="4.80585">
        <ele>275</ele>
        <time>2022-09-18T07:03:51.000Z</time>
      </trkpt>
      <trkpt lat="49.76463" lon="4.80581">
        <ele>275</ele>
        <time>2022-09-18T07:03:52.000Z</time>
      </trkpt>
      <trkpt lat="49.76468" lon="4.80577">
        <ele>275</ele>
        <time>2022-09-18T07:03:53.000Z</time>
      </trkpt>
      <trkpt lat="49.76473" lon="4.80573">
        <ele>275</ele>
        <time>2022-09-18T07:03:54.000Z</time>
      </trkpt>
      <trkpt lat="49.76478" lon="4.80569">
        <ele>275</ele>
        <time>2022-09-18T07:03:55.000Z</time>
      </trkpt>
      <trkpt lat="49.76482" lon="4.80565">
        <ele>276</ele>
        <time>2022-09-18T07:03:56.000Z</time>
      </trkpt>
      <trkpt lat="49.76487" lon="4.80561">
        <ele>276</ele>
        <time>2022-09-18T07:03:57.000Z</time>
      </trkpt>
      <trkpt lat="49.76491" lon="4.80557">
        <ele>276</ele>
        <time>2022-09-18T07:03:58.000Z</time>
      </trkpt>
      <trkpt lat="49.76496" lon="4.80553">
        <ele>276</ele>
        <time>2022-09-18T07:03:59.000Z</time>
      </trkpt>
      <trkpt lat="49.765" lon="4.80549">
        <ele>276</ele>
        <time>2022-09-18T07:04:00.000Z</time>
      </trkpt>
      <trkpt lat="49.76504" lon="4.80546">
        <ele>276</ele>
        <time>2022-09-18T07:04:01.000Z</time>
      </trkpt>
      <trkpt lat="49.76508" lon="4.80542">
        <ele>276</ele>
        <time>2022-09-18T07:04:02.000Z</time>
      </trkpt>
      <trkpt lat="49.76512" lon="4.80538">
        <ele>276</ele>
        <time>2022-09-18T07:04:03.000Z</time>
      </trkpt>
      <trkpt lat="49.76516" lon="4.80533">
        <ele>276</ele>
        <time>2022-09-18T07:04:04.000Z</time>
      </trkpt>
      <trkpt lat="49.7652" lon="4.80529">
        <ele>276</ele>
        <time>2022-09-18T07:04:05.000Z</time>
      </trkpt>
      <trkpt lat="49.76524" lon="4.80526">
        <ele>276</ele>
        <time>2022-09-18T07:04:06.000Z</time>
      </trkpt>
      <trkpt lat="49.76529" lon="4.80524">
        <ele>276</ele>
        <time>2022-09-18T07:04:07.000Z</time>
      </trkpt>
      <trkpt lat="49.76533" lon="4.80522">
        <ele>277</ele>
        <time>2022-09-18T07:04:08.000Z</time>
      </trkpt>
      <trkpt lat="49.76538" lon="4.80522">
        <ele>277</ele>
        <time>2022-09-18T07:04:09.000Z</time>
      </trkpt>
      <trkpt lat="49.76542" lon="4.80521">
        <ele>277</ele>
        <time>2022-09-18T07:04:10.000Z</time>
      </trkpt>
      <trkpt lat="49.76546" lon="4.80521">
        <ele>277</ele>
        <time>2022-09-18T07:04:11.000Z</time>
      </trkpt>
      <trkpt lat="49.7655" lon="4.8052">
        <ele>277</ele>
        <time>2022-09-18T07:04:12.000Z</time>
      </trkpt>
      <trkpt lat="49.76554" lon="4.80519">
        <ele>277</ele>
        <time>2022-09-18T07:04:13.000Z</time>
      </trkpt>
      <trkpt lat="49.76557" lon="4.80518">
        <ele>277</ele>
        <time>2022-09-18T07:04:14.000Z</time>
      </trkpt>
      <trkpt lat="49.7656" lon="4.80517">
        <ele>277</ele>
        <time>2022-09-18T07:04:15.000Z</time>
      </trkpt>
      <trkpt lat="49.76563" lon="4.80516">
        <ele>277</ele>
        <time>2022-09-18T07:04:16.000Z</time>
      </trkpt>
      <trkpt lat="49.76567" lon="4.80514">
        <ele>277</ele>
        <time>2022-09-18T07:04:17.000Z</time>
      </trkpt>
      <trkpt lat="49.7657" lon="4.80512">
        <ele>277</ele>
        <time>2022-09-18T07:04:18.000Z</time>
      </trkpt>
      <trkpt lat="49.76573" lon="4.80511">
        <ele>277</ele>
        <time>2022-09-18T07:04:19.000Z</time>
      </trkpt>
      <trkpt lat="49.76575" lon="4.8051">
        <ele>277</ele>
        <time>2022-09-18T07:04:20.000Z</time>
      </trkpt>
      <trkpt lat="49.76578" lon="4.80509">
        <ele>277</ele>
        <time>2022-09-18T07:04:21.000Z</time>
      </trkpt>
      <trkpt lat="49.76581" lon="4.80508">
        <ele>277</ele>
        <time>2022-09-18T07:04:22.000Z</time>
      </trkpt>
      <trkpt lat="49.76585" lon="4.80506">
        <ele>277</ele>
        <time>2022-09-18T07:04:23.000Z</time>
      </trkpt>
      <trkpt lat="49.76588" lon="4.80504">
        <ele>278</ele>
        <time>2022-09-18T07:04:24.000Z</time>
      </trkpt>
      <trkpt lat="49.76591" lon="4.80503">
        <ele>278</ele>
        <time>2022-09-18T07:04:25.000Z</time>
      </trkpt>
      <trkpt lat="49.76593" lon="4.80502">
        <ele>278</ele>
        <time>2022-09-18T07:04:26.000Z</time>
      </trkpt>
      <trkpt lat="49.76595" lon="4.80501">
        <ele>278</ele>
        <time>2022-09-18T07:04:27.000Z</time>
      </trkpt>
      <trkpt lat="49.76597" lon="4.805">
        <ele>279</ele>
        <time>2022-09-18T07:04:28.000Z</time>
      </trkpt>
      <trkpt lat="49.766" lon="4.80499">
        <ele>279</ele>
        <time>2022-09-18T07:04:29.000Z</time>
      </trkpt>
      <trkpt lat="49.76602" lon="4.80498">
        <ele>279</ele>
        <time>2022-09-18T07:04:30.000Z</time>
      </trkpt>
      <trkpt lat="49.76605" lon="4.80496">
        <ele>279</ele>
        <time>2022-09-18T07:04:31.000Z</time>
      </trkpt>
      <trkpt lat="49.76608" lon="4.80496">
        <ele>279</ele>
        <time>2022-09-18T07:04:32.000Z</time>
      </trkpt>
      <trkpt lat="49.76611" lon="4.80496">
        <ele>279</ele>
        <time>2022-09-18T07:04:33.000Z</time>
      </trkpt>
      <trkpt lat="49.76614" lon="4.80495">
        <ele>279</ele>
        <time>2022-09-18T07:04:34.000Z</time>
      </trkpt>
      <trkpt lat="49.76618" lon="4.80494">
        <ele>280</ele>
        <time>2022-09-18T07:04:35.000Z</time>
      </trkpt>
      <trkpt lat="49.76622" lon="4.80494">
        <ele>280</ele>
        <time>2022-09-18T07:04:36.000Z</time>
      </trkpt>
      <trkpt lat="49.76625" lon="4.80493">
        <ele>280</ele>
        <time>2022-09-18T07:04:37.000Z</time>
      </trkpt>
      <trkpt lat="49.76629" lon="4.80492">
        <ele>280</ele>
        <time>2022-09-18T07:04:38.000Z</time>
      </trkpt>
      <trkpt lat="49.76633" lon="4.80491">
        <ele>280</ele>
        <time>2022-09-18T07:04:39.000Z</time>
      </trkpt>
      <trkpt lat="49.76636" lon="4.80489">
        <ele>281</ele>
        <time>2022-09-18T07:04:40.000Z</time>
      </trkpt>
      <trkpt lat="49.76641" lon="4.80488">
        <ele>281</ele>
        <time>2022-09-18T07:04:41.000Z</time>
      </trkpt>
      <trkpt lat="49.76645" lon="4.80487">
        <ele>281</ele>
        <time>2022-09-18T07:04:42.000Z</time>
      </trkpt>
      <trkpt lat="49.76649" lon="4.80486">
        <ele>281</ele>
        <time>2022-09-18T07:04:43.000Z</time>
      </trkpt>
      <trkpt lat="49.76653" lon="4.80485">
        <ele>281</ele>
        <time>2022-09-18T07:04:44.000Z</time>
      </trkpt>
      <trkpt lat="49.76657" lon="4.80485">
        <ele>281</ele>
        <time>2022-09-18T07:04:45.000Z</time>
      </trkpt>
      <trkpt lat="49.76662" lon="4.80485">
        <ele>281</ele>
        <time>2022-09-18T07:04:46.000Z</time>
      </trkpt>
      <trkpt lat="49.76666" lon="4.80485">
        <ele>281</ele>
        <time>2022-09-18T07:04:47.000Z</time>
      </trkpt>
      <trkpt lat="49.7667" lon="4.80484">
        <ele>282</ele>
        <time>2022-09-18T07:04:48.000Z</time>
      </trkpt>
      <trkpt lat="49.76674" lon="4.80485">
        <ele>282</ele>
        <time>2022-09-18T07:04:49.000Z</time>
      </trkpt>
      <trkpt lat="49.76677" lon="4.80485">
        <ele>282</ele>
        <time>2022-09-18T07:04:50.000Z</time>
      </trkpt>
      <trkpt lat="49.76681" lon="4.80486">
        <ele>282</ele>
        <time>2022-09-18T07:04:51.000Z</time>
      </trkpt>
      <trkpt lat="49.76684" lon="4.80485">
        <ele>282</ele>
        <time>2022-09-18T07:04:52.000Z</time>
      </trkpt>
      <trkpt lat="49.76688" lon="4.80484">
        <ele>283</ele>
        <time>2022-09-18T07:04:53.000Z</time>
      </trkpt>
      <trkpt lat="49.76691" lon="4.80483">
        <ele>283</ele>
        <time>2022-09-18T07:04:54.000Z</time>
      </trkpt>
      <trkpt lat="49.76695" lon="4.80482">
        <ele>283</ele>
        <time>2022-09-18T07:04:55.000Z</time>
      </trkpt>
      <trkpt lat="49.76699" lon="4.80481">
        <ele>283</ele>
        <time>2022-09-18T07:04:56.000Z</time>
      </trkpt>
      <trkpt lat="49.76703" lon="4.80479">
        <ele>283</ele>
        <time>2022-09-18T07:04:57.000Z</time>
      </trkpt>
      <trkpt lat="49.76707" lon="4.80477">
        <ele>283</ele>
        <time>2022-09-18T07:04:58.000Z</time>
      </trkpt>
      <trkpt lat="49.76711" lon="4.80476">
        <ele>283</ele>
        <time>2022-09-18T07:04:59.000Z</time>
      </trkpt>
      <trkpt lat="49.76714" lon="4.80475">
        <ele>283</ele>
        <time>2022-09-18T07:05:00.000Z</time>
      </trkpt>
      <trkpt lat="49.76718" lon="4.80474">
        <ele>283</ele>
        <time>2022-09-18T07:05:01.000Z</time>
      </trkpt>
      <trkpt lat="49.76722" lon="4.80472">
        <ele>283</ele>
        <time>2022-09-18T07:05:02.000Z</time>
      </trkpt>
      <trkpt lat="49.76727" lon="4.80471">
        <ele>283</ele>
        <time>2022-09-18T07:05:03.000Z</time>
      </trkpt>
      <trkpt lat="49.76731" lon="4.80469">
        <ele>284</ele>
        <time>2022-09-18T07:05:04.000Z</time>
      </trkpt>
      <trkpt lat="49.76735" lon="4.80468">
        <ele>284</ele>
        <time>2022-09-18T07:05:05.000Z</time>
      </trkpt>
      <trkpt lat="49.76739" lon="4.80467">
        <ele>284</ele>
        <time>2022-09-18T07:05:06.000Z</time>
      </trkpt>
      <trkpt lat="49.76743" lon="4.80465">
        <ele>284</ele>
        <time>2022-09-18T07:05:07.000Z</time>
      </trkpt>
      <trkpt lat="49.76747" lon="4.80464">
        <ele>284</ele>
        <time>2022-09-18T07:05:08.000Z</time>
      </trkpt>
      <trkpt lat="49.76751" lon="4.80463">
        <ele>284</ele>
        <time>2022-09-18T07:05:09.000Z</time>
      </trkpt>
      <trkpt lat="49.76756" lon="4.80463">
        <ele>284</ele>
        <time>2022-09-18T07:05:10.000Z</time>
      </trkpt>
      <trkpt lat="49.7676" lon="4.80463">
        <ele>284</ele>
        <time>2022-09-18T07:05:11.000Z</time>
      </trkpt>
      <trkpt lat="49.76764" lon="4.80462">
        <ele>284</ele>
        <time>2022-09-18T07:05:12.000Z</time>
      </trkpt>
      <trkpt lat="49.76769" lon="4.80461">
        <ele>284</ele>
        <time>2022-09-18T07:05:13.000Z</time>
      </trkpt>
      <trkpt lat="49.76773" lon="4.8046">
        <ele>284</ele>
        <time>2022-09-18T07:05:14.000Z</time>
      </trkpt>
      <trkpt lat="49.76777" lon="4.8046">
        <ele>284</ele>
        <time>2022-09-18T07:05:15.000Z</time>
      </trkpt>
      <trkpt lat="49.76781" lon="4.80458">
        <ele>284</ele>
        <time>2022-09-18T07:05:16.000Z</time>
      </trkpt>
      <trkpt lat="49.76785" lon="4.80456">
        <ele>284</ele>
        <time>2022-09-18T07:05:17.000Z</time>
      </trkpt>
      <trkpt lat="49.7679" lon="4.80454">
        <ele>284</ele>
        <time>2022-09-18T07:05:18.000Z</time>
      </trkpt>
      <trkpt lat="49.76794" lon="4.80453">
        <ele>284</ele>
        <time>2022-09-18T07:05:19.000Z</time>
      </trkpt>
      <trkpt lat="49.76798" lon="4.80451">
        <ele>285</ele>
        <time>2022-09-18T07:05:20.000Z</time>
      </trkpt>
      <trkpt lat="49.76802" lon="4.80449">
        <ele>285</ele>
        <time>2022-09-18T07:05:21.000Z</time>
      </trkpt>
      <trkpt lat="49.76806" lon="4.80448">
        <ele>285</ele>
        <time>2022-09-18T07:05:22.000Z</time>
      </trkpt>
      <trkpt lat="49.7681" lon="4.80446">
        <ele>285</ele>
        <time>2022-09-18T07:05:23.000Z</time>
      </trkpt>
      <trkpt lat="49.76814" lon="4.80444">
        <ele>285</ele>
        <time>2022-09-18T07:05:24.000Z</time>
      </trkpt>
      <trkpt lat="49.76817" lon="4.80441">
        <ele>285</ele>
        <time>2022-09-18T07:05:25.000Z</time>
      </trkpt>
      <trkpt lat="49.76821" lon="4.80439">
        <ele>285</ele>
        <time>2022-09-18T07:05:26.000Z</time>
      </trkpt>
      <trkpt lat="49.76825" lon="4.80436">
        <ele>285</ele>
        <time>2022-09-18T07:05:27.000Z</time>
      </trkpt>
      <trkpt lat="49.76829" lon="4.80433">
        <ele>285</ele>
        <time>2022-09-18T07:05:28.000Z</time>
      </trkpt>
      <trkpt lat="49.76833" lon="4.8043">
        <ele>285</ele>
        <time>2022-09-18T07:05:29.000Z</time>
      </trkpt>
      <trkpt lat="49.76836" lon="4.80426">
        <ele>285</ele>
        <time>2022-09-18T07:05:30.000Z</time>
      </trkpt>
      <trkpt lat="49.7684" lon="4.80423">
        <ele>284</ele>
        <time>2022-09-18T07:05:31.000Z</time>
      </trkpt>
      <trkpt lat="49.76843" lon="4.80419">
        <ele>284</ele>
        <time>2022-09-18T07:05:32.000Z</time>
      </trkpt>
      <trkpt lat="49.76847" lon="4.80416">
        <ele>284</ele>
        <time>2022-09-18T07:05:33.000Z</time>
      </trkpt>
      <trkpt lat="49.76851" lon="4.80413">
        <ele>284</ele>
        <time>2022-09-18T07:05:34.000Z</time>
      </trkpt>
      <trkpt lat="49.76855" lon="4.80411">
        <ele>284</ele>
        <time>2022-09-18T07:05:35.000Z</time>
      </trkpt>
      <trkpt lat="49.76859" lon="4.80408">
        <ele>284</ele>
        <time>2022-09-18T07:05:36.000Z</time>
      </trkpt>
      <trkpt lat="49.76863" lon="4.80406">
        <ele>284</ele>
        <time>2022-09-18T07:05:37.000Z</time>
      </trkpt>
      <trkpt lat="49.76867" lon="4.80403">
        <ele>283</ele>
        <time>2022-09-18T07:05:38.000Z</time>
      </trkpt>
      <trkpt lat="49.76871" lon="4.80401">
        <ele>283</ele>
        <time>2022-09-18T07:05:39.000Z</time>
      </trkpt>
      <trkpt lat="49.76875" lon="4.80399">
        <ele>283</ele>
        <time>2022-09-18T07:05:40.000Z</time>
      </trkpt>
      <trkpt lat="49.76878" lon="4.80397">
        <ele>283</ele>
        <time>2022-09-18T07:05:41.000Z</time>
      </trkpt>
      <trkpt lat="49.76882" lon="4.80395">
        <ele>283</ele>
        <time>2022-09-18T07:05:42.000Z</time>
      </trkpt>
      <trkpt lat="49.76886" lon="4.80393">
        <ele>283</ele>
        <time>2022-09-18T07:05:43.000Z</time>
      </trkpt>
      <trkpt lat="49.7689" lon="4.80391">
        <ele>283</ele>
        <time>2022-09-18T07:05:44.000Z</time>
      </trkpt>
      <trkpt lat="49.76894" lon="4.80388">
        <ele>283</ele>
        <time>2022-09-18T07:05:45.000Z</time>
      </trkpt>
      <trkpt lat="49.76897" lon="4.80385">
        <ele>283</ele>
        <time>2022-09-18T07:05:46.000Z</time>
      </trkpt>
      <trkpt lat="49.76901" lon="4.80381">
        <ele>283</ele>
        <time>2022-09-18T07:05:47.000Z</time>
      </trkpt>
      <trkpt lat="49.76904" lon="4.80377">
        <ele>283</ele>
        <time>2022-09-18T07:05:48.000Z</time>
      </trkpt>
      <trkpt lat="49.76908" lon="4.80373">
        <ele>283</ele>
        <time>2022-09-18T07:05:49.000Z</time>
      </trkpt>
      <trkpt lat="49.76912" lon="4.80368">
        <ele>283</ele>
        <time>2022-09-18T07:05:50.000Z</time>
      </trkpt>
      <trkpt lat="49.76915" lon="4.80362">
        <ele>283</ele>
        <time>2022-09-18T07:05:51.000Z</time>
      </trkpt>
      <trkpt lat="49.76918" lon="4.80358">
        <ele>283</ele>
        <time>2022-09-18T07:05:52.000Z</time>
      </trkpt>
      <trkpt lat="49.76921" lon="4.80353">
        <ele>283</ele>
        <time>2022-09-18T07:05:53.000Z</time>
      </trkpt>
      <trkpt lat="49.76924" lon="4.80349">
        <ele>283</ele>
        <time>2022-09-18T07:05:54.000Z</time>
      </trkpt>
      <trkpt lat="49.76928" lon="4.80345">
        <ele>284</ele>
        <time>2022-09-18T07:05:55.000Z</time>
      </trkpt>
      <trkpt lat="49.76931" lon="4.80341">
        <ele>284</ele>
        <time>2022-09-18T07:05:56.000Z</time>
      </trkpt>
      <trkpt lat="49.76935" lon="4.80337">
        <ele>284</ele>
        <time>2022-09-18T07:05:57.000Z</time>
      </trkpt>
      <trkpt lat="49.76939" lon="4.80334">
        <ele>284</ele>
        <time>2022-09-18T07:05:58.000Z</time>
      </trkpt>
      <trkpt lat="49.76942" lon="4.80331">
        <ele>284</ele>
        <time>2022-09-18T07:05:59.000Z</time>
      </trkpt>
      <trkpt lat="49.76945" lon="4.80328">
        <ele>284</ele>
        <time>2022-09-18T07:06:00.000Z</time>
      </trkpt>
      <trkpt lat="49.76948" lon="4.80325">
        <ele>284</ele>
        <time>2022-09-18T07:06:01.000Z</time>
      </trkpt>
      <trkpt lat="49.7695" lon="4.80322">
        <ele>284</ele>
        <time>2022-09-18T07:06:02.000Z</time>
      </trkpt>
      <trkpt lat="49.76952" lon="4.80319">
        <ele>284</ele>
        <time>2022-09-18T07:06:03.000Z</time>
      </trkpt>
      <trkpt lat="49.76955" lon="4.80316">
        <ele>284</ele>
        <time>2022-09-18T07:06:04.000Z</time>
      </trkpt>
      <trkpt lat="49.76957" lon="4.80313">
        <ele>284</ele>
        <time>2022-09-18T07:06:05.000Z</time>
      </trkpt>
      <trkpt lat="49.76959" lon="4.8031">
        <ele>285</ele>
        <time>2022-09-18T07:06:06.000Z</time>
      </trkpt>
      <trkpt lat="49.76961" lon="4.80306">
        <ele>285</ele>
        <time>2022-09-18T07:06:07.000Z</time>
      </trkpt>
      <trkpt lat="49.76963" lon="4.80302">
        <ele>285</ele>
        <time>2022-09-18T07:06:08.000Z</time>
      </trkpt>
      <trkpt lat="49.76966" lon="4.80299">
        <ele>285</ele>
        <time>2022-09-18T07:06:09.000Z</time>
      </trkpt>
      <trkpt lat="49.76968" lon="4.80296">
        <ele>285</ele>
        <time>2022-09-18T07:06:10.000Z</time>
      </trkpt>
      <trkpt lat="49.7697" lon="4.80293">
        <ele>285</ele>
        <time>2022-09-18T07:06:11.000Z</time>
      </trkpt>
      <trkpt lat="49.76972" lon="4.8029">
        <ele>285</ele>
        <time>2022-09-18T07:06:12.000Z</time>
      </trkpt>
      <trkpt lat="49.76973" lon="4.80286">
        <ele>285</ele>
        <time>2022-09-18T07:06:13.000Z</time>
      </trkpt>
      <trkpt lat="49.76975" lon="4.80283">
        <ele>285</ele>
        <time>2022-09-18T07:06:14.000Z</time>
      </trkpt>
      <trkpt lat="49.76977" lon="4.8028">
        <ele>286</ele>
        <time>2022-09-18T07:06:15.000Z</time>
      </trkpt>
      <trkpt lat="49.76978" lon="4.80277">
        <ele>286</ele>
        <time>2022-09-18T07:06:16.000Z</time>
      </trkpt>
      <trkpt lat="49.7698" lon="4.80274">
        <ele>286</ele>
        <time>2022-09-18T07:06:17.000Z</time>
      </trkpt>
      <trkpt lat="49.76982" lon="4.80271">
        <ele>286</ele>
        <time>2022-09-18T07:06:18.000Z</time>
      </trkpt>
      <trkpt lat="49.76984" lon="4.80268">
        <ele>286</ele>
        <time>2022-09-18T07:06:19.000Z</time>
      </trkpt>
      <trkpt lat="49.76986" lon="4.80265">
        <ele>287</ele>
        <time>2022-09-18T07:06:20.000Z</time>
      </trkpt>
      <trkpt lat="49.76989" lon="4.80262">
        <ele>287</ele>
        <time>2022-09-18T07:06:21.000Z</time>
      </trkpt>
      <trkpt lat="49.76991" lon="4.80259">
        <ele>287</ele>
        <time>2022-09-18T07:06:22.000Z</time>
      </trkpt>
      <trkpt lat="49.76994" lon="4.80257">
        <ele>288</ele>
        <time>2022-09-18T07:06:23.000Z</time>
      </trkpt>
      <trkpt lat="49.76997" lon="4.80255">
        <ele>288</ele>
        <time>2022-09-18T07:06:24.000Z</time>
      </trkpt>
      <trkpt lat="49.77" lon="4.80252">
        <ele>288</ele>
        <time>2022-09-18T07:06:25.000Z</time>
      </trkpt>
      <trkpt lat="49.77003" lon="4.80249">
        <ele>289</ele>
        <time>2022-09-18T07:06:26.000Z</time>
      </trkpt>
      <trkpt lat="49.77006" lon="4.80246">
        <ele>289</ele>
        <time>2022-09-18T07:06:27.000Z</time>
      </trkpt>
      <trkpt lat="49.77008" lon="4.80243">
        <ele>290</ele>
        <time>2022-09-18T07:06:28.000Z</time>
      </trkpt>
      <trkpt lat="49.77011" lon="4.80239">
        <ele>290</ele>
        <time>2022-09-18T07:06:29.000Z</time>
      </trkpt>
      <trkpt lat="49.77013" lon="4.80236">
        <ele>290</ele>
        <time>2022-09-18T07:06:30.000Z</time>
      </trkpt>
      <trkpt lat="49.77017" lon="4.80233">
        <ele>291</ele>
        <time>2022-09-18T07:06:31.000Z</time>
      </trkpt>
      <trkpt lat="49.77019" lon="4.8023">
        <ele>291</ele>
        <time>2022-09-18T07:06:32.000Z</time>
      </trkpt>
      <trkpt lat="49.77022" lon="4.80227">
        <ele>291</ele>
        <time>2022-09-18T07:06:33.000Z</time>
      </trkpt>
      <trkpt lat="49.77025" lon="4.80224">
        <ele>291</ele>
        <time>2022-09-18T07:06:34.000Z</time>
      </trkpt>
      <trkpt lat="49.77028" lon="4.80221">
        <ele>292</ele>
        <time>2022-09-18T07:06:35.000Z</time>
      </trkpt>
      <trkpt lat="49.77031" lon="4.80218">
        <ele>292</ele>
        <time>2022-09-18T07:06:36.000Z</time>
      </trkpt>
      <trkpt lat="49.77033" lon="4.80216">
        <ele>292</ele>
        <time>2022-09-18T07:06:37.000Z</time>
      </trkpt>
      <trkpt lat="49.77035" lon="4.80214">
        <ele>292</ele>
        <time>2022-09-18T07:06:38.000Z</time>
      </trkpt>
      <trkpt lat="49.77037" lon="4.80211">
        <ele>292</ele>
        <time>2022-09-18T07:06:39.000Z</time>
      </trkpt>
      <trkpt lat="49.7704" lon="4.80209">
        <ele>293</ele>
        <time>2022-09-18T07:06:40.000Z</time>
      </trkpt>
      <trkpt lat="49.77043" lon="4.80206">
        <ele>293</ele>
        <time>2022-09-18T07:06:41.000Z</time>
      </trkpt>
      <trkpt lat="49.77046" lon="4.80203">
        <ele>293</ele>
        <time>2022-09-18T07:06:42.000Z</time>
      </trkpt>
      <trkpt lat="49.77048" lon="4.802">
        <ele>293</ele>
        <time>2022-09-18T07:06:43.000Z</time>
      </trkpt>
      <trkpt lat="49.7705" lon="4.80195">
        <ele>293</ele>
        <time>2022-09-18T07:06:44.000Z</time>
      </trkpt>
      <trkpt lat="49.77052" lon="4.80191">
        <ele>294</ele>
        <time>2022-09-18T07:06:45.000Z</time>
      </trkpt>
      <trkpt lat="49.77055" lon="4.80186">
        <ele>294</ele>
        <time>2022-09-18T07:06:46.000Z</time>
      </trkpt>
      <trkpt lat="49.77057" lon="4.80182">
        <ele>294</ele>
        <time>2022-09-18T07:06:47.000Z</time>
      </trkpt>
      <trkpt lat="49.7706" lon="4.80177">
        <ele>294</ele>
        <time>2022-09-18T07:06:48.000Z</time>
      </trkpt>
      <trkpt lat="49.77062" lon="4.80173">
        <ele>294</ele>
        <time>2022-09-18T07:06:49.000Z</time>
      </trkpt>
      <trkpt lat="49.77065" lon="4.80168">
        <ele>294</ele>
        <time>2022-09-18T07:06:50.000Z</time>
      </trkpt>
      <trkpt lat="49.77068" lon="4.80164">
        <ele>294</ele>
        <time>2022-09-18T07:06:51.000Z</time>
      </trkpt>
      <trkpt lat="49.7707" lon="4.80161">
        <ele>295</ele>
        <time>2022-09-18T07:06:52.000Z</time>
      </trkpt>
      <trkpt lat="49.77074" lon="4.80159">
        <ele>295</ele>
        <time>2022-09-18T07:06:53.000Z</time>
      </trkpt>
      <trkpt lat="49.77077" lon="4.80159">
        <ele>295</ele>
        <time>2022-09-18T07:06:54.000Z</time>
      </trkpt>
      <trkpt lat="49.77081" lon="4.8016">
        <ele>295</ele>
        <time>2022-09-18T07:06:55.000Z</time>
      </trkpt>
      <trkpt lat="49.77084" lon="4.80162">
        <ele>295</ele>
        <time>2022-09-18T07:06:56.000Z</time>
      </trkpt>
      <trkpt lat="49.77088" lon="4.80164">
        <ele>295</ele>
        <time>2022-09-18T07:06:57.000Z</time>
      </trkpt>
      <trkpt lat="49.77092" lon="4.80167">
        <ele>296</ele>
        <time>2022-09-18T07:06:58.000Z</time>
      </trkpt>
      <trkpt lat="49.77095" lon="4.8017">
        <ele>296</ele>
        <time>2022-09-18T07:06:59.000Z</time>
      </trkpt>
      <trkpt lat="49.77098" lon="4.80173">
        <ele>296</ele>
        <time>2022-09-18T07:07:00.000Z</time>
      </trkpt>
      <trkpt lat="49.77101" lon="4.80176">
        <ele>296</ele>
        <time>2022-09-18T07:07:01.000Z</time>
      </trkpt>
      <trkpt lat="49.77105" lon="4.80178">
        <ele>296</ele>
        <time>2022-09-18T07:07:02.000Z</time>
      </trkpt>
      <trkpt lat="49.77108" lon="4.8018">
        <ele>296</ele>
        <time>2022-09-18T07:07:03.000Z</time>
      </trkpt>
      <trkpt lat="49.77111" lon="4.80181">
        <ele>296</ele>
        <time>2022-09-18T07:07:04.000Z</time>
      </trkpt>
      <trkpt lat="49.77114" lon="4.80181">
        <ele>296</ele>
        <time>2022-09-18T07:07:05.000Z</time>
      </trkpt>
      <trkpt lat="49.77117" lon="4.8018">
        <ele>296</ele>
        <time>2022-09-18T07:07:06.000Z</time>
      </trkpt>
      <trkpt lat="49.7712" lon="4.80179">
        <ele>296</ele>
        <time>2022-09-18T07:07:07.000Z</time>
      </trkpt>
      <trkpt lat="49.77124" lon="4.80179">
        <ele>296</ele>
        <time>2022-09-18T07:07:08.000Z</time>
      </trkpt>
      <trkpt lat="49.77128" lon="4.80178">
        <ele>296</ele>
        <time>2022-09-18T07:07:09.000Z</time>
      </trkpt>
      <trkpt lat="49.77131" lon="4.80177">
        <ele>296</ele>
        <time>2022-09-18T07:07:10.000Z</time>
      </trkpt>
      <trkpt lat="49.77135" lon="4.80176">
        <ele>296</ele>
        <time>2022-09-18T07:07:11.000Z</time>
      </trkpt>
      <trkpt lat="49.77139" lon="4.80175">
        <ele>296</ele>
        <time>2022-09-18T07:07:12.000Z</time>
      </trkpt>
      <trkpt lat="49.77142" lon="4.80174">
        <ele>296</ele>
        <time>2022-09-18T07:07:13.000Z</time>
      </trkpt>
      <trkpt lat="49.77146" lon="4.80172">
        <ele>296</ele>
        <time>2022-09-18T07:07:14.000Z</time>
      </trkpt>
      <trkpt lat="49.7715" lon="4.80171">
        <ele>296</ele>
        <time>2022-09-18T07:07:15.000Z</time>
      </trkpt>
      <trkpt lat="49.77154" lon="4.80171">
        <ele>296</ele>
        <time>2022-09-18T07:07:16.000Z</time>
      </trkpt>
      <trkpt lat="49.77158" lon="4.80172">
        <ele>296</ele>
        <time>2022-09-18T07:07:17.000Z</time>
      </trkpt>
      <trkpt lat="49.77162" lon="4.80173">
        <ele>296</ele>
        <time>2022-09-18T07:07:18.000Z</time>
      </trkpt>
      <trkpt lat="49.77167" lon="4.80173">
        <ele>296</ele>
        <time>2022-09-18T07:07:19.000Z</time>
      </trkpt>
      <trkpt lat="49.77172" lon="4.80173">
        <ele>296</ele>
        <time>2022-09-18T07:07:20.000Z</time>
      </trkpt>
      <trkpt lat="49.77177" lon="4.80173">
        <ele>296</ele>
        <time>2022-09-18T07:07:21.000Z</time>
      </trkpt>
      <trkpt lat="49.77182" lon="4.80172">
        <ele>296</ele>
        <time>2022-09-18T07:07:22.000Z</time>
      </trkpt>
      <trkpt lat="49.77188" lon="4.80171">
        <ele>296</ele>
        <time>2022-09-18T07:07:23.000Z</time>
      </trkpt>
      <trkpt lat="49.77193" lon="4.80171">
        <ele>296</ele>
        <time>2022-09-18T07:07:24.000Z</time>
      </trkpt>
      <trkpt lat="49.77198" lon="4.8017">
        <ele>296</ele>
        <time>2022-09-18T07:07:25.000Z</time>
      </trkpt>
      <trkpt lat="49.77204" lon="4.80169">
        <ele>296</ele>
        <time>2022-09-18T07:07:26.000Z</time>
      </trkpt>
      <trkpt lat="49.77209" lon="4.80169">
        <ele>296</ele>
        <time>2022-09-18T07:07:27.000Z</time>
      </trkpt>
      <trkpt lat="49.77215" lon="4.80168">
        <ele>296</ele>
        <time>2022-09-18T07:07:28.000Z</time>
      </trkpt>
      <trkpt lat="49.7722" lon="4.80167">
        <ele>296</ele>
        <time>2022-09-18T07:07:29.000Z</time>
      </trkpt>
      <trkpt lat="49.77226" lon="4.80166">
        <ele>296</ele>
        <time>2022-09-18T07:07:30.000Z</time>
      </trkpt>
      <trkpt lat="49.77232" lon="4.80165">
        <ele>295</ele>
        <time>2022-09-18T07:07:31.000Z</time>
      </trkpt>
      <trkpt lat="49.77237" lon="4.80164">
        <ele>295</ele>
        <time>2022-09-18T07:07:32.000Z</time>
      </trkpt>
      <trkpt lat="49.77243" lon="4.80163">
        <ele>295</ele>
        <time>2022-09-18T07:07:33.000Z</time>
      </trkpt>
      <trkpt lat="49.77249" lon="4.80162">
        <ele>295</ele>
        <time>2022-09-18T07:07:34.000Z</time>
      </trkpt>
      <trkpt lat="49.77255" lon="4.80162">
        <ele>295</ele>
        <time>2022-09-18T07:07:35.000Z</time>
      </trkpt>
      <trkpt lat="49.77261" lon="4.80161">
        <ele>295</ele>
        <time>2022-09-18T07:07:36.000Z</time>
      </trkpt>
      <trkpt lat="49.77267" lon="4.8016">
        <ele>295</ele>
        <time>2022-09-18T07:07:37.000Z</time>
      </trkpt>
      <trkpt lat="49.77273" lon="4.80159">
        <ele>294</ele>
        <time>2022-09-18T07:07:38.000Z</time>
      </trkpt>
      <trkpt lat="49.77279" lon="4.80158">
        <ele>294</ele>
        <time>2022-09-18T07:07:39.000Z</time>
      </trkpt>
      <trkpt lat="49.77284" lon="4.80157">
        <ele>294</ele>
        <time>2022-09-18T07:07:40.000Z</time>
      </trkpt>
      <trkpt lat="49.7729" lon="4.80156">
        <ele>294</ele>
        <time>2022-09-18T07:07:41.000Z</time>
      </trkpt>
      <trkpt lat="49.77296" lon="4.80155">
        <ele>294</ele>
        <time>2022-09-18T07:07:42.000Z</time>
      </trkpt>
      <trkpt lat="49.77301" lon="4.80154">
        <ele>293</ele>
        <time>2022-09-18T07:07:43.000Z</time>
      </trkpt>
      <trkpt lat="49.77307" lon="4.80152">
        <ele>293</ele>
        <time>2022-09-18T07:07:44.000Z</time>
      </trkpt>
      <trkpt lat="49.77313" lon="4.80151">
        <ele>293</ele>
        <time>2022-09-18T07:07:45.000Z</time>
      </trkpt>
      <trkpt lat="49.77319" lon="4.80149">
        <ele>293</ele>
        <time>2022-09-18T07:07:46.000Z</time>
      </trkpt>
      <trkpt lat="49.77325" lon="4.80146">
        <ele>292</ele>
        <time>2022-09-18T07:07:47.000Z</time>
      </trkpt>
      <trkpt lat="49.77331" lon="4.80144">
        <ele>292</ele>
        <time>2022-09-18T07:07:48.000Z</time>
      </trkpt>
      <trkpt lat="49.77336" lon="4.80141">
        <ele>292</ele>
        <time>2022-09-18T07:07:49.000Z</time>
      </trkpt>
      <trkpt lat="49.77342" lon="4.80137">
        <ele>292</ele>
        <time>2022-09-18T07:07:50.000Z</time>
      </trkpt>
      <trkpt lat="49.77348" lon="4.80134">
        <ele>292</ele>
        <time>2022-09-18T07:07:51.000Z</time>
      </trkpt>
      <trkpt lat="49.77353" lon="4.8013">
        <ele>292</ele>
        <time>2022-09-18T07:07:52.000Z</time>
      </trkpt>
      <trkpt lat="49.77358" lon="4.80124">
        <ele>292</ele>
        <time>2022-09-18T07:07:53.000Z</time>
      </trkpt>
      <trkpt lat="49.77362" lon="4.80118">
        <ele>292</ele>
        <time>2022-09-18T07:07:54.000Z</time>
      </trkpt>
      <trkpt lat="49.77367" lon="4.80112">
        <ele>292</ele>
        <time>2022-09-18T07:07:55.000Z</time>
      </trkpt>
      <trkpt lat="49.77371" lon="4.80106">
        <ele>292</ele>
        <time>2022-09-18T07:07:56.000Z</time>
      </trkpt>
      <trkpt lat="49.77376" lon="4.801">
        <ele>291</ele>
        <time>2022-09-18T07:07:57.000Z</time>
      </trkpt>
      <trkpt lat="49.7738" lon="4.80093">
        <ele>291</ele>
        <time>2022-09-18T07:07:58.000Z</time>
      </trkpt>
      <trkpt lat="49.77384" lon="4.80085">
        <ele>291</ele>
        <time>2022-09-18T07:07:59.000Z</time>
      </trkpt>
      <trkpt lat="49.77389" lon="4.80078">
        <ele>290</ele>
        <time>2022-09-18T07:08:00.000Z</time>
      </trkpt>
      <trkpt lat="49.77393" lon="4.80071">
        <ele>290</ele>
        <time>2022-09-18T07:08:01.000Z</time>
      </trkpt>
      <trkpt lat="49.77398" lon="4.80062">
        <ele>289</ele>
        <time>2022-09-18T07:08:02.000Z</time>
      </trkpt>
      <trkpt lat="49.77402" lon="4.80053">
        <ele>289</ele>
        <time>2022-09-18T07:08:03.000Z</time>
      </trkpt>
      <trkpt lat="49.77407" lon="4.80045">
        <ele>288</ele>
        <time>2022-09-18T07:08:04.000Z</time>
      </trkpt>
      <trkpt lat="49.77413" lon="4.8004">
        <ele>288</ele>
        <time>2022-09-18T07:08:05.000Z</time>
      </trkpt>
      <trkpt lat="49.77419" lon="4.80038">
        <ele>288</ele>
        <time>2022-09-18T07:08:06.000Z</time>
      </trkpt>
      <trkpt lat="49.77426" lon="4.80038">
        <ele>287</ele>
        <time>2022-09-18T07:08:07.000Z</time>
      </trkpt>
      <trkpt lat="49.77434" lon="4.80038">
        <ele>287</ele>
        <time>2022-09-18T07:08:08.000Z</time>
      </trkpt>
      <trkpt lat="49.77441" lon="4.80037">
        <ele>287</ele>
        <time>2022-09-18T07:08:09.000Z</time>
      </trkpt>
      <trkpt lat="49.77449" lon="4.80036">
        <ele>286</ele>
        <time>2022-09-18T07:08:10.000Z</time>
      </trkpt>
      <trkpt lat="49.77457" lon="4.80033">
        <ele>286</ele>
        <time>2022-09-18T07:08:11.000Z</time>
      </trkpt>
      <trkpt lat="49.77465" lon="4.80028">
        <ele>285</ele>
        <time>2022-09-18T07:08:12.000Z</time>
      </trkpt>
      <trkpt lat="49.77473" lon="4.80022">
        <ele>284</ele>
        <time>2022-09-18T07:08:13.000Z</time>
      </trkpt>
      <trkpt lat="49.77481" lon="4.80016">
        <ele>283</ele>
        <time>2022-09-18T07:08:14.000Z</time>
      </trkpt>
      <trkpt lat="49.77489" lon="4.8001">
        <ele>281</ele>
        <time>2022-09-18T07:08:15.000Z</time>
      </trkpt>
      <trkpt lat="49.77497" lon="4.80004">
        <ele>280</ele>
        <time>2022-09-18T07:08:16.000Z</time>
      </trkpt>
      <trkpt lat="49.77505" lon="4.79999">
        <ele>279</ele>
        <time>2022-09-18T07:08:17.000Z</time>
      </trkpt>
      <trkpt lat="49.77514" lon="4.79995">
        <ele>277</ele>
        <time>2022-09-18T07:08:18.000Z</time>
      </trkpt>
      <trkpt lat="49.77524" lon="4.79992">
        <ele>276</ele>
        <time>2022-09-18T07:08:19.000Z</time>
      </trkpt>
      <trkpt lat="49.77533" lon="4.7999">
        <ele>274</ele>
        <time>2022-09-18T07:08:20.000Z</time>
      </trkpt>
      <trkpt lat="49.77543" lon="4.79989">
        <ele>273</ele>
        <time>2022-09-18T07:08:21.000Z</time>
      </trkpt>
      <trkpt lat="49.77552" lon="4.79987">
        <ele>272</ele>
        <time>2022-09-18T07:08:22.000Z</time>
      </trkpt>
      <trkpt lat="49.77562" lon="4.79986">
        <ele>271</ele>
        <time>2022-09-18T07:08:23.000Z</time>
      </trkpt>
      <trkpt lat="49.77571" lon="4.79985">
        <ele>270</ele>
        <time>2022-09-18T07:08:24.000Z</time>
      </trkpt>
      <trkpt lat="49.7758" lon="4.79983">
        <ele>269</ele>
        <time>2022-09-18T07:08:25.000Z</time>
      </trkpt>
      <trkpt lat="49.77589" lon="4.79982">
        <ele>268</ele>
        <time>2022-09-18T07:08:26.000Z</time>
      </trkpt>
      <trkpt lat="49.77598" lon="4.79981">
        <ele>268</ele>
        <time>2022-09-18T07:08:27.000Z</time>
      </trkpt>
      <trkpt lat="49.77607" lon="4.7998">
        <ele>267</ele>
        <time>2022-09-18T07:08:28.000Z</time>
      </trkpt>
      <trkpt lat="49.77615" lon="4.79979">
        <ele>266</ele>
        <time>2022-09-18T07:08:29.000Z</time>
      </trkpt>
      <trkpt lat="49.77623" lon="4.79977">
        <ele>266</ele>
        <time>2022-09-18T07:08:30.000Z</time>
      </trkpt>
      <trkpt lat="49.7763" lon="4.79975">
        <ele>266</ele>
        <time>2022-09-18T07:08:31.000Z</time>
      </trkpt>
      <trkpt lat="49.77637" lon="4.79972">
        <ele>266</ele>
        <time>2022-09-18T07:08:32.000Z</time>
      </trkpt>
      <trkpt lat="49.77643" lon="4.79969">
        <ele>265</ele>
        <time>2022-09-18T07:08:33.000Z</time>
      </trkpt>
      <trkpt lat="49.77649" lon="4.79965">
        <ele>265</ele>
        <time>2022-09-18T07:08:34.000Z</time>
      </trkpt>
      <trkpt lat="49.77655" lon="4.7996">
        <ele>265</ele>
        <time>2022-09-18T07:08:35.000Z</time>
      </trkpt>
      <trkpt lat="49.77661" lon="4.79955">
        <ele>265</ele>
        <time>2022-09-18T07:08:36.000Z</time>
      </trkpt>
      <trkpt lat="49.77667" lon="4.79951">
        <ele>264</ele>
        <time>2022-09-18T07:08:37.000Z</time>
      </trkpt>
      <trkpt lat="49.77672" lon="4.79945">
        <ele>264</ele>
        <time>2022-09-18T07:08:38.000Z</time>
      </trkpt>
      <trkpt lat="49.77678" lon="4.79939">
        <ele>264</ele>
        <time>2022-09-18T07:08:39.000Z</time>
      </trkpt>
      <trkpt lat="49.77683" lon="4.79933">
        <ele>263</ele>
        <time>2022-09-18T07:08:40.000Z</time>
      </trkpt>
      <trkpt lat="49.77689" lon="4.79926">
        <ele>263</ele>
        <time>2022-09-18T07:08:41.000Z</time>
      </trkpt>
      <trkpt lat="49.77694" lon="4.7992">
        <ele>263</ele>
        <time>2022-09-18T07:08:42.000Z</time>
      </trkpt>
      <trkpt lat="49.77699" lon="4.79913">
        <ele>263</ele>
        <time>2022-09-18T07:08:43.000Z</time>
      </trkpt>
      <trkpt lat="49.77704" lon="4.79908">
        <ele>262</ele>
        <time>2022-09-18T07:08:44.000Z</time>
      </trkpt>
      <trkpt lat="49.7771" lon="4.79902">
        <ele>262</ele>
        <time>2022-09-18T07:08:45.000Z</time>
      </trkpt>
      <trkpt lat="49.77715" lon="4.79897">
        <ele>262</ele>
        <time>2022-09-18T07:08:46.000Z</time>
      </trkpt>
      <trkpt lat="49.7772" lon="4.79892">
        <ele>262</ele>
        <time>2022-09-18T07:08:47.000Z</time>
      </trkpt>
      <trkpt lat="49.77725" lon="4.79888">
        <ele>262</ele>
        <time>2022-09-18T07:08:48.000Z</time>
      </trkpt>
      <trkpt lat="49.77731" lon="4.79883">
        <ele>261</ele>
        <time>2022-09-18T07:08:49.000Z</time>
      </trkpt>
      <trkpt lat="49.77736" lon="4.79879">
        <ele>261</ele>
        <time>2022-09-18T07:08:50.000Z</time>
      </trkpt>
      <trkpt lat="49.77741" lon="4.79875">
        <ele>261</ele>
        <time>2022-09-18T07:08:51.000Z</time>
      </trkpt>
      <trkpt lat="49.77747" lon="4.79871">
        <ele>261</ele>
        <time>2022-09-18T07:08:52.000Z</time>
      </trkpt>
      <trkpt lat="49.77752" lon="4.79867">
        <ele>261</ele>
        <time>2022-09-18T07:08:53.000Z</time>
      </trkpt>
      <trkpt lat="49.77758" lon="4.79862">
        <ele>261</ele>
        <time>2022-09-18T07:08:54.000Z</time>
      </trkpt>
      <trkpt lat="49.77763" lon="4.79858">
        <ele>261</ele>
        <time>2022-09-18T07:08:55.000Z</time>
      </trkpt>
      <trkpt lat="49.77768" lon="4.79853">
        <ele>260</ele>
        <time>2022-09-18T07:08:56.000Z</time>
      </trkpt>
      <trkpt lat="49.77774" lon="4.79848">
        <ele>260</ele>
        <time>2022-09-18T07:08:57.000Z</time>
      </trkpt>
      <trkpt lat="49.77779" lon="4.79843">
        <ele>260</ele>
        <time>2022-09-18T07:08:58.000Z</time>
      </trkpt>
      <trkpt lat="49.77783" lon="4.79837">
        <ele>260</ele>
        <time>2022-09-18T07:08:59.000Z</time>
      </trkpt>
      <trkpt lat="49.77788" lon="4.79832">
        <ele>260</ele>
        <time>2022-09-18T07:09:00.000Z</time>
      </trkpt>
      <trkpt lat="49.77792" lon="4.79827">
        <ele>260</ele>
        <time>2022-09-18T07:09:01.000Z</time>
      </trkpt>
      <trkpt lat="49.77796" lon="4.79822">
        <ele>260</ele>
        <time>2022-09-18T07:09:02.000Z</time>
      </trkpt>
      <trkpt lat="49.778" lon="4.79818">
        <ele>260</ele>
        <time>2022-09-18T07:09:03.000Z</time>
      </trkpt>
      <trkpt lat="49.77805" lon="4.79815">
        <ele>260</ele>
        <time>2022-09-18T07:09:04.000Z</time>
      </trkpt>
      <trkpt lat="49.7781" lon="4.7981">
        <ele>260</ele>
        <time>2022-09-18T07:09:05.000Z</time>
      </trkpt>
      <trkpt lat="49.77814" lon="4.79806">
        <ele>260</ele>
        <time>2022-09-18T07:09:06.000Z</time>
      </trkpt>
      <trkpt lat="49.77819" lon="4.79804">
        <ele>260</ele>
        <time>2022-09-18T07:09:07.000Z</time>
      </trkpt>
      <trkpt lat="49.77823" lon="4.79802">
        <ele>260</ele>
        <time>2022-09-18T07:09:08.000Z</time>
      </trkpt>
      <trkpt lat="49.77826" lon="4.79801">
        <ele>260</ele>
        <time>2022-09-18T07:09:09.000Z</time>
      </trkpt>
      <trkpt lat="49.7783" lon="4.798">
        <ele>260</ele>
        <time>2022-09-18T07:09:10.000Z</time>
      </trkpt>
      <trkpt lat="49.77834" lon="4.79797">
        <ele>260</ele>
        <time>2022-09-18T07:09:11.000Z</time>
      </trkpt>
      <trkpt lat="49.77839" lon="4.79794">
        <ele>260</ele>
        <time>2022-09-18T07:09:12.000Z</time>
      </trkpt>
      <trkpt lat="49.77844" lon="4.7979">
        <ele>260</ele>
        <time>2022-09-18T07:09:13.000Z</time>
      </trkpt>
      <trkpt lat="49.7785" lon="4.79785">
        <ele>260</ele>
        <time>2022-09-18T07:09:14.000Z</time>
      </trkpt>
      <trkpt lat="49.77856" lon="4.7978">
        <ele>260</ele>
        <time>2022-09-18T07:09:15.000Z</time>
      </trkpt>
      <trkpt lat="49.77863" lon="4.79775">
        <ele>260</ele>
        <time>2022-09-18T07:09:16.000Z</time>
      </trkpt>
      <trkpt lat="49.77869" lon="4.79771">
        <ele>260</ele>
        <time>2022-09-18T07:09:17.000Z</time>
      </trkpt>
      <trkpt lat="49.77876" lon="4.79766">
        <ele>260</ele>
        <time>2022-09-18T07:09:18.000Z</time>
      </trkpt>
      <trkpt lat="49.77882" lon="4.79761">
        <ele>259</ele>
        <time>2022-09-18T07:09:19.000Z</time>
      </trkpt>
      <trkpt lat="49.77888" lon="4.79755">
        <ele>259</ele>
        <time>2022-09-18T07:09:20.000Z</time>
      </trkpt>
      <trkpt lat="49.77895" lon="4.7975">
        <ele>259</ele>
        <time>2022-09-18T07:09:21.000Z</time>
      </trkpt>
      <trkpt lat="49.77902" lon="4.79745">
        <ele>259</ele>
        <time>2022-09-18T07:09:22.000Z</time>
      </trkpt>
      <trkpt lat="49.77909" lon="4.79741">
        <ele>258</ele>
        <time>2022-09-18T07:09:23.000Z</time>
      </trkpt>
      <trkpt lat="49.77916" lon="4.79738">
        <ele>258</ele>
        <time>2022-09-18T07:09:24.000Z</time>
      </trkpt>
      <trkpt lat="49.77925" lon="4.79735">
        <ele>258</ele>
        <time>2022-09-18T07:09:25.000Z</time>
      </trkpt>
      <trkpt lat="49.77933" lon="4.79732">
        <ele>257</ele>
        <time>2022-09-18T07:09:26.000Z</time>
      </trkpt>
      <trkpt lat="49.77941" lon="4.7973">
        <ele>257</ele>
        <time>2022-09-18T07:09:27.000Z</time>
      </trkpt>
      <trkpt lat="49.77949" lon="4.79729">
        <ele>256</ele>
        <time>2022-09-18T07:09:28.000Z</time>
      </trkpt>
      <trkpt lat="49.77957" lon="4.79728">
        <ele>256</ele>
        <time>2022-09-18T07:09:29.000Z</time>
      </trkpt>
      <trkpt lat="49.77964" lon="4.79728">
        <ele>255</ele>
        <time>2022-09-18T07:09:30.000Z</time>
      </trkpt>
      <trkpt lat="49.77969" lon="4.79732">
        <ele>255</ele>
        <time>2022-09-18T07:09:31.000Z</time>
      </trkpt>
      <trkpt lat="49.77973" lon="4.79739">
        <ele>255</ele>
        <time>2022-09-18T07:09:32.000Z</time>
      </trkpt>
      <trkpt lat="49.77976" lon="4.79747">
        <ele>254</ele>
        <time>2022-09-18T07:09:33.000Z</time>
      </trkpt>
      <trkpt lat="49.77979" lon="4.79754">
        <ele>254</ele>
        <time>2022-09-18T07:09:34.000Z</time>
      </trkpt>
      <trkpt lat="49.77982" lon="4.79761">
        <ele>254</ele>
        <time>2022-09-18T07:09:35.000Z</time>
      </trkpt>
      <trkpt lat="49.77986" lon="4.79767">
        <ele>254</ele>
        <time>2022-09-18T07:09:36.000Z</time>
      </trkpt>
      <trkpt lat="49.7799" lon="4.79772">
        <ele>254</ele>
        <time>2022-09-18T07:09:37.000Z</time>
      </trkpt>
      <trkpt lat="49.77995" lon="4.79775">
        <ele>254</ele>
        <time>2022-09-18T07:09:38.000Z</time>
      </trkpt>
      <trkpt lat="49.78" lon="4.79777">
        <ele>254</ele>
        <time>2022-09-18T07:09:39.000Z</time>
      </trkpt>
      <trkpt lat="49.78006" lon="4.79778">
        <ele>254</ele>
        <time>2022-09-18T07:09:40.000Z</time>
      </trkpt>
      <trkpt lat="49.78011" lon="4.7978">
        <ele>254</ele>
        <time>2022-09-18T07:09:41.000Z</time>
      </trkpt>
      <trkpt lat="49.78016" lon="4.79781">
        <ele>254</ele>
        <time>2022-09-18T07:09:42.000Z</time>
      </trkpt>
      <trkpt lat="49.78022" lon="4.79782">
        <ele>254</ele>
        <time>2022-09-18T07:09:43.000Z</time>
      </trkpt>
      <trkpt lat="49.78027" lon="4.79783">
        <ele>254</ele>
        <time>2022-09-18T07:09:44.000Z</time>
      </trkpt>
      <trkpt lat="49.78032" lon="4.79783">
        <ele>254</ele>
        <time>2022-09-18T07:09:45.000Z</time>
      </trkpt>
      <trkpt lat="49.78038" lon="4.79783">
        <ele>254</ele>
        <time>2022-09-18T07:09:46.000Z</time>
      </trkpt>
      <trkpt lat="49.78043" lon="4.79782">
        <ele>254</ele>
        <time>2022-09-18T07:09:47.000Z</time>
      </trkpt>
      <trkpt lat="49.78048" lon="4.79782">
        <ele>254</ele>
        <time>2022-09-18T07:09:48.000Z</time>
      </trkpt>
      <trkpt lat="49.78053" lon="4.79782">
        <ele>254</ele>
        <time>2022-09-18T07:09:49.000Z</time>
      </trkpt>
      <trkpt lat="49.78058" lon="4.79781">
        <ele>254</ele>
        <time>2022-09-18T07:09:50.000Z</time>
      </trkpt>
      <trkpt lat="49.78063" lon="4.7978">
        <ele>254</ele>
        <time>2022-09-18T07:09:51.000Z</time>
      </trkpt>
      <trkpt lat="49.78068" lon="4.79778">
        <ele>254</ele>
        <time>2022-09-18T07:09:52.000Z</time>
      </trkpt>
      <trkpt lat="49.78073" lon="4.79775">
        <ele>254</ele>
        <time>2022-09-18T07:09:53.000Z</time>
      </trkpt>
      <trkpt lat="49.78078" lon="4.7977">
        <ele>253</ele>
        <time>2022-09-18T07:09:54.000Z</time>
      </trkpt>
      <trkpt lat="49.78082" lon="4.79766">
        <ele>253</ele>
        <time>2022-09-18T07:09:55.000Z</time>
      </trkpt>
      <trkpt lat="49.78086" lon="4.79763">
        <ele>253</ele>
        <time>2022-09-18T07:09:56.000Z</time>
      </trkpt>
      <trkpt lat="49.7809" lon="4.79757">
        <ele>253</ele>
        <time>2022-09-18T07:09:57.000Z</time>
      </trkpt>
      <trkpt lat="49.78093" lon="4.7975">
        <ele>253</ele>
        <time>2022-09-18T07:09:58.000Z</time>
      </trkpt>
      <trkpt lat="49.78097" lon="4.79743">
        <ele>253</ele>
        <time>2022-09-18T07:09:59.000Z</time>
      </trkpt>
      <trkpt lat="49.78101" lon="4.79735">
        <ele>253</ele>
        <time>2022-09-18T07:10:00.000Z</time>
      </trkpt>
      <trkpt lat="49.78104" lon="4.79729">
        <ele>253</ele>
        <time>2022-09-18T07:10:01.000Z</time>
      </trkpt>
      <trkpt lat="49.78107" lon="4.79723">
        <ele>253</ele>
        <time>2022-09-18T07:10:02.000Z</time>
      </trkpt>
      <trkpt lat="49.78111" lon="4.79717">
        <ele>253</ele>
        <time>2022-09-18T07:10:03.000Z</time>
      </trkpt>
      <trkpt lat="49.78114" lon="4.79711">
        <ele>253</ele>
        <time>2022-09-18T07:10:04.000Z</time>
      </trkpt>
      <trkpt lat="49.78117" lon="4.79706">
        <ele>253</ele>
        <time>2022-09-18T07:10:05.000Z</time>
      </trkpt>
      <trkpt lat="49.78122" lon="4.79702">
        <ele>254</ele>
        <time>2022-09-18T07:10:06.000Z</time>
      </trkpt>
      <trkpt lat="49.78126" lon="4.79699">
        <ele>254</ele>
        <time>2022-09-18T07:10:07.000Z</time>
      </trkpt>
      <trkpt lat="49.78131" lon="4.79696">
        <ele>254</ele>
        <time>2022-09-18T07:10:08.000Z</time>
      </trkpt>
      <trkpt lat="49.78135" lon="4.79693">
        <ele>254</ele>
        <time>2022-09-18T07:10:09.000Z</time>
      </trkpt>
      <trkpt lat="49.7814" lon="4.7969">
        <ele>254</ele>
        <time>2022-09-18T07:10:10.000Z</time>
      </trkpt>
      <trkpt lat="49.78144" lon="4.79688">
        <ele>254</ele>
        <time>2022-09-18T07:10:11.000Z</time>
      </trkpt>
      <trkpt lat="49.78149" lon="4.79685">
        <ele>255</ele>
        <time>2022-09-18T07:10:12.000Z</time>
      </trkpt>
      <trkpt lat="49.78153" lon="4.79681">
        <ele>255</ele>
        <time>2022-09-18T07:10:13.000Z</time>
      </trkpt>
      <trkpt lat="49.78158" lon="4.79678">
        <ele>255</ele>
        <time>2022-09-18T07:10:14.000Z</time>
      </trkpt>
      <trkpt lat="49.78162" lon="4.79674">
        <ele>255</ele>
        <time>2022-09-18T07:10:15.000Z</time>
      </trkpt>
      <trkpt lat="49.78167" lon="4.79671">
        <ele>255</ele>
        <time>2022-09-18T07:10:16.000Z</time>
      </trkpt>
      <trkpt lat="49.78172" lon="4.79667">
        <ele>255</ele>
        <time>2022-09-18T07:10:17.000Z</time>
      </trkpt>
      <trkpt lat="49.78176" lon="4.79663">
        <ele>255</ele>
        <time>2022-09-18T07:10:18.000Z</time>
      </trkpt>
      <trkpt lat="49.7818" lon="4.79659">
        <ele>255</ele>
        <time>2022-09-18T07:10:19.000Z</time>
      </trkpt>
      <trkpt lat="49.78185" lon="4.79655">
        <ele>255</ele>
        <time>2022-09-18T07:10:20.000Z</time>
      </trkpt>
      <trkpt lat="49.78189" lon="4.79652">
        <ele>256</ele>
        <time>2022-09-18T07:10:21.000Z</time>
      </trkpt>
      <trkpt lat="49.78193" lon="4.79648">
        <ele>256</ele>
        <time>2022-09-18T07:10:22.000Z</time>
      </trkpt>
      <trkpt lat="49.78198" lon="4.79644">
        <ele>256</ele>
        <time>2022-09-18T07:10:23.000Z</time>
      </trkpt>
      <trkpt lat="49.78203" lon="4.7964">
        <ele>255</ele>
        <time>2022-09-18T07:10:24.000Z</time>
      </trkpt>
      <trkpt lat="49.78208" lon="4.79636">
        <ele>255</ele>
        <time>2022-09-18T07:10:25.000Z</time>
      </trkpt>
      <trkpt lat="49.78213" lon="4.79632">
        <ele>255</ele>
        <time>2022-09-18T07:10:26.000Z</time>
      </trkpt>
      <trkpt lat="49.78218" lon="4.79629">
        <ele>255</ele>
        <time>2022-09-18T07:10:27.000Z</time>
      </trkpt>
      <trkpt lat="49.78223" lon="4.79625">
        <ele>255</ele>
        <time>2022-09-18T07:10:28.000Z</time>
      </trkpt>
      <trkpt lat="49.78228" lon="4.79621">
        <ele>255</ele>
        <time>2022-09-18T07:10:29.000Z</time>
      </trkpt>
      <trkpt lat="49.78234" lon="4.79618">
        <ele>255</ele>
        <time>2022-09-18T07:10:30.000Z</time>
      </trkpt>
      <trkpt lat="49.7824" lon="4.79614">
        <ele>255</ele>
        <time>2022-09-18T07:10:31.000Z</time>
      </trkpt>
      <trkpt lat="49.78247" lon="4.79612">
        <ele>254</ele>
        <time>2022-09-18T07:10:32.000Z</time>
      </trkpt>
      <trkpt lat="49.78253" lon="4.79608">
        <ele>254</ele>
        <time>2022-09-18T07:10:33.000Z</time>
      </trkpt>
      <trkpt lat="49.78259" lon="4.79605">
        <ele>254</ele>
        <time>2022-09-18T07:10:34.000Z</time>
      </trkpt>
      <trkpt lat="49.78266" lon="4.79603">
        <ele>254</ele>
        <time>2022-09-18T07:10:35.000Z</time>
      </trkpt>
      <trkpt lat="49.78273" lon="4.79601">
        <ele>253</ele>
        <time>2022-09-18T07:10:36.000Z</time>
      </trkpt>
      <trkpt lat="49.7828" lon="4.79599">
        <ele>253</ele>
        <time>2022-09-18T07:10:37.000Z</time>
      </trkpt>
      <trkpt lat="49.78287" lon="4.79597">
        <ele>253</ele>
        <time>2022-09-18T07:10:38.000Z</time>
      </trkpt>
      <trkpt lat="49.78292" lon="4.79597">
        <ele>253</ele>
        <time>2022-09-18T07:10:39.000Z</time>
      </trkpt>
      <trkpt lat="49.78296" lon="4.79596">
        <ele>253</ele>
        <time>2022-09-18T07:10:40.000Z</time>
      </trkpt>
      <trkpt lat="49.78301" lon="4.79595">
        <ele>253</ele>
        <time>2022-09-18T07:10:41.000Z</time>
      </trkpt>
      <trkpt lat="49.78305" lon="4.79596">
        <ele>252</ele>
        <time>2022-09-18T07:10:42.000Z</time>
      </trkpt>
      <trkpt lat="49.7831" lon="4.79597">
        <ele>253</ele>
        <time>2022-09-18T07:10:43.000Z</time>
      </trkpt>
      <trkpt lat="49.78313" lon="4.796">
        <ele>253</ele>
        <time>2022-09-18T07:10:44.000Z</time>
      </trkpt>
      <trkpt lat="49.78317" lon="4.79602">
        <ele>253</ele>
        <time>2022-09-18T07:10:45.000Z</time>
      </trkpt>
      <trkpt lat="49.78321" lon="4.79604">
        <ele>253</ele>
        <time>2022-09-18T07:10:46.000Z</time>
      </trkpt>
      <trkpt lat="49.78324" lon="4.79606">
        <ele>253</ele>
        <time>2022-09-18T07:10:47.000Z</time>
      </trkpt>
      <trkpt lat="49.78327" lon="4.79608">
        <ele>253</ele>
        <time>2022-09-18T07:10:48.000Z</time>
      </trkpt>
      <trkpt lat="49.7833" lon="4.7961">
        <ele>253</ele>
        <time>2022-09-18T07:10:49.000Z</time>
      </trkpt>
      <trkpt lat="49.78333" lon="4.79612">
        <ele>253</ele>
        <time>2022-09-18T07:10:50.000Z</time>
      </trkpt>
      <trkpt lat="49.78337" lon="4.79614">
        <ele>254</ele>
        <time>2022-09-18T07:10:51.000Z</time>
      </trkpt>
      <trkpt lat="49.7834" lon="4.79616">
        <ele>254</ele>
        <time>2022-09-18T07:10:52.000Z</time>
      </trkpt>
      <trkpt lat="49.78344" lon="4.79618">
        <ele>254</ele>
        <time>2022-09-18T07:10:53.000Z</time>
      </trkpt>
      <trkpt lat="49.78347" lon="4.79621">
        <ele>254</ele>
        <time>2022-09-18T07:10:54.000Z</time>
      </trkpt>
      <trkpt lat="49.78351" lon="4.79623">
        <ele>254</ele>
        <time>2022-09-18T07:10:55.000Z</time>
      </trkpt>
      <trkpt lat="49.78355" lon="4.79625">
        <ele>254</ele>
        <time>2022-09-18T07:10:56.000Z</time>
      </trkpt>
      <trkpt lat="49.78358" lon="4.79628">
        <ele>254</ele>
        <time>2022-09-18T07:10:57.000Z</time>
      </trkpt>
      <trkpt lat="49.78361" lon="4.7963">
        <ele>255</ele>
        <time>2022-09-18T07:10:58.000Z</time>
      </trkpt>
      <trkpt lat="49.78365" lon="4.79632">
        <ele>255</ele>
        <time>2022-09-18T07:10:59.000Z</time>
      </trkpt>
      <trkpt lat="49.78368" lon="4.79634">
        <ele>255</ele>
        <time>2022-09-18T07:11:00.000Z</time>
      </trkpt>
      <trkpt lat="49.78372" lon="4.79637">
        <ele>255</ele>
        <time>2022-09-18T07:11:01.000Z</time>
      </trkpt>
      <trkpt lat="49.78375" lon="4.79639">
        <ele>255</ele>
        <time>2022-09-18T07:11:02.000Z</time>
      </trkpt>
      <trkpt lat="49.78378" lon="4.79641">
        <ele>255</ele>
        <time>2022-09-18T07:11:03.000Z</time>
      </trkpt>
      <trkpt lat="49.78382" lon="4.79643">
        <ele>256</ele>
        <time>2022-09-18T07:11:04.000Z</time>
      </trkpt>
      <trkpt lat="49.78385" lon="4.79645">
        <ele>256</ele>
        <time>2022-09-18T07:11:05.000Z</time>
      </trkpt>
      <trkpt lat="49.78389" lon="4.79647">
        <ele>256</ele>
        <time>2022-09-18T07:11:06.000Z</time>
      </trkpt>
      <trkpt lat="49.78393" lon="4.79649">
        <ele>256</ele>
        <time>2022-09-18T07:11:07.000Z</time>
      </trkpt>
      <trkpt lat="49.78396" lon="4.79651">
        <ele>256</ele>
        <time>2022-09-18T07:11:08.000Z</time>
      </trkpt>
      <trkpt lat="49.784" lon="4.79653">
        <ele>256</ele>
        <time>2022-09-18T07:11:09.000Z</time>
      </trkpt>
      <trkpt lat="49.78404" lon="4.79655">
        <ele>256</ele>
        <time>2022-09-18T07:11:10.000Z</time>
      </trkpt>
      <trkpt lat="49.78408" lon="4.79657">
        <ele>256</ele>
        <time>2022-09-18T07:11:11.000Z</time>
      </trkpt>
      <trkpt lat="49.78411" lon="4.79659">
        <ele>256</ele>
        <time>2022-09-18T07:11:12.000Z</time>
      </trkpt>
      <trkpt lat="49.78415" lon="4.7966">
        <ele>257</ele>
        <time>2022-09-18T07:11:13.000Z</time>
      </trkpt>
      <trkpt lat="49.78419" lon="4.79662">
        <ele>257</ele>
        <time>2022-09-18T07:11:14.000Z</time>
      </trkpt>
      <trkpt lat="49.78423" lon="4.79664">
        <ele>257</ele>
        <time>2022-09-18T07:11:15.000Z</time>
      </trkpt>
      <trkpt lat="49.78426" lon="4.79665">
        <ele>257</ele>
        <time>2022-09-18T07:11:16.000Z</time>
      </trkpt>
      <trkpt lat="49.7843" lon="4.79667">
        <ele>257</ele>
        <time>2022-09-18T07:11:17.000Z</time>
      </trkpt>
      <trkpt lat="49.78434" lon="4.79668">
        <ele>257</ele>
        <time>2022-09-18T07:11:18.000Z</time>
      </trkpt>
      <trkpt lat="49.78438" lon="4.7967">
        <ele>257</ele>
        <time>2022-09-18T07:11:19.000Z</time>
      </trkpt>
      <trkpt lat="49.78442" lon="4.79671">
        <ele>257</ele>
        <time>2022-09-18T07:11:20.000Z</time>
      </trkpt>
      <trkpt lat="49.78445" lon="4.79672">
        <ele>258</ele>
        <time>2022-09-18T07:11:21.000Z</time>
      </trkpt>
      <trkpt lat="49.78449" lon="4.79674">
        <ele>258</ele>
        <time>2022-09-18T07:11:22.000Z</time>
      </trkpt>
      <trkpt lat="49.78453" lon="4.79676">
        <ele>258</ele>
        <time>2022-09-18T07:11:23.000Z</time>
      </trkpt>
      <trkpt lat="49.78457" lon="4.79677">
        <ele>258</ele>
        <time>2022-09-18T07:11:24.000Z</time>
      </trkpt>
      <trkpt lat="49.7846" lon="4.79678">
        <ele>258</ele>
        <time>2022-09-18T07:11:25.000Z</time>
      </trkpt>
      <trkpt lat="49.78464" lon="4.7968">
        <ele>258</ele>
        <time>2022-09-18T07:11:26.000Z</time>
      </trkpt>
      <trkpt lat="49.78468" lon="4.79681">
        <ele>259</ele>
        <time>2022-09-18T07:11:27.000Z</time>
      </trkpt>
      <trkpt lat="49.78472" lon="4.79682">
        <ele>259</ele>
        <time>2022-09-18T07:11:28.000Z</time>
      </trkpt>
      <trkpt lat="49.78475" lon="4.79684">
        <ele>259</ele>
        <time>2022-09-18T07:11:29.000Z</time>
      </trkpt>
      <trkpt lat="49.78479" lon="4.79685">
        <ele>259</ele>
        <time>2022-09-18T07:11:30.000Z</time>
      </trkpt>
      <trkpt lat="49.78483" lon="4.79687">
        <ele>259</ele>
        <time>2022-09-18T07:11:31.000Z</time>
      </trkpt>
      <trkpt lat="49.78487" lon="4.79688">
        <ele>259</ele>
        <time>2022-09-18T07:11:32.000Z</time>
      </trkpt>
      <trkpt lat="49.7849" lon="4.79689">
        <ele>259</ele>
        <time>2022-09-18T07:11:33.000Z</time>
      </trkpt>
      <trkpt lat="49.78494" lon="4.79691">
        <ele>259</ele>
        <time>2022-09-18T07:11:34.000Z</time>
      </trkpt>
      <trkpt lat="49.78498" lon="4.79692">
        <ele>260</ele>
        <time>2022-09-18T07:11:35.000Z</time>
      </trkpt>
      <trkpt lat="49.78501" lon="4.79694">
        <ele>260</ele>
        <time>2022-09-18T07:11:36.000Z</time>
      </trkpt>
      <trkpt lat="49.78505" lon="4.79695">
        <ele>260</ele>
        <time>2022-09-18T07:11:37.000Z</time>
      </trkpt>
      <trkpt lat="49.78509" lon="4.79697">
        <ele>260</ele>
        <time>2022-09-18T07:11:38.000Z</time>
      </trkpt>
      <trkpt lat="49.78512" lon="4.79699">
        <ele>260</ele>
        <time>2022-09-18T07:11:39.000Z</time>
      </trkpt>
      <trkpt lat="49.78516" lon="4.797">
        <ele>260</ele>
        <time>2022-09-18T07:11:40.000Z</time>
      </trkpt>
      <trkpt lat="49.78519" lon="4.79702">
        <ele>260</ele>
        <time>2022-09-18T07:11:41.000Z</time>
      </trkpt>
      <trkpt lat="49.78523" lon="4.79703">
        <ele>260</ele>
        <time>2022-09-18T07:11:42.000Z</time>
      </trkpt>
      <trkpt lat="49.78527" lon="4.79704">
        <ele>261</ele>
        <time>2022-09-18T07:11:43.000Z</time>
      </trkpt>
      <trkpt lat="49.7853" lon="4.79705">
        <ele>261</ele>
        <time>2022-09-18T07:11:44.000Z</time>
      </trkpt>
      <trkpt lat="49.78534" lon="4.79706">
        <ele>261</ele>
        <time>2022-09-18T07:11:45.000Z</time>
      </trkpt>
      <trkpt lat="49.78537" lon="4.79707">
        <ele>261</ele>
        <time>2022-09-18T07:11:46.000Z</time>
      </trkpt>
      <trkpt lat="49.78541" lon="4.79708">
        <ele>261</ele>
        <time>2022-09-18T07:11:47.000Z</time>
      </trkpt>
      <trkpt lat="49.78545" lon="4.79709">
        <ele>261</ele>
        <time>2022-09-18T07:11:48.000Z</time>
      </trkpt>
      <trkpt lat="49.78548" lon="4.7971">
        <ele>261</ele>
        <time>2022-09-18T07:11:49.000Z</time>
      </trkpt>
      <trkpt lat="49.78552" lon="4.79712">
        <ele>262</ele>
        <time>2022-09-18T07:11:50.000Z</time>
      </trkpt>
      <trkpt lat="49.78556" lon="4.79713">
        <ele>262</ele>
        <time>2022-09-18T07:11:51.000Z</time>
      </trkpt>
      <trkpt lat="49.78559" lon="4.79714">
        <ele>262</ele>
        <time>2022-09-18T07:11:52.000Z</time>
      </trkpt>
      <trkpt lat="49.78563" lon="4.79716">
        <ele>262</ele>
        <time>2022-09-18T07:11:53.000Z</time>
      </trkpt>
      <trkpt lat="49.78567" lon="4.79717">
        <ele>262</ele>
        <time>2022-09-18T07:11:54.000Z</time>
      </trkpt>
      <trkpt lat="49.78571" lon="4.79719">
        <ele>262</ele>
        <time>2022-09-18T07:11:55.000Z</time>
      </trkpt>
      <trkpt lat="49.78574" lon="4.7972">
        <ele>262</ele>
        <time>2022-09-18T07:11:56.000Z</time>
      </trkpt>
      <trkpt lat="49.78578" lon="4.79722">
        <ele>263</ele>
        <time>2022-09-18T07:11:57.000Z</time>
      </trkpt>
      <trkpt lat="49.78582" lon="4.79723">
        <ele>263</ele>
        <time>2022-09-18T07:11:58.000Z</time>
      </trkpt>
      <trkpt lat="49.78586" lon="4.79724">
        <ele>263</ele>
        <time>2022-09-18T07:11:59.000Z</time>
      </trkpt>
      <trkpt lat="49.7859" lon="4.79726">
        <ele>263</ele>
        <time>2022-09-18T07:12:00.000Z</time>
      </trkpt>
      <trkpt lat="49.78593" lon="4.79727">
        <ele>263</ele>
        <time>2022-09-18T07:12:01.000Z</time>
      </trkpt>
      <trkpt lat="49.78597" lon="4.79728">
        <ele>263</ele>
        <time>2022-09-18T07:12:02.000Z</time>
      </trkpt>
      <trkpt lat="49.78601" lon="4.7973">
        <ele>263</ele>
        <time>2022-09-18T07:12:03.000Z</time>
      </trkpt>
      <trkpt lat="49.78604" lon="4.79731">
        <ele>263</ele>
        <time>2022-09-18T07:12:04.000Z</time>
      </trkpt>
      <trkpt lat="49.78608" lon="4.79732">
        <ele>263</ele>
        <time>2022-09-18T07:12:05.000Z</time>
      </trkpt>
      <trkpt lat="49.78612" lon="4.79734">
        <ele>264</ele>
        <time>2022-09-18T07:12:06.000Z</time>
      </trkpt>
      <trkpt lat="49.78615" lon="4.79735">
        <ele>264</ele>
        <time>2022-09-18T07:12:07.000Z</time>
      </trkpt>
      <trkpt lat="49.78619" lon="4.79736">
        <ele>264</ele>
        <time>2022-09-18T07:12:08.000Z</time>
      </trkpt>
      <trkpt lat="49.78623" lon="4.79738">
        <ele>264</ele>
        <time>2022-09-18T07:12:09.000Z</time>
      </trkpt>
      <trkpt lat="49.78626" lon="4.79739">
        <ele>264</ele>
        <time>2022-09-18T07:12:10.000Z</time>
      </trkpt>
      <trkpt lat="49.7863" lon="4.7974">
        <ele>264</ele>
        <time>2022-09-18T07:12:11.000Z</time>
      </trkpt>
      <trkpt lat="49.78634" lon="4.79742">
        <ele>264</ele>
        <time>2022-09-18T07:12:12.000Z</time>
      </trkpt>
      <trkpt lat="49.78638" lon="4.79743">
        <ele>264</ele>
        <time>2022-09-18T07:12:13.000Z</time>
      </trkpt>
      <trkpt lat="49.78642" lon="4.79745">
        <ele>264</ele>
        <time>2022-09-18T07:12:14.000Z</time>
      </trkpt>
      <trkpt lat="49.78646" lon="4.79746">
        <ele>264</ele>
        <time>2022-09-18T07:12:15.000Z</time>
      </trkpt>
      <trkpt lat="49.7865" lon="4.79747">
        <ele>265</ele>
        <time>2022-09-18T07:12:16.000Z</time>
      </trkpt>
      <trkpt lat="49.78654" lon="4.79749">
        <ele>265</ele>
        <time>2022-09-18T07:12:17.000Z</time>
      </trkpt>
      <trkpt lat="49.78658" lon="4.7975">
        <ele>265</ele>
        <time>2022-09-18T07:12:18.000Z</time>
      </trkpt>
      <trkpt lat="49.78663" lon="4.79751">
        <ele>265</ele>
        <time>2022-09-18T07:12:19.000Z</time>
      </trkpt>
      <trkpt lat="49.78667" lon="4.79753">
        <ele>265</ele>
        <time>2022-09-18T07:12:20.000Z</time>
      </trkpt>
      <trkpt lat="49.78671" lon="4.79755">
        <ele>265</ele>
        <time>2022-09-18T07:12:21.000Z</time>
      </trkpt>
      <trkpt lat="49.78676" lon="4.79756">
        <ele>265</ele>
        <time>2022-09-18T07:12:22.000Z</time>
      </trkpt>
      <trkpt lat="49.78681" lon="4.79758">
        <ele>265</ele>
        <time>2022-09-18T07:12:23.000Z</time>
      </trkpt>
      <trkpt lat="49.78686" lon="4.7976">
        <ele>265</ele>
        <time>2022-09-18T07:12:24.000Z</time>
      </trkpt>
      <trkpt lat="49.7869" lon="4.79762">
        <ele>265</ele>
        <time>2022-09-18T07:12:25.000Z</time>
      </trkpt>
      <trkpt lat="49.78695" lon="4.79763">
        <ele>265</ele>
        <time>2022-09-18T07:12:26.000Z</time>
      </trkpt>
      <trkpt lat="49.787" lon="4.79765">
        <ele>265</ele>
        <time>2022-09-18T07:12:27.000Z</time>
      </trkpt>
      <trkpt lat="49.78705" lon="4.79768">
        <ele>265</ele>
        <time>2022-09-18T07:12:28.000Z</time>
      </trkpt>
      <trkpt lat="49.7871" lon="4.7977">
        <ele>265</ele>
        <time>2022-09-18T07:12:29.000Z</time>
      </trkpt>
      <trkpt lat="49.78715" lon="4.79772">
        <ele>265</ele>
        <time>2022-09-18T07:12:30.000Z</time>
      </trkpt>
      <trkpt lat="49.78719" lon="4.79773">
        <ele>265</ele>
        <time>2022-09-18T07:12:31.000Z</time>
      </trkpt>
      <trkpt lat="49.78723" lon="4.79775">
        <ele>265</ele>
        <time>2022-09-18T07:12:32.000Z</time>
      </trkpt>
      <trkpt lat="49.78728" lon="4.79777">
        <ele>265</ele>
        <time>2022-09-18T07:12:33.000Z</time>
      </trkpt>
      <trkpt lat="49.78732" lon="4.79779">
        <ele>265</ele>
        <time>2022-09-18T07:12:34.000Z</time>
      </trkpt>
      <trkpt lat="49.78737" lon="4.79781">
        <ele>265</ele>
        <time>2022-09-18T07:12:35.000Z</time>
      </trkpt>
      <trkpt lat="49.78742" lon="4.79783">
        <ele>265</ele>
        <time>2022-09-18T07:12:36.000Z</time>
      </trkpt>
      <trkpt lat="49.78747" lon="4.79785">
        <ele>265</ele>
        <time>2022-09-18T07:12:37.000Z</time>
      </trkpt>
      <trkpt lat="49.78752" lon="4.79787">
        <ele>265</ele>
        <time>2022-09-18T07:12:38.000Z</time>
      </trkpt>
      <trkpt lat="49.78758" lon="4.7979">
        <ele>265</ele>
        <time>2022-09-18T07:12:39.000Z</time>
      </trkpt>
      <trkpt lat="49.78763" lon="4.79792">
        <ele>265</ele>
        <time>2022-09-18T07:12:40.000Z</time>
      </trkpt>
      <trkpt lat="49.78768" lon="4.79795">
        <ele>265</ele>
        <time>2022-09-18T07:12:41.000Z</time>
      </trkpt>
      <trkpt lat="49.78773" lon="4.79796">
        <ele>265</ele>
        <time>2022-09-18T07:12:42.000Z</time>
      </trkpt>
      <trkpt lat="49.78778" lon="4.79799">
        <ele>265</ele>
        <time>2022-09-18T07:12:43.000Z</time>
      </trkpt>
      <trkpt lat="49.78783" lon="4.79801">
        <ele>265</ele>
        <time>2022-09-18T07:12:44.000Z</time>
      </trkpt>
      <trkpt lat="49.78789" lon="4.79803">
        <ele>265</ele>
        <time>2022-09-18T07:12:45.000Z</time>
      </trkpt>
      <trkpt lat="49.78794" lon="4.79806">
        <ele>265</ele>
        <time>2022-09-18T07:12:46.000Z</time>
      </trkpt>
      <trkpt lat="49.78799" lon="4.79808">
        <ele>265</ele>
        <time>2022-09-18T07:12:47.000Z</time>
      </trkpt>
      <trkpt lat="49.78805" lon="4.79811">
        <ele>265</ele>
        <time>2022-09-18T07:12:48.000Z</time>
      </trkpt>
      <trkpt lat="49.7881" lon="4.79814">
        <ele>265</ele>
        <time>2022-09-18T07:12:49.000Z</time>
      </trkpt>
      <trkpt lat="49.78815" lon="4.79817">
        <ele>265</ele>
        <time>2022-09-18T07:12:50.000Z</time>
      </trkpt>
      <trkpt lat="49.78821" lon="4.7982">
        <ele>265</ele>
        <time>2022-09-18T07:12:51.000Z</time>
      </trkpt>
      <trkpt lat="49.78826" lon="4.79823">
        <ele>265</ele>
        <time>2022-09-18T07:12:52.000Z</time>
      </trkpt>
      <trkpt lat="49.78832" lon="4.79826">
        <ele>266</ele>
        <time>2022-09-18T07:12:53.000Z</time>
      </trkpt>
      <trkpt lat="49.78837" lon="4.79829">
        <ele>266</ele>
        <time>2022-09-18T07:12:54.000Z</time>
      </trkpt>
      <trkpt lat="49.78843" lon="4.79832">
        <ele>266</ele>
        <time>2022-09-18T07:12:55.000Z</time>
      </trkpt>
      <trkpt lat="49.78848" lon="4.79835">
        <ele>265</ele>
        <time>2022-09-18T07:12:56.000Z</time>
      </trkpt>
      <trkpt lat="49.78854" lon="4.79838">
        <ele>265</ele>
        <time>2022-09-18T07:12:57.000Z</time>
      </trkpt>
      <trkpt lat="49.78859" lon="4.79842">
        <ele>265</ele>
        <time>2022-09-18T07:12:58.000Z</time>
      </trkpt>
      <trkpt lat="49.78864" lon="4.79846">
        <ele>265</ele>
        <time>2022-09-18T07:12:59.000Z</time>
      </trkpt>
      <trkpt lat="49.7887" lon="4.7985">
        <ele>265</ele>
        <time>2022-09-18T07:13:00.000Z</time>
      </trkpt>
      <trkpt lat="49.78875" lon="4.79854">
        <ele>265</ele>
        <time>2022-09-18T07:13:01.000Z</time>
      </trkpt>
      <trkpt lat="49.7888" lon="4.79857">
        <ele>265</ele>
        <time>2022-09-18T07:13:02.000Z</time>
      </trkpt>
      <trkpt lat="49.78886" lon="4.79861">
        <ele>265</ele>
        <time>2022-09-18T07:13:03.000Z</time>
      </trkpt>
      <trkpt lat="49.78891" lon="4.79865">
        <ele>265</ele>
        <time>2022-09-18T07:13:04.000Z</time>
      </trkpt>
      <trkpt lat="49.78895" lon="4.79869">
        <ele>265</ele>
        <time>2022-09-18T07:13:05.000Z</time>
      </trkpt>
      <trkpt lat="49.789" lon="4.79873">
        <ele>265</ele>
        <time>2022-09-18T07:13:06.000Z</time>
      </trkpt>
      <trkpt lat="49.78905" lon="4.79877">
        <ele>265</ele>
        <time>2022-09-18T07:13:07.000Z</time>
      </trkpt>
      <trkpt lat="49.78911" lon="4.79881">
        <ele>265</ele>
        <time>2022-09-18T07:13:08.000Z</time>
      </trkpt>
      <trkpt lat="49.78916" lon="4.79885">
        <ele>265</ele>
        <time>2022-09-18T07:13:09.000Z</time>
      </trkpt>
      <trkpt lat="49.78922" lon="4.79889">
        <ele>265</ele>
        <time>2022-09-18T07:13:10.000Z</time>
      </trkpt>
      <trkpt lat="49.78927" lon="4.79894">
        <ele>265</ele>
        <time>2022-09-18T07:13:11.000Z</time>
      </trkpt>
      <trkpt lat="49.78932" lon="4.79898">
        <ele>265</ele>
        <time>2022-09-18T07:13:12.000Z</time>
      </trkpt>
      <trkpt lat="49.78938" lon="4.79903">
        <ele>265</ele>
        <time>2022-09-18T07:13:13.000Z</time>
      </trkpt>
      <trkpt lat="49.78943" lon="4.79907">
        <ele>265</ele>
        <time>2022-09-18T07:13:14.000Z</time>
      </trkpt>
      <trkpt lat="49.78948" lon="4.79912">
        <ele>264</ele>
        <time>2022-09-18T07:13:15.000Z</time>
      </trkpt>
      <trkpt lat="49.78954" lon="4.79917">
        <ele>264</ele>
        <time>2022-09-18T07:13:16.000Z</time>
      </trkpt>
      <trkpt lat="49.78959" lon="4.79922">
        <ele>264</ele>
        <time>2022-09-18T07:13:17.000Z</time>
      </trkpt>
      <trkpt lat="49.78964" lon="4.79927">
        <ele>264</ele>
        <time>2022-09-18T07:13:18.000Z</time>
      </trkpt>
      <trkpt lat="49.78969" lon="4.79932">
        <ele>264</ele>
        <time>2022-09-18T07:13:19.000Z</time>
      </trkpt>
      <trkpt lat="49.78975" lon="4.79937">
        <ele>264</ele>
        <time>2022-09-18T07:13:20.000Z</time>
      </trkpt>
      <trkpt lat="49.7898" lon="4.79941">
        <ele>264</ele>
        <time>2022-09-18T07:13:21.000Z</time>
      </trkpt>
      <trkpt lat="49.78985" lon="4.79946">
        <ele>264</ele>
        <time>2022-09-18T07:13:22.000Z</time>
      </trkpt>
      <trkpt lat="49.78991" lon="4.79951">
        <ele>264</ele>
        <time>2022-09-18T07:13:23.000Z</time>
      </trkpt>
      <trkpt lat="49.78996" lon="4.79955">
        <ele>263</ele>
        <time>2022-09-18T07:13:24.000Z</time>
      </trkpt>
      <trkpt lat="49.79001" lon="4.7996">
        <ele>263</ele>
        <time>2022-09-18T07:13:25.000Z</time>
      </trkpt>
      <trkpt lat="49.79007" lon="4.79965">
        <ele>263</ele>
        <time>2022-09-18T07:13:26.000Z</time>
      </trkpt>
      <trkpt lat="49.79012" lon="4.7997">
        <ele>263</ele>
        <time>2022-09-18T07:13:27.000Z</time>
      </trkpt>
      <trkpt lat="49.79017" lon="4.79975">
        <ele>263</ele>
        <time>2022-09-18T07:13:28.000Z</time>
      </trkpt>
      <trkpt lat="49.79023" lon="4.7998">
        <ele>263</ele>
        <time>2022-09-18T07:13:29.000Z</time>
      </trkpt>
      <trkpt lat="49.79028" lon="4.79985">
        <ele>263</ele>
        <time>2022-09-18T07:13:30.000Z</time>
      </trkpt>
      <trkpt lat="49.79033" lon="4.7999">
        <ele>262</ele>
        <time>2022-09-18T07:13:31.000Z</time>
      </trkpt>
      <trkpt lat="49.79039" lon="4.79995">
        <ele>262</ele>
        <time>2022-09-18T07:13:32.000Z</time>
      </trkpt>
      <trkpt lat="49.79044" lon="4.8">
        <ele>262</ele>
        <time>2022-09-18T07:13:33.000Z</time>
      </trkpt>
      <trkpt lat="49.7905" lon="4.80005">
        <ele>262</ele>
        <time>2022-09-18T07:13:34.000Z</time>
      </trkpt>
      <trkpt lat="49.79055" lon="4.8001">
        <ele>262</ele>
        <time>2022-09-18T07:13:35.000Z</time>
      </trkpt>
      <trkpt lat="49.79061" lon="4.80014">
        <ele>262</ele>
        <time>2022-09-18T07:13:36.000Z</time>
      </trkpt>
      <trkpt lat="49.79066" lon="4.80019">
        <ele>262</ele>
        <time>2022-09-18T07:13:37.000Z</time>
      </trkpt>
      <trkpt lat="49.79072" lon="4.80024">
        <ele>262</ele>
        <time>2022-09-18T07:13:38.000Z</time>
      </trkpt>
      <trkpt lat="49.79077" lon="4.80029">
        <ele>262</ele>
        <time>2022-09-18T07:13:39.000Z</time>
      </trkpt>
      <trkpt lat="49.79083" lon="4.80033">
        <ele>262</ele>
        <time>2022-09-18T07:13:40.000Z</time>
      </trkpt>
      <trkpt lat="49.79088" lon="4.80038">
        <ele>262</ele>
        <time>2022-09-18T07:13:41.000Z</time>
      </trkpt>
      <trkpt lat="49.79093" lon="4.80043">
        <ele>262</ele>
        <time>2022-09-18T07:13:42.000Z</time>
      </trkpt>
      <trkpt lat="49.79099" lon="4.80047">
        <ele>262</ele>
        <time>2022-09-18T07:13:43.000Z</time>
      </trkpt>
      <trkpt lat="49.79105" lon="4.80051">
        <ele>262</ele>
        <time>2022-09-18T07:13:44.000Z</time>
      </trkpt>
      <trkpt lat="49.7911" lon="4.80055">
        <ele>261</ele>
        <time>2022-09-18T07:13:45.000Z</time>
      </trkpt>
      <trkpt lat="49.79116" lon="4.80059">
        <ele>261</ele>
        <time>2022-09-18T07:13:46.000Z</time>
      </trkpt>
      <trkpt lat="49.79122" lon="4.80063">
        <ele>261</ele>
        <time>2022-09-18T07:13:47.000Z</time>
      </trkpt>
      <trkpt lat="49.79127" lon="4.80066">
        <ele>261</ele>
        <time>2022-09-18T07:13:48.000Z</time>
      </trkpt>
      <trkpt lat="49.79132" lon="4.80069">
        <ele>262</ele>
        <time>2022-09-18T07:13:49.000Z</time>
      </trkpt>
      <trkpt lat="49.79137" lon="4.80072">
        <ele>262</ele>
        <time>2022-09-18T07:13:50.000Z</time>
      </trkpt>
      <trkpt lat="49.79141" lon="4.80074">
        <ele>262</ele>
        <time>2022-09-18T07:13:51.000Z</time>
      </trkpt>
      <trkpt lat="49.79145" lon="4.80074">
        <ele>262</ele>
        <time>2022-09-18T07:13:52.000Z</time>
      </trkpt>
      <trkpt lat="49.79149" lon="4.80073">
        <ele>262</ele>
        <time>2022-09-18T07:13:53.000Z</time>
      </trkpt>
      <trkpt lat="49.79154" lon="4.80071">
        <ele>262</ele>
        <time>2022-09-18T07:13:54.000Z</time>
      </trkpt>
      <trkpt lat="49.79158" lon="4.80071">
        <ele>262</ele>
        <time>2022-09-18T07:13:55.000Z</time>
      </trkpt>
      <trkpt lat="49.79163" lon="4.8007">
        <ele>262</ele>
        <time>2022-09-18T07:13:56.000Z</time>
      </trkpt>
      <trkpt lat="49.79168" lon="4.80069">
        <ele>263</ele>
        <time>2022-09-18T07:13:57.000Z</time>
      </trkpt>
      <trkpt lat="49.79173" lon="4.80068">
        <ele>263</ele>
        <time>2022-09-18T07:13:58.000Z</time>
      </trkpt>
      <trkpt lat="49.79178" lon="4.80067">
        <ele>263</ele>
        <time>2022-09-18T07:13:59.000Z</time>
      </trkpt>
      <trkpt lat="49.79183" lon="4.80066">
        <ele>263</ele>
        <time>2022-09-18T07:14:00.000Z</time>
      </trkpt>
      <trkpt lat="49.79188" lon="4.80065">
        <ele>263</ele>
        <time>2022-09-18T07:14:01.000Z</time>
      </trkpt>
      <trkpt lat="49.79193" lon="4.80064">
        <ele>263</ele>
        <time>2022-09-18T07:14:02.000Z</time>
      </trkpt>
      <trkpt lat="49.79197" lon="4.80063">
        <ele>263</ele>
        <time>2022-09-18T07:14:03.000Z</time>
      </trkpt>
      <trkpt lat="49.79201" lon="4.80063">
        <ele>263</ele>
        <time>2022-09-18T07:14:04.000Z</time>
      </trkpt>
      <trkpt lat="49.79204" lon="4.80062">
        <ele>263</ele>
        <time>2022-09-18T07:14:05.000Z</time>
      </trkpt>
      <trkpt lat="49.79207" lon="4.80061">
        <ele>264</ele>
        <time>2022-09-18T07:14:06.000Z</time>
      </trkpt>
      <trkpt lat="49.7921" lon="4.8006">
        <ele>264</ele>
        <time>2022-09-18T07:14:07.000Z</time>
      </trkpt>
      <trkpt lat="49.79213" lon="4.80059">
        <ele>264</ele>
        <time>2022-09-18T07:14:08.000Z</time>
      </trkpt>
      <trkpt lat="49.79215" lon="4.80058">
        <ele>265</ele>
        <time>2022-09-18T07:14:09.000Z</time>
      </trkpt>
      <trkpt lat="49.79218" lon="4.80058">
        <ele>265</ele>
        <time>2022-09-18T07:14:10.000Z</time>
      </trkpt>
      <trkpt lat="49.7922" lon="4.80058">
        <ele>265</ele>
        <time>2022-09-18T07:14:11.000Z</time>
      </trkpt>
      <trkpt lat="49.79223" lon="4.80057">
        <ele>266</ele>
        <time>2022-09-18T07:14:12.000Z</time>
      </trkpt>
      <trkpt lat="49.79225" lon="4.80058">
        <ele>266</ele>
        <time>2022-09-18T07:14:13.000Z</time>
      </trkpt>
      <trkpt lat="49.79228" lon="4.80057">
        <ele>266</ele>
        <time>2022-09-18T07:14:14.000Z</time>
      </trkpt>
      <trkpt lat="49.79231" lon="4.80058">
        <ele>266</ele>
        <time>2022-09-18T07:14:15.000Z</time>
      </trkpt>
      <trkpt lat="49.79233" lon="4.80057">
        <ele>267</ele>
        <time>2022-09-18T07:14:16.000Z</time>
      </trkpt>
      <trkpt lat="49.79236" lon="4.80057">
        <ele>267</ele>
        <time>2022-09-18T07:14:17.000Z</time>
      </trkpt>
      <trkpt lat="49.79239" lon="4.80056">
        <ele>268</ele>
        <time>2022-09-18T07:14:18.000Z</time>
      </trkpt>
      <trkpt lat="49.79242" lon="4.80056">
        <ele>268</ele>
        <time>2022-09-18T07:14:19.000Z</time>
      </trkpt>
      <trkpt lat="49.79245" lon="4.80056">
        <ele>268</ele>
        <time>2022-09-18T07:14:20.000Z</time>
      </trkpt>
      <trkpt lat="49.79248" lon="4.80055">
        <ele>269</ele>
        <time>2022-09-18T07:14:21.000Z</time>
      </trkpt>
      <trkpt lat="49.79251" lon="4.80054">
        <ele>269</ele>
        <time>2022-09-18T07:14:22.000Z</time>
      </trkpt>
      <trkpt lat="49.79255" lon="4.80052">
        <ele>269</ele>
        <time>2022-09-18T07:14:23.000Z</time>
      </trkpt>
      <trkpt lat="49.79259" lon="4.80051">
        <ele>270</ele>
        <time>2022-09-18T07:14:24.000Z</time>
      </trkpt>
      <trkpt lat="49.79262" lon="4.8005">
        <ele>270</ele>
        <time>2022-09-18T07:14:25.000Z</time>
      </trkpt>
      <trkpt lat="49.79264" lon="4.8005">
        <ele>271</ele>
        <time>2022-09-18T07:14:26.000Z</time>
      </trkpt>
      <trkpt lat="49.79267" lon="4.80049">
        <ele>271</ele>
        <time>2022-09-18T07:14:27.000Z</time>
      </trkpt>
      <trkpt lat="49.7927" lon="4.80048">
        <ele>271</ele>
        <time>2022-09-18T07:14:28.000Z</time>
      </trkpt>
      <trkpt lat="49.79272" lon="4.80048">
        <ele>272</ele>
        <time>2022-09-18T07:14:29.000Z</time>
      </trkpt>
      <trkpt lat="49.79275" lon="4.80048">
        <ele>272</ele>
        <time>2022-09-18T07:14:30.000Z</time>
      </trkpt>
      <trkpt lat="49.79278" lon="4.80047">
        <ele>272</ele>
        <time>2022-09-18T07:14:31.000Z</time>
      </trkpt>
      <trkpt lat="49.79281" lon="4.80046">
        <ele>273</ele>
        <time>2022-09-18T07:14:32.000Z</time>
      </trkpt>
      <trkpt lat="49.79283" lon="4.80046">
        <ele>273</ele>
        <time>2022-09-18T07:14:33.000Z</time>
      </trkpt>
      <trkpt lat="49.79286" lon="4.80045">
        <ele>273</ele>
        <time>2022-09-18T07:14:34.000Z</time>
      </trkpt>
      <trkpt lat="49.79289" lon="4.80045">
        <ele>274</ele>
        <time>2022-09-18T07:14:35.000Z</time>
      </trkpt>
      <trkpt lat="49.79292" lon="4.80045">
        <ele>274</ele>
        <time>2022-09-18T07:14:36.000Z</time>
      </trkpt>
      <trkpt lat="49.79295" lon="4.80044">
        <ele>274</ele>
        <time>2022-09-18T07:14:37.000Z</time>
      </trkpt>
      <trkpt lat="49.79298" lon="4.80044">
        <ele>275</ele>
        <time>2022-09-18T07:14:38.000Z</time>
      </trkpt>
      <trkpt lat="49.793" lon="4.80044">
        <ele>275</ele>
        <time>2022-09-18T07:14:39.000Z</time>
      </trkpt>
      <trkpt lat="49.79303" lon="4.80043">
        <ele>275</ele>
        <time>2022-09-18T07:14:40.000Z</time>
      </trkpt>
      <trkpt lat="49.79305" lon="4.80042">
        <ele>276</ele>
        <time>2022-09-18T07:14:41.000Z</time>
      </trkpt>
      <trkpt lat="49.79308" lon="4.80039">
        <ele>276</ele>
        <time>2022-09-18T07:14:42.000Z</time>
      </trkpt>
      <trkpt lat="49.7931" lon="4.80036">
        <ele>276</ele>
        <time>2022-09-18T07:14:43.000Z</time>
      </trkpt>
      <trkpt lat="49.79312" lon="4.80033">
        <ele>277</ele>
        <time>2022-09-18T07:14:44.000Z</time>
      </trkpt>
      <trkpt lat="49.79314" lon="4.80028">
        <ele>277</ele>
        <time>2022-09-18T07:14:45.000Z</time>
      </trkpt>
      <trkpt lat="49.79316" lon="4.80024">
        <ele>277</ele>
        <time>2022-09-18T07:14:46.000Z</time>
      </trkpt>
      <trkpt lat="49.79319" lon="4.80019">
        <ele>277</ele>
        <time>2022-09-18T07:14:47.000Z</time>
      </trkpt>
      <trkpt lat="49.79321" lon="4.80014">
        <ele>277</ele>
        <time>2022-09-18T07:14:48.000Z</time>
      </trkpt>
      <trkpt lat="49.79324" lon="4.80009">
        <ele>278</ele>
        <time>2022-09-18T07:14:49.000Z</time>
      </trkpt>
      <trkpt lat="49.79325" lon="4.80004">
        <ele>278</ele>
        <time>2022-09-18T07:14:50.000Z</time>
      </trkpt>
      <trkpt lat="49.79327" lon="4.79999">
        <ele>278</ele>
        <time>2022-09-18T07:14:51.000Z</time>
      </trkpt>
      <trkpt lat="49.79328" lon="4.79995">
        <ele>278</ele>
        <time>2022-09-18T07:14:52.000Z</time>
      </trkpt>
      <trkpt lat="49.79329" lon="4.79991">
        <ele>278</ele>
        <time>2022-09-18T07:14:53.000Z</time>
      </trkpt>
      <trkpt lat="49.79329" lon="4.79986">
        <ele>278</ele>
        <time>2022-09-18T07:14:54.000Z</time>
      </trkpt>
      <trkpt lat="49.79329" lon="4.79982">
        <ele>278</ele>
        <time>2022-09-18T07:14:55.000Z</time>
      </trkpt>
      <trkpt lat="49.79331" lon="4.79978">
        <ele>278</ele>
        <time>2022-09-18T07:14:56.000Z</time>
      </trkpt>
      <trkpt lat="49.79332" lon="4.79973">
        <ele>278</ele>
        <time>2022-09-18T07:14:57.000Z</time>
      </trkpt>
      <trkpt lat="49.79334" lon="4.79969">
        <ele>278</ele>
        <time>2022-09-18T07:14:58.000Z</time>
      </trkpt>
      <trkpt lat="49.79335" lon="4.79965">
        <ele>278</ele>
        <time>2022-09-18T07:14:59.000Z</time>
      </trkpt>
      <trkpt lat="49.79336" lon="4.79959">
        <ele>278</ele>
        <time>2022-09-18T07:15:00.000Z</time>
      </trkpt>
      <trkpt lat="49.79338" lon="4.79953">
        <ele>278</ele>
        <time>2022-09-18T07:15:01.000Z</time>
      </trkpt>
      <trkpt lat="49.79339" lon="4.79948">
        <ele>277</ele>
        <time>2022-09-18T07:15:02.000Z</time>
      </trkpt>
      <trkpt lat="49.7934" lon="4.79944">
        <ele>277</ele>
        <time>2022-09-18T07:15:03.000Z</time>
      </trkpt>
      <trkpt lat="49.79342" lon="4.79939">
        <ele>277</ele>
        <time>2022-09-18T07:15:04.000Z</time>
      </trkpt>
      <trkpt lat="49.79343" lon="4.79936">
        <ele>277</ele>
        <time>2022-09-18T07:15:05.000Z</time>
      </trkpt>
      <trkpt lat="49.79346" lon="4.79932">
        <ele>277</ele>
        <time>2022-09-18T07:15:06.000Z</time>
      </trkpt>
      <trkpt lat="49.79348" lon="4.79926">
        <ele>276</ele>
        <time>2022-09-18T07:15:07.000Z</time>
      </trkpt>
      <trkpt lat="49.7935" lon="4.79921">
        <ele>276</ele>
        <time>2022-09-18T07:15:08.000Z</time>
      </trkpt>
      <trkpt lat="49.79352" lon="4.79917">
        <ele>276</ele>
        <time>2022-09-18T07:15:09.000Z</time>
      </trkpt>
      <trkpt lat="49.79354" lon="4.79913">
        <ele>276</ele>
        <time>2022-09-18T07:15:10.000Z</time>
      </trkpt>
      <trkpt lat="49.79356" lon="4.79908">
        <ele>276</ele>
        <time>2022-09-18T07:15:11.000Z</time>
      </trkpt>
      <trkpt lat="49.79358" lon="4.79905">
        <ele>276</ele>
        <time>2022-09-18T07:15:12.000Z</time>
      </trkpt>
      <trkpt lat="49.7936" lon="4.79901">
        <ele>276</ele>
        <time>2022-09-18T07:15:13.000Z</time>
      </trkpt>
      <trkpt lat="49.79363" lon="4.79897">
        <ele>276</ele>
        <time>2022-09-18T07:15:14.000Z</time>
      </trkpt>
      <trkpt lat="49.79365" lon="4.79894">
        <ele>277</ele>
        <time>2022-09-18T07:15:15.000Z</time>
      </trkpt>
      <trkpt lat="49.79367" lon="4.7989">
        <ele>277</ele>
        <time>2022-09-18T07:15:16.000Z</time>
      </trkpt>
      <trkpt lat="49.7937" lon="4.79887">
        <ele>277</ele>
        <time>2022-09-18T07:15:17.000Z</time>
      </trkpt>
      <trkpt lat="49.79372" lon="4.79883">
        <ele>277</ele>
        <time>2022-09-18T07:15:18.000Z</time>
      </trkpt>
      <trkpt lat="49.79375" lon="4.79879">
        <ele>277</ele>
        <time>2022-09-18T07:15:19.000Z</time>
      </trkpt>
      <trkpt lat="49.79377" lon="4.79876">
        <ele>277</ele>
        <time>2022-09-18T07:15:20.000Z</time>
      </trkpt>
      <trkpt lat="49.79378" lon="4.79873">
        <ele>277</ele>
        <time>2022-09-18T07:15:21.000Z</time>
      </trkpt>
      <trkpt lat="49.7938" lon="4.7987">
        <ele>277</ele>
        <time>2022-09-18T07:15:22.000Z</time>
      </trkpt>
      <trkpt lat="49.79381" lon="4.79867">
        <ele>277</ele>
        <time>2022-09-18T07:15:23.000Z</time>
      </trkpt>
      <trkpt lat="49.79383" lon="4.79864">
        <ele>277</ele>
        <time>2022-09-18T07:15:24.000Z</time>
      </trkpt>
      <trkpt lat="49.79384" lon="4.79861">
        <ele>277</ele>
        <time>2022-09-18T07:15:25.000Z</time>
      </trkpt>
      <trkpt lat="49.79385" lon="4.79859">
        <ele>277</ele>
        <time>2022-09-18T07:15:26.000Z</time>
      </trkpt>
      <trkpt lat="49.79386" lon="4.79856">
        <ele>277</ele>
        <time>2022-09-18T07:15:27.000Z</time>
      </trkpt>
      <trkpt lat="49.79388" lon="4.79855">
        <ele>277</ele>
        <time>2022-09-18T07:15:28.000Z</time>
      </trkpt>
      <trkpt lat="49.79389" lon="4.79854">
        <ele>277</ele>
        <time>2022-09-18T07:15:29.000Z</time>
      </trkpt>
      <trkpt lat="49.79391" lon="4.79854">
        <ele>277</ele>
        <time>2022-09-18T07:15:30.000Z</time>
      </trkpt>
      <trkpt lat="49.79392" lon="4.79853">
        <ele>277</ele>
        <time>2022-09-18T07:15:31.000Z</time>
      </trkpt>
      <trkpt lat="49.79394" lon="4.79852">
        <ele>277</ele>
        <time>2022-09-18T07:15:32.000Z</time>
      </trkpt>
      <trkpt lat="49.79397" lon="4.79851">
        <ele>278</ele>
        <time>2022-09-18T07:15:33.000Z</time>
      </trkpt>
      <trkpt lat="49.79399" lon="4.7985">
        <ele>278</ele>
        <time>2022-09-18T07:15:34.000Z</time>
      </trkpt>
      <trkpt lat="49.794" lon="4.7985">
        <ele>278</ele>
        <time>2022-09-18T07:15:35.000Z</time>
      </trkpt>
      <trkpt lat="49.79402" lon="4.7985">
        <ele>278</ele>
        <time>2022-09-18T07:15:36.000Z</time>
      </trkpt>
      <trkpt lat="49.79404" lon="4.79849">
        <ele>278</ele>
        <time>2022-09-18T07:15:37.000Z</time>
      </trkpt>
      <trkpt lat="49.79406" lon="4.79848">
        <ele>278</ele>
        <time>2022-09-18T07:15:38.000Z</time>
      </trkpt>
      <trkpt lat="49.79408" lon="4.79848">
        <ele>278</ele>
        <time>2022-09-18T07:15:39.000Z</time>
      </trkpt>
      <trkpt lat="49.7941" lon="4.79848">
        <ele>278</ele>
        <time>2022-09-18T07:15:40.000Z</time>
      </trkpt>
      <trkpt lat="49.79412" lon="4.79848">
        <ele>279</ele>
        <time>2022-09-18T07:15:41.000Z</time>
      </trkpt>
      <trkpt lat="49.79414" lon="4.79848">
        <ele>279</ele>
        <time>2022-09-18T07:15:42.000Z</time>
      </trkpt>
      <trkpt lat="49.79415" lon="4.79848">
        <ele>279</ele>
        <time>2022-09-18T07:15:43.000Z</time>
      </trkpt>
      <trkpt lat="49.79418" lon="4.79847">
        <ele>279</ele>
        <time>2022-09-18T07:15:44.000Z</time>
      </trkpt>
      <trkpt lat="49.7942" lon="4.79847">
        <ele>279</ele>
        <time>2022-09-18T07:15:45.000Z</time>
      </trkpt>
      <trkpt lat="49.79423" lon="4.79846">
        <ele>279</ele>
        <time>2022-09-18T07:15:46.000Z</time>
      </trkpt>
      <trkpt lat="49.79426" lon="4.79846">
        <ele>280</ele>
        <time>2022-09-18T07:15:47.000Z</time>
      </trkpt>
      <trkpt lat="49.79428" lon="4.79846">
        <ele>280</ele>
        <time>2022-09-18T07:15:48.000Z</time>
      </trkpt>
      <trkpt lat="49.79431" lon="4.79846">
        <ele>280</ele>
        <time>2022-09-18T07:15:49.000Z</time>
      </trkpt>
      <trkpt lat="49.79434" lon="4.79846">
        <ele>281</ele>
        <time>2022-09-18T07:15:50.000Z</time>
      </trkpt>
      <trkpt lat="49.79436" lon="4.79846">
        <ele>281</ele>
        <time>2022-09-18T07:15:51.000Z</time>
      </trkpt>
      <trkpt lat="49.79439" lon="4.79845">
        <ele>281</ele>
        <time>2022-09-18T07:15:52.000Z</time>
      </trkpt>
      <trkpt lat="49.79442" lon="4.79845">
        <ele>282</ele>
        <time>2022-09-18T07:15:53.000Z</time>
      </trkpt>
      <trkpt lat="49.79445" lon="4.79844">
        <ele>282</ele>
        <time>2022-09-18T07:15:54.000Z</time>
      </trkpt>
      <trkpt lat="49.79448" lon="4.79843">
        <ele>282</ele>
        <time>2022-09-18T07:15:55.000Z</time>
      </trkpt>
      <trkpt lat="49.79451" lon="4.79842">
        <ele>283</ele>
        <time>2022-09-18T07:15:56.000Z</time>
      </trkpt>
      <trkpt lat="49.79454" lon="4.79841">
        <ele>283</ele>
        <time>2022-09-18T07:15:57.000Z</time>
      </trkpt>
      <trkpt lat="49.79458" lon="4.79841">
        <ele>283</ele>
        <time>2022-09-18T07:15:58.000Z</time>
      </trkpt>
      <trkpt lat="49.79461" lon="4.79841">
        <ele>284</ele>
        <time>2022-09-18T07:15:59.000Z</time>
      </trkpt>
      <trkpt lat="49.79463" lon="4.79841">
        <ele>284</ele>
        <time>2022-09-18T07:16:00.000Z</time>
      </trkpt>
      <trkpt lat="49.79466" lon="4.79841">
        <ele>284</ele>
        <time>2022-09-18T07:16:01.000Z</time>
      </trkpt>
      <trkpt lat="49.79468" lon="4.79841">
        <ele>285</ele>
        <time>2022-09-18T07:16:02.000Z</time>
      </trkpt>
      <trkpt lat="49.7947" lon="4.79841">
        <ele>285</ele>
        <time>2022-09-18T07:16:03.000Z</time>
      </trkpt>
      <trkpt lat="49.79472" lon="4.79841">
        <ele>285</ele>
        <time>2022-09-18T07:16:04.000Z</time>
      </trkpt>
      <trkpt lat="49.79474" lon="4.79839">
        <ele>285</ele>
        <time>2022-09-18T07:16:05.000Z</time>
      </trkpt>
      <trkpt lat="49.79477" lon="4.79838">
        <ele>285</ele>
        <time>2022-09-18T07:16:06.000Z</time>
      </trkpt>
      <trkpt lat="49.79481" lon="4.79838">
        <ele>286</ele>
        <time>2022-09-18T07:16:07.000Z</time>
      </trkpt>
      <trkpt lat="49.79484" lon="4.79838">
        <ele>286</ele>
        <time>2022-09-18T07:16:08.000Z</time>
      </trkpt>
      <trkpt lat="49.79487" lon="4.79838">
        <ele>286</ele>
        <time>2022-09-18T07:16:09.000Z</time>
      </trkpt>
      <trkpt lat="49.7949" lon="4.79837">
        <ele>286</ele>
        <time>2022-09-18T07:16:10.000Z</time>
      </trkpt>
      <trkpt lat="49.79492" lon="4.79837">
        <ele>286</ele>
        <time>2022-09-18T07:16:11.000Z</time>
      </trkpt>
      <trkpt lat="49.79494" lon="4.79837">
        <ele>286</ele>
        <time>2022-09-18T07:16:12.000Z</time>
      </trkpt>
      <trkpt lat="49.79497" lon="4.79837">
        <ele>286</ele>
        <time>2022-09-18T07:16:13.000Z</time>
      </trkpt>
      <trkpt lat="49.79499" lon="4.79836">
        <ele>287</ele>
        <time>2022-09-18T07:16:14.000Z</time>
      </trkpt>
      <trkpt lat="49.79501" lon="4.79836">
        <ele>287</ele>
        <time>2022-09-18T07:16:15.000Z</time>
      </trkpt>
      <trkpt lat="49.79504" lon="4.79836">
        <ele>287</ele>
        <time>2022-09-18T07:16:16.000Z</time>
      </trkpt>
      <trkpt lat="49.79508" lon="4.79836">
        <ele>287</ele>
        <time>2022-09-18T07:16:17.000Z</time>
      </trkpt>
      <trkpt lat="49.7951" lon="4.79836">
        <ele>288</ele>
        <time>2022-09-18T07:16:18.000Z</time>
      </trkpt>
      <trkpt lat="49.79513" lon="4.79835">
        <ele>288</ele>
        <time>2022-09-18T07:16:19.000Z</time>
      </trkpt>
      <trkpt lat="49.79515" lon="4.79835">
        <ele>288</ele>
        <time>2022-09-18T07:16:20.000Z</time>
      </trkpt>
      <trkpt lat="49.79518" lon="4.79834">
        <ele>288</ele>
        <time>2022-09-18T07:16:21.000Z</time>
      </trkpt>
      <trkpt lat="49.79521" lon="4.79834">
        <ele>289</ele>
        <time>2022-09-18T07:16:22.000Z</time>
      </trkpt>
      <trkpt lat="49.79524" lon="4.79835">
        <ele>289</ele>
        <time>2022-09-18T07:16:23.000Z</time>
      </trkpt>
      <trkpt lat="49.79527" lon="4.79835">
        <ele>289</ele>
        <time>2022-09-18T07:16:24.000Z</time>
      </trkpt>
      <trkpt lat="49.7953" lon="4.79835">
        <ele>290</ele>
        <time>2022-09-18T07:16:25.000Z</time>
      </trkpt>
      <trkpt lat="49.79533" lon="4.79834">
        <ele>290</ele>
        <time>2022-09-18T07:16:26.000Z</time>
      </trkpt>
      <trkpt lat="49.79536" lon="4.79834">
        <ele>290</ele>
        <time>2022-09-18T07:16:27.000Z</time>
      </trkpt>
      <trkpt lat="49.79538" lon="4.79833">
        <ele>290</ele>
        <time>2022-09-18T07:16:28.000Z</time>
      </trkpt>
      <trkpt lat="49.7954" lon="4.79833">
        <ele>291</ele>
        <time>2022-09-18T07:16:29.000Z</time>
      </trkpt>
      <trkpt lat="49.79543" lon="4.79832">
        <ele>291</ele>
        <time>2022-09-18T07:16:30.000Z</time>
      </trkpt>
      <trkpt lat="49.79546" lon="4.79832">
        <ele>291</ele>
        <time>2022-09-18T07:16:31.000Z</time>
      </trkpt>
      <trkpt lat="49.79549" lon="4.79832">
        <ele>291</ele>
        <time>2022-09-18T07:16:32.000Z</time>
      </trkpt>
      <trkpt lat="49.79551" lon="4.79833">
        <ele>292</ele>
        <time>2022-09-18T07:16:33.000Z</time>
      </trkpt>
      <trkpt lat="49.79554" lon="4.79833">
        <ele>292</ele>
        <time>2022-09-18T07:16:34.000Z</time>
      </trkpt>
      <trkpt lat="49.79556" lon="4.79833">
        <ele>292</ele>
        <time>2022-09-18T07:16:35.000Z</time>
      </trkpt>
      <trkpt lat="49.79558" lon="4.79833">
        <ele>293</ele>
        <time>2022-09-18T07:16:36.000Z</time>
      </trkpt>
      <trkpt lat="49.7956" lon="4.79833">
        <ele>293</ele>
        <time>2022-09-18T07:16:37.000Z</time>
      </trkpt>
      <trkpt lat="49.79563" lon="4.79833">
        <ele>293</ele>
        <time>2022-09-18T07:16:38.000Z</time>
      </trkpt>
      <trkpt lat="49.79565" lon="4.79833">
        <ele>293</ele>
        <time>2022-09-18T07:16:39.000Z</time>
      </trkpt>
      <trkpt lat="49.79567" lon="4.79833">
        <ele>294</ele>
        <time>2022-09-18T07:16:40.000Z</time>
      </trkpt>
      <trkpt lat="49.79569" lon="4.79833">
        <ele>294</ele>
        <time>2022-09-18T07:16:41.000Z</time>
      </trkpt>
      <trkpt lat="49.79571" lon="4.79833">
        <ele>294</ele>
        <time>2022-09-18T07:16:42.000Z</time>
      </trkpt>
      <trkpt lat="49.79573" lon="4.79833">
        <ele>294</ele>
        <time>2022-09-18T07:16:43.000Z</time>
      </trkpt>
      <trkpt lat="49.79576" lon="4.79833">
        <ele>295</ele>
        <time>2022-09-18T07:16:44.000Z</time>
      </trkpt>
      <trkpt lat="49.79578" lon="4.79833">
        <ele>295</ele>
        <time>2022-09-18T07:16:45.000Z</time>
      </trkpt>
      <trkpt lat="49.79581" lon="4.79833">
        <ele>295</ele>
        <time>2022-09-18T07:16:46.000Z</time>
      </trkpt>
      <trkpt lat="49.79584" lon="4.79833">
        <ele>295</ele>
        <time>2022-09-18T07:16:47.000Z</time>
      </trkpt>
      <trkpt lat="49.79587" lon="4.79832">
        <ele>295</ele>
        <time>2022-09-18T07:16:48.000Z</time>
      </trkpt>
      <trkpt lat="49.7959" lon="4.79832">
        <ele>296</ele>
        <time>2022-09-18T07:16:49.000Z</time>
      </trkpt>
      <trkpt lat="49.79593" lon="4.79832">
        <ele>296</ele>
        <time>2022-09-18T07:16:50.000Z</time>
      </trkpt>
      <trkpt lat="49.79595" lon="4.79832">
        <ele>296</ele>
        <time>2022-09-18T07:16:51.000Z</time>
      </trkpt>
      <trkpt lat="49.79598" lon="4.79831">
        <ele>296</ele>
        <time>2022-09-18T07:16:52.000Z</time>
      </trkpt>
      <trkpt lat="49.79601" lon="4.79831">
        <ele>296</ele>
        <time>2022-09-18T07:16:53.000Z</time>
      </trkpt>
      <trkpt lat="49.79603" lon="4.79831">
        <ele>297</ele>
        <time>2022-09-18T07:16:54.000Z</time>
      </trkpt>
      <trkpt lat="49.79606" lon="4.7983">
        <ele>297</ele>
        <time>2022-09-18T07:16:55.000Z</time>
      </trkpt>
      <trkpt lat="49.79609" lon="4.79829">
        <ele>297</ele>
        <time>2022-09-18T07:16:56.000Z</time>
      </trkpt>
      <trkpt lat="49.79611" lon="4.79829">
        <ele>297</ele>
        <time>2022-09-18T07:16:57.000Z</time>
      </trkpt>
      <trkpt lat="49.79614" lon="4.79828">
        <ele>298</ele>
        <time>2022-09-18T07:16:58.000Z</time>
      </trkpt>
      <trkpt lat="49.79616" lon="4.79828">
        <ele>298</ele>
        <time>2022-09-18T07:16:59.000Z</time>
      </trkpt>
      <trkpt lat="49.79619" lon="4.79827">
        <ele>298</ele>
        <time>2022-09-18T07:17:00.000Z</time>
      </trkpt>
      <trkpt lat="49.79621" lon="4.79826">
        <ele>298</ele>
        <time>2022-09-18T07:17:01.000Z</time>
      </trkpt>
      <trkpt lat="49.79624" lon="4.79826">
        <ele>298</ele>
        <time>2022-09-18T07:17:02.000Z</time>
      </trkpt>
      <trkpt lat="49.79626" lon="4.79826">
        <ele>299</ele>
        <time>2022-09-18T07:17:03.000Z</time>
      </trkpt>
      <trkpt lat="49.79628" lon="4.79826">
        <ele>299</ele>
        <time>2022-09-18T07:17:04.000Z</time>
      </trkpt>
      <trkpt lat="49.79631" lon="4.79825">
        <ele>299</ele>
        <time>2022-09-18T07:17:05.000Z</time>
      </trkpt>
      <trkpt lat="49.79633" lon="4.79825">
        <ele>299</ele>
        <time>2022-09-18T07:17:06.000Z</time>
      </trkpt>
      <trkpt lat="49.79636" lon="4.79825">
        <ele>299</ele>
        <time>2022-09-18T07:17:07.000Z</time>
      </trkpt>
      <trkpt lat="49.79639" lon="4.79825">
        <ele>299</ele>
        <time>2022-09-18T07:17:08.000Z</time>
      </trkpt>
      <trkpt lat="49.79643" lon="4.79825">
        <ele>299</ele>
        <time>2022-09-18T07:17:09.000Z</time>
      </trkpt>
      <trkpt lat="49.79646" lon="4.79825">
        <ele>299</ele>
        <time>2022-09-18T07:17:10.000Z</time>
      </trkpt>
      <trkpt lat="49.79649" lon="4.79824">
        <ele>299</ele>
        <time>2022-09-18T07:17:11.000Z</time>
      </trkpt>
      <trkpt lat="49.79652" lon="4.79824">
        <ele>299</ele>
        <time>2022-09-18T07:17:12.000Z</time>
      </trkpt>
      <trkpt lat="49.79654" lon="4.79824">
        <ele>299</ele>
        <time>2022-09-18T07:17:13.000Z</time>
      </trkpt>
      <trkpt lat="49.79658" lon="4.79824">
        <ele>299</ele>
        <time>2022-09-18T07:17:14.000Z</time>
      </trkpt>
      <trkpt lat="49.79661" lon="4.79824">
        <ele>299</ele>
        <time>2022-09-18T07:17:15.000Z</time>
      </trkpt>
      <trkpt lat="49.79665" lon="4.79824">
        <ele>300</ele>
        <time>2022-09-18T07:17:16.000Z</time>
      </trkpt>
      <trkpt lat="49.79669" lon="4.79824">
        <ele>300</ele>
        <time>2022-09-18T07:17:17.000Z</time>
      </trkpt>
      <trkpt lat="49.79673" lon="4.79824">
        <ele>300</ele>
        <time>2022-09-18T07:17:18.000Z</time>
      </trkpt>
      <trkpt lat="49.79677" lon="4.79824">
        <ele>300</ele>
        <time>2022-09-18T07:17:19.000Z</time>
      </trkpt>
      <trkpt lat="49.79681" lon="4.79823">
        <ele>300</ele>
        <time>2022-09-18T07:17:20.000Z</time>
      </trkpt>
      <trkpt lat="49.79685" lon="4.79822">
        <ele>300</ele>
        <time>2022-09-18T07:17:21.000Z</time>
      </trkpt>
      <trkpt lat="49.79689" lon="4.79821">
        <ele>300</ele>
        <time>2022-09-18T07:17:22.000Z</time>
      </trkpt>
      <trkpt lat="49.79692" lon="4.79821">
        <ele>300</ele>
        <time>2022-09-18T07:17:23.000Z</time>
      </trkpt>
      <trkpt lat="49.79695" lon="4.7982">
        <ele>300</ele>
        <time>2022-09-18T07:17:24.000Z</time>
      </trkpt>
      <trkpt lat="49.79699" lon="4.7982">
        <ele>300</ele>
        <time>2022-09-18T07:17:25.000Z</time>
      </trkpt>
      <trkpt lat="49.79703" lon="4.7982">
        <ele>300</ele>
        <time>2022-09-18T07:17:26.000Z</time>
      </trkpt>
      <trkpt lat="49.79707" lon="4.7982">
        <ele>300</ele>
        <time>2022-09-18T07:17:27.000Z</time>
      </trkpt>
      <trkpt lat="49.7971" lon="4.7982">
        <ele>300</ele>
        <time>2022-09-18T07:17:28.000Z</time>
      </trkpt>
      <trkpt lat="49.79714" lon="4.7982">
        <ele>300</ele>
        <time>2022-09-18T07:17:29.000Z</time>
      </trkpt>
      <trkpt lat="49.79717" lon="4.7982">
        <ele>301</ele>
        <time>2022-09-18T07:17:30.000Z</time>
      </trkpt>
      <trkpt lat="49.7972" lon="4.7982">
        <ele>301</ele>
        <time>2022-09-18T07:17:31.000Z</time>
      </trkpt>
      <trkpt lat="49.79723" lon="4.79819">
        <ele>301</ele>
        <time>2022-09-18T07:17:32.000Z</time>
      </trkpt>
      <trkpt lat="49.79727" lon="4.79819">
        <ele>301</ele>
        <time>2022-09-18T07:17:33.000Z</time>
      </trkpt>
      <trkpt lat="49.7973" lon="4.79818">
        <ele>301</ele>
        <time>2022-09-18T07:17:34.000Z</time>
      </trkpt>
      <trkpt lat="49.79734" lon="4.79818">
        <ele>301</ele>
        <time>2022-09-18T07:17:35.000Z</time>
      </trkpt>
      <trkpt lat="49.79738" lon="4.79818">
        <ele>301</ele>
        <time>2022-09-18T07:17:36.000Z</time>
      </trkpt>
      <trkpt lat="49.79741" lon="4.79817">
        <ele>301</ele>
        <time>2022-09-18T07:17:37.000Z</time>
      </trkpt>
      <trkpt lat="49.79744" lon="4.79816">
        <ele>301</ele>
        <time>2022-09-18T07:17:38.000Z</time>
      </trkpt>
      <trkpt lat="49.79748" lon="4.79817">
        <ele>301</ele>
        <time>2022-09-18T07:17:39.000Z</time>
      </trkpt>
      <trkpt lat="49.79751" lon="4.79817">
        <ele>301</ele>
        <time>2022-09-18T07:17:40.000Z</time>
      </trkpt>
      <trkpt lat="49.79755" lon="4.79817">
        <ele>301</ele>
        <time>2022-09-18T07:17:41.000Z</time>
      </trkpt>
      <trkpt lat="49.79759" lon="4.79816">
        <ele>301</ele>
        <time>2022-09-18T07:17:42.000Z</time>
      </trkpt>
      <trkpt lat="49.79762" lon="4.79817">
        <ele>301</ele>
        <time>2022-09-18T07:17:43.000Z</time>
      </trkpt>
      <trkpt lat="49.79765" lon="4.79817">
        <ele>301</ele>
        <time>2022-09-18T07:17:44.000Z</time>
      </trkpt>
      <trkpt lat="49.79769" lon="4.79817">
        <ele>301</ele>
        <time>2022-09-18T07:17:45.000Z</time>
      </trkpt>
      <trkpt lat="49.79773" lon="4.79816">
        <ele>301</ele>
        <time>2022-09-18T07:17:46.000Z</time>
      </trkpt>
      <trkpt lat="49.79776" lon="4.79814">
        <ele>301</ele>
        <time>2022-09-18T07:17:47.000Z</time>
      </trkpt>
      <trkpt lat="49.79781" lon="4.79814">
        <ele>301</ele>
        <time>2022-09-18T07:17:48.000Z</time>
      </trkpt>
      <trkpt lat="49.79786" lon="4.79814">
        <ele>301</ele>
        <time>2022-09-18T07:17:49.000Z</time>
      </trkpt>
      <trkpt lat="49.79791" lon="4.79813">
        <ele>301</ele>
        <time>2022-09-18T07:17:50.000Z</time>
      </trkpt>
      <trkpt lat="49.79796" lon="4.79812">
        <ele>301</ele>
        <time>2022-09-18T07:17:51.000Z</time>
      </trkpt>
      <trkpt lat="49.79801" lon="4.79811">
        <ele>301</ele>
        <time>2022-09-18T07:17:52.000Z</time>
      </trkpt>
      <trkpt lat="49.79806" lon="4.79811">
        <ele>301</ele>
        <time>2022-09-18T07:17:53.000Z</time>
      </trkpt>
      <trkpt lat="49.79811" lon="4.7981">
        <ele>301</ele>
        <time>2022-09-18T07:17:54.000Z</time>
      </trkpt>
      <trkpt lat="49.79816" lon="4.79809">
        <ele>301</ele>
        <time>2022-09-18T07:17:55.000Z</time>
      </trkpt>
      <trkpt lat="49.7982" lon="4.79809">
        <ele>301</ele>
        <time>2022-09-18T07:17:56.000Z</time>
      </trkpt>
      <trkpt lat="49.79825" lon="4.79808">
        <ele>301</ele>
        <time>2022-09-18T07:17:57.000Z</time>
      </trkpt>
      <trkpt lat="49.7983" lon="4.79808">
        <ele>301</ele>
        <time>2022-09-18T07:17:58.000Z</time>
      </trkpt>
      <trkpt lat="49.79835" lon="4.79808">
        <ele>301</ele>
        <time>2022-09-18T07:17:59.000Z</time>
      </trkpt>
      <trkpt lat="49.7984" lon="4.79808">
        <ele>301</ele>
        <time>2022-09-18T07:18:00.000Z</time>
      </trkpt>
      <trkpt lat="49.79845" lon="4.79808">
        <ele>301</ele>
        <time>2022-09-18T07:18:01.000Z</time>
      </trkpt>
      <trkpt lat="49.7985" lon="4.79808">
        <ele>301</ele>
        <time>2022-09-18T07:18:02.000Z</time>
      </trkpt>
      <trkpt lat="49.79854" lon="4.79807">
        <ele>301</ele>
        <time>2022-09-18T07:18:03.000Z</time>
      </trkpt>
      <trkpt lat="49.79858" lon="4.79807">
        <ele>301</ele>
        <time>2022-09-18T07:18:04.000Z</time>
      </trkpt>
      <trkpt lat="49.79863" lon="4.79805">
        <ele>301</ele>
        <time>2022-09-18T07:18:05.000Z</time>
      </trkpt>
      <trkpt lat="49.79867" lon="4.79805">
        <ele>301</ele>
        <time>2022-09-18T07:18:06.000Z</time>
      </trkpt>
      <trkpt lat="49.79872" lon="4.79804">
        <ele>301</ele>
        <time>2022-09-18T07:18:07.000Z</time>
      </trkpt>
      <trkpt lat="49.79877" lon="4.79803">
        <ele>301</ele>
        <time>2022-09-18T07:18:08.000Z</time>
      </trkpt>
      <trkpt lat="49.79881" lon="4.79803">
        <ele>301</ele>
        <time>2022-09-18T07:18:09.000Z</time>
      </trkpt>
      <trkpt lat="49.79886" lon="4.79802">
        <ele>301</ele>
        <time>2022-09-18T07:18:10.000Z</time>
      </trkpt>
      <trkpt lat="49.7989" lon="4.79802">
        <ele>301</ele>
        <time>2022-09-18T07:18:11.000Z</time>
      </trkpt>
      <trkpt lat="49.79895" lon="4.79802">
        <ele>301</ele>
        <time>2022-09-18T07:18:12.000Z</time>
      </trkpt>
      <trkpt lat="49.79899" lon="4.79802">
        <ele>301</ele>
        <time>2022-09-18T07:18:13.000Z</time>
      </trkpt>
      <trkpt lat="49.79903" lon="4.79802">
        <ele>301</ele>
        <time>2022-09-18T07:18:14.000Z</time>
      </trkpt>
      <trkpt lat="49.79906" lon="4.79802">
        <ele>301</ele>
        <time>2022-09-18T07:18:15.000Z</time>
      </trkpt>
      <trkpt lat="49.7991" lon="4.79802">
        <ele>301</ele>
        <time>2022-09-18T07:18:16.000Z</time>
      </trkpt>
      <trkpt lat="49.79915" lon="4.79802">
        <ele>301</ele>
        <time>2022-09-18T07:18:17.000Z</time>
      </trkpt>
      <trkpt lat="49.7992" lon="4.79801">
        <ele>301</ele>
        <time>2022-09-18T07:18:18.000Z</time>
      </trkpt>
      <trkpt lat="49.79924" lon="4.798">
        <ele>301</ele>
        <time>2022-09-18T07:18:19.000Z</time>
      </trkpt>
      <trkpt lat="49.79929" lon="4.79799">
        <ele>301</ele>
        <time>2022-09-18T07:18:20.000Z</time>
      </trkpt>
      <trkpt lat="49.79933" lon="4.79799">
        <ele>301</ele>
        <time>2022-09-18T07:18:21.000Z</time>
      </trkpt>
      <trkpt lat="49.79937" lon="4.79799">
        <ele>301</ele>
        <time>2022-09-18T07:18:22.000Z</time>
      </trkpt>
      <trkpt lat="49.79942" lon="4.79799">
        <ele>301</ele>
        <time>2022-09-18T07:18:23.000Z</time>
      </trkpt>
      <trkpt lat="49.79946" lon="4.798">
        <ele>301</ele>
        <time>2022-09-18T07:18:24.000Z</time>
      </trkpt>
      <trkpt lat="49.79951" lon="4.79799">
        <ele>301</ele>
        <time>2022-09-18T07:18:25.000Z</time>
      </trkpt>
      <trkpt lat="49.79956" lon="4.79799">
        <ele>301</ele>
        <time>2022-09-18T07:18:26.000Z</time>
      </trkpt>
      <trkpt lat="49.79961" lon="4.79799">
        <ele>301</ele>
        <time>2022-09-18T07:18:27.000Z</time>
      </trkpt>
      <trkpt lat="49.79966" lon="4.79798">
        <ele>301</ele>
        <time>2022-09-18T07:18:28.000Z</time>
      </trkpt>
      <trkpt lat="49.79971" lon="4.79797">
        <ele>302</ele>
        <time>2022-09-18T07:18:29.000Z</time>
      </trkpt>
      <trkpt lat="49.79977" lon="4.79797">
        <ele>302</ele>
        <time>2022-09-18T07:18:30.000Z</time>
      </trkpt>
      <trkpt lat="49.79983" lon="4.79796">
        <ele>302</ele>
        <time>2022-09-18T07:18:31.000Z</time>
      </trkpt>
      <trkpt lat="49.79988" lon="4.79795">
        <ele>302</ele>
        <time>2022-09-18T07:18:32.000Z</time>
      </trkpt>
      <trkpt lat="49.79992" lon="4.79794">
        <ele>302</ele>
        <time>2022-09-18T07:18:33.000Z</time>
      </trkpt>
      <trkpt lat="49.79997" lon="4.79794">
        <ele>302</ele>
        <time>2022-09-18T07:18:34.000Z</time>
      </trkpt>
      <trkpt lat="49.80002" lon="4.79794">
        <ele>302</ele>
        <time>2022-09-18T07:18:35.000Z</time>
      </trkpt>
      <trkpt lat="49.80005" lon="4.79794">
        <ele>303</ele>
        <time>2022-09-18T07:18:36.000Z</time>
      </trkpt>
      <trkpt lat="49.80008" lon="4.79794">
        <ele>303</ele>
        <time>2022-09-18T07:18:37.000Z</time>
      </trkpt>
      <trkpt lat="49.80012" lon="4.79793">
        <ele>303</ele>
        <time>2022-09-18T07:18:38.000Z</time>
      </trkpt>
      <trkpt lat="49.80017" lon="4.79793">
        <ele>303</ele>
        <time>2022-09-18T07:18:39.000Z</time>
      </trkpt>
      <trkpt lat="49.80022" lon="4.79794">
        <ele>303</ele>
        <time>2022-09-18T07:18:40.000Z</time>
      </trkpt>
      <trkpt lat="49.80027" lon="4.79794">
        <ele>303</ele>
        <time>2022-09-18T07:18:41.000Z</time>
      </trkpt>
      <trkpt lat="49.80033" lon="4.79793">
        <ele>303</ele>
        <time>2022-09-18T07:18:42.000Z</time>
      </trkpt>
      <trkpt lat="49.80038" lon="4.79792">
        <ele>303</ele>
        <time>2022-09-18T07:18:43.000Z</time>
      </trkpt>
      <trkpt lat="49.80044" lon="4.79792">
        <ele>303</ele>
        <time>2022-09-18T07:18:44.000Z</time>
      </trkpt>
      <trkpt lat="49.8005" lon="4.79792">
        <ele>303</ele>
        <time>2022-09-18T07:18:45.000Z</time>
      </trkpt>
      <trkpt lat="49.80056" lon="4.79792">
        <ele>303</ele>
        <time>2022-09-18T07:18:46.000Z</time>
      </trkpt>
      <trkpt lat="49.80062" lon="4.79791">
        <ele>303</ele>
        <time>2022-09-18T07:18:47.000Z</time>
      </trkpt>
      <trkpt lat="49.80067" lon="4.7979">
        <ele>303</ele>
        <time>2022-09-18T07:18:48.000Z</time>
      </trkpt>
      <trkpt lat="49.80073" lon="4.79789">
        <ele>303</ele>
        <time>2022-09-18T07:18:49.000Z</time>
      </trkpt>
      <trkpt lat="49.80078" lon="4.79788">
        <ele>303</ele>
        <time>2022-09-18T07:18:50.000Z</time>
      </trkpt>
      <trkpt lat="49.80084" lon="4.79787">
        <ele>302</ele>
        <time>2022-09-18T07:18:51.000Z</time>
      </trkpt>
      <trkpt lat="49.80089" lon="4.79787">
        <ele>302</ele>
        <time>2022-09-18T07:18:52.000Z</time>
      </trkpt>
      <trkpt lat="49.80095" lon="4.79787">
        <ele>302</ele>
        <time>2022-09-18T07:18:53.000Z</time>
      </trkpt>
      <trkpt lat="49.80101" lon="4.79787">
        <ele>302</ele>
        <time>2022-09-18T07:18:54.000Z</time>
      </trkpt>
      <trkpt lat="49.80107" lon="4.79786">
        <ele>302</ele>
        <time>2022-09-18T07:18:55.000Z</time>
      </trkpt>
      <trkpt lat="49.80112" lon="4.79786">
        <ele>301</ele>
        <time>2022-09-18T07:18:56.000Z</time>
      </trkpt>
      <trkpt lat="49.80117" lon="4.79786">
        <ele>301</ele>
        <time>2022-09-18T07:18:57.000Z</time>
      </trkpt>
      <trkpt lat="49.80122" lon="4.79785">
        <ele>301</ele>
        <time>2022-09-18T07:18:58.000Z</time>
      </trkpt>
      <trkpt lat="49.80128" lon="4.79785">
        <ele>300</ele>
        <time>2022-09-18T07:18:59.000Z</time>
      </trkpt>
      <trkpt lat="49.80133" lon="4.79784">
        <ele>300</ele>
        <time>2022-09-18T07:19:00.000Z</time>
      </trkpt>
      <trkpt lat="49.80138" lon="4.79783">
        <ele>300</ele>
        <time>2022-09-18T07:19:01.000Z</time>
      </trkpt>
      <trkpt lat="49.80143" lon="4.79782">
        <ele>300</ele>
        <time>2022-09-18T07:19:02.000Z</time>
      </trkpt>
      <trkpt lat="49.80148" lon="4.79781">
        <ele>299</ele>
        <time>2022-09-18T07:19:03.000Z</time>
      </trkpt>
      <trkpt lat="49.80153" lon="4.7978">
        <ele>299</ele>
        <time>2022-09-18T07:19:04.000Z</time>
      </trkpt>
      <trkpt lat="49.80157" lon="4.79778">
        <ele>299</ele>
        <time>2022-09-18T07:19:05.000Z</time>
      </trkpt>
      <trkpt lat="49.8016" lon="4.79777">
        <ele>299</ele>
        <time>2022-09-18T07:19:06.000Z</time>
      </trkpt>
      <trkpt lat="49.80163" lon="4.79778">
        <ele>298</ele>
        <time>2022-09-18T07:19:07.000Z</time>
      </trkpt>
      <trkpt lat="49.80166" lon="4.79779">
        <ele>298</ele>
        <time>2022-09-18T07:19:08.000Z</time>
      </trkpt>
      <trkpt lat="49.80168" lon="4.79781">
        <ele>298</ele>
        <time>2022-09-18T07:19:09.000Z</time>
      </trkpt>
      <trkpt lat="49.80171" lon="4.79783">
        <ele>298</ele>
        <time>2022-09-18T07:19:10.000Z</time>
      </trkpt>
      <trkpt lat="49.80174" lon="4.79786">
        <ele>297</ele>
        <time>2022-09-18T07:19:11.000Z</time>
      </trkpt>
      <trkpt lat="49.80176" lon="4.7979">
        <ele>297</ele>
        <time>2022-09-18T07:19:12.000Z</time>
      </trkpt>
      <trkpt lat="49.80179" lon="4.79794">
        <ele>297</ele>
        <time>2022-09-18T07:19:13.000Z</time>
      </trkpt>
      <trkpt lat="49.80181" lon="4.79798">
        <ele>296</ele>
        <time>2022-09-18T07:19:14.000Z</time>
      </trkpt>
      <trkpt lat="49.80182" lon="4.79803">
        <ele>296</ele>
        <time>2022-09-18T07:19:15.000Z</time>
      </trkpt>
      <trkpt lat="49.80184" lon="4.79807">
        <ele>295</ele>
        <time>2022-09-18T07:19:16.000Z</time>
      </trkpt>
      <trkpt lat="49.80186" lon="4.79811">
        <ele>295</ele>
        <time>2022-09-18T07:19:17.000Z</time>
      </trkpt>
      <trkpt lat="49.80187" lon="4.79815">
        <ele>295</ele>
        <time>2022-09-18T07:19:18.000Z</time>
      </trkpt>
      <trkpt lat="49.80188" lon="4.79818">
        <ele>294</ele>
        <time>2022-09-18T07:19:19.000Z</time>
      </trkpt>
      <trkpt lat="49.80191" lon="4.7982">
        <ele>294</ele>
        <time>2022-09-18T07:19:20.000Z</time>
      </trkpt>
      <trkpt lat="49.80193" lon="4.7982">
        <ele>294</ele>
        <time>2022-09-18T07:19:21.000Z</time>
      </trkpt>
      <trkpt lat="49.80197" lon="4.7982">
        <ele>293</ele>
        <time>2022-09-18T07:19:22.000Z</time>
      </trkpt>
      <trkpt lat="49.80201" lon="4.79821">
        <ele>293</ele>
        <time>2022-09-18T07:19:23.000Z</time>
      </trkpt>
      <trkpt lat="49.80204" lon="4.79822">
        <ele>293</ele>
        <time>2022-09-18T07:19:24.000Z</time>
      </trkpt>
      <trkpt lat="49.80208" lon="4.79823">
        <ele>293</ele>
        <time>2022-09-18T07:19:25.000Z</time>
      </trkpt>
      <trkpt lat="49.80211" lon="4.79824">
        <ele>293</ele>
        <time>2022-09-18T07:19:26.000Z</time>
      </trkpt>
      <trkpt lat="49.80214" lon="4.79824">
        <ele>293</ele>
        <time>2022-09-18T07:19:27.000Z</time>
      </trkpt>
      <trkpt lat="49.80217" lon="4.79824">
        <ele>292</ele>
        <time>2022-09-18T07:19:28.000Z</time>
      </trkpt>
      <trkpt lat="49.8022" lon="4.79824">
        <ele>292</ele>
        <time>2022-09-18T07:19:29.000Z</time>
      </trkpt>
      <trkpt lat="49.80223" lon="4.79824">
        <ele>292</ele>
        <time>2022-09-18T07:19:30.000Z</time>
      </trkpt>
      <trkpt lat="49.80226" lon="4.79825">
        <ele>292</ele>
        <time>2022-09-18T07:19:31.000Z</time>
      </trkpt>
      <trkpt lat="49.80229" lon="4.79825">
        <ele>292</ele>
        <time>2022-09-18T07:19:32.000Z</time>
      </trkpt>
      <trkpt lat="49.80232" lon="4.79826">
        <ele>291</ele>
        <time>2022-09-18T07:19:33.000Z</time>
      </trkpt>
      <trkpt lat="49.80235" lon="4.79826">
        <ele>291</ele>
        <time>2022-09-18T07:19:34.000Z</time>
      </trkpt>
      <trkpt lat="49.80238" lon="4.79826">
        <ele>291</ele>
        <time>2022-09-18T07:19:35.000Z</time>
      </trkpt>
      <trkpt lat="49.80241" lon="4.79826">
        <ele>290</ele>
        <time>2022-09-18T07:19:36.000Z</time>
      </trkpt>
      <trkpt lat="49.80244" lon="4.79827">
        <ele>290</ele>
        <time>2022-09-18T07:19:37.000Z</time>
      </trkpt>
      <trkpt lat="49.80248" lon="4.79828">
        <ele>290</ele>
        <time>2022-09-18T07:19:38.000Z</time>
      </trkpt>
      <trkpt lat="49.80251" lon="4.79828">
        <ele>290</ele>
        <time>2022-09-18T07:19:39.000Z</time>
      </trkpt>
      <trkpt lat="49.80254" lon="4.79828">
        <ele>289</ele>
        <time>2022-09-18T07:19:40.000Z</time>
      </trkpt>
      <trkpt lat="49.80256" lon="4.79828">
        <ele>289</ele>
        <time>2022-09-18T07:19:41.000Z</time>
      </trkpt>
      <trkpt lat="49.80258" lon="4.79828">
        <ele>289</ele>
        <time>2022-09-18T07:19:42.000Z</time>
      </trkpt>
      <trkpt lat="49.80261" lon="4.79828">
        <ele>289</ele>
        <time>2022-09-18T07:19:43.000Z</time>
      </trkpt>
      <trkpt lat="49.80263" lon="4.79828">
        <ele>289</ele>
        <time>2022-09-18T07:19:44.000Z</time>
      </trkpt>
      <trkpt lat="49.80265" lon="4.79828">
        <ele>289</ele>
        <time>2022-09-18T07:19:45.000Z</time>
      </trkpt>
      <trkpt lat="49.80267" lon="4.79829">
        <ele>289</ele>
        <time>2022-09-18T07:19:46.000Z</time>
      </trkpt>
      <trkpt lat="49.80269" lon="4.7983">
        <ele>289</ele>
        <time>2022-09-18T07:19:47.000Z</time>
      </trkpt>
      <trkpt lat="49.80271" lon="4.7983">
        <ele>289</ele>
        <time>2022-09-18T07:19:48.000Z</time>
      </trkpt>
      <trkpt lat="49.80274" lon="4.79831">
        <ele>289</ele>
        <time>2022-09-18T07:19:49.000Z</time>
      </trkpt>
      <trkpt lat="49.80276" lon="4.79831">
        <ele>289</ele>
        <time>2022-09-18T07:19:50.000Z</time>
      </trkpt>
      <trkpt lat="49.80278" lon="4.79831">
        <ele>288</ele>
        <time>2022-09-18T07:19:51.000Z</time>
      </trkpt>
      <trkpt lat="49.80281" lon="4.79832">
        <ele>288</ele>
        <time>2022-09-18T07:19:52.000Z</time>
      </trkpt>
      <trkpt lat="49.80283" lon="4.79833">
        <ele>288</ele>
        <time>2022-09-18T07:19:53.000Z</time>
      </trkpt>
      <trkpt lat="49.80286" lon="4.79834">
        <ele>288</ele>
        <time>2022-09-18T07:19:54.000Z</time>
      </trkpt>
      <trkpt lat="49.80287" lon="4.79835">
        <ele>288</ele>
        <time>2022-09-18T07:19:55.000Z</time>
      </trkpt>
      <trkpt lat="49.80289" lon="4.79837">
        <ele>288</ele>
        <time>2022-09-18T07:19:56.000Z</time>
      </trkpt>
      <trkpt lat="49.8029" lon="4.79839">
        <ele>288</ele>
        <time>2022-09-18T07:19:57.000Z</time>
      </trkpt>
      <trkpt lat="49.80291" lon="4.79842">
        <ele>288</ele>
        <time>2022-09-18T07:19:58.000Z</time>
      </trkpt>
      <trkpt lat="49.80292" lon="4.79844">
        <ele>288</ele>
        <time>2022-09-18T07:19:59.000Z</time>
      </trkpt>
      <trkpt lat="49.80293" lon="4.79846">
        <ele>288</ele>
        <time>2022-09-18T07:20:00.000Z</time>
      </trkpt>
      <trkpt lat="49.80295" lon="4.79848">
        <ele>288</ele>
        <time>2022-09-18T07:20:01.000Z</time>
      </trkpt>
      <trkpt lat="49.80297" lon="4.7985">
        <ele>289</ele>
        <time>2022-09-18T07:20:02.000Z</time>
      </trkpt>
      <trkpt lat="49.80299" lon="4.79851">
        <ele>289</ele>
        <time>2022-09-18T07:20:03.000Z</time>
      </trkpt>
      <trkpt lat="49.80301" lon="4.79853">
        <ele>289</ele>
        <time>2022-09-18T07:20:04.000Z</time>
      </trkpt>
      <trkpt lat="49.80303" lon="4.79856">
        <ele>289</ele>
        <time>2022-09-18T07:20:05.000Z</time>
      </trkpt>
      <trkpt lat="49.80305" lon="4.79858">
        <ele>289</ele>
        <time>2022-09-18T07:20:06.000Z</time>
      </trkpt>
      <trkpt lat="49.80307" lon="4.79861">
        <ele>289</ele>
        <time>2022-09-18T07:20:07.000Z</time>
      </trkpt>
      <trkpt lat="49.8031" lon="4.79864">
        <ele>289</ele>
        <time>2022-09-18T07:20:08.000Z</time>
      </trkpt>
      <trkpt lat="49.80312" lon="4.79867">
        <ele>289</ele>
        <time>2022-09-18T07:20:09.000Z</time>
      </trkpt>
      <trkpt lat="49.80313" lon="4.7987">
        <ele>289</ele>
        <time>2022-09-18T07:20:10.000Z</time>
      </trkpt>
      <trkpt lat="49.80314" lon="4.79873">
        <ele>289</ele>
        <time>2022-09-18T07:20:11.000Z</time>
      </trkpt>
      <trkpt lat="49.80314" lon="4.79878">
        <ele>289</ele>
        <time>2022-09-18T07:20:12.000Z</time>
      </trkpt>
      <trkpt lat="49.80313" lon="4.79882">
        <ele>289</ele>
        <time>2022-09-18T07:20:13.000Z</time>
      </trkpt>
      <trkpt lat="49.80313" lon="4.79886">
        <ele>289</ele>
        <time>2022-09-18T07:20:14.000Z</time>
      </trkpt>
      <trkpt lat="49.80312" lon="4.7989">
        <ele>289</ele>
        <time>2022-09-18T07:20:15.000Z</time>
      </trkpt>
      <trkpt lat="49.80311" lon="4.79894">
        <ele>289</ele>
        <time>2022-09-18T07:20:16.000Z</time>
      </trkpt>
      <trkpt lat="49.80311" lon="4.79899">
        <ele>289</ele>
        <time>2022-09-18T07:20:17.000Z</time>
      </trkpt>
      <trkpt lat="49.8031" lon="4.79903">
        <ele>289</ele>
        <time>2022-09-18T07:20:18.000Z</time>
      </trkpt>
      <trkpt lat="49.8031" lon="4.79908">
        <ele>289</ele>
        <time>2022-09-18T07:20:19.000Z</time>
      </trkpt>
      <trkpt lat="49.80309" lon="4.79913">
        <ele>289</ele>
        <time>2022-09-18T07:20:20.000Z</time>
      </trkpt>
      <trkpt lat="49.80309" lon="4.79917">
        <ele>289</ele>
        <time>2022-09-18T07:20:21.000Z</time>
      </trkpt>
      <trkpt lat="49.80308" lon="4.79921">
        <ele>289</ele>
        <time>2022-09-18T07:20:22.000Z</time>
      </trkpt>
      <trkpt lat="49.80307" lon="4.79925">
        <ele>289</ele>
        <time>2022-09-18T07:20:23.000Z</time>
      </trkpt>
      <trkpt lat="49.80306" lon="4.7993">
        <ele>289</ele>
        <time>2022-09-18T07:20:24.000Z</time>
      </trkpt>
      <trkpt lat="49.80306" lon="4.79934">
        <ele>289</ele>
        <time>2022-09-18T07:20:25.000Z</time>
      </trkpt>
      <trkpt lat="49.80306" lon="4.7994">
        <ele>289</ele>
        <time>2022-09-18T07:20:26.000Z</time>
      </trkpt>
      <trkpt lat="49.80305" lon="4.79945">
        <ele>289</ele>
        <time>2022-09-18T07:20:27.000Z</time>
      </trkpt>
      <trkpt lat="49.80304" lon="4.7995">
        <ele>289</ele>
        <time>2022-09-18T07:20:28.000Z</time>
      </trkpt>
      <trkpt lat="49.80304" lon="4.79956">
        <ele>289</ele>
        <time>2022-09-18T07:20:29.000Z</time>
      </trkpt>
      <trkpt lat="49.80303" lon="4.79962">
        <ele>289</ele>
        <time>2022-09-18T07:20:30.000Z</time>
      </trkpt>
      <trkpt lat="49.80302" lon="4.79967">
        <ele>289</ele>
        <time>2022-09-18T07:20:31.000Z</time>
      </trkpt>
      <trkpt lat="49.80301" lon="4.79974">
        <ele>289</ele>
        <time>2022-09-18T07:20:32.000Z</time>
      </trkpt>
      <trkpt lat="49.80301" lon="4.79979">
        <ele>289</ele>
        <time>2022-09-18T07:20:33.000Z</time>
      </trkpt>
      <trkpt lat="49.803" lon="4.79984">
        <ele>289</ele>
        <time>2022-09-18T07:20:34.000Z</time>
      </trkpt>
      <trkpt lat="49.80299" lon="4.79989">
        <ele>289</ele>
        <time>2022-09-18T07:20:35.000Z</time>
      </trkpt>
      <trkpt lat="49.80298" lon="4.79995">
        <ele>289</ele>
        <time>2022-09-18T07:20:36.000Z</time>
      </trkpt>
      <trkpt lat="49.80298" lon="4.8">
        <ele>289</ele>
        <time>2022-09-18T07:20:37.000Z</time>
      </trkpt>
      <trkpt lat="49.80297" lon="4.80006">
        <ele>289</ele>
        <time>2022-09-18T07:20:38.000Z</time>
      </trkpt>
      <trkpt lat="49.80296" lon="4.80011">
        <ele>289</ele>
        <time>2022-09-18T07:20:39.000Z</time>
      </trkpt>
      <trkpt lat="49.80295" lon="4.80017">
        <ele>289</ele>
        <time>2022-09-18T07:20:40.000Z</time>
      </trkpt>
      <trkpt lat="49.80295" lon="4.80022">
        <ele>289</ele>
        <time>2022-09-18T07:20:41.000Z</time>
      </trkpt>
      <trkpt lat="49.80295" lon="4.80027">
        <ele>289</ele>
        <time>2022-09-18T07:20:42.000Z</time>
      </trkpt>
      <trkpt lat="49.80297" lon="4.80032">
        <ele>288</ele>
        <time>2022-09-18T07:20:43.000Z</time>
      </trkpt>
      <trkpt lat="49.80298" lon="4.80039">
        <ele>288</ele>
        <time>2022-09-18T07:20:44.000Z</time>
      </trkpt>
      <trkpt lat="49.803" lon="4.80046">
        <ele>288</ele>
        <time>2022-09-18T07:20:45.000Z</time>
      </trkpt>
      <trkpt lat="49.80301" lon="4.80053">
        <ele>288</ele>
        <time>2022-09-18T07:20:46.000Z</time>
      </trkpt>
      <trkpt lat="49.80302" lon="4.80059">
        <ele>288</ele>
        <time>2022-09-18T07:20:47.000Z</time>
      </trkpt>
      <trkpt lat="49.80304" lon="4.80065">
        <ele>288</ele>
        <time>2022-09-18T07:20:48.000Z</time>
      </trkpt>
      <trkpt lat="49.80305" lon="4.8007">
        <ele>288</ele>
        <time>2022-09-18T07:20:49.000Z</time>
      </trkpt>
      <trkpt lat="49.80306" lon="4.80075">
        <ele>288</ele>
        <time>2022-09-18T07:20:50.000Z</time>
      </trkpt>
      <trkpt lat="49.80307" lon="4.80081">
        <ele>288</ele>
        <time>2022-09-18T07:20:51.000Z</time>
      </trkpt>
      <trkpt lat="49.80309" lon="4.80087">
        <ele>288</ele>
        <time>2022-09-18T07:20:52.000Z</time>
      </trkpt>
      <trkpt lat="49.8031" lon="4.80092">
        <ele>288</ele>
        <time>2022-09-18T07:20:53.000Z</time>
      </trkpt>
      <trkpt lat="49.80312" lon="4.80096">
        <ele>288</ele>
        <time>2022-09-18T07:20:54.000Z</time>
      </trkpt>
      <trkpt lat="49.80313" lon="4.80101">
        <ele>288</ele>
        <time>2022-09-18T07:20:55.000Z</time>
      </trkpt>
      <trkpt lat="49.80315" lon="4.80107">
        <ele>288</ele>
        <time>2022-09-18T07:20:56.000Z</time>
      </trkpt>
      <trkpt lat="49.80316" lon="4.80113">
        <ele>288</ele>
        <time>2022-09-18T07:20:57.000Z</time>
      </trkpt>
      <trkpt lat="49.80317" lon="4.80119">
        <ele>288</ele>
        <time>2022-09-18T07:20:58.000Z</time>
      </trkpt>
      <trkpt lat="49.80317" lon="4.80125">
        <ele>287</ele>
        <time>2022-09-18T07:20:59.000Z</time>
      </trkpt>
      <trkpt lat="49.80318" lon="4.8013">
        <ele>287</ele>
        <time>2022-09-18T07:21:00.000Z</time>
      </trkpt>
      <trkpt lat="49.8032" lon="4.80135">
        <ele>287</ele>
        <time>2022-09-18T07:21:01.000Z</time>
      </trkpt>
      <trkpt lat="49.80321" lon="4.8014">
        <ele>287</ele>
        <time>2022-09-18T07:21:02.000Z</time>
      </trkpt>
      <trkpt lat="49.80323" lon="4.80145">
        <ele>287</ele>
        <time>2022-09-18T07:21:03.000Z</time>
      </trkpt>
      <trkpt lat="49.80325" lon="4.80152">
        <ele>287</ele>
        <time>2022-09-18T07:21:04.000Z</time>
      </trkpt>
      <trkpt lat="49.80325" lon="4.80159">
        <ele>287</ele>
        <time>2022-09-18T07:21:05.000Z</time>
      </trkpt>
      <trkpt lat="49.80326" lon="4.80165">
        <ele>287</ele>
        <time>2022-09-18T07:21:06.000Z</time>
      </trkpt>
      <trkpt lat="49.80326" lon="4.80171">
        <ele>287</ele>
        <time>2022-09-18T07:21:07.000Z</time>
      </trkpt>
      <trkpt lat="49.80327" lon="4.80178">
        <ele>287</ele>
        <time>2022-09-18T07:21:08.000Z</time>
      </trkpt>
      <trkpt lat="49.80328" lon="4.80185">
        <ele>287</ele>
        <time>2022-09-18T07:21:09.000Z</time>
      </trkpt>
      <trkpt lat="49.80329" lon="4.80192">
        <ele>287</ele>
        <time>2022-09-18T07:21:10.000Z</time>
      </trkpt>
      <trkpt lat="49.80329" lon="4.802">
        <ele>287</ele>
        <time>2022-09-18T07:21:11.000Z</time>
      </trkpt>
      <trkpt lat="49.80329" lon="4.80206">
        <ele>286</ele>
        <time>2022-09-18T07:21:12.000Z</time>
      </trkpt>
      <trkpt lat="49.80329" lon="4.80212">
        <ele>286</ele>
        <time>2022-09-18T07:21:13.000Z</time>
      </trkpt>
      <trkpt lat="49.8033" lon="4.80219">
        <ele>286</ele>
        <time>2022-09-18T07:21:14.000Z</time>
      </trkpt>
      <trkpt lat="49.8033" lon="4.80226">
        <ele>286</ele>
        <time>2022-09-18T07:21:15.000Z</time>
      </trkpt>
      <trkpt lat="49.8033" lon="4.80232">
        <ele>286</ele>
        <time>2022-09-18T07:21:16.000Z</time>
      </trkpt>
      <trkpt lat="49.80331" lon="4.80238">
        <ele>285</ele>
        <time>2022-09-18T07:21:17.000Z</time>
      </trkpt>
      <trkpt lat="49.80331" lon="4.80243">
        <ele>285</ele>
        <time>2022-09-18T07:21:18.000Z</time>
      </trkpt>
      <trkpt lat="49.80331" lon="4.80249">
        <ele>285</ele>
        <time>2022-09-18T07:21:19.000Z</time>
      </trkpt>
      <trkpt lat="49.8033" lon="4.80256">
        <ele>284</ele>
        <time>2022-09-18T07:21:20.000Z</time>
      </trkpt>
      <trkpt lat="49.80328" lon="4.80262">
        <ele>284</ele>
        <time>2022-09-18T07:21:21.000Z</time>
      </trkpt>
      <trkpt lat="49.80326" lon="4.80268">
        <ele>284</ele>
        <time>2022-09-18T07:21:22.000Z</time>
      </trkpt>
      <trkpt lat="49.80325" lon="4.80273">
        <ele>284</ele>
        <time>2022-09-18T07:21:23.000Z</time>
      </trkpt>
      <trkpt lat="49.80324" lon="4.80278">
        <ele>283</ele>
        <time>2022-09-18T07:21:24.000Z</time>
      </trkpt>
      <trkpt lat="49.80322" lon="4.80283">
        <ele>283</ele>
        <time>2022-09-18T07:21:25.000Z</time>
      </trkpt>
      <trkpt lat="49.80321" lon="4.80285">
        <ele>283</ele>
        <time>2022-09-18T07:21:26.000Z</time>
      </trkpt>
      <trkpt lat="49.8032" lon="4.80287">
        <ele>282</ele>
        <time>2022-09-18T07:21:27.000Z</time>
      </trkpt>
      <trkpt lat="49.8032" lon="4.80289">
        <ele>282</ele>
        <time>2022-09-18T07:21:28.000Z</time>
      </trkpt>
      <trkpt lat="49.8032" lon="4.80289">
        <ele>282</ele>
        <time>2022-09-18T07:21:29.000Z</time>
      </trkpt>
      <trkpt lat="49.80319" lon="4.8029">
        <ele>281</ele>
        <time>2022-09-18T07:21:30.000Z</time>
      </trkpt>
      <trkpt lat="49.80319" lon="4.80291">
        <ele>281</ele>
        <time>2022-09-18T07:21:31.000Z</time>
      </trkpt>
      <trkpt lat="49.80318" lon="4.80292">
        <ele>281</ele>
        <time>2022-09-18T07:21:32.000Z</time>
      </trkpt>
      <trkpt lat="49.80318" lon="4.80293">
        <ele>280</ele>
        <time>2022-09-18T07:21:33.000Z</time>
      </trkpt>
      <trkpt lat="49.80318" lon="4.80293">
        <ele>280</ele>
        <time>2022-09-18T07:21:34.000Z</time>
      </trkpt>
      <trkpt lat="49.80319" lon="4.80293">
        <ele>279</ele>
        <time>2022-09-18T07:21:35.000Z</time>
      </trkpt>
      <trkpt lat="49.80318" lon="4.80294">
        <ele>279</ele>
        <time>2022-09-18T07:21:36.000Z</time>
      </trkpt>
      <trkpt lat="49.80318" lon="4.80295">
        <ele>279</ele>
        <time>2022-09-18T07:21:37.000Z</time>
      </trkpt>
      <trkpt lat="49.80318" lon="4.80296">
        <ele>278</ele>
        <time>2022-09-18T07:21:38.000Z</time>
      </trkpt>
      <trkpt lat="49.80318" lon="4.80296">
        <ele>278</ele>
        <time>2022-09-18T07:21:39.000Z</time>
      </trkpt>
      <trkpt lat="49.80317" lon="4.80298">
        <ele>277</ele>
        <time>2022-09-18T07:21:40.000Z</time>
      </trkpt>
      <trkpt lat="49.80316" lon="4.80301">
        <ele>277</ele>
        <time>2022-09-18T07:21:41.000Z</time>
      </trkpt>
      <trkpt lat="49.80314" lon="4.80305">
        <ele>276</ele>
        <time>2022-09-18T07:21:42.000Z</time>
      </trkpt>
      <trkpt lat="49.80313" lon="4.80311">
        <ele>276</ele>
        <time>2022-09-18T07:21:43.000Z</time>
      </trkpt>
      <trkpt lat="49.80311" lon="4.80316">
        <ele>275</ele>
        <time>2022-09-18T07:21:44.000Z</time>
      </trkpt>
      <trkpt lat="49.80309" lon="4.80321">
        <ele>275</ele>
        <time>2022-09-18T07:21:45.000Z</time>
      </trkpt>
      <trkpt lat="49.80307" lon="4.80326">
        <ele>275</ele>
        <time>2022-09-18T07:21:46.000Z</time>
      </trkpt>
      <trkpt lat="49.80306" lon="4.80331">
        <ele>274</ele>
        <time>2022-09-18T07:21:47.000Z</time>
      </trkpt>
      <trkpt lat="49.80305" lon="4.80335">
        <ele>274</ele>
        <time>2022-09-18T07:21:48.000Z</time>
      </trkpt>
      <trkpt lat="49.80303" lon="4.80338">
        <ele>274</ele>
        <time>2022-09-18T07:21:49.000Z</time>
      </trkpt>
      <trkpt lat="49.80303" lon="4.80341">
        <ele>273</ele>
        <time>2022-09-18T07:21:50.000Z</time>
      </trkpt>
      <trkpt lat="49.80302" lon="4.80344">
        <ele>273</ele>
        <time>2022-09-18T07:21:51.000Z</time>
      </trkpt>
      <trkpt lat="49.80301" lon="4.80346">
        <ele>273</ele>
        <time>2022-09-18T07:21:52.000Z</time>
      </trkpt>
      <trkpt lat="49.803" lon="4.80348">
        <ele>272</ele>
        <time>2022-09-18T07:21:53.000Z</time>
      </trkpt>
      <trkpt lat="49.80298" lon="4.8035">
        <ele>272</ele>
        <time>2022-09-18T07:21:54.000Z</time>
      </trkpt>
      <trkpt lat="49.80296" lon="4.80352">
        <ele>272</ele>
        <time>2022-09-18T07:21:55.000Z</time>
      </trkpt>
      <trkpt lat="49.80294" lon="4.80354">
        <ele>272</ele>
        <time>2022-09-18T07:21:56.000Z</time>
      </trkpt>
      <trkpt lat="49.80292" lon="4.80355">
        <ele>271</ele>
        <time>2022-09-18T07:21:57.000Z</time>
      </trkpt>
      <trkpt lat="49.80291" lon="4.80354">
        <ele>271</ele>
        <time>2022-09-18T07:21:58.000Z</time>
      </trkpt>
      <trkpt lat="49.8029" lon="4.80353">
        <ele>271</ele>
        <time>2022-09-18T07:21:59.000Z</time>
      </trkpt>
      <trkpt lat="49.80288" lon="4.80352">
        <ele>271</ele>
        <time>2022-09-18T07:22:00.000Z</time>
      </trkpt>
      <trkpt lat="49.80287" lon="4.80352">
        <ele>271</ele>
        <time>2022-09-18T07:22:01.000Z</time>
      </trkpt>
      <trkpt lat="49.80286" lon="4.80353">
        <ele>271</ele>
        <time>2022-09-18T07:22:02.000Z</time>
      </trkpt>
      <trkpt lat="49.80285" lon="4.80354">
        <ele>271</ele>
        <time>2022-09-18T07:22:03.000Z</time>
      </trkpt>
      <trkpt lat="49.80285" lon="4.80356">
        <ele>271</ele>
        <time>2022-09-18T07:22:04.000Z</time>
      </trkpt>
      <trkpt lat="49.80285" lon="4.80358">
        <ele>271</ele>
        <time>2022-09-18T07:22:05.000Z</time>
      </trkpt>
      <trkpt lat="49.80286" lon="4.8036">
        <ele>271</ele>
        <time>2022-09-18T07:22:06.000Z</time>
      </trkpt>
      <trkpt lat="49.80287" lon="4.80362">
        <ele>271</ele>
        <time>2022-09-18T07:22:07.000Z</time>
      </trkpt>
      <trkpt lat="49.80288" lon="4.80364">
        <ele>271</ele>
        <time>2022-09-18T07:22:08.000Z</time>
      </trkpt>
      <trkpt lat="49.80288" lon="4.80365">
        <ele>271</ele>
        <time>2022-09-18T07:22:09.000Z</time>
      </trkpt>
      <trkpt lat="49.80288" lon="4.80366">
        <ele>271</ele>
        <time>2022-09-18T07:22:10.000Z</time>
      </trkpt>
      <trkpt lat="49.80288" lon="4.80366">
        <ele>271</ele>
        <time>2022-09-18T07:22:11.000Z</time>
      </trkpt>
      <trkpt lat="49.80288" lon="4.80367">
        <ele>271</ele>
        <time>2022-09-18T07:22:12.000Z</time>
      </trkpt>
      <trkpt lat="49.80288" lon="4.80368">
        <ele>271</ele>
        <time>2022-09-18T07:22:13.000Z</time>
      </trkpt>
      <trkpt lat="49.80288" lon="4.80369">
        <ele>271</ele>
        <time>2022-09-18T07:22:14.000Z</time>
      </trkpt>
      <trkpt lat="49.80288" lon="4.8037">
        <ele>271</ele>
        <time>2022-09-18T07:22:15.000Z</time>
      </trkpt>
      <trkpt lat="49.80288" lon="4.80371">
        <ele>271</ele>
        <time>2022-09-18T07:22:16.000Z</time>
      </trkpt>
      <trkpt lat="49.80289" lon="4.80373">
        <ele>271</ele>
        <time>2022-09-18T07:22:17.000Z</time>
      </trkpt>
      <trkpt lat="49.80289" lon="4.80376">
        <ele>271</ele>
        <time>2022-09-18T07:22:18.000Z</time>
      </trkpt>
      <trkpt lat="49.80289" lon="4.8038">
        <ele>271</ele>
        <time>2022-09-18T07:22:19.000Z</time>
      </trkpt>
      <trkpt lat="49.80289" lon="4.80384">
        <ele>270</ele>
        <time>2022-09-18T07:22:20.000Z</time>
      </trkpt>
      <trkpt lat="49.80287" lon="4.80388">
        <ele>270</ele>
        <time>2022-09-18T07:22:21.000Z</time>
      </trkpt>
      <trkpt lat="49.80285" lon="4.80392">
        <ele>270</ele>
        <time>2022-09-18T07:22:22.000Z</time>
      </trkpt>
      <trkpt lat="49.80282" lon="4.80395">
        <ele>270</ele>
        <time>2022-09-18T07:22:23.000Z</time>
      </trkpt>
      <trkpt lat="49.8028" lon="4.80398">
        <ele>270</ele>
        <time>2022-09-18T07:22:24.000Z</time>
      </trkpt>
      <trkpt lat="49.80278" lon="4.80401">
        <ele>270</ele>
        <time>2022-09-18T07:22:25.000Z</time>
      </trkpt>
      <trkpt lat="49.80276" lon="4.80405">
        <ele>270</ele>
        <time>2022-09-18T07:22:26.000Z</time>
      </trkpt>
      <trkpt lat="49.80273" lon="4.80407">
        <ele>270</ele>
        <time>2022-09-18T07:22:27.000Z</time>
      </trkpt>
      <trkpt lat="49.8027" lon="4.80408">
        <ele>270</ele>
        <time>2022-09-18T07:22:28.000Z</time>
      </trkpt>
      <trkpt lat="49.80268" lon="4.80409">
        <ele>270</ele>
        <time>2022-09-18T07:22:29.000Z</time>
      </trkpt>
      <trkpt lat="49.80267" lon="4.8041">
        <ele>270</ele>
        <time>2022-09-18T07:22:30.000Z</time>
      </trkpt>
      <trkpt lat="49.80266" lon="4.80412">
        <ele>270</ele>
        <time>2022-09-18T07:22:31.000Z</time>
      </trkpt>
      <trkpt lat="49.80265" lon="4.80413">
        <ele>270</ele>
        <time>2022-09-18T07:22:32.000Z</time>
      </trkpt>
      <trkpt lat="49.80265" lon="4.80415">
        <ele>271</ele>
        <time>2022-09-18T07:22:33.000Z</time>
      </trkpt>
      <trkpt lat="49.80265" lon="4.80418">
        <ele>271</ele>
        <time>2022-09-18T07:22:34.000Z</time>
      </trkpt>
      <trkpt lat="49.80265" lon="4.8042">
        <ele>271</ele>
        <time>2022-09-18T07:22:35.000Z</time>
      </trkpt>
      <trkpt lat="49.80266" lon="4.80421">
        <ele>271</ele>
        <time>2022-09-18T07:22:36.000Z</time>
      </trkpt>
      <trkpt lat="49.80267" lon="4.80422">
        <ele>271</ele>
        <time>2022-09-18T07:22:37.000Z</time>
      </trkpt>
      <trkpt lat="49.80268" lon="4.80423">
        <ele>271</ele>
        <time>2022-09-18T07:22:38.000Z</time>
      </trkpt>
      <trkpt lat="49.80271" lon="4.80422">
        <ele>270</ele>
        <time>2022-09-18T07:22:39.000Z</time>
      </trkpt>
      <trkpt lat="49.80274" lon="4.80423">
        <ele>270</ele>
        <time>2022-09-18T07:22:40.000Z</time>
      </trkpt>
      <trkpt lat="49.80278" lon="4.80424">
        <ele>270</ele>
        <time>2022-09-18T07:22:41.000Z</time>
      </trkpt>
      <trkpt lat="49.80282" lon="4.80426">
        <ele>270</ele>
        <time>2022-09-18T07:22:42.000Z</time>
      </trkpt>
      <trkpt lat="49.80286" lon="4.80427">
        <ele>270</ele>
        <time>2022-09-18T07:22:43.000Z</time>
      </trkpt>
      <trkpt lat="49.8029" lon="4.80427">
        <ele>270</ele>
        <time>2022-09-18T07:22:44.000Z</time>
      </trkpt>
      <trkpt lat="49.80292" lon="4.80428">
        <ele>270</ele>
        <time>2022-09-18T07:22:45.000Z</time>
      </trkpt>
      <trkpt lat="49.80295" lon="4.80429">
        <ele>270</ele>
        <time>2022-09-18T07:22:46.000Z</time>
      </trkpt>
      <trkpt lat="49.80299" lon="4.80429">
        <ele>270</ele>
        <time>2022-09-18T07:22:47.000Z</time>
      </trkpt>
      <trkpt lat="49.80302" lon="4.8043">
        <ele>270</ele>
        <time>2022-09-18T07:22:48.000Z</time>
      </trkpt>
      <trkpt lat="49.80306" lon="4.8043">
        <ele>270</ele>
        <time>2022-09-18T07:22:49.000Z</time>
      </trkpt>
      <trkpt lat="49.80309" lon="4.80431">
        <ele>269</ele>
        <time>2022-09-18T07:22:50.000Z</time>
      </trkpt>
      <trkpt lat="49.80312" lon="4.80431">
        <ele>269</ele>
        <time>2022-09-18T07:22:51.000Z</time>
      </trkpt>
      <trkpt lat="49.80316" lon="4.80432">
        <ele>269</ele>
        <time>2022-09-18T07:22:52.000Z</time>
      </trkpt>
      <trkpt lat="49.80319" lon="4.80433">
        <ele>269</ele>
        <time>2022-09-18T07:22:53.000Z</time>
      </trkpt>
      <trkpt lat="49.80321" lon="4.80434">
        <ele>269</ele>
        <time>2022-09-18T07:22:54.000Z</time>
      </trkpt>
      <trkpt lat="49.80323" lon="4.80434">
        <ele>269</ele>
        <time>2022-09-18T07:22:55.000Z</time>
      </trkpt>
      <trkpt lat="49.80325" lon="4.80435">
        <ele>268</ele>
        <time>2022-09-18T07:22:56.000Z</time>
      </trkpt>
      <trkpt lat="49.80327" lon="4.80436">
        <ele>268</ele>
        <time>2022-09-18T07:22:57.000Z</time>
      </trkpt>
      <trkpt lat="49.80328" lon="4.80437">
        <ele>268</ele>
        <time>2022-09-18T07:22:58.000Z</time>
      </trkpt>
      <trkpt lat="49.80331" lon="4.80437">
        <ele>268</ele>
        <time>2022-09-18T07:22:59.000Z</time>
      </trkpt>
      <trkpt lat="49.80332" lon="4.80438">
        <ele>268</ele>
        <time>2022-09-18T07:23:00.000Z</time>
      </trkpt>
      <trkpt lat="49.80334" lon="4.80438">
        <ele>267</ele>
        <time>2022-09-18T07:23:01.000Z</time>
      </trkpt>
      <trkpt lat="49.80336" lon="4.80438">
        <ele>267</ele>
        <time>2022-09-18T07:23:02.000Z</time>
      </trkpt>
      <trkpt lat="49.80337" lon="4.80438">
        <ele>267</ele>
        <time>2022-09-18T07:23:03.000Z</time>
      </trkpt>
      <trkpt lat="49.80339" lon="4.80438">
        <ele>267</ele>
        <time>2022-09-18T07:23:04.000Z</time>
      </trkpt>
      <trkpt lat="49.80341" lon="4.80438">
        <ele>267</ele>
        <time>2022-09-18T07:23:05.000Z</time>
      </trkpt>
      <trkpt lat="49.80343" lon="4.80439">
        <ele>267</ele>
        <time>2022-09-18T07:23:06.000Z</time>
      </trkpt>
      <trkpt lat="49.80345" lon="4.80439">
        <ele>266</ele>
        <time>2022-09-18T07:23:07.000Z</time>
      </trkpt>
      <trkpt lat="49.80348" lon="4.80439">
        <ele>266</ele>
        <time>2022-09-18T07:23:08.000Z</time>
      </trkpt>
      <trkpt lat="49.8035" lon="4.80439">
        <ele>266</ele>
        <time>2022-09-18T07:23:09.000Z</time>
      </trkpt>
      <trkpt lat="49.80352" lon="4.80439">
        <ele>266</ele>
        <time>2022-09-18T07:23:10.000Z</time>
      </trkpt>
      <trkpt lat="49.80355" lon="4.80439">
        <ele>266</ele>
        <time>2022-09-18T07:23:11.000Z</time>
      </trkpt>
      <trkpt lat="49.80357" lon="4.8044">
        <ele>266</ele>
        <time>2022-09-18T07:23:12.000Z</time>
      </trkpt>
      <trkpt lat="49.8036" lon="4.8044">
        <ele>265</ele>
        <time>2022-09-18T07:23:13.000Z</time>
      </trkpt>
      <trkpt lat="49.80363" lon="4.80441">
        <ele>265</ele>
        <time>2022-09-18T07:23:14.000Z</time>
      </trkpt>
      <trkpt lat="49.80366" lon="4.80442">
        <ele>265</ele>
        <time>2022-09-18T07:23:15.000Z</time>
      </trkpt>
      <trkpt lat="49.8037" lon="4.80444">
        <ele>265</ele>
        <time>2022-09-18T07:23:16.000Z</time>
      </trkpt>
      <trkpt lat="49.80374" lon="4.80444">
        <ele>265</ele>
        <time>2022-09-18T07:23:17.000Z</time>
      </trkpt>
      <trkpt lat="49.80377" lon="4.80444">
        <ele>265</ele>
        <time>2022-09-18T07:23:18.000Z</time>
      </trkpt>
      <trkpt lat="49.80381" lon="4.80444">
        <ele>265</ele>
        <time>2022-09-18T07:23:19.000Z</time>
      </trkpt>
      <trkpt lat="49.80384" lon="4.80443">
        <ele>265</ele>
        <time>2022-09-18T07:23:20.000Z</time>
      </trkpt>
      <trkpt lat="49.80387" lon="4.80441">
        <ele>264</ele>
        <time>2022-09-18T07:23:21.000Z</time>
      </trkpt>
      <trkpt lat="49.8039" lon="4.80439">
        <ele>264</ele>
        <time>2022-09-18T07:23:22.000Z</time>
      </trkpt>
      <trkpt lat="49.80393" lon="4.80438">
        <ele>264</ele>
        <time>2022-09-18T07:23:23.000Z</time>
      </trkpt>
      <trkpt lat="49.80397" lon="4.80438">
        <ele>264</ele>
        <time>2022-09-18T07:23:24.000Z</time>
      </trkpt>
      <trkpt lat="49.80401" lon="4.80438">
        <ele>264</ele>
        <time>2022-09-18T07:23:25.000Z</time>
      </trkpt>
      <trkpt lat="49.80405" lon="4.80438">
        <ele>264</ele>
        <time>2022-09-18T07:23:26.000Z</time>
      </trkpt>
      <trkpt lat="49.80409" lon="4.80438">
        <ele>264</ele>
        <time>2022-09-18T07:23:27.000Z</time>
      </trkpt>
      <trkpt lat="49.80413" lon="4.80438">
        <ele>264</ele>
        <time>2022-09-18T07:23:28.000Z</time>
      </trkpt>
      <trkpt lat="49.80415" lon="4.80437">
        <ele>264</ele>
        <time>2022-09-18T07:23:29.000Z</time>
      </trkpt>
      <trkpt lat="49.80417" lon="4.80437">
        <ele>263</ele>
        <time>2022-09-18T07:23:30.000Z</time>
      </trkpt>
      <trkpt lat="49.80419" lon="4.80437">
        <ele>263</ele>
        <time>2022-09-18T07:23:31.000Z</time>
      </trkpt>
      <trkpt lat="49.80422" lon="4.80437">
        <ele>263</ele>
        <time>2022-09-18T07:23:32.000Z</time>
      </trkpt>
      <trkpt lat="49.80425" lon="4.80437">
        <ele>263</ele>
        <time>2022-09-18T07:23:33.000Z</time>
      </trkpt>
      <trkpt lat="49.80429" lon="4.80436">
        <ele>262</ele>
        <time>2022-09-18T07:23:34.000Z</time>
      </trkpt>
      <trkpt lat="49.80433" lon="4.80436">
        <ele>262</ele>
        <time>2022-09-18T07:23:35.000Z</time>
      </trkpt>
      <trkpt lat="49.80437" lon="4.80436">
        <ele>262</ele>
        <time>2022-09-18T07:23:36.000Z</time>
      </trkpt>
      <trkpt lat="49.80441" lon="4.80436">
        <ele>262</ele>
        <time>2022-09-18T07:23:37.000Z</time>
      </trkpt>
      <trkpt lat="49.80446" lon="4.80436">
        <ele>262</ele>
        <time>2022-09-18T07:23:38.000Z</time>
      </trkpt>
      <trkpt lat="49.8045" lon="4.80435">
        <ele>262</ele>
        <time>2022-09-18T07:23:39.000Z</time>
      </trkpt>
      <trkpt lat="49.80456" lon="4.80434">
        <ele>261</ele>
        <time>2022-09-18T07:23:40.000Z</time>
      </trkpt>
      <trkpt lat="49.8046" lon="4.80433">
        <ele>261</ele>
        <time>2022-09-18T07:23:41.000Z</time>
      </trkpt>
      <trkpt lat="49.80466" lon="4.8043">
        <ele>261</ele>
        <time>2022-09-18T07:23:42.000Z</time>
      </trkpt>
      <trkpt lat="49.80471" lon="4.80428">
        <ele>260</ele>
        <time>2022-09-18T07:23:43.000Z</time>
      </trkpt>
      <trkpt lat="49.80477" lon="4.80426">
        <ele>260</ele>
        <time>2022-09-18T07:23:44.000Z</time>
      </trkpt>
      <trkpt lat="49.80484" lon="4.80423">
        <ele>260</ele>
        <time>2022-09-18T07:23:45.000Z</time>
      </trkpt>
      <trkpt lat="49.80491" lon="4.80421">
        <ele>259</ele>
        <time>2022-09-18T07:23:46.000Z</time>
      </trkpt>
      <trkpt lat="49.80498" lon="4.80419">
        <ele>259</ele>
        <time>2022-09-18T07:23:47.000Z</time>
      </trkpt>
      <trkpt lat="49.80504" lon="4.80417">
        <ele>258</ele>
        <time>2022-09-18T07:23:48.000Z</time>
      </trkpt>
      <trkpt lat="49.80509" lon="4.80416">
        <ele>258</ele>
        <time>2022-09-18T07:23:49.000Z</time>
      </trkpt>
      <trkpt lat="49.80514" lon="4.80414">
        <ele>257</ele>
        <time>2022-09-18T07:23:50.000Z</time>
      </trkpt>
      <trkpt lat="49.80518" lon="4.80413">
        <ele>257</ele>
        <time>2022-09-18T07:23:51.000Z</time>
      </trkpt>
      <trkpt lat="49.80523" lon="4.8041">
        <ele>256</ele>
        <time>2022-09-18T07:23:52.000Z</time>
      </trkpt>
      <trkpt lat="49.80527" lon="4.80407">
        <ele>256</ele>
        <time>2022-09-18T07:23:53.000Z</time>
      </trkpt>
      <trkpt lat="49.80531" lon="4.80403">
        <ele>255</ele>
        <time>2022-09-18T07:23:54.000Z</time>
      </trkpt>
      <trkpt lat="49.80534" lon="4.80398">
        <ele>254</ele>
        <time>2022-09-18T07:23:55.000Z</time>
      </trkpt>
      <trkpt lat="49.80537" lon="4.80392">
        <ele>253</ele>
        <time>2022-09-18T07:23:56.000Z</time>
      </trkpt>
      <trkpt lat="49.8054" lon="4.80386">
        <ele>252</ele>
        <time>2022-09-18T07:23:57.000Z</time>
      </trkpt>
      <trkpt lat="49.80544" lon="4.80379">
        <ele>251</ele>
        <time>2022-09-18T07:23:58.000Z</time>
      </trkpt>
      <trkpt lat="49.80548" lon="4.80373">
        <ele>251</ele>
        <time>2022-09-18T07:23:59.000Z</time>
      </trkpt>
      <trkpt lat="49.80552" lon="4.80367">
        <ele>250</ele>
        <time>2022-09-18T07:24:00.000Z</time>
      </trkpt>
      <trkpt lat="49.80556" lon="4.80361">
        <ele>249</ele>
        <time>2022-09-18T07:24:01.000Z</time>
      </trkpt>
      <trkpt lat="49.80559" lon="4.80355">
        <ele>248</ele>
        <time>2022-09-18T07:24:02.000Z</time>
      </trkpt>
      <trkpt lat="49.80563" lon="4.80349">
        <ele>247</ele>
        <time>2022-09-18T07:24:03.000Z</time>
      </trkpt>
      <trkpt lat="49.80566" lon="4.80343">
        <ele>247</ele>
        <time>2022-09-18T07:24:04.000Z</time>
      </trkpt>
      <trkpt lat="49.8057" lon="4.80338">
        <ele>246</ele>
        <time>2022-09-18T07:24:05.000Z</time>
      </trkpt>
      <trkpt lat="49.80572" lon="4.80334">
        <ele>245</ele>
        <time>2022-09-18T07:24:06.000Z</time>
      </trkpt>
      <trkpt lat="49.80575" lon="4.80329">
        <ele>244</ele>
        <time>2022-09-18T07:24:07.000Z</time>
      </trkpt>
      <trkpt lat="49.80578" lon="4.80325">
        <ele>244</ele>
        <time>2022-09-18T07:24:08.000Z</time>
      </trkpt>
      <trkpt lat="49.8058" lon="4.8032">
        <ele>243</ele>
        <time>2022-09-18T07:24:09.000Z</time>
      </trkpt>
      <trkpt lat="49.80583" lon="4.80315">
        <ele>242</ele>
        <time>2022-09-18T07:24:10.000Z</time>
      </trkpt>
      <trkpt lat="49.80586" lon="4.80309">
        <ele>242</ele>
        <time>2022-09-18T07:24:11.000Z</time>
      </trkpt>
      <trkpt lat="49.8059" lon="4.80303">
        <ele>241</ele>
        <time>2022-09-18T07:24:12.000Z</time>
      </trkpt>
      <trkpt lat="49.80593" lon="4.80297">
        <ele>240</ele>
        <time>2022-09-18T07:24:13.000Z</time>
      </trkpt>
      <trkpt lat="49.80596" lon="4.80292">
        <ele>240</ele>
        <time>2022-09-18T07:24:14.000Z</time>
      </trkpt>
      <trkpt lat="49.80599" lon="4.80286">
        <ele>239</ele>
        <time>2022-09-18T07:24:15.000Z</time>
      </trkpt>
      <trkpt lat="49.80602" lon="4.8028">
        <ele>239</ele>
        <time>2022-09-18T07:24:16.000Z</time>
      </trkpt>
      <trkpt lat="49.80605" lon="4.80274">
        <ele>238</ele>
        <time>2022-09-18T07:24:17.000Z</time>
      </trkpt>
      <trkpt lat="49.80609" lon="4.80268">
        <ele>238</ele>
        <time>2022-09-18T07:24:18.000Z</time>
      </trkpt>
      <trkpt lat="49.80612" lon="4.80261">
        <ele>237</ele>
        <time>2022-09-18T07:24:19.000Z</time>
      </trkpt>
      <trkpt lat="49.80616" lon="4.80256">
        <ele>237</ele>
        <time>2022-09-18T07:24:20.000Z</time>
      </trkpt>
      <trkpt lat="49.8062" lon="4.80249">
        <ele>236</ele>
        <time>2022-09-18T07:24:21.000Z</time>
      </trkpt>
      <trkpt lat="49.80624" lon="4.80241">
        <ele>235</ele>
        <time>2022-09-18T07:24:22.000Z</time>
      </trkpt>
      <trkpt lat="49.80629" lon="4.80234">
        <ele>234</ele>
        <time>2022-09-18T07:24:23.000Z</time>
      </trkpt>
      <trkpt lat="49.80633" lon="4.80228">
        <ele>234</ele>
        <time>2022-09-18T07:24:24.000Z</time>
      </trkpt>
      <trkpt lat="49.80637" lon="4.80221">
        <ele>233</ele>
        <time>2022-09-18T07:24:25.000Z</time>
      </trkpt>
      <trkpt lat="49.80642" lon="4.80214">
        <ele>232</ele>
        <time>2022-09-18T07:24:26.000Z</time>
      </trkpt>
      <trkpt lat="49.80647" lon="4.80205">
        <ele>231</ele>
        <time>2022-09-18T07:24:27.000Z</time>
      </trkpt>
      <trkpt lat="49.80653" lon="4.80197">
        <ele>230</ele>
        <time>2022-09-18T07:24:28.000Z</time>
      </trkpt>
      <trkpt lat="49.80659" lon="4.8019">
        <ele>229</ele>
        <time>2022-09-18T07:24:29.000Z</time>
      </trkpt>
      <trkpt lat="49.80665" lon="4.80183">
        <ele>228</ele>
        <time>2022-09-18T07:24:30.000Z</time>
      </trkpt>
      <trkpt lat="49.8067" lon="4.80176">
        <ele>227</ele>
        <time>2022-09-18T07:24:31.000Z</time>
      </trkpt>
      <trkpt lat="49.80675" lon="4.80168">
        <ele>226</ele>
        <time>2022-09-18T07:24:32.000Z</time>
      </trkpt>
      <trkpt lat="49.8068" lon="4.80161">
        <ele>225</ele>
        <time>2022-09-18T07:24:33.000Z</time>
      </trkpt>
      <trkpt lat="49.80685" lon="4.80154">
        <ele>224</ele>
        <time>2022-09-18T07:24:34.000Z</time>
      </trkpt>
      <trkpt lat="49.80689" lon="4.80148">
        <ele>223</ele>
        <time>2022-09-18T07:24:35.000Z</time>
      </trkpt>
      <trkpt lat="49.80694" lon="4.80141">
        <ele>222</ele>
        <time>2022-09-18T07:24:36.000Z</time>
      </trkpt>
      <trkpt lat="49.80699" lon="4.80135">
        <ele>221</ele>
        <time>2022-09-18T07:24:37.000Z</time>
      </trkpt>
      <trkpt lat="49.80704" lon="4.80129">
        <ele>220</ele>
        <time>2022-09-18T07:24:38.000Z</time>
      </trkpt>
      <trkpt lat="49.80709" lon="4.80124">
        <ele>219</ele>
        <time>2022-09-18T07:24:39.000Z</time>
      </trkpt>
      <trkpt lat="49.80714" lon="4.80119">
        <ele>218</ele>
        <time>2022-09-18T07:24:40.000Z</time>
      </trkpt>
      <trkpt lat="49.8072" lon="4.80115">
        <ele>217</ele>
        <time>2022-09-18T07:24:41.000Z</time>
      </trkpt>
      <trkpt lat="49.80726" lon="4.80112">
        <ele>217</ele>
        <time>2022-09-18T07:24:42.000Z</time>
      </trkpt>
      <trkpt lat="49.80732" lon="4.8011">
        <ele>216</ele>
        <time>2022-09-18T07:24:43.000Z</time>
      </trkpt>
      <trkpt lat="49.80738" lon="4.80107">
        <ele>216</ele>
        <time>2022-09-18T07:24:44.000Z</time>
      </trkpt>
      <trkpt lat="49.80744" lon="4.80105">
        <ele>215</ele>
        <time>2022-09-18T07:24:45.000Z</time>
      </trkpt>
      <trkpt lat="49.8075" lon="4.80101">
        <ele>215</ele>
        <time>2022-09-18T07:24:46.000Z</time>
      </trkpt>
      <trkpt lat="49.80755" lon="4.80095">
        <ele>214</ele>
        <time>2022-09-18T07:24:47.000Z</time>
      </trkpt>
      <trkpt lat="49.80759" lon="4.80088">
        <ele>214</ele>
        <time>2022-09-18T07:24:48.000Z</time>
      </trkpt>
      <trkpt lat="49.80763" lon="4.8008">
        <ele>213</ele>
        <time>2022-09-18T07:24:49.000Z</time>
      </trkpt>
      <trkpt lat="49.80767" lon="4.80071">
        <ele>213</ele>
        <time>2022-09-18T07:24:50.000Z</time>
      </trkpt>
      <trkpt lat="49.80771" lon="4.80062">
        <ele>212</ele>
        <time>2022-09-18T07:24:51.000Z</time>
      </trkpt>
      <trkpt lat="49.80774" lon="4.80052">
        <ele>211</ele>
        <time>2022-09-18T07:24:52.000Z</time>
      </trkpt>
      <trkpt lat="49.80778" lon="4.80041">
        <ele>210</ele>
        <time>2022-09-18T07:24:53.000Z</time>
      </trkpt>
      <trkpt lat="49.80781" lon="4.8003">
        <ele>210</ele>
        <time>2022-09-18T07:24:54.000Z</time>
      </trkpt>
      <trkpt lat="49.80784" lon="4.80019">
        <ele>209</ele>
        <time>2022-09-18T07:24:55.000Z</time>
      </trkpt>
      <trkpt lat="49.80787" lon="4.80008">
        <ele>208</ele>
        <time>2022-09-18T07:24:56.000Z</time>
      </trkpt>
      <trkpt lat="49.80791" lon="4.79997">
        <ele>207</ele>
        <time>2022-09-18T07:24:57.000Z</time>
      </trkpt>
      <trkpt lat="49.80794" lon="4.79985">
        <ele>207</ele>
        <time>2022-09-18T07:24:58.000Z</time>
      </trkpt>
      <trkpt lat="49.80797" lon="4.79975">
        <ele>206</ele>
        <time>2022-09-18T07:24:59.000Z</time>
      </trkpt>
      <trkpt lat="49.808" lon="4.79964">
        <ele>205</ele>
        <time>2022-09-18T07:25:00.000Z</time>
      </trkpt>
      <trkpt lat="49.80804" lon="4.79953">
        <ele>204</ele>
        <time>2022-09-18T07:25:01.000Z</time>
      </trkpt>
      <trkpt lat="49.80808" lon="4.79941">
        <ele>204</ele>
        <time>2022-09-18T07:25:02.000Z</time>
      </trkpt>
      <trkpt lat="49.80812" lon="4.7993">
        <ele>203</ele>
        <time>2022-09-18T07:25:03.000Z</time>
      </trkpt>
      <trkpt lat="49.80816" lon="4.79918">
        <ele>202</ele>
        <time>2022-09-18T07:25:04.000Z</time>
      </trkpt>
      <trkpt lat="49.80821" lon="4.79907">
        <ele>201</ele>
        <time>2022-09-18T07:25:05.000Z</time>
      </trkpt>
      <trkpt lat="49.80826" lon="4.79897">
        <ele>200</ele>
        <time>2022-09-18T07:25:06.000Z</time>
      </trkpt>
      <trkpt lat="49.80831" lon="4.79888">
        <ele>199</ele>
        <time>2022-09-18T07:25:07.000Z</time>
      </trkpt>
      <trkpt lat="49.80838" lon="4.79879">
        <ele>198</ele>
        <time>2022-09-18T07:25:08.000Z</time>
      </trkpt>
      <trkpt lat="49.80845" lon="4.7987">
        <ele>197</ele>
        <time>2022-09-18T07:25:09.000Z</time>
      </trkpt>
      <trkpt lat="49.80852" lon="4.79862">
        <ele>195</ele>
        <time>2022-09-18T07:25:10.000Z</time>
      </trkpt>
      <trkpt lat="49.8086" lon="4.79854">
        <ele>194</ele>
        <time>2022-09-18T07:25:11.000Z</time>
      </trkpt>
      <trkpt lat="49.80868" lon="4.79846">
        <ele>193</ele>
        <time>2022-09-18T07:25:12.000Z</time>
      </trkpt>
      <trkpt lat="49.80876" lon="4.79839">
        <ele>192</ele>
        <time>2022-09-18T07:25:13.000Z</time>
      </trkpt>
      <trkpt lat="49.80884" lon="4.79833">
        <ele>191</ele>
        <time>2022-09-18T07:25:14.000Z</time>
      </trkpt>
      <trkpt lat="49.80892" lon="4.79826">
        <ele>189</ele>
        <time>2022-09-18T07:25:15.000Z</time>
      </trkpt>
      <trkpt lat="49.80901" lon="4.79819">
        <ele>188</ele>
        <time>2022-09-18T07:25:16.000Z</time>
      </trkpt>
      <trkpt lat="49.80909" lon="4.79812">
        <ele>187</ele>
        <time>2022-09-18T07:25:17.000Z</time>
      </trkpt>
      <trkpt lat="49.80916" lon="4.79804">
        <ele>185</ele>
        <time>2022-09-18T07:25:18.000Z</time>
      </trkpt>
      <trkpt lat="49.80925" lon="4.79796">
        <ele>184</ele>
        <time>2022-09-18T07:25:19.000Z</time>
      </trkpt>
      <trkpt lat="49.80933" lon="4.79789">
        <ele>183</ele>
        <time>2022-09-18T07:25:20.000Z</time>
      </trkpt>
      <trkpt lat="49.8094" lon="4.79782">
        <ele>182</ele>
        <time>2022-09-18T07:25:21.000Z</time>
      </trkpt>
      <trkpt lat="49.80948" lon="4.79776">
        <ele>181</ele>
        <time>2022-09-18T07:25:22.000Z</time>
      </trkpt>
      <trkpt lat="49.80955" lon="4.79771">
        <ele>181</ele>
        <time>2022-09-18T07:25:23.000Z</time>
      </trkpt>
      <trkpt lat="49.80962" lon="4.79767">
        <ele>180</ele>
        <time>2022-09-18T07:25:24.000Z</time>
      </trkpt>
      <trkpt lat="49.80969" lon="4.79763">
        <ele>180</ele>
        <time>2022-09-18T07:25:25.000Z</time>
      </trkpt>
      <trkpt lat="49.80976" lon="4.79758">
        <ele>180</ele>
        <time>2022-09-18T07:25:26.000Z</time>
      </trkpt>
      <trkpt lat="49.80982" lon="4.79753">
        <ele>179</ele>
        <time>2022-09-18T07:25:27.000Z</time>
      </trkpt>
      <trkpt lat="49.80988" lon="4.79748">
        <ele>179</ele>
        <time>2022-09-18T07:25:28.000Z</time>
      </trkpt>
      <trkpt lat="49.80993" lon="4.79742">
        <ele>179</ele>
        <time>2022-09-18T07:25:29.000Z</time>
      </trkpt>
      <trkpt lat="49.80998" lon="4.79737">
        <ele>179</ele>
        <time>2022-09-18T07:25:30.000Z</time>
      </trkpt>
      <trkpt lat="49.81004" lon="4.79732">
        <ele>178</ele>
        <time>2022-09-18T07:25:31.000Z</time>
      </trkpt>
      <trkpt lat="49.81008" lon="4.79727">
        <ele>178</ele>
        <time>2022-09-18T07:25:32.000Z</time>
      </trkpt>
      <trkpt lat="49.81013" lon="4.79724">
        <ele>178</ele>
        <time>2022-09-18T07:25:33.000Z</time>
      </trkpt>
      <trkpt lat="49.81017" lon="4.79726">
        <ele>178</ele>
        <time>2022-09-18T07:25:34.000Z</time>
      </trkpt>
      <trkpt lat="49.81021" lon="4.79731">
        <ele>178</ele>
        <time>2022-09-18T07:25:35.000Z</time>
      </trkpt>
      <trkpt lat="49.81025" lon="4.79737">
        <ele>178</ele>
        <time>2022-09-18T07:25:36.000Z</time>
      </trkpt>
      <trkpt lat="49.81029" lon="4.79743">
        <ele>178</ele>
        <time>2022-09-18T07:25:37.000Z</time>
      </trkpt>
      <trkpt lat="49.81034" lon="4.79749">
        <ele>178</ele>
        <time>2022-09-18T07:25:38.000Z</time>
      </trkpt>
      <trkpt lat="49.81038" lon="4.79756">
        <ele>178</ele>
        <time>2022-09-18T07:25:39.000Z</time>
      </trkpt>
      <trkpt lat="49.81042" lon="4.79763">
        <ele>178</ele>
        <time>2022-09-18T07:25:40.000Z</time>
      </trkpt>
      <trkpt lat="49.81046" lon="4.7977">
        <ele>178</ele>
        <time>2022-09-18T07:25:41.000Z</time>
      </trkpt>
      <trkpt lat="49.8105" lon="4.79778">
        <ele>178</ele>
        <time>2022-09-18T07:25:42.000Z</time>
      </trkpt>
      <trkpt lat="49.81054" lon="4.79786">
        <ele>178</ele>
        <time>2022-09-18T07:25:43.000Z</time>
      </trkpt>
      <trkpt lat="49.81057" lon="4.79794">
        <ele>178</ele>
        <time>2022-09-18T07:25:44.000Z</time>
      </trkpt>
      <trkpt lat="49.81061" lon="4.79802">
        <ele>178</ele>
        <time>2022-09-18T07:25:45.000Z</time>
      </trkpt>
      <trkpt lat="49.81064" lon="4.7981">
        <ele>178</ele>
        <time>2022-09-18T07:25:46.000Z</time>
      </trkpt>
      <trkpt lat="49.81068" lon="4.79819">
        <ele>178</ele>
        <time>2022-09-18T07:25:47.000Z</time>
      </trkpt>
      <trkpt lat="49.81071" lon="4.79827">
        <ele>178</ele>
        <time>2022-09-18T07:25:48.000Z</time>
      </trkpt>
      <trkpt lat="49.81075" lon="4.79836">
        <ele>178</ele>
        <time>2022-09-18T07:25:49.000Z</time>
      </trkpt>
      <trkpt lat="49.81078" lon="4.79845">
        <ele>178</ele>
        <time>2022-09-18T07:25:50.000Z</time>
      </trkpt>
      <trkpt lat="49.81081" lon="4.79854">
        <ele>177</ele>
        <time>2022-09-18T07:25:51.000Z</time>
      </trkpt>
      <trkpt lat="49.81085" lon="4.79862">
        <ele>177</ele>
        <time>2022-09-18T07:25:52.000Z</time>
      </trkpt>
      <trkpt lat="49.81088" lon="4.7987">
        <ele>177</ele>
        <time>2022-09-18T07:25:53.000Z</time>
      </trkpt>
      <trkpt lat="49.81092" lon="4.79878">
        <ele>177</ele>
        <time>2022-09-18T07:25:54.000Z</time>
      </trkpt>
      <trkpt lat="49.81095" lon="4.79887">
        <ele>177</ele>
        <time>2022-09-18T07:25:55.000Z</time>
      </trkpt>
      <trkpt lat="49.81098" lon="4.79894">
        <ele>178</ele>
        <time>2022-09-18T07:25:56.000Z</time>
      </trkpt>
      <trkpt lat="49.81102" lon="4.79902">
        <ele>178</ele>
        <time>2022-09-18T07:25:57.000Z</time>
      </trkpt>
      <trkpt lat="49.81105" lon="4.79909">
        <ele>177</ele>
        <time>2022-09-18T07:25:58.000Z</time>
      </trkpt>
      <trkpt lat="49.81109" lon="4.79916">
        <ele>177</ele>
        <time>2022-09-18T07:25:59.000Z</time>
      </trkpt>
      <trkpt lat="49.81113" lon="4.79924">
        <ele>177</ele>
        <time>2022-09-18T07:26:00.000Z</time>
      </trkpt>
      <trkpt lat="49.81117" lon="4.79931">
        <ele>177</ele>
        <time>2022-09-18T07:26:01.000Z</time>
      </trkpt>
      <trkpt lat="49.81122" lon="4.79938">
        <ele>177</ele>
        <time>2022-09-18T07:26:02.000Z</time>
      </trkpt>
      <trkpt lat="49.81126" lon="4.79944">
        <ele>177</ele>
        <time>2022-09-18T07:26:03.000Z</time>
      </trkpt>
      <trkpt lat="49.81131" lon="4.79951">
        <ele>177</ele>
        <time>2022-09-18T07:26:04.000Z</time>
      </trkpt>
      <trkpt lat="49.81135" lon="4.79958">
        <ele>177</ele>
        <time>2022-09-18T07:26:05.000Z</time>
      </trkpt>
      <trkpt lat="49.81139" lon="4.79965">
        <ele>177</ele>
        <time>2022-09-18T07:26:06.000Z</time>
      </trkpt>
      <trkpt lat="49.81142" lon="4.79974">
        <ele>177</ele>
        <time>2022-09-18T07:26:07.000Z</time>
      </trkpt>
      <trkpt lat="49.81144" lon="4.79983">
        <ele>177</ele>
        <time>2022-09-18T07:26:08.000Z</time>
      </trkpt>
      <trkpt lat="49.81145" lon="4.79992">
        <ele>177</ele>
        <time>2022-09-18T07:26:09.000Z</time>
      </trkpt>
      <trkpt lat="49.81146" lon="4.8">
        <ele>177</ele>
        <time>2022-09-18T07:26:10.000Z</time>
      </trkpt>
      <trkpt lat="49.81147" lon="4.80008">
        <ele>177</ele>
        <time>2022-09-18T07:26:11.000Z</time>
      </trkpt>
      <trkpt lat="49.81147" lon="4.80014">
        <ele>177</ele>
        <time>2022-09-18T07:26:12.000Z</time>
      </trkpt>
      <trkpt lat="49.81148" lon="4.8002">
        <ele>177</ele>
        <time>2022-09-18T07:26:13.000Z</time>
      </trkpt>
      <trkpt lat="49.81148" lon="4.80025">
        <ele>177</ele>
        <time>2022-09-18T07:26:14.000Z</time>
      </trkpt>
      <trkpt lat="49.81148" lon="4.8003">
        <ele>177</ele>
        <time>2022-09-18T07:26:15.000Z</time>
      </trkpt>
      <trkpt lat="49.81148" lon="4.80034">
        <ele>177</ele>
        <time>2022-09-18T07:26:16.000Z</time>
      </trkpt>
      <trkpt lat="49.81148" lon="4.80038">
        <ele>177</ele>
        <time>2022-09-18T07:26:17.000Z</time>
      </trkpt>
      <trkpt lat="49.81147" lon="4.80042">
        <ele>177</ele>
        <time>2022-09-18T07:26:18.000Z</time>
      </trkpt>
      <trkpt lat="49.81147" lon="4.80046">
        <ele>177</ele>
        <time>2022-09-18T07:26:19.000Z</time>
      </trkpt>
      <trkpt lat="49.81147" lon="4.8005">
        <ele>177</ele>
        <time>2022-09-18T07:26:20.000Z</time>
      </trkpt>
      <trkpt lat="49.81147" lon="4.80055">
        <ele>177</ele>
        <time>2022-09-18T07:26:21.000Z</time>
      </trkpt>
      <trkpt lat="49.81146" lon="4.80059">
        <ele>177</ele>
        <time>2022-09-18T07:26:22.000Z</time>
      </trkpt>
      <trkpt lat="49.81146" lon="4.80064">
        <ele>177</ele>
        <time>2022-09-18T07:26:23.000Z</time>
      </trkpt>
      <trkpt lat="49.81145" lon="4.80068">
        <ele>177</ele>
        <time>2022-09-18T07:26:24.000Z</time>
      </trkpt>
      <trkpt lat="49.81145" lon="4.80073">
        <ele>177</ele>
        <time>2022-09-18T07:26:25.000Z</time>
      </trkpt>
      <trkpt lat="49.81144" lon="4.80078">
        <ele>177</ele>
        <time>2022-09-18T07:26:26.000Z</time>
      </trkpt>
      <trkpt lat="49.81144" lon="4.80082">
        <ele>177</ele>
        <time>2022-09-18T07:26:27.000Z</time>
      </trkpt>
      <trkpt lat="49.81143" lon="4.80087">
        <ele>177</ele>
        <time>2022-09-18T07:26:28.000Z</time>
      </trkpt>
      <trkpt lat="49.81142" lon="4.8009">
        <ele>177</ele>
        <time>2022-09-18T07:26:29.000Z</time>
      </trkpt>
      <trkpt lat="49.81142" lon="4.80093">
        <ele>177</ele>
        <time>2022-09-18T07:26:30.000Z</time>
      </trkpt>
      <trkpt lat="49.81141" lon="4.80097">
        <ele>177</ele>
        <time>2022-09-18T07:26:31.000Z</time>
      </trkpt>
      <trkpt lat="49.81141" lon="4.801">
        <ele>177</ele>
        <time>2022-09-18T07:26:32.000Z</time>
      </trkpt>
      <trkpt lat="49.8114" lon="4.80104">
        <ele>177</ele>
        <time>2022-09-18T07:26:33.000Z</time>
      </trkpt>
      <trkpt lat="49.8114" lon="4.80107">
        <ele>177</ele>
        <time>2022-09-18T07:26:34.000Z</time>
      </trkpt>
      <trkpt lat="49.81139" lon="4.80111">
        <ele>177</ele>
        <time>2022-09-18T07:26:35.000Z</time>
      </trkpt>
      <trkpt lat="49.81138" lon="4.80115">
        <ele>177</ele>
        <time>2022-09-18T07:26:36.000Z</time>
      </trkpt>
      <trkpt lat="49.81138" lon="4.80118">
        <ele>177</ele>
        <time>2022-09-18T07:26:37.000Z</time>
      </trkpt>
      <trkpt lat="49.81138" lon="4.80122">
        <ele>177</ele>
        <time>2022-09-18T07:26:38.000Z</time>
      </trkpt>
      <trkpt lat="49.81137" lon="4.80126">
        <ele>177</ele>
        <time>2022-09-18T07:26:39.000Z</time>
      </trkpt>
      <trkpt lat="49.81137" lon="4.8013">
        <ele>178</ele>
        <time>2022-09-18T07:26:40.000Z</time>
      </trkpt>
      <trkpt lat="49.81137" lon="4.80134">
        <ele>178</ele>
        <time>2022-09-18T07:26:41.000Z</time>
      </trkpt>
      <trkpt lat="49.81137" lon="4.80138">
        <ele>178</ele>
        <time>2022-09-18T07:26:42.000Z</time>
      </trkpt>
      <trkpt lat="49.81137" lon="4.80142">
        <ele>178</ele>
        <time>2022-09-18T07:26:43.000Z</time>
      </trkpt>
      <trkpt lat="49.81137" lon="4.80145">
        <ele>178</ele>
        <time>2022-09-18T07:26:44.000Z</time>
      </trkpt>
      <trkpt lat="49.81137" lon="4.80148">
        <ele>178</ele>
        <time>2022-09-18T07:26:45.000Z</time>
      </trkpt>
      <trkpt lat="49.81137" lon="4.80152">
        <ele>178</ele>
        <time>2022-09-18T07:26:46.000Z</time>
      </trkpt>
      <trkpt lat="49.81137" lon="4.80155">
        <ele>178</ele>
        <time>2022-09-18T07:26:47.000Z</time>
      </trkpt>
      <trkpt lat="49.81137" lon="4.80159">
        <ele>178</ele>
        <time>2022-09-18T07:26:48.000Z</time>
      </trkpt>
      <trkpt lat="49.81136" lon="4.80162">
        <ele>179</ele>
        <time>2022-09-18T07:26:49.000Z</time>
      </trkpt>
      <trkpt lat="49.81136" lon="4.80165">
        <ele>179</ele>
        <time>2022-09-18T07:26:50.000Z</time>
      </trkpt>
      <trkpt lat="49.81136" lon="4.80168">
        <ele>179</ele>
        <time>2022-09-18T07:26:51.000Z</time>
      </trkpt>
      <trkpt lat="49.81135" lon="4.8017">
        <ele>179</ele>
        <time>2022-09-18T07:26:52.000Z</time>
      </trkpt>
      <trkpt lat="49.81135" lon="4.80172">
        <ele>179</ele>
        <time>2022-09-18T07:26:53.000Z</time>
      </trkpt>
      <trkpt lat="49.81135" lon="4.80175">
        <ele>179</ele>
        <time>2022-09-18T07:26:54.000Z</time>
      </trkpt>
      <trkpt lat="49.81135" lon="4.80179">
        <ele>180</ele>
        <time>2022-09-18T07:26:55.000Z</time>
      </trkpt>
      <trkpt lat="49.81135" lon="4.80182">
        <ele>180</ele>
        <time>2022-09-18T07:26:56.000Z</time>
      </trkpt>
      <trkpt lat="49.81135" lon="4.80186">
        <ele>180</ele>
        <time>2022-09-18T07:26:57.000Z</time>
      </trkpt>
      <trkpt lat="49.81135" lon="4.80189">
        <ele>180</ele>
        <time>2022-09-18T07:26:58.000Z</time>
      </trkpt>
      <trkpt lat="49.81135" lon="4.80193">
        <ele>180</ele>
        <time>2022-09-18T07:26:59.000Z</time>
      </trkpt>
      <trkpt lat="49.81135" lon="4.80196">
        <ele>180</ele>
        <time>2022-09-18T07:27:00.000Z</time>
      </trkpt>
      <trkpt lat="49.81135" lon="4.80199">
        <ele>181</ele>
        <time>2022-09-18T07:27:01.000Z</time>
      </trkpt>
      <trkpt lat="49.81135" lon="4.80203">
        <ele>181</ele>
        <time>2022-09-18T07:27:02.000Z</time>
      </trkpt>
      <trkpt lat="49.81135" lon="4.80207">
        <ele>181</ele>
        <time>2022-09-18T07:27:03.000Z</time>
      </trkpt>
      <trkpt lat="49.81135" lon="4.80211">
        <ele>181</ele>
        <time>2022-09-18T07:27:04.000Z</time>
      </trkpt>
      <trkpt lat="49.81135" lon="4.80213">
        <ele>181</ele>
        <time>2022-09-18T07:27:05.000Z</time>
      </trkpt>
      <trkpt lat="49.81135" lon="4.80215">
        <ele>181</ele>
        <time>2022-09-18T07:27:06.000Z</time>
      </trkpt>
      <trkpt lat="49.81134" lon="4.80218">
        <ele>181</ele>
        <time>2022-09-18T07:27:07.000Z</time>
      </trkpt>
      <trkpt lat="49.81134" lon="4.8022">
        <ele>181</ele>
        <time>2022-09-18T07:27:08.000Z</time>
      </trkpt>
      <trkpt lat="49.81134" lon="4.80223">
        <ele>181</ele>
        <time>2022-09-18T07:27:09.000Z</time>
      </trkpt>
      <trkpt lat="49.81133" lon="4.80226">
        <ele>182</ele>
        <time>2022-09-18T07:27:10.000Z</time>
      </trkpt>
      <trkpt lat="49.81134" lon="4.8023">
        <ele>182</ele>
        <time>2022-09-18T07:27:11.000Z</time>
      </trkpt>
      <trkpt lat="49.81135" lon="4.80234">
        <ele>182</ele>
        <time>2022-09-18T07:27:12.000Z</time>
      </trkpt>
      <trkpt lat="49.81135" lon="4.80237">
        <ele>182</ele>
        <time>2022-09-18T07:27:13.000Z</time>
      </trkpt>
      <trkpt lat="49.81136" lon="4.80242">
        <ele>182</ele>
        <time>2022-09-18T07:27:14.000Z</time>
      </trkpt>
      <trkpt lat="49.81136" lon="4.80245">
        <ele>182</ele>
        <time>2022-09-18T07:27:15.000Z</time>
      </trkpt>
      <trkpt lat="49.81137" lon="4.80249">
        <ele>183</ele>
        <time>2022-09-18T07:27:16.000Z</time>
      </trkpt>
      <trkpt lat="49.81137" lon="4.80253">
        <ele>183</ele>
        <time>2022-09-18T07:27:17.000Z</time>
      </trkpt>
      <trkpt lat="49.81138" lon="4.80258">
        <ele>183</ele>
        <time>2022-09-18T07:27:18.000Z</time>
      </trkpt>
      <trkpt lat="49.81138" lon="4.80261">
        <ele>183</ele>
        <time>2022-09-18T07:27:19.000Z</time>
      </trkpt>
      <trkpt lat="49.81139" lon="4.80265">
        <ele>184</ele>
        <time>2022-09-18T07:27:20.000Z</time>
      </trkpt>
      <trkpt lat="49.81139" lon="4.80268">
        <ele>184</ele>
        <time>2022-09-18T07:27:21.000Z</time>
      </trkpt>
      <trkpt lat="49.8114" lon="4.80271">
        <ele>184</ele>
        <time>2022-09-18T07:27:22.000Z</time>
      </trkpt>
      <trkpt lat="49.81141" lon="4.80275">
        <ele>184</ele>
        <time>2022-09-18T07:27:23.000Z</time>
      </trkpt>
      <trkpt lat="49.81141" lon="4.80279">
        <ele>184</ele>
        <time>2022-09-18T07:27:24.000Z</time>
      </trkpt>
      <trkpt lat="49.81141" lon="4.80282">
        <ele>184</ele>
        <time>2022-09-18T07:27:25.000Z</time>
      </trkpt>
      <trkpt lat="49.81141" lon="4.80286">
        <ele>185</ele>
        <time>2022-09-18T07:27:26.000Z</time>
      </trkpt>
      <trkpt lat="49.81142" lon="4.8029">
        <ele>185</ele>
        <time>2022-09-18T07:27:27.000Z</time>
      </trkpt>
      <trkpt lat="49.81141" lon="4.80294">
        <ele>185</ele>
        <time>2022-09-18T07:27:28.000Z</time>
      </trkpt>
      <trkpt lat="49.81142" lon="4.80298">
        <ele>185</ele>
        <time>2022-09-18T07:27:29.000Z</time>
      </trkpt>
      <trkpt lat="49.81142" lon="4.80302">
        <ele>185</ele>
        <time>2022-09-18T07:27:30.000Z</time>
      </trkpt>
      <trkpt lat="49.81142" lon="4.80306">
        <ele>186</ele>
        <time>2022-09-18T07:27:31.000Z</time>
      </trkpt>
      <trkpt lat="49.81142" lon="4.8031">
        <ele>186</ele>
        <time>2022-09-18T07:27:32.000Z</time>
      </trkpt>
      <trkpt lat="49.81142" lon="4.80313">
        <ele>186</ele>
        <time>2022-09-18T07:27:33.000Z</time>
      </trkpt>
      <trkpt lat="49.81142" lon="4.80317">
        <ele>186</ele>
        <time>2022-09-18T07:27:34.000Z</time>
      </trkpt>
      <trkpt lat="49.81142" lon="4.80319">
        <ele>186</ele>
        <time>2022-09-18T07:27:35.000Z</time>
      </trkpt>
      <trkpt lat="49.81141" lon="4.80323">
        <ele>186</ele>
        <time>2022-09-18T07:27:36.000Z</time>
      </trkpt>
      <trkpt lat="49.81141" lon="4.80326">
        <ele>187</ele>
        <time>2022-09-18T07:27:37.000Z</time>
      </trkpt>
      <trkpt lat="49.81141" lon="4.8033">
        <ele>187</ele>
        <time>2022-09-18T07:27:38.000Z</time>
      </trkpt>
      <trkpt lat="49.81141" lon="4.80333">
        <ele>187</ele>
        <time>2022-09-18T07:27:39.000Z</time>
      </trkpt>
      <trkpt lat="49.81142" lon="4.80337">
        <ele>187</ele>
        <time>2022-09-18T07:27:40.000Z</time>
      </trkpt>
      <trkpt lat="49.81142" lon="4.80341">
        <ele>187</ele>
        <time>2022-09-18T07:27:41.000Z</time>
      </trkpt>
      <trkpt lat="49.81143" lon="4.80345">
        <ele>188</ele>
        <time>2022-09-18T07:27:42.000Z</time>
      </trkpt>
      <trkpt lat="49.81143" lon="4.80348">
        <ele>188</ele>
        <time>2022-09-18T07:27:43.000Z</time>
      </trkpt>
      <trkpt lat="49.81143" lon="4.80351">
        <ele>188</ele>
        <time>2022-09-18T07:27:44.000Z</time>
      </trkpt>
      <trkpt lat="49.81143" lon="4.80354">
        <ele>188</ele>
        <time>2022-09-18T07:27:45.000Z</time>
      </trkpt>
      <trkpt lat="49.81144" lon="4.80357">
        <ele>188</ele>
        <time>2022-09-18T07:27:46.000Z</time>
      </trkpt>
      <trkpt lat="49.81144" lon="4.80361">
        <ele>189</ele>
        <time>2022-09-18T07:27:47.000Z</time>
      </trkpt>
      <trkpt lat="49.81145" lon="4.80364">
        <ele>189</ele>
        <time>2022-09-18T07:27:48.000Z</time>
      </trkpt>
      <trkpt lat="49.81145" lon="4.80367">
        <ele>189</ele>
        <time>2022-09-18T07:27:49.000Z</time>
      </trkpt>
      <trkpt lat="49.81146" lon="4.80371">
        <ele>189</ele>
        <time>2022-09-18T07:27:50.000Z</time>
      </trkpt>
      <trkpt lat="49.81146" lon="4.80374">
        <ele>190</ele>
        <time>2022-09-18T07:27:51.000Z</time>
      </trkpt>
      <trkpt lat="49.81147" lon="4.80378">
        <ele>190</ele>
        <time>2022-09-18T07:27:52.000Z</time>
      </trkpt>
      <trkpt lat="49.81148" lon="4.80382">
        <ele>190</ele>
        <time>2022-09-18T07:27:53.000Z</time>
      </trkpt>
      <trkpt lat="49.81149" lon="4.80386">
        <ele>190</ele>
        <time>2022-09-18T07:27:54.000Z</time>
      </trkpt>
      <trkpt lat="49.8115" lon="4.8039">
        <ele>191</ele>
        <time>2022-09-18T07:27:55.000Z</time>
      </trkpt>
      <trkpt lat="49.8115" lon="4.80394">
        <ele>191</ele>
        <time>2022-09-18T07:27:56.000Z</time>
      </trkpt>
      <trkpt lat="49.8115" lon="4.80397">
        <ele>192</ele>
        <time>2022-09-18T07:27:57.000Z</time>
      </trkpt>
      <trkpt lat="49.81151" lon="4.804">
        <ele>192</ele>
        <time>2022-09-18T07:27:58.000Z</time>
      </trkpt>
      <trkpt lat="49.81152" lon="4.804">
        <ele>192</ele>
        <time>2022-09-18T07:27:59.000Z</time>
      </trkpt>
      <trkpt lat="49.81153" lon="4.804">
        <ele>193</ele>
        <time>2022-09-18T07:28:00.000Z</time>
      </trkpt>
      <trkpt lat="49.81153" lon="4.80398">
        <ele>193</ele>
        <time>2022-09-18T07:28:01.000Z</time>
      </trkpt>
      <trkpt lat="49.81153" lon="4.80395">
        <ele>193</ele>
        <time>2022-09-18T07:28:02.000Z</time>
      </trkpt>
      <trkpt lat="49.81153" lon="4.80391">
        <ele>194</ele>
        <time>2022-09-18T07:28:03.000Z</time>
      </trkpt>
      <trkpt lat="49.81153" lon="4.80386">
        <ele>194</ele>
        <time>2022-09-18T07:28:04.000Z</time>
      </trkpt>
      <trkpt lat="49.81153" lon="4.8038">
        <ele>194</ele>
        <time>2022-09-18T07:28:05.000Z</time>
      </trkpt>
      <trkpt lat="49.81153" lon="4.80374">
        <ele>195</ele>
        <time>2022-09-18T07:28:06.000Z</time>
      </trkpt>
      <trkpt lat="49.81153" lon="4.80368">
        <ele>195</ele>
        <time>2022-09-18T07:28:07.000Z</time>
      </trkpt>
      <trkpt lat="49.81154" lon="4.80362">
        <ele>195</ele>
        <time>2022-09-18T07:28:08.000Z</time>
      </trkpt>
      <trkpt lat="49.81156" lon="4.80356">
        <ele>195</ele>
        <time>2022-09-18T07:28:09.000Z</time>
      </trkpt>
      <trkpt lat="49.81158" lon="4.80351">
        <ele>195</ele>
        <time>2022-09-18T07:28:10.000Z</time>
      </trkpt>
      <trkpt lat="49.81161" lon="4.80347">
        <ele>196</ele>
        <time>2022-09-18T07:28:11.000Z</time>
      </trkpt>
      <trkpt lat="49.81163" lon="4.80342">
        <ele>196</ele>
        <time>2022-09-18T07:28:12.000Z</time>
      </trkpt>
      <trkpt lat="49.81165" lon="4.80338">
        <ele>196</ele>
        <time>2022-09-18T07:28:13.000Z</time>
      </trkpt>
      <trkpt lat="49.81167" lon="4.80334">
        <ele>196</ele>
        <time>2022-09-18T07:28:14.000Z</time>
      </trkpt>
      <trkpt lat="49.81169" lon="4.8033">
        <ele>196</ele>
        <time>2022-09-18T07:28:15.000Z</time>
      </trkpt>
      <trkpt lat="49.81171" lon="4.80325">
        <ele>196</ele>
        <time>2022-09-18T07:28:16.000Z</time>
      </trkpt>
      <trkpt lat="49.81173" lon="4.8032">
        <ele>196</ele>
        <time>2022-09-18T07:28:17.000Z</time>
      </trkpt>
      <trkpt lat="49.81176" lon="4.80316">
        <ele>196</ele>
        <time>2022-09-18T07:28:18.000Z</time>
      </trkpt>
      <trkpt lat="49.81177" lon="4.80311">
        <ele>197</ele>
        <time>2022-09-18T07:28:19.000Z</time>
      </trkpt>
      <trkpt lat="49.81179" lon="4.80305">
        <ele>197</ele>
        <time>2022-09-18T07:28:20.000Z</time>
      </trkpt>
      <trkpt lat="49.81182" lon="4.803">
        <ele>197</ele>
        <time>2022-09-18T07:28:21.000Z</time>
      </trkpt>
      <trkpt lat="49.81183" lon="4.80293">
        <ele>197</ele>
        <time>2022-09-18T07:28:22.000Z</time>
      </trkpt>
      <trkpt lat="49.81185" lon="4.80287">
        <ele>197</ele>
        <time>2022-09-18T07:28:23.000Z</time>
      </trkpt>
      <trkpt lat="49.81187" lon="4.80281">
        <ele>197</ele>
        <time>2022-09-18T07:28:24.000Z</time>
      </trkpt>
      <trkpt lat="49.81189" lon="4.80274">
        <ele>197</ele>
        <time>2022-09-18T07:28:25.000Z</time>
      </trkpt>
      <trkpt lat="49.8119" lon="4.80267">
        <ele>197</ele>
        <time>2022-09-18T07:28:26.000Z</time>
      </trkpt>
      <trkpt lat="49.81192" lon="4.8026">
        <ele>197</ele>
        <time>2022-09-18T07:28:27.000Z</time>
      </trkpt>
      <trkpt lat="49.81194" lon="4.80254">
        <ele>197</ele>
        <time>2022-09-18T07:28:28.000Z</time>
      </trkpt>
      <trkpt lat="49.81196" lon="4.80247">
        <ele>197</ele>
        <time>2022-09-18T07:28:29.000Z</time>
      </trkpt>
      <trkpt lat="49.81198" lon="4.80239">
        <ele>197</ele>
        <time>2022-09-18T07:28:30.000Z</time>
      </trkpt>
      <trkpt lat="49.812" lon="4.80232">
        <ele>197</ele>
        <time>2022-09-18T07:28:31.000Z</time>
      </trkpt>
      <trkpt lat="49.81202" lon="4.80225">
        <ele>197</ele>
        <time>2022-09-18T07:28:32.000Z</time>
      </trkpt>
      <trkpt lat="49.81204" lon="4.80218">
        <ele>198</ele>
        <time>2022-09-18T07:28:33.000Z</time>
      </trkpt>
      <trkpt lat="49.81206" lon="4.80211">
        <ele>198</ele>
        <time>2022-09-18T07:28:34.000Z</time>
      </trkpt>
      <trkpt lat="49.81208" lon="4.80204">
        <ele>198</ele>
        <time>2022-09-18T07:28:35.000Z</time>
      </trkpt>
      <trkpt lat="49.81211" lon="4.80198">
        <ele>198</ele>
        <time>2022-09-18T07:28:36.000Z</time>
      </trkpt>
      <trkpt lat="49.81214" lon="4.80191">
        <ele>198</ele>
        <time>2022-09-18T07:28:37.000Z</time>
      </trkpt>
      <trkpt lat="49.81217" lon="4.80185">
        <ele>198</ele>
        <time>2022-09-18T07:28:38.000Z</time>
      </trkpt>
      <trkpt lat="49.8122" lon="4.80179">
        <ele>198</ele>
        <time>2022-09-18T07:28:39.000Z</time>
      </trkpt>
      <trkpt lat="49.81222" lon="4.80173">
        <ele>198</ele>
        <time>2022-09-18T07:28:40.000Z</time>
      </trkpt>
      <trkpt lat="49.81225" lon="4.80167">
        <ele>198</ele>
        <time>2022-09-18T07:28:41.000Z</time>
      </trkpt>
      <trkpt lat="49.81228" lon="4.80162">
        <ele>198</ele>
        <time>2022-09-18T07:28:42.000Z</time>
      </trkpt>
      <trkpt lat="49.8123" lon="4.80156">
        <ele>198</ele>
        <time>2022-09-18T07:28:43.000Z</time>
      </trkpt>
      <trkpt lat="49.81233" lon="4.80151">
        <ele>198</ele>
        <time>2022-09-18T07:28:44.000Z</time>
      </trkpt>
      <trkpt lat="49.81236" lon="4.80144">
        <ele>199</ele>
        <time>2022-09-18T07:28:45.000Z</time>
      </trkpt>
      <trkpt lat="49.81238" lon="4.80138">
        <ele>199</ele>
        <time>2022-09-18T07:28:46.000Z</time>
      </trkpt>
      <trkpt lat="49.8124" lon="4.80131">
        <ele>199</ele>
        <time>2022-09-18T07:28:47.000Z</time>
      </trkpt>
      <trkpt lat="49.81243" lon="4.80126">
        <ele>199</ele>
        <time>2022-09-18T07:28:48.000Z</time>
      </trkpt>
      <trkpt lat="49.81246" lon="4.80121">
        <ele>199</ele>
        <time>2022-09-18T07:28:49.000Z</time>
      </trkpt>
      <trkpt lat="49.81248" lon="4.80115">
        <ele>199</ele>
        <time>2022-09-18T07:28:50.000Z</time>
      </trkpt>
      <trkpt lat="49.81251" lon="4.8011">
        <ele>199</ele>
        <time>2022-09-18T07:28:51.000Z</time>
      </trkpt>
      <trkpt lat="49.81254" lon="4.80105">
        <ele>199</ele>
        <time>2022-09-18T07:28:52.000Z</time>
      </trkpt>
      <trkpt lat="49.81257" lon="4.801">
        <ele>199</ele>
        <time>2022-09-18T07:28:53.000Z</time>
      </trkpt>
      <trkpt lat="49.81261" lon="4.80096">
        <ele>199</ele>
        <time>2022-09-18T07:28:54.000Z</time>
      </trkpt>
      <trkpt lat="49.81263" lon="4.80091">
        <ele>199</ele>
        <time>2022-09-18T07:28:55.000Z</time>
      </trkpt>
      <trkpt lat="49.81265" lon="4.80085">
        <ele>199</ele>
        <time>2022-09-18T07:28:56.000Z</time>
      </trkpt>
      <trkpt lat="49.81267" lon="4.80079">
        <ele>199</ele>
        <time>2022-09-18T07:28:57.000Z</time>
      </trkpt>
      <trkpt lat="49.8127" lon="4.80075">
        <ele>199</ele>
        <time>2022-09-18T07:28:58.000Z</time>
      </trkpt>
      <trkpt lat="49.81273" lon="4.8007">
        <ele>200</ele>
        <time>2022-09-18T07:28:59.000Z</time>
      </trkpt>
      <trkpt lat="49.81277" lon="4.80065">
        <ele>200</ele>
        <time>2022-09-18T07:29:00.000Z</time>
      </trkpt>
      <trkpt lat="49.8128" lon="4.8006">
        <ele>200</ele>
        <time>2022-09-18T07:29:01.000Z</time>
      </trkpt>
      <trkpt lat="49.81284" lon="4.80055">
        <ele>200</ele>
        <time>2022-09-18T07:29:02.000Z</time>
      </trkpt>
      <trkpt lat="49.81286" lon="4.8005">
        <ele>200</ele>
        <time>2022-09-18T07:29:03.000Z</time>
      </trkpt>
      <trkpt lat="49.81289" lon="4.80046">
        <ele>200</ele>
        <time>2022-09-18T07:29:04.000Z</time>
      </trkpt>
      <trkpt lat="49.81292" lon="4.80042">
        <ele>200</ele>
        <time>2022-09-18T07:29:05.000Z</time>
      </trkpt>
      <trkpt lat="49.81294" lon="4.80036">
        <ele>200</ele>
        <time>2022-09-18T07:29:06.000Z</time>
      </trkpt>
      <trkpt lat="49.81297" lon="4.80031">
        <ele>200</ele>
        <time>2022-09-18T07:29:07.000Z</time>
      </trkpt>
      <trkpt lat="49.813" lon="4.80025">
        <ele>200</ele>
        <time>2022-09-18T07:29:08.000Z</time>
      </trkpt>
      <trkpt lat="49.81302" lon="4.80019">
        <ele>200</ele>
        <time>2022-09-18T07:29:09.000Z</time>
      </trkpt>
      <trkpt lat="49.81304" lon="4.80013">
        <ele>200</ele>
        <time>2022-09-18T07:29:10.000Z</time>
      </trkpt>
      <trkpt lat="49.81306" lon="4.80007">
        <ele>200</ele>
        <time>2022-09-18T07:29:11.000Z</time>
      </trkpt>
      <trkpt lat="49.81308" lon="4.8">
        <ele>200</ele>
        <time>2022-09-18T07:29:12.000Z</time>
      </trkpt>
      <trkpt lat="49.81311" lon="4.79994">
        <ele>200</ele>
        <time>2022-09-18T07:29:13.000Z</time>
      </trkpt>
      <trkpt lat="49.81314" lon="4.79987">
        <ele>200</ele>
        <time>2022-09-18T07:29:14.000Z</time>
      </trkpt>
      <trkpt lat="49.81318" lon="4.79981">
        <ele>200</ele>
        <time>2022-09-18T07:29:15.000Z</time>
      </trkpt>
      <trkpt lat="49.81321" lon="4.79975">
        <ele>200</ele>
        <time>2022-09-18T07:29:16.000Z</time>
      </trkpt>
      <trkpt lat="49.81324" lon="4.79968">
        <ele>200</ele>
        <time>2022-09-18T07:29:17.000Z</time>
      </trkpt>
      <trkpt lat="49.81328" lon="4.79961">
        <ele>200</ele>
        <time>2022-09-18T07:29:18.000Z</time>
      </trkpt>
      <trkpt lat="49.81331" lon="4.79954">
        <ele>201</ele>
        <time>2022-09-18T07:29:19.000Z</time>
      </trkpt>
      <trkpt lat="49.81334" lon="4.79947">
        <ele>201</ele>
        <time>2022-09-18T07:29:20.000Z</time>
      </trkpt>
      <trkpt lat="49.81337" lon="4.79941">
        <ele>201</ele>
        <time>2022-09-18T07:29:21.000Z</time>
      </trkpt>
      <trkpt lat="49.8134" lon="4.79935">
        <ele>201</ele>
        <time>2022-09-18T07:29:22.000Z</time>
      </trkpt>
      <trkpt lat="49.81343" lon="4.79927">
        <ele>201</ele>
        <time>2022-09-18T07:29:23.000Z</time>
      </trkpt>
      <trkpt lat="49.81346" lon="4.79918">
        <ele>201</ele>
        <time>2022-09-18T07:29:24.000Z</time>
      </trkpt>
      <trkpt lat="49.81348" lon="4.7991">
        <ele>201</ele>
        <time>2022-09-18T07:29:25.000Z</time>
      </trkpt>
      <trkpt lat="49.81349" lon="4.79902">
        <ele>201</ele>
        <time>2022-09-18T07:29:26.000Z</time>
      </trkpt>
      <trkpt lat="49.81351" lon="4.79893">
        <ele>201</ele>
        <time>2022-09-18T07:29:27.000Z</time>
      </trkpt>
      <trkpt lat="49.81353" lon="4.79884">
        <ele>201</ele>
        <time>2022-09-18T07:29:28.000Z</time>
      </trkpt>
      <trkpt lat="49.81356" lon="4.79876">
        <ele>201</ele>
        <time>2022-09-18T07:29:29.000Z</time>
      </trkpt>
      <trkpt lat="49.81358" lon="4.79869">
        <ele>201</ele>
        <time>2022-09-18T07:29:30.000Z</time>
      </trkpt>
      <trkpt lat="49.81361" lon="4.79861">
        <ele>201</ele>
        <time>2022-09-18T07:29:31.000Z</time>
      </trkpt>
      <trkpt lat="49.81363" lon="4.79853">
        <ele>201</ele>
        <time>2022-09-18T07:29:32.000Z</time>
      </trkpt>
      <trkpt lat="49.81365" lon="4.79844">
        <ele>201</ele>
        <time>2022-09-18T07:29:33.000Z</time>
      </trkpt>
      <trkpt lat="49.81367" lon="4.79835">
        <ele>201</ele>
        <time>2022-09-18T07:29:34.000Z</time>
      </trkpt>
      <trkpt lat="49.81369" lon="4.79825">
        <ele>201</ele>
        <time>2022-09-18T07:29:35.000Z</time>
      </trkpt>
      <trkpt lat="49.81371" lon="4.79816">
        <ele>201</ele>
        <time>2022-09-18T07:29:36.000Z</time>
      </trkpt>
      <trkpt lat="49.81373" lon="4.79807">
        <ele>201</ele>
        <time>2022-09-18T07:29:37.000Z</time>
      </trkpt>
      <trkpt lat="49.81375" lon="4.79799">
        <ele>201</ele>
        <time>2022-09-18T07:29:38.000Z</time>
      </trkpt>
      <trkpt lat="49.81377" lon="4.79791">
        <ele>201</ele>
        <time>2022-09-18T07:29:39.000Z</time>
      </trkpt>
      <trkpt lat="49.81379" lon="4.79783">
        <ele>201</ele>
        <time>2022-09-18T07:29:40.000Z</time>
      </trkpt>
      <trkpt lat="49.81381" lon="4.79775">
        <ele>201</ele>
        <time>2022-09-18T07:29:41.000Z</time>
      </trkpt>
      <trkpt lat="49.81383" lon="4.79766">
        <ele>200</ele>
        <time>2022-09-18T07:29:42.000Z</time>
      </trkpt>
      <trkpt lat="49.81386" lon="4.79756">
        <ele>200</ele>
        <time>2022-09-18T07:29:43.000Z</time>
      </trkpt>
      <trkpt lat="49.81389" lon="4.79748">
        <ele>200</ele>
        <time>2022-09-18T07:29:44.000Z</time>
      </trkpt>
      <trkpt lat="49.81391" lon="4.79739">
        <ele>200</ele>
        <time>2022-09-18T07:29:45.000Z</time>
      </trkpt>
      <trkpt lat="49.81393" lon="4.79731">
        <ele>200</ele>
        <time>2022-09-18T07:29:46.000Z</time>
      </trkpt>
      <trkpt lat="49.81394" lon="4.79722">
        <ele>200</ele>
        <time>2022-09-18T07:29:47.000Z</time>
      </trkpt>
      <trkpt lat="49.81396" lon="4.79714">
        <ele>200</ele>
        <time>2022-09-18T07:29:48.000Z</time>
      </trkpt>
      <trkpt lat="49.81398" lon="4.79707">
        <ele>200</ele>
        <time>2022-09-18T07:29:49.000Z</time>
      </trkpt>
      <trkpt lat="49.814" lon="4.797">
        <ele>200</ele>
        <time>2022-09-18T07:29:50.000Z</time>
      </trkpt>
      <trkpt lat="49.81402" lon="4.79693">
        <ele>200</ele>
        <time>2022-09-18T07:29:51.000Z</time>
      </trkpt>
      <trkpt lat="49.81403" lon="4.79685">
        <ele>200</ele>
        <time>2022-09-18T07:29:52.000Z</time>
      </trkpt>
      <trkpt lat="49.81405" lon="4.79678">
        <ele>200</ele>
        <time>2022-09-18T07:29:53.000Z</time>
      </trkpt>
      <trkpt lat="49.81407" lon="4.79671">
        <ele>200</ele>
        <time>2022-09-18T07:29:54.000Z</time>
      </trkpt>
      <trkpt lat="49.81408" lon="4.79664">
        <ele>200</ele>
        <time>2022-09-18T07:29:55.000Z</time>
      </trkpt>
      <trkpt lat="49.81409" lon="4.79656">
        <ele>200</ele>
        <time>2022-09-18T07:29:56.000Z</time>
      </trkpt>
      <trkpt lat="49.8141" lon="4.79648">
        <ele>200</ele>
        <time>2022-09-18T07:29:57.000Z</time>
      </trkpt>
      <trkpt lat="49.81411" lon="4.7964">
        <ele>200</ele>
        <time>2022-09-18T07:29:58.000Z</time>
      </trkpt>
      <trkpt lat="49.81413" lon="4.79632">
        <ele>200</ele>
        <time>2022-09-18T07:29:59.000Z</time>
      </trkpt>
      <trkpt lat="49.81415" lon="4.79625">
        <ele>200</ele>
        <time>2022-09-18T07:30:00.000Z</time>
      </trkpt>
      <trkpt lat="49.81416" lon="4.79616">
        <ele>200</ele>
        <time>2022-09-18T07:30:01.000Z</time>
      </trkpt>
      <trkpt lat="49.81418" lon="4.79609">
        <ele>200</ele>
        <time>2022-09-18T07:30:02.000Z</time>
      </trkpt>
      <trkpt lat="49.81419" lon="4.79601">
        <ele>200</ele>
        <time>2022-09-18T07:30:03.000Z</time>
      </trkpt>
      <trkpt lat="49.8142" lon="4.79595">
        <ele>200</ele>
        <time>2022-09-18T07:30:04.000Z</time>
      </trkpt>
      <trkpt lat="49.81421" lon="4.79588">
        <ele>200</ele>
        <time>2022-09-18T07:30:05.000Z</time>
      </trkpt>
      <trkpt lat="49.81422" lon="4.7958">
        <ele>200</ele>
        <time>2022-09-18T07:30:06.000Z</time>
      </trkpt>
      <trkpt lat="49.81423" lon="4.79571">
        <ele>200</ele>
        <time>2022-09-18T07:30:07.000Z</time>
      </trkpt>
      <trkpt lat="49.81424" lon="4.79562">
        <ele>200</ele>
        <time>2022-09-18T07:30:08.000Z</time>
      </trkpt>
      <trkpt lat="49.81425" lon="4.79554">
        <ele>200</ele>
        <time>2022-09-18T07:30:09.000Z</time>
      </trkpt>
      <trkpt lat="49.81426" lon="4.79545">
        <ele>199</ele>
        <time>2022-09-18T07:30:10.000Z</time>
      </trkpt>
      <trkpt lat="49.81427" lon="4.79536">
        <ele>199</ele>
        <time>2022-09-18T07:30:11.000Z</time>
      </trkpt>
      <trkpt lat="49.81428" lon="4.79527">
        <ele>199</ele>
        <time>2022-09-18T07:30:12.000Z</time>
      </trkpt>
      <trkpt lat="49.8143" lon="4.79518">
        <ele>199</ele>
        <time>2022-09-18T07:30:13.000Z</time>
      </trkpt>
      <trkpt lat="49.8143" lon="4.79509">
        <ele>199</ele>
        <time>2022-09-18T07:30:14.000Z</time>
      </trkpt>
      <trkpt lat="49.81431" lon="4.79501">
        <ele>199</ele>
        <time>2022-09-18T07:30:15.000Z</time>
      </trkpt>
      <trkpt lat="49.81432" lon="4.79494">
        <ele>199</ele>
        <time>2022-09-18T07:30:16.000Z</time>
      </trkpt>
      <trkpt lat="49.81433" lon="4.79486">
        <ele>199</ele>
        <time>2022-09-18T07:30:17.000Z</time>
      </trkpt>
      <trkpt lat="49.81434" lon="4.79479">
        <ele>199</ele>
        <time>2022-09-18T07:30:18.000Z</time>
      </trkpt>
      <trkpt lat="49.81434" lon="4.79471">
        <ele>199</ele>
        <time>2022-09-18T07:30:19.000Z</time>
      </trkpt>
      <trkpt lat="49.81434" lon="4.79464">
        <ele>199</ele>
        <time>2022-09-18T07:30:20.000Z</time>
      </trkpt>
      <trkpt lat="49.81434" lon="4.79456">
        <ele>199</ele>
        <time>2022-09-18T07:30:21.000Z</time>
      </trkpt>
      <trkpt lat="49.81435" lon="4.79448">
        <ele>199</ele>
        <time>2022-09-18T07:30:22.000Z</time>
      </trkpt>
      <trkpt lat="49.81435" lon="4.7944">
        <ele>199</ele>
        <time>2022-09-18T07:30:23.000Z</time>
      </trkpt>
      <trkpt lat="49.81436" lon="4.79432">
        <ele>199</ele>
        <time>2022-09-18T07:30:24.000Z</time>
      </trkpt>
      <trkpt lat="49.81436" lon="4.79423">
        <ele>200</ele>
        <time>2022-09-18T07:30:25.000Z</time>
      </trkpt>
      <trkpt lat="49.81437" lon="4.79415">
        <ele>200</ele>
        <time>2022-09-18T07:30:26.000Z</time>
      </trkpt>
      <trkpt lat="49.81438" lon="4.79407">
        <ele>200</ele>
        <time>2022-09-18T07:30:27.000Z</time>
      </trkpt>
      <trkpt lat="49.8144" lon="4.794">
        <ele>200</ele>
        <time>2022-09-18T07:30:28.000Z</time>
      </trkpt>
      <trkpt lat="49.81442" lon="4.79395">
        <ele>200</ele>
        <time>2022-09-18T07:30:29.000Z</time>
      </trkpt>
      <trkpt lat="49.81444" lon="4.7939">
        <ele>200</ele>
        <time>2022-09-18T07:30:30.000Z</time>
      </trkpt>
      <trkpt lat="49.81446" lon="4.79386">
        <ele>200</ele>
        <time>2022-09-18T07:30:31.000Z</time>
      </trkpt>
      <trkpt lat="49.81448" lon="4.79382">
        <ele>200</ele>
        <time>2022-09-18T07:30:32.000Z</time>
      </trkpt>
      <trkpt lat="49.81449" lon="4.79378">
        <ele>200</ele>
        <time>2022-09-18T07:30:33.000Z</time>
      </trkpt>
      <trkpt lat="49.81449" lon="4.79373">
        <ele>200</ele>
        <time>2022-09-18T07:30:34.000Z</time>
      </trkpt>
      <trkpt lat="49.81448" lon="4.79366">
        <ele>200</ele>
        <time>2022-09-18T07:30:35.000Z</time>
      </trkpt>
      <trkpt lat="49.81448" lon="4.79359">
        <ele>200</ele>
        <time>2022-09-18T07:30:36.000Z</time>
      </trkpt>
      <trkpt lat="49.81449" lon="4.79352">
        <ele>200</ele>
        <time>2022-09-18T07:30:37.000Z</time>
      </trkpt>
      <trkpt lat="49.81449" lon="4.79344">
        <ele>200</ele>
        <time>2022-09-18T07:30:38.000Z</time>
      </trkpt>
      <trkpt lat="49.81449" lon="4.79337">
        <ele>200</ele>
        <time>2022-09-18T07:30:39.000Z</time>
      </trkpt>
      <trkpt lat="49.8145" lon="4.79331">
        <ele>200</ele>
        <time>2022-09-18T07:30:40.000Z</time>
      </trkpt>
      <trkpt lat="49.81451" lon="4.79325">
        <ele>200</ele>
        <time>2022-09-18T07:30:41.000Z</time>
      </trkpt>
      <trkpt lat="49.81451" lon="4.79319">
        <ele>200</ele>
        <time>2022-09-18T07:30:42.000Z</time>
      </trkpt>
      <trkpt lat="49.81452" lon="4.79313">
        <ele>199</ele>
        <time>2022-09-18T07:30:43.000Z</time>
      </trkpt>
      <trkpt lat="49.81453" lon="4.79306">
        <ele>199</ele>
        <time>2022-09-18T07:30:44.000Z</time>
      </trkpt>
      <trkpt lat="49.81454" lon="4.79299">
        <ele>199</ele>
        <time>2022-09-18T07:30:45.000Z</time>
      </trkpt>
      <trkpt lat="49.81455" lon="4.79291">
        <ele>199</ele>
        <time>2022-09-18T07:30:46.000Z</time>
      </trkpt>
      <trkpt lat="49.81456" lon="4.79284">
        <ele>198</ele>
        <time>2022-09-18T07:30:47.000Z</time>
      </trkpt>
      <trkpt lat="49.81457" lon="4.79277">
        <ele>198</ele>
        <time>2022-09-18T07:30:48.000Z</time>
      </trkpt>
      <trkpt lat="49.81459" lon="4.7927">
        <ele>198</ele>
        <time>2022-09-18T07:30:49.000Z</time>
      </trkpt>
      <trkpt lat="49.8146" lon="4.79262">
        <ele>198</ele>
        <time>2022-09-18T07:30:50.000Z</time>
      </trkpt>
      <trkpt lat="49.81461" lon="4.79255">
        <ele>198</ele>
        <time>2022-09-18T07:30:51.000Z</time>
      </trkpt>
      <trkpt lat="49.81463" lon="4.79247">
        <ele>198</ele>
        <time>2022-09-18T07:30:52.000Z</time>
      </trkpt>
      <trkpt lat="49.81464" lon="4.7924">
        <ele>197</ele>
        <time>2022-09-18T07:30:53.000Z</time>
      </trkpt>
      <trkpt lat="49.81466" lon="4.79232">
        <ele>197</ele>
        <time>2022-09-18T07:30:54.000Z</time>
      </trkpt>
      <trkpt lat="49.81468" lon="4.79224">
        <ele>197</ele>
        <time>2022-09-18T07:30:55.000Z</time>
      </trkpt>
      <trkpt lat="49.81468" lon="4.79216">
        <ele>197</ele>
        <time>2022-09-18T07:30:56.000Z</time>
      </trkpt>
      <trkpt lat="49.81469" lon="4.79208">
        <ele>197</ele>
        <time>2022-09-18T07:30:57.000Z</time>
      </trkpt>
      <trkpt lat="49.81469" lon="4.792">
        <ele>197</ele>
        <time>2022-09-18T07:30:58.000Z</time>
      </trkpt>
      <trkpt lat="49.81469" lon="4.79191">
        <ele>197</ele>
        <time>2022-09-18T07:30:59.000Z</time>
      </trkpt>
      <trkpt lat="49.81469" lon="4.79182">
        <ele>196</ele>
        <time>2022-09-18T07:31:00.000Z</time>
      </trkpt>
      <trkpt lat="49.81469" lon="4.79172">
        <ele>196</ele>
        <time>2022-09-18T07:31:01.000Z</time>
      </trkpt>
      <trkpt lat="49.8147" lon="4.79162">
        <ele>196</ele>
        <time>2022-09-18T07:31:02.000Z</time>
      </trkpt>
      <trkpt lat="49.81471" lon="4.79151">
        <ele>196</ele>
        <time>2022-09-18T07:31:03.000Z</time>
      </trkpt>
      <trkpt lat="49.81471" lon="4.79141">
        <ele>196</ele>
        <time>2022-09-18T07:31:04.000Z</time>
      </trkpt>
      <trkpt lat="49.81472" lon="4.79131">
        <ele>196</ele>
        <time>2022-09-18T07:31:05.000Z</time>
      </trkpt>
      <trkpt lat="49.81474" lon="4.79121">
        <ele>196</ele>
        <time>2022-09-18T07:31:06.000Z</time>
      </trkpt>
      <trkpt lat="49.81474" lon="4.79111">
        <ele>196</ele>
        <time>2022-09-18T07:31:07.000Z</time>
      </trkpt>
      <trkpt lat="49.81476" lon="4.79101">
        <ele>196</ele>
        <time>2022-09-18T07:31:08.000Z</time>
      </trkpt>
      <trkpt lat="49.81477" lon="4.79093">
        <ele>196</ele>
        <time>2022-09-18T07:31:09.000Z</time>
      </trkpt>
      <trkpt lat="49.81478" lon="4.79084">
        <ele>196</ele>
        <time>2022-09-18T07:31:10.000Z</time>
      </trkpt>
      <trkpt lat="49.81479" lon="4.79076">
        <ele>196</ele>
        <time>2022-09-18T07:31:11.000Z</time>
      </trkpt>
      <trkpt lat="49.8148" lon="4.79068">
        <ele>196</ele>
        <time>2022-09-18T07:31:12.000Z</time>
      </trkpt>
      <trkpt lat="49.81482" lon="4.79061">
        <ele>196</ele>
        <time>2022-09-18T07:31:13.000Z</time>
      </trkpt>
      <trkpt lat="49.81482" lon="4.79054">
        <ele>196</ele>
        <time>2022-09-18T07:31:14.000Z</time>
      </trkpt>
      <trkpt lat="49.81484" lon="4.79047">
        <ele>196</ele>
        <time>2022-09-18T07:31:15.000Z</time>
      </trkpt>
      <trkpt lat="49.81485" lon="4.7904">
        <ele>196</ele>
        <time>2022-09-18T07:31:16.000Z</time>
      </trkpt>
      <trkpt lat="49.81486" lon="4.79032">
        <ele>196</ele>
        <time>2022-09-18T07:31:17.000Z</time>
      </trkpt>
      <trkpt lat="49.81488" lon="4.79026">
        <ele>196</ele>
        <time>2022-09-18T07:31:18.000Z</time>
      </trkpt>
      <trkpt lat="49.81489" lon="4.79018">
        <ele>196</ele>
        <time>2022-09-18T07:31:19.000Z</time>
      </trkpt>
      <trkpt lat="49.81491" lon="4.7901">
        <ele>196</ele>
        <time>2022-09-18T07:31:20.000Z</time>
      </trkpt>
      <trkpt lat="49.81492" lon="4.79002">
        <ele>196</ele>
        <time>2022-09-18T07:31:21.000Z</time>
      </trkpt>
      <trkpt lat="49.81493" lon="4.78994">
        <ele>196</ele>
        <time>2022-09-18T07:31:22.000Z</time>
      </trkpt>
      <trkpt lat="49.81494" lon="4.78986">
        <ele>196</ele>
        <time>2022-09-18T07:31:23.000Z</time>
      </trkpt>
      <trkpt lat="49.81495" lon="4.78978">
        <ele>196</ele>
        <time>2022-09-18T07:31:24.000Z</time>
      </trkpt>
      <trkpt lat="49.81497" lon="4.78971">
        <ele>196</ele>
        <time>2022-09-18T07:31:25.000Z</time>
      </trkpt>
      <trkpt lat="49.81497" lon="4.78964">
        <ele>196</ele>
        <time>2022-09-18T07:31:26.000Z</time>
      </trkpt>
      <trkpt lat="49.81499" lon="4.78958">
        <ele>196</ele>
        <time>2022-09-18T07:31:27.000Z</time>
      </trkpt>
      <trkpt lat="49.815" lon="4.78952">
        <ele>196</ele>
        <time>2022-09-18T07:31:28.000Z</time>
      </trkpt>
      <trkpt lat="49.815" lon="4.78945">
        <ele>196</ele>
        <time>2022-09-18T07:31:29.000Z</time>
      </trkpt>
      <trkpt lat="49.81501" lon="4.78938">
        <ele>196</ele>
        <time>2022-09-18T07:31:30.000Z</time>
      </trkpt>
      <trkpt lat="49.81502" lon="4.78929">
        <ele>196</ele>
        <time>2022-09-18T07:31:31.000Z</time>
      </trkpt>
      <trkpt lat="49.81504" lon="4.7892">
        <ele>196</ele>
        <time>2022-09-18T07:31:32.000Z</time>
      </trkpt>
      <trkpt lat="49.81505" lon="4.78911">
        <ele>196</ele>
        <time>2022-09-18T07:31:33.000Z</time>
      </trkpt>
      <trkpt lat="49.81507" lon="4.78903">
        <ele>196</ele>
        <time>2022-09-18T07:31:34.000Z</time>
      </trkpt>
      <trkpt lat="49.81509" lon="4.78896">
        <ele>195</ele>
        <time>2022-09-18T07:31:35.000Z</time>
      </trkpt>
      <trkpt lat="49.8151" lon="4.78889">
        <ele>195</ele>
        <time>2022-09-18T07:31:36.000Z</time>
      </trkpt>
      <trkpt lat="49.81512" lon="4.78882">
        <ele>195</ele>
        <time>2022-09-18T07:31:37.000Z</time>
      </trkpt>
      <trkpt lat="49.81514" lon="4.78874">
        <ele>195</ele>
        <time>2022-09-18T07:31:38.000Z</time>
      </trkpt>
      <trkpt lat="49.81515" lon="4.78867">
        <ele>195</ele>
        <time>2022-09-18T07:31:39.000Z</time>
      </trkpt>
      <trkpt lat="49.81518" lon="4.7886">
        <ele>195</ele>
        <time>2022-09-18T07:31:40.000Z</time>
      </trkpt>
      <trkpt lat="49.8152" lon="4.78852">
        <ele>195</ele>
        <time>2022-09-18T07:31:41.000Z</time>
      </trkpt>
      <trkpt lat="49.81522" lon="4.78844">
        <ele>194</ele>
        <time>2022-09-18T07:31:42.000Z</time>
      </trkpt>
      <trkpt lat="49.81525" lon="4.78837">
        <ele>194</ele>
        <time>2022-09-18T07:31:43.000Z</time>
      </trkpt>
      <trkpt lat="49.81528" lon="4.7883">
        <ele>194</ele>
        <time>2022-09-18T07:31:44.000Z</time>
      </trkpt>
      <trkpt lat="49.8153" lon="4.78823">
        <ele>194</ele>
        <time>2022-09-18T07:31:45.000Z</time>
      </trkpt>
      <trkpt lat="49.81532" lon="4.78816">
        <ele>194</ele>
        <time>2022-09-18T07:31:46.000Z</time>
      </trkpt>
      <trkpt lat="49.81533" lon="4.78809">
        <ele>194</ele>
        <time>2022-09-18T07:31:47.000Z</time>
      </trkpt>
      <trkpt lat="49.81535" lon="4.78802">
        <ele>194</ele>
        <time>2022-09-18T07:31:48.000Z</time>
      </trkpt>
      <trkpt lat="49.81537" lon="4.78794">
        <ele>194</ele>
        <time>2022-09-18T07:31:49.000Z</time>
      </trkpt>
      <trkpt lat="49.8154" lon="4.78786">
        <ele>194</ele>
        <time>2022-09-18T07:31:50.000Z</time>
      </trkpt>
      <trkpt lat="49.81544" lon="4.78779">
        <ele>194</ele>
        <time>2022-09-18T07:31:51.000Z</time>
      </trkpt>
      <trkpt lat="49.81546" lon="4.78772">
        <ele>194</ele>
        <time>2022-09-18T07:31:52.000Z</time>
      </trkpt>
      <trkpt lat="49.81549" lon="4.78766">
        <ele>193</ele>
        <time>2022-09-18T07:31:53.000Z</time>
      </trkpt>
      <trkpt lat="49.81551" lon="4.78758">
        <ele>193</ele>
        <time>2022-09-18T07:31:54.000Z</time>
      </trkpt>
      <trkpt lat="49.81553" lon="4.78751">
        <ele>193</ele>
        <time>2022-09-18T07:31:55.000Z</time>
      </trkpt>
      <trkpt lat="49.81557" lon="4.78745">
        <ele>193</ele>
        <time>2022-09-18T07:31:56.000Z</time>
      </trkpt>
      <trkpt lat="49.8156" lon="4.7874">
        <ele>193</ele>
        <time>2022-09-18T07:31:57.000Z</time>
      </trkpt>
      <trkpt lat="49.81562" lon="4.78737">
        <ele>193</ele>
        <time>2022-09-18T07:31:58.000Z</time>
      </trkpt>
      <trkpt lat="49.81564" lon="4.78734">
        <ele>192</ele>
        <time>2022-09-18T07:31:59.000Z</time>
      </trkpt>
      <trkpt lat="49.81566" lon="4.7873">
        <ele>192</ele>
        <time>2022-09-18T07:32:00.000Z</time>
      </trkpt>
      <trkpt lat="49.81567" lon="4.78727">
        <ele>192</ele>
        <time>2022-09-18T07:32:01.000Z</time>
      </trkpt>
      <trkpt lat="49.8157" lon="4.78724">
        <ele>192</ele>
        <time>2022-09-18T07:32:02.000Z</time>
      </trkpt>
      <trkpt lat="49.81571" lon="4.78721">
        <ele>192</ele>
        <time>2022-09-18T07:32:03.000Z</time>
      </trkpt>
      <trkpt lat="49.81573" lon="4.78717">
        <ele>191</ele>
        <time>2022-09-18T07:32:04.000Z</time>
      </trkpt>
      <trkpt lat="49.81574" lon="4.78713">
        <ele>191</ele>
        <time>2022-09-18T07:32:05.000Z</time>
      </trkpt>
      <trkpt lat="49.81576" lon="4.78709">
        <ele>191</ele>
        <time>2022-09-18T07:32:06.000Z</time>
      </trkpt>
      <trkpt lat="49.81577" lon="4.78706">
        <ele>191</ele>
        <time>2022-09-18T07:32:07.000Z</time>
      </trkpt>
      <trkpt lat="49.81578" lon="4.78702">
        <ele>191</ele>
        <time>2022-09-18T07:32:08.000Z</time>
      </trkpt>
      <trkpt lat="49.8158" lon="4.78699">
        <ele>190</ele>
        <time>2022-09-18T07:32:09.000Z</time>
      </trkpt>
      <trkpt lat="49.81581" lon="4.78696">
        <ele>190</ele>
        <time>2022-09-18T07:32:10.000Z</time>
      </trkpt>
      <trkpt lat="49.81583" lon="4.78693">
        <ele>190</ele>
        <time>2022-09-18T07:32:11.000Z</time>
      </trkpt>
      <trkpt lat="49.81585" lon="4.78689">
        <ele>190</ele>
        <time>2022-09-18T07:32:12.000Z</time>
      </trkpt>
      <trkpt lat="49.81587" lon="4.78685">
        <ele>190</ele>
        <time>2022-09-18T07:32:13.000Z</time>
      </trkpt>
      <trkpt lat="49.81589" lon="4.78682">
        <ele>190</ele>
        <time>2022-09-18T07:32:14.000Z</time>
      </trkpt>
      <trkpt lat="49.81591" lon="4.7868">
        <ele>189</ele>
        <time>2022-09-18T07:32:15.000Z</time>
      </trkpt>
      <trkpt lat="49.81592" lon="4.78679">
        <ele>189</ele>
        <time>2022-09-18T07:32:16.000Z</time>
      </trkpt>
      <trkpt lat="49.81594" lon="4.78678">
        <ele>189</ele>
        <time>2022-09-18T07:32:17.000Z</time>
      </trkpt>
      <trkpt lat="49.81597" lon="4.78678">
        <ele>189</ele>
        <time>2022-09-18T07:32:18.000Z</time>
      </trkpt>
      <trkpt lat="49.816" lon="4.78678">
        <ele>189</ele>
        <time>2022-09-18T07:32:19.000Z</time>
      </trkpt>
      <trkpt lat="49.81604" lon="4.78677">
        <ele>189</ele>
        <time>2022-09-18T07:32:20.000Z</time>
      </trkpt>
      <trkpt lat="49.81608" lon="4.78678">
        <ele>189</ele>
        <time>2022-09-18T07:32:21.000Z</time>
      </trkpt>
      <trkpt lat="49.81611" lon="4.7868">
        <ele>189</ele>
        <time>2022-09-18T07:32:22.000Z</time>
      </trkpt>
      <trkpt lat="49.81614" lon="4.78682">
        <ele>189</ele>
        <time>2022-09-18T07:32:23.000Z</time>
      </trkpt>
      <trkpt lat="49.81618" lon="4.78684">
        <ele>189</ele>
        <time>2022-09-18T07:32:24.000Z</time>
      </trkpt>
      <trkpt lat="49.81621" lon="4.78686">
        <ele>189</ele>
        <time>2022-09-18T07:32:25.000Z</time>
      </trkpt>
      <trkpt lat="49.81624" lon="4.78687">
        <ele>189</ele>
        <time>2022-09-18T07:32:26.000Z</time>
      </trkpt>
      <trkpt lat="49.81628" lon="4.78687">
        <ele>189</ele>
        <time>2022-09-18T07:32:27.000Z</time>
      </trkpt>
      <trkpt lat="49.81632" lon="4.78687">
        <ele>189</ele>
        <time>2022-09-18T07:32:28.000Z</time>
      </trkpt>
      <trkpt lat="49.81636" lon="4.78688">
        <ele>189</ele>
        <time>2022-09-18T07:32:29.000Z</time>
      </trkpt>
      <trkpt lat="49.8164" lon="4.78691">
        <ele>189</ele>
        <time>2022-09-18T07:32:30.000Z</time>
      </trkpt>
      <trkpt lat="49.81644" lon="4.78692">
        <ele>189</ele>
        <time>2022-09-18T07:32:31.000Z</time>
      </trkpt>
      <trkpt lat="49.81648" lon="4.78693">
        <ele>189</ele>
        <time>2022-09-18T07:32:32.000Z</time>
      </trkpt>
      <trkpt lat="49.81652" lon="4.78695">
        <ele>189</ele>
        <time>2022-09-18T07:32:33.000Z</time>
      </trkpt>
      <trkpt lat="49.81655" lon="4.78696">
        <ele>189</ele>
        <time>2022-09-18T07:32:34.000Z</time>
      </trkpt>
      <trkpt lat="49.81659" lon="4.78697">
        <ele>189</ele>
        <time>2022-09-18T07:32:35.000Z</time>
      </trkpt>
      <trkpt lat="49.81663" lon="4.78698">
        <ele>188</ele>
        <time>2022-09-18T07:32:36.000Z</time>
      </trkpt>
      <trkpt lat="49.81666" lon="4.787">
        <ele>188</ele>
        <time>2022-09-18T07:32:37.000Z</time>
      </trkpt>
      <trkpt lat="49.81669" lon="4.78701">
        <ele>188</ele>
        <time>2022-09-18T07:32:38.000Z</time>
      </trkpt>
      <trkpt lat="49.81673" lon="4.78702">
        <ele>188</ele>
        <time>2022-09-18T07:32:39.000Z</time>
      </trkpt>
      <trkpt lat="49.81677" lon="4.78703">
        <ele>188</ele>
        <time>2022-09-18T07:32:40.000Z</time>
      </trkpt>
      <trkpt lat="49.8168" lon="4.78706">
        <ele>188</ele>
        <time>2022-09-18T07:32:41.000Z</time>
      </trkpt>
      <trkpt lat="49.81684" lon="4.78708">
        <ele>188</ele>
        <time>2022-09-18T07:32:42.000Z</time>
      </trkpt>
      <trkpt lat="49.81688" lon="4.7871">
        <ele>188</ele>
        <time>2022-09-18T07:32:43.000Z</time>
      </trkpt>
      <trkpt lat="49.81692" lon="4.78712">
        <ele>188</ele>
        <time>2022-09-18T07:32:44.000Z</time>
      </trkpt>
      <trkpt lat="49.81695" lon="4.78714">
        <ele>188</ele>
        <time>2022-09-18T07:32:45.000Z</time>
      </trkpt>
      <trkpt lat="49.81699" lon="4.78716">
        <ele>188</ele>
        <time>2022-09-18T07:32:46.000Z</time>
      </trkpt>
      <trkpt lat="49.81703" lon="4.78719">
        <ele>188</ele>
        <time>2022-09-18T07:32:47.000Z</time>
      </trkpt>
      <trkpt lat="49.81707" lon="4.78722">
        <ele>188</ele>
        <time>2022-09-18T07:32:48.000Z</time>
      </trkpt>
      <trkpt lat="49.81712" lon="4.78725">
        <ele>188</ele>
        <time>2022-09-18T07:32:49.000Z</time>
      </trkpt>
      <trkpt lat="49.81716" lon="4.78728">
        <ele>188</ele>
        <time>2022-09-18T07:32:50.000Z</time>
      </trkpt>
      <trkpt lat="49.8172" lon="4.78732">
        <ele>189</ele>
        <time>2022-09-18T07:32:51.000Z</time>
      </trkpt>
      <trkpt lat="49.81723" lon="4.78735">
        <ele>189</ele>
        <time>2022-09-18T07:32:52.000Z</time>
      </trkpt>
      <trkpt lat="49.81727" lon="4.78738">
        <ele>189</ele>
        <time>2022-09-18T07:32:53.000Z</time>
      </trkpt>
      <trkpt lat="49.81731" lon="4.7874">
        <ele>188</ele>
        <time>2022-09-18T07:32:54.000Z</time>
      </trkpt>
      <trkpt lat="49.81735" lon="4.78744">
        <ele>188</ele>
        <time>2022-09-18T07:32:55.000Z</time>
      </trkpt>
      <trkpt lat="49.81739" lon="4.78747">
        <ele>188</ele>
        <time>2022-09-18T07:32:56.000Z</time>
      </trkpt>
      <trkpt lat="49.81742" lon="4.78751">
        <ele>188</ele>
        <time>2022-09-18T07:32:57.000Z</time>
      </trkpt>
      <trkpt lat="49.81745" lon="4.78755">
        <ele>188</ele>
        <time>2022-09-18T07:32:58.000Z</time>
      </trkpt>
      <trkpt lat="49.81749" lon="4.78758">
        <ele>188</ele>
        <time>2022-09-18T07:32:59.000Z</time>
      </trkpt>
      <trkpt lat="49.81753" lon="4.78761">
        <ele>188</ele>
        <time>2022-09-18T07:33:00.000Z</time>
      </trkpt>
      <trkpt lat="49.81756" lon="4.78763">
        <ele>188</ele>
        <time>2022-09-18T07:33:01.000Z</time>
      </trkpt>
      <trkpt lat="49.81761" lon="4.78764">
        <ele>188</ele>
        <time>2022-09-18T07:33:02.000Z</time>
      </trkpt>
      <trkpt lat="49.81765" lon="4.78764">
        <ele>188</ele>
        <time>2022-09-18T07:33:03.000Z</time>
      </trkpt>
      <trkpt lat="49.81769" lon="4.78763">
        <ele>188</ele>
        <time>2022-09-18T07:33:04.000Z</time>
      </trkpt>
      <trkpt lat="49.81771" lon="4.7876">
        <ele>188</ele>
        <time>2022-09-18T07:33:05.000Z</time>
      </trkpt>
      <trkpt lat="49.81773" lon="4.78757">
        <ele>188</ele>
        <time>2022-09-18T07:33:06.000Z</time>
      </trkpt>
      <trkpt lat="49.81775" lon="4.78754">
        <ele>187</ele>
        <time>2022-09-18T07:33:07.000Z</time>
      </trkpt>
      <trkpt lat="49.81774" lon="4.7875">
        <ele>187</ele>
        <time>2022-09-18T07:33:08.000Z</time>
      </trkpt>
      <trkpt lat="49.81772" lon="4.78747">
        <ele>187</ele>
        <time>2022-09-18T07:33:09.000Z</time>
      </trkpt>
      <trkpt lat="49.81768" lon="4.78744">
        <ele>187</ele>
        <time>2022-09-18T07:33:10.000Z</time>
      </trkpt>
      <trkpt lat="49.81764" lon="4.7874">
        <ele>187</ele>
        <time>2022-09-18T07:33:11.000Z</time>
      </trkpt>
      <trkpt lat="49.81759" lon="4.78736">
        <ele>186</ele>
        <time>2022-09-18T07:33:12.000Z</time>
      </trkpt>
      <trkpt lat="49.81755" lon="4.78732">
        <ele>186</ele>
        <time>2022-09-18T07:33:13.000Z</time>
      </trkpt>
      <trkpt lat="49.81751" lon="4.78728">
        <ele>186</ele>
        <time>2022-09-18T07:33:14.000Z</time>
      </trkpt>
      <trkpt lat="49.81746" lon="4.78724">
        <ele>186</ele>
        <time>2022-09-18T07:33:15.000Z</time>
      </trkpt>
      <trkpt lat="49.81742" lon="4.7872">
        <ele>186</ele>
        <time>2022-09-18T07:33:16.000Z</time>
      </trkpt>
      <trkpt lat="49.81738" lon="4.78715">
        <ele>185</ele>
        <time>2022-09-18T07:33:17.000Z</time>
      </trkpt>
      <trkpt lat="49.81733" lon="4.78712">
        <ele>185</ele>
        <time>2022-09-18T07:33:18.000Z</time>
      </trkpt>
      <trkpt lat="49.81729" lon="4.78708">
        <ele>185</ele>
        <time>2022-09-18T07:33:19.000Z</time>
      </trkpt>
      <trkpt lat="49.81725" lon="4.78704">
        <ele>185</ele>
        <time>2022-09-18T07:33:20.000Z</time>
      </trkpt>
      <trkpt lat="49.81721" lon="4.787">
        <ele>184</ele>
        <time>2022-09-18T07:33:21.000Z</time>
      </trkpt>
      <trkpt lat="49.81717" lon="4.78697">
        <ele>184</ele>
        <time>2022-09-18T07:33:22.000Z</time>
      </trkpt>
      <trkpt lat="49.81712" lon="4.78693">
        <ele>184</ele>
        <time>2022-09-18T07:33:23.000Z</time>
      </trkpt>
      <trkpt lat="49.81708" lon="4.78689">
        <ele>184</ele>
        <time>2022-09-18T07:33:24.000Z</time>
      </trkpt>
      <trkpt lat="49.81703" lon="4.78685">
        <ele>183</ele>
        <time>2022-09-18T07:33:25.000Z</time>
      </trkpt>
      <trkpt lat="49.81699" lon="4.78681">
        <ele>183</ele>
        <time>2022-09-18T07:33:26.000Z</time>
      </trkpt>
      <trkpt lat="49.81694" lon="4.78677">
        <ele>183</ele>
        <time>2022-09-18T07:33:27.000Z</time>
      </trkpt>
      <trkpt lat="49.8169" lon="4.78672">
        <ele>183</ele>
        <time>2022-09-18T07:33:28.000Z</time>
      </trkpt>
      <trkpt lat="49.81685" lon="4.78668">
        <ele>183</ele>
        <time>2022-09-18T07:33:29.000Z</time>
      </trkpt>
      <trkpt lat="49.8168" lon="4.78663">
        <ele>183</ele>
        <time>2022-09-18T07:33:30.000Z</time>
      </trkpt>
      <trkpt lat="49.81676" lon="4.78659">
        <ele>182</ele>
        <time>2022-09-18T07:33:31.000Z</time>
      </trkpt>
      <trkpt lat="49.81671" lon="4.78655">
        <ele>182</ele>
        <time>2022-09-18T07:33:32.000Z</time>
      </trkpt>
      <trkpt lat="49.81666" lon="4.78651">
        <ele>182</ele>
        <time>2022-09-18T07:33:33.000Z</time>
      </trkpt>
      <trkpt lat="49.81661" lon="4.78648">
        <ele>182</ele>
        <time>2022-09-18T07:33:34.000Z</time>
      </trkpt>
      <trkpt lat="49.81656" lon="4.78646">
        <ele>182</ele>
        <time>2022-09-18T07:33:35.000Z</time>
      </trkpt>
      <trkpt lat="49.8165" lon="4.78644">
        <ele>182</ele>
        <time>2022-09-18T07:33:36.000Z</time>
      </trkpt>
      <trkpt lat="49.81644" lon="4.78641">
        <ele>181</ele>
        <time>2022-09-18T07:33:37.000Z</time>
      </trkpt>
      <trkpt lat="49.81639" lon="4.78637">
        <ele>181</ele>
        <time>2022-09-18T07:33:38.000Z</time>
      </trkpt>
      <trkpt lat="49.81634" lon="4.78634">
        <ele>181</ele>
        <time>2022-09-18T07:33:39.000Z</time>
      </trkpt>
      <trkpt lat="49.81628" lon="4.78632">
        <ele>181</ele>
        <time>2022-09-18T07:33:40.000Z</time>
      </trkpt>
      <trkpt lat="49.81623" lon="4.7863">
        <ele>181</ele>
        <time>2022-09-18T07:33:41.000Z</time>
      </trkpt>
      <trkpt lat="49.81618" lon="4.78628">
        <ele>180</ele>
        <time>2022-09-18T07:33:42.000Z</time>
      </trkpt>
      <trkpt lat="49.81613" lon="4.78625">
        <ele>180</ele>
        <time>2022-09-18T07:33:43.000Z</time>
      </trkpt>
      <trkpt lat="49.81608" lon="4.78624">
        <ele>180</ele>
        <time>2022-09-18T07:33:44.000Z</time>
      </trkpt>
      <trkpt lat="49.81603" lon="4.78621">
        <ele>180</ele>
        <time>2022-09-18T07:33:45.000Z</time>
      </trkpt>
      <trkpt lat="49.81598" lon="4.78619">
        <ele>180</ele>
        <time>2022-09-18T07:33:46.000Z</time>
      </trkpt>
      <trkpt lat="49.81593" lon="4.78618">
        <ele>180</ele>
        <time>2022-09-18T07:33:47.000Z</time>
      </trkpt>
      <trkpt lat="49.81587" lon="4.78618">
        <ele>180</ele>
        <time>2022-09-18T07:33:48.000Z</time>
      </trkpt>
      <trkpt lat="49.81582" lon="4.78618">
        <ele>179</ele>
        <time>2022-09-18T07:33:49.000Z</time>
      </trkpt>
      <trkpt lat="49.81576" lon="4.7862">
        <ele>179</ele>
        <time>2022-09-18T07:33:50.000Z</time>
      </trkpt>
      <trkpt lat="49.8157" lon="4.78623">
        <ele>179</ele>
        <time>2022-09-18T07:33:51.000Z</time>
      </trkpt>
      <trkpt lat="49.81565" lon="4.78627">
        <ele>179</ele>
        <time>2022-09-18T07:33:52.000Z</time>
      </trkpt>
      <trkpt lat="49.81559" lon="4.78631">
        <ele>179</ele>
        <time>2022-09-18T07:33:53.000Z</time>
      </trkpt>
      <trkpt lat="49.81553" lon="4.78636">
        <ele>179</ele>
        <time>2022-09-18T07:33:54.000Z</time>
      </trkpt>
      <trkpt lat="49.81548" lon="4.78641">
        <ele>179</ele>
        <time>2022-09-18T07:33:55.000Z</time>
      </trkpt>
      <trkpt lat="49.81543" lon="4.78647">
        <ele>179</ele>
        <time>2022-09-18T07:33:56.000Z</time>
      </trkpt>
      <trkpt lat="49.81538" lon="4.78653">
        <ele>179</ele>
        <time>2022-09-18T07:33:57.000Z</time>
      </trkpt>
      <trkpt lat="49.81534" lon="4.78658">
        <ele>179</ele>
        <time>2022-09-18T07:33:58.000Z</time>
      </trkpt>
      <trkpt lat="49.81529" lon="4.78662">
        <ele>179</ele>
        <time>2022-09-18T07:33:59.000Z</time>
      </trkpt>
      <trkpt lat="49.81524" lon="4.78667">
        <ele>179</ele>
        <time>2022-09-18T07:34:00.000Z</time>
      </trkpt>
      <trkpt lat="49.81519" lon="4.78672">
        <ele>179</ele>
        <time>2022-09-18T07:34:01.000Z</time>
      </trkpt>
      <trkpt lat="49.81515" lon="4.78676">
        <ele>179</ele>
        <time>2022-09-18T07:34:02.000Z</time>
      </trkpt>
      <trkpt lat="49.81511" lon="4.7868">
        <ele>178</ele>
        <time>2022-09-18T07:34:03.000Z</time>
      </trkpt>
      <trkpt lat="49.81507" lon="4.78684">
        <ele>178</ele>
        <time>2022-09-18T07:34:04.000Z</time>
      </trkpt>
      <trkpt lat="49.81503" lon="4.78688">
        <ele>178</ele>
        <time>2022-09-18T07:34:05.000Z</time>
      </trkpt>
      <trkpt lat="49.81499" lon="4.78691">
        <ele>178</ele>
        <time>2022-09-18T07:34:06.000Z</time>
      </trkpt>
      <trkpt lat="49.81495" lon="4.78694">
        <ele>178</ele>
        <time>2022-09-18T07:34:07.000Z</time>
      </trkpt>
      <trkpt lat="49.81491" lon="4.78694">
        <ele>178</ele>
        <time>2022-09-18T07:34:08.000Z</time>
      </trkpt>
      <trkpt lat="49.81487" lon="4.78692">
        <ele>178</ele>
        <time>2022-09-18T07:34:09.000Z</time>
      </trkpt>
      <trkpt lat="49.81483" lon="4.78687">
        <ele>178</ele>
        <time>2022-09-18T07:34:10.000Z</time>
      </trkpt>
      <trkpt lat="49.8148" lon="4.78678">
        <ele>177</ele>
        <time>2022-09-18T07:34:11.000Z</time>
      </trkpt>
      <trkpt lat="49.81477" lon="4.78668">
        <ele>177</ele>
        <time>2022-09-18T07:34:12.000Z</time>
      </trkpt>
      <trkpt lat="49.81474" lon="4.78657">
        <ele>177</ele>
        <time>2022-09-18T07:34:13.000Z</time>
      </trkpt>
      <trkpt lat="49.81473" lon="4.78645">
        <ele>176</ele>
        <time>2022-09-18T07:34:14.000Z</time>
      </trkpt>
      <trkpt lat="49.81473" lon="4.78634">
        <ele>176</ele>
        <time>2022-09-18T07:34:15.000Z</time>
      </trkpt>
      <trkpt lat="49.81474" lon="4.78622">
        <ele>176</ele>
        <time>2022-09-18T07:34:16.000Z</time>
      </trkpt>
      <trkpt lat="49.81476" lon="4.78611">
        <ele>176</ele>
        <time>2022-09-18T07:34:17.000Z</time>
      </trkpt>
      <trkpt lat="49.81478" lon="4.78601">
        <ele>175</ele>
        <time>2022-09-18T07:34:18.000Z</time>
      </trkpt>
      <trkpt lat="49.81481" lon="4.78591">
        <ele>175</ele>
        <time>2022-09-18T07:34:19.000Z</time>
      </trkpt>
      <trkpt lat="49.81484" lon="4.78582">
        <ele>175</ele>
        <time>2022-09-18T07:34:20.000Z</time>
      </trkpt>
      <trkpt lat="49.81487" lon="4.78573">
        <ele>175</ele>
        <time>2022-09-18T07:34:21.000Z</time>
      </trkpt>
      <trkpt lat="49.81491" lon="4.78565">
        <ele>175</ele>
        <time>2022-09-18T07:34:22.000Z</time>
      </trkpt>
      <trkpt lat="49.81495" lon="4.78557">
        <ele>174</ele>
        <time>2022-09-18T07:34:23.000Z</time>
      </trkpt>
      <trkpt lat="49.81499" lon="4.78548">
        <ele>174</ele>
        <time>2022-09-18T07:34:24.000Z</time>
      </trkpt>
      <trkpt lat="49.81504" lon="4.78539">
        <ele>173</ele>
        <time>2022-09-18T07:34:25.000Z</time>
      </trkpt>
      <trkpt lat="49.81509" lon="4.78532">
        <ele>173</ele>
        <time>2022-09-18T07:34:26.000Z</time>
      </trkpt>
      <trkpt lat="49.81514" lon="4.78525">
        <ele>173</ele>
        <time>2022-09-18T07:34:27.000Z</time>
      </trkpt>
      <trkpt lat="49.81519" lon="4.78517">
        <ele>172</ele>
        <time>2022-09-18T07:34:28.000Z</time>
      </trkpt>
      <trkpt lat="49.81523" lon="4.78509">
        <ele>172</ele>
        <time>2022-09-18T07:34:29.000Z</time>
      </trkpt>
      <trkpt lat="49.81527" lon="4.78502">
        <ele>172</ele>
        <time>2022-09-18T07:34:30.000Z</time>
      </trkpt>
      <trkpt lat="49.81531" lon="4.78495">
        <ele>171</ele>
        <time>2022-09-18T07:34:31.000Z</time>
      </trkpt>
      <trkpt lat="49.81535" lon="4.78489">
        <ele>171</ele>
        <time>2022-09-18T07:34:32.000Z</time>
      </trkpt>
      <trkpt lat="49.81538" lon="4.78482">
        <ele>171</ele>
        <time>2022-09-18T07:34:33.000Z</time>
      </trkpt>
      <trkpt lat="49.8154" lon="4.78474">
        <ele>171</ele>
        <time>2022-09-18T07:34:34.000Z</time>
      </trkpt>
      <trkpt lat="49.8154" lon="4.78466">
        <ele>170</ele>
        <time>2022-09-18T07:34:35.000Z</time>
      </trkpt>
      <trkpt lat="49.81541" lon="4.78458">
        <ele>170</ele>
        <time>2022-09-18T07:34:36.000Z</time>
      </trkpt>
      <trkpt lat="49.81541" lon="4.78449">
        <ele>170</ele>
        <time>2022-09-18T07:34:37.000Z</time>
      </trkpt>
      <trkpt lat="49.81541" lon="4.7844">
        <ele>170</ele>
        <time>2022-09-18T07:34:38.000Z</time>
      </trkpt>
      <trkpt lat="49.81541" lon="4.78431">
        <ele>170</ele>
        <time>2022-09-18T07:34:39.000Z</time>
      </trkpt>
      <trkpt lat="49.81541" lon="4.78422">
        <ele>169</ele>
        <time>2022-09-18T07:34:40.000Z</time>
      </trkpt>
      <trkpt lat="49.81541" lon="4.78413">
        <ele>169</ele>
        <time>2022-09-18T07:34:41.000Z</time>
      </trkpt>
      <trkpt lat="49.81541" lon="4.78405">
        <ele>169</ele>
        <time>2022-09-18T07:34:42.000Z</time>
      </trkpt>
      <trkpt lat="49.81541" lon="4.78396">
        <ele>169</ele>
        <time>2022-09-18T07:34:43.000Z</time>
      </trkpt>
      <trkpt lat="49.81542" lon="4.78388">
        <ele>169</ele>
        <time>2022-09-18T07:34:44.000Z</time>
      </trkpt>
      <trkpt lat="49.81543" lon="4.7838">
        <ele>169</ele>
        <time>2022-09-18T07:34:45.000Z</time>
      </trkpt>
      <trkpt lat="49.81544" lon="4.78372">
        <ele>169</ele>
        <time>2022-09-18T07:34:46.000Z</time>
      </trkpt>
      <trkpt lat="49.81546" lon="4.78365">
        <ele>169</ele>
        <time>2022-09-18T07:34:47.000Z</time>
      </trkpt>
      <trkpt lat="49.81547" lon="4.78359">
        <ele>168</ele>
        <time>2022-09-18T07:34:48.000Z</time>
      </trkpt>
      <trkpt lat="49.81547" lon="4.78352">
        <ele>168</ele>
        <time>2022-09-18T07:34:49.000Z</time>
      </trkpt>
      <trkpt lat="49.81548" lon="4.78346">
        <ele>168</ele>
        <time>2022-09-18T07:34:50.000Z</time>
      </trkpt>
      <trkpt lat="49.8155" lon="4.7834">
        <ele>168</ele>
        <time>2022-09-18T07:34:51.000Z</time>
      </trkpt>
      <trkpt lat="49.81552" lon="4.78336">
        <ele>168</ele>
        <time>2022-09-18T07:34:52.000Z</time>
      </trkpt>
      <trkpt lat="49.81555" lon="4.78333">
        <ele>168</ele>
        <time>2022-09-18T07:34:53.000Z</time>
      </trkpt>
      <trkpt lat="49.81557" lon="4.78329">
        <ele>168</ele>
        <time>2022-09-18T07:34:54.000Z</time>
      </trkpt>
      <trkpt lat="49.8156" lon="4.78326">
        <ele>168</ele>
        <time>2022-09-18T07:34:55.000Z</time>
      </trkpt>
      <trkpt lat="49.81563" lon="4.78321">
        <ele>168</ele>
        <time>2022-09-18T07:34:56.000Z</time>
      </trkpt>
      <trkpt lat="49.81565" lon="4.78316">
        <ele>168</ele>
        <time>2022-09-18T07:34:57.000Z</time>
      </trkpt>
      <trkpt lat="49.81567" lon="4.78311">
        <ele>168</ele>
        <time>2022-09-18T07:34:58.000Z</time>
      </trkpt>
      <trkpt lat="49.81569" lon="4.78305">
        <ele>168</ele>
        <time>2022-09-18T07:34:59.000Z</time>
      </trkpt>
      <trkpt lat="49.81571" lon="4.783">
        <ele>168</ele>
        <time>2022-09-18T07:35:00.000Z</time>
      </trkpt>
      <trkpt lat="49.81572" lon="4.78296">
        <ele>169</ele>
        <time>2022-09-18T07:35:01.000Z</time>
      </trkpt>
      <trkpt lat="49.81574" lon="4.78292">
        <ele>169</ele>
        <time>2022-09-18T07:35:02.000Z</time>
      </trkpt>
      <trkpt lat="49.81575" lon="4.7829">
        <ele>169</ele>
        <time>2022-09-18T07:35:03.000Z</time>
      </trkpt>
      <trkpt lat="49.81577" lon="4.78288">
        <ele>169</ele>
        <time>2022-09-18T07:35:04.000Z</time>
      </trkpt>
      <trkpt lat="49.81579" lon="4.78288">
        <ele>169</ele>
        <time>2022-09-18T07:35:05.000Z</time>
      </trkpt>
      <trkpt lat="49.81581" lon="4.7829">
        <ele>169</ele>
        <time>2022-09-18T07:35:06.000Z</time>
      </trkpt>
      <trkpt lat="49.81583" lon="4.78291">
        <ele>169</ele>
        <time>2022-09-18T07:35:07.000Z</time>
      </trkpt>
      <trkpt lat="49.81584" lon="4.78294">
        <ele>169</ele>
        <time>2022-09-18T07:35:08.000Z</time>
      </trkpt>
      <trkpt lat="49.81584" lon="4.78297">
        <ele>169</ele>
        <time>2022-09-18T07:35:09.000Z</time>
      </trkpt>
      <trkpt lat="49.81585" lon="4.78301">
        <ele>169</ele>
        <time>2022-09-18T07:35:10.000Z</time>
      </trkpt>
      <trkpt lat="49.81585" lon="4.78304">
        <ele>169</ele>
        <time>2022-09-18T07:35:11.000Z</time>
      </trkpt>
      <trkpt lat="49.81584" lon="4.78307">
        <ele>169</ele>
        <time>2022-09-18T07:35:12.000Z</time>
      </trkpt>
      <trkpt lat="49.81583" lon="4.7831">
        <ele>170</ele>
        <time>2022-09-18T07:35:13.000Z</time>
      </trkpt>
      <trkpt lat="49.81581" lon="4.78313">
        <ele>170</ele>
        <time>2022-09-18T07:35:14.000Z</time>
      </trkpt>
      <trkpt lat="49.81579" lon="4.78314">
        <ele>170</ele>
        <time>2022-09-18T07:35:15.000Z</time>
      </trkpt>
      <trkpt lat="49.81577" lon="4.78315">
        <ele>170</ele>
        <time>2022-09-18T07:35:16.000Z</time>
      </trkpt>
      <trkpt lat="49.81576" lon="4.78316">
        <ele>170</ele>
        <time>2022-09-18T07:35:17.000Z</time>
      </trkpt>
      <trkpt lat="49.81574" lon="4.78317">
        <ele>170</ele>
        <time>2022-09-18T07:35:18.000Z</time>
      </trkpt>
      <trkpt lat="49.8157" lon="4.78318">
        <ele>170</ele>
        <time>2022-09-18T07:35:19.000Z</time>
      </trkpt>
      <trkpt lat="49.81568" lon="4.7832">
        <ele>170</ele>
        <time>2022-09-18T07:35:20.000Z</time>
      </trkpt>
      <trkpt lat="49.81567" lon="4.78322">
        <ele>170</ele>
        <time>2022-09-18T07:35:21.000Z</time>
      </trkpt>
      <trkpt lat="49.81567" lon="4.78324">
        <ele>170</ele>
        <time>2022-09-18T07:35:22.000Z</time>
      </trkpt>
      <trkpt lat="49.81567" lon="4.78324">
        <ele>170</ele>
        <time>2022-09-18T07:35:23.000Z</time>
      </trkpt>
      <trkpt lat="49.81568" lon="4.78324">
        <ele>170</ele>
        <time>2022-09-18T07:35:24.000Z</time>
      </trkpt>
      <trkpt lat="49.81569" lon="4.78321">
        <ele>170</ele>
        <time>2022-09-18T07:35:25.000Z</time>
      </trkpt>
      <trkpt lat="49.8157" lon="4.78318">
        <ele>170</ele>
        <time>2022-09-18T07:35:26.000Z</time>
      </trkpt>
      <trkpt lat="49.8157" lon="4.78313">
        <ele>170</ele>
        <time>2022-09-18T07:35:27.000Z</time>
      </trkpt>
      <trkpt lat="49.81571" lon="4.78309">
        <ele>170</ele>
        <time>2022-09-18T07:35:28.000Z</time>
      </trkpt>
      <trkpt lat="49.81571" lon="4.78305">
        <ele>170</ele>
        <time>2022-09-18T07:35:29.000Z</time>
      </trkpt>
      <trkpt lat="49.81573" lon="4.78301">
        <ele>170</ele>
        <time>2022-09-18T07:35:30.000Z</time>
      </trkpt>
      <trkpt lat="49.81573" lon="4.78297">
        <ele>170</ele>
        <time>2022-09-18T07:35:31.000Z</time>
      </trkpt>
      <trkpt lat="49.81574" lon="4.78293">
        <ele>170</ele>
        <time>2022-09-18T07:35:32.000Z</time>
      </trkpt>
      <trkpt lat="49.81575" lon="4.7829">
        <ele>170</ele>
        <time>2022-09-18T07:35:33.000Z</time>
      </trkpt>
      <trkpt lat="49.81576" lon="4.78286">
        <ele>170</ele>
        <time>2022-09-18T07:35:34.000Z</time>
      </trkpt>
      <trkpt lat="49.81578" lon="4.78285">
        <ele>170</ele>
        <time>2022-09-18T07:35:35.000Z</time>
      </trkpt>
      <trkpt lat="49.8158" lon="4.78285">
        <ele>170</ele>
        <time>2022-09-18T07:35:36.000Z</time>
      </trkpt>
      <trkpt lat="49.81582" lon="4.78286">
        <ele>170</ele>
        <time>2022-09-18T07:35:37.000Z</time>
      </trkpt>
      <trkpt lat="49.81583" lon="4.78288">
        <ele>169</ele>
        <time>2022-09-18T07:35:38.000Z</time>
      </trkpt>
      <trkpt lat="49.81585" lon="4.78291">
        <ele>169</ele>
        <time>2022-09-18T07:35:39.000Z</time>
      </trkpt>
      <trkpt lat="49.81586" lon="4.78293">
        <ele>169</ele>
        <time>2022-09-18T07:35:40.000Z</time>
      </trkpt>
      <trkpt lat="49.81586" lon="4.78296">
        <ele>169</ele>
        <time>2022-09-18T07:35:41.000Z</time>
      </trkpt>
      <trkpt lat="49.81587" lon="4.783">
        <ele>170</ele>
        <time>2022-09-18T07:35:42.000Z</time>
      </trkpt>
      <trkpt lat="49.81588" lon="4.78303">
        <ele>170</ele>
        <time>2022-09-18T07:35:43.000Z</time>
      </trkpt>
      <trkpt lat="49.81589" lon="4.78307">
        <ele>170</ele>
        <time>2022-09-18T07:35:44.000Z</time>
      </trkpt>
      <trkpt lat="49.81589" lon="4.78312">
        <ele>170</ele>
        <time>2022-09-18T07:35:45.000Z</time>
      </trkpt>
      <trkpt lat="49.81591" lon="4.78316">
        <ele>170</ele>
        <time>2022-09-18T07:35:46.000Z</time>
      </trkpt>
      <trkpt lat="49.81592" lon="4.7832">
        <ele>170</ele>
        <time>2022-09-18T07:35:47.000Z</time>
      </trkpt>
      <trkpt lat="49.81594" lon="4.78325">
        <ele>170</ele>
        <time>2022-09-18T07:35:48.000Z</time>
      </trkpt>
      <trkpt lat="49.81597" lon="4.7833">
        <ele>170</ele>
        <time>2022-09-18T07:35:49.000Z</time>
      </trkpt>
      <trkpt lat="49.81599" lon="4.78335">
        <ele>170</ele>
        <time>2022-09-18T07:35:50.000Z</time>
      </trkpt>
      <trkpt lat="49.81602" lon="4.78341">
        <ele>171</ele>
        <time>2022-09-18T07:35:51.000Z</time>
      </trkpt>
      <trkpt lat="49.81604" lon="4.78346">
        <ele>171</ele>
        <time>2022-09-18T07:35:52.000Z</time>
      </trkpt>
      <trkpt lat="49.81607" lon="4.78352">
        <ele>171</ele>
        <time>2022-09-18T07:35:53.000Z</time>
      </trkpt>
      <trkpt lat="49.8161" lon="4.78358">
        <ele>171</ele>
        <time>2022-09-18T07:35:54.000Z</time>
      </trkpt>
      <trkpt lat="49.81613" lon="4.78364">
        <ele>171</ele>
        <time>2022-09-18T07:35:55.000Z</time>
      </trkpt>
      <trkpt lat="49.81616" lon="4.78369">
        <ele>171</ele>
        <time>2022-09-18T07:35:56.000Z</time>
      </trkpt>
      <trkpt lat="49.81619" lon="4.78375">
        <ele>171</ele>
        <time>2022-09-18T07:35:57.000Z</time>
      </trkpt>
      <trkpt lat="49.81621" lon="4.7838">
        <ele>171</ele>
        <time>2022-09-18T07:35:58.000Z</time>
      </trkpt>
      <trkpt lat="49.81624" lon="4.78385">
        <ele>171</ele>
        <time>2022-09-18T07:35:59.000Z</time>
      </trkpt>
      <trkpt lat="49.81627" lon="4.78391">
        <ele>171</ele>
        <time>2022-09-18T07:36:00.000Z</time>
      </trkpt>
      <trkpt lat="49.8163" lon="4.78396">
        <ele>171</ele>
        <time>2022-09-18T07:36:01.000Z</time>
      </trkpt>
      <trkpt lat="49.81633" lon="4.78402">
        <ele>171</ele>
        <time>2022-09-18T07:36:02.000Z</time>
      </trkpt>
      <trkpt lat="49.81636" lon="4.78407">
        <ele>171</ele>
        <time>2022-09-18T07:36:03.000Z</time>
      </trkpt>
      <trkpt lat="49.8164" lon="4.78412">
        <ele>171</ele>
        <time>2022-09-18T07:36:04.000Z</time>
      </trkpt>
      <trkpt lat="49.81643" lon="4.78417">
        <ele>171</ele>
        <time>2022-09-18T07:36:05.000Z</time>
      </trkpt>
      <trkpt lat="49.81647" lon="4.78422">
        <ele>171</ele>
        <time>2022-09-18T07:36:06.000Z</time>
      </trkpt>
      <trkpt lat="49.81651" lon="4.78427">
        <ele>171</ele>
        <time>2022-09-18T07:36:07.000Z</time>
      </trkpt>
      <trkpt lat="49.81655" lon="4.78431">
        <ele>171</ele>
        <time>2022-09-18T07:36:08.000Z</time>
      </trkpt>
      <trkpt lat="49.81659" lon="4.78435">
        <ele>171</ele>
        <time>2022-09-18T07:36:09.000Z</time>
      </trkpt>
      <trkpt lat="49.81663" lon="4.78439">
        <ele>171</ele>
        <time>2022-09-18T07:36:10.000Z</time>
      </trkpt>
      <trkpt lat="49.81667" lon="4.78443">
        <ele>171</ele>
        <time>2022-09-18T07:36:11.000Z</time>
      </trkpt>
      <trkpt lat="49.81672" lon="4.78446">
        <ele>171</ele>
        <time>2022-09-18T07:36:12.000Z</time>
      </trkpt>
      <trkpt lat="49.81676" lon="4.7845">
        <ele>171</ele>
        <time>2022-09-18T07:36:13.000Z</time>
      </trkpt>
      <trkpt lat="49.8168" lon="4.78453">
        <ele>171</ele>
        <time>2022-09-18T07:36:14.000Z</time>
      </trkpt>
      <trkpt lat="49.81685" lon="4.78457">
        <ele>171</ele>
        <time>2022-09-18T07:36:15.000Z</time>
      </trkpt>
      <trkpt lat="49.81689" lon="4.7846">
        <ele>171</ele>
        <time>2022-09-18T07:36:16.000Z</time>
      </trkpt>
      <trkpt lat="49.81693" lon="4.78465">
        <ele>171</ele>
        <time>2022-09-18T07:36:17.000Z</time>
      </trkpt>
      <trkpt lat="49.81697" lon="4.78469">
        <ele>171</ele>
        <time>2022-09-18T07:36:18.000Z</time>
      </trkpt>
      <trkpt lat="49.81701" lon="4.78474">
        <ele>171</ele>
        <time>2022-09-18T07:36:19.000Z</time>
      </trkpt>
      <trkpt lat="49.81705" lon="4.78478">
        <ele>171</ele>
        <time>2022-09-18T07:36:20.000Z</time>
      </trkpt>
      <trkpt lat="49.81709" lon="4.78483">
        <ele>171</ele>
        <time>2022-09-18T07:36:21.000Z</time>
      </trkpt>
      <trkpt lat="49.81713" lon="4.78487">
        <ele>171</ele>
        <time>2022-09-18T07:36:22.000Z</time>
      </trkpt>
      <trkpt lat="49.81717" lon="4.78491">
        <ele>171</ele>
        <time>2022-09-18T07:36:23.000Z</time>
      </trkpt>
      <trkpt lat="49.81721" lon="4.78495">
        <ele>171</ele>
        <time>2022-09-18T07:36:24.000Z</time>
      </trkpt>
      <trkpt lat="49.81725" lon="4.78499">
        <ele>171</ele>
        <time>2022-09-18T07:36:25.000Z</time>
      </trkpt>
      <trkpt lat="49.81729" lon="4.78503">
        <ele>171</ele>
        <time>2022-09-18T07:36:26.000Z</time>
      </trkpt>
      <trkpt lat="49.81733" lon="4.78505">
        <ele>171</ele>
        <time>2022-09-18T07:36:27.000Z</time>
      </trkpt>
      <trkpt lat="49.81737" lon="4.78508">
        <ele>171</ele>
        <time>2022-09-18T07:36:28.000Z</time>
      </trkpt>
      <trkpt lat="49.81741" lon="4.78511">
        <ele>171</ele>
        <time>2022-09-18T07:36:29.000Z</time>
      </trkpt>
      <trkpt lat="49.81744" lon="4.78513">
        <ele>171</ele>
        <time>2022-09-18T07:36:30.000Z</time>
      </trkpt>
      <trkpt lat="49.81747" lon="4.78515">
        <ele>171</ele>
        <time>2022-09-18T07:36:31.000Z</time>
      </trkpt>
      <trkpt lat="49.81751" lon="4.78517">
        <ele>171</ele>
        <time>2022-09-18T07:36:32.000Z</time>
      </trkpt>
      <trkpt lat="49.81754" lon="4.78519">
        <ele>171</ele>
        <time>2022-09-18T07:36:33.000Z</time>
      </trkpt>
      <trkpt lat="49.81758" lon="4.78521">
        <ele>172</ele>
        <time>2022-09-18T07:36:34.000Z</time>
      </trkpt>
      <trkpt lat="49.81761" lon="4.78524">
        <ele>172</ele>
        <time>2022-09-18T07:36:35.000Z</time>
      </trkpt>
      <trkpt lat="49.81764" lon="4.78526">
        <ele>172</ele>
        <time>2022-09-18T07:36:36.000Z</time>
      </trkpt>
      <trkpt lat="49.81768" lon="4.78528">
        <ele>172</ele>
        <time>2022-09-18T07:36:37.000Z</time>
      </trkpt>
      <trkpt lat="49.81772" lon="4.7853">
        <ele>172</ele>
        <time>2022-09-18T07:36:38.000Z</time>
      </trkpt>
      <trkpt lat="49.81776" lon="4.78533">
        <ele>172</ele>
        <time>2022-09-18T07:36:39.000Z</time>
      </trkpt>
      <trkpt lat="49.8178" lon="4.78535">
        <ele>173</ele>
        <time>2022-09-18T07:36:40.000Z</time>
      </trkpt>
      <trkpt lat="49.81783" lon="4.78537">
        <ele>173</ele>
        <time>2022-09-18T07:36:41.000Z</time>
      </trkpt>
      <trkpt lat="49.81787" lon="4.7854">
        <ele>173</ele>
        <time>2022-09-18T07:36:42.000Z</time>
      </trkpt>
      <trkpt lat="49.81791" lon="4.78542">
        <ele>173</ele>
        <time>2022-09-18T07:36:43.000Z</time>
      </trkpt>
      <trkpt lat="49.81794" lon="4.78545">
        <ele>174</ele>
        <time>2022-09-18T07:36:44.000Z</time>
      </trkpt>
      <trkpt lat="49.81798" lon="4.78548">
        <ele>174</ele>
        <time>2022-09-18T07:36:45.000Z</time>
      </trkpt>
      <trkpt lat="49.81803" lon="4.78551">
        <ele>174</ele>
        <time>2022-09-18T07:36:46.000Z</time>
      </trkpt>
      <trkpt lat="49.81807" lon="4.78554">
        <ele>174</ele>
        <time>2022-09-18T07:36:47.000Z</time>
      </trkpt>
      <trkpt lat="49.81811" lon="4.78556">
        <ele>175</ele>
        <time>2022-09-18T07:36:48.000Z</time>
      </trkpt>
      <trkpt lat="49.81815" lon="4.7856">
        <ele>175</ele>
        <time>2022-09-18T07:36:49.000Z</time>
      </trkpt>
      <trkpt lat="49.81819" lon="4.78563">
        <ele>175</ele>
        <time>2022-09-18T07:36:50.000Z</time>
      </trkpt>
      <trkpt lat="49.81823" lon="4.78567">
        <ele>175</ele>
        <time>2022-09-18T07:36:51.000Z</time>
      </trkpt>
      <trkpt lat="49.81826" lon="4.7857">
        <ele>176</ele>
        <time>2022-09-18T07:36:52.000Z</time>
      </trkpt>
      <trkpt lat="49.8183" lon="4.78573">
        <ele>176</ele>
        <time>2022-09-18T07:36:53.000Z</time>
      </trkpt>
      <trkpt lat="49.81834" lon="4.78577">
        <ele>176</ele>
        <time>2022-09-18T07:36:54.000Z</time>
      </trkpt>
      <trkpt lat="49.81837" lon="4.7858">
        <ele>176</ele>
        <time>2022-09-18T07:36:55.000Z</time>
      </trkpt>
      <trkpt lat="49.8184" lon="4.78584">
        <ele>177</ele>
        <time>2022-09-18T07:36:56.000Z</time>
      </trkpt>
      <trkpt lat="49.81844" lon="4.78587">
        <ele>177</ele>
        <time>2022-09-18T07:36:57.000Z</time>
      </trkpt>
      <trkpt lat="49.81848" lon="4.7859">
        <ele>177</ele>
        <time>2022-09-18T07:36:58.000Z</time>
      </trkpt>
      <trkpt lat="49.81851" lon="4.78594">
        <ele>177</ele>
        <time>2022-09-18T07:36:59.000Z</time>
      </trkpt>
      <trkpt lat="49.81855" lon="4.78598">
        <ele>178</ele>
        <time>2022-09-18T07:37:00.000Z</time>
      </trkpt>
      <trkpt lat="49.81858" lon="4.78601">
        <ele>178</ele>
        <time>2022-09-18T07:37:01.000Z</time>
      </trkpt>
      <trkpt lat="49.81862" lon="4.78605">
        <ele>178</ele>
        <time>2022-09-18T07:37:02.000Z</time>
      </trkpt>
      <trkpt lat="49.81865" lon="4.78609">
        <ele>178</ele>
        <time>2022-09-18T07:37:03.000Z</time>
      </trkpt>
      <trkpt lat="49.81869" lon="4.78613">
        <ele>179</ele>
        <time>2022-09-18T07:37:04.000Z</time>
      </trkpt>
      <trkpt lat="49.81873" lon="4.78617">
        <ele>179</ele>
        <time>2022-09-18T07:37:05.000Z</time>
      </trkpt>
      <trkpt lat="49.81876" lon="4.78621">
        <ele>179</ele>
        <time>2022-09-18T07:37:06.000Z</time>
      </trkpt>
      <trkpt lat="49.81879" lon="4.78625">
        <ele>179</ele>
        <time>2022-09-18T07:37:07.000Z</time>
      </trkpt>
      <trkpt lat="49.81883" lon="4.78629">
        <ele>179</ele>
        <time>2022-09-18T07:37:08.000Z</time>
      </trkpt>
      <trkpt lat="49.81887" lon="4.78633">
        <ele>179</ele>
        <time>2022-09-18T07:37:09.000Z</time>
      </trkpt>
      <trkpt lat="49.8189" lon="4.78637">
        <ele>180</ele>
        <time>2022-09-18T07:37:10.000Z</time>
      </trkpt>
      <trkpt lat="49.81894" lon="4.78641">
        <ele>180</ele>
        <time>2022-09-18T07:37:11.000Z</time>
      </trkpt>
      <trkpt lat="49.81898" lon="4.78645">
        <ele>180</ele>
        <time>2022-09-18T07:37:12.000Z</time>
      </trkpt>
      <trkpt lat="49.81902" lon="4.78649">
        <ele>180</ele>
        <time>2022-09-18T07:37:13.000Z</time>
      </trkpt>
      <trkpt lat="49.81905" lon="4.78653">
        <ele>180</ele>
        <time>2022-09-18T07:37:14.000Z</time>
      </trkpt>
      <trkpt lat="49.81909" lon="4.78658">
        <ele>180</ele>
        <time>2022-09-18T07:37:15.000Z</time>
      </trkpt>
      <trkpt lat="49.81913" lon="4.78662">
        <ele>180</ele>
        <time>2022-09-18T07:37:16.000Z</time>
      </trkpt>
      <trkpt lat="49.81916" lon="4.78666">
        <ele>180</ele>
        <time>2022-09-18T07:37:17.000Z</time>
      </trkpt>
      <trkpt lat="49.8192" lon="4.7867">
        <ele>181</ele>
        <time>2022-09-18T07:37:18.000Z</time>
      </trkpt>
      <trkpt lat="49.81923" lon="4.78674">
        <ele>181</ele>
        <time>2022-09-18T07:37:19.000Z</time>
      </trkpt>
      <trkpt lat="49.81927" lon="4.78677">
        <ele>181</ele>
        <time>2022-09-18T07:37:20.000Z</time>
      </trkpt>
      <trkpt lat="49.81931" lon="4.78681">
        <ele>181</ele>
        <time>2022-09-18T07:37:21.000Z</time>
      </trkpt>
      <trkpt lat="49.81934" lon="4.78685">
        <ele>181</ele>
        <time>2022-09-18T07:37:22.000Z</time>
      </trkpt>
      <trkpt lat="49.81938" lon="4.78688">
        <ele>181</ele>
        <time>2022-09-18T07:37:23.000Z</time>
      </trkpt>
      <trkpt lat="49.81942" lon="4.78691">
        <ele>182</ele>
        <time>2022-09-18T07:37:24.000Z</time>
      </trkpt>
      <trkpt lat="49.81946" lon="4.78693">
        <ele>182</ele>
        <time>2022-09-18T07:37:25.000Z</time>
      </trkpt>
      <trkpt lat="49.8195" lon="4.78696">
        <ele>182</ele>
        <time>2022-09-18T07:37:26.000Z</time>
      </trkpt>
      <trkpt lat="49.81953" lon="4.787">
        <ele>182</ele>
        <time>2022-09-18T07:37:27.000Z</time>
      </trkpt>
      <trkpt lat="49.81957" lon="4.78703">
        <ele>182</ele>
        <time>2022-09-18T07:37:28.000Z</time>
      </trkpt>
      <trkpt lat="49.81961" lon="4.78706">
        <ele>182</ele>
        <time>2022-09-18T07:37:29.000Z</time>
      </trkpt>
      <trkpt lat="49.81964" lon="4.7871">
        <ele>182</ele>
        <time>2022-09-18T07:37:30.000Z</time>
      </trkpt>
      <trkpt lat="49.81968" lon="4.78713">
        <ele>182</ele>
        <time>2022-09-18T07:37:31.000Z</time>
      </trkpt>
      <trkpt lat="49.81972" lon="4.78716">
        <ele>182</ele>
        <time>2022-09-18T07:37:32.000Z</time>
      </trkpt>
      <trkpt lat="49.81976" lon="4.7872">
        <ele>182</ele>
        <time>2022-09-18T07:37:33.000Z</time>
      </trkpt>
      <trkpt lat="49.8198" lon="4.78723">
        <ele>182</ele>
        <time>2022-09-18T07:37:34.000Z</time>
      </trkpt>
      <trkpt lat="49.81984" lon="4.78727">
        <ele>183</ele>
        <time>2022-09-18T07:37:35.000Z</time>
      </trkpt>
      <trkpt lat="49.81987" lon="4.7873">
        <ele>183</ele>
        <time>2022-09-18T07:37:36.000Z</time>
      </trkpt>
      <trkpt lat="49.81991" lon="4.78733">
        <ele>183</ele>
        <time>2022-09-18T07:37:37.000Z</time>
      </trkpt>
      <trkpt lat="49.81994" lon="4.78736">
        <ele>183</ele>
        <time>2022-09-18T07:37:38.000Z</time>
      </trkpt>
      <trkpt lat="49.81998" lon="4.78739">
        <ele>183</ele>
        <time>2022-09-18T07:37:39.000Z</time>
      </trkpt>
      <trkpt lat="49.82001" lon="4.78742">
        <ele>183</ele>
        <time>2022-09-18T07:37:40.000Z</time>
      </trkpt>
      <trkpt lat="49.82005" lon="4.78744">
        <ele>183</ele>
        <time>2022-09-18T07:37:41.000Z</time>
      </trkpt>
      <trkpt lat="49.82008" lon="4.78748">
        <ele>184</ele>
        <time>2022-09-18T07:37:42.000Z</time>
      </trkpt>
      <trkpt lat="49.82012" lon="4.7875">
        <ele>184</ele>
        <time>2022-09-18T07:37:43.000Z</time>
      </trkpt>
      <trkpt lat="49.82015" lon="4.78753">
        <ele>184</ele>
        <time>2022-09-18T07:37:44.000Z</time>
      </trkpt>
      <trkpt lat="49.82019" lon="4.78755">
        <ele>184</ele>
        <time>2022-09-18T07:37:45.000Z</time>
      </trkpt>
      <trkpt lat="49.82022" lon="4.78758">
        <ele>184</ele>
        <time>2022-09-18T07:37:46.000Z</time>
      </trkpt>
      <trkpt lat="49.82026" lon="4.78761">
        <ele>184</ele>
        <time>2022-09-18T07:37:47.000Z</time>
      </trkpt>
      <trkpt lat="49.82029" lon="4.78764">
        <ele>184</ele>
        <time>2022-09-18T07:37:48.000Z</time>
      </trkpt>
      <trkpt lat="49.82033" lon="4.78767">
        <ele>185</ele>
        <time>2022-09-18T07:37:49.000Z</time>
      </trkpt>
      <trkpt lat="49.82036" lon="4.7877">
        <ele>185</ele>
        <time>2022-09-18T07:37:50.000Z</time>
      </trkpt>
      <trkpt lat="49.8204" lon="4.78773">
        <ele>185</ele>
        <time>2022-09-18T07:37:51.000Z</time>
      </trkpt>
      <trkpt lat="49.82044" lon="4.78776">
        <ele>185</ele>
        <time>2022-09-18T07:37:52.000Z</time>
      </trkpt>
      <trkpt lat="49.82048" lon="4.78778">
        <ele>186</ele>
        <time>2022-09-18T07:37:53.000Z</time>
      </trkpt>
      <trkpt lat="49.82052" lon="4.78781">
        <ele>186</ele>
        <time>2022-09-18T07:37:54.000Z</time>
      </trkpt>
      <trkpt lat="49.82055" lon="4.78784">
        <ele>186</ele>
        <time>2022-09-18T07:37:55.000Z</time>
      </trkpt>
      <trkpt lat="49.82059" lon="4.78788">
        <ele>186</ele>
        <time>2022-09-18T07:37:56.000Z</time>
      </trkpt>
      <trkpt lat="49.82062" lon="4.78792">
        <ele>186</ele>
        <time>2022-09-18T07:37:57.000Z</time>
      </trkpt>
      <trkpt lat="49.82066" lon="4.78795">
        <ele>186</ele>
        <time>2022-09-18T07:37:58.000Z</time>
      </trkpt>
      <trkpt lat="49.82069" lon="4.78799">
        <ele>187</ele>
        <time>2022-09-18T07:37:59.000Z</time>
      </trkpt>
      <trkpt lat="49.82073" lon="4.78803">
        <ele>187</ele>
        <time>2022-09-18T07:38:00.000Z</time>
      </trkpt>
      <trkpt lat="49.82076" lon="4.78808">
        <ele>187</ele>
        <time>2022-09-18T07:38:01.000Z</time>
      </trkpt>
      <trkpt lat="49.82079" lon="4.78812">
        <ele>187</ele>
        <time>2022-09-18T07:38:02.000Z</time>
      </trkpt>
      <trkpt lat="49.82082" lon="4.78817">
        <ele>187</ele>
        <time>2022-09-18T07:38:03.000Z</time>
      </trkpt>
      <trkpt lat="49.82085" lon="4.78822">
        <ele>187</ele>
        <time>2022-09-18T07:38:04.000Z</time>
      </trkpt>
      <trkpt lat="49.82088" lon="4.78828">
        <ele>188</ele>
        <time>2022-09-18T07:38:05.000Z</time>
      </trkpt>
      <trkpt lat="49.82091" lon="4.78834">
        <ele>188</ele>
        <time>2022-09-18T07:38:06.000Z</time>
      </trkpt>
      <trkpt lat="49.82094" lon="4.7884">
        <ele>188</ele>
        <time>2022-09-18T07:38:07.000Z</time>
      </trkpt>
      <trkpt lat="49.82097" lon="4.78846">
        <ele>188</ele>
        <time>2022-09-18T07:38:08.000Z</time>
      </trkpt>
      <trkpt lat="49.82099" lon="4.78852">
        <ele>188</ele>
        <time>2022-09-18T07:38:09.000Z</time>
      </trkpt>
      <trkpt lat="49.82101" lon="4.78859">
        <ele>188</ele>
        <time>2022-09-18T07:38:10.000Z</time>
      </trkpt>
      <trkpt lat="49.82104" lon="4.78865">
        <ele>189</ele>
        <time>2022-09-18T07:38:11.000Z</time>
      </trkpt>
      <trkpt lat="49.82106" lon="4.78871">
        <ele>189</ele>
        <time>2022-09-18T07:38:12.000Z</time>
      </trkpt>
      <trkpt lat="49.82108" lon="4.78877">
        <ele>189</ele>
        <time>2022-09-18T07:38:13.000Z</time>
      </trkpt>
      <trkpt lat="49.8211" lon="4.78882">
        <ele>189</ele>
        <time>2022-09-18T07:38:14.000Z</time>
      </trkpt>
      <trkpt lat="49.82112" lon="4.78888">
        <ele>189</ele>
        <time>2022-09-18T07:38:15.000Z</time>
      </trkpt>
      <trkpt lat="49.82114" lon="4.78893">
        <ele>190</ele>
        <time>2022-09-18T07:38:16.000Z</time>
      </trkpt>
      <trkpt lat="49.82116" lon="4.78898">
        <ele>190</ele>
        <time>2022-09-18T07:38:17.000Z</time>
      </trkpt>
      <trkpt lat="49.82118" lon="4.78903">
        <ele>190</ele>
        <time>2022-09-18T07:38:18.000Z</time>
      </trkpt>
      <trkpt lat="49.8212" lon="4.78907">
        <ele>190</ele>
        <time>2022-09-18T07:38:19.000Z</time>
      </trkpt>
      <trkpt lat="49.82122" lon="4.78911">
        <ele>190</ele>
        <time>2022-09-18T07:38:20.000Z</time>
      </trkpt>
      <trkpt lat="49.82125" lon="4.78915">
        <ele>190</ele>
        <time>2022-09-18T07:38:21.000Z</time>
      </trkpt>
      <trkpt lat="49.82127" lon="4.78919">
        <ele>190</ele>
        <time>2022-09-18T07:38:22.000Z</time>
      </trkpt>
      <trkpt lat="49.82129" lon="4.78923">
        <ele>190</ele>
        <time>2022-09-18T07:38:23.000Z</time>
      </trkpt>
      <trkpt lat="49.82132" lon="4.78927">
        <ele>190</ele>
        <time>2022-09-18T07:38:24.000Z</time>
      </trkpt>
      <trkpt lat="49.82134" lon="4.7893">
        <ele>190</ele>
        <time>2022-09-18T07:38:25.000Z</time>
      </trkpt>
      <trkpt lat="49.82136" lon="4.78934">
        <ele>190</ele>
        <time>2022-09-18T07:38:26.000Z</time>
      </trkpt>
      <trkpt lat="49.82139" lon="4.78938">
        <ele>190</ele>
        <time>2022-09-18T07:38:27.000Z</time>
      </trkpt>
      <trkpt lat="49.82141" lon="4.78942">
        <ele>190</ele>
        <time>2022-09-18T07:38:28.000Z</time>
      </trkpt>
      <trkpt lat="49.82143" lon="4.78945">
        <ele>190</ele>
        <time>2022-09-18T07:38:29.000Z</time>
      </trkpt>
      <trkpt lat="49.82146" lon="4.78949">
        <ele>190</ele>
        <time>2022-09-18T07:38:30.000Z</time>
      </trkpt>
      <trkpt lat="49.82149" lon="4.78954">
        <ele>190</ele>
        <time>2022-09-18T07:38:31.000Z</time>
      </trkpt>
      <trkpt lat="49.82152" lon="4.78959">
        <ele>190</ele>
        <time>2022-09-18T07:38:32.000Z</time>
      </trkpt>
      <trkpt lat="49.82155" lon="4.78964">
        <ele>190</ele>
        <time>2022-09-18T07:38:33.000Z</time>
      </trkpt>
      <trkpt lat="49.82158" lon="4.78969">
        <ele>190</ele>
        <time>2022-09-18T07:38:34.000Z</time>
      </trkpt>
      <trkpt lat="49.82161" lon="4.78973">
        <ele>190</ele>
        <time>2022-09-18T07:38:35.000Z</time>
      </trkpt>
      <trkpt lat="49.82164" lon="4.78978">
        <ele>190</ele>
        <time>2022-09-18T07:38:36.000Z</time>
      </trkpt>
      <trkpt lat="49.82168" lon="4.78982">
        <ele>190</ele>
        <time>2022-09-18T07:38:37.000Z</time>
      </trkpt>
      <trkpt lat="49.82171" lon="4.78986">
        <ele>190</ele>
        <time>2022-09-18T07:38:38.000Z</time>
      </trkpt>
      <trkpt lat="49.82175" lon="4.7899">
        <ele>190</ele>
        <time>2022-09-18T07:38:39.000Z</time>
      </trkpt>
      <trkpt lat="49.82179" lon="4.78993">
        <ele>190</ele>
        <time>2022-09-18T07:38:40.000Z</time>
      </trkpt>
      <trkpt lat="49.82182" lon="4.78996">
        <ele>190</ele>
        <time>2022-09-18T07:38:41.000Z</time>
      </trkpt>
      <trkpt lat="49.82187" lon="4.78998">
        <ele>190</ele>
        <time>2022-09-18T07:38:42.000Z</time>
      </trkpt>
      <trkpt lat="49.82191" lon="4.79">
        <ele>190</ele>
        <time>2022-09-18T07:38:43.000Z</time>
      </trkpt>
      <trkpt lat="49.82196" lon="4.79002">
        <ele>190</ele>
        <time>2022-09-18T07:38:44.000Z</time>
      </trkpt>
      <trkpt lat="49.822" lon="4.79004">
        <ele>190</ele>
        <time>2022-09-18T07:38:45.000Z</time>
      </trkpt>
      <trkpt lat="49.82205" lon="4.79006">
        <ele>190</ele>
        <time>2022-09-18T07:38:46.000Z</time>
      </trkpt>
      <trkpt lat="49.8221" lon="4.79007">
        <ele>190</ele>
        <time>2022-09-18T07:38:47.000Z</time>
      </trkpt>
      <trkpt lat="49.82215" lon="4.79008">
        <ele>190</ele>
        <time>2022-09-18T07:38:48.000Z</time>
      </trkpt>
      <trkpt lat="49.8222" lon="4.79008">
        <ele>190</ele>
        <time>2022-09-18T07:38:49.000Z</time>
      </trkpt>
      <trkpt lat="49.82226" lon="4.79009">
        <ele>190</ele>
        <time>2022-09-18T07:38:50.000Z</time>
      </trkpt>
      <trkpt lat="49.82231" lon="4.7901">
        <ele>190</ele>
        <time>2022-09-18T07:38:51.000Z</time>
      </trkpt>
      <trkpt lat="49.82236" lon="4.79011">
        <ele>191</ele>
        <time>2022-09-18T07:38:52.000Z</time>
      </trkpt>
      <trkpt lat="49.82242" lon="4.79012">
        <ele>191</ele>
        <time>2022-09-18T07:38:53.000Z</time>
      </trkpt>
      <trkpt lat="49.82247" lon="4.79013">
        <ele>191</ele>
        <time>2022-09-18T07:38:54.000Z</time>
      </trkpt>
      <trkpt lat="49.82252" lon="4.79015">
        <ele>191</ele>
        <time>2022-09-18T07:38:55.000Z</time>
      </trkpt>
      <trkpt lat="49.82257" lon="4.79017">
        <ele>191</ele>
        <time>2022-09-18T07:38:56.000Z</time>
      </trkpt>
      <trkpt lat="49.82261" lon="4.79019">
        <ele>191</ele>
        <time>2022-09-18T07:38:57.000Z</time>
      </trkpt>
      <trkpt lat="49.82266" lon="4.79021">
        <ele>191</ele>
        <time>2022-09-18T07:38:58.000Z</time>
      </trkpt>
      <trkpt lat="49.82271" lon="4.79023">
        <ele>191</ele>
        <time>2022-09-18T07:38:59.000Z</time>
      </trkpt>
      <trkpt lat="49.82275" lon="4.79025">
        <ele>191</ele>
        <time>2022-09-18T07:39:00.000Z</time>
      </trkpt>
      <trkpt lat="49.8228" lon="4.79027">
        <ele>191</ele>
        <time>2022-09-18T07:39:01.000Z</time>
      </trkpt>
      <trkpt lat="49.82284" lon="4.79028">
        <ele>191</ele>
        <time>2022-09-18T07:39:02.000Z</time>
      </trkpt>
      <trkpt lat="49.82289" lon="4.7903">
        <ele>191</ele>
        <time>2022-09-18T07:39:03.000Z</time>
      </trkpt>
      <trkpt lat="49.82294" lon="4.79032">
        <ele>191</ele>
        <time>2022-09-18T07:39:04.000Z</time>
      </trkpt>
      <trkpt lat="49.82299" lon="4.79034">
        <ele>192</ele>
        <time>2022-09-18T07:39:05.000Z</time>
      </trkpt>
      <trkpt lat="49.82303" lon="4.79035">
        <ele>192</ele>
        <time>2022-09-18T07:39:06.000Z</time>
      </trkpt>
      <trkpt lat="49.82308" lon="4.79037">
        <ele>192</ele>
        <time>2022-09-18T07:39:07.000Z</time>
      </trkpt>
      <trkpt lat="49.82313" lon="4.79039">
        <ele>192</ele>
        <time>2022-09-18T07:39:08.000Z</time>
      </trkpt>
      <trkpt lat="49.82318" lon="4.7904">
        <ele>192</ele>
        <time>2022-09-18T07:39:09.000Z</time>
      </trkpt>
      <trkpt lat="49.82323" lon="4.79042">
        <ele>192</ele>
        <time>2022-09-18T07:39:10.000Z</time>
      </trkpt>
      <trkpt lat="49.82328" lon="4.79043">
        <ele>192</ele>
        <time>2022-09-18T07:39:11.000Z</time>
      </trkpt>
      <trkpt lat="49.82333" lon="4.79045">
        <ele>192</ele>
        <time>2022-09-18T07:39:12.000Z</time>
      </trkpt>
      <trkpt lat="49.82338" lon="4.79045">
        <ele>193</ele>
        <time>2022-09-18T07:39:13.000Z</time>
      </trkpt>
      <trkpt lat="49.82344" lon="4.79046">
        <ele>193</ele>
        <time>2022-09-18T07:39:14.000Z</time>
      </trkpt>
      <trkpt lat="49.82349" lon="4.79047">
        <ele>193</ele>
        <time>2022-09-18T07:39:15.000Z</time>
      </trkpt>
      <trkpt lat="49.82354" lon="4.79047">
        <ele>193</ele>
        <time>2022-09-18T07:39:16.000Z</time>
      </trkpt>
      <trkpt lat="49.8236" lon="4.79048">
        <ele>194</ele>
        <time>2022-09-18T07:39:17.000Z</time>
      </trkpt>
      <trkpt lat="49.82365" lon="4.79048">
        <ele>194</ele>
        <time>2022-09-18T07:39:18.000Z</time>
      </trkpt>
      <trkpt lat="49.82371" lon="4.79049">
        <ele>194</ele>
        <time>2022-09-18T07:39:19.000Z</time>
      </trkpt>
      <trkpt lat="49.82376" lon="4.7905">
        <ele>194</ele>
        <time>2022-09-18T07:39:20.000Z</time>
      </trkpt>
      <trkpt lat="49.82381" lon="4.7905">
        <ele>195</ele>
        <time>2022-09-18T07:39:21.000Z</time>
      </trkpt>
      <trkpt lat="49.82386" lon="4.79052">
        <ele>195</ele>
        <time>2022-09-18T07:39:22.000Z</time>
      </trkpt>
      <trkpt lat="49.82391" lon="4.79053">
        <ele>195</ele>
        <time>2022-09-18T07:39:23.000Z</time>
      </trkpt>
      <trkpt lat="49.82396" lon="4.79055">
        <ele>195</ele>
        <time>2022-09-18T07:39:24.000Z</time>
      </trkpt>
      <trkpt lat="49.82401" lon="4.79057">
        <ele>196</ele>
        <time>2022-09-18T07:39:25.000Z</time>
      </trkpt>
      <trkpt lat="49.82405" lon="4.79059">
        <ele>196</ele>
        <time>2022-09-18T07:39:26.000Z</time>
      </trkpt>
      <trkpt lat="49.8241" lon="4.79061">
        <ele>196</ele>
        <time>2022-09-18T07:39:27.000Z</time>
      </trkpt>
      <trkpt lat="49.82415" lon="4.79064">
        <ele>196</ele>
        <time>2022-09-18T07:39:28.000Z</time>
      </trkpt>
      <trkpt lat="49.82419" lon="4.79066">
        <ele>197</ele>
        <time>2022-09-18T07:39:29.000Z</time>
      </trkpt>
      <trkpt lat="49.82424" lon="4.79069">
        <ele>197</ele>
        <time>2022-09-18T07:39:30.000Z</time>
      </trkpt>
      <trkpt lat="49.82429" lon="4.79071">
        <ele>197</ele>
        <time>2022-09-18T07:39:31.000Z</time>
      </trkpt>
      <trkpt lat="49.82433" lon="4.79072">
        <ele>197</ele>
        <time>2022-09-18T07:39:32.000Z</time>
      </trkpt>
      <trkpt lat="49.82438" lon="4.79074">
        <ele>198</ele>
        <time>2022-09-18T07:39:33.000Z</time>
      </trkpt>
      <trkpt lat="49.82443" lon="4.79075">
        <ele>198</ele>
        <time>2022-09-18T07:39:34.000Z</time>
      </trkpt>
      <trkpt lat="49.82447" lon="4.79075">
        <ele>198</ele>
        <time>2022-09-18T07:39:35.000Z</time>
      </trkpt>
      <trkpt lat="49.82452" lon="4.79076">
        <ele>198</ele>
        <time>2022-09-18T07:39:36.000Z</time>
      </trkpt>
      <trkpt lat="49.82457" lon="4.79075">
        <ele>198</ele>
        <time>2022-09-18T07:39:37.000Z</time>
      </trkpt>
      <trkpt lat="49.82462" lon="4.79074">
        <ele>199</ele>
        <time>2022-09-18T07:39:38.000Z</time>
      </trkpt>
      <trkpt lat="49.82467" lon="4.79073">
        <ele>199</ele>
        <time>2022-09-18T07:39:39.000Z</time>
      </trkpt>
      <trkpt lat="49.82473" lon="4.79071">
        <ele>199</ele>
        <time>2022-09-18T07:39:40.000Z</time>
      </trkpt>
      <trkpt lat="49.82478" lon="4.79069">
        <ele>199</ele>
        <time>2022-09-18T07:39:41.000Z</time>
      </trkpt>
      <trkpt lat="49.82483" lon="4.79068">
        <ele>199</ele>
        <time>2022-09-18T07:39:42.000Z</time>
      </trkpt>
      <trkpt lat="49.82488" lon="4.79067">
        <ele>199</ele>
        <time>2022-09-18T07:39:43.000Z</time>
      </trkpt>
      <trkpt lat="49.82493" lon="4.79066">
        <ele>199</ele>
        <time>2022-09-18T07:39:44.000Z</time>
      </trkpt>
      <trkpt lat="49.82498" lon="4.79066">
        <ele>200</ele>
        <time>2022-09-18T07:39:45.000Z</time>
      </trkpt>
      <trkpt lat="49.82503" lon="4.79067">
        <ele>200</ele>
        <time>2022-09-18T07:39:46.000Z</time>
      </trkpt>
      <trkpt lat="49.82508" lon="4.79068">
        <ele>200</ele>
        <time>2022-09-18T07:39:47.000Z</time>
      </trkpt>
      <trkpt lat="49.82513" lon="4.79069">
        <ele>200</ele>
        <time>2022-09-18T07:39:48.000Z</time>
      </trkpt>
      <trkpt lat="49.82517" lon="4.79071">
        <ele>200</ele>
        <time>2022-09-18T07:39:49.000Z</time>
      </trkpt>
      <trkpt lat="49.82522" lon="4.79072">
        <ele>200</ele>
        <time>2022-09-18T07:39:50.000Z</time>
      </trkpt>
      <trkpt lat="49.82526" lon="4.79073">
        <ele>201</ele>
        <time>2022-09-18T07:39:51.000Z</time>
      </trkpt>
      <trkpt lat="49.8253" lon="4.79074">
        <ele>201</ele>
        <time>2022-09-18T07:39:52.000Z</time>
      </trkpt>
      <trkpt lat="49.82535" lon="4.79074">
        <ele>201</ele>
        <time>2022-09-18T07:39:53.000Z</time>
      </trkpt>
      <trkpt lat="49.8254" lon="4.79075">
        <ele>201</ele>
        <time>2022-09-18T07:39:54.000Z</time>
      </trkpt>
      <trkpt lat="49.82546" lon="4.79076">
        <ele>202</ele>
        <time>2022-09-18T07:39:55.000Z</time>
      </trkpt>
      <trkpt lat="49.82551" lon="4.79077">
        <ele>202</ele>
        <time>2022-09-18T07:39:56.000Z</time>
      </trkpt>
      <trkpt lat="49.82556" lon="4.79078">
        <ele>202</ele>
        <time>2022-09-18T07:39:57.000Z</time>
      </trkpt>
      <trkpt lat="49.82561" lon="4.79079">
        <ele>202</ele>
        <time>2022-09-18T07:39:58.000Z</time>
      </trkpt>
      <trkpt lat="49.82565" lon="4.7908">
        <ele>202</ele>
        <time>2022-09-18T07:39:59.000Z</time>
      </trkpt>
      <trkpt lat="49.8257" lon="4.79082">
        <ele>203</ele>
        <time>2022-09-18T07:40:00.000Z</time>
      </trkpt>
      <trkpt lat="49.82575" lon="4.79083">
        <ele>203</ele>
        <time>2022-09-18T07:40:01.000Z</time>
      </trkpt>
      <trkpt lat="49.82579" lon="4.79085">
        <ele>203</ele>
        <time>2022-09-18T07:40:02.000Z</time>
      </trkpt>
      <trkpt lat="49.82584" lon="4.79086">
        <ele>203</ele>
        <time>2022-09-18T07:40:03.000Z</time>
      </trkpt>
      <trkpt lat="49.82589" lon="4.79087">
        <ele>204</ele>
        <time>2022-09-18T07:40:04.000Z</time>
      </trkpt>
      <trkpt lat="49.82594" lon="4.79088">
        <ele>204</ele>
        <time>2022-09-18T07:40:05.000Z</time>
      </trkpt>
      <trkpt lat="49.82599" lon="4.7909">
        <ele>204</ele>
        <time>2022-09-18T07:40:06.000Z</time>
      </trkpt>
      <trkpt lat="49.82604" lon="4.79092">
        <ele>205</ele>
        <time>2022-09-18T07:40:07.000Z</time>
      </trkpt>
      <trkpt lat="49.82609" lon="4.79094">
        <ele>205</ele>
        <time>2022-09-18T07:40:08.000Z</time>
      </trkpt>
      <trkpt lat="49.82614" lon="4.79096">
        <ele>205</ele>
        <time>2022-09-18T07:40:09.000Z</time>
      </trkpt>
      <trkpt lat="49.82619" lon="4.79098">
        <ele>206</ele>
        <time>2022-09-18T07:40:10.000Z</time>
      </trkpt>
      <trkpt lat="49.82623" lon="4.791">
        <ele>206</ele>
        <time>2022-09-18T07:40:11.000Z</time>
      </trkpt>
      <trkpt lat="49.82628" lon="4.79102">
        <ele>206</ele>
        <time>2022-09-18T07:40:12.000Z</time>
      </trkpt>
      <trkpt lat="49.82632" lon="4.79105">
        <ele>206</ele>
        <time>2022-09-18T07:40:13.000Z</time>
      </trkpt>
      <trkpt lat="49.82637" lon="4.79107">
        <ele>206</ele>
        <time>2022-09-18T07:40:14.000Z</time>
      </trkpt>
      <trkpt lat="49.82641" lon="4.7911">
        <ele>207</ele>
        <time>2022-09-18T07:40:15.000Z</time>
      </trkpt>
      <trkpt lat="49.82646" lon="4.79111">
        <ele>207</ele>
        <time>2022-09-18T07:40:16.000Z</time>
      </trkpt>
      <trkpt lat="49.82649" lon="4.79113">
        <ele>207</ele>
        <time>2022-09-18T07:40:17.000Z</time>
      </trkpt>
      <trkpt lat="49.82653" lon="4.79114">
        <ele>207</ele>
        <time>2022-09-18T07:40:18.000Z</time>
      </trkpt>
      <trkpt lat="49.82656" lon="4.79114">
        <ele>207</ele>
        <time>2022-09-18T07:40:19.000Z</time>
      </trkpt>
      <trkpt lat="49.82659" lon="4.79115">
        <ele>207</ele>
        <time>2022-09-18T07:40:20.000Z</time>
      </trkpt>
      <trkpt lat="49.82663" lon="4.79115">
        <ele>207</ele>
        <time>2022-09-18T07:40:21.000Z</time>
      </trkpt>
      <trkpt lat="49.82666" lon="4.79116">
        <ele>207</ele>
        <time>2022-09-18T07:40:22.000Z</time>
      </trkpt>
      <trkpt lat="49.82669" lon="4.79116">
        <ele>207</ele>
        <time>2022-09-18T07:40:23.000Z</time>
      </trkpt>
      <trkpt lat="49.82672" lon="4.79116">
        <ele>207</ele>
        <time>2022-09-18T07:40:24.000Z</time>
      </trkpt>
      <trkpt lat="49.82675" lon="4.79116">
        <ele>207</ele>
        <time>2022-09-18T07:40:25.000Z</time>
      </trkpt>
      <trkpt lat="49.82678" lon="4.79115">
        <ele>207</ele>
        <time>2022-09-18T07:40:26.000Z</time>
      </trkpt>
      <trkpt lat="49.82682" lon="4.79115">
        <ele>207</ele>
        <time>2022-09-18T07:40:27.000Z</time>
      </trkpt>
      <trkpt lat="49.82686" lon="4.79115">
        <ele>207</ele>
        <time>2022-09-18T07:40:28.000Z</time>
      </trkpt>
      <trkpt lat="49.82691" lon="4.79116">
        <ele>207</ele>
        <time>2022-09-18T07:40:29.000Z</time>
      </trkpt>
      <trkpt lat="49.82695" lon="4.79117">
        <ele>207</ele>
        <time>2022-09-18T07:40:30.000Z</time>
      </trkpt>
      <trkpt lat="49.82699" lon="4.79118">
        <ele>207</ele>
        <time>2022-09-18T07:40:31.000Z</time>
      </trkpt>
      <trkpt lat="49.82703" lon="4.7912">
        <ele>207</ele>
        <time>2022-09-18T07:40:32.000Z</time>
      </trkpt>
      <trkpt lat="49.82708" lon="4.79122">
        <ele>207</ele>
        <time>2022-09-18T07:40:33.000Z</time>
      </trkpt>
      <trkpt lat="49.82712" lon="4.79125">
        <ele>207</ele>
        <time>2022-09-18T07:40:34.000Z</time>
      </trkpt>
      <trkpt lat="49.82717" lon="4.79128">
        <ele>207</ele>
        <time>2022-09-18T07:40:35.000Z</time>
      </trkpt>
      <trkpt lat="49.82721" lon="4.79132">
        <ele>207</ele>
        <time>2022-09-18T07:40:36.000Z</time>
      </trkpt>
      <trkpt lat="49.82726" lon="4.79135">
        <ele>207</ele>
        <time>2022-09-18T07:40:37.000Z</time>
      </trkpt>
      <trkpt lat="49.8273" lon="4.79139">
        <ele>207</ele>
        <time>2022-09-18T07:40:38.000Z</time>
      </trkpt>
      <trkpt lat="49.82735" lon="4.79143">
        <ele>207</ele>
        <time>2022-09-18T07:40:39.000Z</time>
      </trkpt>
      <trkpt lat="49.82739" lon="4.79146">
        <ele>207</ele>
        <time>2022-09-18T07:40:40.000Z</time>
      </trkpt>
      <trkpt lat="49.82744" lon="4.7915">
        <ele>207</ele>
        <time>2022-09-18T07:40:41.000Z</time>
      </trkpt>
      <trkpt lat="49.82749" lon="4.79154">
        <ele>207</ele>
        <time>2022-09-18T07:40:42.000Z</time>
      </trkpt>
      <trkpt lat="49.82753" lon="4.79158">
        <ele>207</ele>
        <time>2022-09-18T07:40:43.000Z</time>
      </trkpt>
      <trkpt lat="49.82758" lon="4.79161">
        <ele>207</ele>
        <time>2022-09-18T07:40:44.000Z</time>
      </trkpt>
      <trkpt lat="49.82762" lon="4.79165">
        <ele>207</ele>
        <time>2022-09-18T07:40:45.000Z</time>
      </trkpt>
      <trkpt lat="49.82767" lon="4.79169">
        <ele>207</ele>
        <time>2022-09-18T07:40:46.000Z</time>
      </trkpt>
      <trkpt lat="49.82771" lon="4.79173">
        <ele>207</ele>
        <time>2022-09-18T07:40:47.000Z</time>
      </trkpt>
      <trkpt lat="49.82775" lon="4.79177">
        <ele>207</ele>
        <time>2022-09-18T07:40:48.000Z</time>
      </trkpt>
      <trkpt lat="49.8278" lon="4.79182">
        <ele>207</ele>
        <time>2022-09-18T07:40:49.000Z</time>
      </trkpt>
      <trkpt lat="49.82783" lon="4.79188">
        <ele>207</ele>
        <time>2022-09-18T07:40:50.000Z</time>
      </trkpt>
      <trkpt lat="49.82787" lon="4.79194">
        <ele>207</ele>
        <time>2022-09-18T07:40:51.000Z</time>
      </trkpt>
      <trkpt lat="49.8279" lon="4.792">
        <ele>207</ele>
        <time>2022-09-18T07:40:52.000Z</time>
      </trkpt>
      <trkpt lat="49.82794" lon="4.79206">
        <ele>207</ele>
        <time>2022-09-18T07:40:53.000Z</time>
      </trkpt>
      <trkpt lat="49.82797" lon="4.79212">
        <ele>206</ele>
        <time>2022-09-18T07:40:54.000Z</time>
      </trkpt>
      <trkpt lat="49.82801" lon="4.79218">
        <ele>206</ele>
        <time>2022-09-18T07:40:55.000Z</time>
      </trkpt>
      <trkpt lat="49.82804" lon="4.79224">
        <ele>206</ele>
        <time>2022-09-18T07:40:56.000Z</time>
      </trkpt>
      <trkpt lat="49.82807" lon="4.7923">
        <ele>206</ele>
        <time>2022-09-18T07:40:57.000Z</time>
      </trkpt>
      <trkpt lat="49.8281" lon="4.79236">
        <ele>205</ele>
        <time>2022-09-18T07:40:58.000Z</time>
      </trkpt>
      <trkpt lat="49.82813" lon="4.79242">
        <ele>205</ele>
        <time>2022-09-18T07:40:59.000Z</time>
      </trkpt>
      <trkpt lat="49.82816" lon="4.79248">
        <ele>205</ele>
        <time>2022-09-18T07:41:00.000Z</time>
      </trkpt>
      <trkpt lat="49.8282" lon="4.79253">
        <ele>205</ele>
        <time>2022-09-18T07:41:01.000Z</time>
      </trkpt>
      <trkpt lat="49.82823" lon="4.79257">
        <ele>204</ele>
        <time>2022-09-18T07:41:02.000Z</time>
      </trkpt>
      <trkpt lat="49.82827" lon="4.79262">
        <ele>204</ele>
        <time>2022-09-18T07:41:03.000Z</time>
      </trkpt>
      <trkpt lat="49.82831" lon="4.79266">
        <ele>204</ele>
        <time>2022-09-18T07:41:04.000Z</time>
      </trkpt>
      <trkpt lat="49.82835" lon="4.7927">
        <ele>203</ele>
        <time>2022-09-18T07:41:05.000Z</time>
      </trkpt>
      <trkpt lat="49.82839" lon="4.79274">
        <ele>203</ele>
        <time>2022-09-18T07:41:06.000Z</time>
      </trkpt>
      <trkpt lat="49.82843" lon="4.79278">
        <ele>203</ele>
        <time>2022-09-18T07:41:07.000Z</time>
      </trkpt>
      <trkpt lat="49.82848" lon="4.79282">
        <ele>203</ele>
        <time>2022-09-18T07:41:08.000Z</time>
      </trkpt>
      <trkpt lat="49.82852" lon="4.79287">
        <ele>202</ele>
        <time>2022-09-18T07:41:09.000Z</time>
      </trkpt>
      <trkpt lat="49.82857" lon="4.79292">
        <ele>202</ele>
        <time>2022-09-18T07:41:10.000Z</time>
      </trkpt>
      <trkpt lat="49.82861" lon="4.79297">
        <ele>202</ele>
        <time>2022-09-18T07:41:11.000Z</time>
      </trkpt>
      <trkpt lat="49.82865" lon="4.79304">
        <ele>202</ele>
        <time>2022-09-18T07:41:12.000Z</time>
      </trkpt>
      <trkpt lat="49.82869" lon="4.7931">
        <ele>201</ele>
        <time>2022-09-18T07:41:13.000Z</time>
      </trkpt>
      <trkpt lat="49.82872" lon="4.79316">
        <ele>201</ele>
        <time>2022-09-18T07:41:14.000Z</time>
      </trkpt>
      <trkpt lat="49.82875" lon="4.79322">
        <ele>201</ele>
        <time>2022-09-18T07:41:15.000Z</time>
      </trkpt>
      <trkpt lat="49.82878" lon="4.79327">
        <ele>201</ele>
        <time>2022-09-18T07:41:16.000Z</time>
      </trkpt>
      <trkpt lat="49.82881" lon="4.79332">
        <ele>201</ele>
        <time>2022-09-18T07:41:17.000Z</time>
      </trkpt>
      <trkpt lat="49.82883" lon="4.79337">
        <ele>201</ele>
        <time>2022-09-18T07:41:18.000Z</time>
      </trkpt>
      <trkpt lat="49.82885" lon="4.79342">
        <ele>201</ele>
        <time>2022-09-18T07:41:19.000Z</time>
      </trkpt>
      <trkpt lat="49.82887" lon="4.79347">
        <ele>201</ele>
        <time>2022-09-18T07:41:20.000Z</time>
      </trkpt>
      <trkpt lat="49.82889" lon="4.79352">
        <ele>201</ele>
        <time>2022-09-18T07:41:21.000Z</time>
      </trkpt>
      <trkpt lat="49.82891" lon="4.79357">
        <ele>201</ele>
        <time>2022-09-18T07:41:22.000Z</time>
      </trkpt>
      <trkpt lat="49.82893" lon="4.79362">
        <ele>201</ele>
        <time>2022-09-18T07:41:23.000Z</time>
      </trkpt>
      <trkpt lat="49.82895" lon="4.79367">
        <ele>201</ele>
        <time>2022-09-18T07:41:24.000Z</time>
      </trkpt>
      <trkpt lat="49.82897" lon="4.79373">
        <ele>201</ele>
        <time>2022-09-18T07:41:25.000Z</time>
      </trkpt>
      <trkpt lat="49.82899" lon="4.79378">
        <ele>201</ele>
        <time>2022-09-18T07:41:26.000Z</time>
      </trkpt>
      <trkpt lat="49.82901" lon="4.79384">
        <ele>201</ele>
        <time>2022-09-18T07:41:27.000Z</time>
      </trkpt>
      <trkpt lat="49.82903" lon="4.79389">
        <ele>201</ele>
        <time>2022-09-18T07:41:28.000Z</time>
      </trkpt>
      <trkpt lat="49.82904" lon="4.79395">
        <ele>201</ele>
        <time>2022-09-18T07:41:29.000Z</time>
      </trkpt>
      <trkpt lat="49.82906" lon="4.794">
        <ele>201</ele>
        <time>2022-09-18T07:41:30.000Z</time>
      </trkpt>
      <trkpt lat="49.82908" lon="4.79406">
        <ele>201</ele>
        <time>2022-09-18T07:41:31.000Z</time>
      </trkpt>
      <trkpt lat="49.82909" lon="4.79411">
        <ele>201</ele>
        <time>2022-09-18T07:41:32.000Z</time>
      </trkpt>
      <trkpt lat="49.82911" lon="4.79417">
        <ele>201</ele>
        <time>2022-09-18T07:41:33.000Z</time>
      </trkpt>
      <trkpt lat="49.82913" lon="4.79421">
        <ele>201</ele>
        <time>2022-09-18T07:41:34.000Z</time>
      </trkpt>
      <trkpt lat="49.82914" lon="4.79426">
        <ele>201</ele>
        <time>2022-09-18T07:41:35.000Z</time>
      </trkpt>
      <trkpt lat="49.82916" lon="4.79431">
        <ele>201</ele>
        <time>2022-09-18T07:41:36.000Z</time>
      </trkpt>
      <trkpt lat="49.82918" lon="4.79435">
        <ele>201</ele>
        <time>2022-09-18T07:41:37.000Z</time>
      </trkpt>
      <trkpt lat="49.8292" lon="4.79439">
        <ele>201</ele>
        <time>2022-09-18T07:41:38.000Z</time>
      </trkpt>
      <trkpt lat="49.82922" lon="4.79443">
        <ele>201</ele>
        <time>2022-09-18T07:41:39.000Z</time>
      </trkpt>
      <trkpt lat="49.82924" lon="4.79446">
        <ele>201</ele>
        <time>2022-09-18T07:41:40.000Z</time>
      </trkpt>
      <trkpt lat="49.82927" lon="4.79449">
        <ele>201</ele>
        <time>2022-09-18T07:41:41.000Z</time>
      </trkpt>
      <trkpt lat="49.82929" lon="4.79453">
        <ele>201</ele>
        <time>2022-09-18T07:41:42.000Z</time>
      </trkpt>
      <trkpt lat="49.82931" lon="4.79456">
        <ele>201</ele>
        <time>2022-09-18T07:41:43.000Z</time>
      </trkpt>
      <trkpt lat="49.82934" lon="4.79458">
        <ele>201</ele>
        <time>2022-09-18T07:41:44.000Z</time>
      </trkpt>
      <trkpt lat="49.82936" lon="4.79461">
        <ele>201</ele>
        <time>2022-09-18T07:41:45.000Z</time>
      </trkpt>
      <trkpt lat="49.82939" lon="4.79463">
        <ele>201</ele>
        <time>2022-09-18T07:41:46.000Z</time>
      </trkpt>
      <trkpt lat="49.82941" lon="4.79464">
        <ele>202</ele>
        <time>2022-09-18T07:41:47.000Z</time>
      </trkpt>
      <trkpt lat="49.82944" lon="4.79465">
        <ele>202</ele>
        <time>2022-09-18T07:41:48.000Z</time>
      </trkpt>
      <trkpt lat="49.82947" lon="4.79466">
        <ele>202</ele>
        <time>2022-09-18T07:41:49.000Z</time>
      </trkpt>
      <trkpt lat="49.82949" lon="4.79466">
        <ele>202</ele>
        <time>2022-09-18T07:41:50.000Z</time>
      </trkpt>
      <trkpt lat="49.82952" lon="4.79468">
        <ele>202</ele>
        <time>2022-09-18T07:41:51.000Z</time>
      </trkpt>
      <trkpt lat="49.82955" lon="4.79468">
        <ele>202</ele>
        <time>2022-09-18T07:41:52.000Z</time>
      </trkpt>
      <trkpt lat="49.82958" lon="4.79469">
        <ele>203</ele>
        <time>2022-09-18T07:41:53.000Z</time>
      </trkpt>
      <trkpt lat="49.82962" lon="4.7947">
        <ele>203</ele>
        <time>2022-09-18T07:41:54.000Z</time>
      </trkpt>
      <trkpt lat="49.82966" lon="4.79471">
        <ele>203</ele>
        <time>2022-09-18T07:41:55.000Z</time>
      </trkpt>
      <trkpt lat="49.82969" lon="4.79472">
        <ele>203</ele>
        <time>2022-09-18T07:41:56.000Z</time>
      </trkpt>
      <trkpt lat="49.82973" lon="4.79473">
        <ele>203</ele>
        <time>2022-09-18T07:41:57.000Z</time>
      </trkpt>
      <trkpt lat="49.82976" lon="4.79474">
        <ele>204</ele>
        <time>2022-09-18T07:41:58.000Z</time>
      </trkpt>
      <trkpt lat="49.8298" lon="4.79475">
        <ele>204</ele>
        <time>2022-09-18T07:41:59.000Z</time>
      </trkpt>
      <trkpt lat="49.82983" lon="4.79475">
        <ele>204</ele>
        <time>2022-09-18T07:42:00.000Z</time>
      </trkpt>
      <trkpt lat="49.82987" lon="4.79476">
        <ele>204</ele>
        <time>2022-09-18T07:42:01.000Z</time>
      </trkpt>
      <trkpt lat="49.8299" lon="4.79475">
        <ele>205</ele>
        <time>2022-09-18T07:42:02.000Z</time>
      </trkpt>
      <trkpt lat="49.82993" lon="4.79475">
        <ele>205</ele>
        <time>2022-09-18T07:42:03.000Z</time>
      </trkpt>
      <trkpt lat="49.82996" lon="4.79475">
        <ele>205</ele>
        <time>2022-09-18T07:42:04.000Z</time>
      </trkpt>
      <trkpt lat="49.82999" lon="4.79476">
        <ele>206</ele>
        <time>2022-09-18T07:42:05.000Z</time>
      </trkpt>
      <trkpt lat="49.83001" lon="4.79478">
        <ele>206</ele>
        <time>2022-09-18T07:42:06.000Z</time>
      </trkpt>
      <trkpt lat="49.83003" lon="4.79479">
        <ele>207</ele>
        <time>2022-09-18T07:42:07.000Z</time>
      </trkpt>
      <trkpt lat="49.83005" lon="4.7948">
        <ele>207</ele>
        <time>2022-09-18T07:42:08.000Z</time>
      </trkpt>
      <trkpt lat="49.83007" lon="4.7948">
        <ele>207</ele>
        <time>2022-09-18T07:42:09.000Z</time>
      </trkpt>
      <trkpt lat="49.83009" lon="4.79481">
        <ele>208</ele>
        <time>2022-09-18T07:42:10.000Z</time>
      </trkpt>
      <trkpt lat="49.83011" lon="4.79482">
        <ele>208</ele>
        <time>2022-09-18T07:42:11.000Z</time>
      </trkpt>
      <trkpt lat="49.83013" lon="4.79482">
        <ele>209</ele>
        <time>2022-09-18T07:42:12.000Z</time>
      </trkpt>
      <trkpt lat="49.83014" lon="4.79482">
        <ele>209</ele>
        <time>2022-09-18T07:42:13.000Z</time>
      </trkpt>
      <trkpt lat="49.83016" lon="4.79482">
        <ele>209</ele>
        <time>2022-09-18T07:42:14.000Z</time>
      </trkpt>
      <trkpt lat="49.83017" lon="4.79482">
        <ele>210</ele>
        <time>2022-09-18T07:42:15.000Z</time>
      </trkpt>
      <trkpt lat="49.83019" lon="4.79483">
        <ele>210</ele>
        <time>2022-09-18T07:42:16.000Z</time>
      </trkpt>
      <trkpt lat="49.83022" lon="4.79483">
        <ele>211</ele>
        <time>2022-09-18T07:42:17.000Z</time>
      </trkpt>
      <trkpt lat="49.83024" lon="4.79483">
        <ele>211</ele>
        <time>2022-09-18T07:42:18.000Z</time>
      </trkpt>
      <trkpt lat="49.83026" lon="4.79483">
        <ele>211</ele>
        <time>2022-09-18T07:42:19.000Z</time>
      </trkpt>
      <trkpt lat="49.83027" lon="4.79483">
        <ele>212</ele>
        <time>2022-09-18T07:42:20.000Z</time>
      </trkpt>
      <trkpt lat="49.83029" lon="4.79484">
        <ele>212</ele>
        <time>2022-09-18T07:42:21.000Z</time>
      </trkpt>
      <trkpt lat="49.83031" lon="4.79484">
        <ele>213</ele>
        <time>2022-09-18T07:42:22.000Z</time>
      </trkpt>
      <trkpt lat="49.83033" lon="4.79484">
        <ele>213</ele>
        <time>2022-09-18T07:42:23.000Z</time>
      </trkpt>
      <trkpt lat="49.83034" lon="4.79484">
        <ele>214</ele>
        <time>2022-09-18T07:42:24.000Z</time>
      </trkpt>
      <trkpt lat="49.83036" lon="4.79484">
        <ele>214</ele>
        <time>2022-09-18T07:42:25.000Z</time>
      </trkpt>
      <trkpt lat="49.83038" lon="4.79484">
        <ele>215</ele>
        <time>2022-09-18T07:42:26.000Z</time>
      </trkpt>
      <trkpt lat="49.83039" lon="4.79484">
        <ele>215</ele>
        <time>2022-09-18T07:42:27.000Z</time>
      </trkpt>
      <trkpt lat="49.83042" lon="4.79485">
        <ele>216</ele>
        <time>2022-09-18T07:42:28.000Z</time>
      </trkpt>
      <trkpt lat="49.83044" lon="4.79485">
        <ele>216</ele>
        <time>2022-09-18T07:42:29.000Z</time>
      </trkpt>
      <trkpt lat="49.83046" lon="4.79485">
        <ele>217</ele>
        <time>2022-09-18T07:42:30.000Z</time>
      </trkpt>
      <trkpt lat="49.83048" lon="4.79485">
        <ele>217</ele>
        <time>2022-09-18T07:42:31.000Z</time>
      </trkpt>
      <trkpt lat="49.83051" lon="4.79485">
        <ele>217</ele>
        <time>2022-09-18T07:42:32.000Z</time>
      </trkpt>
      <trkpt lat="49.83053" lon="4.79484">
        <ele>218</ele>
        <time>2022-09-18T07:42:33.000Z</time>
      </trkpt>
      <trkpt lat="49.83055" lon="4.79484">
        <ele>218</ele>
        <time>2022-09-18T07:42:34.000Z</time>
      </trkpt>
      <trkpt lat="49.83057" lon="4.79483">
        <ele>219</ele>
        <time>2022-09-18T07:42:35.000Z</time>
      </trkpt>
      <trkpt lat="49.83059" lon="4.79483">
        <ele>219</ele>
        <time>2022-09-18T07:42:36.000Z</time>
      </trkpt>
      <trkpt lat="49.83062" lon="4.79483">
        <ele>219</ele>
        <time>2022-09-18T07:42:37.000Z</time>
      </trkpt>
      <trkpt lat="49.83064" lon="4.79483">
        <ele>220</ele>
        <time>2022-09-18T07:42:38.000Z</time>
      </trkpt>
      <trkpt lat="49.83066" lon="4.79483">
        <ele>220</ele>
        <time>2022-09-18T07:42:39.000Z</time>
      </trkpt>
      <trkpt lat="49.83068" lon="4.79482">
        <ele>220</ele>
        <time>2022-09-18T07:42:40.000Z</time>
      </trkpt>
      <trkpt lat="49.8307" lon="4.79482">
        <ele>221</ele>
        <time>2022-09-18T07:42:41.000Z</time>
      </trkpt>
      <trkpt lat="49.83071" lon="4.79481">
        <ele>221</ele>
        <time>2022-09-18T07:42:42.000Z</time>
      </trkpt>
      <trkpt lat="49.83072" lon="4.79479">
        <ele>221</ele>
        <time>2022-09-18T07:42:43.000Z</time>
      </trkpt>
      <trkpt lat="49.83073" lon="4.79477">
        <ele>222</ele>
        <time>2022-09-18T07:42:44.000Z</time>
      </trkpt>
      <trkpt lat="49.83072" lon="4.79473">
        <ele>222</ele>
        <time>2022-09-18T07:42:45.000Z</time>
      </trkpt>
      <trkpt lat="49.83072" lon="4.79471">
        <ele>222</ele>
        <time>2022-09-18T07:42:46.000Z</time>
      </trkpt>
      <trkpt lat="49.83071" lon="4.79468">
        <ele>222</ele>
        <time>2022-09-18T07:42:47.000Z</time>
      </trkpt>
      <trkpt lat="49.8307" lon="4.79466">
        <ele>223</ele>
        <time>2022-09-18T07:42:48.000Z</time>
      </trkpt>
      <trkpt lat="49.83068" lon="4.79465">
        <ele>223</ele>
        <time>2022-09-18T07:42:49.000Z</time>
      </trkpt>
      <trkpt lat="49.83065" lon="4.79464">
        <ele>223</ele>
        <time>2022-09-18T07:42:50.000Z</time>
      </trkpt>
      <trkpt lat="49.83063" lon="4.79463">
        <ele>223</ele>
        <time>2022-09-18T07:42:51.000Z</time>
      </trkpt>
      <trkpt lat="49.83061" lon="4.79463">
        <ele>223</ele>
        <time>2022-09-18T07:42:52.000Z</time>
      </trkpt>
      <trkpt lat="49.83058" lon="4.79463">
        <ele>223</ele>
        <time>2022-09-18T07:42:53.000Z</time>
      </trkpt>
      <trkpt lat="49.83055" lon="4.79463">
        <ele>223</ele>
        <time>2022-09-18T07:42:54.000Z</time>
      </trkpt>
      <trkpt lat="49.83052" lon="4.79464">
        <ele>223</ele>
        <time>2022-09-18T07:42:55.000Z</time>
      </trkpt>
      <trkpt lat="49.8305" lon="4.79463">
        <ele>224</ele>
        <time>2022-09-18T07:42:56.000Z</time>
      </trkpt>
      <trkpt lat="49.83047" lon="4.79462">
        <ele>224</ele>
        <time>2022-09-18T07:42:57.000Z</time>
      </trkpt>
      <trkpt lat="49.83044" lon="4.79461">
        <ele>224</ele>
        <time>2022-09-18T07:42:58.000Z</time>
      </trkpt>
      <trkpt lat="49.83041" lon="4.7946">
        <ele>224</ele>
        <time>2022-09-18T07:42:59.000Z</time>
      </trkpt>
      <trkpt lat="49.83038" lon="4.79458">
        <ele>224</ele>
        <time>2022-09-18T07:43:00.000Z</time>
      </trkpt>
      <trkpt lat="49.83036" lon="4.79457">
        <ele>224</ele>
        <time>2022-09-18T07:43:01.000Z</time>
      </trkpt>
      <trkpt lat="49.83033" lon="4.79455">
        <ele>224</ele>
        <time>2022-09-18T07:43:02.000Z</time>
      </trkpt>
      <trkpt lat="49.83031" lon="4.79453">
        <ele>224</ele>
        <time>2022-09-18T07:43:03.000Z</time>
      </trkpt>
      <trkpt lat="49.83029" lon="4.79452">
        <ele>224</ele>
        <time>2022-09-18T07:43:04.000Z</time>
      </trkpt>
      <trkpt lat="49.83027" lon="4.7945">
        <ele>223</ele>
        <time>2022-09-18T07:43:05.000Z</time>
      </trkpt>
      <trkpt lat="49.83026" lon="4.79448">
        <ele>223</ele>
        <time>2022-09-18T07:43:06.000Z</time>
      </trkpt>
      <trkpt lat="49.83024" lon="4.79446">
        <ele>223</ele>
        <time>2022-09-18T07:43:07.000Z</time>
      </trkpt>
      <trkpt lat="49.83022" lon="4.79444">
        <ele>223</ele>
        <time>2022-09-18T07:43:08.000Z</time>
      </trkpt>
      <trkpt lat="49.8302" lon="4.79442">
        <ele>223</ele>
        <time>2022-09-18T07:43:09.000Z</time>
      </trkpt>
      <trkpt lat="49.83019" lon="4.79441">
        <ele>222</ele>
        <time>2022-09-18T07:43:10.000Z</time>
      </trkpt>
      <trkpt lat="49.83017" lon="4.79438">
        <ele>222</ele>
        <time>2022-09-18T07:43:11.000Z</time>
      </trkpt>
      <trkpt lat="49.83016" lon="4.79436">
        <ele>222</ele>
        <time>2022-09-18T07:43:12.000Z</time>
      </trkpt>
      <trkpt lat="49.83014" lon="4.79434">
        <ele>222</ele>
        <time>2022-09-18T07:43:13.000Z</time>
      </trkpt>
      <trkpt lat="49.83012" lon="4.79432">
        <ele>221</ele>
        <time>2022-09-18T07:43:14.000Z</time>
      </trkpt>
      <trkpt lat="49.83011" lon="4.7943">
        <ele>221</ele>
        <time>2022-09-18T07:43:15.000Z</time>
      </trkpt>
      <trkpt lat="49.83009" lon="4.79427">
        <ele>221</ele>
        <time>2022-09-18T07:43:16.000Z</time>
      </trkpt>
      <trkpt lat="49.83008" lon="4.79425">
        <ele>221</ele>
        <time>2022-09-18T07:43:17.000Z</time>
      </trkpt>
      <trkpt lat="49.83006" lon="4.79422">
        <ele>220</ele>
        <time>2022-09-18T07:43:18.000Z</time>
      </trkpt>
      <trkpt lat="49.83004" lon="4.7942">
        <ele>220</ele>
        <time>2022-09-18T07:43:19.000Z</time>
      </trkpt>
      <trkpt lat="49.83002" lon="4.79417">
        <ele>220</ele>
        <time>2022-09-18T07:43:20.000Z</time>
      </trkpt>
      <trkpt lat="49.83" lon="4.79415">
        <ele>220</ele>
        <time>2022-09-18T07:43:21.000Z</time>
      </trkpt>
      <trkpt lat="49.82998" lon="4.79412">
        <ele>220</ele>
        <time>2022-09-18T07:43:22.000Z</time>
      </trkpt>
      <trkpt lat="49.82996" lon="4.7941">
        <ele>220</ele>
        <time>2022-09-18T07:43:23.000Z</time>
      </trkpt>
      <trkpt lat="49.82994" lon="4.79407">
        <ele>220</ele>
        <time>2022-09-18T07:43:24.000Z</time>
      </trkpt>
      <trkpt lat="49.82993" lon="4.79404">
        <ele>220</ele>
        <time>2022-09-18T07:43:25.000Z</time>
      </trkpt>
      <trkpt lat="49.82991" lon="4.79402">
        <ele>220</ele>
        <time>2022-09-18T07:43:26.000Z</time>
      </trkpt>
      <trkpt lat="49.82989" lon="4.79399">
        <ele>220</ele>
        <time>2022-09-18T07:43:27.000Z</time>
      </trkpt>
      <trkpt lat="49.82988" lon="4.79396">
        <ele>221</ele>
        <time>2022-09-18T07:43:28.000Z</time>
      </trkpt>
      <trkpt lat="49.82986" lon="4.79394">
        <ele>221</ele>
        <time>2022-09-18T07:43:29.000Z</time>
      </trkpt>
      <trkpt lat="49.82984" lon="4.79392">
        <ele>221</ele>
        <time>2022-09-18T07:43:30.000Z</time>
      </trkpt>
      <trkpt lat="49.82982" lon="4.79389">
        <ele>221</ele>
        <time>2022-09-18T07:43:31.000Z</time>
      </trkpt>
      <trkpt lat="49.8298" lon="4.79387">
        <ele>221</ele>
        <time>2022-09-18T07:43:32.000Z</time>
      </trkpt>
      <trkpt lat="49.82978" lon="4.79385">
        <ele>222</ele>
        <time>2022-09-18T07:43:33.000Z</time>
      </trkpt>
      <trkpt lat="49.82976" lon="4.79382">
        <ele>222</ele>
        <time>2022-09-18T07:43:34.000Z</time>
      </trkpt>
      <trkpt lat="49.82974" lon="4.7938">
        <ele>222</ele>
        <time>2022-09-18T07:43:35.000Z</time>
      </trkpt>
      <trkpt lat="49.82972" lon="4.79378">
        <ele>222</ele>
        <time>2022-09-18T07:43:36.000Z</time>
      </trkpt>
      <trkpt lat="49.8297" lon="4.79375">
        <ele>222</ele>
        <time>2022-09-18T07:43:37.000Z</time>
      </trkpt>
      <trkpt lat="49.82968" lon="4.79373">
        <ele>223</ele>
        <time>2022-09-18T07:43:38.000Z</time>
      </trkpt>
      <trkpt lat="49.82966" lon="4.79371">
        <ele>223</ele>
        <time>2022-09-18T07:43:39.000Z</time>
      </trkpt>
      <trkpt lat="49.82964" lon="4.79369">
        <ele>223</ele>
        <time>2022-09-18T07:43:40.000Z</time>
      </trkpt>
      <trkpt lat="49.82962" lon="4.79367">
        <ele>223</ele>
        <time>2022-09-18T07:43:41.000Z</time>
      </trkpt>
      <trkpt lat="49.8296" lon="4.79364">
        <ele>223</ele>
        <time>2022-09-18T07:43:42.000Z</time>
      </trkpt>
      <trkpt lat="49.82958" lon="4.79362">
        <ele>224</ele>
        <time>2022-09-18T07:43:43.000Z</time>
      </trkpt>
      <trkpt lat="49.82957" lon="4.79359">
        <ele>224</ele>
        <time>2022-09-18T07:43:44.000Z</time>
      </trkpt>
      <trkpt lat="49.82955" lon="4.79357">
        <ele>224</ele>
        <time>2022-09-18T07:43:45.000Z</time>
      </trkpt>
      <trkpt lat="49.82953" lon="4.79355">
        <ele>224</ele>
        <time>2022-09-18T07:43:46.000Z</time>
      </trkpt>
      <trkpt lat="49.82951" lon="4.79352">
        <ele>224</ele>
        <time>2022-09-18T07:43:47.000Z</time>
      </trkpt>
      <trkpt lat="49.8295" lon="4.79349">
        <ele>225</ele>
        <time>2022-09-18T07:43:48.000Z</time>
      </trkpt>
      <trkpt lat="49.82948" lon="4.79346">
        <ele>225</ele>
        <time>2022-09-18T07:43:49.000Z</time>
      </trkpt>
      <trkpt lat="49.82947" lon="4.79343">
        <ele>225</ele>
        <time>2022-09-18T07:43:50.000Z</time>
      </trkpt>
      <trkpt lat="49.82946" lon="4.7934">
        <ele>225</ele>
        <time>2022-09-18T07:43:51.000Z</time>
      </trkpt>
      <trkpt lat="49.82944" lon="4.79336">
        <ele>225</ele>
        <time>2022-09-18T07:43:52.000Z</time>
      </trkpt>
      <trkpt lat="49.82943" lon="4.79333">
        <ele>226</ele>
        <time>2022-09-18T07:43:53.000Z</time>
      </trkpt>
      <trkpt lat="49.82943" lon="4.79329">
        <ele>226</ele>
        <time>2022-09-18T07:43:54.000Z</time>
      </trkpt>
      <trkpt lat="49.82942" lon="4.79326">
        <ele>226</ele>
        <time>2022-09-18T07:43:55.000Z</time>
      </trkpt>
      <trkpt lat="49.82941" lon="4.79323">
        <ele>226</ele>
        <time>2022-09-18T07:43:56.000Z</time>
      </trkpt>
      <trkpt lat="49.8294" lon="4.7932">
        <ele>226</ele>
        <time>2022-09-18T07:43:57.000Z</time>
      </trkpt>
      <trkpt lat="49.8294" lon="4.79318">
        <ele>227</ele>
        <time>2022-09-18T07:43:58.000Z</time>
      </trkpt>
      <trkpt lat="49.82939" lon="4.79315">
        <ele>227</ele>
        <time>2022-09-18T07:43:59.000Z</time>
      </trkpt>
      <trkpt lat="49.82939" lon="4.79312">
        <ele>227</ele>
        <time>2022-09-18T07:44:00.000Z</time>
      </trkpt>
      <trkpt lat="49.82938" lon="4.79309">
        <ele>227</ele>
        <time>2022-09-18T07:44:01.000Z</time>
      </trkpt>
      <trkpt lat="49.82938" lon="4.79306">
        <ele>227</ele>
        <time>2022-09-18T07:44:02.000Z</time>
      </trkpt>
      <trkpt lat="49.82937" lon="4.79302">
        <ele>228</ele>
        <time>2022-09-18T07:44:03.000Z</time>
      </trkpt>
      <trkpt lat="49.82937" lon="4.79299">
        <ele>228</ele>
        <time>2022-09-18T07:44:04.000Z</time>
      </trkpt>
      <trkpt lat="49.82936" lon="4.79295">
        <ele>229</ele>
        <time>2022-09-18T07:44:05.000Z</time>
      </trkpt>
      <trkpt lat="49.82936" lon="4.79292">
        <ele>229</ele>
        <time>2022-09-18T07:44:06.000Z</time>
      </trkpt>
      <trkpt lat="49.82936" lon="4.79288">
        <ele>229</ele>
        <time>2022-09-18T07:44:07.000Z</time>
      </trkpt>
      <trkpt lat="49.82936" lon="4.79284">
        <ele>230</ele>
        <time>2022-09-18T07:44:08.000Z</time>
      </trkpt>
      <trkpt lat="49.82936" lon="4.79281">
        <ele>230</ele>
        <time>2022-09-18T07:44:09.000Z</time>
      </trkpt>
      <trkpt lat="49.82936" lon="4.79277">
        <ele>231</ele>
        <time>2022-09-18T07:44:10.000Z</time>
      </trkpt>
      <trkpt lat="49.82937" lon="4.79273">
        <ele>231</ele>
        <time>2022-09-18T07:44:11.000Z</time>
      </trkpt>
      <trkpt lat="49.82938" lon="4.79269">
        <ele>231</ele>
        <time>2022-09-18T07:44:12.000Z</time>
      </trkpt>
      <trkpt lat="49.82938" lon="4.79265">
        <ele>232</ele>
        <time>2022-09-18T07:44:13.000Z</time>
      </trkpt>
      <trkpt lat="49.82939" lon="4.79261">
        <ele>232</ele>
        <time>2022-09-18T07:44:14.000Z</time>
      </trkpt>
      <trkpt lat="49.82939" lon="4.79256">
        <ele>232</ele>
        <time>2022-09-18T07:44:15.000Z</time>
      </trkpt>
      <trkpt lat="49.8294" lon="4.79252">
        <ele>232</ele>
        <time>2022-09-18T07:44:16.000Z</time>
      </trkpt>
      <trkpt lat="49.82941" lon="4.79248">
        <ele>233</ele>
        <time>2022-09-18T07:44:17.000Z</time>
      </trkpt>
      <trkpt lat="49.82941" lon="4.79244">
        <ele>233</ele>
        <time>2022-09-18T07:44:18.000Z</time>
      </trkpt>
      <trkpt lat="49.82941" lon="4.7924">
        <ele>233</ele>
        <time>2022-09-18T07:44:19.000Z</time>
      </trkpt>
      <trkpt lat="49.82942" lon="4.79236">
        <ele>233</ele>
        <time>2022-09-18T07:44:20.000Z</time>
      </trkpt>
      <trkpt lat="49.82942" lon="4.79232">
        <ele>234</ele>
        <time>2022-09-18T07:44:21.000Z</time>
      </trkpt>
      <trkpt lat="49.82942" lon="4.79229">
        <ele>234</ele>
        <time>2022-09-18T07:44:22.000Z</time>
      </trkpt>
      <trkpt lat="49.82943" lon="4.79226">
        <ele>234</ele>
        <time>2022-09-18T07:44:23.000Z</time>
      </trkpt>
      <trkpt lat="49.82944" lon="4.79223">
        <ele>234</ele>
        <time>2022-09-18T07:44:24.000Z</time>
      </trkpt>
      <trkpt lat="49.82945" lon="4.79219">
        <ele>235</ele>
        <time>2022-09-18T07:44:25.000Z</time>
      </trkpt>
      <trkpt lat="49.82946" lon="4.79216">
        <ele>235</ele>
        <time>2022-09-18T07:44:26.000Z</time>
      </trkpt>
      <trkpt lat="49.82947" lon="4.79213">
        <ele>235</ele>
        <time>2022-09-18T07:44:27.000Z</time>
      </trkpt>
      <trkpt lat="49.82948" lon="4.79209">
        <ele>235</ele>
        <time>2022-09-18T07:44:28.000Z</time>
      </trkpt>
      <trkpt lat="49.82948" lon="4.79206">
        <ele>235</ele>
        <time>2022-09-18T07:44:29.000Z</time>
      </trkpt>
      <trkpt lat="49.82949" lon="4.79202">
        <ele>236</ele>
        <time>2022-09-18T07:44:30.000Z</time>
      </trkpt>
      <trkpt lat="49.8295" lon="4.79199">
        <ele>236</ele>
        <time>2022-09-18T07:44:31.000Z</time>
      </trkpt>
      <trkpt lat="49.82951" lon="4.79197">
        <ele>236</ele>
        <time>2022-09-18T07:44:32.000Z</time>
      </trkpt>
      <trkpt lat="49.82952" lon="4.79194">
        <ele>236</ele>
        <time>2022-09-18T07:44:33.000Z</time>
      </trkpt>
      <trkpt lat="49.82952" lon="4.79191">
        <ele>237</ele>
        <time>2022-09-18T07:44:34.000Z</time>
      </trkpt>
      <trkpt lat="49.82953" lon="4.79188">
        <ele>237</ele>
        <time>2022-09-18T07:44:35.000Z</time>
      </trkpt>
      <trkpt lat="49.82953" lon="4.79184">
        <ele>238</ele>
        <time>2022-09-18T07:44:36.000Z</time>
      </trkpt>
      <trkpt lat="49.82953" lon="4.79181">
        <ele>238</ele>
        <time>2022-09-18T07:44:37.000Z</time>
      </trkpt>
      <trkpt lat="49.82953" lon="4.79178">
        <ele>238</ele>
        <time>2022-09-18T07:44:38.000Z</time>
      </trkpt>
      <trkpt lat="49.82953" lon="4.79175">
        <ele>239</ele>
        <time>2022-09-18T07:44:39.000Z</time>
      </trkpt>
      <trkpt lat="49.82953" lon="4.79171">
        <ele>239</ele>
        <time>2022-09-18T07:44:40.000Z</time>
      </trkpt>
      <trkpt lat="49.82953" lon="4.79168">
        <ele>239</ele>
        <time>2022-09-18T07:44:41.000Z</time>
      </trkpt>
      <trkpt lat="49.82952" lon="4.79164">
        <ele>240</ele>
        <time>2022-09-18T07:44:42.000Z</time>
      </trkpt>
      <trkpt lat="49.82951" lon="4.79161">
        <ele>240</ele>
        <time>2022-09-18T07:44:43.000Z</time>
      </trkpt>
      <trkpt lat="49.8295" lon="4.79158">
        <ele>241</ele>
        <time>2022-09-18T07:44:44.000Z</time>
      </trkpt>
      <trkpt lat="49.82949" lon="4.79154">
        <ele>241</ele>
        <time>2022-09-18T07:44:45.000Z</time>
      </trkpt>
      <trkpt lat="49.82948" lon="4.79151">
        <ele>241</ele>
        <time>2022-09-18T07:44:46.000Z</time>
      </trkpt>
      <trkpt lat="49.82947" lon="4.79148">
        <ele>242</ele>
        <time>2022-09-18T07:44:47.000Z</time>
      </trkpt>
      <trkpt lat="49.82946" lon="4.79144">
        <ele>242</ele>
        <time>2022-09-18T07:44:48.000Z</time>
      </trkpt>
      <trkpt lat="49.82945" lon="4.79141">
        <ele>243</ele>
        <time>2022-09-18T07:44:49.000Z</time>
      </trkpt>
      <trkpt lat="49.82944" lon="4.79138">
        <ele>243</ele>
        <time>2022-09-18T07:44:50.000Z</time>
      </trkpt>
      <trkpt lat="49.82942" lon="4.79135">
        <ele>243</ele>
        <time>2022-09-18T07:44:51.000Z</time>
      </trkpt>
      <trkpt lat="49.82941" lon="4.79132">
        <ele>243</ele>
        <time>2022-09-18T07:44:52.000Z</time>
      </trkpt>
      <trkpt lat="49.8294" lon="4.79128">
        <ele>244</ele>
        <time>2022-09-18T07:44:53.000Z</time>
      </trkpt>
      <trkpt lat="49.82939" lon="4.79126">
        <ele>244</ele>
        <time>2022-09-18T07:44:54.000Z</time>
      </trkpt>
      <trkpt lat="49.82938" lon="4.79123">
        <ele>244</ele>
        <time>2022-09-18T07:44:55.000Z</time>
      </trkpt>
      <trkpt lat="49.82937" lon="4.79121">
        <ele>244</ele>
        <time>2022-09-18T07:44:56.000Z</time>
      </trkpt>
      <trkpt lat="49.82936" lon="4.79117">
        <ele>245</ele>
        <time>2022-09-18T07:44:57.000Z</time>
      </trkpt>
      <trkpt lat="49.82934" lon="4.79114">
        <ele>245</ele>
        <time>2022-09-18T07:44:58.000Z</time>
      </trkpt>
      <trkpt lat="49.82933" lon="4.7911">
        <ele>245</ele>
        <time>2022-09-18T07:44:59.000Z</time>
      </trkpt>
      <trkpt lat="49.82932" lon="4.79107">
        <ele>245</ele>
        <time>2022-09-18T07:45:00.000Z</time>
      </trkpt>
      <trkpt lat="49.8293" lon="4.79104">
        <ele>245</ele>
        <time>2022-09-18T07:45:01.000Z</time>
      </trkpt>
      <trkpt lat="49.82928" lon="4.79101">
        <ele>246</ele>
        <time>2022-09-18T07:45:02.000Z</time>
      </trkpt>
      <trkpt lat="49.82926" lon="4.79098">
        <ele>246</ele>
        <time>2022-09-18T07:45:03.000Z</time>
      </trkpt>
      <trkpt lat="49.82923" lon="4.79095">
        <ele>246</ele>
        <time>2022-09-18T07:45:04.000Z</time>
      </trkpt>
      <trkpt lat="49.82921" lon="4.79092">
        <ele>246</ele>
        <time>2022-09-18T07:45:05.000Z</time>
      </trkpt>
      <trkpt lat="49.82918" lon="4.7909">
        <ele>246</ele>
        <time>2022-09-18T07:45:06.000Z</time>
      </trkpt>
      <trkpt lat="49.82915" lon="4.79087">
        <ele>246</ele>
        <time>2022-09-18T07:45:07.000Z</time>
      </trkpt>
      <trkpt lat="49.82912" lon="4.79084">
        <ele>246</ele>
        <time>2022-09-18T07:45:08.000Z</time>
      </trkpt>
      <trkpt lat="49.82909" lon="4.79081">
        <ele>246</ele>
        <time>2022-09-18T07:45:09.000Z</time>
      </trkpt>
      <trkpt lat="49.82906" lon="4.79078">
        <ele>246</ele>
        <time>2022-09-18T07:45:10.000Z</time>
      </trkpt>
      <trkpt lat="49.82903" lon="4.79074">
        <ele>246</ele>
        <time>2022-09-18T07:45:11.000Z</time>
      </trkpt>
      <trkpt lat="49.829" lon="4.79071">
        <ele>246</ele>
        <time>2022-09-18T07:45:12.000Z</time>
      </trkpt>
      <trkpt lat="49.82897" lon="4.79068">
        <ele>246</ele>
        <time>2022-09-18T07:45:13.000Z</time>
      </trkpt>
      <trkpt lat="49.82895" lon="4.79065">
        <ele>246</ele>
        <time>2022-09-18T07:45:14.000Z</time>
      </trkpt>
      <trkpt lat="49.82892" lon="4.79063">
        <ele>246</ele>
        <time>2022-09-18T07:45:15.000Z</time>
      </trkpt>
      <trkpt lat="49.8289" lon="4.79061">
        <ele>246</ele>
        <time>2022-09-18T07:45:16.000Z</time>
      </trkpt>
      <trkpt lat="49.82888" lon="4.79059">
        <ele>246</ele>
        <time>2022-09-18T07:45:17.000Z</time>
      </trkpt>
      <trkpt lat="49.82885" lon="4.79056">
        <ele>247</ele>
        <time>2022-09-18T07:45:18.000Z</time>
      </trkpt>
      <trkpt lat="49.82882" lon="4.79053">
        <ele>247</ele>
        <time>2022-09-18T07:45:19.000Z</time>
      </trkpt>
      <trkpt lat="49.8288" lon="4.7905">
        <ele>247</ele>
        <time>2022-09-18T07:45:20.000Z</time>
      </trkpt>
      <trkpt lat="49.82877" lon="4.79048">
        <ele>247</ele>
        <time>2022-09-18T07:45:21.000Z</time>
      </trkpt>
      <trkpt lat="49.82875" lon="4.79045">
        <ele>248</ele>
        <time>2022-09-18T07:45:22.000Z</time>
      </trkpt>
      <trkpt lat="49.82873" lon="4.79042">
        <ele>248</ele>
        <time>2022-09-18T07:45:23.000Z</time>
      </trkpt>
      <trkpt lat="49.82871" lon="4.7904">
        <ele>248</ele>
        <time>2022-09-18T07:45:24.000Z</time>
      </trkpt>
      <trkpt lat="49.82869" lon="4.79037">
        <ele>248</ele>
        <time>2022-09-18T07:45:25.000Z</time>
      </trkpt>
      <trkpt lat="49.82867" lon="4.79035">
        <ele>248</ele>
        <time>2022-09-18T07:45:26.000Z</time>
      </trkpt>
      <trkpt lat="49.82865" lon="4.79032">
        <ele>248</ele>
        <time>2022-09-18T07:45:27.000Z</time>
      </trkpt>
      <trkpt lat="49.82864" lon="4.79029">
        <ele>248</ele>
        <time>2022-09-18T07:45:28.000Z</time>
      </trkpt>
      <trkpt lat="49.82862" lon="4.79026">
        <ele>248</ele>
        <time>2022-09-18T07:45:29.000Z</time>
      </trkpt>
      <trkpt lat="49.8286" lon="4.79023">
        <ele>248</ele>
        <time>2022-09-18T07:45:30.000Z</time>
      </trkpt>
      <trkpt lat="49.82859" lon="4.7902">
        <ele>248</ele>
        <time>2022-09-18T07:45:31.000Z</time>
      </trkpt>
      <trkpt lat="49.82857" lon="4.79017">
        <ele>248</ele>
        <time>2022-09-18T07:45:32.000Z</time>
      </trkpt>
      <trkpt lat="49.82855" lon="4.79015">
        <ele>248</ele>
        <time>2022-09-18T07:45:33.000Z</time>
      </trkpt>
      <trkpt lat="49.82854" lon="4.79012">
        <ele>248</ele>
        <time>2022-09-18T07:45:34.000Z</time>
      </trkpt>
      <trkpt lat="49.82853" lon="4.79009">
        <ele>249</ele>
        <time>2022-09-18T07:45:35.000Z</time>
      </trkpt>
      <trkpt lat="49.82852" lon="4.79006">
        <ele>249</ele>
        <time>2022-09-18T07:45:36.000Z</time>
      </trkpt>
      <trkpt lat="49.82851" lon="4.79002">
        <ele>249</ele>
        <time>2022-09-18T07:45:37.000Z</time>
      </trkpt>
      <trkpt lat="49.8285" lon="4.78999">
        <ele>249</ele>
        <time>2022-09-18T07:45:38.000Z</time>
      </trkpt>
      <trkpt lat="49.8285" lon="4.78995">
        <ele>249</ele>
        <time>2022-09-18T07:45:39.000Z</time>
      </trkpt>
      <trkpt lat="49.82851" lon="4.78992">
        <ele>249</ele>
        <time>2022-09-18T07:45:40.000Z</time>
      </trkpt>
      <trkpt lat="49.82851" lon="4.78989">
        <ele>249</ele>
        <time>2022-09-18T07:45:41.000Z</time>
      </trkpt>
      <trkpt lat="49.82852" lon="4.78985">
        <ele>249</ele>
        <time>2022-09-18T07:45:42.000Z</time>
      </trkpt>
      <trkpt lat="49.82852" lon="4.78983">
        <ele>250</ele>
        <time>2022-09-18T07:45:43.000Z</time>
      </trkpt>
      <trkpt lat="49.82854" lon="4.7898">
        <ele>250</ele>
        <time>2022-09-18T07:45:44.000Z</time>
      </trkpt>
      <trkpt lat="49.82855" lon="4.78978">
        <ele>250</ele>
        <time>2022-09-18T07:45:45.000Z</time>
      </trkpt>
      <trkpt lat="49.82856" lon="4.78976">
        <ele>250</ele>
        <time>2022-09-18T07:45:46.000Z</time>
      </trkpt>
      <trkpt lat="49.82858" lon="4.78974">
        <ele>250</ele>
        <time>2022-09-18T07:45:47.000Z</time>
      </trkpt>
      <trkpt lat="49.82859" lon="4.78973">
        <ele>250</ele>
        <time>2022-09-18T07:45:48.000Z</time>
      </trkpt>
      <trkpt lat="49.82861" lon="4.78972">
        <ele>251</ele>
        <time>2022-09-18T07:45:49.000Z</time>
      </trkpt>
      <trkpt lat="49.82862" lon="4.78972">
        <ele>251</ele>
        <time>2022-09-18T07:45:50.000Z</time>
      </trkpt>
      <trkpt lat="49.82864" lon="4.78971">
        <ele>251</ele>
        <time>2022-09-18T07:45:51.000Z</time>
      </trkpt>
      <trkpt lat="49.82866" lon="4.7897">
        <ele>251</ele>
        <time>2022-09-18T07:45:52.000Z</time>
      </trkpt>
      <trkpt lat="49.82868" lon="4.7897">
        <ele>252</ele>
        <time>2022-09-18T07:45:53.000Z</time>
      </trkpt>
      <trkpt lat="49.8287" lon="4.78971">
        <ele>252</ele>
        <time>2022-09-18T07:45:54.000Z</time>
      </trkpt>
      <trkpt lat="49.82872" lon="4.78971">
        <ele>252</ele>
        <time>2022-09-18T07:45:55.000Z</time>
      </trkpt>
      <trkpt lat="49.82873" lon="4.78972">
        <ele>253</ele>
        <time>2022-09-18T07:45:56.000Z</time>
      </trkpt>
      <trkpt lat="49.82875" lon="4.78974">
        <ele>253</ele>
        <time>2022-09-18T07:45:57.000Z</time>
      </trkpt>
      <trkpt lat="49.82877" lon="4.78976">
        <ele>253</ele>
        <time>2022-09-18T07:45:58.000Z</time>
      </trkpt>
      <trkpt lat="49.82879" lon="4.78978">
        <ele>253</ele>
        <time>2022-09-18T07:45:59.000Z</time>
      </trkpt>
      <trkpt lat="49.82881" lon="4.7898">
        <ele>254</ele>
        <time>2022-09-18T07:46:00.000Z</time>
      </trkpt>
      <trkpt lat="49.82883" lon="4.78982">
        <ele>254</ele>
        <time>2022-09-18T07:46:01.000Z</time>
      </trkpt>
      <trkpt lat="49.82885" lon="4.78985">
        <ele>254</ele>
        <time>2022-09-18T07:46:02.000Z</time>
      </trkpt>
      <trkpt lat="49.82886" lon="4.78986">
        <ele>254</ele>
        <time>2022-09-18T07:46:03.000Z</time>
      </trkpt>
      <trkpt lat="49.82888" lon="4.78989">
        <ele>254</ele>
        <time>2022-09-18T07:46:04.000Z</time>
      </trkpt>
      <trkpt lat="49.8289" lon="4.78991">
        <ele>255</ele>
        <time>2022-09-18T07:46:05.000Z</time>
      </trkpt>
      <trkpt lat="49.82893" lon="4.78994">
        <ele>255</ele>
        <time>2022-09-18T07:46:06.000Z</time>
      </trkpt>
      <trkpt lat="49.82895" lon="4.78996">
        <ele>255</ele>
        <time>2022-09-18T07:46:07.000Z</time>
      </trkpt>
      <trkpt lat="49.82898" lon="4.78998">
        <ele>255</ele>
        <time>2022-09-18T07:46:08.000Z</time>
      </trkpt>
      <trkpt lat="49.829" lon="4.78999">
        <ele>256</ele>
        <time>2022-09-18T07:46:09.000Z</time>
      </trkpt>
      <trkpt lat="49.82902" lon="4.79001">
        <ele>256</ele>
        <time>2022-09-18T07:46:10.000Z</time>
      </trkpt>
      <trkpt lat="49.82904" lon="4.79003">
        <ele>256</ele>
        <time>2022-09-18T07:46:11.000Z</time>
      </trkpt>
      <trkpt lat="49.82906" lon="4.79005">
        <ele>257</ele>
        <time>2022-09-18T07:46:12.000Z</time>
      </trkpt>
      <trkpt lat="49.82907" lon="4.79007">
        <ele>257</ele>
        <time>2022-09-18T07:46:13.000Z</time>
      </trkpt>
      <trkpt lat="49.82909" lon="4.79009">
        <ele>257</ele>
        <time>2022-09-18T07:46:14.000Z</time>
      </trkpt>
      <trkpt lat="49.82911" lon="4.7901">
        <ele>257</ele>
        <time>2022-09-18T07:46:15.000Z</time>
      </trkpt>
      <trkpt lat="49.82913" lon="4.79013">
        <ele>257</ele>
        <time>2022-09-18T07:46:16.000Z</time>
      </trkpt>
      <trkpt lat="49.82915" lon="4.79015">
        <ele>257</ele>
        <time>2022-09-18T07:46:17.000Z</time>
      </trkpt>
      <trkpt lat="49.82917" lon="4.79017">
        <ele>258</ele>
        <time>2022-09-18T07:46:18.000Z</time>
      </trkpt>
      <trkpt lat="49.82919" lon="4.79019">
        <ele>258</ele>
        <time>2022-09-18T07:46:19.000Z</time>
      </trkpt>
      <trkpt lat="49.82922" lon="4.79021">
        <ele>258</ele>
        <time>2022-09-18T07:46:20.000Z</time>
      </trkpt>
      <trkpt lat="49.82924" lon="4.79023">
        <ele>258</ele>
        <time>2022-09-18T07:46:21.000Z</time>
      </trkpt>
      <trkpt lat="49.82927" lon="4.79025">
        <ele>258</ele>
        <time>2022-09-18T07:46:22.000Z</time>
      </trkpt>
      <trkpt lat="49.82929" lon="4.79027">
        <ele>258</ele>
        <time>2022-09-18T07:46:23.000Z</time>
      </trkpt>
      <trkpt lat="49.82931" lon="4.7903">
        <ele>258</ele>
        <time>2022-09-18T07:46:24.000Z</time>
      </trkpt>
      <trkpt lat="49.82934" lon="4.79032">
        <ele>257</ele>
        <time>2022-09-18T07:46:25.000Z</time>
      </trkpt>
      <trkpt lat="49.82936" lon="4.79034">
        <ele>257</ele>
        <time>2022-09-18T07:46:26.000Z</time>
      </trkpt>
      <trkpt lat="49.82938" lon="4.79037">
        <ele>257</ele>
        <time>2022-09-18T07:46:27.000Z</time>
      </trkpt>
      <trkpt lat="49.8294" lon="4.79039">
        <ele>257</ele>
        <time>2022-09-18T07:46:28.000Z</time>
      </trkpt>
      <trkpt lat="49.82943" lon="4.79042">
        <ele>257</ele>
        <time>2022-09-18T07:46:29.000Z</time>
      </trkpt>
      <trkpt lat="49.82945" lon="4.79044">
        <ele>257</ele>
        <time>2022-09-18T07:46:30.000Z</time>
      </trkpt>
      <trkpt lat="49.82947" lon="4.79046">
        <ele>257</ele>
        <time>2022-09-18T07:46:31.000Z</time>
      </trkpt>
      <trkpt lat="49.82949" lon="4.79048">
        <ele>257</ele>
        <time>2022-09-18T07:46:32.000Z</time>
      </trkpt>
      <trkpt lat="49.82952" lon="4.7905">
        <ele>258</ele>
        <time>2022-09-18T07:46:33.000Z</time>
      </trkpt>
      <trkpt lat="49.82954" lon="4.79052">
        <ele>258</ele>
        <time>2022-09-18T07:46:34.000Z</time>
      </trkpt>
      <trkpt lat="49.82956" lon="4.79054">
        <ele>258</ele>
        <time>2022-09-18T07:46:35.000Z</time>
      </trkpt>
      <trkpt lat="49.82959" lon="4.79056">
        <ele>258</ele>
        <time>2022-09-18T07:46:36.000Z</time>
      </trkpt>
      <trkpt lat="49.82961" lon="4.79059">
        <ele>258</ele>
        <time>2022-09-18T07:46:37.000Z</time>
      </trkpt>
      <trkpt lat="49.82962" lon="4.79061">
        <ele>259</ele>
        <time>2022-09-18T07:46:38.000Z</time>
      </trkpt>
      <trkpt lat="49.82964" lon="4.79063">
        <ele>259</ele>
        <time>2022-09-18T07:46:39.000Z</time>
      </trkpt>
      <trkpt lat="49.82967" lon="4.79065">
        <ele>259</ele>
        <time>2022-09-18T07:46:40.000Z</time>
      </trkpt>
      <trkpt lat="49.82969" lon="4.79067">
        <ele>259</ele>
        <time>2022-09-18T07:46:41.000Z</time>
      </trkpt>
      <trkpt lat="49.82971" lon="4.79069">
        <ele>259</ele>
        <time>2022-09-18T07:46:42.000Z</time>
      </trkpt>
      <trkpt lat="49.82973" lon="4.79071">
        <ele>259</ele>
        <time>2022-09-18T07:46:43.000Z</time>
      </trkpt>
      <trkpt lat="49.82975" lon="4.79073">
        <ele>260</ele>
        <time>2022-09-18T07:46:44.000Z</time>
      </trkpt>
      <trkpt lat="49.82977" lon="4.79075">
        <ele>260</ele>
        <time>2022-09-18T07:46:45.000Z</time>
      </trkpt>
      <trkpt lat="49.82979" lon="4.79078">
        <ele>260</ele>
        <time>2022-09-18T07:46:46.000Z</time>
      </trkpt>
      <trkpt lat="49.82981" lon="4.7908">
        <ele>260</ele>
        <time>2022-09-18T07:46:47.000Z</time>
      </trkpt>
      <trkpt lat="49.82983" lon="4.79082">
        <ele>260</ele>
        <time>2022-09-18T07:46:48.000Z</time>
      </trkpt>
      <trkpt lat="49.82985" lon="4.79084">
        <ele>261</ele>
        <time>2022-09-18T07:46:49.000Z</time>
      </trkpt>
      <trkpt lat="49.82986" lon="4.79086">
        <ele>261</ele>
        <time>2022-09-18T07:46:50.000Z</time>
      </trkpt>
      <trkpt lat="49.82988" lon="4.79088">
        <ele>261</ele>
        <time>2022-09-18T07:46:51.000Z</time>
      </trkpt>
      <trkpt lat="49.8299" lon="4.79089">
        <ele>261</ele>
        <time>2022-09-18T07:46:52.000Z</time>
      </trkpt>
      <trkpt lat="49.82992" lon="4.79091">
        <ele>261</ele>
        <time>2022-09-18T07:46:53.000Z</time>
      </trkpt>
      <trkpt lat="49.82994" lon="4.79092">
        <ele>262</ele>
        <time>2022-09-18T07:46:54.000Z</time>
      </trkpt>
      <trkpt lat="49.82996" lon="4.79094">
        <ele>262</ele>
        <time>2022-09-18T07:46:55.000Z</time>
      </trkpt>
      <trkpt lat="49.82998" lon="4.79095">
        <ele>262</ele>
        <time>2022-09-18T07:46:56.000Z</time>
      </trkpt>
      <trkpt lat="49.83" lon="4.79096">
        <ele>262</ele>
        <time>2022-09-18T07:46:57.000Z</time>
      </trkpt>
      <trkpt lat="49.83002" lon="4.79097">
        <ele>262</ele>
        <time>2022-09-18T07:46:58.000Z</time>
      </trkpt>
      <trkpt lat="49.83004" lon="4.79098">
        <ele>263</ele>
        <time>2022-09-18T07:46:59.000Z</time>
      </trkpt>
      <trkpt lat="49.83006" lon="4.79098">
        <ele>263</ele>
        <time>2022-09-18T07:47:00.000Z</time>
      </trkpt>
      <trkpt lat="49.83008" lon="4.79099">
        <ele>263</ele>
        <time>2022-09-18T07:47:01.000Z</time>
      </trkpt>
      <trkpt lat="49.8301" lon="4.79099">
        <ele>264</ele>
        <time>2022-09-18T07:47:02.000Z</time>
      </trkpt>
      <trkpt lat="49.83011" lon="4.791">
        <ele>264</ele>
        <time>2022-09-18T07:47:03.000Z</time>
      </trkpt>
      <trkpt lat="49.83013" lon="4.79101">
        <ele>264</ele>
        <time>2022-09-18T07:47:04.000Z</time>
      </trkpt>
      <trkpt lat="49.83016" lon="4.79101">
        <ele>264</ele>
        <time>2022-09-18T07:47:05.000Z</time>
      </trkpt>
      <trkpt lat="49.83018" lon="4.79102">
        <ele>265</ele>
        <time>2022-09-18T07:47:06.000Z</time>
      </trkpt>
      <trkpt lat="49.8302" lon="4.79103">
        <ele>265</ele>
        <time>2022-09-18T07:47:07.000Z</time>
      </trkpt>
      <trkpt lat="49.83023" lon="4.79104">
        <ele>265</ele>
        <time>2022-09-18T07:47:08.000Z</time>
      </trkpt>
      <trkpt lat="49.83025" lon="4.79105">
        <ele>266</ele>
        <time>2022-09-18T07:47:09.000Z</time>
      </trkpt>
      <trkpt lat="49.83028" lon="4.79106">
        <ele>266</ele>
        <time>2022-09-18T07:47:10.000Z</time>
      </trkpt>
      <trkpt lat="49.8303" lon="4.79107">
        <ele>266</ele>
        <time>2022-09-18T07:47:11.000Z</time>
      </trkpt>
      <trkpt lat="49.83033" lon="4.7911">
        <ele>266</ele>
        <time>2022-09-18T07:47:12.000Z</time>
      </trkpt>
      <trkpt lat="49.83035" lon="4.79112">
        <ele>267</ele>
        <time>2022-09-18T07:47:13.000Z</time>
      </trkpt>
      <trkpt lat="49.83038" lon="4.79114">
        <ele>267</ele>
        <time>2022-09-18T07:47:14.000Z</time>
      </trkpt>
      <trkpt lat="49.8304" lon="4.79116">
        <ele>267</ele>
        <time>2022-09-18T07:47:15.000Z</time>
      </trkpt>
      <trkpt lat="49.83043" lon="4.7912">
        <ele>267</ele>
        <time>2022-09-18T07:47:16.000Z</time>
      </trkpt>
      <trkpt lat="49.83045" lon="4.79123">
        <ele>268</ele>
        <time>2022-09-18T07:47:17.000Z</time>
      </trkpt>
      <trkpt lat="49.83047" lon="4.79126">
        <ele>268</ele>
        <time>2022-09-18T07:47:18.000Z</time>
      </trkpt>
      <trkpt lat="49.83049" lon="4.7913">
        <ele>268</ele>
        <time>2022-09-18T07:47:19.000Z</time>
      </trkpt>
      <trkpt lat="49.83051" lon="4.79133">
        <ele>268</ele>
        <time>2022-09-18T07:47:20.000Z</time>
      </trkpt>
      <trkpt lat="49.83052" lon="4.79137">
        <ele>269</ele>
        <time>2022-09-18T07:47:21.000Z</time>
      </trkpt>
      <trkpt lat="49.83054" lon="4.79141">
        <ele>269</ele>
        <time>2022-09-18T07:47:22.000Z</time>
      </trkpt>
      <trkpt lat="49.83055" lon="4.79145">
        <ele>269</ele>
        <time>2022-09-18T07:47:23.000Z</time>
      </trkpt>
      <trkpt lat="49.83057" lon="4.79149">
        <ele>270</ele>
        <time>2022-09-18T07:47:24.000Z</time>
      </trkpt>
      <trkpt lat="49.83058" lon="4.79154">
        <ele>270</ele>
        <time>2022-09-18T07:47:25.000Z</time>
      </trkpt>
      <trkpt lat="49.8306" lon="4.79158">
        <ele>270</ele>
        <time>2022-09-18T07:47:26.000Z</time>
      </trkpt>
      <trkpt lat="49.83061" lon="4.79162">
        <ele>271</ele>
        <time>2022-09-18T07:47:27.000Z</time>
      </trkpt>
      <trkpt lat="49.83062" lon="4.79166">
        <ele>271</ele>
        <time>2022-09-18T07:47:28.000Z</time>
      </trkpt>
      <trkpt lat="49.83063" lon="4.79171">
        <ele>271</ele>
        <time>2022-09-18T07:47:29.000Z</time>
      </trkpt>
      <trkpt lat="49.83064" lon="4.79174">
        <ele>272</ele>
        <time>2022-09-18T07:47:30.000Z</time>
      </trkpt>
      <trkpt lat="49.83065" lon="4.79178">
        <ele>272</ele>
        <time>2022-09-18T07:47:31.000Z</time>
      </trkpt>
      <trkpt lat="49.83066" lon="4.79181">
        <ele>272</ele>
        <time>2022-09-18T07:47:32.000Z</time>
      </trkpt>
      <trkpt lat="49.83068" lon="4.79185">
        <ele>273</ele>
        <time>2022-09-18T07:47:33.000Z</time>
      </trkpt>
      <trkpt lat="49.83069" lon="4.79187">
        <ele>273</ele>
        <time>2022-09-18T07:47:34.000Z</time>
      </trkpt>
      <trkpt lat="49.8307" lon="4.7919">
        <ele>273</ele>
        <time>2022-09-18T07:47:35.000Z</time>
      </trkpt>
      <trkpt lat="49.83071" lon="4.79192">
        <ele>273</ele>
        <time>2022-09-18T07:47:36.000Z</time>
      </trkpt>
      <trkpt lat="49.83072" lon="4.79195">
        <ele>274</ele>
        <time>2022-09-18T07:47:37.000Z</time>
      </trkpt>
      <trkpt lat="49.83074" lon="4.79197">
        <ele>274</ele>
        <time>2022-09-18T07:47:38.000Z</time>
      </trkpt>
      <trkpt lat="49.83075" lon="4.792">
        <ele>274</ele>
        <time>2022-09-18T07:47:39.000Z</time>
      </trkpt>
      <trkpt lat="49.83076" lon="4.79202">
        <ele>274</ele>
        <time>2022-09-18T07:47:40.000Z</time>
      </trkpt>
      <trkpt lat="49.83078" lon="4.79205">
        <ele>275</ele>
        <time>2022-09-18T07:47:41.000Z</time>
      </trkpt>
      <trkpt lat="49.83079" lon="4.79207">
        <ele>275</ele>
        <time>2022-09-18T07:47:42.000Z</time>
      </trkpt>
      <trkpt lat="49.8308" lon="4.79209">
        <ele>275</ele>
        <time>2022-09-18T07:47:43.000Z</time>
      </trkpt>
      <trkpt lat="49.83081" lon="4.7921">
        <ele>275</ele>
        <time>2022-09-18T07:47:44.000Z</time>
      </trkpt>
      <trkpt lat="49.83083" lon="4.79211">
        <ele>276</ele>
        <time>2022-09-18T07:47:45.000Z</time>
      </trkpt>
      <trkpt lat="49.83085" lon="4.79212">
        <ele>276</ele>
        <time>2022-09-18T07:47:46.000Z</time>
      </trkpt>
      <trkpt lat="49.83088" lon="4.79212">
        <ele>276</ele>
        <time>2022-09-18T07:47:47.000Z</time>
      </trkpt>
      <trkpt lat="49.8309" lon="4.79212">
        <ele>276</ele>
        <time>2022-09-18T07:47:48.000Z</time>
      </trkpt>
      <trkpt lat="49.83093" lon="4.79212">
        <ele>277</ele>
        <time>2022-09-18T07:47:49.000Z</time>
      </trkpt>
      <trkpt lat="49.83095" lon="4.79211">
        <ele>277</ele>
        <time>2022-09-18T07:47:50.000Z</time>
      </trkpt>
      <trkpt lat="49.83098" lon="4.79211">
        <ele>277</ele>
        <time>2022-09-18T07:47:51.000Z</time>
      </trkpt>
      <trkpt lat="49.83101" lon="4.7921">
        <ele>278</ele>
        <time>2022-09-18T07:47:52.000Z</time>
      </trkpt>
      <trkpt lat="49.83104" lon="4.79209">
        <ele>278</ele>
        <time>2022-09-18T07:47:53.000Z</time>
      </trkpt>
      <trkpt lat="49.83106" lon="4.79209">
        <ele>278</ele>
        <time>2022-09-18T07:47:54.000Z</time>
      </trkpt>
      <trkpt lat="49.83109" lon="4.79209">
        <ele>279</ele>
        <time>2022-09-18T07:47:55.000Z</time>
      </trkpt>
      <trkpt lat="49.83112" lon="4.7921">
        <ele>279</ele>
        <time>2022-09-18T07:47:56.000Z</time>
      </trkpt>
      <trkpt lat="49.83115" lon="4.79211">
        <ele>280</ele>
        <time>2022-09-18T07:47:57.000Z</time>
      </trkpt>
      <trkpt lat="49.83118" lon="4.79211">
        <ele>280</ele>
        <time>2022-09-18T07:47:58.000Z</time>
      </trkpt>
      <trkpt lat="49.8312" lon="4.79212">
        <ele>280</ele>
        <time>2022-09-18T07:47:59.000Z</time>
      </trkpt>
      <trkpt lat="49.83123" lon="4.79213">
        <ele>281</ele>
        <time>2022-09-18T07:48:00.000Z</time>
      </trkpt>
      <trkpt lat="49.83125" lon="4.79214">
        <ele>281</ele>
        <time>2022-09-18T07:48:01.000Z</time>
      </trkpt>
      <trkpt lat="49.83128" lon="4.79215">
        <ele>281</ele>
        <time>2022-09-18T07:48:02.000Z</time>
      </trkpt>
      <trkpt lat="49.8313" lon="4.79216">
        <ele>282</ele>
        <time>2022-09-18T07:48:03.000Z</time>
      </trkpt>
      <trkpt lat="49.83133" lon="4.79217">
        <ele>282</ele>
        <time>2022-09-18T07:48:04.000Z</time>
      </trkpt>
      <trkpt lat="49.83135" lon="4.79219">
        <ele>282</ele>
        <time>2022-09-18T07:48:05.000Z</time>
      </trkpt>
      <trkpt lat="49.83137" lon="4.79219">
        <ele>282</ele>
        <time>2022-09-18T07:48:06.000Z</time>
      </trkpt>
      <trkpt lat="49.8314" lon="4.7922">
        <ele>283</ele>
        <time>2022-09-18T07:48:07.000Z</time>
      </trkpt>
      <trkpt lat="49.83142" lon="4.7922">
        <ele>283</ele>
        <time>2022-09-18T07:48:08.000Z</time>
      </trkpt>
      <trkpt lat="49.83145" lon="4.7922">
        <ele>283</ele>
        <time>2022-09-18T07:48:09.000Z</time>
      </trkpt>
      <trkpt lat="49.83147" lon="4.7922">
        <ele>283</ele>
        <time>2022-09-18T07:48:10.000Z</time>
      </trkpt>
      <trkpt lat="49.8315" lon="4.79221">
        <ele>284</ele>
        <time>2022-09-18T07:48:11.000Z</time>
      </trkpt>
      <trkpt lat="49.83152" lon="4.79222">
        <ele>284</ele>
        <time>2022-09-18T07:48:12.000Z</time>
      </trkpt>
      <trkpt lat="49.83154" lon="4.79222">
        <ele>284</ele>
        <time>2022-09-18T07:48:13.000Z</time>
      </trkpt>
      <trkpt lat="49.83156" lon="4.79222">
        <ele>284</ele>
        <time>2022-09-18T07:48:14.000Z</time>
      </trkpt>
      <trkpt lat="49.83158" lon="4.79222">
        <ele>285</ele>
        <time>2022-09-18T07:48:15.000Z</time>
      </trkpt>
      <trkpt lat="49.8316" lon="4.79222">
        <ele>285</ele>
        <time>2022-09-18T07:48:16.000Z</time>
      </trkpt>
      <trkpt lat="49.83163" lon="4.79222">
        <ele>285</ele>
        <time>2022-09-18T07:48:17.000Z</time>
      </trkpt>
      <trkpt lat="49.83165" lon="4.79221">
        <ele>286</ele>
        <time>2022-09-18T07:48:18.000Z</time>
      </trkpt>
      <trkpt lat="49.83167" lon="4.7922">
        <ele>286</ele>
        <time>2022-09-18T07:48:19.000Z</time>
      </trkpt>
      <trkpt lat="49.83169" lon="4.79219">
        <ele>286</ele>
        <time>2022-09-18T07:48:20.000Z</time>
      </trkpt>
      <trkpt lat="49.83171" lon="4.79219">
        <ele>287</ele>
        <time>2022-09-18T07:48:21.000Z</time>
      </trkpt>
      <trkpt lat="49.83173" lon="4.79218">
        <ele>287</ele>
        <time>2022-09-18T07:48:22.000Z</time>
      </trkpt>
      <trkpt lat="49.83175" lon="4.79218">
        <ele>288</ele>
        <time>2022-09-18T07:48:23.000Z</time>
      </trkpt>
      <trkpt lat="49.83177" lon="4.79218">
        <ele>288</ele>
        <time>2022-09-18T07:48:24.000Z</time>
      </trkpt>
      <trkpt lat="49.83179" lon="4.79217">
        <ele>288</ele>
        <time>2022-09-18T07:48:25.000Z</time>
      </trkpt>
      <trkpt lat="49.83181" lon="4.79216">
        <ele>289</ele>
        <time>2022-09-18T07:48:26.000Z</time>
      </trkpt>
      <trkpt lat="49.83184" lon="4.79215">
        <ele>289</ele>
        <time>2022-09-18T07:48:27.000Z</time>
      </trkpt>
      <trkpt lat="49.83186" lon="4.79213">
        <ele>289</ele>
        <time>2022-09-18T07:48:28.000Z</time>
      </trkpt>
      <trkpt lat="49.83188" lon="4.7921">
        <ele>289</ele>
        <time>2022-09-18T07:48:29.000Z</time>
      </trkpt>
      <trkpt lat="49.8319" lon="4.79207">
        <ele>290</ele>
        <time>2022-09-18T07:48:30.000Z</time>
      </trkpt>
      <trkpt lat="49.83192" lon="4.79204">
        <ele>290</ele>
        <time>2022-09-18T07:48:31.000Z</time>
      </trkpt>
      <trkpt lat="49.83194" lon="4.79201">
        <ele>290</ele>
        <time>2022-09-18T07:48:32.000Z</time>
      </trkpt>
      <trkpt lat="49.83195" lon="4.79198">
        <ele>290</ele>
        <time>2022-09-18T07:48:33.000Z</time>
      </trkpt>
      <trkpt lat="49.83197" lon="4.79194">
        <ele>290</ele>
        <time>2022-09-18T07:48:34.000Z</time>
      </trkpt>
      <trkpt lat="49.83198" lon="4.7919">
        <ele>290</ele>
        <time>2022-09-18T07:48:35.000Z</time>
      </trkpt>
      <trkpt lat="49.832" lon="4.79186">
        <ele>289</ele>
        <time>2022-09-18T07:48:36.000Z</time>
      </trkpt>
      <trkpt lat="49.83201" lon="4.79182">
        <ele>289</ele>
        <time>2022-09-18T07:48:37.000Z</time>
      </trkpt>
      <trkpt lat="49.83202" lon="4.79178">
        <ele>289</ele>
        <time>2022-09-18T07:48:38.000Z</time>
      </trkpt>
      <trkpt lat="49.83203" lon="4.79174">
        <ele>290</ele>
        <time>2022-09-18T07:48:39.000Z</time>
      </trkpt>
      <trkpt lat="49.83204" lon="4.7917">
        <ele>290</ele>
        <time>2022-09-18T07:48:40.000Z</time>
      </trkpt>
      <trkpt lat="49.83206" lon="4.79166">
        <ele>290</ele>
        <time>2022-09-18T07:48:41.000Z</time>
      </trkpt>
      <trkpt lat="49.83207" lon="4.79163">
        <ele>290</ele>
        <time>2022-09-18T07:48:42.000Z</time>
      </trkpt>
      <trkpt lat="49.83208" lon="4.79159">
        <ele>290</ele>
        <time>2022-09-18T07:48:43.000Z</time>
      </trkpt>
      <trkpt lat="49.83209" lon="4.79155">
        <ele>290</ele>
        <time>2022-09-18T07:48:44.000Z</time>
      </trkpt>
      <trkpt lat="49.8321" lon="4.79152">
        <ele>290</ele>
        <time>2022-09-18T07:48:45.000Z</time>
      </trkpt>
      <trkpt lat="49.83211" lon="4.79148">
        <ele>290</ele>
        <time>2022-09-18T07:48:46.000Z</time>
      </trkpt>
      <trkpt lat="49.83212" lon="4.79144">
        <ele>290</ele>
        <time>2022-09-18T07:48:47.000Z</time>
      </trkpt>
      <trkpt lat="49.83214" lon="4.7914">
        <ele>290</ele>
        <time>2022-09-18T07:48:48.000Z</time>
      </trkpt>
      <trkpt lat="49.83215" lon="4.79136">
        <ele>290</ele>
        <time>2022-09-18T07:48:49.000Z</time>
      </trkpt>
      <trkpt lat="49.83217" lon="4.79132">
        <ele>290</ele>
        <time>2022-09-18T07:48:50.000Z</time>
      </trkpt>
      <trkpt lat="49.83218" lon="4.79129">
        <ele>290</ele>
        <time>2022-09-18T07:48:51.000Z</time>
      </trkpt>
      <trkpt lat="49.83219" lon="4.79125">
        <ele>291</ele>
        <time>2022-09-18T07:48:52.000Z</time>
      </trkpt>
      <trkpt lat="49.8322" lon="4.79121">
        <ele>291</ele>
        <time>2022-09-18T07:48:53.000Z</time>
      </trkpt>
      <trkpt lat="49.83221" lon="4.79118">
        <ele>291</ele>
        <time>2022-09-18T07:48:54.000Z</time>
      </trkpt>
      <trkpt lat="49.83223" lon="4.79115">
        <ele>291</ele>
        <time>2022-09-18T07:48:55.000Z</time>
      </trkpt>
      <trkpt lat="49.83224" lon="4.79113">
        <ele>291</ele>
        <time>2022-09-18T07:48:56.000Z</time>
      </trkpt>
      <trkpt lat="49.83226" lon="4.79111">
        <ele>292</ele>
        <time>2022-09-18T07:48:57.000Z</time>
      </trkpt>
      <trkpt lat="49.83227" lon="4.79108">
        <ele>292</ele>
        <time>2022-09-18T07:48:58.000Z</time>
      </trkpt>
      <trkpt lat="49.83228" lon="4.79106">
        <ele>292</ele>
        <time>2022-09-18T07:48:59.000Z</time>
      </trkpt>
      <trkpt lat="49.83229" lon="4.79103">
        <ele>292</ele>
        <time>2022-09-18T07:49:00.000Z</time>
      </trkpt>
      <trkpt lat="49.83231" lon="4.791">
        <ele>292</ele>
        <time>2022-09-18T07:49:01.000Z</time>
      </trkpt>
      <trkpt lat="49.83233" lon="4.79098">
        <ele>293</ele>
        <time>2022-09-18T07:49:02.000Z</time>
      </trkpt>
      <trkpt lat="49.83235" lon="4.79096">
        <ele>293</ele>
        <time>2022-09-18T07:49:03.000Z</time>
      </trkpt>
      <trkpt lat="49.83237" lon="4.79094">
        <ele>293</ele>
        <time>2022-09-18T07:49:04.000Z</time>
      </trkpt>
      <trkpt lat="49.83239" lon="4.79093">
        <ele>293</ele>
        <time>2022-09-18T07:49:05.000Z</time>
      </trkpt>
      <trkpt lat="49.83239" lon="4.79092">
        <ele>294</ele>
        <time>2022-09-18T07:49:06.000Z</time>
      </trkpt>
      <trkpt lat="49.83239" lon="4.79092">
        <ele>294</ele>
        <time>2022-09-18T07:49:07.000Z</time>
      </trkpt>
      <trkpt lat="49.83239" lon="4.79091">
        <ele>294</ele>
        <time>2022-09-18T07:49:08.000Z</time>
      </trkpt>
      <trkpt lat="49.83239" lon="4.79091">
        <ele>295</ele>
        <time>2022-09-18T07:49:09.000Z</time>
      </trkpt>
      <trkpt lat="49.83239" lon="4.7909">
        <ele>295</ele>
        <time>2022-09-18T07:49:10.000Z</time>
      </trkpt>
      <trkpt lat="49.83239" lon="4.7909">
        <ele>295</ele>
        <time>2022-09-18T07:49:11.000Z</time>
      </trkpt>
      <trkpt lat="49.83239" lon="4.7909">
        <ele>296</ele>
        <time>2022-09-18T07:49:12.000Z</time>
      </trkpt>
      <trkpt lat="49.83239" lon="4.79089">
        <ele>296</ele>
        <time>2022-09-18T07:49:13.000Z</time>
      </trkpt>
      <trkpt lat="49.83239" lon="4.79089">
        <ele>296</ele>
        <time>2022-09-18T07:49:14.000Z</time>
      </trkpt>
      <trkpt lat="49.83239" lon="4.79089">
        <ele>296</ele>
        <time>2022-09-18T07:49:15.000Z</time>
      </trkpt>
      <trkpt lat="49.83239" lon="4.79088">
        <ele>297</ele>
        <time>2022-09-18T07:49:16.000Z</time>
      </trkpt>
      <trkpt lat="49.83239" lon="4.79088">
        <ele>297</ele>
        <time>2022-09-18T07:49:17.000Z</time>
      </trkpt>
      <trkpt lat="49.83239" lon="4.79088">
        <ele>297</ele>
        <time>2022-09-18T07:49:18.000Z</time>
      </trkpt>
      <trkpt lat="49.83239" lon="4.79088">
        <ele>297</ele>
        <time>2022-09-18T07:49:19.000Z</time>
      </trkpt>
      <trkpt lat="49.83239" lon="4.79088">
        <ele>297</ele>
        <time>2022-09-18T07:49:20.000Z</time>
      </trkpt>
      <trkpt lat="49.83239" lon="4.79088">
        <ele>297</ele>
        <time>2022-09-18T07:49:21.000Z</time>
      </trkpt>
      <trkpt lat="49.83239" lon="4.79087">
        <ele>297</ele>
        <time>2022-09-18T07:49:22.000Z</time>
      </trkpt>
      <trkpt lat="49.8324" lon="4.79087">
        <ele>298</ele>
        <time>2022-09-18T07:49:23.000Z</time>
      </trkpt>
      <trkpt lat="49.8324" lon="4.79087">
        <ele>298</ele>
        <time>2022-09-18T07:49:24.000Z</time>
      </trkpt>
      <trkpt lat="49.8324" lon="4.79087">
        <ele>298</ele>
        <time>2022-09-18T07:49:25.000Z</time>
      </trkpt>
      <trkpt lat="49.8324" lon="4.79087">
        <ele>298</ele>
        <time>2022-09-18T07:49:26.000Z</time>
      </trkpt>
      <trkpt lat="49.8324" lon="4.79087">
        <ele>298</ele>
        <time>2022-09-18T07:49:27.000Z</time>
      </trkpt>
      <trkpt lat="49.8324" lon="4.79087">
        <ele>298</ele>
        <time>2022-09-18T07:49:28.000Z</time>
      </trkpt>
      <trkpt lat="49.8324" lon="4.79087">
        <ele>298</ele>
        <time>2022-09-18T07:49:29.000Z</time>
      </trkpt>
      <trkpt lat="49.8324" lon="4.79087">
        <ele>298</ele>
        <time>2022-09-18T07:49:30.000Z</time>
      </trkpt>
      <trkpt lat="49.8324" lon="4.79087">
        <ele>298</ele>
        <time>2022-09-18T07:49:31.000Z</time>
      </trkpt>
      <trkpt lat="49.8324" lon="4.79087">
        <ele>298</ele>
        <time>2022-09-18T07:49:32.000Z</time>
      </trkpt>
      <trkpt lat="49.8324" lon="4.79087">
        <ele>298</ele>
        <time>2022-09-18T07:49:33.000Z</time>
      </trkpt>
      <trkpt lat="49.83239" lon="4.79087">
        <ele>298</ele>
        <time>2022-09-18T07:49:34.000Z</time>
      </trkpt>
      <trkpt lat="49.83239" lon="4.79087">
        <ele>299</ele>
        <time>2022-09-18T07:49:35.000Z</time>
      </trkpt>
      <trkpt lat="49.83239" lon="4.79087">
        <ele>299</ele>
        <time>2022-09-18T07:49:36.000Z</time>
      </trkpt>
      <trkpt lat="49.83239" lon="4.79086">
        <ele>299</ele>
        <time>2022-09-18T07:49:37.000Z</time>
      </trkpt>
      <trkpt lat="49.83239" lon="4.79086">
        <ele>299</ele>
        <time>2022-09-18T07:49:38.000Z</time>
      </trkpt>
      <trkpt lat="49.83239" lon="4.79086">
        <ele>299</ele>
        <time>2022-09-18T07:49:39.000Z</time>
      </trkpt>
      <trkpt lat="49.83239" lon="4.79087">
        <ele>299</ele>
        <time>2022-09-18T07:49:40.000Z</time>
      </trkpt>
      <trkpt lat="49.83239" lon="4.79087">
        <ele>299</ele>
        <time>2022-09-18T07:49:41.000Z</time>
      </trkpt>
      <trkpt lat="49.83239" lon="4.79087">
        <ele>299</ele>
        <time>2022-09-18T07:49:42.000Z</time>
      </trkpt>
      <trkpt lat="49.83239" lon="4.79086">
        <ele>299</ele>
        <time>2022-09-18T07:49:43.000Z</time>
      </trkpt>
      <trkpt lat="49.83239" lon="4.79086">
        <ele>299</ele>
        <time>2022-09-18T07:49:44.000Z</time>
      </trkpt>
      <trkpt lat="49.83241" lon="4.79086">
        <ele>299</ele>
        <time>2022-09-18T07:49:45.000Z</time>
      </trkpt>
      <trkpt lat="49.83243" lon="4.79086">
        <ele>299</ele>
        <time>2022-09-18T07:49:46.000Z</time>
      </trkpt>
      <trkpt lat="49.83245" lon="4.79086">
        <ele>299</ele>
        <time>2022-09-18T07:49:47.000Z</time>
      </trkpt>
      <trkpt lat="49.83248" lon="4.79085">
        <ele>299</ele>
        <time>2022-09-18T07:49:48.000Z</time>
      </trkpt>
      <trkpt lat="49.83252" lon="4.79085">
        <ele>299</ele>
        <time>2022-09-18T07:49:49.000Z</time>
      </trkpt>
      <trkpt lat="49.83255" lon="4.79085">
        <ele>299</ele>
        <time>2022-09-18T07:49:50.000Z</time>
      </trkpt>
      <trkpt lat="49.83258" lon="4.79085">
        <ele>299</ele>
        <time>2022-09-18T07:49:51.000Z</time>
      </trkpt>
      <trkpt lat="49.83261" lon="4.79085">
        <ele>298</ele>
        <time>2022-09-18T07:49:52.000Z</time>
      </trkpt>
      <trkpt lat="49.83264" lon="4.79086">
        <ele>298</ele>
        <time>2022-09-18T07:49:53.000Z</time>
      </trkpt>
      <trkpt lat="49.83268" lon="4.79086">
        <ele>298</ele>
        <time>2022-09-18T07:49:54.000Z</time>
      </trkpt>
      <trkpt lat="49.83272" lon="4.79087">
        <ele>298</ele>
        <time>2022-09-18T07:49:55.000Z</time>
      </trkpt>
      <trkpt lat="49.83276" lon="4.79087">
        <ele>298</ele>
        <time>2022-09-18T07:49:56.000Z</time>
      </trkpt>
      <trkpt lat="49.8328" lon="4.79087">
        <ele>298</ele>
        <time>2022-09-18T07:49:57.000Z</time>
      </trkpt>
      <trkpt lat="49.83284" lon="4.79086">
        <ele>298</ele>
        <time>2022-09-18T07:49:58.000Z</time>
      </trkpt>
      <trkpt lat="49.83289" lon="4.79086">
        <ele>298</ele>
        <time>2022-09-18T07:49:59.000Z</time>
      </trkpt>
      <trkpt lat="49.83294" lon="4.79084">
        <ele>298</ele>
        <time>2022-09-18T07:50:00.000Z</time>
      </trkpt>
      <trkpt lat="49.83299" lon="4.79082">
        <ele>298</ele>
        <time>2022-09-18T07:50:01.000Z</time>
      </trkpt>
      <trkpt lat="49.83305" lon="4.7908">
        <ele>298</ele>
        <time>2022-09-18T07:50:02.000Z</time>
      </trkpt>
      <trkpt lat="49.8331" lon="4.79078">
        <ele>298</ele>
        <time>2022-09-18T07:50:03.000Z</time>
      </trkpt>
      <trkpt lat="49.83316" lon="4.79074">
        <ele>298</ele>
        <time>2022-09-18T07:50:04.000Z</time>
      </trkpt>
      <trkpt lat="49.83321" lon="4.79069">
        <ele>298</ele>
        <time>2022-09-18T07:50:05.000Z</time>
      </trkpt>
      <trkpt lat="49.83326" lon="4.79063">
        <ele>298</ele>
        <time>2022-09-18T07:50:06.000Z</time>
      </trkpt>
      <trkpt lat="49.83331" lon="4.79056">
        <ele>298</ele>
        <time>2022-09-18T07:50:07.000Z</time>
      </trkpt>
      <trkpt lat="49.83335" lon="4.79048">
        <ele>297</ele>
        <time>2022-09-18T07:50:08.000Z</time>
      </trkpt>
      <trkpt lat="49.8334" lon="4.7904">
        <ele>297</ele>
        <time>2022-09-18T07:50:09.000Z</time>
      </trkpt>
      <trkpt lat="49.83344" lon="4.79032">
        <ele>297</ele>
        <time>2022-09-18T07:50:10.000Z</time>
      </trkpt>
      <trkpt lat="49.83348" lon="4.79023">
        <ele>297</ele>
        <time>2022-09-18T07:50:11.000Z</time>
      </trkpt>
      <trkpt lat="49.83351" lon="4.79015">
        <ele>296</ele>
        <time>2022-09-18T07:50:12.000Z</time>
      </trkpt>
      <trkpt lat="49.83354" lon="4.79006">
        <ele>296</ele>
        <time>2022-09-18T07:50:13.000Z</time>
      </trkpt>
      <trkpt lat="49.83358" lon="4.78998">
        <ele>296</ele>
        <time>2022-09-18T07:50:14.000Z</time>
      </trkpt>
      <trkpt lat="49.8336" lon="4.7899">
        <ele>296</ele>
        <time>2022-09-18T07:50:15.000Z</time>
      </trkpt>
      <trkpt lat="49.83363" lon="4.78982">
        <ele>295</ele>
        <time>2022-09-18T07:50:16.000Z</time>
      </trkpt>
      <trkpt lat="49.83366" lon="4.78974">
        <ele>295</ele>
        <time>2022-09-18T07:50:17.000Z</time>
      </trkpt>
      <trkpt lat="49.83369" lon="4.78967">
        <ele>295</ele>
        <time>2022-09-18T07:50:18.000Z</time>
      </trkpt>
      <trkpt lat="49.83373" lon="4.7896">
        <ele>295</ele>
        <time>2022-09-18T07:50:19.000Z</time>
      </trkpt>
      <trkpt lat="49.83376" lon="4.78952">
        <ele>295</ele>
        <time>2022-09-18T07:50:20.000Z</time>
      </trkpt>
      <trkpt lat="49.83379" lon="4.78945">
        <ele>294</ele>
        <time>2022-09-18T07:50:21.000Z</time>
      </trkpt>
      <trkpt lat="49.83383" lon="4.78938">
        <ele>294</ele>
        <time>2022-09-18T07:50:22.000Z</time>
      </trkpt>
      <trkpt lat="49.83387" lon="4.78932">
        <ele>294</ele>
        <time>2022-09-18T07:50:23.000Z</time>
      </trkpt>
      <trkpt lat="49.83391" lon="4.78926">
        <ele>294</ele>
        <time>2022-09-18T07:50:24.000Z</time>
      </trkpt>
      <trkpt lat="49.83394" lon="4.7892">
        <ele>294</ele>
        <time>2022-09-18T07:50:25.000Z</time>
      </trkpt>
      <trkpt lat="49.83398" lon="4.78916">
        <ele>294</ele>
        <time>2022-09-18T07:50:26.000Z</time>
      </trkpt>
      <trkpt lat="49.83401" lon="4.78913">
        <ele>294</ele>
        <time>2022-09-18T07:50:27.000Z</time>
      </trkpt>
      <trkpt lat="49.83405" lon="4.78911">
        <ele>295</ele>
        <time>2022-09-18T07:50:28.000Z</time>
      </trkpt>
      <trkpt lat="49.83408" lon="4.78909">
        <ele>295</ele>
        <time>2022-09-18T07:50:29.000Z</time>
      </trkpt>
      <trkpt lat="49.83411" lon="4.78909">
        <ele>295</ele>
        <time>2022-09-18T07:50:30.000Z</time>
      </trkpt>
      <trkpt lat="49.83413" lon="4.78907">
        <ele>295</ele>
        <time>2022-09-18T07:50:31.000Z</time>
      </trkpt>
      <trkpt lat="49.83416" lon="4.78906">
        <ele>295</ele>
        <time>2022-09-18T07:50:32.000Z</time>
      </trkpt>
      <trkpt lat="49.83419" lon="4.78905">
        <ele>295</ele>
        <time>2022-09-18T07:50:33.000Z</time>
      </trkpt>
      <trkpt lat="49.83422" lon="4.78903">
        <ele>295</ele>
        <time>2022-09-18T07:50:34.000Z</time>
      </trkpt>
      <trkpt lat="49.83425" lon="4.78902">
        <ele>295</ele>
        <time>2022-09-18T07:50:35.000Z</time>
      </trkpt>
      <trkpt lat="49.83428" lon="4.78901">
        <ele>295</ele>
        <time>2022-09-18T07:50:36.000Z</time>
      </trkpt>
      <trkpt lat="49.83432" lon="4.789">
        <ele>296</ele>
        <time>2022-09-18T07:50:37.000Z</time>
      </trkpt>
      <trkpt lat="49.83435" lon="4.78899">
        <ele>296</ele>
        <time>2022-09-18T07:50:38.000Z</time>
      </trkpt>
      <trkpt lat="49.83438" lon="4.78898">
        <ele>296</ele>
        <time>2022-09-18T07:50:39.000Z</time>
      </trkpt>
      <trkpt lat="49.83441" lon="4.78897">
        <ele>296</ele>
        <time>2022-09-18T07:50:40.000Z</time>
      </trkpt>
      <trkpt lat="49.83445" lon="4.78896">
        <ele>297</ele>
        <time>2022-09-18T07:50:41.000Z</time>
      </trkpt>
      <trkpt lat="49.83448" lon="4.78895">
        <ele>297</ele>
        <time>2022-09-18T07:50:42.000Z</time>
      </trkpt>
      <trkpt lat="49.83451" lon="4.78894">
        <ele>297</ele>
        <time>2022-09-18T07:50:43.000Z</time>
      </trkpt>
      <trkpt lat="49.83454" lon="4.78894">
        <ele>297</ele>
        <time>2022-09-18T07:50:44.000Z</time>
      </trkpt>
      <trkpt lat="49.83456" lon="4.78894">
        <ele>298</ele>
        <time>2022-09-18T07:50:45.000Z</time>
      </trkpt>
      <trkpt lat="49.83458" lon="4.78895">
        <ele>298</ele>
        <time>2022-09-18T07:50:46.000Z</time>
      </trkpt>
      <trkpt lat="49.8346" lon="4.78894">
        <ele>298</ele>
        <time>2022-09-18T07:50:47.000Z</time>
      </trkpt>
      <trkpt lat="49.83462" lon="4.78892">
        <ele>299</ele>
        <time>2022-09-18T07:50:48.000Z</time>
      </trkpt>
      <trkpt lat="49.83463" lon="4.78889">
        <ele>299</ele>
        <time>2022-09-18T07:50:49.000Z</time>
      </trkpt>
      <trkpt lat="49.83464" lon="4.78885">
        <ele>299</ele>
        <time>2022-09-18T07:50:50.000Z</time>
      </trkpt>
      <trkpt lat="49.83466" lon="4.78881">
        <ele>299</ele>
        <time>2022-09-18T07:50:51.000Z</time>
      </trkpt>
      <trkpt lat="49.83468" lon="4.78877">
        <ele>299</ele>
        <time>2022-09-18T07:50:52.000Z</time>
      </trkpt>
      <trkpt lat="49.8347" lon="4.78873">
        <ele>300</ele>
        <time>2022-09-18T07:50:53.000Z</time>
      </trkpt>
      <trkpt lat="49.83472" lon="4.78869">
        <ele>300</ele>
        <time>2022-09-18T07:50:54.000Z</time>
      </trkpt>
      <trkpt lat="49.83473" lon="4.78864">
        <ele>300</ele>
        <time>2022-09-18T07:50:55.000Z</time>
      </trkpt>
      <trkpt lat="49.83474" lon="4.78859">
        <ele>300</ele>
        <time>2022-09-18T07:50:56.000Z</time>
      </trkpt>
      <trkpt lat="49.83475" lon="4.78854">
        <ele>300</ele>
        <time>2022-09-18T07:50:57.000Z</time>
      </trkpt>
      <trkpt lat="49.83475" lon="4.78849">
        <ele>300</ele>
        <time>2022-09-18T07:50:58.000Z</time>
      </trkpt>
      <trkpt lat="49.83474" lon="4.78844">
        <ele>300</ele>
        <time>2022-09-18T07:50:59.000Z</time>
      </trkpt>
      <trkpt lat="49.83474" lon="4.78838">
        <ele>300</ele>
        <time>2022-09-18T07:51:00.000Z</time>
      </trkpt>
      <trkpt lat="49.83473" lon="4.78833">
        <ele>300</ele>
        <time>2022-09-18T07:51:01.000Z</time>
      </trkpt>
      <trkpt lat="49.83474" lon="4.78828">
        <ele>300</ele>
        <time>2022-09-18T07:51:02.000Z</time>
      </trkpt>
      <trkpt lat="49.83475" lon="4.78823">
        <ele>300</ele>
        <time>2022-09-18T07:51:03.000Z</time>
      </trkpt>
      <trkpt lat="49.83477" lon="4.7882">
        <ele>300</ele>
        <time>2022-09-18T07:51:04.000Z</time>
      </trkpt>
      <trkpt lat="49.8348" lon="4.78818">
        <ele>300</ele>
        <time>2022-09-18T07:51:05.000Z</time>
      </trkpt>
      <trkpt lat="49.83482" lon="4.78815">
        <ele>300</ele>
        <time>2022-09-18T07:51:06.000Z</time>
      </trkpt>
      <trkpt lat="49.83485" lon="4.78812">
        <ele>300</ele>
        <time>2022-09-18T07:51:07.000Z</time>
      </trkpt>
      <trkpt lat="49.83489" lon="4.7881">
        <ele>300</ele>
        <time>2022-09-18T07:51:08.000Z</time>
      </trkpt>
      <trkpt lat="49.83491" lon="4.78808">
        <ele>300</ele>
        <time>2022-09-18T07:51:09.000Z</time>
      </trkpt>
      <trkpt lat="49.83494" lon="4.78806">
        <ele>299</ele>
        <time>2022-09-18T07:51:10.000Z</time>
      </trkpt>
      <trkpt lat="49.83497" lon="4.78804">
        <ele>299</ele>
        <time>2022-09-18T07:51:11.000Z</time>
      </trkpt>
      <trkpt lat="49.835" lon="4.78801">
        <ele>299</ele>
        <time>2022-09-18T07:51:12.000Z</time>
      </trkpt>
      <trkpt lat="49.83503" lon="4.78799">
        <ele>299</ele>
        <time>2022-09-18T07:51:13.000Z</time>
      </trkpt>
      <trkpt lat="49.83506" lon="4.78796">
        <ele>299</ele>
        <time>2022-09-18T07:51:14.000Z</time>
      </trkpt>
      <trkpt lat="49.83509" lon="4.78793">
        <ele>299</ele>
        <time>2022-09-18T07:51:15.000Z</time>
      </trkpt>
      <trkpt lat="49.83511" lon="4.7879">
        <ele>299</ele>
        <time>2022-09-18T07:51:16.000Z</time>
      </trkpt>
      <trkpt lat="49.83513" lon="4.78787">
        <ele>299</ele>
        <time>2022-09-18T07:51:17.000Z</time>
      </trkpt>
      <trkpt lat="49.83514" lon="4.78783">
        <ele>299</ele>
        <time>2022-09-18T07:51:18.000Z</time>
      </trkpt>
      <trkpt lat="49.83516" lon="4.7878">
        <ele>299</ele>
        <time>2022-09-18T07:51:19.000Z</time>
      </trkpt>
      <trkpt lat="49.83518" lon="4.78776">
        <ele>299</ele>
        <time>2022-09-18T07:51:20.000Z</time>
      </trkpt>
      <trkpt lat="49.8352" lon="4.78774">
        <ele>299</ele>
        <time>2022-09-18T07:51:21.000Z</time>
      </trkpt>
      <trkpt lat="49.83522" lon="4.78772">
        <ele>299</ele>
        <time>2022-09-18T07:51:22.000Z</time>
      </trkpt>
      <trkpt lat="49.83524" lon="4.7877">
        <ele>299</ele>
        <time>2022-09-18T07:51:23.000Z</time>
      </trkpt>
      <trkpt lat="49.83526" lon="4.78768">
        <ele>299</ele>
        <time>2022-09-18T07:51:24.000Z</time>
      </trkpt>
      <trkpt lat="49.83528" lon="4.78767">
        <ele>299</ele>
        <time>2022-09-18T07:51:25.000Z</time>
      </trkpt>
      <trkpt lat="49.8353" lon="4.78766">
        <ele>299</ele>
        <time>2022-09-18T07:51:26.000Z</time>
      </trkpt>
      <trkpt lat="49.83532" lon="4.78766">
        <ele>299</ele>
        <time>2022-09-18T07:51:27.000Z</time>
      </trkpt>
      <trkpt lat="49.83534" lon="4.78765">
        <ele>299</ele>
        <time>2022-09-18T07:51:28.000Z</time>
      </trkpt>
      <trkpt lat="49.83537" lon="4.78765">
        <ele>300</ele>
        <time>2022-09-18T07:51:29.000Z</time>
      </trkpt>
      <trkpt lat="49.83539" lon="4.78764">
        <ele>300</ele>
        <time>2022-09-18T07:51:30.000Z</time>
      </trkpt>
      <trkpt lat="49.83541" lon="4.78764">
        <ele>300</ele>
        <time>2022-09-18T07:51:31.000Z</time>
      </trkpt>
      <trkpt lat="49.83543" lon="4.78763">
        <ele>300</ele>
        <time>2022-09-18T07:51:32.000Z</time>
      </trkpt>
      <trkpt lat="49.83545" lon="4.78762">
        <ele>300</ele>
        <time>2022-09-18T07:51:33.000Z</time>
      </trkpt>
      <trkpt lat="49.83547" lon="4.78761">
        <ele>300</ele>
        <time>2022-09-18T07:51:34.000Z</time>
      </trkpt>
      <trkpt lat="49.83549" lon="4.7876">
        <ele>300</ele>
        <time>2022-09-18T07:51:35.000Z</time>
      </trkpt>
      <trkpt lat="49.83551" lon="4.78759">
        <ele>300</ele>
        <time>2022-09-18T07:51:36.000Z</time>
      </trkpt>
      <trkpt lat="49.83553" lon="4.78757">
        <ele>300</ele>
        <time>2022-09-18T07:51:37.000Z</time>
      </trkpt>
      <trkpt lat="49.83556" lon="4.78756">
        <ele>300</ele>
        <time>2022-09-18T07:51:38.000Z</time>
      </trkpt>
      <trkpt lat="49.83558" lon="4.78754">
        <ele>300</ele>
        <time>2022-09-18T07:51:39.000Z</time>
      </trkpt>
      <trkpt lat="49.83561" lon="4.78753">
        <ele>300</ele>
        <time>2022-09-18T07:51:40.000Z</time>
      </trkpt>
      <trkpt lat="49.83563" lon="4.78751">
        <ele>300</ele>
        <time>2022-09-18T07:51:41.000Z</time>
      </trkpt>
      <trkpt lat="49.83565" lon="4.7875">
        <ele>300</ele>
        <time>2022-09-18T07:51:42.000Z</time>
      </trkpt>
      <trkpt lat="49.83567" lon="4.78749">
        <ele>300</ele>
        <time>2022-09-18T07:51:43.000Z</time>
      </trkpt>
      <trkpt lat="49.83569" lon="4.78747">
        <ele>300</ele>
        <time>2022-09-18T07:51:44.000Z</time>
      </trkpt>
      <trkpt lat="49.83571" lon="4.78746">
        <ele>300</ele>
        <time>2022-09-18T07:51:45.000Z</time>
      </trkpt>
      <trkpt lat="49.83573" lon="4.78745">
        <ele>300</ele>
        <time>2022-09-18T07:51:46.000Z</time>
      </trkpt>
      <trkpt lat="49.83575" lon="4.78744">
        <ele>300</ele>
        <time>2022-09-18T07:51:47.000Z</time>
      </trkpt>
      <trkpt lat="49.83577" lon="4.78742">
        <ele>301</ele>
        <time>2022-09-18T07:51:48.000Z</time>
      </trkpt>
      <trkpt lat="49.83579" lon="4.78741">
        <ele>301</ele>
        <time>2022-09-18T07:51:49.000Z</time>
      </trkpt>
      <trkpt lat="49.83581" lon="4.7874">
        <ele>301</ele>
        <time>2022-09-18T07:51:50.000Z</time>
      </trkpt>
      <trkpt lat="49.83584" lon="4.78739">
        <ele>301</ele>
        <time>2022-09-18T07:51:51.000Z</time>
      </trkpt>
      <trkpt lat="49.83586" lon="4.78738">
        <ele>301</ele>
        <time>2022-09-18T07:51:52.000Z</time>
      </trkpt>
      <trkpt lat="49.83588" lon="4.78736">
        <ele>301</ele>
        <time>2022-09-18T07:51:53.000Z</time>
      </trkpt>
      <trkpt lat="49.83591" lon="4.78735">
        <ele>301</ele>
        <time>2022-09-18T07:51:54.000Z</time>
      </trkpt>
      <trkpt lat="49.83593" lon="4.78735">
        <ele>301</ele>
        <time>2022-09-18T07:51:55.000Z</time>
      </trkpt>
      <trkpt lat="49.83596" lon="4.78734">
        <ele>301</ele>
        <time>2022-09-18T07:51:56.000Z</time>
      </trkpt>
      <trkpt lat="49.83598" lon="4.78733">
        <ele>301</ele>
        <time>2022-09-18T07:51:57.000Z</time>
      </trkpt>
      <trkpt lat="49.836" lon="4.78733">
        <ele>301</ele>
        <time>2022-09-18T07:51:58.000Z</time>
      </trkpt>
      <trkpt lat="49.83603" lon="4.78732">
        <ele>301</ele>
        <time>2022-09-18T07:51:59.000Z</time>
      </trkpt>
      <trkpt lat="49.83605" lon="4.78732">
        <ele>301</ele>
        <time>2022-09-18T07:52:00.000Z</time>
      </trkpt>
      <trkpt lat="49.83608" lon="4.78732">
        <ele>301</ele>
        <time>2022-09-18T07:52:01.000Z</time>
      </trkpt>
      <trkpt lat="49.8361" lon="4.78731">
        <ele>301</ele>
        <time>2022-09-18T07:52:02.000Z</time>
      </trkpt>
      <trkpt lat="49.83612" lon="4.78731">
        <ele>301</ele>
        <time>2022-09-18T07:52:03.000Z</time>
      </trkpt>
      <trkpt lat="49.83615" lon="4.78731">
        <ele>301</ele>
        <time>2022-09-18T07:52:04.000Z</time>
      </trkpt>
      <trkpt lat="49.83617" lon="4.78731">
        <ele>301</ele>
        <time>2022-09-18T07:52:05.000Z</time>
      </trkpt>
      <trkpt lat="49.83619" lon="4.78731">
        <ele>301</ele>
        <time>2022-09-18T07:52:06.000Z</time>
      </trkpt>
      <trkpt lat="49.83621" lon="4.78731">
        <ele>301</ele>
        <time>2022-09-18T07:52:07.000Z</time>
      </trkpt>
      <trkpt lat="49.83623" lon="4.78732">
        <ele>301</ele>
        <time>2022-09-18T07:52:08.000Z</time>
      </trkpt>
      <trkpt lat="49.83626" lon="4.78732">
        <ele>302</ele>
        <time>2022-09-18T07:52:09.000Z</time>
      </trkpt>
      <trkpt lat="49.83628" lon="4.78733">
        <ele>302</ele>
        <time>2022-09-18T07:52:10.000Z</time>
      </trkpt>
      <trkpt lat="49.8363" lon="4.78734">
        <ele>302</ele>
        <time>2022-09-18T07:52:11.000Z</time>
      </trkpt>
      <trkpt lat="49.83632" lon="4.78734">
        <ele>302</ele>
        <time>2022-09-18T07:52:12.000Z</time>
      </trkpt>
      <trkpt lat="49.83634" lon="4.78735">
        <ele>302</ele>
        <time>2022-09-18T07:52:13.000Z</time>
      </trkpt>
      <trkpt lat="49.83636" lon="4.78735">
        <ele>302</ele>
        <time>2022-09-18T07:52:14.000Z</time>
      </trkpt>
      <trkpt lat="49.83638" lon="4.78736">
        <ele>302</ele>
        <time>2022-09-18T07:52:15.000Z</time>
      </trkpt>
      <trkpt lat="49.8364" lon="4.78736">
        <ele>302</ele>
        <time>2022-09-18T07:52:16.000Z</time>
      </trkpt>
      <trkpt lat="49.83642" lon="4.78737">
        <ele>302</ele>
        <time>2022-09-18T07:52:17.000Z</time>
      </trkpt>
      <trkpt lat="49.83644" lon="4.78737">
        <ele>303</ele>
        <time>2022-09-18T07:52:18.000Z</time>
      </trkpt>
      <trkpt lat="49.83646" lon="4.78738">
        <ele>303</ele>
        <time>2022-09-18T07:52:19.000Z</time>
      </trkpt>
      <trkpt lat="49.83648" lon="4.78739">
        <ele>303</ele>
        <time>2022-09-18T07:52:20.000Z</time>
      </trkpt>
      <trkpt lat="49.8365" lon="4.78739">
        <ele>303</ele>
        <time>2022-09-18T07:52:21.000Z</time>
      </trkpt>
      <trkpt lat="49.83653" lon="4.7874">
        <ele>303</ele>
        <time>2022-09-18T07:52:22.000Z</time>
      </trkpt>
      <trkpt lat="49.83655" lon="4.78741">
        <ele>303</ele>
        <time>2022-09-18T07:52:23.000Z</time>
      </trkpt>
      <trkpt lat="49.83657" lon="4.78741">
        <ele>303</ele>
        <time>2022-09-18T07:52:24.000Z</time>
      </trkpt>
      <trkpt lat="49.83659" lon="4.78742">
        <ele>303</ele>
        <time>2022-09-18T07:52:25.000Z</time>
      </trkpt>
      <trkpt lat="49.83661" lon="4.78743">
        <ele>304</ele>
        <time>2022-09-18T07:52:26.000Z</time>
      </trkpt>
      <trkpt lat="49.83664" lon="4.78745">
        <ele>304</ele>
        <time>2022-09-18T07:52:27.000Z</time>
      </trkpt>
      <trkpt lat="49.83666" lon="4.78746">
        <ele>304</ele>
        <time>2022-09-18T07:52:28.000Z</time>
      </trkpt>
      <trkpt lat="49.83668" lon="4.78747">
        <ele>304</ele>
        <time>2022-09-18T07:52:29.000Z</time>
      </trkpt>
      <trkpt lat="49.8367" lon="4.78748">
        <ele>304</ele>
        <time>2022-09-18T07:52:30.000Z</time>
      </trkpt>
      <trkpt lat="49.83673" lon="4.78749">
        <ele>304</ele>
        <time>2022-09-18T07:52:31.000Z</time>
      </trkpt>
      <trkpt lat="49.83675" lon="4.7875">
        <ele>304</ele>
        <time>2022-09-18T07:52:32.000Z</time>
      </trkpt>
      <trkpt lat="49.83677" lon="4.78752">
        <ele>304</ele>
        <time>2022-09-18T07:52:33.000Z</time>
      </trkpt>
      <trkpt lat="49.8368" lon="4.78753">
        <ele>304</ele>
        <time>2022-09-18T07:52:34.000Z</time>
      </trkpt>
      <trkpt lat="49.83682" lon="4.78756">
        <ele>305</ele>
        <time>2022-09-18T07:52:35.000Z</time>
      </trkpt>
      <trkpt lat="49.83683" lon="4.78757">
        <ele>305</ele>
        <time>2022-09-18T07:52:36.000Z</time>
      </trkpt>
      <trkpt lat="49.83685" lon="4.78759">
        <ele>305</ele>
        <time>2022-09-18T07:52:37.000Z</time>
      </trkpt>
      <trkpt lat="49.83687" lon="4.78761">
        <ele>305</ele>
        <time>2022-09-18T07:52:38.000Z</time>
      </trkpt>
      <trkpt lat="49.83688" lon="4.78763">
        <ele>305</ele>
        <time>2022-09-18T07:52:39.000Z</time>
      </trkpt>
      <trkpt lat="49.8369" lon="4.78765">
        <ele>305</ele>
        <time>2022-09-18T07:52:40.000Z</time>
      </trkpt>
      <trkpt lat="49.83692" lon="4.78766">
        <ele>304</ele>
        <time>2022-09-18T07:52:41.000Z</time>
      </trkpt>
      <trkpt lat="49.83693" lon="4.78767">
        <ele>304</ele>
        <time>2022-09-18T07:52:42.000Z</time>
      </trkpt>
      <trkpt lat="49.83695" lon="4.78769">
        <ele>304</ele>
        <time>2022-09-18T07:52:43.000Z</time>
      </trkpt>
      <trkpt lat="49.83697" lon="4.7877">
        <ele>305</ele>
        <time>2022-09-18T07:52:44.000Z</time>
      </trkpt>
      <trkpt lat="49.83698" lon="4.78771">
        <ele>305</ele>
        <time>2022-09-18T07:52:45.000Z</time>
      </trkpt>
      <trkpt lat="49.837" lon="4.78772">
        <ele>305</ele>
        <time>2022-09-18T07:52:46.000Z</time>
      </trkpt>
      <trkpt lat="49.83701" lon="4.78773">
        <ele>305</ele>
        <time>2022-09-18T07:52:47.000Z</time>
      </trkpt>
      <trkpt lat="49.83703" lon="4.78774">
        <ele>305</ele>
        <time>2022-09-18T07:52:48.000Z</time>
      </trkpt>
      <trkpt lat="49.83705" lon="4.78775">
        <ele>306</ele>
        <time>2022-09-18T07:52:49.000Z</time>
      </trkpt>
      <trkpt lat="49.83706" lon="4.78776">
        <ele>306</ele>
        <time>2022-09-18T07:52:50.000Z</time>
      </trkpt>
      <trkpt lat="49.83708" lon="4.78776">
        <ele>306</ele>
        <time>2022-09-18T07:52:51.000Z</time>
      </trkpt>
      <trkpt lat="49.83709" lon="4.78777">
        <ele>306</ele>
        <time>2022-09-18T07:52:52.000Z</time>
      </trkpt>
      <trkpt lat="49.83711" lon="4.78777">
        <ele>306</ele>
        <time>2022-09-18T07:52:53.000Z</time>
      </trkpt>
      <trkpt lat="49.83713" lon="4.78778">
        <ele>307</ele>
        <time>2022-09-18T07:52:54.000Z</time>
      </trkpt>
      <trkpt lat="49.83714" lon="4.78779">
        <ele>307</ele>
        <time>2022-09-18T07:52:55.000Z</time>
      </trkpt>
      <trkpt lat="49.83716" lon="4.7878">
        <ele>307</ele>
        <time>2022-09-18T07:52:56.000Z</time>
      </trkpt>
      <trkpt lat="49.83718" lon="4.78781">
        <ele>307</ele>
        <time>2022-09-18T07:52:57.000Z</time>
      </trkpt>
      <trkpt lat="49.8372" lon="4.78782">
        <ele>308</ele>
        <time>2022-09-18T07:52:58.000Z</time>
      </trkpt>
      <trkpt lat="49.83722" lon="4.78783">
        <ele>308</ele>
        <time>2022-09-18T07:52:59.000Z</time>
      </trkpt>
      <trkpt lat="49.83724" lon="4.78783">
        <ele>308</ele>
        <time>2022-09-18T07:53:00.000Z</time>
      </trkpt>
      <trkpt lat="49.83726" lon="4.78784">
        <ele>308</ele>
        <time>2022-09-18T07:53:01.000Z</time>
      </trkpt>
      <trkpt lat="49.83728" lon="4.78784">
        <ele>309</ele>
        <time>2022-09-18T07:53:02.000Z</time>
      </trkpt>
      <trkpt lat="49.8373" lon="4.78784">
        <ele>309</ele>
        <time>2022-09-18T07:53:03.000Z</time>
      </trkpt>
      <trkpt lat="49.83732" lon="4.78785">
        <ele>309</ele>
        <time>2022-09-18T07:53:04.000Z</time>
      </trkpt>
      <trkpt lat="49.83734" lon="4.78786">
        <ele>309</ele>
        <time>2022-09-18T07:53:05.000Z</time>
      </trkpt>
      <trkpt lat="49.83736" lon="4.78787">
        <ele>309</ele>
        <time>2022-09-18T07:53:06.000Z</time>
      </trkpt>
      <trkpt lat="49.83739" lon="4.78788">
        <ele>310</ele>
        <time>2022-09-18T07:53:07.000Z</time>
      </trkpt>
      <trkpt lat="49.83741" lon="4.78789">
        <ele>310</ele>
        <time>2022-09-18T07:53:08.000Z</time>
      </trkpt>
      <trkpt lat="49.83743" lon="4.7879">
        <ele>310</ele>
        <time>2022-09-18T07:53:09.000Z</time>
      </trkpt>
      <trkpt lat="49.83745" lon="4.78792">
        <ele>310</ele>
        <time>2022-09-18T07:53:10.000Z</time>
      </trkpt>
      <trkpt lat="49.83747" lon="4.78794">
        <ele>310</ele>
        <time>2022-09-18T07:53:11.000Z</time>
      </trkpt>
      <trkpt lat="49.83749" lon="4.78796">
        <ele>311</ele>
        <time>2022-09-18T07:53:12.000Z</time>
      </trkpt>
      <trkpt lat="49.83751" lon="4.78799">
        <ele>311</ele>
        <time>2022-09-18T07:53:13.000Z</time>
      </trkpt>
      <trkpt lat="49.83753" lon="4.78801">
        <ele>311</ele>
        <time>2022-09-18T07:53:14.000Z</time>
      </trkpt>
      <trkpt lat="49.83755" lon="4.78803">
        <ele>311</ele>
        <time>2022-09-18T07:53:15.000Z</time>
      </trkpt>
      <trkpt lat="49.83757" lon="4.78806">
        <ele>311</ele>
        <time>2022-09-18T07:53:16.000Z</time>
      </trkpt>
      <trkpt lat="49.83759" lon="4.78808">
        <ele>311</ele>
        <time>2022-09-18T07:53:17.000Z</time>
      </trkpt>
      <trkpt lat="49.83761" lon="4.7881">
        <ele>311</ele>
        <time>2022-09-18T07:53:18.000Z</time>
      </trkpt>
      <trkpt lat="49.83763" lon="4.78812">
        <ele>311</ele>
        <time>2022-09-18T07:53:19.000Z</time>
      </trkpt>
      <trkpt lat="49.83766" lon="4.78815">
        <ele>311</ele>
        <time>2022-09-18T07:53:20.000Z</time>
      </trkpt>
      <trkpt lat="49.83768" lon="4.78818">
        <ele>311</ele>
        <time>2022-09-18T07:53:21.000Z</time>
      </trkpt>
      <trkpt lat="49.83771" lon="4.7882">
        <ele>311</ele>
        <time>2022-09-18T07:53:22.000Z</time>
      </trkpt>
      <trkpt lat="49.83773" lon="4.78821">
        <ele>311</ele>
        <time>2022-09-18T07:53:23.000Z</time>
      </trkpt>
      <trkpt lat="49.83776" lon="4.78822">
        <ele>311</ele>
        <time>2022-09-18T07:53:24.000Z</time>
      </trkpt>
      <trkpt lat="49.83778" lon="4.78823">
        <ele>311</ele>
        <time>2022-09-18T07:53:25.000Z</time>
      </trkpt>
      <trkpt lat="49.83781" lon="4.78824">
        <ele>311</ele>
        <time>2022-09-18T07:53:26.000Z</time>
      </trkpt>
      <trkpt lat="49.83783" lon="4.78824">
        <ele>311</ele>
        <time>2022-09-18T07:53:27.000Z</time>
      </trkpt>
      <trkpt lat="49.83785" lon="4.78825">
        <ele>312</ele>
        <time>2022-09-18T07:53:28.000Z</time>
      </trkpt>
      <trkpt lat="49.83787" lon="4.78825">
        <ele>312</ele>
        <time>2022-09-18T07:53:29.000Z</time>
      </trkpt>
      <trkpt lat="49.83789" lon="4.78825">
        <ele>312</ele>
        <time>2022-09-18T07:53:30.000Z</time>
      </trkpt>
      <trkpt lat="49.83792" lon="4.78826">
        <ele>312</ele>
        <time>2022-09-18T07:53:31.000Z</time>
      </trkpt>
      <trkpt lat="49.83794" lon="4.78826">
        <ele>312</ele>
        <time>2022-09-18T07:53:32.000Z</time>
      </trkpt>
      <trkpt lat="49.83796" lon="4.78826">
        <ele>313</ele>
        <time>2022-09-18T07:53:33.000Z</time>
      </trkpt>
      <trkpt lat="49.83798" lon="4.78826">
        <ele>313</ele>
        <time>2022-09-18T07:53:34.000Z</time>
      </trkpt>
      <trkpt lat="49.838" lon="4.78827">
        <ele>313</ele>
        <time>2022-09-18T07:53:35.000Z</time>
      </trkpt>
      <trkpt lat="49.83802" lon="4.78827">
        <ele>313</ele>
        <time>2022-09-18T07:53:36.000Z</time>
      </trkpt>
      <trkpt lat="49.83804" lon="4.78827">
        <ele>313</ele>
        <time>2022-09-18T07:53:37.000Z</time>
      </trkpt>
      <trkpt lat="49.83806" lon="4.78828">
        <ele>314</ele>
        <time>2022-09-18T07:53:38.000Z</time>
      </trkpt>
      <trkpt lat="49.83808" lon="4.78828">
        <ele>314</ele>
        <time>2022-09-18T07:53:39.000Z</time>
      </trkpt>
      <trkpt lat="49.8381" lon="4.78828">
        <ele>314</ele>
        <time>2022-09-18T07:53:40.000Z</time>
      </trkpt>
      <trkpt lat="49.83812" lon="4.78828">
        <ele>315</ele>
        <time>2022-09-18T07:53:41.000Z</time>
      </trkpt>
      <trkpt lat="49.83814" lon="4.78829">
        <ele>315</ele>
        <time>2022-09-18T07:53:42.000Z</time>
      </trkpt>
      <trkpt lat="49.83816" lon="4.78829">
        <ele>315</ele>
        <time>2022-09-18T07:53:43.000Z</time>
      </trkpt>
      <trkpt lat="49.83816" lon="4.78829">
        <ele>315</ele>
        <time>2022-09-18T07:53:44.000Z</time>
      </trkpt>
      <trkpt lat="49.83817" lon="4.78829">
        <ele>315</ele>
        <time>2022-09-18T07:53:45.000Z</time>
      </trkpt>
      <trkpt lat="49.83818" lon="4.78829">
        <ele>315</ele>
        <time>2022-09-18T07:53:46.000Z</time>
      </trkpt>
      <trkpt lat="49.83818" lon="4.78829">
        <ele>315</ele>
        <time>2022-09-18T07:53:47.000Z</time>
      </trkpt>
      <trkpt lat="49.83819" lon="4.7883">
        <ele>315</ele>
        <time>2022-09-18T07:53:48.000Z</time>
      </trkpt>
      <trkpt lat="49.8382" lon="4.7883">
        <ele>316</ele>
        <time>2022-09-18T07:53:49.000Z</time>
      </trkpt>
      <trkpt lat="49.83821" lon="4.7883">
        <ele>316</ele>
        <time>2022-09-18T07:53:50.000Z</time>
      </trkpt>
      <trkpt lat="49.83823" lon="4.78831">
        <ele>316</ele>
        <time>2022-09-18T07:53:51.000Z</time>
      </trkpt>
      <trkpt lat="49.83824" lon="4.78831">
        <ele>316</ele>
        <time>2022-09-18T07:53:52.000Z</time>
      </trkpt>
      <trkpt lat="49.83826" lon="4.78831">
        <ele>316</ele>
        <time>2022-09-18T07:53:53.000Z</time>
      </trkpt>
      <trkpt lat="49.83828" lon="4.78831">
        <ele>316</ele>
        <time>2022-09-18T07:53:54.000Z</time>
      </trkpt>
      <trkpt lat="49.8383" lon="4.78832">
        <ele>316</ele>
        <time>2022-09-18T07:53:55.000Z</time>
      </trkpt>
      <trkpt lat="49.83832" lon="4.78832">
        <ele>317</ele>
        <time>2022-09-18T07:53:56.000Z</time>
      </trkpt>
      <trkpt lat="49.83834" lon="4.78833">
        <ele>317</ele>
        <time>2022-09-18T07:53:57.000Z</time>
      </trkpt>
      <trkpt lat="49.83836" lon="4.78833">
        <ele>317</ele>
        <time>2022-09-18T07:53:58.000Z</time>
      </trkpt>
      <trkpt lat="49.83838" lon="4.78834">
        <ele>317</ele>
        <time>2022-09-18T07:53:59.000Z</time>
      </trkpt>
      <trkpt lat="49.8384" lon="4.78834">
        <ele>318</ele>
        <time>2022-09-18T07:54:00.000Z</time>
      </trkpt>
      <trkpt lat="49.83842" lon="4.78834">
        <ele>318</ele>
        <time>2022-09-18T07:54:01.000Z</time>
      </trkpt>
      <trkpt lat="49.83844" lon="4.78835">
        <ele>318</ele>
        <time>2022-09-18T07:54:02.000Z</time>
      </trkpt>
      <trkpt lat="49.83846" lon="4.78835">
        <ele>319</ele>
        <time>2022-09-18T07:54:03.000Z</time>
      </trkpt>
      <trkpt lat="49.83848" lon="4.78835">
        <ele>319</ele>
        <time>2022-09-18T07:54:04.000Z</time>
      </trkpt>
      <trkpt lat="49.8385" lon="4.78836">
        <ele>319</ele>
        <time>2022-09-18T07:54:05.000Z</time>
      </trkpt>
      <trkpt lat="49.83852" lon="4.78837">
        <ele>319</ele>
        <time>2022-09-18T07:54:06.000Z</time>
      </trkpt>
      <trkpt lat="49.83854" lon="4.78837">
        <ele>319</ele>
        <time>2022-09-18T07:54:07.000Z</time>
      </trkpt>
      <trkpt lat="49.83856" lon="4.78837">
        <ele>320</ele>
        <time>2022-09-18T07:54:08.000Z</time>
      </trkpt>
      <trkpt lat="49.83858" lon="4.78837">
        <ele>320</ele>
        <time>2022-09-18T07:54:09.000Z</time>
      </trkpt>
      <trkpt lat="49.8386" lon="4.78838">
        <ele>320</ele>
        <time>2022-09-18T07:54:10.000Z</time>
      </trkpt>
      <trkpt lat="49.83862" lon="4.78838">
        <ele>320</ele>
        <time>2022-09-18T07:54:11.000Z</time>
      </trkpt>
      <trkpt lat="49.83864" lon="4.78839">
        <ele>321</ele>
        <time>2022-09-18T07:54:12.000Z</time>
      </trkpt>
      <trkpt lat="49.83866" lon="4.78839">
        <ele>321</ele>
        <time>2022-09-18T07:54:13.000Z</time>
      </trkpt>
      <trkpt lat="49.83868" lon="4.78839">
        <ele>321</ele>
        <time>2022-09-18T07:54:14.000Z</time>
      </trkpt>
      <trkpt lat="49.8387" lon="4.78839">
        <ele>321</ele>
        <time>2022-09-18T07:54:15.000Z</time>
      </trkpt>
      <trkpt lat="49.83872" lon="4.7884">
        <ele>322</ele>
        <time>2022-09-18T07:54:16.000Z</time>
      </trkpt>
      <trkpt lat="49.83874" lon="4.7884">
        <ele>322</ele>
        <time>2022-09-18T07:54:17.000Z</time>
      </trkpt>
      <trkpt lat="49.83876" lon="4.78841">
        <ele>322</ele>
        <time>2022-09-18T07:54:18.000Z</time>
      </trkpt>
      <trkpt lat="49.83878" lon="4.78841">
        <ele>322</ele>
        <time>2022-09-18T07:54:19.000Z</time>
      </trkpt>
      <trkpt lat="49.83881" lon="4.78842">
        <ele>323</ele>
        <time>2022-09-18T07:54:20.000Z</time>
      </trkpt>
      <trkpt lat="49.83883" lon="4.78842">
        <ele>323</ele>
        <time>2022-09-18T07:54:21.000Z</time>
      </trkpt>
      <trkpt lat="49.83885" lon="4.78843">
        <ele>323</ele>
        <time>2022-09-18T07:54:22.000Z</time>
      </trkpt>
      <trkpt lat="49.83887" lon="4.78843">
        <ele>323</ele>
        <time>2022-09-18T07:54:23.000Z</time>
      </trkpt>
      <trkpt lat="49.83889" lon="4.78843">
        <ele>324</ele>
        <time>2022-09-18T07:54:24.000Z</time>
      </trkpt>
      <trkpt lat="49.8389" lon="4.78843">
        <ele>324</ele>
        <time>2022-09-18T07:54:25.000Z</time>
      </trkpt>
      <trkpt lat="49.83892" lon="4.78844">
        <ele>324</ele>
        <time>2022-09-18T07:54:26.000Z</time>
      </trkpt>
      <trkpt lat="49.83894" lon="4.78844">
        <ele>325</ele>
        <time>2022-09-18T07:54:27.000Z</time>
      </trkpt>
      <trkpt lat="49.83896" lon="4.78844">
        <ele>325</ele>
        <time>2022-09-18T07:54:28.000Z</time>
      </trkpt>
      <trkpt lat="49.83898" lon="4.78845">
        <ele>325</ele>
        <time>2022-09-18T07:54:29.000Z</time>
      </trkpt>
      <trkpt lat="49.83899" lon="4.78845">
        <ele>326</ele>
        <time>2022-09-18T07:54:30.000Z</time>
      </trkpt>
      <trkpt lat="49.83901" lon="4.78845">
        <ele>326</ele>
        <time>2022-09-18T07:54:31.000Z</time>
      </trkpt>
      <trkpt lat="49.83903" lon="4.78845">
        <ele>327</ele>
        <time>2022-09-18T07:54:32.000Z</time>
      </trkpt>
      <trkpt lat="49.83904" lon="4.78845">
        <ele>327</ele>
        <time>2022-09-18T07:54:33.000Z</time>
      </trkpt>
      <trkpt lat="49.83906" lon="4.78845">
        <ele>327</ele>
        <time>2022-09-18T07:54:34.000Z</time>
      </trkpt>
      <trkpt lat="49.83908" lon="4.78846">
        <ele>328</ele>
        <time>2022-09-18T07:54:35.000Z</time>
      </trkpt>
      <trkpt lat="49.8391" lon="4.78846">
        <ele>328</ele>
        <time>2022-09-18T07:54:36.000Z</time>
      </trkpt>
      <trkpt lat="49.83912" lon="4.78846">
        <ele>328</ele>
        <time>2022-09-18T07:54:37.000Z</time>
      </trkpt>
      <trkpt lat="49.83915" lon="4.78846">
        <ele>329</ele>
        <time>2022-09-18T07:54:38.000Z</time>
      </trkpt>
      <trkpt lat="49.83917" lon="4.78847">
        <ele>329</ele>
        <time>2022-09-18T07:54:39.000Z</time>
      </trkpt>
      <trkpt lat="49.83919" lon="4.78847">
        <ele>329</ele>
        <time>2022-09-18T07:54:40.000Z</time>
      </trkpt>
      <trkpt lat="49.83921" lon="4.78848">
        <ele>330</ele>
        <time>2022-09-18T07:54:41.000Z</time>
      </trkpt>
      <trkpt lat="49.83923" lon="4.78848">
        <ele>330</ele>
        <time>2022-09-18T07:54:42.000Z</time>
      </trkpt>
      <trkpt lat="49.83925" lon="4.78849">
        <ele>331</ele>
        <time>2022-09-18T07:54:43.000Z</time>
      </trkpt>
      <trkpt lat="49.83927" lon="4.78849">
        <ele>331</ele>
        <time>2022-09-18T07:54:44.000Z</time>
      </trkpt>
      <trkpt lat="49.83929" lon="4.78849">
        <ele>331</ele>
        <time>2022-09-18T07:54:45.000Z</time>
      </trkpt>
      <trkpt lat="49.83931" lon="4.78849">
        <ele>332</ele>
        <time>2022-09-18T07:54:46.000Z</time>
      </trkpt>
      <trkpt lat="49.83933" lon="4.78849">
        <ele>332</ele>
        <time>2022-09-18T07:54:47.000Z</time>
      </trkpt>
      <trkpt lat="49.83935" lon="4.78849">
        <ele>332</ele>
        <time>2022-09-18T07:54:48.000Z</time>
      </trkpt>
      <trkpt lat="49.83937" lon="4.7885">
        <ele>332</ele>
        <time>2022-09-18T07:54:49.000Z</time>
      </trkpt>
      <trkpt lat="49.83938" lon="4.78851">
        <ele>333</ele>
        <time>2022-09-18T07:54:50.000Z</time>
      </trkpt>
      <trkpt lat="49.8394" lon="4.78851">
        <ele>333</ele>
        <time>2022-09-18T07:54:51.000Z</time>
      </trkpt>
      <trkpt lat="49.83942" lon="4.78852">
        <ele>333</ele>
        <time>2022-09-18T07:54:52.000Z</time>
      </trkpt>
      <trkpt lat="49.83944" lon="4.78853">
        <ele>333</ele>
        <time>2022-09-18T07:54:53.000Z</time>
      </trkpt>
      <trkpt lat="49.83946" lon="4.78853">
        <ele>334</ele>
        <time>2022-09-18T07:54:54.000Z</time>
      </trkpt>
      <trkpt lat="49.83948" lon="4.78854">
        <ele>334</ele>
        <time>2022-09-18T07:54:55.000Z</time>
      </trkpt>
      <trkpt lat="49.83949" lon="4.78854">
        <ele>334</ele>
        <time>2022-09-18T07:54:56.000Z</time>
      </trkpt>
      <trkpt lat="49.83951" lon="4.78854">
        <ele>335</ele>
        <time>2022-09-18T07:54:57.000Z</time>
      </trkpt>
      <trkpt lat="49.83952" lon="4.78854">
        <ele>335</ele>
        <time>2022-09-18T07:54:58.000Z</time>
      </trkpt>
      <trkpt lat="49.83952" lon="4.78855">
        <ele>335</ele>
        <time>2022-09-18T07:54:59.000Z</time>
      </trkpt>
      <trkpt lat="49.83953" lon="4.78855">
        <ele>335</ele>
        <time>2022-09-18T07:55:00.000Z</time>
      </trkpt>
      <trkpt lat="49.83953" lon="4.78855">
        <ele>335</ele>
        <time>2022-09-18T07:55:01.000Z</time>
      </trkpt>
      <trkpt lat="49.83954" lon="4.78856">
        <ele>336</ele>
        <time>2022-09-18T07:55:02.000Z</time>
      </trkpt>
      <trkpt lat="49.83955" lon="4.78856">
        <ele>336</ele>
        <time>2022-09-18T07:55:03.000Z</time>
      </trkpt>
      <trkpt lat="49.83956" lon="4.78856">
        <ele>336</ele>
        <time>2022-09-18T07:55:04.000Z</time>
      </trkpt>
      <trkpt lat="49.83958" lon="4.78856">
        <ele>336</ele>
        <time>2022-09-18T07:55:05.000Z</time>
      </trkpt>
      <trkpt lat="49.8396" lon="4.78856">
        <ele>336</ele>
        <time>2022-09-18T07:55:06.000Z</time>
      </trkpt>
      <trkpt lat="49.83961" lon="4.78857">
        <ele>337</ele>
        <time>2022-09-18T07:55:07.000Z</time>
      </trkpt>
      <trkpt lat="49.83963" lon="4.78857">
        <ele>337</ele>
        <time>2022-09-18T07:55:08.000Z</time>
      </trkpt>
      <trkpt lat="49.83965" lon="4.78858">
        <ele>337</ele>
        <time>2022-09-18T07:55:09.000Z</time>
      </trkpt>
      <trkpt lat="49.83967" lon="4.78858">
        <ele>337</ele>
        <time>2022-09-18T07:55:10.000Z</time>
      </trkpt>
      <trkpt lat="49.83969" lon="4.78858">
        <ele>337</ele>
        <time>2022-09-18T07:55:11.000Z</time>
      </trkpt>
      <trkpt lat="49.83971" lon="4.78859">
        <ele>338</ele>
        <time>2022-09-18T07:55:12.000Z</time>
      </trkpt>
      <trkpt lat="49.83973" lon="4.78859">
        <ele>338</ele>
        <time>2022-09-18T07:55:13.000Z</time>
      </trkpt>
      <trkpt lat="49.83974" lon="4.78859">
        <ele>338</ele>
        <time>2022-09-18T07:55:14.000Z</time>
      </trkpt>
      <trkpt lat="49.83976" lon="4.78859">
        <ele>338</ele>
        <time>2022-09-18T07:55:15.000Z</time>
      </trkpt>
      <trkpt lat="49.83978" lon="4.7886">
        <ele>338</ele>
        <time>2022-09-18T07:55:16.000Z</time>
      </trkpt>
      <trkpt lat="49.8398" lon="4.7886">
        <ele>338</ele>
        <time>2022-09-18T07:55:17.000Z</time>
      </trkpt>
      <trkpt lat="49.83982" lon="4.7886">
        <ele>339</ele>
        <time>2022-09-18T07:55:18.000Z</time>
      </trkpt>
      <trkpt lat="49.83984" lon="4.78861">
        <ele>339</ele>
        <time>2022-09-18T07:55:19.000Z</time>
      </trkpt>
      <trkpt lat="49.83986" lon="4.78861">
        <ele>339</ele>
        <time>2022-09-18T07:55:20.000Z</time>
      </trkpt>
      <trkpt lat="49.83988" lon="4.78861">
        <ele>339</ele>
        <time>2022-09-18T07:55:21.000Z</time>
      </trkpt>
      <trkpt lat="49.83989" lon="4.78862">
        <ele>339</ele>
        <time>2022-09-18T07:55:22.000Z</time>
      </trkpt>
      <trkpt lat="49.83991" lon="4.78862">
        <ele>340</ele>
        <time>2022-09-18T07:55:23.000Z</time>
      </trkpt>
      <trkpt lat="49.83993" lon="4.78862">
        <ele>340</ele>
        <time>2022-09-18T07:55:24.000Z</time>
      </trkpt>
      <trkpt lat="49.83995" lon="4.78863">
        <ele>340</ele>
        <time>2022-09-18T07:55:25.000Z</time>
      </trkpt>
      <trkpt lat="49.83997" lon="4.78863">
        <ele>340</ele>
        <time>2022-09-18T07:55:26.000Z</time>
      </trkpt>
      <trkpt lat="49.83999" lon="4.78863">
        <ele>341</ele>
        <time>2022-09-18T07:55:27.000Z</time>
      </trkpt>
      <trkpt lat="49.84001" lon="4.78864">
        <ele>341</ele>
        <time>2022-09-18T07:55:28.000Z</time>
      </trkpt>
      <trkpt lat="49.84003" lon="4.78864">
        <ele>341</ele>
        <time>2022-09-18T07:55:29.000Z</time>
      </trkpt>
      <trkpt lat="49.84005" lon="4.78865">
        <ele>341</ele>
        <time>2022-09-18T07:55:30.000Z</time>
      </trkpt>
      <trkpt lat="49.84007" lon="4.78865">
        <ele>341</ele>
        <time>2022-09-18T07:55:31.000Z</time>
      </trkpt>
      <trkpt lat="49.84009" lon="4.78865">
        <ele>342</ele>
        <time>2022-09-18T07:55:32.000Z</time>
      </trkpt>
      <trkpt lat="49.8401" lon="4.78866">
        <ele>342</ele>
        <time>2022-09-18T07:55:33.000Z</time>
      </trkpt>
      <trkpt lat="49.84012" lon="4.78866">
        <ele>342</ele>
        <time>2022-09-18T07:55:34.000Z</time>
      </trkpt>
      <trkpt lat="49.84014" lon="4.78867">
        <ele>342</ele>
        <time>2022-09-18T07:55:35.000Z</time>
      </trkpt>
      <trkpt lat="49.84016" lon="4.78867">
        <ele>342</ele>
        <time>2022-09-18T07:55:36.000Z</time>
      </trkpt>
      <trkpt lat="49.84018" lon="4.78868">
        <ele>342</ele>
        <time>2022-09-18T07:55:37.000Z</time>
      </trkpt>
      <trkpt lat="49.8402" lon="4.78868">
        <ele>343</ele>
        <time>2022-09-18T07:55:38.000Z</time>
      </trkpt>
      <trkpt lat="49.84022" lon="4.78868">
        <ele>343</ele>
        <time>2022-09-18T07:55:39.000Z</time>
      </trkpt>
      <trkpt lat="49.84024" lon="4.78868">
        <ele>343</ele>
        <time>2022-09-18T07:55:40.000Z</time>
      </trkpt>
      <trkpt lat="49.84026" lon="4.78869">
        <ele>343</ele>
        <time>2022-09-18T07:55:41.000Z</time>
      </trkpt>
      <trkpt lat="49.84028" lon="4.78869">
        <ele>343</ele>
        <time>2022-09-18T07:55:42.000Z</time>
      </trkpt>
      <trkpt lat="49.8403" lon="4.78869">
        <ele>344</ele>
        <time>2022-09-18T07:55:43.000Z</time>
      </trkpt>
      <trkpt lat="49.84032" lon="4.7887">
        <ele>344</ele>
        <time>2022-09-18T07:55:44.000Z</time>
      </trkpt>
      <trkpt lat="49.84034" lon="4.78871">
        <ele>344</ele>
        <time>2022-09-18T07:55:45.000Z</time>
      </trkpt>
      <trkpt lat="49.84036" lon="4.78871">
        <ele>344</ele>
        <time>2022-09-18T07:55:46.000Z</time>
      </trkpt>
      <trkpt lat="49.84038" lon="4.78872">
        <ele>345</ele>
        <time>2022-09-18T07:55:47.000Z</time>
      </trkpt>
      <trkpt lat="49.8404" lon="4.78873">
        <ele>345</ele>
        <time>2022-09-18T07:55:48.000Z</time>
      </trkpt>
      <trkpt lat="49.84042" lon="4.78874">
        <ele>345</ele>
        <time>2022-09-18T07:55:49.000Z</time>
      </trkpt>
      <trkpt lat="49.84044" lon="4.78875">
        <ele>345</ele>
        <time>2022-09-18T07:55:50.000Z</time>
      </trkpt>
      <trkpt lat="49.84045" lon="4.78877">
        <ele>346</ele>
        <time>2022-09-18T07:55:51.000Z</time>
      </trkpt>
      <trkpt lat="49.84046" lon="4.78879">
        <ele>346</ele>
        <time>2022-09-18T07:55:52.000Z</time>
      </trkpt>
      <trkpt lat="49.84046" lon="4.78881">
        <ele>346</ele>
        <time>2022-09-18T07:55:53.000Z</time>
      </trkpt>
      <trkpt lat="49.84047" lon="4.78883">
        <ele>346</ele>
        <time>2022-09-18T07:55:54.000Z</time>
      </trkpt>
      <trkpt lat="49.84047" lon="4.78886">
        <ele>346</ele>
        <time>2022-09-18T07:55:55.000Z</time>
      </trkpt>
      <trkpt lat="49.84048" lon="4.78888">
        <ele>346</ele>
        <time>2022-09-18T07:55:56.000Z</time>
      </trkpt>
      <trkpt lat="49.84049" lon="4.7889">
        <ele>346</ele>
        <time>2022-09-18T07:55:57.000Z</time>
      </trkpt>
      <trkpt lat="49.8405" lon="4.7889">
        <ele>346</ele>
        <time>2022-09-18T07:55:58.000Z</time>
      </trkpt>
      <trkpt lat="49.84052" lon="4.7889">
        <ele>346</ele>
        <time>2022-09-18T07:55:59.000Z</time>
      </trkpt>
      <trkpt lat="49.84054" lon="4.7889">
        <ele>346</ele>
        <time>2022-09-18T07:56:00.000Z</time>
      </trkpt>
      <trkpt lat="49.84057" lon="4.78889">
        <ele>346</ele>
        <time>2022-09-18T07:56:01.000Z</time>
      </trkpt>
      <trkpt lat="49.84059" lon="4.78889">
        <ele>346</ele>
        <time>2022-09-18T07:56:02.000Z</time>
      </trkpt>
      <trkpt lat="49.84062" lon="4.78888">
        <ele>346</ele>
        <time>2022-09-18T07:56:03.000Z</time>
      </trkpt>
      <trkpt lat="49.84064" lon="4.78888">
        <ele>346</ele>
        <time>2022-09-18T07:56:04.000Z</time>
      </trkpt>
      <trkpt lat="49.84066" lon="4.78889">
        <ele>346</ele>
        <time>2022-09-18T07:56:05.000Z</time>
      </trkpt>
      <trkpt lat="49.84069" lon="4.7889">
        <ele>347</ele>
        <time>2022-09-18T07:56:06.000Z</time>
      </trkpt>
      <trkpt lat="49.84072" lon="4.78891">
        <ele>347</ele>
        <time>2022-09-18T07:56:07.000Z</time>
      </trkpt>
      <trkpt lat="49.84074" lon="4.78893">
        <ele>347</ele>
        <time>2022-09-18T07:56:08.000Z</time>
      </trkpt>
      <trkpt lat="49.84077" lon="4.78894">
        <ele>347</ele>
        <time>2022-09-18T07:56:09.000Z</time>
      </trkpt>
      <trkpt lat="49.84079" lon="4.78896">
        <ele>347</ele>
        <time>2022-09-18T07:56:10.000Z</time>
      </trkpt>
      <trkpt lat="49.84082" lon="4.78897">
        <ele>347</ele>
        <time>2022-09-18T07:56:11.000Z</time>
      </trkpt>
      <trkpt lat="49.84084" lon="4.78898">
        <ele>348</ele>
        <time>2022-09-18T07:56:12.000Z</time>
      </trkpt>
      <trkpt lat="49.84087" lon="4.789">
        <ele>348</ele>
        <time>2022-09-18T07:56:13.000Z</time>
      </trkpt>
      <trkpt lat="49.8409" lon="4.78901">
        <ele>348</ele>
        <time>2022-09-18T07:56:14.000Z</time>
      </trkpt>
      <trkpt lat="49.84093" lon="4.78903">
        <ele>348</ele>
        <time>2022-09-18T07:56:15.000Z</time>
      </trkpt>
      <trkpt lat="49.84095" lon="4.78904">
        <ele>348</ele>
        <time>2022-09-18T07:56:16.000Z</time>
      </trkpt>
      <trkpt lat="49.84098" lon="4.78905">
        <ele>348</ele>
        <time>2022-09-18T07:56:17.000Z</time>
      </trkpt>
      <trkpt lat="49.84101" lon="4.78906">
        <ele>348</ele>
        <time>2022-09-18T07:56:18.000Z</time>
      </trkpt>
      <trkpt lat="49.84104" lon="4.78906">
        <ele>348</ele>
        <time>2022-09-18T07:56:19.000Z</time>
      </trkpt>
      <trkpt lat="49.84106" lon="4.78907">
        <ele>348</ele>
        <time>2022-09-18T07:56:20.000Z</time>
      </trkpt>
      <trkpt lat="49.84109" lon="4.78908">
        <ele>348</ele>
        <time>2022-09-18T07:56:21.000Z</time>
      </trkpt>
      <trkpt lat="49.84112" lon="4.78909">
        <ele>348</ele>
        <time>2022-09-18T07:56:22.000Z</time>
      </trkpt>
      <trkpt lat="49.84114" lon="4.78909">
        <ele>348</ele>
        <time>2022-09-18T07:56:23.000Z</time>
      </trkpt>
      <trkpt lat="49.84117" lon="4.7891">
        <ele>349</ele>
        <time>2022-09-18T07:56:24.000Z</time>
      </trkpt>
      <trkpt lat="49.84119" lon="4.78911">
        <ele>349</ele>
        <time>2022-09-18T07:56:25.000Z</time>
      </trkpt>
      <trkpt lat="49.84122" lon="4.78911">
        <ele>349</ele>
        <time>2022-09-18T07:56:26.000Z</time>
      </trkpt>
      <trkpt lat="49.84125" lon="4.78912">
        <ele>349</ele>
        <time>2022-09-18T07:56:27.000Z</time>
      </trkpt>
      <trkpt lat="49.84128" lon="4.78913">
        <ele>349</ele>
        <time>2022-09-18T07:56:28.000Z</time>
      </trkpt>
      <trkpt lat="49.8413" lon="4.78914">
        <ele>350</ele>
        <time>2022-09-18T07:56:29.000Z</time>
      </trkpt>
      <trkpt lat="49.84133" lon="4.78915">
        <ele>350</ele>
        <time>2022-09-18T07:56:30.000Z</time>
      </trkpt>
      <trkpt lat="49.84136" lon="4.78916">
        <ele>350</ele>
        <time>2022-09-18T07:56:31.000Z</time>
      </trkpt>
      <trkpt lat="49.84139" lon="4.78917">
        <ele>350</ele>
        <time>2022-09-18T07:56:32.000Z</time>
      </trkpt>
      <trkpt lat="49.84142" lon="4.78919">
        <ele>350</ele>
        <time>2022-09-18T07:56:33.000Z</time>
      </trkpt>
      <trkpt lat="49.84145" lon="4.78919">
        <ele>350</ele>
        <time>2022-09-18T07:56:34.000Z</time>
      </trkpt>
      <trkpt lat="49.84148" lon="4.7892">
        <ele>351</ele>
        <time>2022-09-18T07:56:35.000Z</time>
      </trkpt>
      <trkpt lat="49.84151" lon="4.78921">
        <ele>351</ele>
        <time>2022-09-18T07:56:36.000Z</time>
      </trkpt>
      <trkpt lat="49.84153" lon="4.78922">
        <ele>351</ele>
        <time>2022-09-18T07:56:37.000Z</time>
      </trkpt>
      <trkpt lat="49.84156" lon="4.78924">
        <ele>351</ele>
        <time>2022-09-18T07:56:38.000Z</time>
      </trkpt>
      <trkpt lat="49.84158" lon="4.78925">
        <ele>352</ele>
        <time>2022-09-18T07:56:39.000Z</time>
      </trkpt>
      <trkpt lat="49.84161" lon="4.78927">
        <ele>352</ele>
        <time>2022-09-18T07:56:40.000Z</time>
      </trkpt>
      <trkpt lat="49.84164" lon="4.78928">
        <ele>352</ele>
        <time>2022-09-18T07:56:41.000Z</time>
      </trkpt>
      <trkpt lat="49.84166" lon="4.7893">
        <ele>352</ele>
        <time>2022-09-18T07:56:42.000Z</time>
      </trkpt>
      <trkpt lat="49.84168" lon="4.78931">
        <ele>352</ele>
        <time>2022-09-18T07:56:43.000Z</time>
      </trkpt>
      <trkpt lat="49.8417" lon="4.78933">
        <ele>353</ele>
        <time>2022-09-18T07:56:44.000Z</time>
      </trkpt>
      <trkpt lat="49.84172" lon="4.78934">
        <ele>353</ele>
        <time>2022-09-18T07:56:45.000Z</time>
      </trkpt>
      <trkpt lat="49.84174" lon="4.78936">
        <ele>353</ele>
        <time>2022-09-18T07:56:46.000Z</time>
      </trkpt>
      <trkpt lat="49.84176" lon="4.78936">
        <ele>353</ele>
        <time>2022-09-18T07:56:47.000Z</time>
      </trkpt>
      <trkpt lat="49.84178" lon="4.78937">
        <ele>354</ele>
        <time>2022-09-18T07:56:48.000Z</time>
      </trkpt>
      <trkpt lat="49.84181" lon="4.78937">
        <ele>354</ele>
        <time>2022-09-18T07:56:49.000Z</time>
      </trkpt>
      <trkpt lat="49.84183" lon="4.78938">
        <ele>354</ele>
        <time>2022-09-18T07:56:50.000Z</time>
      </trkpt>
      <trkpt lat="49.84186" lon="4.7894">
        <ele>355</ele>
        <time>2022-09-18T07:56:51.000Z</time>
      </trkpt>
      <trkpt lat="49.84188" lon="4.78941">
        <ele>355</ele>
        <time>2022-09-18T07:56:52.000Z</time>
      </trkpt>
      <trkpt lat="49.84191" lon="4.78941">
        <ele>355</ele>
        <time>2022-09-18T07:56:53.000Z</time>
      </trkpt>
      <trkpt lat="49.84193" lon="4.78942">
        <ele>356</ele>
        <time>2022-09-18T07:56:54.000Z</time>
      </trkpt>
      <trkpt lat="49.84195" lon="4.78943">
        <ele>356</ele>
        <time>2022-09-18T07:56:55.000Z</time>
      </trkpt>
      <trkpt lat="49.84197" lon="4.78944">
        <ele>356</ele>
        <time>2022-09-18T07:56:56.000Z</time>
      </trkpt>
      <trkpt lat="49.842" lon="4.78946">
        <ele>357</ele>
        <time>2022-09-18T07:56:57.000Z</time>
      </trkpt>
      <trkpt lat="49.84203" lon="4.78947">
        <ele>357</ele>
        <time>2022-09-18T07:56:58.000Z</time>
      </trkpt>
      <trkpt lat="49.84205" lon="4.78949">
        <ele>358</ele>
        <time>2022-09-18T07:56:59.000Z</time>
      </trkpt>
      <trkpt lat="49.84208" lon="4.7895">
        <ele>358</ele>
        <time>2022-09-18T07:57:00.000Z</time>
      </trkpt>
      <trkpt lat="49.8421" lon="4.78952">
        <ele>358</ele>
        <time>2022-09-18T07:57:01.000Z</time>
      </trkpt>
      <trkpt lat="49.84212" lon="4.78954">
        <ele>359</ele>
        <time>2022-09-18T07:57:02.000Z</time>
      </trkpt>
      <trkpt lat="49.84215" lon="4.78956">
        <ele>359</ele>
        <time>2022-09-18T07:57:03.000Z</time>
      </trkpt>
      <trkpt lat="49.84217" lon="4.78959">
        <ele>359</ele>
        <time>2022-09-18T07:57:04.000Z</time>
      </trkpt>
      <trkpt lat="49.8422" lon="4.78961">
        <ele>360</ele>
        <time>2022-09-18T07:57:05.000Z</time>
      </trkpt>
      <trkpt lat="49.84222" lon="4.78963">
        <ele>360</ele>
        <time>2022-09-18T07:57:06.000Z</time>
      </trkpt>
      <trkpt lat="49.84224" lon="4.78966">
        <ele>360</ele>
        <time>2022-09-18T07:57:07.000Z</time>
      </trkpt>
      <trkpt lat="49.84226" lon="4.78969">
        <ele>361</ele>
        <time>2022-09-18T07:57:08.000Z</time>
      </trkpt>
      <trkpt lat="49.84229" lon="4.78971">
        <ele>361</ele>
        <time>2022-09-18T07:57:09.000Z</time>
      </trkpt>
      <trkpt lat="49.84231" lon="4.78974">
        <ele>361</ele>
        <time>2022-09-18T07:57:10.000Z</time>
      </trkpt>
      <trkpt lat="49.84234" lon="4.78976">
        <ele>362</ele>
        <time>2022-09-18T07:57:11.000Z</time>
      </trkpt>
      <trkpt lat="49.84236" lon="4.78979">
        <ele>362</ele>
        <time>2022-09-18T07:57:12.000Z</time>
      </trkpt>
      <trkpt lat="49.84238" lon="4.78981">
        <ele>362</ele>
        <time>2022-09-18T07:57:13.000Z</time>
      </trkpt>
      <trkpt lat="49.84241" lon="4.78984">
        <ele>363</ele>
        <time>2022-09-18T07:57:14.000Z</time>
      </trkpt>
      <trkpt lat="49.84243" lon="4.78987">
        <ele>363</ele>
        <time>2022-09-18T07:57:15.000Z</time>
      </trkpt>
      <trkpt lat="49.84245" lon="4.7899">
        <ele>363</ele>
        <time>2022-09-18T07:57:16.000Z</time>
      </trkpt>
      <trkpt lat="49.84248" lon="4.78992">
        <ele>363</ele>
        <time>2022-09-18T07:57:17.000Z</time>
      </trkpt>
      <trkpt lat="49.8425" lon="4.78995">
        <ele>363</ele>
        <time>2022-09-18T07:57:18.000Z</time>
      </trkpt>
      <trkpt lat="49.84252" lon="4.78998">
        <ele>364</ele>
        <time>2022-09-18T07:57:19.000Z</time>
      </trkpt>
      <trkpt lat="49.84255" lon="4.79001">
        <ele>364</ele>
        <time>2022-09-18T07:57:20.000Z</time>
      </trkpt>
      <trkpt lat="49.84257" lon="4.79004">
        <ele>364</ele>
        <time>2022-09-18T07:57:21.000Z</time>
      </trkpt>
      <trkpt lat="49.84259" lon="4.79008">
        <ele>364</ele>
        <time>2022-09-18T07:57:22.000Z</time>
      </trkpt>
      <trkpt lat="49.8426" lon="4.79011">
        <ele>364</ele>
        <time>2022-09-18T07:57:23.000Z</time>
      </trkpt>
      <trkpt lat="49.84262" lon="4.79014">
        <ele>365</ele>
        <time>2022-09-18T07:57:24.000Z</time>
      </trkpt>
      <trkpt lat="49.84263" lon="4.79017">
        <ele>365</ele>
        <time>2022-09-18T07:57:25.000Z</time>
      </trkpt>
      <trkpt lat="49.84265" lon="4.7902">
        <ele>365</ele>
        <time>2022-09-18T07:57:26.000Z</time>
      </trkpt>
      <trkpt lat="49.84268" lon="4.79024">
        <ele>365</ele>
        <time>2022-09-18T07:57:27.000Z</time>
      </trkpt>
      <trkpt lat="49.8427" lon="4.79028">
        <ele>365</ele>
        <time>2022-09-18T07:57:28.000Z</time>
      </trkpt>
      <trkpt lat="49.84272" lon="4.79032">
        <ele>365</ele>
        <time>2022-09-18T07:57:29.000Z</time>
      </trkpt>
      <trkpt lat="49.84274" lon="4.79034">
        <ele>365</ele>
        <time>2022-09-18T07:57:30.000Z</time>
      </trkpt>
      <trkpt lat="49.84276" lon="4.79037">
        <ele>365</ele>
        <time>2022-09-18T07:57:31.000Z</time>
      </trkpt>
      <trkpt lat="49.84278" lon="4.7904">
        <ele>365</ele>
        <time>2022-09-18T07:57:32.000Z</time>
      </trkpt>
      <trkpt lat="49.84281" lon="4.79043">
        <ele>365</ele>
        <time>2022-09-18T07:57:33.000Z</time>
      </trkpt>
      <trkpt lat="49.84283" lon="4.79046">
        <ele>365</ele>
        <time>2022-09-18T07:57:34.000Z</time>
      </trkpt>
      <trkpt lat="49.84286" lon="4.79048">
        <ele>365</ele>
        <time>2022-09-18T07:57:35.000Z</time>
      </trkpt>
      <trkpt lat="49.84289" lon="4.7905">
        <ele>366</ele>
        <time>2022-09-18T07:57:36.000Z</time>
      </trkpt>
      <trkpt lat="49.84292" lon="4.79053">
        <ele>366</ele>
        <time>2022-09-18T07:57:37.000Z</time>
      </trkpt>
      <trkpt lat="49.84294" lon="4.79055">
        <ele>366</ele>
        <time>2022-09-18T07:57:38.000Z</time>
      </trkpt>
      <trkpt lat="49.84296" lon="4.79057">
        <ele>367</ele>
        <time>2022-09-18T07:57:39.000Z</time>
      </trkpt>
      <trkpt lat="49.84298" lon="4.79059">
        <ele>367</ele>
        <time>2022-09-18T07:57:40.000Z</time>
      </trkpt>
      <trkpt lat="49.84301" lon="4.79061">
        <ele>367</ele>
        <time>2022-09-18T07:57:41.000Z</time>
      </trkpt>
      <trkpt lat="49.84304" lon="4.79062">
        <ele>367</ele>
        <time>2022-09-18T07:57:42.000Z</time>
      </trkpt>
      <trkpt lat="49.84306" lon="4.79064">
        <ele>367</ele>
        <time>2022-09-18T07:57:43.000Z</time>
      </trkpt>
      <trkpt lat="49.84309" lon="4.79066">
        <ele>367</ele>
        <time>2022-09-18T07:57:44.000Z</time>
      </trkpt>
      <trkpt lat="49.84312" lon="4.79068">
        <ele>367</ele>
        <time>2022-09-18T07:57:45.000Z</time>
      </trkpt>
      <trkpt lat="49.84315" lon="4.79069">
        <ele>367</ele>
        <time>2022-09-18T07:57:46.000Z</time>
      </trkpt>
      <trkpt lat="49.84318" lon="4.7907">
        <ele>368</ele>
        <time>2022-09-18T07:57:47.000Z</time>
      </trkpt>
      <trkpt lat="49.8432" lon="4.79072">
        <ele>368</ele>
        <time>2022-09-18T07:57:48.000Z</time>
      </trkpt>
      <trkpt lat="49.84323" lon="4.79074">
        <ele>368</ele>
        <time>2022-09-18T07:57:49.000Z</time>
      </trkpt>
      <trkpt lat="49.84326" lon="4.79075">
        <ele>368</ele>
        <time>2022-09-18T07:57:50.000Z</time>
      </trkpt>
      <trkpt lat="49.84328" lon="4.79076">
        <ele>368</ele>
        <time>2022-09-18T07:57:51.000Z</time>
      </trkpt>
      <trkpt lat="49.8433" lon="4.79077">
        <ele>368</ele>
        <time>2022-09-18T07:57:52.000Z</time>
      </trkpt>
      <trkpt lat="49.84333" lon="4.79078">
        <ele>368</ele>
        <time>2022-09-18T07:57:53.000Z</time>
      </trkpt>
      <trkpt lat="49.84336" lon="4.79079">
        <ele>369</ele>
        <time>2022-09-18T07:57:54.000Z</time>
      </trkpt>
      <trkpt lat="49.84339" lon="4.79081">
        <ele>369</ele>
        <time>2022-09-18T07:57:55.000Z</time>
      </trkpt>
      <trkpt lat="49.84341" lon="4.79082">
        <ele>369</ele>
        <time>2022-09-18T07:57:56.000Z</time>
      </trkpt>
      <trkpt lat="49.84344" lon="4.79083">
        <ele>369</ele>
        <time>2022-09-18T07:57:57.000Z</time>
      </trkpt>
      <trkpt lat="49.84347" lon="4.79084">
        <ele>370</ele>
        <time>2022-09-18T07:57:58.000Z</time>
      </trkpt>
      <trkpt lat="49.84349" lon="4.79086">
        <ele>370</ele>
        <time>2022-09-18T07:57:59.000Z</time>
      </trkpt>
      <trkpt lat="49.84352" lon="4.79088">
        <ele>371</ele>
        <time>2022-09-18T07:58:00.000Z</time>
      </trkpt>
      <trkpt lat="49.84355" lon="4.7909">
        <ele>371</ele>
        <time>2022-09-18T07:58:01.000Z</time>
      </trkpt>
      <trkpt lat="49.84357" lon="4.79091">
        <ele>371</ele>
        <time>2022-09-18T07:58:02.000Z</time>
      </trkpt>
      <trkpt lat="49.8436" lon="4.79093">
        <ele>372</ele>
        <time>2022-09-18T07:58:03.000Z</time>
      </trkpt>
      <trkpt lat="49.84362" lon="4.79094">
        <ele>372</ele>
        <time>2022-09-18T07:58:04.000Z</time>
      </trkpt>
      <trkpt lat="49.84365" lon="4.79096">
        <ele>372</ele>
        <time>2022-09-18T07:58:05.000Z</time>
      </trkpt>
      <trkpt lat="49.84368" lon="4.79097">
        <ele>373</ele>
        <time>2022-09-18T07:58:06.000Z</time>
      </trkpt>
      <trkpt lat="49.8437" lon="4.79099">
        <ele>373</ele>
        <time>2022-09-18T07:58:07.000Z</time>
      </trkpt>
      <trkpt lat="49.84373" lon="4.79101">
        <ele>374</ele>
        <time>2022-09-18T07:58:08.000Z</time>
      </trkpt>
      <trkpt lat="49.84376" lon="4.79102">
        <ele>374</ele>
        <time>2022-09-18T07:58:09.000Z</time>
      </trkpt>
      <trkpt lat="49.84379" lon="4.79103">
        <ele>374</ele>
        <time>2022-09-18T07:58:10.000Z</time>
      </trkpt>
      <trkpt lat="49.84382" lon="4.79104">
        <ele>374</ele>
        <time>2022-09-18T07:58:11.000Z</time>
      </trkpt>
      <trkpt lat="49.84385" lon="4.79106">
        <ele>375</ele>
        <time>2022-09-18T07:58:12.000Z</time>
      </trkpt>
      <trkpt lat="49.84389" lon="4.79107">
        <ele>375</ele>
        <time>2022-09-18T07:58:13.000Z</time>
      </trkpt>
      <trkpt lat="49.84392" lon="4.79108">
        <ele>375</ele>
        <time>2022-09-18T07:58:14.000Z</time>
      </trkpt>
      <trkpt lat="49.84395" lon="4.79109">
        <ele>375</ele>
        <time>2022-09-18T07:58:15.000Z</time>
      </trkpt>
      <trkpt lat="49.84399" lon="4.7911">
        <ele>375</ele>
        <time>2022-09-18T07:58:16.000Z</time>
      </trkpt>
      <trkpt lat="49.84403" lon="4.7911">
        <ele>375</ele>
        <time>2022-09-18T07:58:17.000Z</time>
      </trkpt>
      <trkpt lat="49.84406" lon="4.7911">
        <ele>375</ele>
        <time>2022-09-18T07:58:18.000Z</time>
      </trkpt>
      <trkpt lat="49.8441" lon="4.7911">
        <ele>375</ele>
        <time>2022-09-18T07:58:19.000Z</time>
      </trkpt>
      <trkpt lat="49.84414" lon="4.7911">
        <ele>375</ele>
        <time>2022-09-18T07:58:20.000Z</time>
      </trkpt>
      <trkpt lat="49.84417" lon="4.7911">
        <ele>375</ele>
        <time>2022-09-18T07:58:21.000Z</time>
      </trkpt>
      <trkpt lat="49.84421" lon="4.7911">
        <ele>375</ele>
        <time>2022-09-18T07:58:22.000Z</time>
      </trkpt>
      <trkpt lat="49.84425" lon="4.7911">
        <ele>375</ele>
        <time>2022-09-18T07:58:23.000Z</time>
      </trkpt>
      <trkpt lat="49.84428" lon="4.7911">
        <ele>375</ele>
        <time>2022-09-18T07:58:24.000Z</time>
      </trkpt>
      <trkpt lat="49.84432" lon="4.7911">
        <ele>375</ele>
        <time>2022-09-18T07:58:25.000Z</time>
      </trkpt>
      <trkpt lat="49.84436" lon="4.7911">
        <ele>375</ele>
        <time>2022-09-18T07:58:26.000Z</time>
      </trkpt>
      <trkpt lat="49.8444" lon="4.7911">
        <ele>375</ele>
        <time>2022-09-18T07:58:27.000Z</time>
      </trkpt>
      <trkpt lat="49.84444" lon="4.7911">
        <ele>375</ele>
        <time>2022-09-18T07:58:28.000Z</time>
      </trkpt>
      <trkpt lat="49.84449" lon="4.7911">
        <ele>375</ele>
        <time>2022-09-18T07:58:29.000Z</time>
      </trkpt>
      <trkpt lat="49.84454" lon="4.7911">
        <ele>375</ele>
        <time>2022-09-18T07:58:30.000Z</time>
      </trkpt>
      <trkpt lat="49.84458" lon="4.7911">
        <ele>376</ele>
        <time>2022-09-18T07:58:31.000Z</time>
      </trkpt>
      <trkpt lat="49.84463" lon="4.7911">
        <ele>376</ele>
        <time>2022-09-18T07:58:32.000Z</time>
      </trkpt>
      <trkpt lat="49.84468" lon="4.79109">
        <ele>376</ele>
        <time>2022-09-18T07:58:33.000Z</time>
      </trkpt>
      <trkpt lat="49.84473" lon="4.79108">
        <ele>376</ele>
        <time>2022-09-18T07:58:34.000Z</time>
      </trkpt>
      <trkpt lat="49.84477" lon="4.79107">
        <ele>376</ele>
        <time>2022-09-18T07:58:35.000Z</time>
      </trkpt>
      <trkpt lat="49.84482" lon="4.79106">
        <ele>376</ele>
        <time>2022-09-18T07:58:36.000Z</time>
      </trkpt>
      <trkpt lat="49.84487" lon="4.79106">
        <ele>376</ele>
        <time>2022-09-18T07:58:37.000Z</time>
      </trkpt>
      <trkpt lat="49.84491" lon="4.79107">
        <ele>376</ele>
        <time>2022-09-18T07:58:38.000Z</time>
      </trkpt>
      <trkpt lat="49.84496" lon="4.79107">
        <ele>376</ele>
        <time>2022-09-18T07:58:39.000Z</time>
      </trkpt>
      <trkpt lat="49.845" lon="4.79106">
        <ele>376</ele>
        <time>2022-09-18T07:58:40.000Z</time>
      </trkpt>
      <trkpt lat="49.84505" lon="4.79106">
        <ele>376</ele>
        <time>2022-09-18T07:58:41.000Z</time>
      </trkpt>
      <trkpt lat="49.8451" lon="4.79106">
        <ele>376</ele>
        <time>2022-09-18T07:58:42.000Z</time>
      </trkpt>
      <trkpt lat="49.84516" lon="4.79105">
        <ele>376</ele>
        <time>2022-09-18T07:58:43.000Z</time>
      </trkpt>
      <trkpt lat="49.84521" lon="4.79105">
        <ele>376</ele>
        <time>2022-09-18T07:58:44.000Z</time>
      </trkpt>
      <trkpt lat="49.84527" lon="4.79105">
        <ele>376</ele>
        <time>2022-09-18T07:58:45.000Z</time>
      </trkpt>
      <trkpt lat="49.84533" lon="4.79104">
        <ele>375</ele>
        <time>2022-09-18T07:58:46.000Z</time>
      </trkpt>
      <trkpt lat="49.84538" lon="4.79103">
        <ele>375</ele>
        <time>2022-09-18T07:58:47.000Z</time>
      </trkpt>
      <trkpt lat="49.84543" lon="4.79102">
        <ele>375</ele>
        <time>2022-09-18T07:58:48.000Z</time>
      </trkpt>
      <trkpt lat="49.84549" lon="4.79103">
        <ele>375</ele>
        <time>2022-09-18T07:58:49.000Z</time>
      </trkpt>
      <trkpt lat="49.84555" lon="4.79103">
        <ele>375</ele>
        <time>2022-09-18T07:58:50.000Z</time>
      </trkpt>
      <trkpt lat="49.84561" lon="4.79103">
        <ele>375</ele>
        <time>2022-09-18T07:58:51.000Z</time>
      </trkpt>
      <trkpt lat="49.84567" lon="4.79101">
        <ele>375</ele>
        <time>2022-09-18T07:58:52.000Z</time>
      </trkpt>
      <trkpt lat="49.84572" lon="4.791">
        <ele>375</ele>
        <time>2022-09-18T07:58:53.000Z</time>
      </trkpt>
      <trkpt lat="49.84578" lon="4.79099">
        <ele>375</ele>
        <time>2022-09-18T07:58:54.000Z</time>
      </trkpt>
      <trkpt lat="49.84584" lon="4.79098">
        <ele>375</ele>
        <time>2022-09-18T07:58:55.000Z</time>
      </trkpt>
      <trkpt lat="49.84591" lon="4.79098">
        <ele>375</ele>
        <time>2022-09-18T07:58:56.000Z</time>
      </trkpt>
      <trkpt lat="49.84597" lon="4.79099">
        <ele>374</ele>
        <time>2022-09-18T07:58:57.000Z</time>
      </trkpt>
      <trkpt lat="49.84603" lon="4.79099">
        <ele>374</ele>
        <time>2022-09-18T07:58:58.000Z</time>
      </trkpt>
      <trkpt lat="49.84609" lon="4.79099">
        <ele>374</ele>
        <time>2022-09-18T07:58:59.000Z</time>
      </trkpt>
      <trkpt lat="49.84615" lon="4.791">
        <ele>374</ele>
        <time>2022-09-18T07:59:00.000Z</time>
      </trkpt>
      <trkpt lat="49.84621" lon="4.79102">
        <ele>374</ele>
        <time>2022-09-18T07:59:01.000Z</time>
      </trkpt>
      <trkpt lat="49.84627" lon="4.79104">
        <ele>374</ele>
        <time>2022-09-18T07:59:02.000Z</time>
      </trkpt>
      <trkpt lat="49.84633" lon="4.79106">
        <ele>374</ele>
        <time>2022-09-18T07:59:03.000Z</time>
      </trkpt>
      <trkpt lat="49.84639" lon="4.79108">
        <ele>373</ele>
        <time>2022-09-18T07:59:04.000Z</time>
      </trkpt>
      <trkpt lat="49.84644" lon="4.7911">
        <ele>373</ele>
        <time>2022-09-18T07:59:05.000Z</time>
      </trkpt>
      <trkpt lat="49.84649" lon="4.79113">
        <ele>373</ele>
        <time>2022-09-18T07:59:06.000Z</time>
      </trkpt>
      <trkpt lat="49.84654" lon="4.79116">
        <ele>373</ele>
        <time>2022-09-18T07:59:07.000Z</time>
      </trkpt>
      <trkpt lat="49.84659" lon="4.79118">
        <ele>372</ele>
        <time>2022-09-18T07:59:08.000Z</time>
      </trkpt>
      <trkpt lat="49.84665" lon="4.7912">
        <ele>372</ele>
        <time>2022-09-18T07:59:09.000Z</time>
      </trkpt>
      <trkpt lat="49.84669" lon="4.79122">
        <ele>372</ele>
        <time>2022-09-18T07:59:10.000Z</time>
      </trkpt>
      <trkpt lat="49.84673" lon="4.79123">
        <ele>371</ele>
        <time>2022-09-18T07:59:11.000Z</time>
      </trkpt>
      <trkpt lat="49.84677" lon="4.79124">
        <ele>371</ele>
        <time>2022-09-18T07:59:12.000Z</time>
      </trkpt>
      <trkpt lat="49.84682" lon="4.79126">
        <ele>371</ele>
        <time>2022-09-18T07:59:13.000Z</time>
      </trkpt>
      <trkpt lat="49.84686" lon="4.79128">
        <ele>370</ele>
        <time>2022-09-18T07:59:14.000Z</time>
      </trkpt>
      <trkpt lat="49.8469" lon="4.7913">
        <ele>369</ele>
        <time>2022-09-18T07:59:15.000Z</time>
      </trkpt>
      <trkpt lat="49.84695" lon="4.79133">
        <ele>369</ele>
        <time>2022-09-18T07:59:16.000Z</time>
      </trkpt>
      <trkpt lat="49.847" lon="4.79135">
        <ele>368</ele>
        <time>2022-09-18T07:59:17.000Z</time>
      </trkpt>
      <trkpt lat="49.84705" lon="4.79138">
        <ele>368</ele>
        <time>2022-09-18T07:59:18.000Z</time>
      </trkpt>
      <trkpt lat="49.84709" lon="4.79139">
        <ele>367</ele>
        <time>2022-09-18T07:59:19.000Z</time>
      </trkpt>
      <trkpt lat="49.84713" lon="4.79141">
        <ele>366</ele>
        <time>2022-09-18T07:59:20.000Z</time>
      </trkpt>
      <trkpt lat="49.84716" lon="4.79143">
        <ele>366</ele>
        <time>2022-09-18T07:59:21.000Z</time>
      </trkpt>
      <trkpt lat="49.8472" lon="4.79144">
        <ele>365</ele>
        <time>2022-09-18T07:59:22.000Z</time>
      </trkpt>
      <trkpt lat="49.84723" lon="4.79147">
        <ele>364</ele>
        <time>2022-09-18T07:59:23.000Z</time>
      </trkpt>
      <trkpt lat="49.84727" lon="4.79149">
        <ele>364</ele>
        <time>2022-09-18T07:59:24.000Z</time>
      </trkpt>
      <trkpt lat="49.84731" lon="4.7915">
        <ele>363</ele>
        <time>2022-09-18T07:59:25.000Z</time>
      </trkpt>
      <trkpt lat="49.84736" lon="4.79151">
        <ele>363</ele>
        <time>2022-09-18T07:59:26.000Z</time>
      </trkpt>
      <trkpt lat="49.8474" lon="4.79152">
        <ele>362</ele>
        <time>2022-09-18T07:59:27.000Z</time>
      </trkpt>
      <trkpt lat="49.84745" lon="4.79154">
        <ele>361</ele>
        <time>2022-09-18T07:59:28.000Z</time>
      </trkpt>
      <trkpt lat="49.84749" lon="4.79156">
        <ele>361</ele>
        <time>2022-09-18T07:59:29.000Z</time>
      </trkpt>
      <trkpt lat="49.84754" lon="4.79157">
        <ele>361</ele>
        <time>2022-09-18T07:59:30.000Z</time>
      </trkpt>
      <trkpt lat="49.84759" lon="4.79158">
        <ele>360</ele>
        <time>2022-09-18T07:59:31.000Z</time>
      </trkpt>
      <trkpt lat="49.84765" lon="4.79159">
        <ele>360</ele>
        <time>2022-09-18T07:59:32.000Z</time>
      </trkpt>
      <trkpt lat="49.84771" lon="4.79159">
        <ele>359</ele>
        <time>2022-09-18T07:59:33.000Z</time>
      </trkpt>
      <trkpt lat="49.84778" lon="4.79157">
        <ele>359</ele>
        <time>2022-09-18T07:59:34.000Z</time>
      </trkpt>
      <trkpt lat="49.84784" lon="4.79156">
        <ele>359</ele>
        <time>2022-09-18T07:59:35.000Z</time>
      </trkpt>
      <trkpt lat="49.8479" lon="4.79153">
        <ele>358</ele>
        <time>2022-09-18T07:59:36.000Z</time>
      </trkpt>
      <trkpt lat="49.84795" lon="4.7915">
        <ele>358</ele>
        <time>2022-09-18T07:59:37.000Z</time>
      </trkpt>
      <trkpt lat="49.84799" lon="4.79146">
        <ele>358</ele>
        <time>2022-09-18T07:59:38.000Z</time>
      </trkpt>
      <trkpt lat="49.84803" lon="4.79142">
        <ele>357</ele>
        <time>2022-09-18T07:59:39.000Z</time>
      </trkpt>
      <trkpt lat="49.84807" lon="4.79137">
        <ele>357</ele>
        <time>2022-09-18T07:59:40.000Z</time>
      </trkpt>
      <trkpt lat="49.84811" lon="4.79132">
        <ele>357</ele>
        <time>2022-09-18T07:59:41.000Z</time>
      </trkpt>
      <trkpt lat="49.84815" lon="4.79127">
        <ele>356</ele>
        <time>2022-09-18T07:59:42.000Z</time>
      </trkpt>
      <trkpt lat="49.84818" lon="4.79122">
        <ele>356</ele>
        <time>2022-09-18T07:59:43.000Z</time>
      </trkpt>
      <trkpt lat="49.84821" lon="4.79118">
        <ele>356</ele>
        <time>2022-09-18T07:59:44.000Z</time>
      </trkpt>
      <trkpt lat="49.84825" lon="4.79115">
        <ele>355</ele>
        <time>2022-09-18T07:59:45.000Z</time>
      </trkpt>
      <trkpt lat="49.84827" lon="4.79112">
        <ele>355</ele>
        <time>2022-09-18T07:59:46.000Z</time>
      </trkpt>
      <trkpt lat="49.8483" lon="4.79108">
        <ele>355</ele>
        <time>2022-09-18T07:59:47.000Z</time>
      </trkpt>
      <trkpt lat="49.84832" lon="4.79105">
        <ele>355</ele>
        <time>2022-09-18T07:59:48.000Z</time>
      </trkpt>
      <trkpt lat="49.84835" lon="4.79102">
        <ele>355</ele>
        <time>2022-09-18T07:59:49.000Z</time>
      </trkpt>
      <trkpt lat="49.84837" lon="4.79099">
        <ele>354</ele>
        <time>2022-09-18T07:59:50.000Z</time>
      </trkpt>
      <trkpt lat="49.8484" lon="4.79097">
        <ele>354</ele>
        <time>2022-09-18T07:59:51.000Z</time>
      </trkpt>
      <trkpt lat="49.84843" lon="4.79094">
        <ele>354</ele>
        <time>2022-09-18T07:59:52.000Z</time>
      </trkpt>
      <trkpt lat="49.84846" lon="4.79091">
        <ele>354</ele>
        <time>2022-09-18T07:59:53.000Z</time>
      </trkpt>
      <trkpt lat="49.84848" lon="4.79088">
        <ele>354</ele>
        <time>2022-09-18T07:59:54.000Z</time>
      </trkpt>
      <trkpt lat="49.84851" lon="4.79085">
        <ele>354</ele>
        <time>2022-09-18T07:59:55.000Z</time>
      </trkpt>
      <trkpt lat="49.84853" lon="4.79082">
        <ele>353</ele>
        <time>2022-09-18T07:59:56.000Z</time>
      </trkpt>
      <trkpt lat="49.84855" lon="4.79079">
        <ele>353</ele>
        <time>2022-09-18T07:59:57.000Z</time>
      </trkpt>
      <trkpt lat="49.84857" lon="4.79077">
        <ele>353</ele>
        <time>2022-09-18T07:59:58.000Z</time>
      </trkpt>
      <trkpt lat="49.84859" lon="4.79073">
        <ele>353</ele>
        <time>2022-09-18T07:59:59.000Z</time>
      </trkpt>
      <trkpt lat="49.84862" lon="4.7907">
        <ele>353</ele>
        <time>2022-09-18T08:00:00.000Z</time>
      </trkpt>
      <trkpt lat="49.84865" lon="4.79068">
        <ele>353</ele>
        <time>2022-09-18T08:00:01.000Z</time>
      </trkpt>
      <trkpt lat="49.84867" lon="4.79066">
        <ele>353</ele>
        <time>2022-09-18T08:00:02.000Z</time>
      </trkpt>
      <trkpt lat="49.84868" lon="4.79064">
        <ele>353</ele>
        <time>2022-09-18T08:00:03.000Z</time>
      </trkpt>
      <trkpt lat="49.8487" lon="4.79062">
        <ele>353</ele>
        <time>2022-09-18T08:00:04.000Z</time>
      </trkpt>
      <trkpt lat="49.84871" lon="4.79061">
        <ele>352</ele>
        <time>2022-09-18T08:00:05.000Z</time>
      </trkpt>
      <trkpt lat="49.84872" lon="4.79059">
        <ele>352</ele>
        <time>2022-09-18T08:00:06.000Z</time>
      </trkpt>
      <trkpt lat="49.84874" lon="4.79056">
        <ele>352</ele>
        <time>2022-09-18T08:00:07.000Z</time>
      </trkpt>
      <trkpt lat="49.84876" lon="4.79053">
        <ele>352</ele>
        <time>2022-09-18T08:00:08.000Z</time>
      </trkpt>
      <trkpt lat="49.84877" lon="4.7905">
        <ele>352</ele>
        <time>2022-09-18T08:00:09.000Z</time>
      </trkpt>
      <trkpt lat="49.8488" lon="4.79047">
        <ele>351</ele>
        <time>2022-09-18T08:00:10.000Z</time>
      </trkpt>
      <trkpt lat="49.84883" lon="4.79044">
        <ele>351</ele>
        <time>2022-09-18T08:00:11.000Z</time>
      </trkpt>
      <trkpt lat="49.84886" lon="4.79042">
        <ele>351</ele>
        <time>2022-09-18T08:00:12.000Z</time>
      </trkpt>
      <trkpt lat="49.8489" lon="4.7904">
        <ele>351</ele>
        <time>2022-09-18T08:00:13.000Z</time>
      </trkpt>
      <trkpt lat="49.84893" lon="4.79039">
        <ele>351</ele>
        <time>2022-09-18T08:00:14.000Z</time>
      </trkpt>
      <trkpt lat="49.84896" lon="4.79036">
        <ele>351</ele>
        <time>2022-09-18T08:00:15.000Z</time>
      </trkpt>
      <trkpt lat="49.84899" lon="4.79033">
        <ele>351</ele>
        <time>2022-09-18T08:00:16.000Z</time>
      </trkpt>
      <trkpt lat="49.84903" lon="4.79031">
        <ele>350</ele>
        <time>2022-09-18T08:00:17.000Z</time>
      </trkpt>
      <trkpt lat="49.84907" lon="4.79028">
        <ele>350</ele>
        <time>2022-09-18T08:00:18.000Z</time>
      </trkpt>
      <trkpt lat="49.8491" lon="4.79025">
        <ele>350</ele>
        <time>2022-09-18T08:00:19.000Z</time>
      </trkpt>
      <trkpt lat="49.84913" lon="4.79021">
        <ele>350</ele>
        <time>2022-09-18T08:00:20.000Z</time>
      </trkpt>
      <trkpt lat="49.84916" lon="4.79017">
        <ele>350</ele>
        <time>2022-09-18T08:00:21.000Z</time>
      </trkpt>
      <trkpt lat="49.84919" lon="4.79013">
        <ele>350</ele>
        <time>2022-09-18T08:00:22.000Z</time>
      </trkpt>
      <trkpt lat="49.84922" lon="4.7901">
        <ele>350</ele>
        <time>2022-09-18T08:00:23.000Z</time>
      </trkpt>
      <trkpt lat="49.84925" lon="4.79007">
        <ele>350</ele>
        <time>2022-09-18T08:00:24.000Z</time>
      </trkpt>
      <trkpt lat="49.84928" lon="4.79004">
        <ele>350</ele>
        <time>2022-09-18T08:00:25.000Z</time>
      </trkpt>
      <trkpt lat="49.84931" lon="4.79">
        <ele>350</ele>
        <time>2022-09-18T08:00:26.000Z</time>
      </trkpt>
      <trkpt lat="49.84934" lon="4.78997">
        <ele>349</ele>
        <time>2022-09-18T08:00:27.000Z</time>
      </trkpt>
      <trkpt lat="49.84937" lon="4.78993">
        <ele>349</ele>
        <time>2022-09-18T08:00:28.000Z</time>
      </trkpt>
      <trkpt lat="49.8494" lon="4.78988">
        <ele>349</ele>
        <time>2022-09-18T08:00:29.000Z</time>
      </trkpt>
      <trkpt lat="49.84943" lon="4.78983">
        <ele>349</ele>
        <time>2022-09-18T08:00:30.000Z</time>
      </trkpt>
      <trkpt lat="49.84946" lon="4.78978">
        <ele>349</ele>
        <time>2022-09-18T08:00:31.000Z</time>
      </trkpt>
      <trkpt lat="49.84948" lon="4.78972">
        <ele>348</ele>
        <time>2022-09-18T08:00:32.000Z</time>
      </trkpt>
      <trkpt lat="49.84951" lon="4.78966">
        <ele>348</ele>
        <time>2022-09-18T08:00:33.000Z</time>
      </trkpt>
      <trkpt lat="49.84955" lon="4.7896">
        <ele>348</ele>
        <time>2022-09-18T08:00:34.000Z</time>
      </trkpt>
      <trkpt lat="49.84958" lon="4.78955">
        <ele>348</ele>
        <time>2022-09-18T08:00:35.000Z</time>
      </trkpt>
      <trkpt lat="49.84962" lon="4.7895">
        <ele>347</ele>
        <time>2022-09-18T08:00:36.000Z</time>
      </trkpt>
      <trkpt lat="49.84965" lon="4.78946">
        <ele>347</ele>
        <time>2022-09-18T08:00:37.000Z</time>
      </trkpt>
      <trkpt lat="49.84968" lon="4.7894">
        <ele>347</ele>
        <time>2022-09-18T08:00:38.000Z</time>
      </trkpt>
      <trkpt lat="49.84971" lon="4.78934">
        <ele>347</ele>
        <time>2022-09-18T08:00:39.000Z</time>
      </trkpt>
      <trkpt lat="49.84974" lon="4.78929">
        <ele>346</ele>
        <time>2022-09-18T08:00:40.000Z</time>
      </trkpt>
      <trkpt lat="49.84978" lon="4.78924">
        <ele>346</ele>
        <time>2022-09-18T08:00:41.000Z</time>
      </trkpt>
      <trkpt lat="49.84981" lon="4.78919">
        <ele>346</ele>
        <time>2022-09-18T08:00:42.000Z</time>
      </trkpt>
      <trkpt lat="49.84984" lon="4.78915">
        <ele>346</ele>
        <time>2022-09-18T08:00:43.000Z</time>
      </trkpt>
      <trkpt lat="49.84988" lon="4.7891">
        <ele>346</ele>
        <time>2022-09-18T08:00:44.000Z</time>
      </trkpt>
      <trkpt lat="49.84991" lon="4.78904">
        <ele>345</ele>
        <time>2022-09-18T08:00:45.000Z</time>
      </trkpt>
      <trkpt lat="49.84995" lon="4.78899">
        <ele>345</ele>
        <time>2022-09-18T08:00:46.000Z</time>
      </trkpt>
      <trkpt lat="49.84998" lon="4.78894">
        <ele>345</ele>
        <time>2022-09-18T08:00:47.000Z</time>
      </trkpt>
      <trkpt lat="49.85002" lon="4.7889">
        <ele>345</ele>
        <time>2022-09-18T08:00:48.000Z</time>
      </trkpt>
      <trkpt lat="49.85005" lon="4.78885">
        <ele>345</ele>
        <time>2022-09-18T08:00:49.000Z</time>
      </trkpt>
      <trkpt lat="49.85008" lon="4.78879">
        <ele>345</ele>
        <time>2022-09-18T08:00:50.000Z</time>
      </trkpt>
      <trkpt lat="49.8501" lon="4.78874">
        <ele>344</ele>
        <time>2022-09-18T08:00:51.000Z</time>
      </trkpt>
      <trkpt lat="49.85013" lon="4.78869">
        <ele>344</ele>
        <time>2022-09-18T08:00:52.000Z</time>
      </trkpt>
      <trkpt lat="49.85016" lon="4.78865">
        <ele>344</ele>
        <time>2022-09-18T08:00:53.000Z</time>
      </trkpt>
      <trkpt lat="49.85019" lon="4.78861">
        <ele>344</ele>
        <time>2022-09-18T08:00:54.000Z</time>
      </trkpt>
      <trkpt lat="49.85023" lon="4.78856">
        <ele>344</ele>
        <time>2022-09-18T08:00:55.000Z</time>
      </trkpt>
      <trkpt lat="49.85026" lon="4.78852">
        <ele>344</ele>
        <time>2022-09-18T08:00:56.000Z</time>
      </trkpt>
      <trkpt lat="49.8503" lon="4.78847">
        <ele>343</ele>
        <time>2022-09-18T08:00:57.000Z</time>
      </trkpt>
      <trkpt lat="49.85034" lon="4.78841">
        <ele>343</ele>
        <time>2022-09-18T08:00:58.000Z</time>
      </trkpt>
      <trkpt lat="49.85037" lon="4.78835">
        <ele>343</ele>
        <time>2022-09-18T08:00:59.000Z</time>
      </trkpt>
      <trkpt lat="49.8504" lon="4.78829">
        <ele>343</ele>
        <time>2022-09-18T08:01:00.000Z</time>
      </trkpt>
      <trkpt lat="49.85043" lon="4.78823">
        <ele>343</ele>
        <time>2022-09-18T08:01:01.000Z</time>
      </trkpt>
      <trkpt lat="49.85046" lon="4.78818">
        <ele>343</ele>
        <time>2022-09-18T08:01:02.000Z</time>
      </trkpt>
      <trkpt lat="49.85048" lon="4.78812">
        <ele>343</ele>
        <time>2022-09-18T08:01:03.000Z</time>
      </trkpt>
      <trkpt lat="49.85051" lon="4.78805">
        <ele>343</ele>
        <time>2022-09-18T08:01:04.000Z</time>
      </trkpt>
      <trkpt lat="49.85053" lon="4.78798">
        <ele>342</ele>
        <time>2022-09-18T08:01:05.000Z</time>
      </trkpt>
      <trkpt lat="49.85056" lon="4.78791">
        <ele>342</ele>
        <time>2022-09-18T08:01:06.000Z</time>
      </trkpt>
      <trkpt lat="49.85059" lon="4.78784">
        <ele>342</ele>
        <time>2022-09-18T08:01:07.000Z</time>
      </trkpt>
      <trkpt lat="49.85063" lon="4.78778">
        <ele>342</ele>
        <time>2022-09-18T08:01:08.000Z</time>
      </trkpt>
      <trkpt lat="49.85067" lon="4.78772">
        <ele>342</ele>
        <time>2022-09-18T08:01:09.000Z</time>
      </trkpt>
      <trkpt lat="49.85071" lon="4.78766">
        <ele>342</ele>
        <time>2022-09-18T08:01:10.000Z</time>
      </trkpt>
      <trkpt lat="49.85074" lon="4.78762">
        <ele>342</ele>
        <time>2022-09-18T08:01:11.000Z</time>
      </trkpt>
      <trkpt lat="49.85077" lon="4.78757">
        <ele>342</ele>
        <time>2022-09-18T08:01:12.000Z</time>
      </trkpt>
      <trkpt lat="49.8508" lon="4.78753">
        <ele>342</ele>
        <time>2022-09-18T08:01:13.000Z</time>
      </trkpt>
      <trkpt lat="49.85083" lon="4.78748">
        <ele>342</ele>
        <time>2022-09-18T08:01:14.000Z</time>
      </trkpt>
      <trkpt lat="49.85086" lon="4.78744">
        <ele>341</ele>
        <time>2022-09-18T08:01:15.000Z</time>
      </trkpt>
      <trkpt lat="49.85089" lon="4.7874">
        <ele>341</ele>
        <time>2022-09-18T08:01:16.000Z</time>
      </trkpt>
      <trkpt lat="49.85092" lon="4.78736">
        <ele>341</ele>
        <time>2022-09-18T08:01:17.000Z</time>
      </trkpt>
      <trkpt lat="49.85096" lon="4.78731">
        <ele>341</ele>
        <time>2022-09-18T08:01:18.000Z</time>
      </trkpt>
      <trkpt lat="49.85099" lon="4.78726">
        <ele>341</ele>
        <time>2022-09-18T08:01:19.000Z</time>
      </trkpt>
      <trkpt lat="49.85102" lon="4.78722">
        <ele>341</ele>
        <time>2022-09-18T08:01:20.000Z</time>
      </trkpt>
      <trkpt lat="49.85106" lon="4.78717">
        <ele>341</ele>
        <time>2022-09-18T08:01:21.000Z</time>
      </trkpt>
      <trkpt lat="49.8511" lon="4.78712">
        <ele>340</ele>
        <time>2022-09-18T08:01:22.000Z</time>
      </trkpt>
      <trkpt lat="49.85114" lon="4.78706">
        <ele>340</ele>
        <time>2022-09-18T08:01:23.000Z</time>
      </trkpt>
      <trkpt lat="49.85117" lon="4.787">
        <ele>340</ele>
        <time>2022-09-18T08:01:24.000Z</time>
      </trkpt>
      <trkpt lat="49.85121" lon="4.78694">
        <ele>340</ele>
        <time>2022-09-18T08:01:25.000Z</time>
      </trkpt>
      <trkpt lat="49.85125" lon="4.78689">
        <ele>340</ele>
        <time>2022-09-18T08:01:26.000Z</time>
      </trkpt>
      <trkpt lat="49.85129" lon="4.78684">
        <ele>339</ele>
        <time>2022-09-18T08:01:27.000Z</time>
      </trkpt>
      <trkpt lat="49.85133" lon="4.78679">
        <ele>339</ele>
        <time>2022-09-18T08:01:28.000Z</time>
      </trkpt>
      <trkpt lat="49.85138" lon="4.78674">
        <ele>339</ele>
        <time>2022-09-18T08:01:29.000Z</time>
      </trkpt>
      <trkpt lat="49.85142" lon="4.78669">
        <ele>339</ele>
        <time>2022-09-18T08:01:30.000Z</time>
      </trkpt>
      <trkpt lat="49.85145" lon="4.78664">
        <ele>339</ele>
        <time>2022-09-18T08:01:31.000Z</time>
      </trkpt>
      <trkpt lat="49.85149" lon="4.7866">
        <ele>339</ele>
        <time>2022-09-18T08:01:32.000Z</time>
      </trkpt>
      <trkpt lat="49.85153" lon="4.78656">
        <ele>338</ele>
        <time>2022-09-18T08:01:33.000Z</time>
      </trkpt>
      <trkpt lat="49.85157" lon="4.78652">
        <ele>338</ele>
        <time>2022-09-18T08:01:34.000Z</time>
      </trkpt>
      <trkpt lat="49.85161" lon="4.78647">
        <ele>338</ele>
        <time>2022-09-18T08:01:35.000Z</time>
      </trkpt>
      <trkpt lat="49.85165" lon="4.78643">
        <ele>338</ele>
        <time>2022-09-18T08:01:36.000Z</time>
      </trkpt>
      <trkpt lat="49.8517" lon="4.78638">
        <ele>338</ele>
        <time>2022-09-18T08:01:37.000Z</time>
      </trkpt>
      <trkpt lat="49.85175" lon="4.78633">
        <ele>338</ele>
        <time>2022-09-18T08:01:38.000Z</time>
      </trkpt>
      <trkpt lat="49.8518" lon="4.78628">
        <ele>338</ele>
        <time>2022-09-18T08:01:39.000Z</time>
      </trkpt>
      <trkpt lat="49.85184" lon="4.78622">
        <ele>338</ele>
        <time>2022-09-18T08:01:40.000Z</time>
      </trkpt>
      <trkpt lat="49.85189" lon="4.78615">
        <ele>338</ele>
        <time>2022-09-18T08:01:41.000Z</time>
      </trkpt>
      <trkpt lat="49.85193" lon="4.78609">
        <ele>338</ele>
        <time>2022-09-18T08:01:42.000Z</time>
      </trkpt>
      <trkpt lat="49.85197" lon="4.78603">
        <ele>338</ele>
        <time>2022-09-18T08:01:43.000Z</time>
      </trkpt>
      <trkpt lat="49.852" lon="4.78597">
        <ele>338</ele>
        <time>2022-09-18T08:01:44.000Z</time>
      </trkpt>
      <trkpt lat="49.85204" lon="4.78591">
        <ele>338</ele>
        <time>2022-09-18T08:01:45.000Z</time>
      </trkpt>
      <trkpt lat="49.85207" lon="4.78586">
        <ele>338</ele>
        <time>2022-09-18T08:01:46.000Z</time>
      </trkpt>
      <trkpt lat="49.8521" lon="4.78581">
        <ele>338</ele>
        <time>2022-09-18T08:01:47.000Z</time>
      </trkpt>
      <trkpt lat="49.85214" lon="4.78575">
        <ele>338</ele>
        <time>2022-09-18T08:01:48.000Z</time>
      </trkpt>
      <trkpt lat="49.85218" lon="4.78569">
        <ele>338</ele>
        <time>2022-09-18T08:01:49.000Z</time>
      </trkpt>
      <trkpt lat="49.85221" lon="4.78563">
        <ele>338</ele>
        <time>2022-09-18T08:01:50.000Z</time>
      </trkpt>
      <trkpt lat="49.85225" lon="4.78557">
        <ele>338</ele>
        <time>2022-09-18T08:01:51.000Z</time>
      </trkpt>
      <trkpt lat="49.85228" lon="4.78552">
        <ele>338</ele>
        <time>2022-09-18T08:01:52.000Z</time>
      </trkpt>
      <trkpt lat="49.85231" lon="4.78546">
        <ele>338</ele>
        <time>2022-09-18T08:01:53.000Z</time>
      </trkpt>
      <trkpt lat="49.85235" lon="4.7854">
        <ele>338</ele>
        <time>2022-09-18T08:01:54.000Z</time>
      </trkpt>
      <trkpt lat="49.85238" lon="4.78534">
        <ele>338</ele>
        <time>2022-09-18T08:01:55.000Z</time>
      </trkpt>
      <trkpt lat="49.85241" lon="4.78529">
        <ele>338</ele>
        <time>2022-09-18T08:01:56.000Z</time>
      </trkpt>
      <trkpt lat="49.85244" lon="4.78523">
        <ele>338</ele>
        <time>2022-09-18T08:01:57.000Z</time>
      </trkpt>
      <trkpt lat="49.85248" lon="4.78518">
        <ele>338</ele>
        <time>2022-09-18T08:01:58.000Z</time>
      </trkpt>
      <trkpt lat="49.85252" lon="4.78514">
        <ele>338</ele>
        <time>2022-09-18T08:01:59.000Z</time>
      </trkpt>
      <trkpt lat="49.85255" lon="4.7851">
        <ele>338</ele>
        <time>2022-09-18T08:02:00.000Z</time>
      </trkpt>
      <trkpt lat="49.85258" lon="4.78506">
        <ele>338</ele>
        <time>2022-09-18T08:02:01.000Z</time>
      </trkpt>
      <trkpt lat="49.85262" lon="4.78501">
        <ele>338</ele>
        <time>2022-09-18T08:02:02.000Z</time>
      </trkpt>
      <trkpt lat="49.85265" lon="4.78497">
        <ele>338</ele>
        <time>2022-09-18T08:02:03.000Z</time>
      </trkpt>
      <trkpt lat="49.85269" lon="4.78492">
        <ele>338</ele>
        <time>2022-09-18T08:02:04.000Z</time>
      </trkpt>
      <trkpt lat="49.85272" lon="4.78487">
        <ele>337</ele>
        <time>2022-09-18T08:02:05.000Z</time>
      </trkpt>
      <trkpt lat="49.85274" lon="4.78481">
        <ele>337</ele>
        <time>2022-09-18T08:02:06.000Z</time>
      </trkpt>
      <trkpt lat="49.85276" lon="4.78476">
        <ele>337</ele>
        <time>2022-09-18T08:02:07.000Z</time>
      </trkpt>
      <trkpt lat="49.85278" lon="4.7847">
        <ele>337</ele>
        <time>2022-09-18T08:02:08.000Z</time>
      </trkpt>
      <trkpt lat="49.85281" lon="4.78464">
        <ele>337</ele>
        <time>2022-09-18T08:02:09.000Z</time>
      </trkpt>
      <trkpt lat="49.85284" lon="4.78457">
        <ele>337</ele>
        <time>2022-09-18T08:02:10.000Z</time>
      </trkpt>
      <trkpt lat="49.85287" lon="4.78451">
        <ele>336</ele>
        <time>2022-09-18T08:02:11.000Z</time>
      </trkpt>
      <trkpt lat="49.85291" lon="4.78443">
        <ele>336</ele>
        <time>2022-09-18T08:02:12.000Z</time>
      </trkpt>
      <trkpt lat="49.85295" lon="4.78435">
        <ele>336</ele>
        <time>2022-09-18T08:02:13.000Z</time>
      </trkpt>
      <trkpt lat="49.85299" lon="4.78428">
        <ele>336</ele>
        <time>2022-09-18T08:02:14.000Z</time>
      </trkpt>
      <trkpt lat="49.85303" lon="4.7842">
        <ele>335</ele>
        <time>2022-09-18T08:02:15.000Z</time>
      </trkpt>
      <trkpt lat="49.85308" lon="4.78414">
        <ele>335</ele>
        <time>2022-09-18T08:02:16.000Z</time>
      </trkpt>
      <trkpt lat="49.85312" lon="4.78407">
        <ele>335</ele>
        <time>2022-09-18T08:02:17.000Z</time>
      </trkpt>
      <trkpt lat="49.85316" lon="4.784">
        <ele>334</ele>
        <time>2022-09-18T08:02:18.000Z</time>
      </trkpt>
      <trkpt lat="49.85321" lon="4.78394">
        <ele>334</ele>
        <time>2022-09-18T08:02:19.000Z</time>
      </trkpt>
      <trkpt lat="49.85325" lon="4.78387">
        <ele>334</ele>
        <time>2022-09-18T08:02:20.000Z</time>
      </trkpt>
      <trkpt lat="49.85329" lon="4.78381">
        <ele>333</ele>
        <time>2022-09-18T08:02:21.000Z</time>
      </trkpt>
      <trkpt lat="49.85332" lon="4.78374">
        <ele>333</ele>
        <time>2022-09-18T08:02:22.000Z</time>
      </trkpt>
      <trkpt lat="49.85335" lon="4.78368">
        <ele>333</ele>
        <time>2022-09-18T08:02:23.000Z</time>
      </trkpt>
      <trkpt lat="49.85338" lon="4.78361">
        <ele>332</ele>
        <time>2022-09-18T08:02:24.000Z</time>
      </trkpt>
      <trkpt lat="49.85341" lon="4.78355">
        <ele>332</ele>
        <time>2022-09-18T08:02:25.000Z</time>
      </trkpt>
      <trkpt lat="49.85344" lon="4.78349">
        <ele>332</ele>
        <time>2022-09-18T08:02:26.000Z</time>
      </trkpt>
      <trkpt lat="49.85347" lon="4.78344">
        <ele>331</ele>
        <time>2022-09-18T08:02:27.000Z</time>
      </trkpt>
      <trkpt lat="49.85351" lon="4.78338">
        <ele>331</ele>
        <time>2022-09-18T08:02:28.000Z</time>
      </trkpt>
      <trkpt lat="49.85355" lon="4.78333">
        <ele>330</ele>
        <time>2022-09-18T08:02:29.000Z</time>
      </trkpt>
      <trkpt lat="49.8536" lon="4.78327">
        <ele>330</ele>
        <time>2022-09-18T08:02:30.000Z</time>
      </trkpt>
      <trkpt lat="49.85364" lon="4.78319">
        <ele>329</ele>
        <time>2022-09-18T08:02:31.000Z</time>
      </trkpt>
      <trkpt lat="49.85368" lon="4.78312">
        <ele>329</ele>
        <time>2022-09-18T08:02:32.000Z</time>
      </trkpt>
      <trkpt lat="49.85373" lon="4.78305">
        <ele>328</ele>
        <time>2022-09-18T08:02:33.000Z</time>
      </trkpt>
      <trkpt lat="49.85378" lon="4.78298">
        <ele>328</ele>
        <time>2022-09-18T08:02:34.000Z</time>
      </trkpt>
      <trkpt lat="49.85383" lon="4.78291">
        <ele>328</ele>
        <time>2022-09-18T08:02:35.000Z</time>
      </trkpt>
      <trkpt lat="49.85388" lon="4.78284">
        <ele>327</ele>
        <time>2022-09-18T08:02:36.000Z</time>
      </trkpt>
      <trkpt lat="49.85393" lon="4.78277">
        <ele>327</ele>
        <time>2022-09-18T08:02:37.000Z</time>
      </trkpt>
      <trkpt lat="49.85398" lon="4.78271">
        <ele>326</ele>
        <time>2022-09-18T08:02:38.000Z</time>
      </trkpt>
      <trkpt lat="49.85404" lon="4.78264">
        <ele>326</ele>
        <time>2022-09-18T08:02:39.000Z</time>
      </trkpt>
      <trkpt lat="49.85409" lon="4.78259">
        <ele>325</ele>
        <time>2022-09-18T08:02:40.000Z</time>
      </trkpt>
      <trkpt lat="49.85414" lon="4.78253">
        <ele>324</ele>
        <time>2022-09-18T08:02:41.000Z</time>
      </trkpt>
      <trkpt lat="49.85418" lon="4.78249">
        <ele>324</ele>
        <time>2022-09-18T08:02:42.000Z</time>
      </trkpt>
      <trkpt lat="49.85422" lon="4.78244">
        <ele>323</ele>
        <time>2022-09-18T08:02:43.000Z</time>
      </trkpt>
      <trkpt lat="49.85426" lon="4.78238">
        <ele>323</ele>
        <time>2022-09-18T08:02:44.000Z</time>
      </trkpt>
      <trkpt lat="49.8543" lon="4.78232">
        <ele>322</ele>
        <time>2022-09-18T08:02:45.000Z</time>
      </trkpt>
      <trkpt lat="49.85433" lon="4.78227">
        <ele>322</ele>
        <time>2022-09-18T08:02:46.000Z</time>
      </trkpt>
      <trkpt lat="49.85437" lon="4.78223">
        <ele>322</ele>
        <time>2022-09-18T08:02:47.000Z</time>
      </trkpt>
      <trkpt lat="49.85441" lon="4.78218">
        <ele>321</ele>
        <time>2022-09-18T08:02:48.000Z</time>
      </trkpt>
      <trkpt lat="49.85445" lon="4.78211">
        <ele>321</ele>
        <time>2022-09-18T08:02:49.000Z</time>
      </trkpt>
      <trkpt lat="49.85449" lon="4.78205">
        <ele>320</ele>
        <time>2022-09-18T08:02:50.000Z</time>
      </trkpt>
      <trkpt lat="49.85452" lon="4.78198">
        <ele>320</ele>
        <time>2022-09-18T08:02:51.000Z</time>
      </trkpt>
      <trkpt lat="49.85456" lon="4.78192">
        <ele>320</ele>
        <time>2022-09-18T08:02:52.000Z</time>
      </trkpt>
      <trkpt lat="49.85459" lon="4.78185">
        <ele>319</ele>
        <time>2022-09-18T08:02:53.000Z</time>
      </trkpt>
      <trkpt lat="49.85462" lon="4.78177">
        <ele>319</ele>
        <time>2022-09-18T08:02:54.000Z</time>
      </trkpt>
      <trkpt lat="49.85466" lon="4.78169">
        <ele>318</ele>
        <time>2022-09-18T08:02:55.000Z</time>
      </trkpt>
      <trkpt lat="49.85469" lon="4.78162">
        <ele>318</ele>
        <time>2022-09-18T08:02:56.000Z</time>
      </trkpt>
      <trkpt lat="49.85473" lon="4.78155">
        <ele>317</ele>
        <time>2022-09-18T08:02:57.000Z</time>
      </trkpt>
      <trkpt lat="49.85477" lon="4.78148">
        <ele>317</ele>
        <time>2022-09-18T08:02:58.000Z</time>
      </trkpt>
      <trkpt lat="49.85481" lon="4.7814">
        <ele>316</ele>
        <time>2022-09-18T08:02:59.000Z</time>
      </trkpt>
      <trkpt lat="49.85485" lon="4.78133">
        <ele>316</ele>
        <time>2022-09-18T08:03:00.000Z</time>
      </trkpt>
      <trkpt lat="49.85488" lon="4.78127">
        <ele>316</ele>
        <time>2022-09-18T08:03:01.000Z</time>
      </trkpt>
      <trkpt lat="49.85492" lon="4.7812">
        <ele>315</ele>
        <time>2022-09-18T08:03:02.000Z</time>
      </trkpt>
      <trkpt lat="49.85495" lon="4.78115">
        <ele>315</ele>
        <time>2022-09-18T08:03:03.000Z</time>
      </trkpt>
      <trkpt lat="49.85499" lon="4.7811">
        <ele>314</ele>
        <time>2022-09-18T08:03:04.000Z</time>
      </trkpt>
      <trkpt lat="49.85502" lon="4.78105">
        <ele>314</ele>
        <time>2022-09-18T08:03:05.000Z</time>
      </trkpt>
      <trkpt lat="49.85506" lon="4.781">
        <ele>314</ele>
        <time>2022-09-18T08:03:06.000Z</time>
      </trkpt>
      <trkpt lat="49.8551" lon="4.78096">
        <ele>314</ele>
        <time>2022-09-18T08:03:07.000Z</time>
      </trkpt>
      <trkpt lat="49.85514" lon="4.78091">
        <ele>313</ele>
        <time>2022-09-18T08:03:08.000Z</time>
      </trkpt>
      <trkpt lat="49.85518" lon="4.78087">
        <ele>313</ele>
        <time>2022-09-18T08:03:09.000Z</time>
      </trkpt>
      <trkpt lat="49.85521" lon="4.78082">
        <ele>313</ele>
        <time>2022-09-18T08:03:10.000Z</time>
      </trkpt>
      <trkpt lat="49.85522" lon="4.78077">
        <ele>313</ele>
        <time>2022-09-18T08:03:11.000Z</time>
      </trkpt>
      <trkpt lat="49.85524" lon="4.78071">
        <ele>313</ele>
        <time>2022-09-18T08:03:12.000Z</time>
      </trkpt>
      <trkpt lat="49.85526" lon="4.78065">
        <ele>313</ele>
        <time>2022-09-18T08:03:13.000Z</time>
      </trkpt>
      <trkpt lat="49.85526" lon="4.78058">
        <ele>312</ele>
        <time>2022-09-18T08:03:14.000Z</time>
      </trkpt>
      <trkpt lat="49.85527" lon="4.78051">
        <ele>312</ele>
        <time>2022-09-18T08:03:15.000Z</time>
      </trkpt>
      <trkpt lat="49.85528" lon="4.78045">
        <ele>312</ele>
        <time>2022-09-18T08:03:16.000Z</time>
      </trkpt>
      <trkpt lat="49.85529" lon="4.78038">
        <ele>312</ele>
        <time>2022-09-18T08:03:17.000Z</time>
      </trkpt>
      <trkpt lat="49.8553" lon="4.78032">
        <ele>312</ele>
        <time>2022-09-18T08:03:18.000Z</time>
      </trkpt>
      <trkpt lat="49.85531" lon="4.78025">
        <ele>312</ele>
        <time>2022-09-18T08:03:19.000Z</time>
      </trkpt>
      <trkpt lat="49.85532" lon="4.78018">
        <ele>311</ele>
        <time>2022-09-18T08:03:20.000Z</time>
      </trkpt>
      <trkpt lat="49.85534" lon="4.78011">
        <ele>311</ele>
        <time>2022-09-18T08:03:21.000Z</time>
      </trkpt>
      <trkpt lat="49.85536" lon="4.78004">
        <ele>311</ele>
        <time>2022-09-18T08:03:22.000Z</time>
      </trkpt>
      <trkpt lat="49.85538" lon="4.77997">
        <ele>311</ele>
        <time>2022-09-18T08:03:23.000Z</time>
      </trkpt>
      <trkpt lat="49.8554" lon="4.7799">
        <ele>311</ele>
        <time>2022-09-18T08:03:24.000Z</time>
      </trkpt>
      <trkpt lat="49.85543" lon="4.77983">
        <ele>310</ele>
        <time>2022-09-18T08:03:25.000Z</time>
      </trkpt>
      <trkpt lat="49.85545" lon="4.77976">
        <ele>310</ele>
        <time>2022-09-18T08:03:26.000Z</time>
      </trkpt>
      <trkpt lat="49.85547" lon="4.77969">
        <ele>310</ele>
        <time>2022-09-18T08:03:27.000Z</time>
      </trkpt>
      <trkpt lat="49.85549" lon="4.77961">
        <ele>310</ele>
        <time>2022-09-18T08:03:28.000Z</time>
      </trkpt>
      <trkpt lat="49.85552" lon="4.77954">
        <ele>309</ele>
        <time>2022-09-18T08:03:29.000Z</time>
      </trkpt>
      <trkpt lat="49.85554" lon="4.77946">
        <ele>309</ele>
        <time>2022-09-18T08:03:30.000Z</time>
      </trkpt>
      <trkpt lat="49.85556" lon="4.77939">
        <ele>309</ele>
        <time>2022-09-18T08:03:31.000Z</time>
      </trkpt>
      <trkpt lat="49.85557" lon="4.77931">
        <ele>309</ele>
        <time>2022-09-18T08:03:32.000Z</time>
      </trkpt>
      <trkpt lat="49.85558" lon="4.77923">
        <ele>309</ele>
        <time>2022-09-18T08:03:33.000Z</time>
      </trkpt>
      <trkpt lat="49.8556" lon="4.77916">
        <ele>309</ele>
        <time>2022-09-18T08:03:34.000Z</time>
      </trkpt>
      <trkpt lat="49.85561" lon="4.77909">
        <ele>309</ele>
        <time>2022-09-18T08:03:35.000Z</time>
      </trkpt>
      <trkpt lat="49.85563" lon="4.77904">
        <ele>309</ele>
        <time>2022-09-18T08:03:36.000Z</time>
      </trkpt>
      <trkpt lat="49.85566" lon="4.77898">
        <ele>308</ele>
        <time>2022-09-18T08:03:37.000Z</time>
      </trkpt>
      <trkpt lat="49.85568" lon="4.77893">
        <ele>308</ele>
        <time>2022-09-18T08:03:38.000Z</time>
      </trkpt>
      <trkpt lat="49.85571" lon="4.77888">
        <ele>308</ele>
        <time>2022-09-18T08:03:39.000Z</time>
      </trkpt>
      <trkpt lat="49.85573" lon="4.77882">
        <ele>308</ele>
        <time>2022-09-18T08:03:40.000Z</time>
      </trkpt>
      <trkpt lat="49.85575" lon="4.77877">
        <ele>308</ele>
        <time>2022-09-18T08:03:41.000Z</time>
      </trkpt>
      <trkpt lat="49.85577" lon="4.77872">
        <ele>308</ele>
        <time>2022-09-18T08:03:42.000Z</time>
      </trkpt>
      <trkpt lat="49.85579" lon="4.77866">
        <ele>308</ele>
        <time>2022-09-18T08:03:43.000Z</time>
      </trkpt>
      <trkpt lat="49.85582" lon="4.77861">
        <ele>308</ele>
        <time>2022-09-18T08:03:44.000Z</time>
      </trkpt>
      <trkpt lat="49.85584" lon="4.77858">
        <ele>308</ele>
        <time>2022-09-18T08:03:45.000Z</time>
      </trkpt>
      <trkpt lat="49.85588" lon="4.77854">
        <ele>308</ele>
        <time>2022-09-18T08:03:46.000Z</time>
      </trkpt>
      <trkpt lat="49.85592" lon="4.77852">
        <ele>307</ele>
        <time>2022-09-18T08:03:47.000Z</time>
      </trkpt>
      <trkpt lat="49.85595" lon="4.77849">
        <ele>307</ele>
        <time>2022-09-18T08:03:48.000Z</time>
      </trkpt>
      <trkpt lat="49.85598" lon="4.77846">
        <ele>307</ele>
        <time>2022-09-18T08:03:49.000Z</time>
      </trkpt>
      <trkpt lat="49.85601" lon="4.77843">
        <ele>307</ele>
        <time>2022-09-18T08:03:50.000Z</time>
      </trkpt>
      <trkpt lat="49.85604" lon="4.77841">
        <ele>307</ele>
        <time>2022-09-18T08:03:51.000Z</time>
      </trkpt>
      <trkpt lat="49.85607" lon="4.77838">
        <ele>307</ele>
        <time>2022-09-18T08:03:52.000Z</time>
      </trkpt>
      <trkpt lat="49.8561" lon="4.77835">
        <ele>308</ele>
        <time>2022-09-18T08:03:53.000Z</time>
      </trkpt>
      <trkpt lat="49.85613" lon="4.77833">
        <ele>308</ele>
        <time>2022-09-18T08:03:54.000Z</time>
      </trkpt>
      <trkpt lat="49.85614" lon="4.77831">
        <ele>308</ele>
        <time>2022-09-18T08:03:55.000Z</time>
      </trkpt>
      <trkpt lat="49.85616" lon="4.77829">
        <ele>308</ele>
        <time>2022-09-18T08:03:56.000Z</time>
      </trkpt>
      <trkpt lat="49.85618" lon="4.77827">
        <ele>308</ele>
        <time>2022-09-18T08:03:57.000Z</time>
      </trkpt>
      <trkpt lat="49.8562" lon="4.77826">
        <ele>308</ele>
        <time>2022-09-18T08:03:58.000Z</time>
      </trkpt>
      <trkpt lat="49.85622" lon="4.77824">
        <ele>308</ele>
        <time>2022-09-18T08:03:59.000Z</time>
      </trkpt>
      <trkpt lat="49.85624" lon="4.77821">
        <ele>308</ele>
        <time>2022-09-18T08:04:00.000Z</time>
      </trkpt>
      <trkpt lat="49.85626" lon="4.77819">
        <ele>308</ele>
        <time>2022-09-18T08:04:01.000Z</time>
      </trkpt>
      <trkpt lat="49.85627" lon="4.77817">
        <ele>309</ele>
        <time>2022-09-18T08:04:02.000Z</time>
      </trkpt>
      <trkpt lat="49.85629" lon="4.77815">
        <ele>309</ele>
        <time>2022-09-18T08:04:03.000Z</time>
      </trkpt>
      <trkpt lat="49.8563" lon="4.77814">
        <ele>309</ele>
        <time>2022-09-18T08:04:04.000Z</time>
      </trkpt>
      <trkpt lat="49.8563" lon="4.77814">
        <ele>309</ele>
        <time>2022-09-18T08:04:05.000Z</time>
      </trkpt>
      <trkpt lat="49.8563" lon="4.77814">
        <ele>309</ele>
        <time>2022-09-18T08:04:06.000Z</time>
      </trkpt>
      <trkpt lat="49.85631" lon="4.77813">
        <ele>309</ele>
        <time>2022-09-18T08:04:07.000Z</time>
      </trkpt>
      <trkpt lat="49.85631" lon="4.77814">
        <ele>309</ele>
        <time>2022-09-18T08:04:08.000Z</time>
      </trkpt>
      <trkpt lat="49.8563" lon="4.77814">
        <ele>309</ele>
        <time>2022-09-18T08:04:09.000Z</time>
      </trkpt>
      <trkpt lat="49.8563" lon="4.77814">
        <ele>309</ele>
        <time>2022-09-18T08:04:10.000Z</time>
      </trkpt>
      <trkpt lat="49.85629" lon="4.77814">
        <ele>310</ele>
        <time>2022-09-18T08:04:11.000Z</time>
      </trkpt>
      <trkpt lat="49.85629" lon="4.77815">
        <ele>310</ele>
        <time>2022-09-18T08:04:12.000Z</time>
      </trkpt>
      <trkpt lat="49.85627" lon="4.77815">
        <ele>310</ele>
        <time>2022-09-18T08:04:13.000Z</time>
      </trkpt>
      <trkpt lat="49.85625" lon="4.77817">
        <ele>310</ele>
        <time>2022-09-18T08:04:14.000Z</time>
      </trkpt>
      <trkpt lat="49.85624" lon="4.77818">
        <ele>310</ele>
        <time>2022-09-18T08:04:15.000Z</time>
      </trkpt>
      <trkpt lat="49.85622" lon="4.77819">
        <ele>310</ele>
        <time>2022-09-18T08:04:16.000Z</time>
      </trkpt>
      <trkpt lat="49.85621" lon="4.77819">
        <ele>311</ele>
        <time>2022-09-18T08:04:17.000Z</time>
      </trkpt>
      <trkpt lat="49.85619" lon="4.77817">
        <ele>311</ele>
        <time>2022-09-18T08:04:18.000Z</time>
      </trkpt>
      <trkpt lat="49.85618" lon="4.77814">
        <ele>311</ele>
        <time>2022-09-18T08:04:19.000Z</time>
      </trkpt>
      <trkpt lat="49.85617" lon="4.77811">
        <ele>311</ele>
        <time>2022-09-18T08:04:20.000Z</time>
      </trkpt>
      <trkpt lat="49.85616" lon="4.77808">
        <ele>311</ele>
        <time>2022-09-18T08:04:21.000Z</time>
      </trkpt>
      <trkpt lat="49.85614" lon="4.77805">
        <ele>311</ele>
        <time>2022-09-18T08:04:22.000Z</time>
      </trkpt>
      <trkpt lat="49.85613" lon="4.77802">
        <ele>311</ele>
        <time>2022-09-18T08:04:23.000Z</time>
      </trkpt>
      <trkpt lat="49.85612" lon="4.77799">
        <ele>311</ele>
        <time>2022-09-18T08:04:24.000Z</time>
      </trkpt>
      <trkpt lat="49.85611" lon="4.77797">
        <ele>311</ele>
        <time>2022-09-18T08:04:25.000Z</time>
      </trkpt>
      <trkpt lat="49.8561" lon="4.77793">
        <ele>311</ele>
        <time>2022-09-18T08:04:26.000Z</time>
      </trkpt>
      <trkpt lat="49.85608" lon="4.77789">
        <ele>310</ele>
        <time>2022-09-18T08:04:27.000Z</time>
      </trkpt>
      <trkpt lat="49.85606" lon="4.77784">
        <ele>310</ele>
        <time>2022-09-18T08:04:28.000Z</time>
      </trkpt>
      <trkpt lat="49.85605" lon="4.7778">
        <ele>310</ele>
        <time>2022-09-18T08:04:29.000Z</time>
      </trkpt>
      <trkpt lat="49.85603" lon="4.77776">
        <ele>310</ele>
        <time>2022-09-18T08:04:30.000Z</time>
      </trkpt>
      <trkpt lat="49.85601" lon="4.77772">
        <ele>310</ele>
        <time>2022-09-18T08:04:31.000Z</time>
      </trkpt>
      <trkpt lat="49.85599" lon="4.77767">
        <ele>310</ele>
        <time>2022-09-18T08:04:32.000Z</time>
      </trkpt>
      <trkpt lat="49.85597" lon="4.77763">
        <ele>310</ele>
        <time>2022-09-18T08:04:33.000Z</time>
      </trkpt>
      <trkpt lat="49.85595" lon="4.77758">
        <ele>311</ele>
        <time>2022-09-18T08:04:34.000Z</time>
      </trkpt>
      <trkpt lat="49.85594" lon="4.77754">
        <ele>311</ele>
        <time>2022-09-18T08:04:35.000Z</time>
      </trkpt>
      <trkpt lat="49.85593" lon="4.77749">
        <ele>311</ele>
        <time>2022-09-18T08:04:36.000Z</time>
      </trkpt>
      <trkpt lat="49.85594" lon="4.77745">
        <ele>311</ele>
        <time>2022-09-18T08:04:37.000Z</time>
      </trkpt>
      <trkpt lat="49.85595" lon="4.77742">
        <ele>311</ele>
        <time>2022-09-18T08:04:38.000Z</time>
      </trkpt>
      <trkpt lat="49.85598" lon="4.77739">
        <ele>311</ele>
        <time>2022-09-18T08:04:39.000Z</time>
      </trkpt>
      <trkpt lat="49.856" lon="4.77736">
        <ele>311</ele>
        <time>2022-09-18T08:04:40.000Z</time>
      </trkpt>
      <trkpt lat="49.85603" lon="4.77734">
        <ele>311</ele>
        <time>2022-09-18T08:04:41.000Z</time>
      </trkpt>
      <trkpt lat="49.85606" lon="4.77733">
        <ele>311</ele>
        <time>2022-09-18T08:04:42.000Z</time>
      </trkpt>
      <trkpt lat="49.85609" lon="4.77731">
        <ele>311</ele>
        <time>2022-09-18T08:04:43.000Z</time>
      </trkpt>
      <trkpt lat="49.85612" lon="4.77729">
        <ele>311</ele>
        <time>2022-09-18T08:04:44.000Z</time>
      </trkpt>
      <trkpt lat="49.85615" lon="4.77727">
        <ele>311</ele>
        <time>2022-09-18T08:04:45.000Z</time>
      </trkpt>
      <trkpt lat="49.85618" lon="4.77724">
        <ele>311</ele>
        <time>2022-09-18T08:04:46.000Z</time>
      </trkpt>
      <trkpt lat="49.85621" lon="4.77721">
        <ele>311</ele>
        <time>2022-09-18T08:04:47.000Z</time>
      </trkpt>
      <trkpt lat="49.85626" lon="4.77718">
        <ele>311</ele>
        <time>2022-09-18T08:04:48.000Z</time>
      </trkpt>
      <trkpt lat="49.85629" lon="4.77716">
        <ele>311</ele>
        <time>2022-09-18T08:04:49.000Z</time>
      </trkpt>
      <trkpt lat="49.85632" lon="4.77713">
        <ele>310</ele>
        <time>2022-09-18T08:04:50.000Z</time>
      </trkpt>
      <trkpt lat="49.85635" lon="4.77711">
        <ele>310</ele>
        <time>2022-09-18T08:04:51.000Z</time>
      </trkpt>
      <trkpt lat="49.85639" lon="4.77707">
        <ele>310</ele>
        <time>2022-09-18T08:04:52.000Z</time>
      </trkpt>
      <trkpt lat="49.85642" lon="4.77703">
        <ele>310</ele>
        <time>2022-09-18T08:04:53.000Z</time>
      </trkpt>
      <trkpt lat="49.85644" lon="4.777">
        <ele>310</ele>
        <time>2022-09-18T08:04:54.000Z</time>
      </trkpt>
      <trkpt lat="49.85647" lon="4.77698">
        <ele>310</ele>
        <time>2022-09-18T08:04:55.000Z</time>
      </trkpt>
      <trkpt lat="49.8565" lon="4.77695">
        <ele>309</ele>
        <time>2022-09-18T08:04:56.000Z</time>
      </trkpt>
      <trkpt lat="49.85653" lon="4.77692">
        <ele>309</ele>
        <time>2022-09-18T08:04:57.000Z</time>
      </trkpt>
      <trkpt lat="49.85656" lon="4.77689">
        <ele>309</ele>
        <time>2022-09-18T08:04:58.000Z</time>
      </trkpt>
      <trkpt lat="49.8566" lon="4.77686">
        <ele>309</ele>
        <time>2022-09-18T08:04:59.000Z</time>
      </trkpt>
      <trkpt lat="49.85663" lon="4.77683">
        <ele>309</ele>
        <time>2022-09-18T08:05:00.000Z</time>
      </trkpt>
      <trkpt lat="49.85666" lon="4.77681">
        <ele>309</ele>
        <time>2022-09-18T08:05:01.000Z</time>
      </trkpt>
      <trkpt lat="49.85669" lon="4.77678">
        <ele>309</ele>
        <time>2022-09-18T08:05:02.000Z</time>
      </trkpt>
      <trkpt lat="49.85672" lon="4.77675">
        <ele>309</ele>
        <time>2022-09-18T08:05:03.000Z</time>
      </trkpt>
      <trkpt lat="49.85675" lon="4.77672">
        <ele>308</ele>
        <time>2022-09-18T08:05:04.000Z</time>
      </trkpt>
      <trkpt lat="49.85679" lon="4.77669">
        <ele>308</ele>
        <time>2022-09-18T08:05:05.000Z</time>
      </trkpt>
      <trkpt lat="49.85681" lon="4.77667">
        <ele>308</ele>
        <time>2022-09-18T08:05:06.000Z</time>
      </trkpt>
      <trkpt lat="49.85683" lon="4.77665">
        <ele>308</ele>
        <time>2022-09-18T08:05:07.000Z</time>
      </trkpt>
      <trkpt lat="49.85686" lon="4.77662">
        <ele>308</ele>
        <time>2022-09-18T08:05:08.000Z</time>
      </trkpt>
      <trkpt lat="49.85688" lon="4.77659">
        <ele>308</ele>
        <time>2022-09-18T08:05:09.000Z</time>
      </trkpt>
      <trkpt lat="49.85691" lon="4.77655">
        <ele>308</ele>
        <time>2022-09-18T08:05:10.000Z</time>
      </trkpt>
      <trkpt lat="49.85695" lon="4.77652">
        <ele>307</ele>
        <time>2022-09-18T08:05:11.000Z</time>
      </trkpt>
      <trkpt lat="49.85699" lon="4.77648">
        <ele>307</ele>
        <time>2022-09-18T08:05:12.000Z</time>
      </trkpt>
      <trkpt lat="49.85702" lon="4.77646">
        <ele>307</ele>
        <time>2022-09-18T08:05:13.000Z</time>
      </trkpt>
      <trkpt lat="49.85706" lon="4.77644">
        <ele>307</ele>
        <time>2022-09-18T08:05:14.000Z</time>
      </trkpt>
      <trkpt lat="49.85709" lon="4.77642">
        <ele>307</ele>
        <time>2022-09-18T08:05:15.000Z</time>
      </trkpt>
      <trkpt lat="49.85712" lon="4.77639">
        <ele>307</ele>
        <time>2022-09-18T08:05:16.000Z</time>
      </trkpt>
      <trkpt lat="49.85714" lon="4.77635">
        <ele>306</ele>
        <time>2022-09-18T08:05:17.000Z</time>
      </trkpt>
      <trkpt lat="49.85717" lon="4.77633">
        <ele>306</ele>
        <time>2022-09-18T08:05:18.000Z</time>
      </trkpt>
      <trkpt lat="49.85719" lon="4.77631">
        <ele>306</ele>
        <time>2022-09-18T08:05:19.000Z</time>
      </trkpt>
      <trkpt lat="49.85721" lon="4.77629">
        <ele>306</ele>
        <time>2022-09-18T08:05:20.000Z</time>
      </trkpt>
      <trkpt lat="49.85723" lon="4.77627">
        <ele>305</ele>
        <time>2022-09-18T08:05:21.000Z</time>
      </trkpt>
      <trkpt lat="49.85724" lon="4.77624">
        <ele>305</ele>
        <time>2022-09-18T08:05:22.000Z</time>
      </trkpt>
      <trkpt lat="49.85725" lon="4.77622">
        <ele>305</ele>
        <time>2022-09-18T08:05:23.000Z</time>
      </trkpt>
      <trkpt lat="49.85726" lon="4.77621">
        <ele>304</ele>
        <time>2022-09-18T08:05:24.000Z</time>
      </trkpt>
      <trkpt lat="49.85727" lon="4.7762">
        <ele>304</ele>
        <time>2022-09-18T08:05:25.000Z</time>
      </trkpt>
      <trkpt lat="49.85727" lon="4.77619">
        <ele>304</ele>
        <time>2022-09-18T08:05:26.000Z</time>
      </trkpt>
      <trkpt lat="49.85728" lon="4.77618">
        <ele>303</ele>
        <time>2022-09-18T08:05:27.000Z</time>
      </trkpt>
      <trkpt lat="49.85728" lon="4.77617">
        <ele>303</ele>
        <time>2022-09-18T08:05:28.000Z</time>
      </trkpt>
      <trkpt lat="49.85729" lon="4.77617">
        <ele>303</ele>
        <time>2022-09-18T08:05:29.000Z</time>
      </trkpt>
      <trkpt lat="49.85729" lon="4.77616">
        <ele>303</ele>
        <time>2022-09-18T08:05:30.000Z</time>
      </trkpt>
      <trkpt lat="49.85729" lon="4.77615">
        <ele>303</ele>
        <time>2022-09-18T08:05:31.000Z</time>
      </trkpt>
      <trkpt lat="49.8573" lon="4.77615">
        <ele>303</ele>
        <time>2022-09-18T08:05:32.000Z</time>
      </trkpt>
      <trkpt lat="49.8573" lon="4.77614">
        <ele>303</ele>
        <time>2022-09-18T08:05:33.000Z</time>
      </trkpt>
      <trkpt lat="49.8573" lon="4.77613">
        <ele>302</ele>
        <time>2022-09-18T08:05:34.000Z</time>
      </trkpt>
      <trkpt lat="49.8573" lon="4.77612">
        <ele>302</ele>
        <time>2022-09-18T08:05:35.000Z</time>
      </trkpt>
      <trkpt lat="49.8573" lon="4.7761">
        <ele>302</ele>
        <time>2022-09-18T08:05:36.000Z</time>
      </trkpt>
      <trkpt lat="49.8573" lon="4.77609">
        <ele>302</ele>
        <time>2022-09-18T08:05:37.000Z</time>
      </trkpt>
      <trkpt lat="49.8573" lon="4.77606">
        <ele>301</ele>
        <time>2022-09-18T08:05:38.000Z</time>
      </trkpt>
      <trkpt lat="49.85729" lon="4.77605">
        <ele>301</ele>
        <time>2022-09-18T08:05:39.000Z</time>
      </trkpt>
      <trkpt lat="49.85728" lon="4.77602">
        <ele>301</ele>
        <time>2022-09-18T08:05:40.000Z</time>
      </trkpt>
      <trkpt lat="49.85728" lon="4.77599">
        <ele>300</ele>
        <time>2022-09-18T08:05:41.000Z</time>
      </trkpt>
      <trkpt lat="49.85727" lon="4.77597">
        <ele>300</ele>
        <time>2022-09-18T08:05:42.000Z</time>
      </trkpt>
      <trkpt lat="49.85726" lon="4.77596">
        <ele>300</ele>
        <time>2022-09-18T08:05:43.000Z</time>
      </trkpt>
      <trkpt lat="49.85726" lon="4.77594">
        <ele>299</ele>
        <time>2022-09-18T08:05:44.000Z</time>
      </trkpt>
      <trkpt lat="49.85725" lon="4.77591">
        <ele>299</ele>
        <time>2022-09-18T08:05:45.000Z</time>
      </trkpt>
      <trkpt lat="49.85724" lon="4.77589">
        <ele>299</ele>
        <time>2022-09-18T08:05:46.000Z</time>
      </trkpt>
      <trkpt lat="49.85723" lon="4.77586">
        <ele>298</ele>
        <time>2022-09-18T08:05:47.000Z</time>
      </trkpt>
      <trkpt lat="49.85722" lon="4.77582">
        <ele>298</ele>
        <time>2022-09-18T08:05:48.000Z</time>
      </trkpt>
      <trkpt lat="49.85721" lon="4.77578">
        <ele>297</ele>
        <time>2022-09-18T08:05:49.000Z</time>
      </trkpt>
      <trkpt lat="49.8572" lon="4.77573">
        <ele>297</ele>
        <time>2022-09-18T08:05:50.000Z</time>
      </trkpt>
      <trkpt lat="49.85719" lon="4.77567">
        <ele>297</ele>
        <time>2022-09-18T08:05:51.000Z</time>
      </trkpt>
      <trkpt lat="49.85718" lon="4.77562">
        <ele>296</ele>
        <time>2022-09-18T08:05:52.000Z</time>
      </trkpt>
      <trkpt lat="49.85716" lon="4.77557">
        <ele>296</ele>
        <time>2022-09-18T08:05:53.000Z</time>
      </trkpt>
      <trkpt lat="49.85714" lon="4.77552">
        <ele>295</ele>
        <time>2022-09-18T08:05:54.000Z</time>
      </trkpt>
      <trkpt lat="49.85712" lon="4.77547">
        <ele>295</ele>
        <time>2022-09-18T08:05:55.000Z</time>
      </trkpt>
      <trkpt lat="49.8571" lon="4.77541">
        <ele>294</ele>
        <time>2022-09-18T08:05:56.000Z</time>
      </trkpt>
      <trkpt lat="49.85708" lon="4.77535">
        <ele>294</ele>
        <time>2022-09-18T08:05:57.000Z</time>
      </trkpt>
      <trkpt lat="49.85706" lon="4.77531">
        <ele>294</ele>
        <time>2022-09-18T08:05:58.000Z</time>
      </trkpt>
      <trkpt lat="49.85705" lon="4.77527">
        <ele>293</ele>
        <time>2022-09-18T08:05:59.000Z</time>
      </trkpt>
      <trkpt lat="49.85703" lon="4.77522">
        <ele>293</ele>
        <time>2022-09-18T08:06:00.000Z</time>
      </trkpt>
      <trkpt lat="49.85701" lon="4.77517">
        <ele>292</ele>
        <time>2022-09-18T08:06:01.000Z</time>
      </trkpt>
      <trkpt lat="49.85699" lon="4.77511">
        <ele>292</ele>
        <time>2022-09-18T08:06:02.000Z</time>
      </trkpt>
      <trkpt lat="49.85698" lon="4.77504">
        <ele>292</ele>
        <time>2022-09-18T08:06:03.000Z</time>
      </trkpt>
      <trkpt lat="49.85696" lon="4.77498">
        <ele>291</ele>
        <time>2022-09-18T08:06:04.000Z</time>
      </trkpt>
      <trkpt lat="49.85695" lon="4.77493">
        <ele>291</ele>
        <time>2022-09-18T08:06:05.000Z</time>
      </trkpt>
      <trkpt lat="49.85693" lon="4.77488">
        <ele>290</ele>
        <time>2022-09-18T08:06:06.000Z</time>
      </trkpt>
      <trkpt lat="49.8569" lon="4.77483">
        <ele>290</ele>
        <time>2022-09-18T08:06:07.000Z</time>
      </trkpt>
      <trkpt lat="49.85688" lon="4.77477">
        <ele>289</ele>
        <time>2022-09-18T08:06:08.000Z</time>
      </trkpt>
      <trkpt lat="49.85686" lon="4.77471">
        <ele>288</ele>
        <time>2022-09-18T08:06:09.000Z</time>
      </trkpt>
      <trkpt lat="49.85684" lon="4.77466">
        <ele>288</ele>
        <time>2022-09-18T08:06:10.000Z</time>
      </trkpt>
      <trkpt lat="49.85683" lon="4.7746">
        <ele>287</ele>
        <time>2022-09-18T08:06:11.000Z</time>
      </trkpt>
      <trkpt lat="49.85681" lon="4.77453">
        <ele>286</ele>
        <time>2022-09-18T08:06:12.000Z</time>
      </trkpt>
      <trkpt lat="49.85679" lon="4.77447">
        <ele>286</ele>
        <time>2022-09-18T08:06:13.000Z</time>
      </trkpt>
      <trkpt lat="49.85676" lon="4.7744">
        <ele>285</ele>
        <time>2022-09-18T08:06:14.000Z</time>
      </trkpt>
      <trkpt lat="49.85674" lon="4.77434">
        <ele>284</ele>
        <time>2022-09-18T08:06:15.000Z</time>
      </trkpt>
      <trkpt lat="49.85671" lon="4.77429">
        <ele>284</ele>
        <time>2022-09-18T08:06:16.000Z</time>
      </trkpt>
      <trkpt lat="49.85669" lon="4.77423">
        <ele>283</ele>
        <time>2022-09-18T08:06:17.000Z</time>
      </trkpt>
      <trkpt lat="49.85667" lon="4.77416">
        <ele>282</ele>
        <time>2022-09-18T08:06:18.000Z</time>
      </trkpt>
      <trkpt lat="49.85665" lon="4.7741">
        <ele>282</ele>
        <time>2022-09-18T08:06:19.000Z</time>
      </trkpt>
      <trkpt lat="49.85663" lon="4.77404">
        <ele>281</ele>
        <time>2022-09-18T08:06:20.000Z</time>
      </trkpt>
      <trkpt lat="49.85661" lon="4.77398">
        <ele>280</ele>
        <time>2022-09-18T08:06:21.000Z</time>
      </trkpt>
      <trkpt lat="49.85659" lon="4.77392">
        <ele>280</ele>
        <time>2022-09-18T08:06:22.000Z</time>
      </trkpt>
      <trkpt lat="49.85656" lon="4.77386">
        <ele>279</ele>
        <time>2022-09-18T08:06:23.000Z</time>
      </trkpt>
      <trkpt lat="49.85654" lon="4.7738">
        <ele>278</ele>
        <time>2022-09-18T08:06:24.000Z</time>
      </trkpt>
      <trkpt lat="49.85652" lon="4.77375">
        <ele>278</ele>
        <time>2022-09-18T08:06:25.000Z</time>
      </trkpt>
      <trkpt lat="49.85651" lon="4.77371">
        <ele>277</ele>
        <time>2022-09-18T08:06:26.000Z</time>
      </trkpt>
      <trkpt lat="49.8565" lon="4.77367">
        <ele>276</ele>
        <time>2022-09-18T08:06:27.000Z</time>
      </trkpt>
      <trkpt lat="49.8565" lon="4.77364">
        <ele>276</ele>
        <time>2022-09-18T08:06:28.000Z</time>
      </trkpt>
      <trkpt lat="49.8565" lon="4.77362">
        <ele>275</ele>
        <time>2022-09-18T08:06:29.000Z</time>
      </trkpt>
      <trkpt lat="49.85652" lon="4.77361">
        <ele>275</ele>
        <time>2022-09-18T08:06:30.000Z</time>
      </trkpt>
      <trkpt lat="49.85654" lon="4.7736">
        <ele>274</ele>
        <time>2022-09-18T08:06:31.000Z</time>
      </trkpt>
      <trkpt lat="49.85656" lon="4.7736">
        <ele>274</ele>
        <time>2022-09-18T08:06:32.000Z</time>
      </trkpt>
      <trkpt lat="49.85659" lon="4.77359">
        <ele>273</ele>
        <time>2022-09-18T08:06:33.000Z</time>
      </trkpt>
      <trkpt lat="49.85662" lon="4.77359">
        <ele>273</ele>
        <time>2022-09-18T08:06:34.000Z</time>
      </trkpt>
      <trkpt lat="49.85665" lon="4.7736">
        <ele>273</ele>
        <time>2022-09-18T08:06:35.000Z</time>
      </trkpt>
      <trkpt lat="49.85668" lon="4.77361">
        <ele>272</ele>
        <time>2022-09-18T08:06:36.000Z</time>
      </trkpt>
      <trkpt lat="49.85671" lon="4.77362">
        <ele>272</ele>
        <time>2022-09-18T08:06:37.000Z</time>
      </trkpt>
      <trkpt lat="49.85674" lon="4.77364">
        <ele>271</ele>
        <time>2022-09-18T08:06:38.000Z</time>
      </trkpt>
      <trkpt lat="49.85676" lon="4.77365">
        <ele>271</ele>
        <time>2022-09-18T08:06:39.000Z</time>
      </trkpt>
      <trkpt lat="49.85679" lon="4.77366">
        <ele>270</ele>
        <time>2022-09-18T08:06:40.000Z</time>
      </trkpt>
      <trkpt lat="49.85681" lon="4.77368">
        <ele>270</ele>
        <time>2022-09-18T08:06:41.000Z</time>
      </trkpt>
      <trkpt lat="49.85683" lon="4.7737">
        <ele>269</ele>
        <time>2022-09-18T08:06:42.000Z</time>
      </trkpt>
      <trkpt lat="49.85686" lon="4.77372">
        <ele>269</ele>
        <time>2022-09-18T08:06:43.000Z</time>
      </trkpt>
      <trkpt lat="49.85689" lon="4.77374">
        <ele>268</ele>
        <time>2022-09-18T08:06:44.000Z</time>
      </trkpt>
      <trkpt lat="49.85691" lon="4.77377">
        <ele>268</ele>
        <time>2022-09-18T08:06:45.000Z</time>
      </trkpt>
      <trkpt lat="49.85694" lon="4.77379">
        <ele>267</ele>
        <time>2022-09-18T08:06:46.000Z</time>
      </trkpt>
      <trkpt lat="49.85697" lon="4.77382">
        <ele>267</ele>
        <time>2022-09-18T08:06:47.000Z</time>
      </trkpt>
      <trkpt lat="49.85701" lon="4.77385">
        <ele>267</ele>
        <time>2022-09-18T08:06:48.000Z</time>
      </trkpt>
      <trkpt lat="49.85704" lon="4.77388">
        <ele>266</ele>
        <time>2022-09-18T08:06:49.000Z</time>
      </trkpt>
      <trkpt lat="49.85708" lon="4.77391">
        <ele>266</ele>
        <time>2022-09-18T08:06:50.000Z</time>
      </trkpt>
      <trkpt lat="49.85712" lon="4.77392">
        <ele>265</ele>
        <time>2022-09-18T08:06:51.000Z</time>
      </trkpt>
      <trkpt lat="49.85716" lon="4.77394">
        <ele>265</ele>
        <time>2022-09-18T08:06:52.000Z</time>
      </trkpt>
      <trkpt lat="49.85719" lon="4.77395">
        <ele>264</ele>
        <time>2022-09-18T08:06:53.000Z</time>
      </trkpt>
      <trkpt lat="49.85722" lon="4.77397">
        <ele>264</ele>
        <time>2022-09-18T08:06:54.000Z</time>
      </trkpt>
      <trkpt lat="49.85724" lon="4.77397">
        <ele>264</ele>
        <time>2022-09-18T08:06:55.000Z</time>
      </trkpt>
      <trkpt lat="49.85726" lon="4.77397">
        <ele>264</ele>
        <time>2022-09-18T08:06:56.000Z</time>
      </trkpt>
      <trkpt lat="49.85728" lon="4.77397">
        <ele>264</ele>
        <time>2022-09-18T08:06:57.000Z</time>
      </trkpt>
      <trkpt lat="49.8573" lon="4.77395">
        <ele>263</ele>
        <time>2022-09-18T08:06:58.000Z</time>
      </trkpt>
      <trkpt lat="49.85731" lon="4.77392">
        <ele>263</ele>
        <time>2022-09-18T08:06:59.000Z</time>
      </trkpt>
      <trkpt lat="49.85732" lon="4.77387">
        <ele>263</ele>
        <time>2022-09-18T08:07:00.000Z</time>
      </trkpt>
      <trkpt lat="49.85732" lon="4.77381">
        <ele>263</ele>
        <time>2022-09-18T08:07:01.000Z</time>
      </trkpt>
      <trkpt lat="49.85732" lon="4.77375">
        <ele>262</ele>
        <time>2022-09-18T08:07:02.000Z</time>
      </trkpt>
      <trkpt lat="49.85732" lon="4.77369">
        <ele>262</ele>
        <time>2022-09-18T08:07:03.000Z</time>
      </trkpt>
      <trkpt lat="49.85732" lon="4.77363">
        <ele>262</ele>
        <time>2022-09-18T08:07:04.000Z</time>
      </trkpt>
      <trkpt lat="49.85732" lon="4.77359">
        <ele>261</ele>
        <time>2022-09-18T08:07:05.000Z</time>
      </trkpt>
      <trkpt lat="49.85733" lon="4.77354">
        <ele>261</ele>
        <time>2022-09-18T08:07:06.000Z</time>
      </trkpt>
      <trkpt lat="49.85733" lon="4.7735">
        <ele>261</ele>
        <time>2022-09-18T08:07:07.000Z</time>
      </trkpt>
      <trkpt lat="49.85733" lon="4.77346">
        <ele>261</ele>
        <time>2022-09-18T08:07:08.000Z</time>
      </trkpt>
      <trkpt lat="49.85732" lon="4.77341">
        <ele>260</ele>
        <time>2022-09-18T08:07:09.000Z</time>
      </trkpt>
      <trkpt lat="49.85731" lon="4.77337">
        <ele>260</ele>
        <time>2022-09-18T08:07:10.000Z</time>
      </trkpt>
      <trkpt lat="49.8573" lon="4.77332">
        <ele>260</ele>
        <time>2022-09-18T08:07:11.000Z</time>
      </trkpt>
      <trkpt lat="49.85729" lon="4.77328">
        <ele>259</ele>
        <time>2022-09-18T08:07:12.000Z</time>
      </trkpt>
      <trkpt lat="49.85728" lon="4.77324">
        <ele>259</ele>
        <time>2022-09-18T08:07:13.000Z</time>
      </trkpt>
      <trkpt lat="49.85727" lon="4.77319">
        <ele>259</ele>
        <time>2022-09-18T08:07:14.000Z</time>
      </trkpt>
      <trkpt lat="49.85726" lon="4.77314">
        <ele>259</ele>
        <time>2022-09-18T08:07:15.000Z</time>
      </trkpt>
      <trkpt lat="49.85725" lon="4.77309">
        <ele>258</ele>
        <time>2022-09-18T08:07:16.000Z</time>
      </trkpt>
      <trkpt lat="49.85724" lon="4.77304">
        <ele>258</ele>
        <time>2022-09-18T08:07:17.000Z</time>
      </trkpt>
      <trkpt lat="49.85722" lon="4.773">
        <ele>258</ele>
        <time>2022-09-18T08:07:18.000Z</time>
      </trkpt>
      <trkpt lat="49.85721" lon="4.77295">
        <ele>257</ele>
        <time>2022-09-18T08:07:19.000Z</time>
      </trkpt>
      <trkpt lat="49.85719" lon="4.77289">
        <ele>257</ele>
        <time>2022-09-18T08:07:20.000Z</time>
      </trkpt>
      <trkpt lat="49.85718" lon="4.77283">
        <ele>257</ele>
        <time>2022-09-18T08:07:21.000Z</time>
      </trkpt>
      <trkpt lat="49.85716" lon="4.77277">
        <ele>256</ele>
        <time>2022-09-18T08:07:22.000Z</time>
      </trkpt>
      <trkpt lat="49.85714" lon="4.77272">
        <ele>256</ele>
        <time>2022-09-18T08:07:23.000Z</time>
      </trkpt>
      <trkpt lat="49.85712" lon="4.77268">
        <ele>255</ele>
        <time>2022-09-18T08:07:24.000Z</time>
      </trkpt>
      <trkpt lat="49.85711" lon="4.77264">
        <ele>255</ele>
        <time>2022-09-18T08:07:25.000Z</time>
      </trkpt>
      <trkpt lat="49.8571" lon="4.77259">
        <ele>254</ele>
        <time>2022-09-18T08:07:26.000Z</time>
      </trkpt>
      <trkpt lat="49.85711" lon="4.77253">
        <ele>253</ele>
        <time>2022-09-18T08:07:27.000Z</time>
      </trkpt>
      <trkpt lat="49.85712" lon="4.77247">
        <ele>253</ele>
        <time>2022-09-18T08:07:28.000Z</time>
      </trkpt>
      <trkpt lat="49.85713" lon="4.77242">
        <ele>252</ele>
        <time>2022-09-18T08:07:29.000Z</time>
      </trkpt>
      <trkpt lat="49.85715" lon="4.77238">
        <ele>251</ele>
        <time>2022-09-18T08:07:30.000Z</time>
      </trkpt>
      <trkpt lat="49.85716" lon="4.77234">
        <ele>250</ele>
        <time>2022-09-18T08:07:31.000Z</time>
      </trkpt>
      <trkpt lat="49.85718" lon="4.7723">
        <ele>250</ele>
        <time>2022-09-18T08:07:32.000Z</time>
      </trkpt>
      <trkpt lat="49.85719" lon="4.77225">
        <ele>249</ele>
        <time>2022-09-18T08:07:33.000Z</time>
      </trkpt>
      <trkpt lat="49.8572" lon="4.7722">
        <ele>248</ele>
        <time>2022-09-18T08:07:34.000Z</time>
      </trkpt>
      <trkpt lat="49.85721" lon="4.77215">
        <ele>248</ele>
        <time>2022-09-18T08:07:35.000Z</time>
      </trkpt>
      <trkpt lat="49.85722" lon="4.7721">
        <ele>247</ele>
        <time>2022-09-18T08:07:36.000Z</time>
      </trkpt>
      <trkpt lat="49.85722" lon="4.77205">
        <ele>247</ele>
        <time>2022-09-18T08:07:37.000Z</time>
      </trkpt>
      <trkpt lat="49.85722" lon="4.772">
        <ele>246</ele>
        <time>2022-09-18T08:07:38.000Z</time>
      </trkpt>
      <trkpt lat="49.85721" lon="4.77197">
        <ele>246</ele>
        <time>2022-09-18T08:07:39.000Z</time>
      </trkpt>
      <trkpt lat="49.8572" lon="4.77191">
        <ele>245</ele>
        <time>2022-09-18T08:07:40.000Z</time>
      </trkpt>
      <trkpt lat="49.85718" lon="4.77185">
        <ele>245</ele>
        <time>2022-09-18T08:07:41.000Z</time>
      </trkpt>
      <trkpt lat="49.85715" lon="4.77178">
        <ele>244</ele>
        <time>2022-09-18T08:07:42.000Z</time>
      </trkpt>
      <trkpt lat="49.85713" lon="4.7717">
        <ele>244</ele>
        <time>2022-09-18T08:07:43.000Z</time>
      </trkpt>
      <trkpt lat="49.8571" lon="4.77163">
        <ele>243</ele>
        <time>2022-09-18T08:07:44.000Z</time>
      </trkpt>
      <trkpt lat="49.85708" lon="4.77155">
        <ele>243</ele>
        <time>2022-09-18T08:07:45.000Z</time>
      </trkpt>
      <trkpt lat="49.85705" lon="4.77148">
        <ele>242</ele>
        <time>2022-09-18T08:07:46.000Z</time>
      </trkpt>
      <trkpt lat="49.85702" lon="4.7714">
        <ele>242</ele>
        <time>2022-09-18T08:07:47.000Z</time>
      </trkpt>
      <trkpt lat="49.85699" lon="4.77133">
        <ele>241</ele>
        <time>2022-09-18T08:07:48.000Z</time>
      </trkpt>
      <trkpt lat="49.85697" lon="4.77125">
        <ele>241</ele>
        <time>2022-09-18T08:07:49.000Z</time>
      </trkpt>
      <trkpt lat="49.85694" lon="4.77117">
        <ele>240</ele>
        <time>2022-09-18T08:07:50.000Z</time>
      </trkpt>
      <trkpt lat="49.85692" lon="4.77109">
        <ele>240</ele>
        <time>2022-09-18T08:07:51.000Z</time>
      </trkpt>
      <trkpt lat="49.85689" lon="4.77102">
        <ele>239</ele>
        <time>2022-09-18T08:07:52.000Z</time>
      </trkpt>
      <trkpt lat="49.85686" lon="4.77094">
        <ele>238</ele>
        <time>2022-09-18T08:07:53.000Z</time>
      </trkpt>
      <trkpt lat="49.85683" lon="4.77087">
        <ele>238</ele>
        <time>2022-09-18T08:07:54.000Z</time>
      </trkpt>
      <trkpt lat="49.85679" lon="4.77079">
        <ele>237</ele>
        <time>2022-09-18T08:07:55.000Z</time>
      </trkpt>
      <trkpt lat="49.85677" lon="4.77071">
        <ele>237</ele>
        <time>2022-09-18T08:07:56.000Z</time>
      </trkpt>
      <trkpt lat="49.85674" lon="4.77063">
        <ele>236</ele>
        <time>2022-09-18T08:07:57.000Z</time>
      </trkpt>
      <trkpt lat="49.85671" lon="4.77057">
        <ele>235</ele>
        <time>2022-09-18T08:07:58.000Z</time>
      </trkpt>
      <trkpt lat="49.85669" lon="4.77051">
        <ele>235</ele>
        <time>2022-09-18T08:07:59.000Z</time>
      </trkpt>
      <trkpt lat="49.85666" lon="4.77044">
        <ele>234</ele>
        <time>2022-09-18T08:08:00.000Z</time>
      </trkpt>
      <trkpt lat="49.85663" lon="4.77038">
        <ele>233</ele>
        <time>2022-09-18T08:08:01.000Z</time>
      </trkpt>
      <trkpt lat="49.8566" lon="4.77031">
        <ele>232</ele>
        <time>2022-09-18T08:08:02.000Z</time>
      </trkpt>
      <trkpt lat="49.85656" lon="4.77023">
        <ele>232</ele>
        <time>2022-09-18T08:08:03.000Z</time>
      </trkpt>
      <trkpt lat="49.85652" lon="4.77014">
        <ele>231</ele>
        <time>2022-09-18T08:08:04.000Z</time>
      </trkpt>
      <trkpt lat="49.85648" lon="4.77005">
        <ele>230</ele>
        <time>2022-09-18T08:08:05.000Z</time>
      </trkpt>
      <trkpt lat="49.85644" lon="4.76996">
        <ele>228</ele>
        <time>2022-09-18T08:08:06.000Z</time>
      </trkpt>
      <trkpt lat="49.85641" lon="4.76985">
        <ele>227</ele>
        <time>2022-09-18T08:08:07.000Z</time>
      </trkpt>
      <trkpt lat="49.85638" lon="4.76974">
        <ele>226</ele>
        <time>2022-09-18T08:08:08.000Z</time>
      </trkpt>
      <trkpt lat="49.85634" lon="4.76963">
        <ele>225</ele>
        <time>2022-09-18T08:08:09.000Z</time>
      </trkpt>
      <trkpt lat="49.8563" lon="4.76953">
        <ele>223</ele>
        <time>2022-09-18T08:08:10.000Z</time>
      </trkpt>
      <trkpt lat="49.85626" lon="4.76942">
        <ele>222</ele>
        <time>2022-09-18T08:08:11.000Z</time>
      </trkpt>
      <trkpt lat="49.85623" lon="4.76932">
        <ele>220</ele>
        <time>2022-09-18T08:08:12.000Z</time>
      </trkpt>
      <trkpt lat="49.85621" lon="4.76923">
        <ele>218</ele>
        <time>2022-09-18T08:08:13.000Z</time>
      </trkpt>
      <trkpt lat="49.8562" lon="4.76913">
        <ele>217</ele>
        <time>2022-09-18T08:08:14.000Z</time>
      </trkpt>
      <trkpt lat="49.85618" lon="4.76904">
        <ele>215</ele>
        <time>2022-09-18T08:08:15.000Z</time>
      </trkpt>
      <trkpt lat="49.85617" lon="4.76895">
        <ele>213</ele>
        <time>2022-09-18T08:08:16.000Z</time>
      </trkpt>
      <trkpt lat="49.85617" lon="4.76887">
        <ele>212</ele>
        <time>2022-09-18T08:08:17.000Z</time>
      </trkpt>
      <trkpt lat="49.85616" lon="4.76879">
        <ele>211</ele>
        <time>2022-09-18T08:08:18.000Z</time>
      </trkpt>
      <trkpt lat="49.85616" lon="4.76872">
        <ele>209</ele>
        <time>2022-09-18T08:08:19.000Z</time>
      </trkpt>
      <trkpt lat="49.85616" lon="4.76864">
        <ele>208</ele>
        <time>2022-09-18T08:08:20.000Z</time>
      </trkpt>
      <trkpt lat="49.85616" lon="4.76856">
        <ele>207</ele>
        <time>2022-09-18T08:08:21.000Z</time>
      </trkpt>
      <trkpt lat="49.85616" lon="4.76849">
        <ele>206</ele>
        <time>2022-09-18T08:08:22.000Z</time>
      </trkpt>
      <trkpt lat="49.85616" lon="4.76843">
        <ele>205</ele>
        <time>2022-09-18T08:08:23.000Z</time>
      </trkpt>
      <trkpt lat="49.85616" lon="4.76837">
        <ele>204</ele>
        <time>2022-09-18T08:08:24.000Z</time>
      </trkpt>
      <trkpt lat="49.85615" lon="4.76831">
        <ele>203</ele>
        <time>2022-09-18T08:08:25.000Z</time>
      </trkpt>
      <trkpt lat="49.85615" lon="4.76826">
        <ele>202</ele>
        <time>2022-09-18T08:08:26.000Z</time>
      </trkpt>
      <trkpt lat="49.85615" lon="4.76821">
        <ele>201</ele>
        <time>2022-09-18T08:08:27.000Z</time>
      </trkpt>
      <trkpt lat="49.85616" lon="4.76816">
        <ele>200</ele>
        <time>2022-09-18T08:08:28.000Z</time>
      </trkpt>
      <trkpt lat="49.85616" lon="4.76811">
        <ele>199</ele>
        <time>2022-09-18T08:08:29.000Z</time>
      </trkpt>
      <trkpt lat="49.85616" lon="4.76805">
        <ele>198</ele>
        <time>2022-09-18T08:08:30.000Z</time>
      </trkpt>
      <trkpt lat="49.85616" lon="4.768">
        <ele>198</ele>
        <time>2022-09-18T08:08:31.000Z</time>
      </trkpt>
      <trkpt lat="49.85617" lon="4.76795">
        <ele>197</ele>
        <time>2022-09-18T08:08:32.000Z</time>
      </trkpt>
      <trkpt lat="49.85618" lon="4.7679">
        <ele>196</ele>
        <time>2022-09-18T08:08:33.000Z</time>
      </trkpt>
      <trkpt lat="49.85618" lon="4.76786">
        <ele>195</ele>
        <time>2022-09-18T08:08:34.000Z</time>
      </trkpt>
      <trkpt lat="49.8562" lon="4.76782">
        <ele>195</ele>
        <time>2022-09-18T08:08:35.000Z</time>
      </trkpt>
      <trkpt lat="49.85622" lon="4.76778">
        <ele>194</ele>
        <time>2022-09-18T08:08:36.000Z</time>
      </trkpt>
      <trkpt lat="49.85626" lon="4.76774">
        <ele>193</ele>
        <time>2022-09-18T08:08:37.000Z</time>
      </trkpt>
      <trkpt lat="49.8563" lon="4.76771">
        <ele>192</ele>
        <time>2022-09-18T08:08:38.000Z</time>
      </trkpt>
      <trkpt lat="49.85634" lon="4.76767">
        <ele>191</ele>
        <time>2022-09-18T08:08:39.000Z</time>
      </trkpt>
      <trkpt lat="49.85638" lon="4.76762">
        <ele>190</ele>
        <time>2022-09-18T08:08:40.000Z</time>
      </trkpt>
      <trkpt lat="49.85642" lon="4.76758">
        <ele>189</ele>
        <time>2022-09-18T08:08:41.000Z</time>
      </trkpt>
      <trkpt lat="49.85646" lon="4.76755">
        <ele>189</ele>
        <time>2022-09-18T08:08:42.000Z</time>
      </trkpt>
      <trkpt lat="49.8565" lon="4.76751">
        <ele>188</ele>
        <time>2022-09-18T08:08:43.000Z</time>
      </trkpt>
      <trkpt lat="49.85655" lon="4.76747">
        <ele>188</ele>
        <time>2022-09-18T08:08:44.000Z</time>
      </trkpt>
      <trkpt lat="49.85659" lon="4.76743">
        <ele>187</ele>
        <time>2022-09-18T08:08:45.000Z</time>
      </trkpt>
      <trkpt lat="49.85663" lon="4.76739">
        <ele>187</ele>
        <time>2022-09-18T08:08:46.000Z</time>
      </trkpt>
      <trkpt lat="49.85667" lon="4.76735">
        <ele>186</ele>
        <time>2022-09-18T08:08:47.000Z</time>
      </trkpt>
      <trkpt lat="49.85671" lon="4.7673">
        <ele>186</ele>
        <time>2022-09-18T08:08:48.000Z</time>
      </trkpt>
      <trkpt lat="49.85675" lon="4.76726">
        <ele>186</ele>
        <time>2022-09-18T08:08:49.000Z</time>
      </trkpt>
      <trkpt lat="49.85678" lon="4.76722">
        <ele>186</ele>
        <time>2022-09-18T08:08:50.000Z</time>
      </trkpt>
      <trkpt lat="49.85681" lon="4.76719">
        <ele>185</ele>
        <time>2022-09-18T08:08:51.000Z</time>
      </trkpt>
      <trkpt lat="49.85683" lon="4.76716">
        <ele>185</ele>
        <time>2022-09-18T08:08:52.000Z</time>
      </trkpt>
      <trkpt lat="49.85686" lon="4.76714">
        <ele>185</ele>
        <time>2022-09-18T08:08:53.000Z</time>
      </trkpt>
      <trkpt lat="49.85689" lon="4.76712">
        <ele>185</ele>
        <time>2022-09-18T08:08:54.000Z</time>
      </trkpt>
      <trkpt lat="49.85693" lon="4.76709">
        <ele>185</ele>
        <time>2022-09-18T08:08:55.000Z</time>
      </trkpt>
      <trkpt lat="49.85697" lon="4.76707">
        <ele>185</ele>
        <time>2022-09-18T08:08:56.000Z</time>
      </trkpt>
      <trkpt lat="49.85701" lon="4.76706">
        <ele>185</ele>
        <time>2022-09-18T08:08:57.000Z</time>
      </trkpt>
      <trkpt lat="49.85705" lon="4.76704">
        <ele>185</ele>
        <time>2022-09-18T08:08:58.000Z</time>
      </trkpt>
      <trkpt lat="49.85709" lon="4.76703">
        <ele>185</ele>
        <time>2022-09-18T08:08:59.000Z</time>
      </trkpt>
      <trkpt lat="49.85713" lon="4.76701">
        <ele>185</ele>
        <time>2022-09-18T08:09:00.000Z</time>
      </trkpt>
      <trkpt lat="49.85717" lon="4.76699">
        <ele>185</ele>
        <time>2022-09-18T08:09:01.000Z</time>
      </trkpt>
      <trkpt lat="49.85721" lon="4.76696">
        <ele>185</ele>
        <time>2022-09-18T08:09:02.000Z</time>
      </trkpt>
      <trkpt lat="49.85725" lon="4.76693">
        <ele>185</ele>
        <time>2022-09-18T08:09:03.000Z</time>
      </trkpt>
      <trkpt lat="49.85729" lon="4.76692">
        <ele>185</ele>
        <time>2022-09-18T08:09:04.000Z</time>
      </trkpt>
      <trkpt lat="49.85733" lon="4.7669">
        <ele>185</ele>
        <time>2022-09-18T08:09:05.000Z</time>
      </trkpt>
      <trkpt lat="49.85738" lon="4.76689">
        <ele>185</ele>
        <time>2022-09-18T08:09:06.000Z</time>
      </trkpt>
      <trkpt lat="49.85742" lon="4.76687">
        <ele>185</ele>
        <time>2022-09-18T08:09:07.000Z</time>
      </trkpt>
      <trkpt lat="49.85746" lon="4.76684">
        <ele>185</ele>
        <time>2022-09-18T08:09:08.000Z</time>
      </trkpt>
      <trkpt lat="49.85749" lon="4.7668">
        <ele>185</ele>
        <time>2022-09-18T08:09:09.000Z</time>
      </trkpt>
      <trkpt lat="49.85753" lon="4.76677">
        <ele>186</ele>
        <time>2022-09-18T08:09:10.000Z</time>
      </trkpt>
      <trkpt lat="49.85757" lon="4.76676">
        <ele>186</ele>
        <time>2022-09-18T08:09:11.000Z</time>
      </trkpt>
      <trkpt lat="49.85761" lon="4.76674">
        <ele>186</ele>
        <time>2022-09-18T08:09:12.000Z</time>
      </trkpt>
      <trkpt lat="49.85765" lon="4.76673">
        <ele>186</ele>
        <time>2022-09-18T08:09:13.000Z</time>
      </trkpt>
      <trkpt lat="49.85768" lon="4.76671">
        <ele>187</ele>
        <time>2022-09-18T08:09:14.000Z</time>
      </trkpt>
      <trkpt lat="49.85772" lon="4.7667">
        <ele>187</ele>
        <time>2022-09-18T08:09:15.000Z</time>
      </trkpt>
      <trkpt lat="49.85775" lon="4.76669">
        <ele>187</ele>
        <time>2022-09-18T08:09:16.000Z</time>
      </trkpt>
      <trkpt lat="49.85778" lon="4.76668">
        <ele>188</ele>
        <time>2022-09-18T08:09:17.000Z</time>
      </trkpt>
      <trkpt lat="49.85782" lon="4.76667">
        <ele>188</ele>
        <time>2022-09-18T08:09:18.000Z</time>
      </trkpt>
      <trkpt lat="49.85786" lon="4.76666">
        <ele>188</ele>
        <time>2022-09-18T08:09:19.000Z</time>
      </trkpt>
      <trkpt lat="49.8579" lon="4.76665">
        <ele>189</ele>
        <time>2022-09-18T08:09:20.000Z</time>
      </trkpt>
      <trkpt lat="49.85793" lon="4.76662">
        <ele>189</ele>
        <time>2022-09-18T08:09:21.000Z</time>
      </trkpt>
      <trkpt lat="49.85797" lon="4.76658">
        <ele>189</ele>
        <time>2022-09-18T08:09:22.000Z</time>
      </trkpt>
      <trkpt lat="49.85801" lon="4.76654">
        <ele>189</ele>
        <time>2022-09-18T08:09:23.000Z</time>
      </trkpt>
      <trkpt lat="49.85805" lon="4.76652">
        <ele>189</ele>
        <time>2022-09-18T08:09:24.000Z</time>
      </trkpt>
      <trkpt lat="49.85808" lon="4.76651">
        <ele>189</ele>
        <time>2022-09-18T08:09:25.000Z</time>
      </trkpt>
      <trkpt lat="49.85811" lon="4.7665">
        <ele>190</ele>
        <time>2022-09-18T08:09:26.000Z</time>
      </trkpt>
      <trkpt lat="49.85814" lon="4.7665">
        <ele>190</ele>
        <time>2022-09-18T08:09:27.000Z</time>
      </trkpt>
      <trkpt lat="49.85817" lon="4.76651">
        <ele>190</ele>
        <time>2022-09-18T08:09:28.000Z</time>
      </trkpt>
      <trkpt lat="49.8582" lon="4.76651">
        <ele>190</ele>
        <time>2022-09-18T08:09:29.000Z</time>
      </trkpt>
      <trkpt lat="49.85823" lon="4.76651">
        <ele>190</ele>
        <time>2022-09-18T08:09:30.000Z</time>
      </trkpt>
      <trkpt lat="49.85825" lon="4.7665">
        <ele>190</ele>
        <time>2022-09-18T08:09:31.000Z</time>
      </trkpt>
      <trkpt lat="49.85828" lon="4.76651">
        <ele>190</ele>
        <time>2022-09-18T08:09:32.000Z</time>
      </trkpt>
      <trkpt lat="49.8583" lon="4.76651">
        <ele>191</ele>
        <time>2022-09-18T08:09:33.000Z</time>
      </trkpt>
      <trkpt lat="49.85832" lon="4.76651">
        <ele>191</ele>
        <time>2022-09-18T08:09:34.000Z</time>
      </trkpt>
      <trkpt lat="49.85834" lon="4.76651">
        <ele>191</ele>
        <time>2022-09-18T08:09:35.000Z</time>
      </trkpt>
      <trkpt lat="49.85837" lon="4.76652">
        <ele>191</ele>
        <time>2022-09-18T08:09:36.000Z</time>
      </trkpt>
      <trkpt lat="49.85839" lon="4.76652">
        <ele>191</ele>
        <time>2022-09-18T08:09:37.000Z</time>
      </trkpt>
      <trkpt lat="49.8584" lon="4.76652">
        <ele>192</ele>
        <time>2022-09-18T08:09:38.000Z</time>
      </trkpt>
      <trkpt lat="49.85842" lon="4.76652">
        <ele>192</ele>
        <time>2022-09-18T08:09:39.000Z</time>
      </trkpt>
      <trkpt lat="49.85844" lon="4.76652">
        <ele>192</ele>
        <time>2022-09-18T08:09:40.000Z</time>
      </trkpt>
      <trkpt lat="49.85846" lon="4.76653">
        <ele>192</ele>
        <time>2022-09-18T08:09:41.000Z</time>
      </trkpt>
      <trkpt lat="49.85848" lon="4.76653">
        <ele>192</ele>
        <time>2022-09-18T08:09:42.000Z</time>
      </trkpt>
      <trkpt lat="49.85851" lon="4.76653">
        <ele>192</ele>
        <time>2022-09-18T08:09:43.000Z</time>
      </trkpt>
      <trkpt lat="49.85853" lon="4.76653">
        <ele>193</ele>
        <time>2022-09-18T08:09:44.000Z</time>
      </trkpt>
      <trkpt lat="49.85856" lon="4.76653">
        <ele>193</ele>
        <time>2022-09-18T08:09:45.000Z</time>
      </trkpt>
      <trkpt lat="49.85858" lon="4.76653">
        <ele>193</ele>
        <time>2022-09-18T08:09:46.000Z</time>
      </trkpt>
      <trkpt lat="49.8586" lon="4.76653">
        <ele>193</ele>
        <time>2022-09-18T08:09:47.000Z</time>
      </trkpt>
      <trkpt lat="49.85863" lon="4.76653">
        <ele>194</ele>
        <time>2022-09-18T08:09:48.000Z</time>
      </trkpt>
      <trkpt lat="49.85865" lon="4.76653">
        <ele>194</ele>
        <time>2022-09-18T08:09:49.000Z</time>
      </trkpt>
      <trkpt lat="49.85866" lon="4.76653">
        <ele>194</ele>
        <time>2022-09-18T08:09:50.000Z</time>
      </trkpt>
      <trkpt lat="49.85868" lon="4.76654">
        <ele>195</ele>
        <time>2022-09-18T08:09:51.000Z</time>
      </trkpt>
      <trkpt lat="49.8587" lon="4.76654">
        <ele>195</ele>
        <time>2022-09-18T08:09:52.000Z</time>
      </trkpt>
      <trkpt lat="49.85872" lon="4.76655">
        <ele>195</ele>
        <time>2022-09-18T08:09:53.000Z</time>
      </trkpt>
      <trkpt lat="49.85874" lon="4.76655">
        <ele>196</ele>
        <time>2022-09-18T08:09:54.000Z</time>
      </trkpt>
      <trkpt lat="49.85876" lon="4.76655">
        <ele>196</ele>
        <time>2022-09-18T08:09:55.000Z</time>
      </trkpt>
      <trkpt lat="49.85878" lon="4.76655">
        <ele>196</ele>
        <time>2022-09-18T08:09:56.000Z</time>
      </trkpt>
      <trkpt lat="49.8588" lon="4.76656">
        <ele>197</ele>
        <time>2022-09-18T08:09:57.000Z</time>
      </trkpt>
      <trkpt lat="49.85882" lon="4.76656">
        <ele>197</ele>
        <time>2022-09-18T08:09:58.000Z</time>
      </trkpt>
      <trkpt lat="49.85884" lon="4.76657">
        <ele>197</ele>
        <time>2022-09-18T08:09:59.000Z</time>
      </trkpt>
      <trkpt lat="49.85886" lon="4.76657">
        <ele>198</ele>
        <time>2022-09-18T08:10:00.000Z</time>
      </trkpt>
      <trkpt lat="49.85888" lon="4.76658">
        <ele>198</ele>
        <time>2022-09-18T08:10:01.000Z</time>
      </trkpt>
      <trkpt lat="49.8589" lon="4.76659">
        <ele>198</ele>
        <time>2022-09-18T08:10:02.000Z</time>
      </trkpt>
      <trkpt lat="49.85893" lon="4.7666">
        <ele>198</ele>
        <time>2022-09-18T08:10:03.000Z</time>
      </trkpt>
      <trkpt lat="49.85895" lon="4.76661">
        <ele>198</ele>
        <time>2022-09-18T08:10:04.000Z</time>
      </trkpt>
      <trkpt lat="49.85898" lon="4.76661">
        <ele>199</ele>
        <time>2022-09-18T08:10:05.000Z</time>
      </trkpt>
      <trkpt lat="49.859" lon="4.76662">
        <ele>199</ele>
        <time>2022-09-18T08:10:06.000Z</time>
      </trkpt>
      <trkpt lat="49.85903" lon="4.76663">
        <ele>199</ele>
        <time>2022-09-18T08:10:07.000Z</time>
      </trkpt>
      <trkpt lat="49.85905" lon="4.76664">
        <ele>199</ele>
        <time>2022-09-18T08:10:08.000Z</time>
      </trkpt>
      <trkpt lat="49.85908" lon="4.76665">
        <ele>200</ele>
        <time>2022-09-18T08:10:09.000Z</time>
      </trkpt>
      <trkpt lat="49.8591" lon="4.76665">
        <ele>200</ele>
        <time>2022-09-18T08:10:10.000Z</time>
      </trkpt>
      <trkpt lat="49.85912" lon="4.76666">
        <ele>200</ele>
        <time>2022-09-18T08:10:11.000Z</time>
      </trkpt>
      <trkpt lat="49.85914" lon="4.76667">
        <ele>200</ele>
        <time>2022-09-18T08:10:12.000Z</time>
      </trkpt>
      <trkpt lat="49.85916" lon="4.76668">
        <ele>200</ele>
        <time>2022-09-18T08:10:13.000Z</time>
      </trkpt>
      <trkpt lat="49.85918" lon="4.76668">
        <ele>201</ele>
        <time>2022-09-18T08:10:14.000Z</time>
      </trkpt>
      <trkpt lat="49.8592" lon="4.76669">
        <ele>201</ele>
        <time>2022-09-18T08:10:15.000Z</time>
      </trkpt>
      <trkpt lat="49.85922" lon="4.76669">
        <ele>201</ele>
        <time>2022-09-18T08:10:16.000Z</time>
      </trkpt>
      <trkpt lat="49.85924" lon="4.76669">
        <ele>201</ele>
        <time>2022-09-18T08:10:17.000Z</time>
      </trkpt>
      <trkpt lat="49.85927" lon="4.76671">
        <ele>201</ele>
        <time>2022-09-18T08:10:18.000Z</time>
      </trkpt>
      <trkpt lat="49.85929" lon="4.76672">
        <ele>202</ele>
        <time>2022-09-18T08:10:19.000Z</time>
      </trkpt>
      <trkpt lat="49.85931" lon="4.76674">
        <ele>202</ele>
        <time>2022-09-18T08:10:20.000Z</time>
      </trkpt>
      <trkpt lat="49.85933" lon="4.76675">
        <ele>202</ele>
        <time>2022-09-18T08:10:21.000Z</time>
      </trkpt>
      <trkpt lat="49.85935" lon="4.76676">
        <ele>202</ele>
        <time>2022-09-18T08:10:22.000Z</time>
      </trkpt>
      <trkpt lat="49.85937" lon="4.76676">
        <ele>202</ele>
        <time>2022-09-18T08:10:23.000Z</time>
      </trkpt>
      <trkpt lat="49.85939" lon="4.76676">
        <ele>203</ele>
        <time>2022-09-18T08:10:24.000Z</time>
      </trkpt>
      <trkpt lat="49.85941" lon="4.76676">
        <ele>203</ele>
        <time>2022-09-18T08:10:25.000Z</time>
      </trkpt>
      <trkpt lat="49.85944" lon="4.76675">
        <ele>203</ele>
        <time>2022-09-18T08:10:26.000Z</time>
      </trkpt>
      <trkpt lat="49.85946" lon="4.76677">
        <ele>203</ele>
        <time>2022-09-18T08:10:27.000Z</time>
      </trkpt>
      <trkpt lat="49.85948" lon="4.76678">
        <ele>204</ele>
        <time>2022-09-18T08:10:28.000Z</time>
      </trkpt>
      <trkpt lat="49.8595" lon="4.76679">
        <ele>204</ele>
        <time>2022-09-18T08:10:29.000Z</time>
      </trkpt>
      <trkpt lat="49.85953" lon="4.76679">
        <ele>204</ele>
        <time>2022-09-18T08:10:30.000Z</time>
      </trkpt>
      <trkpt lat="49.85955" lon="4.76679">
        <ele>205</ele>
        <time>2022-09-18T08:10:31.000Z</time>
      </trkpt>
      <trkpt lat="49.85957" lon="4.76679">
        <ele>205</ele>
        <time>2022-09-18T08:10:32.000Z</time>
      </trkpt>
      <trkpt lat="49.85959" lon="4.76678">
        <ele>205</ele>
        <time>2022-09-18T08:10:33.000Z</time>
      </trkpt>
      <trkpt lat="49.8596" lon="4.76675">
        <ele>205</ele>
        <time>2022-09-18T08:10:34.000Z</time>
      </trkpt>
      <trkpt lat="49.85962" lon="4.76673">
        <ele>205</ele>
        <time>2022-09-18T08:10:35.000Z</time>
      </trkpt>
      <trkpt lat="49.85965" lon="4.76671">
        <ele>206</ele>
        <time>2022-09-18T08:10:36.000Z</time>
      </trkpt>
      <trkpt lat="49.85968" lon="4.76669">
        <ele>206</ele>
        <time>2022-09-18T08:10:37.000Z</time>
      </trkpt>
      <trkpt lat="49.85971" lon="4.76669">
        <ele>206</ele>
        <time>2022-09-18T08:10:38.000Z</time>
      </trkpt>
      <trkpt lat="49.85975" lon="4.76667">
        <ele>206</ele>
        <time>2022-09-18T08:10:39.000Z</time>
      </trkpt>
      <trkpt lat="49.85979" lon="4.76667">
        <ele>206</ele>
        <time>2022-09-18T08:10:40.000Z</time>
      </trkpt>
      <trkpt lat="49.85985" lon="4.76666">
        <ele>206</ele>
        <time>2022-09-18T08:10:41.000Z</time>
      </trkpt>
      <trkpt lat="49.8599" lon="4.76664">
        <ele>206</ele>
        <time>2022-09-18T08:10:42.000Z</time>
      </trkpt>
      <trkpt lat="49.85996" lon="4.76662">
        <ele>206</ele>
        <time>2022-09-18T08:10:43.000Z</time>
      </trkpt>
      <trkpt lat="49.86003" lon="4.7666">
        <ele>206</ele>
        <time>2022-09-18T08:10:44.000Z</time>
      </trkpt>
      <trkpt lat="49.8601" lon="4.7666">
        <ele>206</ele>
        <time>2022-09-18T08:10:45.000Z</time>
      </trkpt>
      <trkpt lat="49.86017" lon="4.76658">
        <ele>206</ele>
        <time>2022-09-18T08:10:46.000Z</time>
      </trkpt>
      <trkpt lat="49.86024" lon="4.76657">
        <ele>206</ele>
        <time>2022-09-18T08:10:47.000Z</time>
      </trkpt>
      <trkpt lat="49.86031" lon="4.76656">
        <ele>205</ele>
        <time>2022-09-18T08:10:48.000Z</time>
      </trkpt>
      <trkpt lat="49.86039" lon="4.76656">
        <ele>205</ele>
        <time>2022-09-18T08:10:49.000Z</time>
      </trkpt>
      <trkpt lat="49.86046" lon="4.76657">
        <ele>204</ele>
        <time>2022-09-18T08:10:50.000Z</time>
      </trkpt>
      <trkpt lat="49.86054" lon="4.76659">
        <ele>204</ele>
        <time>2022-09-18T08:10:51.000Z</time>
      </trkpt>
      <trkpt lat="49.86062" lon="4.76661">
        <ele>203</ele>
        <time>2022-09-18T08:10:52.000Z</time>
      </trkpt>
      <trkpt lat="49.86069" lon="4.76663">
        <ele>203</ele>
        <time>2022-09-18T08:10:53.000Z</time>
      </trkpt>
      <trkpt lat="49.86077" lon="4.76666">
        <ele>202</ele>
        <time>2022-09-18T08:10:54.000Z</time>
      </trkpt>
      <trkpt lat="49.86086" lon="4.76668">
        <ele>201</ele>
        <time>2022-09-18T08:10:55.000Z</time>
      </trkpt>
      <trkpt lat="49.86094" lon="4.7667">
        <ele>199</ele>
        <time>2022-09-18T08:10:56.000Z</time>
      </trkpt>
      <trkpt lat="49.86103" lon="4.76671">
        <ele>198</ele>
        <time>2022-09-18T08:10:57.000Z</time>
      </trkpt>
      <trkpt lat="49.86112" lon="4.76671">
        <ele>197</ele>
        <time>2022-09-18T08:10:58.000Z</time>
      </trkpt>
      <trkpt lat="49.8612" lon="4.7667">
        <ele>196</ele>
        <time>2022-09-18T08:10:59.000Z</time>
      </trkpt>
      <trkpt lat="49.86127" lon="4.76668">
        <ele>195</ele>
        <time>2022-09-18T08:11:00.000Z</time>
      </trkpt>
      <trkpt lat="49.86135" lon="4.76665">
        <ele>193</ele>
        <time>2022-09-18T08:11:01.000Z</time>
      </trkpt>
      <trkpt lat="49.86142" lon="4.76661">
        <ele>192</ele>
        <time>2022-09-18T08:11:02.000Z</time>
      </trkpt>
      <trkpt lat="49.86147" lon="4.76656">
        <ele>191</ele>
        <time>2022-09-18T08:11:03.000Z</time>
      </trkpt>
      <trkpt lat="49.86151" lon="4.76649">
        <ele>190</ele>
        <time>2022-09-18T08:11:04.000Z</time>
      </trkpt>
      <trkpt lat="49.86154" lon="4.76641">
        <ele>189</ele>
        <time>2022-09-18T08:11:05.000Z</time>
      </trkpt>
      <trkpt lat="49.86154" lon="4.76632">
        <ele>188</ele>
        <time>2022-09-18T08:11:06.000Z</time>
      </trkpt>
      <trkpt lat="49.86152" lon="4.76622">
        <ele>187</ele>
        <time>2022-09-18T08:11:07.000Z</time>
      </trkpt>
      <trkpt lat="49.8615" lon="4.76612">
        <ele>186</ele>
        <time>2022-09-18T08:11:08.000Z</time>
      </trkpt>
      <trkpt lat="49.86147" lon="4.76601">
        <ele>185</ele>
        <time>2022-09-18T08:11:09.000Z</time>
      </trkpt>
      <trkpt lat="49.86143" lon="4.76589">
        <ele>184</ele>
        <time>2022-09-18T08:11:10.000Z</time>
      </trkpt>
      <trkpt lat="49.8614" lon="4.76577">
        <ele>183</ele>
        <time>2022-09-18T08:11:11.000Z</time>
      </trkpt>
      <trkpt lat="49.86137" lon="4.76564">
        <ele>182</ele>
        <time>2022-09-18T08:11:12.000Z</time>
      </trkpt>
      <trkpt lat="49.86135" lon="4.7655">
        <ele>180</ele>
        <time>2022-09-18T08:11:13.000Z</time>
      </trkpt>
      <trkpt lat="49.86133" lon="4.76535">
        <ele>179</ele>
        <time>2022-09-18T08:11:14.000Z</time>
      </trkpt>
      <trkpt lat="49.86131" lon="4.7652">
        <ele>177</ele>
        <time>2022-09-18T08:11:15.000Z</time>
      </trkpt>
      <trkpt lat="49.86129" lon="4.76505">
        <ele>176</ele>
        <time>2022-09-18T08:11:16.000Z</time>
      </trkpt>
      <trkpt lat="49.86126" lon="4.76489">
        <ele>174</ele>
        <time>2022-09-18T08:11:17.000Z</time>
      </trkpt>
      <trkpt lat="49.86124" lon="4.76474">
        <ele>173</ele>
        <time>2022-09-18T08:11:18.000Z</time>
      </trkpt>
      <trkpt lat="49.86121" lon="4.7646">
        <ele>172</ele>
        <time>2022-09-18T08:11:19.000Z</time>
      </trkpt>
      <trkpt lat="49.86118" lon="4.76446">
        <ele>171</ele>
        <time>2022-09-18T08:11:20.000Z</time>
      </trkpt>
      <trkpt lat="49.86116" lon="4.76433">
        <ele>169</ele>
        <time>2022-09-18T08:11:21.000Z</time>
      </trkpt>
      <trkpt lat="49.86113" lon="4.76421">
        <ele>168</ele>
        <time>2022-09-18T08:11:22.000Z</time>
      </trkpt>
      <trkpt lat="49.86111" lon="4.76409">
        <ele>167</ele>
        <time>2022-09-18T08:11:23.000Z</time>
      </trkpt>
      <trkpt lat="49.86109" lon="4.76398">
        <ele>166</ele>
        <time>2022-09-18T08:11:24.000Z</time>
      </trkpt>
      <trkpt lat="49.86107" lon="4.76387">
        <ele>165</ele>
        <time>2022-09-18T08:11:25.000Z</time>
      </trkpt>
      <trkpt lat="49.86104" lon="4.76377">
        <ele>165</ele>
        <time>2022-09-18T08:11:26.000Z</time>
      </trkpt>
      <trkpt lat="49.86102" lon="4.76369">
        <ele>164</ele>
        <time>2022-09-18T08:11:27.000Z</time>
      </trkpt>
      <trkpt lat="49.861" lon="4.76361">
        <ele>163</ele>
        <time>2022-09-18T08:11:28.000Z</time>
      </trkpt>
      <trkpt lat="49.86098" lon="4.76354">
        <ele>162</ele>
        <time>2022-09-18T08:11:29.000Z</time>
      </trkpt>
      <trkpt lat="49.86096" lon="4.76349">
        <ele>162</ele>
        <time>2022-09-18T08:11:30.000Z</time>
      </trkpt>
      <trkpt lat="49.86095" lon="4.76345">
        <ele>162</ele>
        <time>2022-09-18T08:11:31.000Z</time>
      </trkpt>
      <trkpt lat="49.86095" lon="4.76345">
        <ele>162</ele>
        <time>2022-09-18T08:11:32.000Z</time>
      </trkpt>
      <trkpt lat="49.86094" lon="4.76339">
        <ele>161</ele>
        <time>2022-09-18T08:11:33.000Z</time>
      </trkpt>
      <trkpt lat="49.86093" lon="4.76336">
        <ele>161</ele>
        <time>2022-09-18T08:11:34.000Z</time>
      </trkpt>
      <trkpt lat="49.86091" lon="4.76335">
        <ele>160</ele>
        <time>2022-09-18T08:11:35.000Z</time>
      </trkpt>
      <trkpt lat="49.86089" lon="4.76335">
        <ele>160</ele>
        <time>2022-09-18T08:11:36.000Z</time>
      </trkpt>
      <trkpt lat="49.86087" lon="4.76333">
        <ele>160</ele>
        <time>2022-09-18T08:11:37.000Z</time>
      </trkpt>
      <trkpt lat="49.86087" lon="4.7633">
        <ele>160</ele>
        <time>2022-09-18T08:11:38.000Z</time>
      </trkpt>
      <trkpt lat="49.86088" lon="4.76328">
        <ele>160</ele>
        <time>2022-09-18T08:11:39.000Z</time>
      </trkpt>
      <trkpt lat="49.8609" lon="4.76326">
        <ele>160</ele>
        <time>2022-09-18T08:11:40.000Z</time>
      </trkpt>
      <trkpt lat="49.86091" lon="4.76325">
        <ele>159</ele>
        <time>2022-09-18T08:11:41.000Z</time>
      </trkpt>
      <trkpt lat="49.86094" lon="4.76324">
        <ele>159</ele>
        <time>2022-09-18T08:11:42.000Z</time>
      </trkpt>
      <trkpt lat="49.86096" lon="4.76324">
        <ele>159</ele>
        <time>2022-09-18T08:11:43.000Z</time>
      </trkpt>
      <trkpt lat="49.86099" lon="4.76324">
        <ele>159</ele>
        <time>2022-09-18T08:11:44.000Z</time>
      </trkpt>
      <trkpt lat="49.86102" lon="4.76325">
        <ele>159</ele>
        <time>2022-09-18T08:11:45.000Z</time>
      </trkpt>
      <trkpt lat="49.86106" lon="4.76325">
        <ele>159</ele>
        <time>2022-09-18T08:11:46.000Z</time>
      </trkpt>
      <trkpt lat="49.86109" lon="4.76324">
        <ele>159</ele>
        <time>2022-09-18T08:11:47.000Z</time>
      </trkpt>
      <trkpt lat="49.86113" lon="4.76324">
        <ele>159</ele>
        <time>2022-09-18T08:11:48.000Z</time>
      </trkpt>
      <trkpt lat="49.86113" lon="4.76324">
        <ele>159</ele>
        <time>2022-09-18T08:11:49.000Z</time>
      </trkpt>
      <trkpt lat="49.86117" lon="4.76325">
        <ele>159</ele>
        <time>2022-09-18T08:11:50.000Z</time>
      </trkpt>
      <trkpt lat="49.86125" lon="4.76326">
        <ele>159</ele>
        <time>2022-09-18T08:11:51.000Z</time>
      </trkpt>
      <trkpt lat="49.86129" lon="4.76326">
        <ele>159</ele>
        <time>2022-09-18T08:11:52.000Z</time>
      </trkpt>
      <trkpt lat="49.86133" lon="4.76327">
        <ele>159</ele>
        <time>2022-09-18T08:11:53.000Z</time>
      </trkpt>
      <trkpt lat="49.86137" lon="4.76327">
        <ele>159</ele>
        <time>2022-09-18T08:11:54.000Z</time>
      </trkpt>
      <trkpt lat="49.86141" lon="4.76328">
        <ele>159</ele>
        <time>2022-09-18T08:11:55.000Z</time>
      </trkpt>
      <trkpt lat="49.86145" lon="4.76328">
        <ele>159</ele>
        <time>2022-09-18T08:11:56.000Z</time>
      </trkpt>
      <trkpt lat="49.86149" lon="4.76329">
        <ele>159</ele>
        <time>2022-09-18T08:11:57.000Z</time>
      </trkpt>
      <trkpt lat="49.86153" lon="4.76329">
        <ele>159</ele>
        <time>2022-09-18T08:11:58.000Z</time>
      </trkpt>
      <trkpt lat="49.86156" lon="4.7633">
        <ele>159</ele>
        <time>2022-09-18T08:11:59.000Z</time>
      </trkpt>
      <trkpt lat="49.8616" lon="4.7633">
        <ele>159</ele>
        <time>2022-09-18T08:12:00.000Z</time>
      </trkpt>
      <trkpt lat="49.86164" lon="4.7633">
        <ele>159</ele>
        <time>2022-09-18T08:12:01.000Z</time>
      </trkpt>
      <trkpt lat="49.86168" lon="4.76329">
        <ele>159</ele>
        <time>2022-09-18T08:12:02.000Z</time>
      </trkpt>
      <trkpt lat="49.86172" lon="4.76327">
        <ele>159</ele>
        <time>2022-09-18T08:12:03.000Z</time>
      </trkpt>
      <trkpt lat="49.86176" lon="4.76326">
        <ele>159</ele>
        <time>2022-09-18T08:12:04.000Z</time>
      </trkpt>
      <trkpt lat="49.8618" lon="4.76326">
        <ele>159</ele>
        <time>2022-09-18T08:12:05.000Z</time>
      </trkpt>
      <trkpt lat="49.86183" lon="4.76325">
        <ele>159</ele>
        <time>2022-09-18T08:12:06.000Z</time>
      </trkpt>
      <trkpt lat="49.86188" lon="4.76325">
        <ele>158</ele>
        <time>2022-09-18T08:12:07.000Z</time>
      </trkpt>
      <trkpt lat="49.86192" lon="4.76325">
        <ele>158</ele>
        <time>2022-09-18T08:12:08.000Z</time>
      </trkpt>
      <trkpt lat="49.86196" lon="4.76326">
        <ele>158</ele>
        <time>2022-09-18T08:12:09.000Z</time>
      </trkpt>
      <trkpt lat="49.862" lon="4.76326">
        <ele>158</ele>
        <time>2022-09-18T08:12:10.000Z</time>
      </trkpt>
      <trkpt lat="49.86203" lon="4.76327">
        <ele>158</ele>
        <time>2022-09-18T08:12:11.000Z</time>
      </trkpt>
      <trkpt lat="49.86207" lon="4.76327">
        <ele>158</ele>
        <time>2022-09-18T08:12:12.000Z</time>
      </trkpt>
      <trkpt lat="49.86211" lon="4.76328">
        <ele>158</ele>
        <time>2022-09-18T08:12:13.000Z</time>
      </trkpt>
      <trkpt lat="49.86215" lon="4.76328">
        <ele>158</ele>
        <time>2022-09-18T08:12:14.000Z</time>
      </trkpt>
      <trkpt lat="49.86219" lon="4.76329">
        <ele>158</ele>
        <time>2022-09-18T08:12:15.000Z</time>
      </trkpt>
      <trkpt lat="49.86224" lon="4.76329">
        <ele>158</ele>
        <time>2022-09-18T08:12:16.000Z</time>
      </trkpt>
      <trkpt lat="49.86228" lon="4.76328">
        <ele>158</ele>
        <time>2022-09-18T08:12:17.000Z</time>
      </trkpt>
      <trkpt lat="49.86233" lon="4.76327">
        <ele>157</ele>
        <time>2022-09-18T08:12:18.000Z</time>
      </trkpt>
      <trkpt lat="49.86237" lon="4.76326">
        <ele>157</ele>
        <time>2022-09-18T08:12:19.000Z</time>
      </trkpt>
      <trkpt lat="49.86242" lon="4.76324">
        <ele>157</ele>
        <time>2022-09-18T08:12:20.000Z</time>
      </trkpt>
      <trkpt lat="49.86246" lon="4.76323">
        <ele>157</ele>
        <time>2022-09-18T08:12:21.000Z</time>
      </trkpt>
      <trkpt lat="49.8625" lon="4.76322">
        <ele>157</ele>
        <time>2022-09-18T08:12:22.000Z</time>
      </trkpt>
      <trkpt lat="49.86254" lon="4.7632">
        <ele>158</ele>
        <time>2022-09-18T08:12:23.000Z</time>
      </trkpt>
      <trkpt lat="49.86258" lon="4.76317">
        <ele>158</ele>
        <time>2022-09-18T08:12:24.000Z</time>
      </trkpt>
      <trkpt lat="49.86261" lon="4.76315">
        <ele>158</ele>
        <time>2022-09-18T08:12:25.000Z</time>
      </trkpt>
      <trkpt lat="49.86265" lon="4.76313">
        <ele>158</ele>
        <time>2022-09-18T08:12:26.000Z</time>
      </trkpt>
      <trkpt lat="49.86268" lon="4.76311">
        <ele>158</ele>
        <time>2022-09-18T08:12:27.000Z</time>
      </trkpt>
      <trkpt lat="49.86272" lon="4.7631">
        <ele>158</ele>
        <time>2022-09-18T08:12:28.000Z</time>
      </trkpt>
      <trkpt lat="49.86275" lon="4.76308">
        <ele>158</ele>
        <time>2022-09-18T08:12:29.000Z</time>
      </trkpt>
      <trkpt lat="49.86278" lon="4.76307">
        <ele>158</ele>
        <time>2022-09-18T08:12:30.000Z</time>
      </trkpt>
      <trkpt lat="49.86282" lon="4.76306">
        <ele>158</ele>
        <time>2022-09-18T08:12:31.000Z</time>
      </trkpt>
      <trkpt lat="49.86285" lon="4.76306">
        <ele>158</ele>
        <time>2022-09-18T08:12:32.000Z</time>
      </trkpt>
      <trkpt lat="49.86288" lon="4.76307">
        <ele>158</ele>
        <time>2022-09-18T08:12:33.000Z</time>
      </trkpt>
      <trkpt lat="49.86291" lon="4.76309">
        <ele>159</ele>
        <time>2022-09-18T08:12:34.000Z</time>
      </trkpt>
      <trkpt lat="49.86293" lon="4.76311">
        <ele>159</ele>
        <time>2022-09-18T08:12:35.000Z</time>
      </trkpt>
      <trkpt lat="49.86296" lon="4.76313">
        <ele>159</ele>
        <time>2022-09-18T08:12:36.000Z</time>
      </trkpt>
      <trkpt lat="49.86297" lon="4.76315">
        <ele>159</ele>
        <time>2022-09-18T08:12:37.000Z</time>
      </trkpt>
      <trkpt lat="49.86299" lon="4.76317">
        <ele>159</ele>
        <time>2022-09-18T08:12:38.000Z</time>
      </trkpt>
      <trkpt lat="49.86301" lon="4.76319">
        <ele>159</ele>
        <time>2022-09-18T08:12:39.000Z</time>
      </trkpt>
      <trkpt lat="49.86303" lon="4.76321">
        <ele>159</ele>
        <time>2022-09-18T08:12:40.000Z</time>
      </trkpt>
      <trkpt lat="49.86305" lon="4.76324">
        <ele>159</ele>
        <time>2022-09-18T08:12:41.000Z</time>
      </trkpt>
      <trkpt lat="49.86307" lon="4.76326">
        <ele>159</ele>
        <time>2022-09-18T08:12:42.000Z</time>
      </trkpt>
      <trkpt lat="49.86308" lon="4.76328">
        <ele>160</ele>
        <time>2022-09-18T08:12:43.000Z</time>
      </trkpt>
      <trkpt lat="49.8631" lon="4.76331">
        <ele>160</ele>
        <time>2022-09-18T08:12:44.000Z</time>
      </trkpt>
      <trkpt lat="49.86313" lon="4.76333">
        <ele>160</ele>
        <time>2022-09-18T08:12:45.000Z</time>
      </trkpt>
      <trkpt lat="49.86314" lon="4.76335">
        <ele>160</ele>
        <time>2022-09-18T08:12:46.000Z</time>
      </trkpt>
      <trkpt lat="49.86317" lon="4.76338">
        <ele>160</ele>
        <time>2022-09-18T08:12:47.000Z</time>
      </trkpt>
      <trkpt lat="49.86319" lon="4.7634">
        <ele>160</ele>
        <time>2022-09-18T08:12:48.000Z</time>
      </trkpt>
      <trkpt lat="49.86321" lon="4.76342">
        <ele>160</ele>
        <time>2022-09-18T08:12:49.000Z</time>
      </trkpt>
      <trkpt lat="49.86323" lon="4.76345">
        <ele>161</ele>
        <time>2022-09-18T08:12:50.000Z</time>
      </trkpt>
      <trkpt lat="49.86325" lon="4.76347">
        <ele>161</ele>
        <time>2022-09-18T08:12:51.000Z</time>
      </trkpt>
      <trkpt lat="49.86327" lon="4.76349">
        <ele>161</ele>
        <time>2022-09-18T08:12:52.000Z</time>
      </trkpt>
      <trkpt lat="49.86329" lon="4.76351">
        <ele>161</ele>
        <time>2022-09-18T08:12:53.000Z</time>
      </trkpt>
      <trkpt lat="49.86331" lon="4.76354">
        <ele>161</ele>
        <time>2022-09-18T08:12:54.000Z</time>
      </trkpt>
      <trkpt lat="49.86333" lon="4.76355">
        <ele>161</ele>
        <time>2022-09-18T08:12:55.000Z</time>
      </trkpt>
      <trkpt lat="49.86335" lon="4.76357">
        <ele>161</ele>
        <time>2022-09-18T08:12:56.000Z</time>
      </trkpt>
      <trkpt lat="49.86337" lon="4.76358">
        <ele>161</ele>
        <time>2022-09-18T08:12:57.000Z</time>
      </trkpt>
      <trkpt lat="49.86339" lon="4.76359">
        <ele>162</ele>
        <time>2022-09-18T08:12:58.000Z</time>
      </trkpt>
      <trkpt lat="49.86341" lon="4.7636">
        <ele>162</ele>
        <time>2022-09-18T08:12:59.000Z</time>
      </trkpt>
      <trkpt lat="49.86344" lon="4.76361">
        <ele>162</ele>
        <time>2022-09-18T08:13:00.000Z</time>
      </trkpt>
      <trkpt lat="49.86346" lon="4.76362">
        <ele>162</ele>
        <time>2022-09-18T08:13:01.000Z</time>
      </trkpt>
      <trkpt lat="49.86348" lon="4.76364">
        <ele>162</ele>
        <time>2022-09-18T08:13:02.000Z</time>
      </trkpt>
      <trkpt lat="49.8635" lon="4.76365">
        <ele>162</ele>
        <time>2022-09-18T08:13:03.000Z</time>
      </trkpt>
      <trkpt lat="49.86352" lon="4.76366">
        <ele>163</ele>
        <time>2022-09-18T08:13:04.000Z</time>
      </trkpt>
      <trkpt lat="49.86354" lon="4.76367">
        <ele>163</ele>
        <time>2022-09-18T08:13:05.000Z</time>
      </trkpt>
      <trkpt lat="49.86356" lon="4.76368">
        <ele>163</ele>
        <time>2022-09-18T08:13:06.000Z</time>
      </trkpt>
      <trkpt lat="49.86357" lon="4.76368">
        <ele>163</ele>
        <time>2022-09-18T08:13:07.000Z</time>
      </trkpt>
      <trkpt lat="49.86359" lon="4.7637">
        <ele>163</ele>
        <time>2022-09-18T08:13:08.000Z</time>
      </trkpt>
      <trkpt lat="49.86361" lon="4.7637">
        <ele>163</ele>
        <time>2022-09-18T08:13:09.000Z</time>
      </trkpt>
      <trkpt lat="49.86363" lon="4.76372">
        <ele>163</ele>
        <time>2022-09-18T08:13:10.000Z</time>
      </trkpt>
      <trkpt lat="49.86365" lon="4.76373">
        <ele>164</ele>
        <time>2022-09-18T08:13:11.000Z</time>
      </trkpt>
      <trkpt lat="49.86367" lon="4.76374">
        <ele>164</ele>
        <time>2022-09-18T08:13:12.000Z</time>
      </trkpt>
      <trkpt lat="49.86369" lon="4.76375">
        <ele>164</ele>
        <time>2022-09-18T08:13:13.000Z</time>
      </trkpt>
      <trkpt lat="49.86371" lon="4.76375">
        <ele>164</ele>
        <time>2022-09-18T08:13:14.000Z</time>
      </trkpt>
      <trkpt lat="49.86373" lon="4.76376">
        <ele>165</ele>
        <time>2022-09-18T08:13:15.000Z</time>
      </trkpt>
      <trkpt lat="49.86374" lon="4.76375">
        <ele>165</ele>
        <time>2022-09-18T08:13:16.000Z</time>
      </trkpt>
      <trkpt lat="49.86376" lon="4.76375">
        <ele>166</ele>
        <time>2022-09-18T08:13:17.000Z</time>
      </trkpt>
      <trkpt lat="49.86377" lon="4.76376">
        <ele>166</ele>
        <time>2022-09-18T08:13:18.000Z</time>
      </trkpt>
      <trkpt lat="49.86379" lon="4.76376">
        <ele>166</ele>
        <time>2022-09-18T08:13:19.000Z</time>
      </trkpt>
      <trkpt lat="49.86381" lon="4.76376">
        <ele>166</ele>
        <time>2022-09-18T08:13:20.000Z</time>
      </trkpt>
      <trkpt lat="49.86383" lon="4.76376">
        <ele>167</ele>
        <time>2022-09-18T08:13:21.000Z</time>
      </trkpt>
      <trkpt lat="49.86385" lon="4.76376">
        <ele>167</ele>
        <time>2022-09-18T08:13:22.000Z</time>
      </trkpt>
      <trkpt lat="49.86387" lon="4.76376">
        <ele>167</ele>
        <time>2022-09-18T08:13:23.000Z</time>
      </trkpt>
      <trkpt lat="49.86389" lon="4.76376">
        <ele>168</ele>
        <time>2022-09-18T08:13:24.000Z</time>
      </trkpt>
      <trkpt lat="49.86391" lon="4.76377">
        <ele>168</ele>
        <time>2022-09-18T08:13:25.000Z</time>
      </trkpt>
      <trkpt lat="49.86392" lon="4.76377">
        <ele>168</ele>
        <time>2022-09-18T08:13:26.000Z</time>
      </trkpt>
      <trkpt lat="49.86394" lon="4.76377">
        <ele>169</ele>
        <time>2022-09-18T08:13:27.000Z</time>
      </trkpt>
      <trkpt lat="49.86396" lon="4.76378">
        <ele>169</ele>
        <time>2022-09-18T08:13:28.000Z</time>
      </trkpt>
      <trkpt lat="49.86398" lon="4.76378">
        <ele>169</ele>
        <time>2022-09-18T08:13:29.000Z</time>
      </trkpt>
      <trkpt lat="49.864" lon="4.76379">
        <ele>170</ele>
        <time>2022-09-18T08:13:30.000Z</time>
      </trkpt>
      <trkpt lat="49.86401" lon="4.76379">
        <ele>170</ele>
        <time>2022-09-18T08:13:31.000Z</time>
      </trkpt>
      <trkpt lat="49.86403" lon="4.7638">
        <ele>170</ele>
        <time>2022-09-18T08:13:32.000Z</time>
      </trkpt>
      <trkpt lat="49.86405" lon="4.7638">
        <ele>171</ele>
        <time>2022-09-18T08:13:33.000Z</time>
      </trkpt>
      <trkpt lat="49.86407" lon="4.76381">
        <ele>171</ele>
        <time>2022-09-18T08:13:34.000Z</time>
      </trkpt>
      <trkpt lat="49.86408" lon="4.76381">
        <ele>171</ele>
        <time>2022-09-18T08:13:35.000Z</time>
      </trkpt>
      <trkpt lat="49.8641" lon="4.76382">
        <ele>172</ele>
        <time>2022-09-18T08:13:36.000Z</time>
      </trkpt>
      <trkpt lat="49.86411" lon="4.76383">
        <ele>172</ele>
        <time>2022-09-18T08:13:37.000Z</time>
      </trkpt>
      <trkpt lat="49.86412" lon="4.76384">
        <ele>172</ele>
        <time>2022-09-18T08:13:38.000Z</time>
      </trkpt>
      <trkpt lat="49.86414" lon="4.76384">
        <ele>173</ele>
        <time>2022-09-18T08:13:39.000Z</time>
      </trkpt>
      <trkpt lat="49.86415" lon="4.76385">
        <ele>173</ele>
        <time>2022-09-18T08:13:40.000Z</time>
      </trkpt>
      <trkpt lat="49.86417" lon="4.76386">
        <ele>174</ele>
        <time>2022-09-18T08:13:41.000Z</time>
      </trkpt>
      <trkpt lat="49.86418" lon="4.76387">
        <ele>174</ele>
        <time>2022-09-18T08:13:42.000Z</time>
      </trkpt>
      <trkpt lat="49.86419" lon="4.76387">
        <ele>174</ele>
        <time>2022-09-18T08:13:43.000Z</time>
      </trkpt>
      <trkpt lat="49.86421" lon="4.76388">
        <ele>175</ele>
        <time>2022-09-18T08:13:44.000Z</time>
      </trkpt>
      <trkpt lat="49.86422" lon="4.76388">
        <ele>175</ele>
        <time>2022-09-18T08:13:45.000Z</time>
      </trkpt>
      <trkpt lat="49.86423" lon="4.76389">
        <ele>175</ele>
        <time>2022-09-18T08:13:46.000Z</time>
      </trkpt>
      <trkpt lat="49.86424" lon="4.7639">
        <ele>176</ele>
        <time>2022-09-18T08:13:47.000Z</time>
      </trkpt>
      <trkpt lat="49.86426" lon="4.7639">
        <ele>176</ele>
        <time>2022-09-18T08:13:48.000Z</time>
      </trkpt>
      <trkpt lat="49.86427" lon="4.76391">
        <ele>177</ele>
        <time>2022-09-18T08:13:49.000Z</time>
      </trkpt>
      <trkpt lat="49.86429" lon="4.76392">
        <ele>177</ele>
        <time>2022-09-18T08:13:50.000Z</time>
      </trkpt>
      <trkpt lat="49.8643" lon="4.76392">
        <ele>177</ele>
        <time>2022-09-18T08:13:51.000Z</time>
      </trkpt>
      <trkpt lat="49.86432" lon="4.76392">
        <ele>178</ele>
        <time>2022-09-18T08:13:52.000Z</time>
      </trkpt>
      <trkpt lat="49.86433" lon="4.76392">
        <ele>178</ele>
        <time>2022-09-18T08:13:53.000Z</time>
      </trkpt>
      <trkpt lat="49.86435" lon="4.76391">
        <ele>179</ele>
        <time>2022-09-18T08:13:54.000Z</time>
      </trkpt>
      <trkpt lat="49.86437" lon="4.76391">
        <ele>179</ele>
        <time>2022-09-18T08:13:55.000Z</time>
      </trkpt>
      <trkpt lat="49.86438" lon="4.7639">
        <ele>180</ele>
        <time>2022-09-18T08:13:56.000Z</time>
      </trkpt>
      <trkpt lat="49.8644" lon="4.7639">
        <ele>180</ele>
        <time>2022-09-18T08:13:57.000Z</time>
      </trkpt>
      <trkpt lat="49.86441" lon="4.76389">
        <ele>181</ele>
        <time>2022-09-18T08:13:58.000Z</time>
      </trkpt>
      <trkpt lat="49.86442" lon="4.76389">
        <ele>181</ele>
        <time>2022-09-18T08:13:59.000Z</time>
      </trkpt>
      <trkpt lat="49.86443" lon="4.76388">
        <ele>182</ele>
        <time>2022-09-18T08:14:00.000Z</time>
      </trkpt>
      <trkpt lat="49.86445" lon="4.76388">
        <ele>182</ele>
        <time>2022-09-18T08:14:01.000Z</time>
      </trkpt>
      <trkpt lat="49.86446" lon="4.76387">
        <ele>183</ele>
        <time>2022-09-18T08:14:02.000Z</time>
      </trkpt>
      <trkpt lat="49.86447" lon="4.76387">
        <ele>183</ele>
        <time>2022-09-18T08:14:03.000Z</time>
      </trkpt>
      <trkpt lat="49.86448" lon="4.76386">
        <ele>184</ele>
        <time>2022-09-18T08:14:04.000Z</time>
      </trkpt>
      <trkpt lat="49.86448" lon="4.76386">
        <ele>184</ele>
        <time>2022-09-18T08:14:05.000Z</time>
      </trkpt>
      <trkpt lat="49.86447" lon="4.76386">
        <ele>185</ele>
        <time>2022-09-18T08:14:06.000Z</time>
      </trkpt>
      <trkpt lat="49.86447" lon="4.76386">
        <ele>185</ele>
        <time>2022-09-18T08:14:07.000Z</time>
      </trkpt>
      <trkpt lat="49.86447" lon="4.76386">
        <ele>185</ele>
        <time>2022-09-18T08:14:08.000Z</time>
      </trkpt>
      <trkpt lat="49.86447" lon="4.76386">
        <ele>186</ele>
        <time>2022-09-18T08:14:09.000Z</time>
      </trkpt>
      <trkpt lat="49.86447" lon="4.76386">
        <ele>186</ele>
        <time>2022-09-18T08:14:10.000Z</time>
      </trkpt>
      <trkpt lat="49.86448" lon="4.76386">
        <ele>186</ele>
        <time>2022-09-18T08:14:11.000Z</time>
      </trkpt>
      <trkpt lat="49.86448" lon="4.76386">
        <ele>187</ele>
        <time>2022-09-18T08:14:12.000Z</time>
      </trkpt>
      <trkpt lat="49.86449" lon="4.76386">
        <ele>187</ele>
        <time>2022-09-18T08:14:13.000Z</time>
      </trkpt>
      <trkpt lat="49.86449" lon="4.76385">
        <ele>187</ele>
        <time>2022-09-18T08:14:14.000Z</time>
      </trkpt>
      <trkpt lat="49.8645" lon="4.76385">
        <ele>187</ele>
        <time>2022-09-18T08:14:15.000Z</time>
      </trkpt>
      <trkpt lat="49.8645" lon="4.76385">
        <ele>188</ele>
        <time>2022-09-18T08:14:16.000Z</time>
      </trkpt>
      <trkpt lat="49.8645" lon="4.76385">
        <ele>188</ele>
        <time>2022-09-18T08:14:17.000Z</time>
      </trkpt>
      <trkpt lat="49.8645" lon="4.76384">
        <ele>188</ele>
        <time>2022-09-18T08:14:18.000Z</time>
      </trkpt>
      <trkpt lat="49.86451" lon="4.76384">
        <ele>188</ele>
        <time>2022-09-18T08:14:19.000Z</time>
      </trkpt>
      <trkpt lat="49.86452" lon="4.76384">
        <ele>188</ele>
        <time>2022-09-18T08:14:20.000Z</time>
      </trkpt>
      <trkpt lat="49.86453" lon="4.76384">
        <ele>189</ele>
        <time>2022-09-18T08:14:21.000Z</time>
      </trkpt>
      <trkpt lat="49.86454" lon="4.76383">
        <ele>189</ele>
        <time>2022-09-18T08:14:22.000Z</time>
      </trkpt>
      <trkpt lat="49.86455" lon="4.76383">
        <ele>189</ele>
        <time>2022-09-18T08:14:23.000Z</time>
      </trkpt>
      <trkpt lat="49.86457" lon="4.76383">
        <ele>189</ele>
        <time>2022-09-18T08:14:24.000Z</time>
      </trkpt>
      <trkpt lat="49.86458" lon="4.76382">
        <ele>189</ele>
        <time>2022-09-18T08:14:25.000Z</time>
      </trkpt>
      <trkpt lat="49.8646" lon="4.76381">
        <ele>190</ele>
        <time>2022-09-18T08:14:26.000Z</time>
      </trkpt>
      <trkpt lat="49.86461" lon="4.76381">
        <ele>190</ele>
        <time>2022-09-18T08:14:27.000Z</time>
      </trkpt>
      <trkpt lat="49.86462" lon="4.7638">
        <ele>190</ele>
        <time>2022-09-18T08:14:28.000Z</time>
      </trkpt>
      <trkpt lat="49.86463" lon="4.76379">
        <ele>191</ele>
        <time>2022-09-18T08:14:29.000Z</time>
      </trkpt>
      <trkpt lat="49.86465" lon="4.76378">
        <ele>191</ele>
        <time>2022-09-18T08:14:30.000Z</time>
      </trkpt>
      <trkpt lat="49.86466" lon="4.76378">
        <ele>191</ele>
        <time>2022-09-18T08:14:31.000Z</time>
      </trkpt>
      <trkpt lat="49.86468" lon="4.76378">
        <ele>191</ele>
        <time>2022-09-18T08:14:32.000Z</time>
      </trkpt>
      <trkpt lat="49.86469" lon="4.76378">
        <ele>191</ele>
        <time>2022-09-18T08:14:33.000Z</time>
      </trkpt>
      <trkpt lat="49.86471" lon="4.76377">
        <ele>191</ele>
        <time>2022-09-18T08:14:34.000Z</time>
      </trkpt>
      <trkpt lat="49.86472" lon="4.76376">
        <ele>192</ele>
        <time>2022-09-18T08:14:35.000Z</time>
      </trkpt>
      <trkpt lat="49.86474" lon="4.76375">
        <ele>192</ele>
        <time>2022-09-18T08:14:36.000Z</time>
      </trkpt>
      <trkpt lat="49.86475" lon="4.76374">
        <ele>192</ele>
        <time>2022-09-18T08:14:37.000Z</time>
      </trkpt>
      <trkpt lat="49.86476" lon="4.76373">
        <ele>193</ele>
        <time>2022-09-18T08:14:38.000Z</time>
      </trkpt>
      <trkpt lat="49.86477" lon="4.76372">
        <ele>193</ele>
        <time>2022-09-18T08:14:39.000Z</time>
      </trkpt>
      <trkpt lat="49.86478" lon="4.76372">
        <ele>193</ele>
        <time>2022-09-18T08:14:40.000Z</time>
      </trkpt>
      <trkpt lat="49.8648" lon="4.76371">
        <ele>193</ele>
        <time>2022-09-18T08:14:41.000Z</time>
      </trkpt>
      <trkpt lat="49.86481" lon="4.7637">
        <ele>194</ele>
        <time>2022-09-18T08:14:42.000Z</time>
      </trkpt>
      <trkpt lat="49.86482" lon="4.76369">
        <ele>194</ele>
        <time>2022-09-18T08:14:43.000Z</time>
      </trkpt>
      <trkpt lat="49.86483" lon="4.76368">
        <ele>194</ele>
        <time>2022-09-18T08:14:44.000Z</time>
      </trkpt>
      <trkpt lat="49.86484" lon="4.76367">
        <ele>195</ele>
        <time>2022-09-18T08:14:45.000Z</time>
      </trkpt>
      <trkpt lat="49.86485" lon="4.76366">
        <ele>195</ele>
        <time>2022-09-18T08:14:46.000Z</time>
      </trkpt>
      <trkpt lat="49.86487" lon="4.76365">
        <ele>195</ele>
        <time>2022-09-18T08:14:47.000Z</time>
      </trkpt>
      <trkpt lat="49.86488" lon="4.76364">
        <ele>195</ele>
        <time>2022-09-18T08:14:48.000Z</time>
      </trkpt>
      <trkpt lat="49.8649" lon="4.76362">
        <ele>196</ele>
        <time>2022-09-18T08:14:49.000Z</time>
      </trkpt>
      <trkpt lat="49.86491" lon="4.76362">
        <ele>196</ele>
        <time>2022-09-18T08:14:50.000Z</time>
      </trkpt>
      <trkpt lat="49.86493" lon="4.7636">
        <ele>196</ele>
        <time>2022-09-18T08:14:51.000Z</time>
      </trkpt>
      <trkpt lat="49.86494" lon="4.76358">
        <ele>197</ele>
        <time>2022-09-18T08:14:52.000Z</time>
      </trkpt>
      <trkpt lat="49.86496" lon="4.76356">
        <ele>197</ele>
        <time>2022-09-18T08:14:53.000Z</time>
      </trkpt>
      <trkpt lat="49.86498" lon="4.76355">
        <ele>197</ele>
        <time>2022-09-18T08:14:54.000Z</time>
      </trkpt>
      <trkpt lat="49.86499" lon="4.76354">
        <ele>197</ele>
        <time>2022-09-18T08:14:55.000Z</time>
      </trkpt>
      <trkpt lat="49.865" lon="4.76353">
        <ele>197</ele>
        <time>2022-09-18T08:14:56.000Z</time>
      </trkpt>
      <trkpt lat="49.86502" lon="4.76351">
        <ele>198</ele>
        <time>2022-09-18T08:14:57.000Z</time>
      </trkpt>
      <trkpt lat="49.86503" lon="4.7635">
        <ele>198</ele>
        <time>2022-09-18T08:14:58.000Z</time>
      </trkpt>
      <trkpt lat="49.86504" lon="4.76348">
        <ele>198</ele>
        <time>2022-09-18T08:14:59.000Z</time>
      </trkpt>
      <trkpt lat="49.86506" lon="4.76347">
        <ele>198</ele>
        <time>2022-09-18T08:15:00.000Z</time>
      </trkpt>
      <trkpt lat="49.86507" lon="4.76346">
        <ele>198</ele>
        <time>2022-09-18T08:15:01.000Z</time>
      </trkpt>
      <trkpt lat="49.86508" lon="4.76345">
        <ele>198</ele>
        <time>2022-09-18T08:15:02.000Z</time>
      </trkpt>
      <trkpt lat="49.8651" lon="4.76344">
        <ele>198</ele>
        <time>2022-09-18T08:15:03.000Z</time>
      </trkpt>
      <trkpt lat="49.86511" lon="4.76343">
        <ele>198</ele>
        <time>2022-09-18T08:15:04.000Z</time>
      </trkpt>
      <trkpt lat="49.86513" lon="4.76343">
        <ele>199</ele>
        <time>2022-09-18T08:15:05.000Z</time>
      </trkpt>
      <trkpt lat="49.86514" lon="4.76342">
        <ele>199</ele>
        <time>2022-09-18T08:15:06.000Z</time>
      </trkpt>
      <trkpt lat="49.86515" lon="4.76341">
        <ele>199</ele>
        <time>2022-09-18T08:15:07.000Z</time>
      </trkpt>
      <trkpt lat="49.86516" lon="4.76341">
        <ele>199</ele>
        <time>2022-09-18T08:15:08.000Z</time>
      </trkpt>
      <trkpt lat="49.86517" lon="4.7634">
        <ele>200</ele>
        <time>2022-09-18T08:15:09.000Z</time>
      </trkpt>
      <trkpt lat="49.86519" lon="4.76339">
        <ele>200</ele>
        <time>2022-09-18T08:15:10.000Z</time>
      </trkpt>
      <trkpt lat="49.8652" lon="4.76337">
        <ele>200</ele>
        <time>2022-09-18T08:15:11.000Z</time>
      </trkpt>
      <trkpt lat="49.86521" lon="4.76336">
        <ele>200</ele>
        <time>2022-09-18T08:15:12.000Z</time>
      </trkpt>
      <trkpt lat="49.86522" lon="4.76334">
        <ele>201</ele>
        <time>2022-09-18T08:15:13.000Z</time>
      </trkpt>
      <trkpt lat="49.86523" lon="4.76333">
        <ele>201</ele>
        <time>2022-09-18T08:15:14.000Z</time>
      </trkpt>
      <trkpt lat="49.86524" lon="4.76332">
        <ele>201</ele>
        <time>2022-09-18T08:15:15.000Z</time>
      </trkpt>
      <trkpt lat="49.86525" lon="4.7633">
        <ele>202</ele>
        <time>2022-09-18T08:15:16.000Z</time>
      </trkpt>
      <trkpt lat="49.86527" lon="4.76329">
        <ele>202</ele>
        <time>2022-09-18T08:15:17.000Z</time>
      </trkpt>
      <trkpt lat="49.86529" lon="4.76329">
        <ele>202</ele>
        <time>2022-09-18T08:15:18.000Z</time>
      </trkpt>
      <trkpt lat="49.86531" lon="4.76328">
        <ele>203</ele>
        <time>2022-09-18T08:15:19.000Z</time>
      </trkpt>
      <trkpt lat="49.86532" lon="4.76327">
        <ele>203</ele>
        <time>2022-09-18T08:15:20.000Z</time>
      </trkpt>
      <trkpt lat="49.86534" lon="4.76326">
        <ele>203</ele>
        <time>2022-09-18T08:15:21.000Z</time>
      </trkpt>
      <trkpt lat="49.86535" lon="4.76325">
        <ele>203</ele>
        <time>2022-09-18T08:15:22.000Z</time>
      </trkpt>
      <trkpt lat="49.86537" lon="4.76323">
        <ele>204</ele>
        <time>2022-09-18T08:15:23.000Z</time>
      </trkpt>
      <trkpt lat="49.86539" lon="4.76323">
        <ele>204</ele>
        <time>2022-09-18T08:15:24.000Z</time>
      </trkpt>
      <trkpt lat="49.86541" lon="4.76322">
        <ele>204</ele>
        <time>2022-09-18T08:15:25.000Z</time>
      </trkpt>
      <trkpt lat="49.86542" lon="4.7632">
        <ele>204</ele>
        <time>2022-09-18T08:15:26.000Z</time>
      </trkpt>
      <trkpt lat="49.86544" lon="4.76319">
        <ele>204</ele>
        <time>2022-09-18T08:15:27.000Z</time>
      </trkpt>
      <trkpt lat="49.86545" lon="4.76318">
        <ele>205</ele>
        <time>2022-09-18T08:15:28.000Z</time>
      </trkpt>
      <trkpt lat="49.86547" lon="4.76317">
        <ele>205</ele>
        <time>2022-09-18T08:15:29.000Z</time>
      </trkpt>
      <trkpt lat="49.86548" lon="4.76316">
        <ele>205</ele>
        <time>2022-09-18T08:15:30.000Z</time>
      </trkpt>
      <trkpt lat="49.86549" lon="4.76314">
        <ele>205</ele>
        <time>2022-09-18T08:15:31.000Z</time>
      </trkpt>
      <trkpt lat="49.8655" lon="4.76313">
        <ele>205</ele>
        <time>2022-09-18T08:15:32.000Z</time>
      </trkpt>
      <trkpt lat="49.86552" lon="4.76313">
        <ele>205</ele>
        <time>2022-09-18T08:15:33.000Z</time>
      </trkpt>
      <trkpt lat="49.86553" lon="4.76312">
        <ele>205</ele>
        <time>2022-09-18T08:15:34.000Z</time>
      </trkpt>
      <trkpt lat="49.86554" lon="4.76311">
        <ele>205</ele>
        <time>2022-09-18T08:15:35.000Z</time>
      </trkpt>
      <trkpt lat="49.86556" lon="4.7631">
        <ele>205</ele>
        <time>2022-09-18T08:15:36.000Z</time>
      </trkpt>
      <trkpt lat="49.86557" lon="4.76309">
        <ele>206</ele>
        <time>2022-09-18T08:15:37.000Z</time>
      </trkpt>
      <trkpt lat="49.86559" lon="4.76308">
        <ele>206</ele>
        <time>2022-09-18T08:15:38.000Z</time>
      </trkpt>
      <trkpt lat="49.8656" lon="4.76307">
        <ele>206</ele>
        <time>2022-09-18T08:15:39.000Z</time>
      </trkpt>
      <trkpt lat="49.86562" lon="4.76306">
        <ele>206</ele>
        <time>2022-09-18T08:15:40.000Z</time>
      </trkpt>
      <trkpt lat="49.86563" lon="4.76306">
        <ele>207</ele>
        <time>2022-09-18T08:15:41.000Z</time>
      </trkpt>
      <trkpt lat="49.86564" lon="4.76305">
        <ele>207</ele>
        <time>2022-09-18T08:15:42.000Z</time>
      </trkpt>
      <trkpt lat="49.86566" lon="4.76304">
        <ele>207</ele>
        <time>2022-09-18T08:15:43.000Z</time>
      </trkpt>
      <trkpt lat="49.86567" lon="4.76303">
        <ele>207</ele>
        <time>2022-09-18T08:15:44.000Z</time>
      </trkpt>
      <trkpt lat="49.86568" lon="4.76302">
        <ele>207</ele>
        <time>2022-09-18T08:15:45.000Z</time>
      </trkpt>
      <trkpt lat="49.86569" lon="4.763">
        <ele>208</ele>
        <time>2022-09-18T08:15:46.000Z</time>
      </trkpt>
      <trkpt lat="49.86571" lon="4.763">
        <ele>208</ele>
        <time>2022-09-18T08:15:47.000Z</time>
      </trkpt>
      <trkpt lat="49.86572" lon="4.76299">
        <ele>208</ele>
        <time>2022-09-18T08:15:48.000Z</time>
      </trkpt>
      <trkpt lat="49.86573" lon="4.76297">
        <ele>208</ele>
        <time>2022-09-18T08:15:49.000Z</time>
      </trkpt>
      <trkpt lat="49.86575" lon="4.76296">
        <ele>209</ele>
        <time>2022-09-18T08:15:50.000Z</time>
      </trkpt>
      <trkpt lat="49.86576" lon="4.76295">
        <ele>209</ele>
        <time>2022-09-18T08:15:51.000Z</time>
      </trkpt>
      <trkpt lat="49.86578" lon="4.76294">
        <ele>209</ele>
        <time>2022-09-18T08:15:52.000Z</time>
      </trkpt>
      <trkpt lat="49.86579" lon="4.76292">
        <ele>210</ele>
        <time>2022-09-18T08:15:53.000Z</time>
      </trkpt>
      <trkpt lat="49.86581" lon="4.76291">
        <ele>210</ele>
        <time>2022-09-18T08:15:54.000Z</time>
      </trkpt>
      <trkpt lat="49.86582" lon="4.76289">
        <ele>210</ele>
        <time>2022-09-18T08:15:55.000Z</time>
      </trkpt>
      <trkpt lat="49.86584" lon="4.76288">
        <ele>211</ele>
        <time>2022-09-18T08:15:56.000Z</time>
      </trkpt>
      <trkpt lat="49.86585" lon="4.76287">
        <ele>211</ele>
        <time>2022-09-18T08:15:57.000Z</time>
      </trkpt>
      <trkpt lat="49.86586" lon="4.76286">
        <ele>211</ele>
        <time>2022-09-18T08:15:58.000Z</time>
      </trkpt>
      <trkpt lat="49.86587" lon="4.76284">
        <ele>211</ele>
        <time>2022-09-18T08:15:59.000Z</time>
      </trkpt>
      <trkpt lat="49.86589" lon="4.76282">
        <ele>212</ele>
        <time>2022-09-18T08:16:00.000Z</time>
      </trkpt>
      <trkpt lat="49.8659" lon="4.76281">
        <ele>212</ele>
        <time>2022-09-18T08:16:01.000Z</time>
      </trkpt>
      <trkpt lat="49.86591" lon="4.7628">
        <ele>213</ele>
        <time>2022-09-18T08:16:02.000Z</time>
      </trkpt>
      <trkpt lat="49.86593" lon="4.76279">
        <ele>213</ele>
        <time>2022-09-18T08:16:03.000Z</time>
      </trkpt>
      <trkpt lat="49.86593" lon="4.76279">
        <ele>213</ele>
        <time>2022-09-18T08:16:04.000Z</time>
      </trkpt>
      <trkpt lat="49.86595" lon="4.76278">
        <ele>214</ele>
        <time>2022-09-18T08:16:05.000Z</time>
      </trkpt>
      <trkpt lat="49.86596" lon="4.76277">
        <ele>214</ele>
        <time>2022-09-18T08:16:06.000Z</time>
      </trkpt>
      <trkpt lat="49.86597" lon="4.76276">
        <ele>214</ele>
        <time>2022-09-18T08:16:07.000Z</time>
      </trkpt>
      <trkpt lat="49.86599" lon="4.76275">
        <ele>215</ele>
        <time>2022-09-18T08:16:08.000Z</time>
      </trkpt>
      <trkpt lat="49.866" lon="4.76274">
        <ele>215</ele>
        <time>2022-09-18T08:16:09.000Z</time>
      </trkpt>
      <trkpt lat="49.86602" lon="4.76273">
        <ele>215</ele>
        <time>2022-09-18T08:16:10.000Z</time>
      </trkpt>
      <trkpt lat="49.86603" lon="4.76272">
        <ele>216</ele>
        <time>2022-09-18T08:16:11.000Z</time>
      </trkpt>
      <trkpt lat="49.86604" lon="4.76271">
        <ele>216</ele>
        <time>2022-09-18T08:16:12.000Z</time>
      </trkpt>
      <trkpt lat="49.86605" lon="4.7627">
        <ele>216</ele>
        <time>2022-09-18T08:16:13.000Z</time>
      </trkpt>
      <trkpt lat="49.86605" lon="4.7627">
        <ele>216</ele>
        <time>2022-09-18T08:16:14.000Z</time>
      </trkpt>
      <trkpt lat="49.86607" lon="4.76267">
        <ele>217</ele>
        <time>2022-09-18T08:16:15.000Z</time>
      </trkpt>
      <trkpt lat="49.86608" lon="4.76265">
        <ele>217</ele>
        <time>2022-09-18T08:16:16.000Z</time>
      </trkpt>
      <trkpt lat="49.86608" lon="4.76263">
        <ele>217</ele>
        <time>2022-09-18T08:16:17.000Z</time>
      </trkpt>
      <trkpt lat="49.86609" lon="4.76261">
        <ele>217</ele>
        <time>2022-09-18T08:16:18.000Z</time>
      </trkpt>
      <trkpt lat="49.86609" lon="4.76258">
        <ele>218</ele>
        <time>2022-09-18T08:16:19.000Z</time>
      </trkpt>
      <trkpt lat="49.86609" lon="4.76255">
        <ele>218</ele>
        <time>2022-09-18T08:16:20.000Z</time>
      </trkpt>
      <trkpt lat="49.86609" lon="4.76252">
        <ele>218</ele>
        <time>2022-09-18T08:16:21.000Z</time>
      </trkpt>
      <trkpt lat="49.86608" lon="4.76249">
        <ele>218</ele>
        <time>2022-09-18T08:16:22.000Z</time>
      </trkpt>
      <trkpt lat="49.86607" lon="4.76245">
        <ele>218</ele>
        <time>2022-09-18T08:16:23.000Z</time>
      </trkpt>
      <trkpt lat="49.86607" lon="4.76245">
        <ele>218</ele>
        <time>2022-09-18T08:16:24.000Z</time>
      </trkpt>
      <trkpt lat="49.86606" lon="4.76241">
        <ele>218</ele>
        <time>2022-09-18T08:16:25.000Z</time>
      </trkpt>
      <trkpt lat="49.86605" lon="4.76232">
        <ele>218</ele>
        <time>2022-09-18T08:16:26.000Z</time>
      </trkpt>
      <trkpt lat="49.86604" lon="4.76228">
        <ele>219</ele>
        <time>2022-09-18T08:16:27.000Z</time>
      </trkpt>
      <trkpt lat="49.86604" lon="4.76225">
        <ele>219</ele>
        <time>2022-09-18T08:16:28.000Z</time>
      </trkpt>
      <trkpt lat="49.86603" lon="4.76221">
        <ele>219</ele>
        <time>2022-09-18T08:16:29.000Z</time>
      </trkpt>
      <trkpt lat="49.86602" lon="4.76217">
        <ele>219</ele>
        <time>2022-09-18T08:16:30.000Z</time>
      </trkpt>
      <trkpt lat="49.86601" lon="4.76213">
        <ele>219</ele>
        <time>2022-09-18T08:16:31.000Z</time>
      </trkpt>
      <trkpt lat="49.86601" lon="4.76209">
        <ele>219</ele>
        <time>2022-09-18T08:16:32.000Z</time>
      </trkpt>
      <trkpt lat="49.86601" lon="4.76206">
        <ele>219</ele>
        <time>2022-09-18T08:16:33.000Z</time>
      </trkpt>
      <trkpt lat="49.866" lon="4.76201">
        <ele>219</ele>
        <time>2022-09-18T08:16:34.000Z</time>
      </trkpt>
      <trkpt lat="49.86599" lon="4.76198">
        <ele>219</ele>
        <time>2022-09-18T08:16:35.000Z</time>
      </trkpt>
      <trkpt lat="49.86598" lon="4.76193">
        <ele>219</ele>
        <time>2022-09-18T08:16:36.000Z</time>
      </trkpt>
      <trkpt lat="49.86598" lon="4.76188">
        <ele>219</ele>
        <time>2022-09-18T08:16:37.000Z</time>
      </trkpt>
      <trkpt lat="49.86597" lon="4.76183">
        <ele>219</ele>
        <time>2022-09-18T08:16:38.000Z</time>
      </trkpt>
      <trkpt lat="49.86597" lon="4.76178">
        <ele>219</ele>
        <time>2022-09-18T08:16:39.000Z</time>
      </trkpt>
      <trkpt lat="49.86598" lon="4.76174">
        <ele>219</ele>
        <time>2022-09-18T08:16:40.000Z</time>
      </trkpt>
      <trkpt lat="49.86599" lon="4.76171">
        <ele>220</ele>
        <time>2022-09-18T08:16:41.000Z</time>
      </trkpt>
      <trkpt lat="49.86602" lon="4.76169">
        <ele>220</ele>
        <time>2022-09-18T08:16:42.000Z</time>
      </trkpt>
      <trkpt lat="49.86604" lon="4.76169">
        <ele>220</ele>
        <time>2022-09-18T08:16:43.000Z</time>
      </trkpt>
      <trkpt lat="49.86605" lon="4.7617">
        <ele>220</ele>
        <time>2022-09-18T08:16:44.000Z</time>
      </trkpt>
      <trkpt lat="49.86606" lon="4.76172">
        <ele>220</ele>
        <time>2022-09-18T08:16:45.000Z</time>
      </trkpt>
      <trkpt lat="49.86607" lon="4.76173">
        <ele>221</ele>
        <time>2022-09-18T08:16:46.000Z</time>
      </trkpt>
      <trkpt lat="49.86609" lon="4.76174">
        <ele>221</ele>
        <time>2022-09-18T08:16:47.000Z</time>
      </trkpt>
      <trkpt lat="49.8661" lon="4.76175">
        <ele>221</ele>
        <time>2022-09-18T08:16:48.000Z</time>
      </trkpt>
      <trkpt lat="49.86612" lon="4.76176">
        <ele>222</ele>
        <time>2022-09-18T08:16:49.000Z</time>
      </trkpt>
      <trkpt lat="49.86614" lon="4.76176">
        <ele>222</ele>
        <time>2022-09-18T08:16:50.000Z</time>
      </trkpt>
      <trkpt lat="49.86615" lon="4.76178">
        <ele>222</ele>
        <time>2022-09-18T08:16:51.000Z</time>
      </trkpt>
      <trkpt lat="49.86617" lon="4.76179">
        <ele>222</ele>
        <time>2022-09-18T08:16:52.000Z</time>
      </trkpt>
      <trkpt lat="49.86619" lon="4.76179">
        <ele>222</ele>
        <time>2022-09-18T08:16:53.000Z</time>
      </trkpt>
      <trkpt lat="49.86621" lon="4.76179">
        <ele>223</ele>
        <time>2022-09-18T08:16:54.000Z</time>
      </trkpt>
      <trkpt lat="49.86622" lon="4.76179">
        <ele>223</ele>
        <time>2022-09-18T08:16:55.000Z</time>
      </trkpt>
      <trkpt lat="49.86624" lon="4.76179">
        <ele>224</ele>
        <time>2022-09-18T08:16:56.000Z</time>
      </trkpt>
      <trkpt lat="49.86625" lon="4.76179">
        <ele>224</ele>
        <time>2022-09-18T08:16:57.000Z</time>
      </trkpt>
      <trkpt lat="49.86627" lon="4.76179">
        <ele>224</ele>
        <time>2022-09-18T08:16:58.000Z</time>
      </trkpt>
      <trkpt lat="49.86629" lon="4.76179">
        <ele>225</ele>
        <time>2022-09-18T08:16:59.000Z</time>
      </trkpt>
      <trkpt lat="49.8663" lon="4.7618">
        <ele>225</ele>
        <time>2022-09-18T08:17:00.000Z</time>
      </trkpt>
      <trkpt lat="49.86631" lon="4.7618">
        <ele>226</ele>
        <time>2022-09-18T08:17:01.000Z</time>
      </trkpt>
      <trkpt lat="49.86633" lon="4.7618">
        <ele>226</ele>
        <time>2022-09-18T08:17:02.000Z</time>
      </trkpt>
      <trkpt lat="49.86634" lon="4.7618">
        <ele>226</ele>
        <time>2022-09-18T08:17:03.000Z</time>
      </trkpt>
      <trkpt lat="49.86636" lon="4.76181">
        <ele>227</ele>
        <time>2022-09-18T08:17:04.000Z</time>
      </trkpt>
      <trkpt lat="49.86638" lon="4.76182">
        <ele>227</ele>
        <time>2022-09-18T08:17:05.000Z</time>
      </trkpt>
      <trkpt lat="49.86639" lon="4.76182">
        <ele>227</ele>
        <time>2022-09-18T08:17:06.000Z</time>
      </trkpt>
      <trkpt lat="49.8664" lon="4.76183">
        <ele>228</ele>
        <time>2022-09-18T08:17:07.000Z</time>
      </trkpt>
      <trkpt lat="49.86642" lon="4.76183">
        <ele>228</ele>
        <time>2022-09-18T08:17:08.000Z</time>
      </trkpt>
      <trkpt lat="49.86643" lon="4.76183">
        <ele>228</ele>
        <time>2022-09-18T08:17:09.000Z</time>
      </trkpt>
      <trkpt lat="49.86644" lon="4.76183">
        <ele>229</ele>
        <time>2022-09-18T08:17:10.000Z</time>
      </trkpt>
      <trkpt lat="49.86646" lon="4.76183">
        <ele>229</ele>
        <time>2022-09-18T08:17:11.000Z</time>
      </trkpt>
      <trkpt lat="49.86647" lon="4.76184">
        <ele>230</ele>
        <time>2022-09-18T08:17:12.000Z</time>
      </trkpt>
      <trkpt lat="49.86648" lon="4.76184">
        <ele>230</ele>
        <time>2022-09-18T08:17:13.000Z</time>
      </trkpt>
      <trkpt lat="49.8665" lon="4.76185">
        <ele>230</ele>
        <time>2022-09-18T08:17:14.000Z</time>
      </trkpt>
      <trkpt lat="49.8665" lon="4.76186">
        <ele>230</ele>
        <time>2022-09-18T08:17:15.000Z</time>
      </trkpt>
      <trkpt lat="49.86651" lon="4.76187">
        <ele>231</ele>
        <time>2022-09-18T08:17:16.000Z</time>
      </trkpt>
      <trkpt lat="49.86653" lon="4.76187">
        <ele>231</ele>
        <time>2022-09-18T08:17:17.000Z</time>
      </trkpt>
      <trkpt lat="49.86655" lon="4.76187">
        <ele>231</ele>
        <time>2022-09-18T08:17:18.000Z</time>
      </trkpt>
      <trkpt lat="49.86656" lon="4.76188">
        <ele>231</ele>
        <time>2022-09-18T08:17:19.000Z</time>
      </trkpt>
      <trkpt lat="49.86658" lon="4.76188">
        <ele>232</ele>
        <time>2022-09-18T08:17:20.000Z</time>
      </trkpt>
      <trkpt lat="49.86659" lon="4.76188">
        <ele>232</ele>
        <time>2022-09-18T08:17:21.000Z</time>
      </trkpt>
      <trkpt lat="49.8666" lon="4.76188">
        <ele>232</ele>
        <time>2022-09-18T08:17:22.000Z</time>
      </trkpt>
      <trkpt lat="49.86661" lon="4.76188">
        <ele>232</ele>
        <time>2022-09-18T08:17:23.000Z</time>
      </trkpt>
      <trkpt lat="49.86662" lon="4.76188">
        <ele>233</ele>
        <time>2022-09-18T08:17:24.000Z</time>
      </trkpt>
      <trkpt lat="49.86664" lon="4.76189">
        <ele>233</ele>
        <time>2022-09-18T08:17:25.000Z</time>
      </trkpt>
      <trkpt lat="49.86664" lon="4.76189">
        <ele>233</ele>
        <time>2022-09-18T08:17:26.000Z</time>
      </trkpt>
      <trkpt lat="49.86666" lon="4.7619">
        <ele>234</ele>
        <time>2022-09-18T08:17:27.000Z</time>
      </trkpt>
      <trkpt lat="49.86667" lon="4.7619">
        <ele>234</ele>
        <time>2022-09-18T08:17:28.000Z</time>
      </trkpt>
      <trkpt lat="49.86668" lon="4.76191">
        <ele>234</ele>
        <time>2022-09-18T08:17:29.000Z</time>
      </trkpt>
      <trkpt lat="49.8667" lon="4.76191">
        <ele>235</ele>
        <time>2022-09-18T08:17:30.000Z</time>
      </trkpt>
      <trkpt lat="49.86671" lon="4.76191">
        <ele>235</ele>
        <time>2022-09-18T08:17:31.000Z</time>
      </trkpt>
      <trkpt lat="49.86672" lon="4.76192">
        <ele>235</ele>
        <time>2022-09-18T08:17:32.000Z</time>
      </trkpt>
      <trkpt lat="49.86673" lon="4.76192">
        <ele>236</ele>
        <time>2022-09-18T08:17:33.000Z</time>
      </trkpt>
      <trkpt lat="49.86675" lon="4.76193">
        <ele>236</ele>
        <time>2022-09-18T08:17:34.000Z</time>
      </trkpt>
      <trkpt lat="49.86676" lon="4.76195">
        <ele>237</ele>
        <time>2022-09-18T08:17:35.000Z</time>
      </trkpt>
      <trkpt lat="49.86677" lon="4.76195">
        <ele>237</ele>
        <time>2022-09-18T08:17:36.000Z</time>
      </trkpt>
      <trkpt lat="49.86678" lon="4.76196">
        <ele>237</ele>
        <time>2022-09-18T08:17:37.000Z</time>
      </trkpt>
      <trkpt lat="49.8668" lon="4.76196">
        <ele>238</ele>
        <time>2022-09-18T08:17:38.000Z</time>
      </trkpt>
      <trkpt lat="49.86681" lon="4.76197">
        <ele>238</ele>
        <time>2022-09-18T08:17:39.000Z</time>
      </trkpt>
      <trkpt lat="49.86683" lon="4.76198">
        <ele>239</ele>
        <time>2022-09-18T08:17:40.000Z</time>
      </trkpt>
      <trkpt lat="49.86685" lon="4.762">
        <ele>239</ele>
        <time>2022-09-18T08:17:41.000Z</time>
      </trkpt>
      <trkpt lat="49.86686" lon="4.76201">
        <ele>239</ele>
        <time>2022-09-18T08:17:42.000Z</time>
      </trkpt>
      <trkpt lat="49.86687" lon="4.76202">
        <ele>240</ele>
        <time>2022-09-18T08:17:43.000Z</time>
      </trkpt>
      <trkpt lat="49.86689" lon="4.76202">
        <ele>240</ele>
        <time>2022-09-18T08:17:44.000Z</time>
      </trkpt>
      <trkpt lat="49.8669" lon="4.76203">
        <ele>240</ele>
        <time>2022-09-18T08:17:45.000Z</time>
      </trkpt>
      <trkpt lat="49.86692" lon="4.76204">
        <ele>240</ele>
        <time>2022-09-18T08:17:46.000Z</time>
      </trkpt>
      <trkpt lat="49.86694" lon="4.76206">
        <ele>241</ele>
        <time>2022-09-18T08:17:47.000Z</time>
      </trkpt>
      <trkpt lat="49.86695" lon="4.76208">
        <ele>241</ele>
        <time>2022-09-18T08:17:48.000Z</time>
      </trkpt>
      <trkpt lat="49.86696" lon="4.76209">
        <ele>241</ele>
        <time>2022-09-18T08:17:49.000Z</time>
      </trkpt>
      <trkpt lat="49.86698" lon="4.76211">
        <ele>241</ele>
        <time>2022-09-18T08:17:50.000Z</time>
      </trkpt>
      <trkpt lat="49.86699" lon="4.76213">
        <ele>242</ele>
        <time>2022-09-18T08:17:51.000Z</time>
      </trkpt>
      <trkpt lat="49.86701" lon="4.76215">
        <ele>242</ele>
        <time>2022-09-18T08:17:52.000Z</time>
      </trkpt>
      <trkpt lat="49.86702" lon="4.76216">
        <ele>242</ele>
        <time>2022-09-18T08:17:53.000Z</time>
      </trkpt>
      <trkpt lat="49.86704" lon="4.76217">
        <ele>242</ele>
        <time>2022-09-18T08:17:54.000Z</time>
      </trkpt>
      <trkpt lat="49.86705" lon="4.76219">
        <ele>242</ele>
        <time>2022-09-18T08:17:55.000Z</time>
      </trkpt>
      <trkpt lat="49.86706" lon="4.76221">
        <ele>243</ele>
        <time>2022-09-18T08:17:56.000Z</time>
      </trkpt>
      <trkpt lat="49.86707" lon="4.76222">
        <ele>243</ele>
        <time>2022-09-18T08:17:57.000Z</time>
      </trkpt>
      <trkpt lat="49.86708" lon="4.76223">
        <ele>243</ele>
        <time>2022-09-18T08:17:58.000Z</time>
      </trkpt>
      <trkpt lat="49.86708" lon="4.76223">
        <ele>243</ele>
        <time>2022-09-18T08:17:59.000Z</time>
      </trkpt>
      <trkpt lat="49.86711" lon="4.76227">
        <ele>243</ele>
        <time>2022-09-18T08:18:00.000Z</time>
      </trkpt>
      <trkpt lat="49.86713" lon="4.76228">
        <ele>243</ele>
        <time>2022-09-18T08:18:01.000Z</time>
      </trkpt>
      <trkpt lat="49.86714" lon="4.7623">
        <ele>243</ele>
        <time>2022-09-18T08:18:02.000Z</time>
      </trkpt>
      <trkpt lat="49.86716" lon="4.76233">
        <ele>243</ele>
        <time>2022-09-18T08:18:03.000Z</time>
      </trkpt>
      <trkpt lat="49.86717" lon="4.76235">
        <ele>243</ele>
        <time>2022-09-18T08:18:04.000Z</time>
      </trkpt>
      <trkpt lat="49.86719" lon="4.76237">
        <ele>243</ele>
        <time>2022-09-18T08:18:05.000Z</time>
      </trkpt>
      <trkpt lat="49.8672" lon="4.76239">
        <ele>244</ele>
        <time>2022-09-18T08:18:06.000Z</time>
      </trkpt>
      <trkpt lat="49.86722" lon="4.76241">
        <ele>244</ele>
        <time>2022-09-18T08:18:07.000Z</time>
      </trkpt>
      <trkpt lat="49.86723" lon="4.76243">
        <ele>244</ele>
        <time>2022-09-18T08:18:08.000Z</time>
      </trkpt>
      <trkpt lat="49.86724" lon="4.76246">
        <ele>243</ele>
        <time>2022-09-18T08:18:09.000Z</time>
      </trkpt>
      <trkpt lat="49.86725" lon="4.76248">
        <ele>243</ele>
        <time>2022-09-18T08:18:10.000Z</time>
      </trkpt>
      <trkpt lat="49.86726" lon="4.7625">
        <ele>243</ele>
        <time>2022-09-18T08:18:11.000Z</time>
      </trkpt>
      <trkpt lat="49.86728" lon="4.76252">
        <ele>243</ele>
        <time>2022-09-18T08:18:12.000Z</time>
      </trkpt>
      <trkpt lat="49.86729" lon="4.76254">
        <ele>243</ele>
        <time>2022-09-18T08:18:13.000Z</time>
      </trkpt>
      <trkpt lat="49.86731" lon="4.76256">
        <ele>244</ele>
        <time>2022-09-18T08:18:14.000Z</time>
      </trkpt>
      <trkpt lat="49.86732" lon="4.76258">
        <ele>244</ele>
        <time>2022-09-18T08:18:15.000Z</time>
      </trkpt>
      <trkpt lat="49.86732" lon="4.76258">
        <ele>244</ele>
        <time>2022-09-18T08:18:16.000Z</time>
      </trkpt>
      <trkpt lat="49.86735" lon="4.76262">
        <ele>244</ele>
        <time>2022-09-18T08:18:17.000Z</time>
      </trkpt>
      <trkpt lat="49.86736" lon="4.76263">
        <ele>244</ele>
        <time>2022-09-18T08:18:18.000Z</time>
      </trkpt>
      <trkpt lat="49.86736" lon="4.76265">
        <ele>244</ele>
        <time>2022-09-18T08:18:19.000Z</time>
      </trkpt>
      <trkpt lat="49.86737" lon="4.76268">
        <ele>244</ele>
        <time>2022-09-18T08:18:20.000Z</time>
      </trkpt>
      <trkpt lat="49.86738" lon="4.76269">
        <ele>244</ele>
        <time>2022-09-18T08:18:21.000Z</time>
      </trkpt>
      <trkpt lat="49.86739" lon="4.76271">
        <ele>244</ele>
        <time>2022-09-18T08:18:22.000Z</time>
      </trkpt>
      <trkpt lat="49.8674" lon="4.76273">
        <ele>245</ele>
        <time>2022-09-18T08:18:23.000Z</time>
      </trkpt>
      <trkpt lat="49.86741" lon="4.76274">
        <ele>245</ele>
        <time>2022-09-18T08:18:24.000Z</time>
      </trkpt>
      <trkpt lat="49.86742" lon="4.76275">
        <ele>245</ele>
        <time>2022-09-18T08:18:25.000Z</time>
      </trkpt>
      <trkpt lat="49.86744" lon="4.76277">
        <ele>245</ele>
        <time>2022-09-18T08:18:26.000Z</time>
      </trkpt>
      <trkpt lat="49.86745" lon="4.76279">
        <ele>245</ele>
        <time>2022-09-18T08:18:27.000Z</time>
      </trkpt>
      <trkpt lat="49.86747" lon="4.7628">
        <ele>245</ele>
        <time>2022-09-18T08:18:28.000Z</time>
      </trkpt>
      <trkpt lat="49.86748" lon="4.76281">
        <ele>245</ele>
        <time>2022-09-18T08:18:29.000Z</time>
      </trkpt>
      <trkpt lat="49.8675" lon="4.76282">
        <ele>246</ele>
        <time>2022-09-18T08:18:30.000Z</time>
      </trkpt>
      <trkpt lat="49.86751" lon="4.76284">
        <ele>246</ele>
        <time>2022-09-18T08:18:31.000Z</time>
      </trkpt>
      <trkpt lat="49.86752" lon="4.76285">
        <ele>246</ele>
        <time>2022-09-18T08:18:32.000Z</time>
      </trkpt>
      <trkpt lat="49.86752" lon="4.76285">
        <ele>246</ele>
        <time>2022-09-18T08:18:33.000Z</time>
      </trkpt>
      <trkpt lat="49.86753" lon="4.76288">
        <ele>246</ele>
        <time>2022-09-18T08:18:34.000Z</time>
      </trkpt>
      <trkpt lat="49.86755" lon="4.76289">
        <ele>246</ele>
        <time>2022-09-18T08:18:35.000Z</time>
      </trkpt>
      <trkpt lat="49.86755" lon="4.76289">
        <ele>247</ele>
        <time>2022-09-18T08:18:36.000Z</time>
      </trkpt>
      <trkpt lat="49.86756" lon="4.76291">
        <ele>247</ele>
        <time>2022-09-18T08:18:37.000Z</time>
      </trkpt>
      <trkpt lat="49.86757" lon="4.76293">
        <ele>247</ele>
        <time>2022-09-18T08:18:38.000Z</time>
      </trkpt>
      <trkpt lat="49.86758" lon="4.76294">
        <ele>248</ele>
        <time>2022-09-18T08:18:39.000Z</time>
      </trkpt>
      <trkpt lat="49.86758" lon="4.76295">
        <ele>248</ele>
        <time>2022-09-18T08:18:40.000Z</time>
      </trkpt>
      <trkpt lat="49.86759" lon="4.76296">
        <ele>248</ele>
        <time>2022-09-18T08:18:41.000Z</time>
      </trkpt>
      <trkpt lat="49.86761" lon="4.76297">
        <ele>248</ele>
        <time>2022-09-18T08:18:42.000Z</time>
      </trkpt>
      <trkpt lat="49.86762" lon="4.76298">
        <ele>248</ele>
        <time>2022-09-18T08:18:43.000Z</time>
      </trkpt>
      <trkpt lat="49.86764" lon="4.763">
        <ele>249</ele>
        <time>2022-09-18T08:18:44.000Z</time>
      </trkpt>
      <trkpt lat="49.86765" lon="4.76302">
        <ele>249</ele>
        <time>2022-09-18T08:18:45.000Z</time>
      </trkpt>
      <trkpt lat="49.86766" lon="4.76303">
        <ele>249</ele>
        <time>2022-09-18T08:18:46.000Z</time>
      </trkpt>
      <trkpt lat="49.86767" lon="4.76305">
        <ele>249</ele>
        <time>2022-09-18T08:18:47.000Z</time>
      </trkpt>
      <trkpt lat="49.86769" lon="4.76306">
        <ele>249</ele>
        <time>2022-09-18T08:18:48.000Z</time>
      </trkpt>
      <trkpt lat="49.86771" lon="4.76308">
        <ele>249</ele>
        <time>2022-09-18T08:18:49.000Z</time>
      </trkpt>
      <trkpt lat="49.86771" lon="4.76308">
        <ele>249</ele>
        <time>2022-09-18T08:18:50.000Z</time>
      </trkpt>
      <trkpt lat="49.86775" lon="4.76312">
        <ele>250</ele>
        <time>2022-09-18T08:18:51.000Z</time>
      </trkpt>
      <trkpt lat="49.86777" lon="4.76314">
        <ele>250</ele>
        <time>2022-09-18T08:18:52.000Z</time>
      </trkpt>
      <trkpt lat="49.86778" lon="4.76316">
        <ele>250</ele>
        <time>2022-09-18T08:18:53.000Z</time>
      </trkpt>
      <trkpt lat="49.8678" lon="4.76318">
        <ele>250</ele>
        <time>2022-09-18T08:18:54.000Z</time>
      </trkpt>
      <trkpt lat="49.86781" lon="4.7632">
        <ele>250</ele>
        <time>2022-09-18T08:18:55.000Z</time>
      </trkpt>
      <trkpt lat="49.86781" lon="4.7632">
        <ele>250</ele>
        <time>2022-09-18T08:18:56.000Z</time>
      </trkpt>
      <trkpt lat="49.86784" lon="4.76324">
        <ele>250</ele>
        <time>2022-09-18T08:18:57.000Z</time>
      </trkpt>
      <trkpt lat="49.86785" lon="4.76326">
        <ele>250</ele>
        <time>2022-09-18T08:18:58.000Z</time>
      </trkpt>
      <trkpt lat="49.86786" lon="4.76328">
        <ele>251</ele>
        <time>2022-09-18T08:18:59.000Z</time>
      </trkpt>
      <trkpt lat="49.86786" lon="4.76328">
        <ele>251</ele>
        <time>2022-09-18T08:19:00.000Z</time>
      </trkpt>
      <trkpt lat="49.86789" lon="4.76331">
        <ele>251</ele>
        <time>2022-09-18T08:19:01.000Z</time>
      </trkpt>
      <trkpt lat="49.86791" lon="4.76333">
        <ele>251</ele>
        <time>2022-09-18T08:19:02.000Z</time>
      </trkpt>
      <trkpt lat="49.86792" lon="4.76335">
        <ele>252</ele>
        <time>2022-09-18T08:19:03.000Z</time>
      </trkpt>
      <trkpt lat="49.86794" lon="4.76337">
        <ele>252</ele>
        <time>2022-09-18T08:19:04.000Z</time>
      </trkpt>
      <trkpt lat="49.86795" lon="4.76338">
        <ele>252</ele>
        <time>2022-09-18T08:19:05.000Z</time>
      </trkpt>
      <trkpt lat="49.86797" lon="4.7634">
        <ele>252</ele>
        <time>2022-09-18T08:19:06.000Z</time>
      </trkpt>
      <trkpt lat="49.86798" lon="4.76342">
        <ele>252</ele>
        <time>2022-09-18T08:19:07.000Z</time>
      </trkpt>
      <trkpt lat="49.868" lon="4.76344">
        <ele>253</ele>
        <time>2022-09-18T08:19:08.000Z</time>
      </trkpt>
      <trkpt lat="49.86802" lon="4.76345">
        <ele>253</ele>
        <time>2022-09-18T08:19:09.000Z</time>
      </trkpt>
      <trkpt lat="49.86803" lon="4.76347">
        <ele>253</ele>
        <time>2022-09-18T08:19:10.000Z</time>
      </trkpt>
      <trkpt lat="49.86804" lon="4.76349">
        <ele>253</ele>
        <time>2022-09-18T08:19:11.000Z</time>
      </trkpt>
      <trkpt lat="49.86805" lon="4.7635">
        <ele>254</ele>
        <time>2022-09-18T08:19:12.000Z</time>
      </trkpt>
      <trkpt lat="49.86805" lon="4.76352">
        <ele>254</ele>
        <time>2022-09-18T08:19:13.000Z</time>
      </trkpt>
      <trkpt lat="49.86806" lon="4.76353">
        <ele>254</ele>
        <time>2022-09-18T08:19:14.000Z</time>
      </trkpt>
      <trkpt lat="49.86807" lon="4.76355">
        <ele>255</ele>
        <time>2022-09-18T08:19:15.000Z</time>
      </trkpt>
      <trkpt lat="49.86808" lon="4.76357">
        <ele>255</ele>
        <time>2022-09-18T08:19:16.000Z</time>
      </trkpt>
      <trkpt lat="49.86809" lon="4.76358">
        <ele>255</ele>
        <time>2022-09-18T08:19:17.000Z</time>
      </trkpt>
      <trkpt lat="49.86811" lon="4.7636">
        <ele>255</ele>
        <time>2022-09-18T08:19:18.000Z</time>
      </trkpt>
      <trkpt lat="49.86812" lon="4.76362">
        <ele>256</ele>
        <time>2022-09-18T08:19:19.000Z</time>
      </trkpt>
      <trkpt lat="49.86813" lon="4.76363">
        <ele>256</ele>
        <time>2022-09-18T08:19:20.000Z</time>
      </trkpt>
      <trkpt lat="49.86815" lon="4.76365">
        <ele>256</ele>
        <time>2022-09-18T08:19:21.000Z</time>
      </trkpt>
      <trkpt lat="49.86816" lon="4.76366">
        <ele>256</ele>
        <time>2022-09-18T08:19:22.000Z</time>
      </trkpt>
      <trkpt lat="49.86818" lon="4.76369">
        <ele>256</ele>
        <time>2022-09-18T08:19:23.000Z</time>
      </trkpt>
      <trkpt lat="49.86819" lon="4.7637">
        <ele>256</ele>
        <time>2022-09-18T08:19:24.000Z</time>
      </trkpt>
      <trkpt lat="49.8682" lon="4.76372">
        <ele>257</ele>
        <time>2022-09-18T08:19:25.000Z</time>
      </trkpt>
      <trkpt lat="49.86821" lon="4.76374">
        <ele>257</ele>
        <time>2022-09-18T08:19:26.000Z</time>
      </trkpt>
      <trkpt lat="49.86822" lon="4.76376">
        <ele>257</ele>
        <time>2022-09-18T08:19:27.000Z</time>
      </trkpt>
      <trkpt lat="49.86823" lon="4.76377">
        <ele>257</ele>
        <time>2022-09-18T08:19:28.000Z</time>
      </trkpt>
      <trkpt lat="49.86824" lon="4.76379">
        <ele>257</ele>
        <time>2022-09-18T08:19:29.000Z</time>
      </trkpt>
      <trkpt lat="49.86825" lon="4.7638">
        <ele>257</ele>
        <time>2022-09-18T08:19:30.000Z</time>
      </trkpt>
      <trkpt lat="49.86826" lon="4.76382">
        <ele>257</ele>
        <time>2022-09-18T08:19:31.000Z</time>
      </trkpt>
      <trkpt lat="49.86827" lon="4.76384">
        <ele>257</ele>
        <time>2022-09-18T08:19:32.000Z</time>
      </trkpt>
      <trkpt lat="49.86828" lon="4.76385">
        <ele>257</ele>
        <time>2022-09-18T08:19:33.000Z</time>
      </trkpt>
      <trkpt lat="49.8683" lon="4.76387">
        <ele>258</ele>
        <time>2022-09-18T08:19:34.000Z</time>
      </trkpt>
      <trkpt lat="49.86831" lon="4.76389">
        <ele>258</ele>
        <time>2022-09-18T08:19:35.000Z</time>
      </trkpt>
      <trkpt lat="49.86832" lon="4.76391">
        <ele>258</ele>
        <time>2022-09-18T08:19:36.000Z</time>
      </trkpt>
      <trkpt lat="49.86833" lon="4.76393">
        <ele>258</ele>
        <time>2022-09-18T08:19:37.000Z</time>
      </trkpt>
      <trkpt lat="49.86834" lon="4.76394">
        <ele>258</ele>
        <time>2022-09-18T08:19:38.000Z</time>
      </trkpt>
      <trkpt lat="49.86835" lon="4.76396">
        <ele>258</ele>
        <time>2022-09-18T08:19:39.000Z</time>
      </trkpt>
      <trkpt lat="49.86836" lon="4.76397">
        <ele>258</ele>
        <time>2022-09-18T08:19:40.000Z</time>
      </trkpt>
      <trkpt lat="49.86837" lon="4.76399">
        <ele>258</ele>
        <time>2022-09-18T08:19:41.000Z</time>
      </trkpt>
      <trkpt lat="49.86838" lon="4.76401">
        <ele>258</ele>
        <time>2022-09-18T08:19:42.000Z</time>
      </trkpt>
      <trkpt lat="49.86839" lon="4.76403">
        <ele>258</ele>
        <time>2022-09-18T08:19:43.000Z</time>
      </trkpt>
      <trkpt lat="49.86841" lon="4.76405">
        <ele>258</ele>
        <time>2022-09-18T08:19:44.000Z</time>
      </trkpt>
      <trkpt lat="49.86842" lon="4.76407">
        <ele>258</ele>
        <time>2022-09-18T08:19:45.000Z</time>
      </trkpt>
      <trkpt lat="49.86844" lon="4.76408">
        <ele>258</ele>
        <time>2022-09-18T08:19:46.000Z</time>
      </trkpt>
      <trkpt lat="49.86845" lon="4.7641">
        <ele>258</ele>
        <time>2022-09-18T08:19:47.000Z</time>
      </trkpt>
      <trkpt lat="49.86847" lon="4.76412">
        <ele>258</ele>
        <time>2022-09-18T08:19:48.000Z</time>
      </trkpt>
      <trkpt lat="49.86848" lon="4.76413">
        <ele>259</ele>
        <time>2022-09-18T08:19:49.000Z</time>
      </trkpt>
      <trkpt lat="49.86849" lon="4.76415">
        <ele>259</ele>
        <time>2022-09-18T08:19:50.000Z</time>
      </trkpt>
      <trkpt lat="49.8685" lon="4.76416">
        <ele>259</ele>
        <time>2022-09-18T08:19:51.000Z</time>
      </trkpt>
      <trkpt lat="49.86852" lon="4.76418">
        <ele>259</ele>
        <time>2022-09-18T08:19:52.000Z</time>
      </trkpt>
      <trkpt lat="49.86852" lon="4.76419">
        <ele>259</ele>
        <time>2022-09-18T08:19:53.000Z</time>
      </trkpt>
      <trkpt lat="49.86853" lon="4.76421">
        <ele>259</ele>
        <time>2022-09-18T08:19:54.000Z</time>
      </trkpt>
      <trkpt lat="49.86854" lon="4.76421">
        <ele>260</ele>
        <time>2022-09-18T08:19:55.000Z</time>
      </trkpt>
      <trkpt lat="49.86855" lon="4.76422">
        <ele>260</ele>
        <time>2022-09-18T08:19:56.000Z</time>
      </trkpt>
      <trkpt lat="49.86856" lon="4.76422">
        <ele>260</ele>
        <time>2022-09-18T08:19:57.000Z</time>
      </trkpt>
      <trkpt lat="49.86857" lon="4.76422">
        <ele>260</ele>
        <time>2022-09-18T08:19:58.000Z</time>
      </trkpt>
      <trkpt lat="49.86858" lon="4.76421">
        <ele>260</ele>
        <time>2022-09-18T08:19:59.000Z</time>
      </trkpt>
      <trkpt lat="49.86858" lon="4.7642">
        <ele>260</ele>
        <time>2022-09-18T08:20:00.000Z</time>
      </trkpt>
      <trkpt lat="49.86859" lon="4.76419">
        <ele>260</ele>
        <time>2022-09-18T08:20:01.000Z</time>
      </trkpt>
      <trkpt lat="49.8686" lon="4.76417">
        <ele>260</ele>
        <time>2022-09-18T08:20:02.000Z</time>
      </trkpt>
      <trkpt lat="49.86861" lon="4.76416">
        <ele>260</ele>
        <time>2022-09-18T08:20:03.000Z</time>
      </trkpt>
      <trkpt lat="49.86862" lon="4.76414">
        <ele>260</ele>
        <time>2022-09-18T08:20:04.000Z</time>
      </trkpt>
      <trkpt lat="49.86863" lon="4.76412">
        <ele>260</ele>
        <time>2022-09-18T08:20:05.000Z</time>
      </trkpt>
      <trkpt lat="49.86864" lon="4.76411">
        <ele>260</ele>
        <time>2022-09-18T08:20:06.000Z</time>
      </trkpt>
      <trkpt lat="49.86865" lon="4.76409">
        <ele>261</ele>
        <time>2022-09-18T08:20:07.000Z</time>
      </trkpt>
      <trkpt lat="49.86866" lon="4.76407">
        <ele>261</ele>
        <time>2022-09-18T08:20:08.000Z</time>
      </trkpt>
      <trkpt lat="49.86867" lon="4.76404">
        <ele>261</ele>
        <time>2022-09-18T08:20:09.000Z</time>
      </trkpt>
      <trkpt lat="49.86867" lon="4.76402">
        <ele>261</ele>
        <time>2022-09-18T08:20:10.000Z</time>
      </trkpt>
      <trkpt lat="49.86868" lon="4.76399">
        <ele>261</ele>
        <time>2022-09-18T08:20:11.000Z</time>
      </trkpt>
      <trkpt lat="49.86869" lon="4.76396">
        <ele>261</ele>
        <time>2022-09-18T08:20:12.000Z</time>
      </trkpt>
      <trkpt lat="49.86869" lon="4.76393">
        <ele>261</ele>
        <time>2022-09-18T08:20:13.000Z</time>
      </trkpt>
      <trkpt lat="49.8687" lon="4.7639">
        <ele>262</ele>
        <time>2022-09-18T08:20:14.000Z</time>
      </trkpt>
      <trkpt lat="49.8687" lon="4.76387">
        <ele>262</ele>
        <time>2022-09-18T08:20:15.000Z</time>
      </trkpt>
      <trkpt lat="49.86871" lon="4.76384">
        <ele>262</ele>
        <time>2022-09-18T08:20:16.000Z</time>
      </trkpt>
      <trkpt lat="49.86871" lon="4.76381">
        <ele>263</ele>
        <time>2022-09-18T08:20:17.000Z</time>
      </trkpt>
      <trkpt lat="49.86872" lon="4.76378">
        <ele>263</ele>
        <time>2022-09-18T08:20:18.000Z</time>
      </trkpt>
      <trkpt lat="49.86873" lon="4.76375">
        <ele>263</ele>
        <time>2022-09-18T08:20:19.000Z</time>
      </trkpt>
      <trkpt lat="49.86874" lon="4.76372">
        <ele>263</ele>
        <time>2022-09-18T08:20:20.000Z</time>
      </trkpt>
      <trkpt lat="49.86874" lon="4.7637">
        <ele>264</ele>
        <time>2022-09-18T08:20:21.000Z</time>
      </trkpt>
      <trkpt lat="49.86874" lon="4.76368">
        <ele>264</ele>
        <time>2022-09-18T08:20:22.000Z</time>
      </trkpt>
      <trkpt lat="49.86874" lon="4.76365">
        <ele>264</ele>
        <time>2022-09-18T08:20:23.000Z</time>
      </trkpt>
      <trkpt lat="49.86874" lon="4.76363">
        <ele>265</ele>
        <time>2022-09-18T08:20:24.000Z</time>
      </trkpt>
      <trkpt lat="49.86874" lon="4.76361">
        <ele>265</ele>
        <time>2022-09-18T08:20:25.000Z</time>
      </trkpt>
      <trkpt lat="49.86874" lon="4.76359">
        <ele>265</ele>
        <time>2022-09-18T08:20:26.000Z</time>
      </trkpt>
      <trkpt lat="49.86874" lon="4.76358">
        <ele>266</ele>
        <time>2022-09-18T08:20:27.000Z</time>
      </trkpt>
      <trkpt lat="49.86873" lon="4.76356">
        <ele>266</ele>
        <time>2022-09-18T08:20:28.000Z</time>
      </trkpt>
      <trkpt lat="49.86872" lon="4.76355">
        <ele>266</ele>
        <time>2022-09-18T08:20:29.000Z</time>
      </trkpt>
      <trkpt lat="49.86871" lon="4.76353">
        <ele>267</ele>
        <time>2022-09-18T08:20:30.000Z</time>
      </trkpt>
      <trkpt lat="49.8687" lon="4.76351">
        <ele>267</ele>
        <time>2022-09-18T08:20:31.000Z</time>
      </trkpt>
      <trkpt lat="49.86869" lon="4.76348">
        <ele>267</ele>
        <time>2022-09-18T08:20:32.000Z</time>
      </trkpt>
      <trkpt lat="49.86868" lon="4.76345">
        <ele>267</ele>
        <time>2022-09-18T08:20:33.000Z</time>
      </trkpt>
      <trkpt lat="49.86866" lon="4.76342">
        <ele>267</ele>
        <time>2022-09-18T08:20:34.000Z</time>
      </trkpt>
      <trkpt lat="49.86865" lon="4.76339">
        <ele>267</ele>
        <time>2022-09-18T08:20:35.000Z</time>
      </trkpt>
      <trkpt lat="49.86864" lon="4.76337">
        <ele>267</ele>
        <time>2022-09-18T08:20:36.000Z</time>
      </trkpt>
      <trkpt lat="49.86864" lon="4.76337">
        <ele>268</ele>
        <time>2022-09-18T08:20:37.000Z</time>
      </trkpt>
      <trkpt lat="49.86864" lon="4.76336">
        <ele>268</ele>
        <time>2022-09-18T08:20:38.000Z</time>
      </trkpt>
      <trkpt lat="49.86863" lon="4.76335">
        <ele>268</ele>
        <time>2022-09-18T08:20:39.000Z</time>
      </trkpt>
      <trkpt lat="49.86862" lon="4.76333">
        <ele>268</ele>
        <time>2022-09-18T08:20:40.000Z</time>
      </trkpt>
      <trkpt lat="49.86862" lon="4.7633">
        <ele>268</ele>
        <time>2022-09-18T08:20:41.000Z</time>
      </trkpt>
      <trkpt lat="49.86861" lon="4.76328">
        <ele>268</ele>
        <time>2022-09-18T08:20:42.000Z</time>
      </trkpt>
      <trkpt lat="49.8686" lon="4.76326">
        <ele>268</ele>
        <time>2022-09-18T08:20:43.000Z</time>
      </trkpt>
      <trkpt lat="49.8686" lon="4.76324">
        <ele>268</ele>
        <time>2022-09-18T08:20:44.000Z</time>
      </trkpt>
      <trkpt lat="49.86859" lon="4.76322">
        <ele>268</ele>
        <time>2022-09-18T08:20:45.000Z</time>
      </trkpt>
      <trkpt lat="49.86859" lon="4.76322">
        <ele>268</ele>
        <time>2022-09-18T08:20:46.000Z</time>
      </trkpt>
      <trkpt lat="49.86859" lon="4.76321">
        <ele>268</ele>
        <time>2022-09-18T08:20:47.000Z</time>
      </trkpt>
      <trkpt lat="49.86859" lon="4.76321">
        <ele>268</ele>
        <time>2022-09-18T08:20:48.000Z</time>
      </trkpt>
      <trkpt lat="49.86859" lon="4.7632">
        <ele>268</ele>
        <time>2022-09-18T08:20:49.000Z</time>
      </trkpt>
      <trkpt lat="49.8686" lon="4.76321">
        <ele>268</ele>
        <time>2022-09-18T08:20:50.000Z</time>
      </trkpt>
      <trkpt lat="49.8686" lon="4.76321">
        <ele>268</ele>
        <time>2022-09-18T08:20:51.000Z</time>
      </trkpt>
      <trkpt lat="49.8686" lon="4.76321">
        <ele>269</ele>
        <time>2022-09-18T08:20:52.000Z</time>
      </trkpt>
      <trkpt lat="49.8686" lon="4.76321">
        <ele>268</ele>
        <time>2022-09-18T08:20:53.000Z</time>
      </trkpt>
      <trkpt lat="49.86861" lon="4.76321">
        <ele>268</ele>
        <time>2022-09-18T08:20:54.000Z</time>
      </trkpt>
      <trkpt lat="49.86861" lon="4.76322">
        <ele>268</ele>
        <time>2022-09-18T08:20:55.000Z</time>
      </trkpt>
      <trkpt lat="49.86863" lon="4.76324">
        <ele>268</ele>
        <time>2022-09-18T08:20:56.000Z</time>
      </trkpt>
      <trkpt lat="49.86864" lon="4.76326">
        <ele>268</ele>
        <time>2022-09-18T08:20:57.000Z</time>
      </trkpt>
      <trkpt lat="49.86865" lon="4.76329">
        <ele>268</ele>
        <time>2022-09-18T08:20:58.000Z</time>
      </trkpt>
      <trkpt lat="49.86866" lon="4.76332">
        <ele>268</ele>
        <time>2022-09-18T08:20:59.000Z</time>
      </trkpt>
      <trkpt lat="49.86867" lon="4.76334">
        <ele>268</ele>
        <time>2022-09-18T08:21:00.000Z</time>
      </trkpt>
      <trkpt lat="49.86868" lon="4.76336">
        <ele>268</ele>
        <time>2022-09-18T08:21:01.000Z</time>
      </trkpt>
      <trkpt lat="49.86869" lon="4.76338">
        <ele>268</ele>
        <time>2022-09-18T08:21:02.000Z</time>
      </trkpt>
      <trkpt lat="49.8687" lon="4.76339">
        <ele>267</ele>
        <time>2022-09-18T08:21:03.000Z</time>
      </trkpt>
      <trkpt lat="49.8687" lon="4.76341">
        <ele>267</ele>
        <time>2022-09-18T08:21:04.000Z</time>
      </trkpt>
      <trkpt lat="49.86871" lon="4.76342">
        <ele>267</ele>
        <time>2022-09-18T08:21:05.000Z</time>
      </trkpt>
      <trkpt lat="49.86872" lon="4.76344">
        <ele>268</ele>
        <time>2022-09-18T08:21:06.000Z</time>
      </trkpt>
      <trkpt lat="49.86872" lon="4.76345">
        <ele>268</ele>
        <time>2022-09-18T08:21:07.000Z</time>
      </trkpt>
      <trkpt lat="49.86873" lon="4.76346">
        <ele>268</ele>
        <time>2022-09-18T08:21:08.000Z</time>
      </trkpt>
      <trkpt lat="49.86873" lon="4.76345">
        <ele>268</ele>
        <time>2022-09-18T08:21:09.000Z</time>
      </trkpt>
      <trkpt lat="49.86874" lon="4.76345">
        <ele>268</ele>
        <time>2022-09-18T08:21:10.000Z</time>
      </trkpt>
      <trkpt lat="49.86874" lon="4.76345">
        <ele>268</ele>
        <time>2022-09-18T08:21:11.000Z</time>
      </trkpt>
      <trkpt lat="49.86874" lon="4.76345">
        <ele>268</ele>
        <time>2022-09-18T08:21:12.000Z</time>
      </trkpt>
      <trkpt lat="49.86874" lon="4.76345">
        <ele>268</ele>
        <time>2022-09-18T08:21:13.000Z</time>
      </trkpt>
      <trkpt lat="49.86874" lon="4.76343">
        <ele>268</ele>
        <time>2022-09-18T08:21:14.000Z</time>
      </trkpt>
      <trkpt lat="49.86874" lon="4.76341">
        <ele>269</ele>
        <time>2022-09-18T08:21:15.000Z</time>
      </trkpt>
      <trkpt lat="49.86874" lon="4.76339">
        <ele>269</ele>
        <time>2022-09-18T08:21:16.000Z</time>
      </trkpt>
      <trkpt lat="49.86874" lon="4.76338">
        <ele>269</ele>
        <time>2022-09-18T08:21:17.000Z</time>
      </trkpt>
      <trkpt lat="49.86874" lon="4.76335">
        <ele>269</ele>
        <time>2022-09-18T08:21:18.000Z</time>
      </trkpt>
      <trkpt lat="49.86875" lon="4.76334">
        <ele>269</ele>
        <time>2022-09-18T08:21:19.000Z</time>
      </trkpt>
      <trkpt lat="49.86876" lon="4.76331">
        <ele>269</ele>
        <time>2022-09-18T08:21:20.000Z</time>
      </trkpt>
      <trkpt lat="49.86876" lon="4.76329">
        <ele>270</ele>
        <time>2022-09-18T08:21:21.000Z</time>
      </trkpt>
      <trkpt lat="49.86876" lon="4.76326">
        <ele>270</ele>
        <time>2022-09-18T08:21:22.000Z</time>
      </trkpt>
      <trkpt lat="49.86876" lon="4.76323">
        <ele>270</ele>
        <time>2022-09-18T08:21:23.000Z</time>
      </trkpt>
      <trkpt lat="49.86876" lon="4.7632">
        <ele>271</ele>
        <time>2022-09-18T08:21:24.000Z</time>
      </trkpt>
      <trkpt lat="49.86876" lon="4.76318">
        <ele>271</ele>
        <time>2022-09-18T08:21:25.000Z</time>
      </trkpt>
      <trkpt lat="49.86876" lon="4.76316">
        <ele>271</ele>
        <time>2022-09-18T08:21:26.000Z</time>
      </trkpt>
      <trkpt lat="49.86876" lon="4.76313">
        <ele>272</ele>
        <time>2022-09-18T08:21:27.000Z</time>
      </trkpt>
      <trkpt lat="49.86876" lon="4.7631">
        <ele>272</ele>
        <time>2022-09-18T08:21:28.000Z</time>
      </trkpt>
      <trkpt lat="49.86876" lon="4.76307">
        <ele>273</ele>
        <time>2022-09-18T08:21:29.000Z</time>
      </trkpt>
      <trkpt lat="49.86876" lon="4.76305">
        <ele>273</ele>
        <time>2022-09-18T08:21:30.000Z</time>
      </trkpt>
      <trkpt lat="49.86876" lon="4.76303">
        <ele>273</ele>
        <time>2022-09-18T08:21:31.000Z</time>
      </trkpt>
      <trkpt lat="49.86876" lon="4.76299">
        <ele>274</ele>
        <time>2022-09-18T08:21:32.000Z</time>
      </trkpt>
      <trkpt lat="49.86877" lon="4.76297">
        <ele>274</ele>
        <time>2022-09-18T08:21:33.000Z</time>
      </trkpt>
      <trkpt lat="49.86877" lon="4.76295">
        <ele>274</ele>
        <time>2022-09-18T08:21:34.000Z</time>
      </trkpt>
      <trkpt lat="49.86878" lon="4.76293">
        <ele>275</ele>
        <time>2022-09-18T08:21:35.000Z</time>
      </trkpt>
      <trkpt lat="49.86878" lon="4.76291">
        <ele>275</ele>
        <time>2022-09-18T08:21:36.000Z</time>
      </trkpt>
      <trkpt lat="49.86877" lon="4.7629">
        <ele>276</ele>
        <time>2022-09-18T08:21:37.000Z</time>
      </trkpt>
      <trkpt lat="49.86877" lon="4.76289">
        <ele>276</ele>
        <time>2022-09-18T08:21:38.000Z</time>
      </trkpt>
      <trkpt lat="49.86877" lon="4.76289">
        <ele>276</ele>
        <time>2022-09-18T08:21:39.000Z</time>
      </trkpt>
      <trkpt lat="49.86877" lon="4.76289">
        <ele>277</ele>
        <time>2022-09-18T08:21:40.000Z</time>
      </trkpt>
      <trkpt lat="49.86877" lon="4.76291">
        <ele>277</ele>
        <time>2022-09-18T08:21:41.000Z</time>
      </trkpt>
      <trkpt lat="49.86877" lon="4.76293">
        <ele>277</ele>
        <time>2022-09-18T08:21:42.000Z</time>
      </trkpt>
      <trkpt lat="49.86877" lon="4.76297">
        <ele>278</ele>
        <time>2022-09-18T08:21:43.000Z</time>
      </trkpt>
      <trkpt lat="49.86877" lon="4.76302">
        <ele>278</ele>
        <time>2022-09-18T08:21:44.000Z</time>
      </trkpt>
      <trkpt lat="49.86877" lon="4.76306">
        <ele>278</ele>
        <time>2022-09-18T08:21:45.000Z</time>
      </trkpt>
      <trkpt lat="49.86876" lon="4.76312">
        <ele>278</ele>
        <time>2022-09-18T08:21:46.000Z</time>
      </trkpt>
      <trkpt lat="49.86876" lon="4.76318">
        <ele>278</ele>
        <time>2022-09-18T08:21:47.000Z</time>
      </trkpt>
      <trkpt lat="49.86876" lon="4.76324">
        <ele>279</ele>
        <time>2022-09-18T08:21:48.000Z</time>
      </trkpt>
      <trkpt lat="49.86876" lon="4.7633">
        <ele>279</ele>
        <time>2022-09-18T08:21:49.000Z</time>
      </trkpt>
      <trkpt lat="49.86876" lon="4.76337">
        <ele>279</ele>
        <time>2022-09-18T08:21:50.000Z</time>
      </trkpt>
      <trkpt lat="49.86875" lon="4.76343">
        <ele>279</ele>
        <time>2022-09-18T08:21:51.000Z</time>
      </trkpt>
      <trkpt lat="49.86875" lon="4.76348">
        <ele>279</ele>
        <time>2022-09-18T08:21:52.000Z</time>
      </trkpt>
      <trkpt lat="49.86874" lon="4.76352">
        <ele>279</ele>
        <time>2022-09-18T08:21:53.000Z</time>
      </trkpt>
      <trkpt lat="49.86874" lon="4.76356">
        <ele>279</ele>
        <time>2022-09-18T08:21:54.000Z</time>
      </trkpt>
      <trkpt lat="49.86873" lon="4.7636">
        <ele>280</ele>
        <time>2022-09-18T08:21:55.000Z</time>
      </trkpt>
      <trkpt lat="49.86872" lon="4.76365">
        <ele>280</ele>
        <time>2022-09-18T08:21:56.000Z</time>
      </trkpt>
      <trkpt lat="49.86871" lon="4.76371">
        <ele>280</ele>
        <time>2022-09-18T08:21:57.000Z</time>
      </trkpt>
      <trkpt lat="49.8687" lon="4.76378">
        <ele>280</ele>
        <time>2022-09-18T08:21:58.000Z</time>
      </trkpt>
      <trkpt lat="49.86869" lon="4.76386">
        <ele>280</ele>
        <time>2022-09-18T08:21:59.000Z</time>
      </trkpt>
      <trkpt lat="49.86868" lon="4.76393">
        <ele>280</ele>
        <time>2022-09-18T08:22:00.000Z</time>
      </trkpt>
      <trkpt lat="49.86866" lon="4.76401">
        <ele>280</ele>
        <time>2022-09-18T08:22:01.000Z</time>
      </trkpt>
      <trkpt lat="49.86864" lon="4.76408">
        <ele>280</ele>
        <time>2022-09-18T08:22:02.000Z</time>
      </trkpt>
      <trkpt lat="49.86862" lon="4.76413">
        <ele>279</ele>
        <time>2022-09-18T08:22:03.000Z</time>
      </trkpt>
      <trkpt lat="49.86861" lon="4.76417">
        <ele>279</ele>
        <time>2022-09-18T08:22:04.000Z</time>
      </trkpt>
      <trkpt lat="49.86859" lon="4.76421">
        <ele>279</ele>
        <time>2022-09-18T08:22:05.000Z</time>
      </trkpt>
      <trkpt lat="49.86858" lon="4.76422">
        <ele>279</ele>
        <time>2022-09-18T08:22:06.000Z</time>
      </trkpt>
      <trkpt lat="49.86856" lon="4.76423">
        <ele>279</ele>
        <time>2022-09-18T08:22:07.000Z</time>
      </trkpt>
      <trkpt lat="49.86855" lon="4.76422">
        <ele>279</ele>
        <time>2022-09-18T08:22:08.000Z</time>
      </trkpt>
      <trkpt lat="49.86855" lon="4.76422">
        <ele>279</ele>
        <time>2022-09-18T08:22:09.000Z</time>
      </trkpt>
      <trkpt lat="49.86855" lon="4.76422">
        <ele>279</ele>
        <time>2022-09-18T08:22:10.000Z</time>
      </trkpt>
      <trkpt lat="49.86855" lon="4.76422">
        <ele>278</ele>
        <time>2022-09-18T08:22:11.000Z</time>
      </trkpt>
      <trkpt lat="49.86855" lon="4.76423">
        <ele>278</ele>
        <time>2022-09-18T08:22:12.000Z</time>
      </trkpt>
      <trkpt lat="49.86855" lon="4.76423">
        <ele>278</ele>
        <time>2022-09-18T08:22:13.000Z</time>
      </trkpt>
      <trkpt lat="49.86855" lon="4.76423">
        <ele>278</ele>
        <time>2022-09-18T08:22:14.000Z</time>
      </trkpt>
      <trkpt lat="49.86854" lon="4.76424">
        <ele>278</ele>
        <time>2022-09-18T08:22:15.000Z</time>
      </trkpt>
      <trkpt lat="49.86854" lon="4.76424">
        <ele>278</ele>
        <time>2022-09-18T08:22:16.000Z</time>
      </trkpt>
      <trkpt lat="49.86854" lon="4.76424">
        <ele>278</ele>
        <time>2022-09-18T08:22:17.000Z</time>
      </trkpt>
      <trkpt lat="49.86854" lon="4.76425">
        <ele>278</ele>
        <time>2022-09-18T08:22:18.000Z</time>
      </trkpt>
      <trkpt lat="49.86854" lon="4.76426">
        <ele>277</ele>
        <time>2022-09-18T08:22:19.000Z</time>
      </trkpt>
      <trkpt lat="49.86854" lon="4.76427">
        <ele>277</ele>
        <time>2022-09-18T08:22:20.000Z</time>
      </trkpt>
      <trkpt lat="49.86855" lon="4.76429">
        <ele>277</ele>
        <time>2022-09-18T08:22:21.000Z</time>
      </trkpt>
      <trkpt lat="49.86855" lon="4.7643">
        <ele>277</ele>
        <time>2022-09-18T08:22:22.000Z</time>
      </trkpt>
      <trkpt lat="49.86856" lon="4.76431">
        <ele>277</ele>
        <time>2022-09-18T08:22:23.000Z</time>
      </trkpt>
      <trkpt lat="49.86856" lon="4.76432">
        <ele>277</ele>
        <time>2022-09-18T08:22:24.000Z</time>
      </trkpt>
      <trkpt lat="49.86857" lon="4.76433">
        <ele>277</ele>
        <time>2022-09-18T08:22:25.000Z</time>
      </trkpt>
      <trkpt lat="49.86857" lon="4.76433">
        <ele>277</ele>
        <time>2022-09-18T08:22:26.000Z</time>
      </trkpt>
      <trkpt lat="49.86858" lon="4.76435">
        <ele>276</ele>
        <time>2022-09-18T08:22:27.000Z</time>
      </trkpt>
      <trkpt lat="49.86859" lon="4.76435">
        <ele>276</ele>
        <time>2022-09-18T08:22:28.000Z</time>
      </trkpt>
      <trkpt lat="49.86859" lon="4.76436">
        <ele>276</ele>
        <time>2022-09-18T08:22:29.000Z</time>
      </trkpt>
      <trkpt lat="49.8686" lon="4.76436">
        <ele>276</ele>
        <time>2022-09-18T08:22:30.000Z</time>
      </trkpt>
      <trkpt lat="49.86861" lon="4.76437">
        <ele>276</ele>
        <time>2022-09-18T08:22:31.000Z</time>
      </trkpt>
      <trkpt lat="49.86862" lon="4.76438">
        <ele>276</ele>
        <time>2022-09-18T08:22:32.000Z</time>
      </trkpt>
      <trkpt lat="49.86863" lon="4.7644">
        <ele>276</ele>
        <time>2022-09-18T08:22:33.000Z</time>
      </trkpt>
      <trkpt lat="49.86864" lon="4.76441">
        <ele>275</ele>
        <time>2022-09-18T08:22:34.000Z</time>
      </trkpt>
      <trkpt lat="49.86865" lon="4.76442">
        <ele>275</ele>
        <time>2022-09-18T08:22:35.000Z</time>
      </trkpt>
      <trkpt lat="49.86866" lon="4.76443">
        <ele>275</ele>
        <time>2022-09-18T08:22:36.000Z</time>
      </trkpt>
      <trkpt lat="49.86866" lon="4.76445">
        <ele>275</ele>
        <time>2022-09-18T08:22:37.000Z</time>
      </trkpt>
      <trkpt lat="49.86867" lon="4.76446">
        <ele>275</ele>
        <time>2022-09-18T08:22:38.000Z</time>
      </trkpt>
      <trkpt lat="49.86868" lon="4.76448">
        <ele>275</ele>
        <time>2022-09-18T08:22:39.000Z</time>
      </trkpt>
      <trkpt lat="49.86869" lon="4.7645">
        <ele>275</ele>
        <time>2022-09-18T08:22:40.000Z</time>
      </trkpt>
      <trkpt lat="49.8687" lon="4.76451">
        <ele>275</ele>
        <time>2022-09-18T08:22:41.000Z</time>
      </trkpt>
      <trkpt lat="49.8687" lon="4.76453">
        <ele>275</ele>
        <time>2022-09-18T08:22:42.000Z</time>
      </trkpt>
      <trkpt lat="49.86871" lon="4.76454">
        <ele>275</ele>
        <time>2022-09-18T08:22:43.000Z</time>
      </trkpt>
      <trkpt lat="49.86871" lon="4.76455">
        <ele>275</ele>
        <time>2022-09-18T08:22:44.000Z</time>
      </trkpt>
      <trkpt lat="49.86871" lon="4.76456">
        <ele>275</ele>
        <time>2022-09-18T08:22:45.000Z</time>
      </trkpt>
      <trkpt lat="49.86871" lon="4.76458">
        <ele>275</ele>
        <time>2022-09-18T08:22:46.000Z</time>
      </trkpt>
      <trkpt lat="49.86871" lon="4.76461">
        <ele>274</ele>
        <time>2022-09-18T08:22:47.000Z</time>
      </trkpt>
      <trkpt lat="49.86872" lon="4.76464">
        <ele>274</ele>
        <time>2022-09-18T08:22:48.000Z</time>
      </trkpt>
      <trkpt lat="49.86872" lon="4.76467">
        <ele>274</ele>
        <time>2022-09-18T08:22:49.000Z</time>
      </trkpt>
      <trkpt lat="49.86872" lon="4.7647">
        <ele>274</ele>
        <time>2022-09-18T08:22:50.000Z</time>
      </trkpt>
      <trkpt lat="49.86871" lon="4.76474">
        <ele>274</ele>
        <time>2022-09-18T08:22:51.000Z</time>
      </trkpt>
      <trkpt lat="49.86872" lon="4.76477">
        <ele>274</ele>
        <time>2022-09-18T08:22:52.000Z</time>
      </trkpt>
      <trkpt lat="49.86871" lon="4.7648">
        <ele>274</ele>
        <time>2022-09-18T08:22:53.000Z</time>
      </trkpt>
      <trkpt lat="49.86871" lon="4.76481">
        <ele>274</ele>
        <time>2022-09-18T08:22:54.000Z</time>
      </trkpt>
      <trkpt lat="49.86869" lon="4.76482">
        <ele>274</ele>
        <time>2022-09-18T08:22:55.000Z</time>
      </trkpt>
      <trkpt lat="49.86869" lon="4.76481">
        <ele>274</ele>
        <time>2022-09-18T08:22:56.000Z</time>
      </trkpt>
      <trkpt lat="49.86868" lon="4.76479">
        <ele>274</ele>
        <time>2022-09-18T08:22:57.000Z</time>
      </trkpt>
      <trkpt lat="49.86867" lon="4.76476">
        <ele>274</ele>
        <time>2022-09-18T08:22:58.000Z</time>
      </trkpt>
      <trkpt lat="49.86866" lon="4.76473">
        <ele>274</ele>
        <time>2022-09-18T08:22:59.000Z</time>
      </trkpt>
      <trkpt lat="49.86864" lon="4.7647">
        <ele>273</ele>
        <time>2022-09-18T08:23:00.000Z</time>
      </trkpt>
      <trkpt lat="49.86863" lon="4.76467">
        <ele>273</ele>
        <time>2022-09-18T08:23:01.000Z</time>
      </trkpt>
      <trkpt lat="49.86862" lon="4.76464">
        <ele>273</ele>
        <time>2022-09-18T08:23:02.000Z</time>
      </trkpt>
      <trkpt lat="49.86861" lon="4.76461">
        <ele>273</ele>
        <time>2022-09-18T08:23:03.000Z</time>
      </trkpt>
      <trkpt lat="49.8686" lon="4.76458">
        <ele>273</ele>
        <time>2022-09-18T08:23:04.000Z</time>
      </trkpt>
      <trkpt lat="49.86859" lon="4.76455">
        <ele>273</ele>
        <time>2022-09-18T08:23:05.000Z</time>
      </trkpt>
      <trkpt lat="49.86859" lon="4.76452">
        <ele>273</ele>
        <time>2022-09-18T08:23:06.000Z</time>
      </trkpt>
      <trkpt lat="49.86858" lon="4.76449">
        <ele>272</ele>
        <time>2022-09-18T08:23:07.000Z</time>
      </trkpt>
      <trkpt lat="49.86857" lon="4.76445">
        <ele>272</ele>
        <time>2022-09-18T08:23:08.000Z</time>
      </trkpt>
      <trkpt lat="49.86856" lon="4.76442">
        <ele>272</ele>
        <time>2022-09-18T08:23:09.000Z</time>
      </trkpt>
      <trkpt lat="49.86855" lon="4.76439">
        <ele>272</ele>
        <time>2022-09-18T08:23:10.000Z</time>
      </trkpt>
      <trkpt lat="49.86854" lon="4.76436">
        <ele>272</ele>
        <time>2022-09-18T08:23:11.000Z</time>
      </trkpt>
      <trkpt lat="49.86854" lon="4.76435">
        <ele>271</ele>
        <time>2022-09-18T08:23:12.000Z</time>
      </trkpt>
      <trkpt lat="49.86854" lon="4.76435">
        <ele>271</ele>
        <time>2022-09-18T08:23:13.000Z</time>
      </trkpt>
      <trkpt lat="49.86854" lon="4.76434">
        <ele>271</ele>
        <time>2022-09-18T08:23:14.000Z</time>
      </trkpt>
      <trkpt lat="49.86853" lon="4.76433">
        <ele>271</ele>
        <time>2022-09-18T08:23:15.000Z</time>
      </trkpt>
      <trkpt lat="49.86852" lon="4.76431">
        <ele>271</ele>
        <time>2022-09-18T08:23:16.000Z</time>
      </trkpt>
      <trkpt lat="49.86851" lon="4.76428">
        <ele>271</ele>
        <time>2022-09-18T08:23:17.000Z</time>
      </trkpt>
      <trkpt lat="49.86851" lon="4.76426">
        <ele>270</ele>
        <time>2022-09-18T08:23:18.000Z</time>
      </trkpt>
      <trkpt lat="49.86851" lon="4.76426">
        <ele>270</ele>
        <time>2022-09-18T08:23:19.000Z</time>
      </trkpt>
      <trkpt lat="49.86851" lon="4.76426">
        <ele>270</ele>
        <time>2022-09-18T08:23:20.000Z</time>
      </trkpt>
      <trkpt lat="49.86851" lon="4.76425">
        <ele>270</ele>
        <time>2022-09-18T08:23:21.000Z</time>
      </trkpt>
      <trkpt lat="49.86851" lon="4.76425">
        <ele>270</ele>
        <time>2022-09-18T08:23:22.000Z</time>
      </trkpt>
      <trkpt lat="49.8685" lon="4.76424">
        <ele>269</ele>
        <time>2022-09-18T08:23:23.000Z</time>
      </trkpt>
      <trkpt lat="49.86849" lon="4.7642">
        <ele>269</ele>
        <time>2022-09-18T08:23:24.000Z</time>
      </trkpt>
      <trkpt lat="49.86848" lon="4.76416">
        <ele>269</ele>
        <time>2022-09-18T08:23:25.000Z</time>
      </trkpt>
      <trkpt lat="49.86848" lon="4.76416">
        <ele>269</ele>
        <time>2022-09-18T08:23:26.000Z</time>
      </trkpt>
      <trkpt lat="49.86847" lon="4.76411">
        <ele>269</ele>
        <time>2022-09-18T08:23:27.000Z</time>
      </trkpt>
      <trkpt lat="49.86846" lon="4.76408">
        <ele>269</ele>
        <time>2022-09-18T08:23:28.000Z</time>
      </trkpt>
      <trkpt lat="49.86845" lon="4.76405">
        <ele>269</ele>
        <time>2022-09-18T08:23:29.000Z</time>
      </trkpt>
      <trkpt lat="49.86844" lon="4.76401">
        <ele>269</ele>
        <time>2022-09-18T08:23:30.000Z</time>
      </trkpt>
      <trkpt lat="49.86843" lon="4.76396">
        <ele>268</ele>
        <time>2022-09-18T08:23:31.000Z</time>
      </trkpt>
      <trkpt lat="49.86841" lon="4.76392">
        <ele>268</ele>
        <time>2022-09-18T08:23:32.000Z</time>
      </trkpt>
      <trkpt lat="49.86841" lon="4.76388">
        <ele>268</ele>
        <time>2022-09-18T08:23:33.000Z</time>
      </trkpt>
      <trkpt lat="49.8684" lon="4.76384">
        <ele>268</ele>
        <time>2022-09-18T08:23:34.000Z</time>
      </trkpt>
      <trkpt lat="49.86839" lon="4.76379">
        <ele>268</ele>
        <time>2022-09-18T08:23:35.000Z</time>
      </trkpt>
      <trkpt lat="49.86839" lon="4.76379">
        <ele>268</ele>
        <time>2022-09-18T08:23:36.000Z</time>
      </trkpt>
      <trkpt lat="49.86836" lon="4.76371">
        <ele>267</ele>
        <time>2022-09-18T08:23:37.000Z</time>
      </trkpt>
      <trkpt lat="49.86835" lon="4.76366">
        <ele>267</ele>
        <time>2022-09-18T08:23:38.000Z</time>
      </trkpt>
      <trkpt lat="49.86833" lon="4.76362">
        <ele>267</ele>
        <time>2022-09-18T08:23:39.000Z</time>
      </trkpt>
      <trkpt lat="49.86832" lon="4.76357">
        <ele>267</ele>
        <time>2022-09-18T08:23:40.000Z</time>
      </trkpt>
      <trkpt lat="49.86831" lon="4.76352">
        <ele>267</ele>
        <time>2022-09-18T08:23:41.000Z</time>
      </trkpt>
      <trkpt lat="49.86829" lon="4.76347">
        <ele>267</ele>
        <time>2022-09-18T08:23:42.000Z</time>
      </trkpt>
      <trkpt lat="49.86829" lon="4.76347">
        <ele>267</ele>
        <time>2022-09-18T08:23:43.000Z</time>
      </trkpt>
      <trkpt lat="49.86827" lon="4.76339">
        <ele>267</ele>
        <time>2022-09-18T08:23:44.000Z</time>
      </trkpt>
      <trkpt lat="49.86826" lon="4.76334">
        <ele>267</ele>
        <time>2022-09-18T08:23:45.000Z</time>
      </trkpt>
      <trkpt lat="49.86825" lon="4.76329">
        <ele>267</ele>
        <time>2022-09-18T08:23:46.000Z</time>
      </trkpt>
      <trkpt lat="49.86824" lon="4.76325">
        <ele>267</ele>
        <time>2022-09-18T08:23:47.000Z</time>
      </trkpt>
      <trkpt lat="49.86823" lon="4.7632">
        <ele>267</ele>
        <time>2022-09-18T08:23:48.000Z</time>
      </trkpt>
      <trkpt lat="49.86823" lon="4.7632">
        <ele>267</ele>
        <time>2022-09-18T08:23:49.000Z</time>
      </trkpt>
      <trkpt lat="49.8682" lon="4.7631">
        <ele>267</ele>
        <time>2022-09-18T08:23:50.000Z</time>
      </trkpt>
      <trkpt lat="49.86819" lon="4.76305">
        <ele>267</ele>
        <time>2022-09-18T08:23:51.000Z</time>
      </trkpt>
      <trkpt lat="49.86818" lon="4.763">
        <ele>267</ele>
        <time>2022-09-18T08:23:52.000Z</time>
      </trkpt>
      <trkpt lat="49.86817" lon="4.76295">
        <ele>267</ele>
        <time>2022-09-18T08:23:53.000Z</time>
      </trkpt>
      <trkpt lat="49.86816" lon="4.76291">
        <ele>267</ele>
        <time>2022-09-18T08:23:54.000Z</time>
      </trkpt>
      <trkpt lat="49.86815" lon="4.76287">
        <ele>267</ele>
        <time>2022-09-18T08:23:55.000Z</time>
      </trkpt>
      <trkpt lat="49.86815" lon="4.76287">
        <ele>267</ele>
        <time>2022-09-18T08:23:56.000Z</time>
      </trkpt>
      <trkpt lat="49.86813" lon="4.76279">
        <ele>267</ele>
        <time>2022-09-18T08:23:57.000Z</time>
      </trkpt>
      <trkpt lat="49.86812" lon="4.76275">
        <ele>267</ele>
        <time>2022-09-18T08:23:58.000Z</time>
      </trkpt>
      <trkpt lat="49.86811" lon="4.76271">
        <ele>268</ele>
        <time>2022-09-18T08:23:59.000Z</time>
      </trkpt>
      <trkpt lat="49.8681" lon="4.76267">
        <ele>268</ele>
        <time>2022-09-18T08:24:00.000Z</time>
      </trkpt>
      <trkpt lat="49.86809" lon="4.76263">
        <ele>268</ele>
        <time>2022-09-18T08:24:01.000Z</time>
      </trkpt>
      <trkpt lat="49.86808" lon="4.76259">
        <ele>268</ele>
        <time>2022-09-18T08:24:02.000Z</time>
      </trkpt>
      <trkpt lat="49.86807" lon="4.76255">
        <ele>267</ele>
        <time>2022-09-18T08:24:03.000Z</time>
      </trkpt>
      <trkpt lat="49.86806" lon="4.76251">
        <ele>267</ele>
        <time>2022-09-18T08:24:04.000Z</time>
      </trkpt>
      <trkpt lat="49.86805" lon="4.76248">
        <ele>267</ele>
        <time>2022-09-18T08:24:05.000Z</time>
      </trkpt>
      <trkpt lat="49.86805" lon="4.76248">
        <ele>267</ele>
        <time>2022-09-18T08:24:06.000Z</time>
      </trkpt>
      <trkpt lat="49.86803" lon="4.76239">
        <ele>267</ele>
        <time>2022-09-18T08:24:07.000Z</time>
      </trkpt>
      <trkpt lat="49.86802" lon="4.76235">
        <ele>267</ele>
        <time>2022-09-18T08:24:08.000Z</time>
      </trkpt>
      <trkpt lat="49.868" lon="4.76231">
        <ele>267</ele>
        <time>2022-09-18T08:24:09.000Z</time>
      </trkpt>
      <trkpt lat="49.86799" lon="4.76226">
        <ele>267</ele>
        <time>2022-09-18T08:24:10.000Z</time>
      </trkpt>
      <trkpt lat="49.86798" lon="4.76221">
        <ele>267</ele>
        <time>2022-09-18T08:24:11.000Z</time>
      </trkpt>
      <trkpt lat="49.86797" lon="4.76216">
        <ele>267</ele>
        <time>2022-09-18T08:24:12.000Z</time>
      </trkpt>
      <trkpt lat="49.86796" lon="4.7621">
        <ele>267</ele>
        <time>2022-09-18T08:24:13.000Z</time>
      </trkpt>
      <trkpt lat="49.86795" lon="4.76203">
        <ele>267</ele>
        <time>2022-09-18T08:24:14.000Z</time>
      </trkpt>
      <trkpt lat="49.86793" lon="4.76197">
        <ele>266</ele>
        <time>2022-09-18T08:24:15.000Z</time>
      </trkpt>
      <trkpt lat="49.86791" lon="4.76192">
        <ele>266</ele>
        <time>2022-09-18T08:24:16.000Z</time>
      </trkpt>
      <trkpt lat="49.8679" lon="4.76186">
        <ele>266</ele>
        <time>2022-09-18T08:24:17.000Z</time>
      </trkpt>
      <trkpt lat="49.86788" lon="4.76181">
        <ele>266</ele>
        <time>2022-09-18T08:24:18.000Z</time>
      </trkpt>
      <trkpt lat="49.86786" lon="4.76174">
        <ele>266</ele>
        <time>2022-09-18T08:24:19.000Z</time>
      </trkpt>
      <trkpt lat="49.86785" lon="4.76168">
        <ele>266</ele>
        <time>2022-09-18T08:24:20.000Z</time>
      </trkpt>
      <trkpt lat="49.86783" lon="4.76162">
        <ele>266</ele>
        <time>2022-09-18T08:24:21.000Z</time>
      </trkpt>
      <trkpt lat="49.86782" lon="4.76157">
        <ele>266</ele>
        <time>2022-09-18T08:24:22.000Z</time>
      </trkpt>
      <trkpt lat="49.86781" lon="4.76152">
        <ele>266</ele>
        <time>2022-09-18T08:24:23.000Z</time>
      </trkpt>
      <trkpt lat="49.86779" lon="4.76148">
        <ele>266</ele>
        <time>2022-09-18T08:24:24.000Z</time>
      </trkpt>
      <trkpt lat="49.86778" lon="4.76144">
        <ele>266</ele>
        <time>2022-09-18T08:24:25.000Z</time>
      </trkpt>
      <trkpt lat="49.86777" lon="4.76138">
        <ele>265</ele>
        <time>2022-09-18T08:24:26.000Z</time>
      </trkpt>
      <trkpt lat="49.86776" lon="4.76133">
        <ele>265</ele>
        <time>2022-09-18T08:24:27.000Z</time>
      </trkpt>
      <trkpt lat="49.86775" lon="4.76127">
        <ele>265</ele>
        <time>2022-09-18T08:24:28.000Z</time>
      </trkpt>
      <trkpt lat="49.86773" lon="4.76121">
        <ele>265</ele>
        <time>2022-09-18T08:24:29.000Z</time>
      </trkpt>
      <trkpt lat="49.86772" lon="4.76115">
        <ele>264</ele>
        <time>2022-09-18T08:24:30.000Z</time>
      </trkpt>
      <trkpt lat="49.86771" lon="4.76109">
        <ele>264</ele>
        <time>2022-09-18T08:24:31.000Z</time>
      </trkpt>
      <trkpt lat="49.8677" lon="4.76102">
        <ele>264</ele>
        <time>2022-09-18T08:24:32.000Z</time>
      </trkpt>
      <trkpt lat="49.86769" lon="4.76097">
        <ele>264</ele>
        <time>2022-09-18T08:24:33.000Z</time>
      </trkpt>
      <trkpt lat="49.86768" lon="4.76091">
        <ele>264</ele>
        <time>2022-09-18T08:24:34.000Z</time>
      </trkpt>
      <trkpt lat="49.86767" lon="4.76086">
        <ele>264</ele>
        <time>2022-09-18T08:24:35.000Z</time>
      </trkpt>
      <trkpt lat="49.86766" lon="4.76081">
        <ele>263</ele>
        <time>2022-09-18T08:24:36.000Z</time>
      </trkpt>
      <trkpt lat="49.86764" lon="4.76075">
        <ele>263</ele>
        <time>2022-09-18T08:24:37.000Z</time>
      </trkpt>
      <trkpt lat="49.86762" lon="4.7607">
        <ele>263</ele>
        <time>2022-09-18T08:24:38.000Z</time>
      </trkpt>
      <trkpt lat="49.8676" lon="4.76065">
        <ele>263</ele>
        <time>2022-09-18T08:24:39.000Z</time>
      </trkpt>
      <trkpt lat="49.86759" lon="4.76058">
        <ele>263</ele>
        <time>2022-09-18T08:24:40.000Z</time>
      </trkpt>
      <trkpt lat="49.86757" lon="4.76052">
        <ele>263</ele>
        <time>2022-09-18T08:24:41.000Z</time>
      </trkpt>
      <trkpt lat="49.86756" lon="4.76046">
        <ele>263</ele>
        <time>2022-09-18T08:24:42.000Z</time>
      </trkpt>
      <trkpt lat="49.86755" lon="4.76041">
        <ele>262</ele>
        <time>2022-09-18T08:24:43.000Z</time>
      </trkpt>
      <trkpt lat="49.86753" lon="4.76035">
        <ele>262</ele>
        <time>2022-09-18T08:24:44.000Z</time>
      </trkpt>
      <trkpt lat="49.86752" lon="4.76029">
        <ele>262</ele>
        <time>2022-09-18T08:24:45.000Z</time>
      </trkpt>
      <trkpt lat="49.8675" lon="4.76024">
        <ele>262</ele>
        <time>2022-09-18T08:24:46.000Z</time>
      </trkpt>
      <trkpt lat="49.86748" lon="4.76018">
        <ele>261</ele>
        <time>2022-09-18T08:24:47.000Z</time>
      </trkpt>
      <trkpt lat="49.86747" lon="4.76013">
        <ele>261</ele>
        <time>2022-09-18T08:24:48.000Z</time>
      </trkpt>
      <trkpt lat="49.86747" lon="4.76013">
        <ele>261</ele>
        <time>2022-09-18T08:24:49.000Z</time>
      </trkpt>
      <trkpt lat="49.86745" lon="4.76002">
        <ele>261</ele>
        <time>2022-09-18T08:24:50.000Z</time>
      </trkpt>
      <trkpt lat="49.86745" lon="4.75997">
        <ele>261</ele>
        <time>2022-09-18T08:24:51.000Z</time>
      </trkpt>
      <trkpt lat="49.86745" lon="4.75992">
        <ele>260</ele>
        <time>2022-09-18T08:24:52.000Z</time>
      </trkpt>
      <trkpt lat="49.86744" lon="4.75986">
        <ele>260</ele>
        <time>2022-09-18T08:24:53.000Z</time>
      </trkpt>
      <trkpt lat="49.86743" lon="4.75981">
        <ele>260</ele>
        <time>2022-09-18T08:24:54.000Z</time>
      </trkpt>
      <trkpt lat="49.86742" lon="4.75976">
        <ele>260</ele>
        <time>2022-09-18T08:24:55.000Z</time>
      </trkpt>
      <trkpt lat="49.86742" lon="4.75976">
        <ele>260</ele>
        <time>2022-09-18T08:24:56.000Z</time>
      </trkpt>
      <trkpt lat="49.86739" lon="4.75965">
        <ele>260</ele>
        <time>2022-09-18T08:24:57.000Z</time>
      </trkpt>
      <trkpt lat="49.86738" lon="4.75959">
        <ele>260</ele>
        <time>2022-09-18T08:24:58.000Z</time>
      </trkpt>
      <trkpt lat="49.86736" lon="4.75953">
        <ele>260</ele>
        <time>2022-09-18T08:24:59.000Z</time>
      </trkpt>
      <trkpt lat="49.86735" lon="4.75947">
        <ele>260</ele>
        <time>2022-09-18T08:25:00.000Z</time>
      </trkpt>
      <trkpt lat="49.86733" lon="4.75942">
        <ele>260</ele>
        <time>2022-09-18T08:25:01.000Z</time>
      </trkpt>
      <trkpt lat="49.86732" lon="4.75938">
        <ele>260</ele>
        <time>2022-09-18T08:25:02.000Z</time>
      </trkpt>
      <trkpt lat="49.8673" lon="4.75935">
        <ele>260</ele>
        <time>2022-09-18T08:25:03.000Z</time>
      </trkpt>
      <trkpt lat="49.86729" lon="4.7593">
        <ele>260</ele>
        <time>2022-09-18T08:25:04.000Z</time>
      </trkpt>
      <trkpt lat="49.86729" lon="4.7593">
        <ele>260</ele>
        <time>2022-09-18T08:25:05.000Z</time>
      </trkpt>
      <trkpt lat="49.86725" lon="4.7592">
        <ele>260</ele>
        <time>2022-09-18T08:25:06.000Z</time>
      </trkpt>
      <trkpt lat="49.86724" lon="4.75914">
        <ele>260</ele>
        <time>2022-09-18T08:25:07.000Z</time>
      </trkpt>
      <trkpt lat="49.86723" lon="4.75909">
        <ele>260</ele>
        <time>2022-09-18T08:25:08.000Z</time>
      </trkpt>
      <trkpt lat="49.86722" lon="4.75903">
        <ele>260</ele>
        <time>2022-09-18T08:25:09.000Z</time>
      </trkpt>
      <trkpt lat="49.86721" lon="4.75897">
        <ele>259</ele>
        <time>2022-09-18T08:25:10.000Z</time>
      </trkpt>
      <trkpt lat="49.8672" lon="4.75892">
        <ele>259</ele>
        <time>2022-09-18T08:25:11.000Z</time>
      </trkpt>
      <trkpt lat="49.8672" lon="4.75892">
        <ele>259</ele>
        <time>2022-09-18T08:25:12.000Z</time>
      </trkpt>
      <trkpt lat="49.86717" lon="4.75881">
        <ele>259</ele>
        <time>2022-09-18T08:25:13.000Z</time>
      </trkpt>
      <trkpt lat="49.86716" lon="4.75876">
        <ele>259</ele>
        <time>2022-09-18T08:25:14.000Z</time>
      </trkpt>
      <trkpt lat="49.86714" lon="4.75871">
        <ele>258</ele>
        <time>2022-09-18T08:25:15.000Z</time>
      </trkpt>
      <trkpt lat="49.86713" lon="4.75866">
        <ele>258</ele>
        <time>2022-09-18T08:25:16.000Z</time>
      </trkpt>
      <trkpt lat="49.86712" lon="4.75861">
        <ele>258</ele>
        <time>2022-09-18T08:25:17.000Z</time>
      </trkpt>
      <trkpt lat="49.86711" lon="4.75858">
        <ele>258</ele>
        <time>2022-09-18T08:25:18.000Z</time>
      </trkpt>
      <trkpt lat="49.8671" lon="4.75853">
        <ele>258</ele>
        <time>2022-09-18T08:25:19.000Z</time>
      </trkpt>
      <trkpt lat="49.86709" lon="4.75849">
        <ele>257</ele>
        <time>2022-09-18T08:25:20.000Z</time>
      </trkpt>
      <trkpt lat="49.86708" lon="4.75844">
        <ele>257</ele>
        <time>2022-09-18T08:25:21.000Z</time>
      </trkpt>
      <trkpt lat="49.86708" lon="4.75844">
        <ele>257</ele>
        <time>2022-09-18T08:25:22.000Z</time>
      </trkpt>
      <trkpt lat="49.86706" lon="4.75832">
        <ele>257</ele>
        <time>2022-09-18T08:25:23.000Z</time>
      </trkpt>
      <trkpt lat="49.86704" lon="4.75826">
        <ele>257</ele>
        <time>2022-09-18T08:25:24.000Z</time>
      </trkpt>
      <trkpt lat="49.86702" lon="4.75819">
        <ele>257</ele>
        <time>2022-09-18T08:25:25.000Z</time>
      </trkpt>
      <trkpt lat="49.86701" lon="4.75812">
        <ele>257</ele>
        <time>2022-09-18T08:25:26.000Z</time>
      </trkpt>
      <trkpt lat="49.867" lon="4.75806">
        <ele>256</ele>
        <time>2022-09-18T08:25:27.000Z</time>
      </trkpt>
      <trkpt lat="49.867" lon="4.75806">
        <ele>256</ele>
        <time>2022-09-18T08:25:28.000Z</time>
      </trkpt>
      <trkpt lat="49.86696" lon="4.75794">
        <ele>256</ele>
        <time>2022-09-18T08:25:29.000Z</time>
      </trkpt>
      <trkpt lat="49.86695" lon="4.75788">
        <ele>256</ele>
        <time>2022-09-18T08:25:30.000Z</time>
      </trkpt>
      <trkpt lat="49.86695" lon="4.75782">
        <ele>256</ele>
        <time>2022-09-18T08:25:31.000Z</time>
      </trkpt>
      <trkpt lat="49.86693" lon="4.75778">
        <ele>256</ele>
        <time>2022-09-18T08:25:32.000Z</time>
      </trkpt>
      <trkpt lat="49.86692" lon="4.75772">
        <ele>256</ele>
        <time>2022-09-18T08:25:33.000Z</time>
      </trkpt>
      <trkpt lat="49.86691" lon="4.75765">
        <ele>256</ele>
        <time>2022-09-18T08:25:34.000Z</time>
      </trkpt>
      <trkpt lat="49.86689" lon="4.75759">
        <ele>255</ele>
        <time>2022-09-18T08:25:35.000Z</time>
      </trkpt>
      <trkpt lat="49.86688" lon="4.75752">
        <ele>255</ele>
        <time>2022-09-18T08:25:36.000Z</time>
      </trkpt>
      <trkpt lat="49.86687" lon="4.75746">
        <ele>255</ele>
        <time>2022-09-18T08:25:37.000Z</time>
      </trkpt>
      <trkpt lat="49.86686" lon="4.7574">
        <ele>255</ele>
        <time>2022-09-18T08:25:38.000Z</time>
      </trkpt>
      <trkpt lat="49.86684" lon="4.75735">
        <ele>255</ele>
        <time>2022-09-18T08:25:39.000Z</time>
      </trkpt>
      <trkpt lat="49.86683" lon="4.7573">
        <ele>255</ele>
        <time>2022-09-18T08:25:40.000Z</time>
      </trkpt>
      <trkpt lat="49.86682" lon="4.75726">
        <ele>255</ele>
        <time>2022-09-18T08:25:41.000Z</time>
      </trkpt>
      <trkpt lat="49.86681" lon="4.75722">
        <ele>255</ele>
        <time>2022-09-18T08:25:42.000Z</time>
      </trkpt>
      <trkpt lat="49.8668" lon="4.75718">
        <ele>255</ele>
        <time>2022-09-18T08:25:43.000Z</time>
      </trkpt>
      <trkpt lat="49.8668" lon="4.75714">
        <ele>255</ele>
        <time>2022-09-18T08:25:44.000Z</time>
      </trkpt>
      <trkpt lat="49.86679" lon="4.7571">
        <ele>255</ele>
        <time>2022-09-18T08:25:45.000Z</time>
      </trkpt>
      <trkpt lat="49.86678" lon="4.75707">
        <ele>255</ele>
        <time>2022-09-18T08:25:46.000Z</time>
      </trkpt>
      <trkpt lat="49.86678" lon="4.75703">
        <ele>255</ele>
        <time>2022-09-18T08:25:47.000Z</time>
      </trkpt>
      <trkpt lat="49.86678" lon="4.75699">
        <ele>255</ele>
        <time>2022-09-18T08:25:48.000Z</time>
      </trkpt>
      <trkpt lat="49.86678" lon="4.75695">
        <ele>255</ele>
        <time>2022-09-18T08:25:49.000Z</time>
      </trkpt>
      <trkpt lat="49.86678" lon="4.7569">
        <ele>255</ele>
        <time>2022-09-18T08:25:50.000Z</time>
      </trkpt>
      <trkpt lat="49.86677" lon="4.75685">
        <ele>255</ele>
        <time>2022-09-18T08:25:51.000Z</time>
      </trkpt>
      <trkpt lat="49.86676" lon="4.75681">
        <ele>255</ele>
        <time>2022-09-18T08:25:52.000Z</time>
      </trkpt>
      <trkpt lat="49.86676" lon="4.75676">
        <ele>255</ele>
        <time>2022-09-18T08:25:53.000Z</time>
      </trkpt>
      <trkpt lat="49.86675" lon="4.75671">
        <ele>255</ele>
        <time>2022-09-18T08:25:54.000Z</time>
      </trkpt>
      <trkpt lat="49.86674" lon="4.75666">
        <ele>255</ele>
        <time>2022-09-18T08:25:55.000Z</time>
      </trkpt>
      <trkpt lat="49.86673" lon="4.75662">
        <ele>255</ele>
        <time>2022-09-18T08:25:56.000Z</time>
      </trkpt>
      <trkpt lat="49.86672" lon="4.75658">
        <ele>255</ele>
        <time>2022-09-18T08:25:57.000Z</time>
      </trkpt>
      <trkpt lat="49.86672" lon="4.75655">
        <ele>255</ele>
        <time>2022-09-18T08:25:58.000Z</time>
      </trkpt>
      <trkpt lat="49.86671" lon="4.75651">
        <ele>255</ele>
        <time>2022-09-18T08:25:59.000Z</time>
      </trkpt>
      <trkpt lat="49.86671" lon="4.75648">
        <ele>255</ele>
        <time>2022-09-18T08:26:00.000Z</time>
      </trkpt>
      <trkpt lat="49.8667" lon="4.75644">
        <ele>255</ele>
        <time>2022-09-18T08:26:01.000Z</time>
      </trkpt>
      <trkpt lat="49.8667" lon="4.7564">
        <ele>256</ele>
        <time>2022-09-18T08:26:02.000Z</time>
      </trkpt>
      <trkpt lat="49.8667" lon="4.75637">
        <ele>256</ele>
        <time>2022-09-18T08:26:03.000Z</time>
      </trkpt>
      <trkpt lat="49.8667" lon="4.75633">
        <ele>256</ele>
        <time>2022-09-18T08:26:04.000Z</time>
      </trkpt>
      <trkpt lat="49.86669" lon="4.75629">
        <ele>256</ele>
        <time>2022-09-18T08:26:05.000Z</time>
      </trkpt>
      <trkpt lat="49.86669" lon="4.75626">
        <ele>256</ele>
        <time>2022-09-18T08:26:06.000Z</time>
      </trkpt>
      <trkpt lat="49.86668" lon="4.75621">
        <ele>256</ele>
        <time>2022-09-18T08:26:07.000Z</time>
      </trkpt>
      <trkpt lat="49.86667" lon="4.75617">
        <ele>256</ele>
        <time>2022-09-18T08:26:08.000Z</time>
      </trkpt>
      <trkpt lat="49.86665" lon="4.75613">
        <ele>256</ele>
        <time>2022-09-18T08:26:09.000Z</time>
      </trkpt>
      <trkpt lat="49.86665" lon="4.7561">
        <ele>256</ele>
        <time>2022-09-18T08:26:10.000Z</time>
      </trkpt>
      <trkpt lat="49.86664" lon="4.75608">
        <ele>255</ele>
        <time>2022-09-18T08:26:11.000Z</time>
      </trkpt>
      <trkpt lat="49.86664" lon="4.75608">
        <ele>255</ele>
        <time>2022-09-18T08:26:12.000Z</time>
      </trkpt>
      <trkpt lat="49.86663" lon="4.75603">
        <ele>255</ele>
        <time>2022-09-18T08:26:13.000Z</time>
      </trkpt>
      <trkpt lat="49.86663" lon="4.75601">
        <ele>255</ele>
        <time>2022-09-18T08:26:14.000Z</time>
      </trkpt>
      <trkpt lat="49.86662" lon="4.75599">
        <ele>255</ele>
        <time>2022-09-18T08:26:15.000Z</time>
      </trkpt>
      <trkpt lat="49.86661" lon="4.75596">
        <ele>255</ele>
        <time>2022-09-18T08:26:16.000Z</time>
      </trkpt>
      <trkpt lat="49.86659" lon="4.75593">
        <ele>255</ele>
        <time>2022-09-18T08:26:17.000Z</time>
      </trkpt>
      <trkpt lat="49.86659" lon="4.75588">
        <ele>255</ele>
        <time>2022-09-18T08:26:18.000Z</time>
      </trkpt>
      <trkpt lat="49.86659" lon="4.75583">
        <ele>255</ele>
        <time>2022-09-18T08:26:19.000Z</time>
      </trkpt>
      <trkpt lat="49.86658" lon="4.75578">
        <ele>255</ele>
        <time>2022-09-18T08:26:20.000Z</time>
      </trkpt>
      <trkpt lat="49.86658" lon="4.75574">
        <ele>255</ele>
        <time>2022-09-18T08:26:21.000Z</time>
      </trkpt>
      <trkpt lat="49.86658" lon="4.75568">
        <ele>255</ele>
        <time>2022-09-18T08:26:22.000Z</time>
      </trkpt>
      <trkpt lat="49.86658" lon="4.75563">
        <ele>255</ele>
        <time>2022-09-18T08:26:23.000Z</time>
      </trkpt>
      <trkpt lat="49.86658" lon="4.75558">
        <ele>255</ele>
        <time>2022-09-18T08:26:24.000Z</time>
      </trkpt>
      <trkpt lat="49.86658" lon="4.75552">
        <ele>255</ele>
        <time>2022-09-18T08:26:25.000Z</time>
      </trkpt>
      <trkpt lat="49.86658" lon="4.75547">
        <ele>254</ele>
        <time>2022-09-18T08:26:26.000Z</time>
      </trkpt>
      <trkpt lat="49.86657" lon="4.75542">
        <ele>254</ele>
        <time>2022-09-18T08:26:27.000Z</time>
      </trkpt>
      <trkpt lat="49.86657" lon="4.75537">
        <ele>254</ele>
        <time>2022-09-18T08:26:28.000Z</time>
      </trkpt>
      <trkpt lat="49.86657" lon="4.75537">
        <ele>254</ele>
        <time>2022-09-18T08:26:29.000Z</time>
      </trkpt>
      <trkpt lat="49.86656" lon="4.75526">
        <ele>254</ele>
        <time>2022-09-18T08:26:30.000Z</time>
      </trkpt>
      <trkpt lat="49.86656" lon="4.75521">
        <ele>254</ele>
        <time>2022-09-18T08:26:31.000Z</time>
      </trkpt>
      <trkpt lat="49.86656" lon="4.75515">
        <ele>253</ele>
        <time>2022-09-18T08:26:32.000Z</time>
      </trkpt>
      <trkpt lat="49.86655" lon="4.7551">
        <ele>253</ele>
        <time>2022-09-18T08:26:33.000Z</time>
      </trkpt>
      <trkpt lat="49.86655" lon="4.75504">
        <ele>253</ele>
        <time>2022-09-18T08:26:34.000Z</time>
      </trkpt>
      <trkpt lat="49.86655" lon="4.75504">
        <ele>253</ele>
        <time>2022-09-18T08:26:35.000Z</time>
      </trkpt>
      <trkpt lat="49.86656" lon="4.75491">
        <ele>252</ele>
        <time>2022-09-18T08:26:36.000Z</time>
      </trkpt>
      <trkpt lat="49.86657" lon="4.75485">
        <ele>252</ele>
        <time>2022-09-18T08:26:37.000Z</time>
      </trkpt>
      <trkpt lat="49.86658" lon="4.75478">
        <ele>252</ele>
        <time>2022-09-18T08:26:38.000Z</time>
      </trkpt>
      <trkpt lat="49.86658" lon="4.75472">
        <ele>252</ele>
        <time>2022-09-18T08:26:39.000Z</time>
      </trkpt>
      <trkpt lat="49.86659" lon="4.75465">
        <ele>251</ele>
        <time>2022-09-18T08:26:40.000Z</time>
      </trkpt>
      <trkpt lat="49.86659" lon="4.75458">
        <ele>251</ele>
        <time>2022-09-18T08:26:41.000Z</time>
      </trkpt>
      <trkpt lat="49.86659" lon="4.75451">
        <ele>251</ele>
        <time>2022-09-18T08:26:42.000Z</time>
      </trkpt>
      <trkpt lat="49.86659" lon="4.75444">
        <ele>250</ele>
        <time>2022-09-18T08:26:43.000Z</time>
      </trkpt>
      <trkpt lat="49.86659" lon="4.75437">
        <ele>250</ele>
        <time>2022-09-18T08:26:44.000Z</time>
      </trkpt>
      <trkpt lat="49.86658" lon="4.75431">
        <ele>250</ele>
        <time>2022-09-18T08:26:45.000Z</time>
      </trkpt>
      <trkpt lat="49.86658" lon="4.75425">
        <ele>250</ele>
        <time>2022-09-18T08:26:46.000Z</time>
      </trkpt>
      <trkpt lat="49.86658" lon="4.75419">
        <ele>249</ele>
        <time>2022-09-18T08:26:47.000Z</time>
      </trkpt>
      <trkpt lat="49.86658" lon="4.75413">
        <ele>249</ele>
        <time>2022-09-18T08:26:48.000Z</time>
      </trkpt>
      <trkpt lat="49.86658" lon="4.75406">
        <ele>249</ele>
        <time>2022-09-18T08:26:49.000Z</time>
      </trkpt>
      <trkpt lat="49.86657" lon="4.75399">
        <ele>248</ele>
        <time>2022-09-18T08:26:50.000Z</time>
      </trkpt>
      <trkpt lat="49.86657" lon="4.75393">
        <ele>248</ele>
        <time>2022-09-18T08:26:51.000Z</time>
      </trkpt>
      <trkpt lat="49.86657" lon="4.75386">
        <ele>248</ele>
        <time>2022-09-18T08:26:52.000Z</time>
      </trkpt>
      <trkpt lat="49.86656" lon="4.7538">
        <ele>248</ele>
        <time>2022-09-18T08:26:53.000Z</time>
      </trkpt>
      <trkpt lat="49.86655" lon="4.75373">
        <ele>248</ele>
        <time>2022-09-18T08:26:54.000Z</time>
      </trkpt>
      <trkpt lat="49.86654" lon="4.75367">
        <ele>248</ele>
        <time>2022-09-18T08:26:55.000Z</time>
      </trkpt>
      <trkpt lat="49.86654" lon="4.7536">
        <ele>248</ele>
        <time>2022-09-18T08:26:56.000Z</time>
      </trkpt>
      <trkpt lat="49.86653" lon="4.75353">
        <ele>248</ele>
        <time>2022-09-18T08:26:57.000Z</time>
      </trkpt>
      <trkpt lat="49.86652" lon="4.75347">
        <ele>247</ele>
        <time>2022-09-18T08:26:58.000Z</time>
      </trkpt>
      <trkpt lat="49.86652" lon="4.7534">
        <ele>247</ele>
        <time>2022-09-18T08:26:59.000Z</time>
      </trkpt>
      <trkpt lat="49.86652" lon="4.75333">
        <ele>247</ele>
        <time>2022-09-18T08:27:00.000Z</time>
      </trkpt>
      <trkpt lat="49.86652" lon="4.75325">
        <ele>247</ele>
        <time>2022-09-18T08:27:01.000Z</time>
      </trkpt>
      <trkpt lat="49.86652" lon="4.75318">
        <ele>247</ele>
        <time>2022-09-18T08:27:02.000Z</time>
      </trkpt>
      <trkpt lat="49.86651" lon="4.75313">
        <ele>247</ele>
        <time>2022-09-18T08:27:03.000Z</time>
      </trkpt>
      <trkpt lat="49.8665" lon="4.75308">
        <ele>247</ele>
        <time>2022-09-18T08:27:04.000Z</time>
      </trkpt>
      <trkpt lat="49.86649" lon="4.75303">
        <ele>247</ele>
        <time>2022-09-18T08:27:05.000Z</time>
      </trkpt>
      <trkpt lat="49.86647" lon="4.75297">
        <ele>247</ele>
        <time>2022-09-18T08:27:06.000Z</time>
      </trkpt>
      <trkpt lat="49.86646" lon="4.75291">
        <ele>247</ele>
        <time>2022-09-18T08:27:07.000Z</time>
      </trkpt>
      <trkpt lat="49.86644" lon="4.75284">
        <ele>247</ele>
        <time>2022-09-18T08:27:08.000Z</time>
      </trkpt>
      <trkpt lat="49.86643" lon="4.75277">
        <ele>247</ele>
        <time>2022-09-18T08:27:09.000Z</time>
      </trkpt>
      <trkpt lat="49.86642" lon="4.7527">
        <ele>247</ele>
        <time>2022-09-18T08:27:10.000Z</time>
      </trkpt>
      <trkpt lat="49.8664" lon="4.75263">
        <ele>247</ele>
        <time>2022-09-18T08:27:11.000Z</time>
      </trkpt>
      <trkpt lat="49.86637" lon="4.75256">
        <ele>247</ele>
        <time>2022-09-18T08:27:12.000Z</time>
      </trkpt>
      <trkpt lat="49.86634" lon="4.75249">
        <ele>248</ele>
        <time>2022-09-18T08:27:13.000Z</time>
      </trkpt>
      <trkpt lat="49.86631" lon="4.75242">
        <ele>248</ele>
        <time>2022-09-18T08:27:14.000Z</time>
      </trkpt>
      <trkpt lat="49.86628" lon="4.75235">
        <ele>247</ele>
        <time>2022-09-18T08:27:15.000Z</time>
      </trkpt>
      <trkpt lat="49.86625" lon="4.75227">
        <ele>247</ele>
        <time>2022-09-18T08:27:16.000Z</time>
      </trkpt>
      <trkpt lat="49.86622" lon="4.7522">
        <ele>247</ele>
        <time>2022-09-18T08:27:17.000Z</time>
      </trkpt>
      <trkpt lat="49.86618" lon="4.75212">
        <ele>247</ele>
        <time>2022-09-18T08:27:18.000Z</time>
      </trkpt>
      <trkpt lat="49.86615" lon="4.75204">
        <ele>247</ele>
        <time>2022-09-18T08:27:19.000Z</time>
      </trkpt>
      <trkpt lat="49.86611" lon="4.75197">
        <ele>247</ele>
        <time>2022-09-18T08:27:20.000Z</time>
      </trkpt>
      <trkpt lat="49.86607" lon="4.75191">
        <ele>246</ele>
        <time>2022-09-18T08:27:21.000Z</time>
      </trkpt>
      <trkpt lat="49.86604" lon="4.75184">
        <ele>246</ele>
        <time>2022-09-18T08:27:22.000Z</time>
      </trkpt>
      <trkpt lat="49.86601" lon="4.75177">
        <ele>246</ele>
        <time>2022-09-18T08:27:23.000Z</time>
      </trkpt>
      <trkpt lat="49.86597" lon="4.75169">
        <ele>246</ele>
        <time>2022-09-18T08:27:24.000Z</time>
      </trkpt>
      <trkpt lat="49.86597" lon="4.75169">
        <ele>246</ele>
        <time>2022-09-18T08:27:25.000Z</time>
      </trkpt>
      <trkpt lat="49.8659" lon="4.75154">
        <ele>245</ele>
        <time>2022-09-18T08:27:26.000Z</time>
      </trkpt>
      <trkpt lat="49.86586" lon="4.75146">
        <ele>245</ele>
        <time>2022-09-18T08:27:27.000Z</time>
      </trkpt>
      <trkpt lat="49.86583" lon="4.75139">
        <ele>245</ele>
        <time>2022-09-18T08:27:28.000Z</time>
      </trkpt>
      <trkpt lat="49.8658" lon="4.75133">
        <ele>245</ele>
        <time>2022-09-18T08:27:29.000Z</time>
      </trkpt>
      <trkpt lat="49.86578" lon="4.75129">
        <ele>245</ele>
        <time>2022-09-18T08:27:30.000Z</time>
      </trkpt>
      <trkpt lat="49.86577" lon="4.75125">
        <ele>245</ele>
        <time>2022-09-18T08:27:31.000Z</time>
      </trkpt>
      <trkpt lat="49.86577" lon="4.75125">
        <ele>245</ele>
        <time>2022-09-18T08:27:32.000Z</time>
      </trkpt>
      <trkpt lat="49.8657" lon="4.75117">
        <ele>245</ele>
        <time>2022-09-18T08:27:33.000Z</time>
      </trkpt>
      <trkpt lat="49.86566" lon="4.75112">
        <ele>245</ele>
        <time>2022-09-18T08:27:34.000Z</time>
      </trkpt>
      <trkpt lat="49.86562" lon="4.75108">
        <ele>244</ele>
        <time>2022-09-18T08:27:35.000Z</time>
      </trkpt>
      <trkpt lat="49.86558" lon="4.75104">
        <ele>244</ele>
        <time>2022-09-18T08:27:36.000Z</time>
      </trkpt>
      <trkpt lat="49.86553" lon="4.75099">
        <ele>244</ele>
        <time>2022-09-18T08:27:37.000Z</time>
      </trkpt>
      <trkpt lat="49.86549" lon="4.75094">
        <ele>244</ele>
        <time>2022-09-18T08:27:38.000Z</time>
      </trkpt>
      <trkpt lat="49.86545" lon="4.75089">
        <ele>243</ele>
        <time>2022-09-18T08:27:39.000Z</time>
      </trkpt>
      <trkpt lat="49.8654" lon="4.75083">
        <ele>243</ele>
        <time>2022-09-18T08:27:40.000Z</time>
      </trkpt>
      <trkpt lat="49.86536" lon="4.75077">
        <ele>243</ele>
        <time>2022-09-18T08:27:41.000Z</time>
      </trkpt>
      <trkpt lat="49.86536" lon="4.75077">
        <ele>243</ele>
        <time>2022-09-18T08:27:42.000Z</time>
      </trkpt>
      <trkpt lat="49.86528" lon="4.75065">
        <ele>242</ele>
        <time>2022-09-18T08:27:43.000Z</time>
      </trkpt>
      <trkpt lat="49.86524" lon="4.7506">
        <ele>241</ele>
        <time>2022-09-18T08:27:44.000Z</time>
      </trkpt>
      <trkpt lat="49.86519" lon="4.75054">
        <ele>241</ele>
        <time>2022-09-18T08:27:45.000Z</time>
      </trkpt>
      <trkpt lat="49.86515" lon="4.75048">
        <ele>240</ele>
        <time>2022-09-18T08:27:46.000Z</time>
      </trkpt>
      <trkpt lat="49.86511" lon="4.75042">
        <ele>240</ele>
        <time>2022-09-18T08:27:47.000Z</time>
      </trkpt>
      <trkpt lat="49.86507" lon="4.75036">
        <ele>239</ele>
        <time>2022-09-18T08:27:48.000Z</time>
      </trkpt>
      <trkpt lat="49.86507" lon="4.75036">
        <ele>239</ele>
        <time>2022-09-18T08:27:49.000Z</time>
      </trkpt>
      <trkpt lat="49.86498" lon="4.75023">
        <ele>238</ele>
        <time>2022-09-18T08:27:50.000Z</time>
      </trkpt>
      <trkpt lat="49.86494" lon="4.75017">
        <ele>238</ele>
        <time>2022-09-18T08:27:51.000Z</time>
      </trkpt>
      <trkpt lat="49.8649" lon="4.75011">
        <ele>237</ele>
        <time>2022-09-18T08:27:52.000Z</time>
      </trkpt>
      <trkpt lat="49.86486" lon="4.75004">
        <ele>237</ele>
        <time>2022-09-18T08:27:53.000Z</time>
      </trkpt>
      <trkpt lat="49.86482" lon="4.74997">
        <ele>236</ele>
        <time>2022-09-18T08:27:54.000Z</time>
      </trkpt>
      <trkpt lat="49.86478" lon="4.7499">
        <ele>235</ele>
        <time>2022-09-18T08:27:55.000Z</time>
      </trkpt>
      <trkpt lat="49.86475" lon="4.74983">
        <ele>235</ele>
        <time>2022-09-18T08:27:56.000Z</time>
      </trkpt>
      <trkpt lat="49.8647" lon="4.74976">
        <ele>234</ele>
        <time>2022-09-18T08:27:57.000Z</time>
      </trkpt>
      <trkpt lat="49.86466" lon="4.74969">
        <ele>234</ele>
        <time>2022-09-18T08:27:58.000Z</time>
      </trkpt>
      <trkpt lat="49.86461" lon="4.74962">
        <ele>233</ele>
        <time>2022-09-18T08:27:59.000Z</time>
      </trkpt>
      <trkpt lat="49.86457" lon="4.74955">
        <ele>233</ele>
        <time>2022-09-18T08:28:00.000Z</time>
      </trkpt>
      <trkpt lat="49.86452" lon="4.74947">
        <ele>232</ele>
        <time>2022-09-18T08:28:01.000Z</time>
      </trkpt>
      <trkpt lat="49.86448" lon="4.74939">
        <ele>232</ele>
        <time>2022-09-18T08:28:02.000Z</time>
      </trkpt>
      <trkpt lat="49.86448" lon="4.74939">
        <ele>232</ele>
        <time>2022-09-18T08:28:03.000Z</time>
      </trkpt>
      <trkpt lat="49.8644" lon="4.74925">
        <ele>230</ele>
        <time>2022-09-18T08:28:04.000Z</time>
      </trkpt>
      <trkpt lat="49.86436" lon="4.74918">
        <ele>229</ele>
        <time>2022-09-18T08:28:05.000Z</time>
      </trkpt>
      <trkpt lat="49.86434" lon="4.7491">
        <ele>229</ele>
        <time>2022-09-18T08:28:06.000Z</time>
      </trkpt>
      <trkpt lat="49.86431" lon="4.74903">
        <ele>228</ele>
        <time>2022-09-18T08:28:07.000Z</time>
      </trkpt>
      <trkpt lat="49.86429" lon="4.74895">
        <ele>227</ele>
        <time>2022-09-18T08:28:08.000Z</time>
      </trkpt>
      <trkpt lat="49.86426" lon="4.74887">
        <ele>226</ele>
        <time>2022-09-18T08:28:09.000Z</time>
      </trkpt>
      <trkpt lat="49.86422" lon="4.74879">
        <ele>225</ele>
        <time>2022-09-18T08:28:10.000Z</time>
      </trkpt>
      <trkpt lat="49.86419" lon="4.74871">
        <ele>224</ele>
        <time>2022-09-18T08:28:11.000Z</time>
      </trkpt>
      <trkpt lat="49.86416" lon="4.74863">
        <ele>223</ele>
        <time>2022-09-18T08:28:12.000Z</time>
      </trkpt>
      <trkpt lat="49.86416" lon="4.74863">
        <ele>223</ele>
        <time>2022-09-18T08:28:13.000Z</time>
      </trkpt>
      <trkpt lat="49.8641" lon="4.74849">
        <ele>222</ele>
        <time>2022-09-18T08:28:14.000Z</time>
      </trkpt>
      <trkpt lat="49.86407" lon="4.74842">
        <ele>221</ele>
        <time>2022-09-18T08:28:15.000Z</time>
      </trkpt>
      <trkpt lat="49.86404" lon="4.74836">
        <ele>220</ele>
        <time>2022-09-18T08:28:16.000Z</time>
      </trkpt>
      <trkpt lat="49.864" lon="4.74829">
        <ele>219</ele>
        <time>2022-09-18T08:28:17.000Z</time>
      </trkpt>
      <trkpt lat="49.86396" lon="4.74824">
        <ele>219</ele>
        <time>2022-09-18T08:28:18.000Z</time>
      </trkpt>
      <trkpt lat="49.86394" lon="4.74819">
        <ele>218</ele>
        <time>2022-09-18T08:28:19.000Z</time>
      </trkpt>
      <trkpt lat="49.86394" lon="4.74819">
        <ele>218</ele>
        <time>2022-09-18T08:28:20.000Z</time>
      </trkpt>
      <trkpt lat="49.86389" lon="4.74808">
        <ele>217</ele>
        <time>2022-09-18T08:28:21.000Z</time>
      </trkpt>
      <trkpt lat="49.86389" lon="4.74808">
        <ele>217</ele>
        <time>2022-09-18T08:28:22.000Z</time>
      </trkpt>
      <trkpt lat="49.86383" lon="4.74798">
        <ele>216</ele>
        <time>2022-09-18T08:28:23.000Z</time>
      </trkpt>
      <trkpt lat="49.86381" lon="4.74793">
        <ele>215</ele>
        <time>2022-09-18T08:28:24.000Z</time>
      </trkpt>
      <trkpt lat="49.86381" lon="4.74793">
        <ele>215</ele>
        <time>2022-09-18T08:28:25.000Z</time>
      </trkpt>
      <trkpt lat="49.86379" lon="4.74788">
        <ele>215</ele>
        <time>2022-09-18T08:28:26.000Z</time>
      </trkpt>
      <trkpt lat="49.86374" lon="4.74778">
        <ele>214</ele>
        <time>2022-09-18T08:28:27.000Z</time>
      </trkpt>
      <trkpt lat="49.86371" lon="4.74773">
        <ele>213</ele>
        <time>2022-09-18T08:28:28.000Z</time>
      </trkpt>
      <trkpt lat="49.86368" lon="4.74768">
        <ele>213</ele>
        <time>2022-09-18T08:28:29.000Z</time>
      </trkpt>
      <trkpt lat="49.86368" lon="4.74768">
        <ele>213</ele>
        <time>2022-09-18T08:28:30.000Z</time>
      </trkpt>
      <trkpt lat="49.86365" lon="4.74763">
        <ele>212</ele>
        <time>2022-09-18T08:28:31.000Z</time>
      </trkpt>
      <trkpt lat="49.86358" lon="4.74752">
        <ele>211</ele>
        <time>2022-09-18T08:28:32.000Z</time>
      </trkpt>
      <trkpt lat="49.86355" lon="4.74748">
        <ele>211</ele>
        <time>2022-09-18T08:28:33.000Z</time>
      </trkpt>
      <trkpt lat="49.86352" lon="4.74743">
        <ele>210</ele>
        <time>2022-09-18T08:28:34.000Z</time>
      </trkpt>
      <trkpt lat="49.86349" lon="4.74738">
        <ele>210</ele>
        <time>2022-09-18T08:28:35.000Z</time>
      </trkpt>
      <trkpt lat="49.86347" lon="4.74733">
        <ele>209</ele>
        <time>2022-09-18T08:28:36.000Z</time>
      </trkpt>
      <trkpt lat="49.86343" lon="4.74729">
        <ele>209</ele>
        <time>2022-09-18T08:28:37.000Z</time>
      </trkpt>
      <trkpt lat="49.8634" lon="4.74725">
        <ele>208</ele>
        <time>2022-09-18T08:28:38.000Z</time>
      </trkpt>
      <trkpt lat="49.86337" lon="4.74719">
        <ele>208</ele>
        <time>2022-09-18T08:28:39.000Z</time>
      </trkpt>
      <trkpt lat="49.86334" lon="4.74714">
        <ele>207</ele>
        <time>2022-09-18T08:28:40.000Z</time>
      </trkpt>
      <trkpt lat="49.86334" lon="4.74714">
        <ele>207</ele>
        <time>2022-09-18T08:28:41.000Z</time>
      </trkpt>
      <trkpt lat="49.86326" lon="4.74704">
        <ele>207</ele>
        <time>2022-09-18T08:28:42.000Z</time>
      </trkpt>
      <trkpt lat="49.86322" lon="4.74698">
        <ele>206</ele>
        <time>2022-09-18T08:28:43.000Z</time>
      </trkpt>
      <trkpt lat="49.8632" lon="4.74694">
        <ele>206</ele>
        <time>2022-09-18T08:28:44.000Z</time>
      </trkpt>
      <trkpt lat="49.86319" lon="4.74692">
        <ele>206</ele>
        <time>2022-09-18T08:28:45.000Z</time>
      </trkpt>
      <trkpt lat="49.86318" lon="4.74691">
        <ele>205</ele>
        <time>2022-09-18T08:28:46.000Z</time>
      </trkpt>
      <trkpt lat="49.86318" lon="4.74691">
        <ele>205</ele>
        <time>2022-09-18T08:28:47.000Z</time>
      </trkpt>
      <trkpt lat="49.86318" lon="4.74691">
        <ele>205</ele>
        <time>2022-09-18T08:28:48.000Z</time>
      </trkpt>
      <trkpt lat="49.86318" lon="4.7469">
        <ele>205</ele>
        <time>2022-09-18T08:28:49.000Z</time>
      </trkpt>
      <trkpt lat="49.86318" lon="4.7469">
        <ele>204</ele>
        <time>2022-09-18T08:28:50.000Z</time>
      </trkpt>
      <trkpt lat="49.86318" lon="4.7469">
        <ele>204</ele>
        <time>2022-09-18T08:28:51.000Z</time>
      </trkpt>
      <trkpt lat="49.86318" lon="4.7469">
        <ele>204</ele>
        <time>2022-09-18T08:28:52.000Z</time>
      </trkpt>
      <trkpt lat="49.86317" lon="4.74689">
        <ele>204</ele>
        <time>2022-09-18T08:28:53.000Z</time>
      </trkpt>
      <trkpt lat="49.86318" lon="4.74689">
        <ele>203</ele>
        <time>2022-09-18T08:28:54.000Z</time>
      </trkpt>
      <trkpt lat="49.86317" lon="4.74689">
        <ele>203</ele>
        <time>2022-09-18T08:28:55.000Z</time>
      </trkpt>
      <trkpt lat="49.86317" lon="4.74688">
        <ele>203</ele>
        <time>2022-09-18T08:28:56.000Z</time>
      </trkpt>
      <trkpt lat="49.86317" lon="4.74688">
        <ele>203</ele>
        <time>2022-09-18T08:28:57.000Z</time>
      </trkpt>
      <trkpt lat="49.86317" lon="4.74688">
        <ele>202</ele>
        <time>2022-09-18T08:28:58.000Z</time>
      </trkpt>
      <trkpt lat="49.86317" lon="4.74688">
        <ele>202</ele>
        <time>2022-09-18T08:28:59.000Z</time>
      </trkpt>
      <trkpt lat="49.86317" lon="4.74688">
        <ele>202</ele>
        <time>2022-09-18T08:29:00.000Z</time>
      </trkpt>
      <trkpt lat="49.86317" lon="4.74687">
        <ele>202</ele>
        <time>2022-09-18T08:29:01.000Z</time>
      </trkpt>
      <trkpt lat="49.86317" lon="4.74687">
        <ele>201</ele>
        <time>2022-09-18T08:29:02.000Z</time>
      </trkpt>
      <trkpt lat="49.86317" lon="4.74687">
        <ele>201</ele>
        <time>2022-09-18T08:29:03.000Z</time>
      </trkpt>
      <trkpt lat="49.86317" lon="4.74687">
        <ele>201</ele>
        <time>2022-09-18T08:29:04.000Z</time>
      </trkpt>
      <trkpt lat="49.86317" lon="4.74686">
        <ele>200</ele>
        <time>2022-09-18T08:29:05.000Z</time>
      </trkpt>
      <trkpt lat="49.86317" lon="4.74686">
        <ele>200</ele>
        <time>2022-09-18T08:29:06.000Z</time>
      </trkpt>
      <trkpt lat="49.86317" lon="4.74686">
        <ele>199</ele>
        <time>2022-09-18T08:29:07.000Z</time>
      </trkpt>
      <trkpt lat="49.86317" lon="4.74685">
        <ele>199</ele>
        <time>2022-09-18T08:29:08.000Z</time>
      </trkpt>
      <trkpt lat="49.86317" lon="4.74685">
        <ele>199</ele>
        <time>2022-09-18T08:29:09.000Z</time>
      </trkpt>
      <trkpt lat="49.86317" lon="4.74685">
        <ele>199</ele>
        <time>2022-09-18T08:29:10.000Z</time>
      </trkpt>
      <trkpt lat="49.86317" lon="4.74685">
        <ele>198</ele>
        <time>2022-09-18T08:29:11.000Z</time>
      </trkpt>
      <trkpt lat="49.86317" lon="4.74685">
        <ele>198</ele>
        <time>2022-09-18T08:29:12.000Z</time>
      </trkpt>
      <trkpt lat="49.86317" lon="4.74685">
        <ele>198</ele>
        <time>2022-09-18T08:29:13.000Z</time>
      </trkpt>
      <trkpt lat="49.86317" lon="4.74685">
        <ele>198</ele>
        <time>2022-09-18T08:29:14.000Z</time>
      </trkpt>
      <trkpt lat="49.86318" lon="4.74684">
        <ele>197</ele>
        <time>2022-09-18T08:29:15.000Z</time>
      </trkpt>
      <trkpt lat="49.86318" lon="4.74684">
        <ele>197</ele>
        <time>2022-09-18T08:29:16.000Z</time>
      </trkpt>
      <trkpt lat="49.86318" lon="4.74684">
        <ele>197</ele>
        <time>2022-09-18T08:29:17.000Z</time>
      </trkpt>
      <trkpt lat="49.86318" lon="4.74684">
        <ele>197</ele>
        <time>2022-09-18T08:29:18.000Z</time>
      </trkpt>
      <trkpt lat="49.86318" lon="4.74684">
        <ele>197</ele>
        <time>2022-09-18T08:29:19.000Z</time>
      </trkpt>
      <trkpt lat="49.86318" lon="4.74684">
        <ele>197</ele>
        <time>2022-09-18T08:29:20.000Z</time>
      </trkpt>
      <trkpt lat="49.86318" lon="4.74684">
        <ele>196</ele>
        <time>2022-09-18T08:29:21.000Z</time>
      </trkpt>
      <trkpt lat="49.86318" lon="4.74684">
        <ele>196</ele>
        <time>2022-09-18T08:29:22.000Z</time>
      </trkpt>
      <trkpt lat="49.86318" lon="4.74684">
        <ele>196</ele>
        <time>2022-09-18T08:29:23.000Z</time>
      </trkpt>
      <trkpt lat="49.86318" lon="4.74684">
        <ele>196</ele>
        <time>2022-09-18T08:29:24.000Z</time>
      </trkpt>
      <trkpt lat="49.86318" lon="4.74684">
        <ele>196</ele>
        <time>2022-09-18T08:29:25.000Z</time>
      </trkpt>
      <trkpt lat="49.86318" lon="4.74683">
        <ele>196</ele>
        <time>2022-09-18T08:29:26.000Z</time>
      </trkpt>
      <trkpt lat="49.86318" lon="4.74684">
        <ele>196</ele>
        <time>2022-09-18T08:29:27.000Z</time>
      </trkpt>
      <trkpt lat="49.86317" lon="4.74683">
        <ele>196</ele>
        <time>2022-09-18T08:29:28.000Z</time>
      </trkpt>
      <trkpt lat="49.86317" lon="4.74683">
        <ele>196</ele>
        <time>2022-09-18T08:29:29.000Z</time>
      </trkpt>
      <trkpt lat="49.86314" lon="4.74679">
        <ele>196</ele>
        <time>2022-09-18T08:29:30.000Z</time>
      </trkpt>
      <trkpt lat="49.86312" lon="4.74675">
        <ele>196</ele>
        <time>2022-09-18T08:29:31.000Z</time>
      </trkpt>
      <trkpt lat="49.86309" lon="4.74671">
        <ele>196</ele>
        <time>2022-09-18T08:29:32.000Z</time>
      </trkpt>
      <trkpt lat="49.86305" lon="4.74666">
        <ele>196</ele>
        <time>2022-09-18T08:29:33.000Z</time>
      </trkpt>
      <trkpt lat="49.863" lon="4.74662">
        <ele>195</ele>
        <time>2022-09-18T08:29:34.000Z</time>
      </trkpt>
      <trkpt lat="49.86295" lon="4.74657">
        <ele>195</ele>
        <time>2022-09-18T08:29:35.000Z</time>
      </trkpt>
      <trkpt lat="49.86289" lon="4.74653">
        <ele>195</ele>
        <time>2022-09-18T08:29:36.000Z</time>
      </trkpt>
      <trkpt lat="49.86283" lon="4.74648">
        <ele>195</ele>
        <time>2022-09-18T08:29:37.000Z</time>
      </trkpt>
      <trkpt lat="49.86283" lon="4.74648">
        <ele>195</ele>
        <time>2022-09-18T08:29:38.000Z</time>
      </trkpt>
      <trkpt lat="49.86277" lon="4.74644">
        <ele>195</ele>
        <time>2022-09-18T08:29:39.000Z</time>
      </trkpt>
      <trkpt lat="49.86267" lon="4.74638">
        <ele>193</ele>
        <time>2022-09-18T08:29:40.000Z</time>
      </trkpt>
      <trkpt lat="49.86262" lon="4.74635">
        <ele>193</ele>
        <time>2022-09-18T08:29:41.000Z</time>
      </trkpt>
      <trkpt lat="49.86262" lon="4.74635">
        <ele>193</ele>
        <time>2022-09-18T08:29:42.000Z</time>
      </trkpt>
      <trkpt lat="49.86251" lon="4.74629">
        <ele>191</ele>
        <time>2022-09-18T08:29:43.000Z</time>
      </trkpt>
      <trkpt lat="49.86246" lon="4.74625">
        <ele>190</ele>
        <time>2022-09-18T08:29:44.000Z</time>
      </trkpt>
      <trkpt lat="49.8624" lon="4.74622">
        <ele>189</ele>
        <time>2022-09-18T08:29:45.000Z</time>
      </trkpt>
      <trkpt lat="49.86235" lon="4.74618">
        <ele>188</ele>
        <time>2022-09-18T08:29:46.000Z</time>
      </trkpt>
      <trkpt lat="49.8623" lon="4.74615">
        <ele>187</ele>
        <time>2022-09-18T08:29:47.000Z</time>
      </trkpt>
      <trkpt lat="49.86226" lon="4.74612">
        <ele>186</ele>
        <time>2022-09-18T08:29:48.000Z</time>
      </trkpt>
      <trkpt lat="49.86222" lon="4.74609">
        <ele>185</ele>
        <time>2022-09-18T08:29:49.000Z</time>
      </trkpt>
      <trkpt lat="49.86219" lon="4.74607">
        <ele>184</ele>
        <time>2022-09-18T08:29:50.000Z</time>
      </trkpt>
      <trkpt lat="49.86217" lon="4.74606">
        <ele>183</ele>
        <time>2022-09-18T08:29:51.000Z</time>
      </trkpt>
      <trkpt lat="49.86215" lon="4.74608">
        <ele>182</ele>
        <time>2022-09-18T08:29:52.000Z</time>
      </trkpt>
      <trkpt lat="49.86215" lon="4.74611">
        <ele>182</ele>
        <time>2022-09-18T08:29:53.000Z</time>
      </trkpt>
      <trkpt lat="49.86216" lon="4.74616">
        <ele>181</ele>
        <time>2022-09-18T08:29:54.000Z</time>
      </trkpt>
      <trkpt lat="49.86217" lon="4.7462">
        <ele>180</ele>
        <time>2022-09-18T08:29:55.000Z</time>
      </trkpt>
      <trkpt lat="49.86219" lon="4.74624">
        <ele>179</ele>
        <time>2022-09-18T08:29:56.000Z</time>
      </trkpt>
      <trkpt lat="49.86221" lon="4.74629">
        <ele>179</ele>
        <time>2022-09-18T08:29:57.000Z</time>
      </trkpt>
      <trkpt lat="49.86223" lon="4.74633">
        <ele>178</ele>
        <time>2022-09-18T08:29:58.000Z</time>
      </trkpt>
      <trkpt lat="49.86226" lon="4.74638">
        <ele>177</ele>
        <time>2022-09-18T08:29:59.000Z</time>
      </trkpt>
      <trkpt lat="49.86228" lon="4.74644">
        <ele>177</ele>
        <time>2022-09-18T08:30:00.000Z</time>
      </trkpt>
      <trkpt lat="49.86231" lon="4.74649">
        <ele>176</ele>
        <time>2022-09-18T08:30:01.000Z</time>
      </trkpt>
      <trkpt lat="49.86233" lon="4.74654">
        <ele>176</ele>
        <time>2022-09-18T08:30:02.000Z</time>
      </trkpt>
      <trkpt lat="49.86236" lon="4.74659">
        <ele>175</ele>
        <time>2022-09-18T08:30:03.000Z</time>
      </trkpt>
      <trkpt lat="49.86238" lon="4.74665">
        <ele>175</ele>
        <time>2022-09-18T08:30:04.000Z</time>
      </trkpt>
      <trkpt lat="49.8624" lon="4.7467">
        <ele>175</ele>
        <time>2022-09-18T08:30:05.000Z</time>
      </trkpt>
      <trkpt lat="49.86243" lon="4.74675">
        <ele>174</ele>
        <time>2022-09-18T08:30:06.000Z</time>
      </trkpt>
      <trkpt lat="49.86245" lon="4.74681">
        <ele>174</ele>
        <time>2022-09-18T08:30:07.000Z</time>
      </trkpt>
      <trkpt lat="49.86248" lon="4.74686">
        <ele>174</ele>
        <time>2022-09-18T08:30:08.000Z</time>
      </trkpt>
      <trkpt lat="49.86251" lon="4.74691">
        <ele>174</ele>
        <time>2022-09-18T08:30:09.000Z</time>
      </trkpt>
      <trkpt lat="49.86253" lon="4.74696">
        <ele>173</ele>
        <time>2022-09-18T08:30:10.000Z</time>
      </trkpt>
      <trkpt lat="49.86255" lon="4.74701">
        <ele>173</ele>
        <time>2022-09-18T08:30:11.000Z</time>
      </trkpt>
      <trkpt lat="49.86255" lon="4.74701">
        <ele>173</ele>
        <time>2022-09-18T08:30:12.000Z</time>
      </trkpt>
      <trkpt lat="49.86261" lon="4.74709">
        <ele>173</ele>
        <time>2022-09-18T08:30:13.000Z</time>
      </trkpt>
      <trkpt lat="49.86264" lon="4.74712">
        <ele>172</ele>
        <time>2022-09-18T08:30:14.000Z</time>
      </trkpt>
      <trkpt lat="49.86268" lon="4.74715">
        <ele>172</ele>
        <time>2022-09-18T08:30:15.000Z</time>
      </trkpt>
      <trkpt lat="49.86268" lon="4.74715">
        <ele>172</ele>
        <time>2022-09-18T08:30:16.000Z</time>
      </trkpt>
      <trkpt lat="49.86276" lon="4.74719">
        <ele>171</ele>
        <time>2022-09-18T08:30:17.000Z</time>
      </trkpt>
      <trkpt lat="49.8628" lon="4.74721">
        <ele>171</ele>
        <time>2022-09-18T08:30:18.000Z</time>
      </trkpt>
      <trkpt lat="49.86284" lon="4.74724">
        <ele>171</ele>
        <time>2022-09-18T08:30:19.000Z</time>
      </trkpt>
      <trkpt lat="49.86287" lon="4.74727">
        <ele>170</ele>
        <time>2022-09-18T08:30:20.000Z</time>
      </trkpt>
      <trkpt lat="49.86289" lon="4.74731">
        <ele>170</ele>
        <time>2022-09-18T08:30:21.000Z</time>
      </trkpt>
      <trkpt lat="49.86291" lon="4.74735">
        <ele>170</ele>
        <time>2022-09-18T08:30:22.000Z</time>
      </trkpt>
      <trkpt lat="49.86294" lon="4.74739">
        <ele>170</ele>
        <time>2022-09-18T08:30:23.000Z</time>
      </trkpt>
      <trkpt lat="49.86294" lon="4.74739">
        <ele>170</ele>
        <time>2022-09-18T08:30:24.000Z</time>
      </trkpt>
      <trkpt lat="49.86295" lon="4.74744">
        <ele>170</ele>
        <time>2022-09-18T08:30:25.000Z</time>
      </trkpt>
      <trkpt lat="49.86296" lon="4.7475">
        <ele>170</ele>
        <time>2022-09-18T08:30:26.000Z</time>
      </trkpt>
      <trkpt lat="49.86297" lon="4.74756">
        <ele>169</ele>
        <time>2022-09-18T08:30:27.000Z</time>
      </trkpt>
      <trkpt lat="49.86297" lon="4.74762">
        <ele>169</ele>
        <time>2022-09-18T08:30:28.000Z</time>
      </trkpt>
      <trkpt lat="49.86297" lon="4.74768">
        <ele>169</ele>
        <time>2022-09-18T08:30:29.000Z</time>
      </trkpt>
      <trkpt lat="49.86297" lon="4.74775">
        <ele>169</ele>
        <time>2022-09-18T08:30:30.000Z</time>
      </trkpt>
      <trkpt lat="49.86296" lon="4.74781">
        <ele>169</ele>
        <time>2022-09-18T08:30:31.000Z</time>
      </trkpt>
      <trkpt lat="49.86296" lon="4.74786">
        <ele>169</ele>
        <time>2022-09-18T08:30:32.000Z</time>
      </trkpt>
      <trkpt lat="49.86297" lon="4.74792">
        <ele>168</ele>
        <time>2022-09-18T08:30:33.000Z</time>
      </trkpt>
      <trkpt lat="49.86298" lon="4.74798">
        <ele>168</ele>
        <time>2022-09-18T08:30:34.000Z</time>
      </trkpt>
      <trkpt lat="49.86302" lon="4.74809">
        <ele>168</ele>
        <time>2022-09-18T08:30:35.000Z</time>
      </trkpt>
      <trkpt lat="49.86304" lon="4.74814">
        <ele>168</ele>
        <time>2022-09-18T08:30:36.000Z</time>
      </trkpt>
      <trkpt lat="49.86304" lon="4.74814">
        <ele>168</ele>
        <time>2022-09-18T08:30:37.000Z</time>
      </trkpt>
      <trkpt lat="49.86306" lon="4.74819">
        <ele>168</ele>
        <time>2022-09-18T08:30:38.000Z</time>
      </trkpt>
      <trkpt lat="49.8631" lon="4.74828">
        <ele>168</ele>
        <time>2022-09-18T08:30:39.000Z</time>
      </trkpt>
      <trkpt lat="49.8631" lon="4.74828">
        <ele>168</ele>
        <time>2022-09-18T08:30:40.000Z</time>
      </trkpt>
      <trkpt lat="49.86314" lon="4.74836">
        <ele>167</ele>
        <time>2022-09-18T08:30:41.000Z</time>
      </trkpt>
      <trkpt lat="49.86315" lon="4.7484">
        <ele>167</ele>
        <time>2022-09-18T08:30:42.000Z</time>
      </trkpt>
      <trkpt lat="49.86315" lon="4.7484">
        <ele>167</ele>
        <time>2022-09-18T08:30:43.000Z</time>
      </trkpt>
      <trkpt lat="49.86317" lon="4.74843">
        <ele>167</ele>
        <time>2022-09-18T08:30:44.000Z</time>
      </trkpt>
      <trkpt lat="49.8632" lon="4.74848">
        <ele>168</ele>
        <time>2022-09-18T08:30:45.000Z</time>
      </trkpt>
      <trkpt lat="49.86321" lon="4.74851">
        <ele>168</ele>
        <time>2022-09-18T08:30:46.000Z</time>
      </trkpt>
      <trkpt lat="49.86322" lon="4.74853">
        <ele>168</ele>
        <time>2022-09-18T08:30:47.000Z</time>
      </trkpt>
      <trkpt lat="49.86323" lon="4.74856">
        <ele>168</ele>
        <time>2022-09-18T08:30:48.000Z</time>
      </trkpt>
      <trkpt lat="49.86323" lon="4.74856">
        <ele>168</ele>
        <time>2022-09-18T08:30:49.000Z</time>
      </trkpt>
      <trkpt lat="49.86325" lon="4.74862">
        <ele>168</ele>
        <time>2022-09-18T08:30:50.000Z</time>
      </trkpt>
      <trkpt lat="49.86326" lon="4.74865">
        <ele>168</ele>
        <time>2022-09-18T08:30:51.000Z</time>
      </trkpt>
      <trkpt lat="49.86328" lon="4.74867">
        <ele>168</ele>
        <time>2022-09-18T08:30:52.000Z</time>
      </trkpt>
      <trkpt lat="49.86329" lon="4.7487">
        <ele>168</ele>
        <time>2022-09-18T08:30:53.000Z</time>
      </trkpt>
      <trkpt lat="49.8633" lon="4.74874">
        <ele>168</ele>
        <time>2022-09-18T08:30:54.000Z</time>
      </trkpt>
      <trkpt lat="49.8633" lon="4.74874">
        <ele>168</ele>
        <time>2022-09-18T08:30:55.000Z</time>
      </trkpt>
      <trkpt lat="49.86333" lon="4.7488">
        <ele>168</ele>
        <time>2022-09-18T08:30:56.000Z</time>
      </trkpt>
      <trkpt lat="49.86334" lon="4.74884">
        <ele>168</ele>
        <time>2022-09-18T08:30:57.000Z</time>
      </trkpt>
      <trkpt lat="49.86336" lon="4.74887">
        <ele>168</ele>
        <time>2022-09-18T08:30:58.000Z</time>
      </trkpt>
      <trkpt lat="49.86336" lon="4.74887">
        <ele>168</ele>
        <time>2022-09-18T08:30:59.000Z</time>
      </trkpt>
      <trkpt lat="49.86339" lon="4.74893">
        <ele>169</ele>
        <time>2022-09-18T08:31:00.000Z</time>
      </trkpt>
      <trkpt lat="49.86341" lon="4.74896">
        <ele>169</ele>
        <time>2022-09-18T08:31:01.000Z</time>
      </trkpt>
      <trkpt lat="49.86343" lon="4.74899">
        <ele>169</ele>
        <time>2022-09-18T08:31:02.000Z</time>
      </trkpt>
      <trkpt lat="49.86345" lon="4.74901">
        <ele>169</ele>
        <time>2022-09-18T08:31:03.000Z</time>
      </trkpt>
      <trkpt lat="49.86346" lon="4.74905">
        <ele>169</ele>
        <time>2022-09-18T08:31:04.000Z</time>
      </trkpt>
      <trkpt lat="49.86347" lon="4.74908">
        <ele>169</ele>
        <time>2022-09-18T08:31:05.000Z</time>
      </trkpt>
      <trkpt lat="49.86348" lon="4.74912">
        <ele>169</ele>
        <time>2022-09-18T08:31:06.000Z</time>
      </trkpt>
      <trkpt lat="49.86349" lon="4.74915">
        <ele>169</ele>
        <time>2022-09-18T08:31:07.000Z</time>
      </trkpt>
      <trkpt lat="49.86351" lon="4.74918">
        <ele>169</ele>
        <time>2022-09-18T08:31:08.000Z</time>
      </trkpt>
      <trkpt lat="49.86352" lon="4.74921">
        <ele>169</ele>
        <time>2022-09-18T08:31:09.000Z</time>
      </trkpt>
      <trkpt lat="49.86353" lon="4.74924">
        <ele>169</ele>
        <time>2022-09-18T08:31:10.000Z</time>
      </trkpt>
      <trkpt lat="49.86354" lon="4.74926">
        <ele>169</ele>
        <time>2022-09-18T08:31:11.000Z</time>
      </trkpt>
      <trkpt lat="49.86355" lon="4.74928">
        <ele>169</ele>
        <time>2022-09-18T08:31:12.000Z</time>
      </trkpt>
      <trkpt lat="49.86355" lon="4.74929">
        <ele>169</ele>
        <time>2022-09-18T08:31:13.000Z</time>
      </trkpt>
      <trkpt lat="49.86355" lon="4.74929">
        <ele>169</ele>
        <time>2022-09-18T08:31:14.000Z</time>
      </trkpt>
      <trkpt lat="49.86355" lon="4.7493">
        <ele>169</ele>
        <time>2022-09-18T08:31:15.000Z</time>
      </trkpt>
      <trkpt lat="49.86355" lon="4.74932">
        <ele>170</ele>
        <time>2022-09-18T08:31:16.000Z</time>
      </trkpt>
      <trkpt lat="49.86355" lon="4.74932">
        <ele>170</ele>
        <time>2022-09-18T08:31:17.000Z</time>
      </trkpt>
      <trkpt lat="49.86355" lon="4.74932">
        <ele>170</ele>
        <time>2022-09-18T08:31:18.000Z</time>
      </trkpt>
      <trkpt lat="49.86355" lon="4.74933">
        <ele>170</ele>
        <time>2022-09-18T08:31:19.000Z</time>
      </trkpt>
      <trkpt lat="49.86355" lon="4.74933">
        <ele>170</ele>
        <time>2022-09-18T08:31:20.000Z</time>
      </trkpt>
      <trkpt lat="49.86354" lon="4.74933">
        <ele>170</ele>
        <time>2022-09-18T08:31:21.000Z</time>
      </trkpt>
      <trkpt lat="49.86354" lon="4.74933">
        <ele>170</ele>
        <time>2022-09-18T08:31:22.000Z</time>
      </trkpt>
      <trkpt lat="49.86353" lon="4.7493">
        <ele>170</ele>
        <time>2022-09-18T08:31:23.000Z</time>
      </trkpt>
      <trkpt lat="49.86353" lon="4.7493">
        <ele>170</ele>
        <time>2022-09-18T08:31:24.000Z</time>
      </trkpt>
      <trkpt lat="49.86352" lon="4.74929">
        <ele>170</ele>
        <time>2022-09-18T08:31:25.000Z</time>
      </trkpt>
      <trkpt lat="49.86351" lon="4.74926">
        <ele>170</ele>
        <time>2022-09-18T08:31:26.000Z</time>
      </trkpt>
      <trkpt lat="49.86351" lon="4.74926">
        <ele>170</ele>
        <time>2022-09-18T08:31:27.000Z</time>
      </trkpt>
      <trkpt lat="49.86349" lon="4.74921">
        <ele>170</ele>
        <time>2022-09-18T08:31:28.000Z</time>
      </trkpt>
      <trkpt lat="49.86347" lon="4.74918">
        <ele>170</ele>
        <time>2022-09-18T08:31:29.000Z</time>
      </trkpt>
      <trkpt lat="49.86346" lon="4.74915">
        <ele>170</ele>
        <time>2022-09-18T08:31:30.000Z</time>
      </trkpt>
      <trkpt lat="49.86346" lon="4.74915">
        <ele>170</ele>
        <time>2022-09-18T08:31:31.000Z</time>
      </trkpt>
      <trkpt lat="49.86345" lon="4.74911">
        <ele>170</ele>
        <time>2022-09-18T08:31:32.000Z</time>
      </trkpt>
      <trkpt lat="49.86343" lon="4.74908">
        <ele>170</ele>
        <time>2022-09-18T08:31:33.000Z</time>
      </trkpt>
      <trkpt lat="49.8634" lon="4.74904">
        <ele>170</ele>
        <time>2022-09-18T08:31:34.000Z</time>
      </trkpt>
      <trkpt lat="49.86338" lon="4.74899">
        <ele>171</ele>
        <time>2022-09-18T08:31:35.000Z</time>
      </trkpt>
      <trkpt lat="49.86334" lon="4.7489">
        <ele>171</ele>
        <time>2022-09-18T08:31:36.000Z</time>
      </trkpt>
      <trkpt lat="49.86334" lon="4.7489">
        <ele>171</ele>
        <time>2022-09-18T08:31:37.000Z</time>
      </trkpt>
      <trkpt lat="49.86331" lon="4.74881">
        <ele>171</ele>
        <time>2022-09-18T08:31:38.000Z</time>
      </trkpt>
      <trkpt lat="49.86329" lon="4.74877">
        <ele>171</ele>
        <time>2022-09-18T08:31:39.000Z</time>
      </trkpt>
      <trkpt lat="49.86328" lon="4.74874">
        <ele>171</ele>
        <time>2022-09-18T08:31:40.000Z</time>
      </trkpt>
      <trkpt lat="49.86326" lon="4.74871">
        <ele>171</ele>
        <time>2022-09-18T08:31:41.000Z</time>
      </trkpt>
      <trkpt lat="49.86325" lon="4.74868">
        <ele>171</ele>
        <time>2022-09-18T08:31:42.000Z</time>
      </trkpt>
      <trkpt lat="49.86325" lon="4.74868">
        <ele>171</ele>
        <time>2022-09-18T08:31:43.000Z</time>
      </trkpt>
      <trkpt lat="49.86323" lon="4.74861">
        <ele>171</ele>
        <time>2022-09-18T08:31:44.000Z</time>
      </trkpt>
      <trkpt lat="49.86323" lon="4.74861">
        <ele>171</ele>
        <time>2022-09-18T08:31:45.000Z</time>
      </trkpt>
      <trkpt lat="49.86322" lon="4.74858">
        <ele>171</ele>
        <time>2022-09-18T08:31:46.000Z</time>
      </trkpt>
      <trkpt lat="49.86319" lon="4.74851">
        <ele>171</ele>
        <time>2022-09-18T08:31:47.000Z</time>
      </trkpt>
      <trkpt lat="49.86317" lon="4.74847">
        <ele>171</ele>
        <time>2022-09-18T08:31:48.000Z</time>
      </trkpt>
      <trkpt lat="49.86314" lon="4.74842">
        <ele>171</ele>
        <time>2022-09-18T08:31:49.000Z</time>
      </trkpt>
      <trkpt lat="49.86312" lon="4.74837">
        <ele>171</ele>
        <time>2022-09-18T08:31:50.000Z</time>
      </trkpt>
      <trkpt lat="49.8631" lon="4.74831">
        <ele>170</ele>
        <time>2022-09-18T08:31:51.000Z</time>
      </trkpt>
      <trkpt lat="49.8631" lon="4.74831">
        <ele>170</ele>
        <time>2022-09-18T08:31:52.000Z</time>
      </trkpt>
      <trkpt lat="49.86306" lon="4.7482">
        <ele>170</ele>
        <time>2022-09-18T08:31:53.000Z</time>
      </trkpt>
      <trkpt lat="49.86303" lon="4.74814">
        <ele>170</ele>
        <time>2022-09-18T08:31:54.000Z</time>
      </trkpt>
      <trkpt lat="49.86303" lon="4.74814">
        <ele>170</ele>
        <time>2022-09-18T08:31:55.000Z</time>
      </trkpt>
      <trkpt lat="49.86302" lon="4.74808">
        <ele>170</ele>
        <time>2022-09-18T08:31:56.000Z</time>
      </trkpt>
      <trkpt lat="49.863" lon="4.74797">
        <ele>170</ele>
        <time>2022-09-18T08:31:57.000Z</time>
      </trkpt>
      <trkpt lat="49.86298" lon="4.74792">
        <ele>170</ele>
        <time>2022-09-18T08:31:58.000Z</time>
      </trkpt>
      <trkpt lat="49.86298" lon="4.74785">
        <ele>170</ele>
        <time>2022-09-18T08:31:59.000Z</time>
      </trkpt>
      <trkpt lat="49.86298" lon="4.74779">
        <ele>170</ele>
        <time>2022-09-18T08:32:00.000Z</time>
      </trkpt>
      <trkpt lat="49.86298" lon="4.74779">
        <ele>170</ele>
        <time>2022-09-18T08:32:01.000Z</time>
      </trkpt>
      <trkpt lat="49.86298" lon="4.74772">
        <ele>170</ele>
        <time>2022-09-18T08:32:02.000Z</time>
      </trkpt>
      <trkpt lat="49.86299" lon="4.74758">
        <ele>170</ele>
        <time>2022-09-18T08:32:03.000Z</time>
      </trkpt>
      <trkpt lat="49.86298" lon="4.74751">
        <ele>170</ele>
        <time>2022-09-18T08:32:04.000Z</time>
      </trkpt>
      <trkpt lat="49.86298" lon="4.74751">
        <ele>170</ele>
        <time>2022-09-18T08:32:05.000Z</time>
      </trkpt>
      <trkpt lat="49.86297" lon="4.74744">
        <ele>170</ele>
        <time>2022-09-18T08:32:06.000Z</time>
      </trkpt>
      <trkpt lat="49.86295" lon="4.74738">
        <ele>170</ele>
        <time>2022-09-18T08:32:07.000Z</time>
      </trkpt>
      <trkpt lat="49.86292" lon="4.74732">
        <ele>170</ele>
        <time>2022-09-18T08:32:08.000Z</time>
      </trkpt>
      <trkpt lat="49.86284" lon="4.74723">
        <ele>170</ele>
        <time>2022-09-18T08:32:09.000Z</time>
      </trkpt>
      <trkpt lat="49.86279" lon="4.74719">
        <ele>170</ele>
        <time>2022-09-18T08:32:10.000Z</time>
      </trkpt>
      <trkpt lat="49.86274" lon="4.74717">
        <ele>170</ele>
        <time>2022-09-18T08:32:11.000Z</time>
      </trkpt>
      <trkpt lat="49.86274" lon="4.74717">
        <ele>170</ele>
        <time>2022-09-18T08:32:12.000Z</time>
      </trkpt>
      <trkpt lat="49.8627" lon="4.74715">
        <ele>170</ele>
        <time>2022-09-18T08:32:13.000Z</time>
      </trkpt>
      <trkpt lat="49.86263" lon="4.74708">
        <ele>170</ele>
        <time>2022-09-18T08:32:14.000Z</time>
      </trkpt>
      <trkpt lat="49.86263" lon="4.74708">
        <ele>170</ele>
        <time>2022-09-18T08:32:15.000Z</time>
      </trkpt>
      <trkpt lat="49.86259" lon="4.74703">
        <ele>170</ele>
        <time>2022-09-18T08:32:16.000Z</time>
      </trkpt>
      <trkpt lat="49.86253" lon="4.74692">
        <ele>170</ele>
        <time>2022-09-18T08:32:17.000Z</time>
      </trkpt>
      <trkpt lat="49.86253" lon="4.74692">
        <ele>170</ele>
        <time>2022-09-18T08:32:18.000Z</time>
      </trkpt>
      <trkpt lat="49.86248" lon="4.7468">
        <ele>170</ele>
        <time>2022-09-18T08:32:19.000Z</time>
      </trkpt>
      <trkpt lat="49.86248" lon="4.7468">
        <ele>170</ele>
        <time>2022-09-18T08:32:20.000Z</time>
      </trkpt>
      <trkpt lat="49.86242" lon="4.74667">
        <ele>169</ele>
        <time>2022-09-18T08:32:21.000Z</time>
      </trkpt>
      <trkpt lat="49.8624" lon="4.74661">
        <ele>169</ele>
        <time>2022-09-18T08:32:22.000Z</time>
      </trkpt>
      <trkpt lat="49.86237" lon="4.74654">
        <ele>169</ele>
        <time>2022-09-18T08:32:23.000Z</time>
      </trkpt>
      <trkpt lat="49.86234" lon="4.74648">
        <ele>169</ele>
        <time>2022-09-18T08:32:24.000Z</time>
      </trkpt>
      <trkpt lat="49.86231" lon="4.74641">
        <ele>169</ele>
        <time>2022-09-18T08:32:25.000Z</time>
      </trkpt>
      <trkpt lat="49.86229" lon="4.74635">
        <ele>169</ele>
        <time>2022-09-18T08:32:26.000Z</time>
      </trkpt>
      <trkpt lat="49.86229" lon="4.74635">
        <ele>169</ele>
        <time>2022-09-18T08:32:27.000Z</time>
      </trkpt>
      <trkpt lat="49.86226" lon="4.74629">
        <ele>169</ele>
        <time>2022-09-18T08:32:28.000Z</time>
      </trkpt>
      <trkpt lat="49.86221" lon="4.74617">
        <ele>169</ele>
        <time>2022-09-18T08:32:29.000Z</time>
      </trkpt>
      <trkpt lat="49.86221" lon="4.74617">
        <ele>169</ele>
        <time>2022-09-18T08:32:30.000Z</time>
      </trkpt>
      <trkpt lat="49.86219" lon="4.74612">
        <ele>169</ele>
        <time>2022-09-18T08:32:31.000Z</time>
      </trkpt>
      <trkpt lat="49.86216" lon="4.74606">
        <ele>169</ele>
        <time>2022-09-18T08:32:32.000Z</time>
      </trkpt>
      <trkpt lat="49.86207" lon="4.74598">
        <ele>168</ele>
        <time>2022-09-18T08:32:33.000Z</time>
      </trkpt>
      <trkpt lat="49.86202" lon="4.74594">
        <ele>168</ele>
        <time>2022-09-18T08:32:34.000Z</time>
      </trkpt>
      <trkpt lat="49.86196" lon="4.74589">
        <ele>167</ele>
        <time>2022-09-18T08:32:35.000Z</time>
      </trkpt>
      <trkpt lat="49.86196" lon="4.74589">
        <ele>167</ele>
        <time>2022-09-18T08:32:36.000Z</time>
      </trkpt>
      <trkpt lat="49.86183" lon="4.74582">
        <ele>166</ele>
        <time>2022-09-18T08:32:37.000Z</time>
      </trkpt>
      <trkpt lat="49.86183" lon="4.74582">
        <ele>166</ele>
        <time>2022-09-18T08:32:38.000Z</time>
      </trkpt>
      <trkpt lat="49.86169" lon="4.74573">
        <ele>165</ele>
        <time>2022-09-18T08:32:39.000Z</time>
      </trkpt>
      <trkpt lat="49.86162" lon="4.74569">
        <ele>164</ele>
        <time>2022-09-18T08:32:40.000Z</time>
      </trkpt>
      <trkpt lat="49.86162" lon="4.74569">
        <ele>164</ele>
        <time>2022-09-18T08:32:41.000Z</time>
      </trkpt>
      <trkpt lat="49.86155" lon="4.74566">
        <ele>163</ele>
        <time>2022-09-18T08:32:42.000Z</time>
      </trkpt>
      <trkpt lat="49.86143" lon="4.74558">
        <ele>161</ele>
        <time>2022-09-18T08:32:43.000Z</time>
      </trkpt>
      <trkpt lat="49.86136" lon="4.74554">
        <ele>160</ele>
        <time>2022-09-18T08:32:44.000Z</time>
      </trkpt>
      <trkpt lat="49.86136" lon="4.74554">
        <ele>160</ele>
        <time>2022-09-18T08:32:45.000Z</time>
      </trkpt>
      <trkpt lat="49.86122" lon="4.74546">
        <ele>158</ele>
        <time>2022-09-18T08:32:46.000Z</time>
      </trkpt>
      <trkpt lat="49.86115" lon="4.74543">
        <ele>157</ele>
        <time>2022-09-18T08:32:47.000Z</time>
      </trkpt>
      <trkpt lat="49.86109" lon="4.74539">
        <ele>156</ele>
        <time>2022-09-18T08:32:48.000Z</time>
      </trkpt>
      <trkpt lat="49.86103" lon="4.74535">
        <ele>155</ele>
        <time>2022-09-18T08:32:49.000Z</time>
      </trkpt>
      <trkpt lat="49.86097" lon="4.74531">
        <ele>154</ele>
        <time>2022-09-18T08:32:50.000Z</time>
      </trkpt>
      <trkpt lat="49.86092" lon="4.74526">
        <ele>153</ele>
        <time>2022-09-18T08:32:51.000Z</time>
      </trkpt>
      <trkpt lat="49.86087" lon="4.74523">
        <ele>152</ele>
        <time>2022-09-18T08:32:52.000Z</time>
      </trkpt>
      <trkpt lat="49.86083" lon="4.7452">
        <ele>152</ele>
        <time>2022-09-18T08:32:53.000Z</time>
      </trkpt>
      <trkpt lat="49.86079" lon="4.74518">
        <ele>151</ele>
        <time>2022-09-18T08:32:54.000Z</time>
      </trkpt>
      <trkpt lat="49.86075" lon="4.74516">
        <ele>150</ele>
        <time>2022-09-18T08:32:55.000Z</time>
      </trkpt>
      <trkpt lat="49.86072" lon="4.74515">
        <ele>149</ele>
        <time>2022-09-18T08:32:56.000Z</time>
      </trkpt>
      <trkpt lat="49.86068" lon="4.74513">
        <ele>149</ele>
        <time>2022-09-18T08:32:57.000Z</time>
      </trkpt>
      <trkpt lat="49.86065" lon="4.74508">
        <ele>149</ele>
        <time>2022-09-18T08:32:58.000Z</time>
      </trkpt>
      <trkpt lat="49.86062" lon="4.74502">
        <ele>148</ele>
        <time>2022-09-18T08:32:59.000Z</time>
      </trkpt>
      <trkpt lat="49.86058" lon="4.74496">
        <ele>148</ele>
        <time>2022-09-18T08:33:00.000Z</time>
      </trkpt>
      <trkpt lat="49.86055" lon="4.7449">
        <ele>148</ele>
        <time>2022-09-18T08:33:01.000Z</time>
      </trkpt>
      <trkpt lat="49.86051" lon="4.74483">
        <ele>148</ele>
        <time>2022-09-18T08:33:02.000Z</time>
      </trkpt>
      <trkpt lat="49.86047" lon="4.74477">
        <ele>147</ele>
        <time>2022-09-18T08:33:03.000Z</time>
      </trkpt>
      <trkpt lat="49.86044" lon="4.7447">
        <ele>147</ele>
        <time>2022-09-18T08:33:04.000Z</time>
      </trkpt>
      <trkpt lat="49.8604" lon="4.74463">
        <ele>147</ele>
        <time>2022-09-18T08:33:05.000Z</time>
      </trkpt>
      <trkpt lat="49.86036" lon="4.74457">
        <ele>147</ele>
        <time>2022-09-18T08:33:06.000Z</time>
      </trkpt>
      <trkpt lat="49.86032" lon="4.74451">
        <ele>147</ele>
        <time>2022-09-18T08:33:07.000Z</time>
      </trkpt>
      <trkpt lat="49.86028" lon="4.74444">
        <ele>146</ele>
        <time>2022-09-18T08:33:08.000Z</time>
      </trkpt>
      <trkpt lat="49.86024" lon="4.74438">
        <ele>146</ele>
        <time>2022-09-18T08:33:09.000Z</time>
      </trkpt>
      <trkpt lat="49.8602" lon="4.74431">
        <ele>146</ele>
        <time>2022-09-18T08:33:10.000Z</time>
      </trkpt>
      <trkpt lat="49.86016" lon="4.74425">
        <ele>146</ele>
        <time>2022-09-18T08:33:11.000Z</time>
      </trkpt>
      <trkpt lat="49.86012" lon="4.74419">
        <ele>145</ele>
        <time>2022-09-18T08:33:12.000Z</time>
      </trkpt>
      <trkpt lat="49.86008" lon="4.74412">
        <ele>145</ele>
        <time>2022-09-18T08:33:13.000Z</time>
      </trkpt>
      <trkpt lat="49.86003" lon="4.74406">
        <ele>145</ele>
        <time>2022-09-18T08:33:14.000Z</time>
      </trkpt>
      <trkpt lat="49.85999" lon="4.74399">
        <ele>145</ele>
        <time>2022-09-18T08:33:15.000Z</time>
      </trkpt>
      <trkpt lat="49.85995" lon="4.74393">
        <ele>144</ele>
        <time>2022-09-18T08:33:16.000Z</time>
      </trkpt>
      <trkpt lat="49.8599" lon="4.74387">
        <ele>144</ele>
        <time>2022-09-18T08:33:17.000Z</time>
      </trkpt>
      <trkpt lat="49.85986" lon="4.74381">
        <ele>144</ele>
        <time>2022-09-18T08:33:18.000Z</time>
      </trkpt>
      <trkpt lat="49.85982" lon="4.74375">
        <ele>143</ele>
        <time>2022-09-18T08:33:19.000Z</time>
      </trkpt>
      <trkpt lat="49.85977" lon="4.74369">
        <ele>143</ele>
        <time>2022-09-18T08:33:20.000Z</time>
      </trkpt>
      <trkpt lat="49.85973" lon="4.74363">
        <ele>143</ele>
        <time>2022-09-18T08:33:21.000Z</time>
      </trkpt>
      <trkpt lat="49.85969" lon="4.74357">
        <ele>142</ele>
        <time>2022-09-18T08:33:22.000Z</time>
      </trkpt>
      <trkpt lat="49.85965" lon="4.74351">
        <ele>142</ele>
        <time>2022-09-18T08:33:23.000Z</time>
      </trkpt>
      <trkpt lat="49.8596" lon="4.74344">
        <ele>142</ele>
        <time>2022-09-18T08:33:24.000Z</time>
      </trkpt>
      <trkpt lat="49.85956" lon="4.74338">
        <ele>142</ele>
        <time>2022-09-18T08:33:25.000Z</time>
      </trkpt>
      <trkpt lat="49.85952" lon="4.74332">
        <ele>141</ele>
        <time>2022-09-18T08:33:26.000Z</time>
      </trkpt>
      <trkpt lat="49.85947" lon="4.74326">
        <ele>141</ele>
        <time>2022-09-18T08:33:27.000Z</time>
      </trkpt>
      <trkpt lat="49.85943" lon="4.74319">
        <ele>141</ele>
        <time>2022-09-18T08:33:28.000Z</time>
      </trkpt>
      <trkpt lat="49.85938" lon="4.74313">
        <ele>141</ele>
        <time>2022-09-18T08:33:29.000Z</time>
      </trkpt>
      <trkpt lat="49.85934" lon="4.74307">
        <ele>140</ele>
        <time>2022-09-18T08:33:30.000Z</time>
      </trkpt>
      <trkpt lat="49.85929" lon="4.743">
        <ele>140</ele>
        <time>2022-09-18T08:33:31.000Z</time>
      </trkpt>
      <trkpt lat="49.85925" lon="4.74294">
        <ele>140</ele>
        <time>2022-09-18T08:33:32.000Z</time>
      </trkpt>
      <trkpt lat="49.8592" lon="4.74288">
        <ele>140</ele>
        <time>2022-09-18T08:33:33.000Z</time>
      </trkpt>
      <trkpt lat="49.85916" lon="4.74282">
        <ele>140</ele>
        <time>2022-09-18T08:33:34.000Z</time>
      </trkpt>
      <trkpt lat="49.85911" lon="4.74276">
        <ele>140</ele>
        <time>2022-09-18T08:33:35.000Z</time>
      </trkpt>
      <trkpt lat="49.85906" lon="4.7427">
        <ele>139</ele>
        <time>2022-09-18T08:33:36.000Z</time>
      </trkpt>
      <trkpt lat="49.85906" lon="4.7427">
        <ele>139</ele>
        <time>2022-09-18T08:33:37.000Z</time>
      </trkpt>
      <trkpt lat="49.85897" lon="4.74258">
        <ele>139</ele>
        <time>2022-09-18T08:33:38.000Z</time>
      </trkpt>
      <trkpt lat="49.85893" lon="4.74252">
        <ele>139</ele>
        <time>2022-09-18T08:33:39.000Z</time>
      </trkpt>
      <trkpt lat="49.85889" lon="4.74246">
        <ele>139</ele>
        <time>2022-09-18T08:33:40.000Z</time>
      </trkpt>
      <trkpt lat="49.85884" lon="4.74241">
        <ele>139</ele>
        <time>2022-09-18T08:33:41.000Z</time>
      </trkpt>
      <trkpt lat="49.8588" lon="4.74236">
        <ele>139</ele>
        <time>2022-09-18T08:33:42.000Z</time>
      </trkpt>
      <trkpt lat="49.85875" lon="4.74231">
        <ele>139</ele>
        <time>2022-09-18T08:33:43.000Z</time>
      </trkpt>
      <trkpt lat="49.85871" lon="4.74225">
        <ele>139</ele>
        <time>2022-09-18T08:33:44.000Z</time>
      </trkpt>
      <trkpt lat="49.85866" lon="4.7422">
        <ele>139</ele>
        <time>2022-09-18T08:33:45.000Z</time>
      </trkpt>
      <trkpt lat="49.85862" lon="4.74214">
        <ele>139</ele>
        <time>2022-09-18T08:33:46.000Z</time>
      </trkpt>
      <trkpt lat="49.85858" lon="4.74207">
        <ele>139</ele>
        <time>2022-09-18T08:33:47.000Z</time>
      </trkpt>
      <trkpt lat="49.85855" lon="4.74201">
        <ele>139</ele>
        <time>2022-09-18T08:33:48.000Z</time>
      </trkpt>
      <trkpt lat="49.85853" lon="4.74195">
        <ele>139</ele>
        <time>2022-09-18T08:33:49.000Z</time>
      </trkpt>
      <trkpt lat="49.85854" lon="4.7419">
        <ele>138</ele>
        <time>2022-09-18T08:33:50.000Z</time>
      </trkpt>
      <trkpt lat="49.85857" lon="4.74185">
        <ele>138</ele>
        <time>2022-09-18T08:33:51.000Z</time>
      </trkpt>
      <trkpt lat="49.85859" lon="4.74181">
        <ele>138</ele>
        <time>2022-09-18T08:33:52.000Z</time>
      </trkpt>
      <trkpt lat="49.85862" lon="4.74177">
        <ele>138</ele>
        <time>2022-09-18T08:33:53.000Z</time>
      </trkpt>
      <trkpt lat="49.85863" lon="4.74173">
        <ele>138</ele>
        <time>2022-09-18T08:33:54.000Z</time>
      </trkpt>
      <trkpt lat="49.85865" lon="4.74169">
        <ele>138</ele>
        <time>2022-09-18T08:33:55.000Z</time>
      </trkpt>
      <trkpt lat="49.85865" lon="4.74166">
        <ele>138</ele>
        <time>2022-09-18T08:33:56.000Z</time>
      </trkpt>
      <trkpt lat="49.85866" lon="4.74163">
        <ele>138</ele>
        <time>2022-09-18T08:33:57.000Z</time>
      </trkpt>
      <trkpt lat="49.85866" lon="4.7416">
        <ele>138</ele>
        <time>2022-09-18T08:33:58.000Z</time>
      </trkpt>
      <trkpt lat="49.85865" lon="4.74155">
        <ele>138</ele>
        <time>2022-09-18T08:33:59.000Z</time>
      </trkpt>
      <trkpt lat="49.85864" lon="4.7415">
        <ele>138</ele>
        <time>2022-09-18T08:34:00.000Z</time>
      </trkpt>
      <trkpt lat="49.85862" lon="4.74144">
        <ele>138</ele>
        <time>2022-09-18T08:34:01.000Z</time>
      </trkpt>
      <trkpt lat="49.85859" lon="4.74139">
        <ele>138</ele>
        <time>2022-09-18T08:34:02.000Z</time>
      </trkpt>
      <trkpt lat="49.85856" lon="4.74134">
        <ele>138</ele>
        <time>2022-09-18T08:34:03.000Z</time>
      </trkpt>
      <trkpt lat="49.85853" lon="4.7413">
        <ele>138</ele>
        <time>2022-09-18T08:34:04.000Z</time>
      </trkpt>
      <trkpt lat="49.85849" lon="4.74125">
        <ele>138</ele>
        <time>2022-09-18T08:34:05.000Z</time>
      </trkpt>
      <trkpt lat="49.85846" lon="4.7412">
        <ele>138</ele>
        <time>2022-09-18T08:34:06.000Z</time>
      </trkpt>
      <trkpt lat="49.85843" lon="4.74115">
        <ele>138</ele>
        <time>2022-09-18T08:34:07.000Z</time>
      </trkpt>
      <trkpt lat="49.8584" lon="4.7411">
        <ele>137</ele>
        <time>2022-09-18T08:34:08.000Z</time>
      </trkpt>
      <trkpt lat="49.85837" lon="4.74104">
        <ele>137</ele>
        <time>2022-09-18T08:34:09.000Z</time>
      </trkpt>
      <trkpt lat="49.85834" lon="4.74099">
        <ele>137</ele>
        <time>2022-09-18T08:34:10.000Z</time>
      </trkpt>
      <trkpt lat="49.85831" lon="4.74094">
        <ele>137</ele>
        <time>2022-09-18T08:34:11.000Z</time>
      </trkpt>
      <trkpt lat="49.85828" lon="4.74089">
        <ele>137</ele>
        <time>2022-09-18T08:34:12.000Z</time>
      </trkpt>
      <trkpt lat="49.85826" lon="4.74084">
        <ele>137</ele>
        <time>2022-09-18T08:34:13.000Z</time>
      </trkpt>
      <trkpt lat="49.85823" lon="4.74078">
        <ele>137</ele>
        <time>2022-09-18T08:34:14.000Z</time>
      </trkpt>
      <trkpt lat="49.8582" lon="4.74073">
        <ele>137</ele>
        <time>2022-09-18T08:34:15.000Z</time>
      </trkpt>
      <trkpt lat="49.85817" lon="4.74069">
        <ele>137</ele>
        <time>2022-09-18T08:34:16.000Z</time>
      </trkpt>
      <trkpt lat="49.85817" lon="4.74069">
        <ele>137</ele>
        <time>2022-09-18T08:34:17.000Z</time>
      </trkpt>
      <trkpt lat="49.85812" lon="4.74059">
        <ele>136</ele>
        <time>2022-09-18T08:34:18.000Z</time>
      </trkpt>
      <trkpt lat="49.85809" lon="4.74054">
        <ele>136</ele>
        <time>2022-09-18T08:34:19.000Z</time>
      </trkpt>
      <trkpt lat="49.85807" lon="4.7405">
        <ele>136</ele>
        <time>2022-09-18T08:34:20.000Z</time>
      </trkpt>
      <trkpt lat="49.85807" lon="4.7405">
        <ele>136</ele>
        <time>2022-09-18T08:34:21.000Z</time>
      </trkpt>
      <trkpt lat="49.85804" lon="4.74048">
        <ele>136</ele>
        <time>2022-09-18T08:34:22.000Z</time>
      </trkpt>
      <trkpt lat="49.85797" lon="4.74048">
        <ele>137</ele>
        <time>2022-09-18T08:34:23.000Z</time>
      </trkpt>
      <trkpt lat="49.85793" lon="4.74048">
        <ele>137</ele>
        <time>2022-09-18T08:34:24.000Z</time>
      </trkpt>
      <trkpt lat="49.85789" lon="4.74045">
        <ele>137</ele>
        <time>2022-09-18T08:34:25.000Z</time>
      </trkpt>
      <trkpt lat="49.85786" lon="4.74041">
        <ele>137</ele>
        <time>2022-09-18T08:34:26.000Z</time>
      </trkpt>
      <trkpt lat="49.85783" lon="4.74037">
        <ele>137</ele>
        <time>2022-09-18T08:34:27.000Z</time>
      </trkpt>
      <trkpt lat="49.8578" lon="4.74032">
        <ele>137</ele>
        <time>2022-09-18T08:34:28.000Z</time>
      </trkpt>
      <trkpt lat="49.85778" lon="4.74026">
        <ele>137</ele>
        <time>2022-09-18T08:34:29.000Z</time>
      </trkpt>
      <trkpt lat="49.85778" lon="4.74026">
        <ele>137</ele>
        <time>2022-09-18T08:34:30.000Z</time>
      </trkpt>
      <trkpt lat="49.85775" lon="4.7402">
        <ele>137</ele>
        <time>2022-09-18T08:34:31.000Z</time>
      </trkpt>
      <trkpt lat="49.85773" lon="4.74015">
        <ele>137</ele>
        <time>2022-09-18T08:34:32.000Z</time>
      </trkpt>
      <trkpt lat="49.85771" lon="4.74009">
        <ele>137</ele>
        <time>2022-09-18T08:34:33.000Z</time>
      </trkpt>
      <trkpt lat="49.85769" lon="4.74003">
        <ele>137</ele>
        <time>2022-09-18T08:34:34.000Z</time>
      </trkpt>
      <trkpt lat="49.85766" lon="4.73997">
        <ele>137</ele>
        <time>2022-09-18T08:34:35.000Z</time>
      </trkpt>
      <trkpt lat="49.85765" lon="4.73993">
        <ele>137</ele>
        <time>2022-09-18T08:34:36.000Z</time>
      </trkpt>
      <trkpt lat="49.85765" lon="4.73989">
        <ele>137</ele>
        <time>2022-09-18T08:34:37.000Z</time>
      </trkpt>
      <trkpt lat="49.85768" lon="4.73984">
        <ele>137</ele>
        <time>2022-09-18T08:34:38.000Z</time>
      </trkpt>
      <trkpt lat="49.8577" lon="4.73982">
        <ele>137</ele>
        <time>2022-09-18T08:34:39.000Z</time>
      </trkpt>
      <trkpt lat="49.8577" lon="4.73982">
        <ele>137</ele>
        <time>2022-09-18T08:34:40.000Z</time>
      </trkpt>
      <trkpt lat="49.85773" lon="4.73981">
        <ele>137</ele>
        <time>2022-09-18T08:34:41.000Z</time>
      </trkpt>
      <trkpt lat="49.85776" lon="4.73981">
        <ele>137</ele>
        <time>2022-09-18T08:34:42.000Z</time>
      </trkpt>
      <trkpt lat="49.85779" lon="4.7398">
        <ele>137</ele>
        <time>2022-09-18T08:34:43.000Z</time>
      </trkpt>
      <trkpt lat="49.85782" lon="4.7398">
        <ele>137</ele>
        <time>2022-09-18T08:34:44.000Z</time>
      </trkpt>
      <trkpt lat="49.85784" lon="4.7398">
        <ele>137</ele>
        <time>2022-09-18T08:34:45.000Z</time>
      </trkpt>
      <trkpt lat="49.85786" lon="4.73978">
        <ele>138</ele>
        <time>2022-09-18T08:34:46.000Z</time>
      </trkpt>
      <trkpt lat="49.85788" lon="4.73977">
        <ele>138</ele>
        <time>2022-09-18T08:34:47.000Z</time>
      </trkpt>
      <trkpt lat="49.8579" lon="4.73976">
        <ele>138</ele>
        <time>2022-09-18T08:34:48.000Z</time>
      </trkpt>
      <trkpt lat="49.85792" lon="4.73975">
        <ele>139</ele>
        <time>2022-09-18T08:34:49.000Z</time>
      </trkpt>
      <trkpt lat="49.85794" lon="4.73974">
        <ele>139</ele>
        <time>2022-09-18T08:34:50.000Z</time>
      </trkpt>
      <trkpt lat="49.85795" lon="4.73972">
        <ele>139</ele>
        <time>2022-09-18T08:34:51.000Z</time>
      </trkpt>
      <trkpt lat="49.85796" lon="4.7397">
        <ele>139</ele>
        <time>2022-09-18T08:34:52.000Z</time>
      </trkpt>
      <trkpt lat="49.85797" lon="4.73966">
        <ele>140</ele>
        <time>2022-09-18T08:34:53.000Z</time>
      </trkpt>
      <trkpt lat="49.85797" lon="4.73963">
        <ele>140</ele>
        <time>2022-09-18T08:34:54.000Z</time>
      </trkpt>
      <trkpt lat="49.85797" lon="4.73959">
        <ele>140</ele>
        <time>2022-09-18T08:34:55.000Z</time>
      </trkpt>
      <trkpt lat="49.85797" lon="4.73956">
        <ele>140</ele>
        <time>2022-09-18T08:34:56.000Z</time>
      </trkpt>
      <trkpt lat="49.85797" lon="4.73952">
        <ele>141</ele>
        <time>2022-09-18T08:34:57.000Z</time>
      </trkpt>
      <trkpt lat="49.85797" lon="4.73949">
        <ele>141</ele>
        <time>2022-09-18T08:34:58.000Z</time>
      </trkpt>
      <trkpt lat="49.85797" lon="4.73946">
        <ele>141</ele>
        <time>2022-09-18T08:34:59.000Z</time>
      </trkpt>
      <trkpt lat="49.85797" lon="4.73942">
        <ele>142</ele>
        <time>2022-09-18T08:35:00.000Z</time>
      </trkpt>
      <trkpt lat="49.85797" lon="4.73938">
        <ele>142</ele>
        <time>2022-09-18T08:35:01.000Z</time>
      </trkpt>
      <trkpt lat="49.85798" lon="4.73935">
        <ele>142</ele>
        <time>2022-09-18T08:35:02.000Z</time>
      </trkpt>
      <trkpt lat="49.85798" lon="4.73928">
        <ele>143</ele>
        <time>2022-09-18T08:35:03.000Z</time>
      </trkpt>
      <trkpt lat="49.85798" lon="4.73928">
        <ele>143</ele>
        <time>2022-09-18T08:35:04.000Z</time>
      </trkpt>
      <trkpt lat="49.85799" lon="4.73924">
        <ele>143</ele>
        <time>2022-09-18T08:35:05.000Z</time>
      </trkpt>
      <trkpt lat="49.858" lon="4.73921">
        <ele>143</ele>
        <time>2022-09-18T08:35:06.000Z</time>
      </trkpt>
      <trkpt lat="49.858" lon="4.73918">
        <ele>144</ele>
        <time>2022-09-18T08:35:07.000Z</time>
      </trkpt>
      <trkpt lat="49.85801" lon="4.73915">
        <ele>144</ele>
        <time>2022-09-18T08:35:08.000Z</time>
      </trkpt>
      <trkpt lat="49.85802" lon="4.73912">
        <ele>144</ele>
        <time>2022-09-18T08:35:09.000Z</time>
      </trkpt>
      <trkpt lat="49.85803" lon="4.73909">
        <ele>144</ele>
        <time>2022-09-18T08:35:10.000Z</time>
      </trkpt>
      <trkpt lat="49.85804" lon="4.73905">
        <ele>144</ele>
        <time>2022-09-18T08:35:11.000Z</time>
      </trkpt>
      <trkpt lat="49.85807" lon="4.73899">
        <ele>144</ele>
        <time>2022-09-18T08:35:12.000Z</time>
      </trkpt>
      <trkpt lat="49.85807" lon="4.73899">
        <ele>144</ele>
        <time>2022-09-18T08:35:13.000Z</time>
      </trkpt>
      <trkpt lat="49.8581" lon="4.73892">
        <ele>145</ele>
        <time>2022-09-18T08:35:14.000Z</time>
      </trkpt>
      <trkpt lat="49.85812" lon="4.73888">
        <ele>145</ele>
        <time>2022-09-18T08:35:15.000Z</time>
      </trkpt>
      <trkpt lat="49.85814" lon="4.73885">
        <ele>145</ele>
        <time>2022-09-18T08:35:16.000Z</time>
      </trkpt>
      <trkpt lat="49.85814" lon="4.73885">
        <ele>145</ele>
        <time>2022-09-18T08:35:17.000Z</time>
      </trkpt>
      <trkpt lat="49.85816" lon="4.73882">
        <ele>145</ele>
        <time>2022-09-18T08:35:18.000Z</time>
      </trkpt>
      <trkpt lat="49.85818" lon="4.7388">
        <ele>145</ele>
        <time>2022-09-18T08:35:19.000Z</time>
      </trkpt>
      <trkpt lat="49.8582" lon="4.73876">
        <ele>146</ele>
        <time>2022-09-18T08:35:20.000Z</time>
      </trkpt>
      <trkpt lat="49.85821" lon="4.73873">
        <ele>146</ele>
        <time>2022-09-18T08:35:21.000Z</time>
      </trkpt>
      <trkpt lat="49.85823" lon="4.73872">
        <ele>146</ele>
        <time>2022-09-18T08:35:22.000Z</time>
      </trkpt>
      <trkpt lat="49.85825" lon="4.7387">
        <ele>147</ele>
        <time>2022-09-18T08:35:23.000Z</time>
      </trkpt>
      <trkpt lat="49.85827" lon="4.73868">
        <ele>147</ele>
        <time>2022-09-18T08:35:24.000Z</time>
      </trkpt>
      <trkpt lat="49.85829" lon="4.73867">
        <ele>147</ele>
        <time>2022-09-18T08:35:25.000Z</time>
      </trkpt>
      <trkpt lat="49.85832" lon="4.73865">
        <ele>148</ele>
        <time>2022-09-18T08:35:26.000Z</time>
      </trkpt>
      <trkpt lat="49.85834" lon="4.73864">
        <ele>148</ele>
        <time>2022-09-18T08:35:27.000Z</time>
      </trkpt>
      <trkpt lat="49.85836" lon="4.73862">
        <ele>148</ele>
        <time>2022-09-18T08:35:28.000Z</time>
      </trkpt>
      <trkpt lat="49.85838" lon="4.7386">
        <ele>149</ele>
        <time>2022-09-18T08:35:29.000Z</time>
      </trkpt>
      <trkpt lat="49.85841" lon="4.73858">
        <ele>149</ele>
        <time>2022-09-18T08:35:30.000Z</time>
      </trkpt>
      <trkpt lat="49.85844" lon="4.73856">
        <ele>149</ele>
        <time>2022-09-18T08:35:31.000Z</time>
      </trkpt>
      <trkpt lat="49.85846" lon="4.73854">
        <ele>149</ele>
        <time>2022-09-18T08:35:32.000Z</time>
      </trkpt>
      <trkpt lat="49.85849" lon="4.73852">
        <ele>149</ele>
        <time>2022-09-18T08:35:33.000Z</time>
      </trkpt>
      <trkpt lat="49.85852" lon="4.73851">
        <ele>149</ele>
        <time>2022-09-18T08:35:34.000Z</time>
      </trkpt>
      <trkpt lat="49.85858" lon="4.73847">
        <ele>150</ele>
        <time>2022-09-18T08:35:35.000Z</time>
      </trkpt>
      <trkpt lat="49.85861" lon="4.73846">
        <ele>150</ele>
        <time>2022-09-18T08:35:36.000Z</time>
      </trkpt>
      <trkpt lat="49.85864" lon="4.73844">
        <ele>150</ele>
        <time>2022-09-18T08:35:37.000Z</time>
      </trkpt>
      <trkpt lat="49.85864" lon="4.73844">
        <ele>150</ele>
        <time>2022-09-18T08:35:38.000Z</time>
      </trkpt>
      <trkpt lat="49.8587" lon="4.73842">
        <ele>150</ele>
        <time>2022-09-18T08:35:39.000Z</time>
      </trkpt>
      <trkpt lat="49.85873" lon="4.73841">
        <ele>151</ele>
        <time>2022-09-18T08:35:40.000Z</time>
      </trkpt>
      <trkpt lat="49.85876" lon="4.7384">
        <ele>151</ele>
        <time>2022-09-18T08:35:41.000Z</time>
      </trkpt>
      <trkpt lat="49.8588" lon="4.7384">
        <ele>151</ele>
        <time>2022-09-18T08:35:42.000Z</time>
      </trkpt>
      <trkpt lat="49.8588" lon="4.7384">
        <ele>151</ele>
        <time>2022-09-18T08:35:43.000Z</time>
      </trkpt>
      <trkpt lat="49.85883" lon="4.73839">
        <ele>151</ele>
        <time>2022-09-18T08:35:44.000Z</time>
      </trkpt>
      <trkpt lat="49.85886" lon="4.73839">
        <ele>152</ele>
        <time>2022-09-18T08:35:45.000Z</time>
      </trkpt>
      <trkpt lat="49.85889" lon="4.73838">
        <ele>152</ele>
        <time>2022-09-18T08:35:46.000Z</time>
      </trkpt>
      <trkpt lat="49.85892" lon="4.73837">
        <ele>152</ele>
        <time>2022-09-18T08:35:47.000Z</time>
      </trkpt>
      <trkpt lat="49.85895" lon="4.73836">
        <ele>152</ele>
        <time>2022-09-18T08:35:48.000Z</time>
      </trkpt>
      <trkpt lat="49.85898" lon="4.73835">
        <ele>152</ele>
        <time>2022-09-18T08:35:49.000Z</time>
      </trkpt>
      <trkpt lat="49.85902" lon="4.73835">
        <ele>153</ele>
        <time>2022-09-18T08:35:50.000Z</time>
      </trkpt>
      <trkpt lat="49.85907" lon="4.73833">
        <ele>153</ele>
        <time>2022-09-18T08:35:51.000Z</time>
      </trkpt>
      <trkpt lat="49.8591" lon="4.73833">
        <ele>153</ele>
        <time>2022-09-18T08:35:52.000Z</time>
      </trkpt>
      <trkpt lat="49.85912" lon="4.73834">
        <ele>153</ele>
        <time>2022-09-18T08:35:53.000Z</time>
      </trkpt>
      <trkpt lat="49.85912" lon="4.73834">
        <ele>153</ele>
        <time>2022-09-18T08:35:54.000Z</time>
      </trkpt>
      <trkpt lat="49.85914" lon="4.73834">
        <ele>153</ele>
        <time>2022-09-18T08:35:55.000Z</time>
      </trkpt>
      <trkpt lat="49.85918" lon="4.73834">
        <ele>153</ele>
        <time>2022-09-18T08:35:56.000Z</time>
      </trkpt>
      <trkpt lat="49.85918" lon="4.73834">
        <ele>153</ele>
        <time>2022-09-18T08:35:57.000Z</time>
      </trkpt>
      <trkpt lat="49.8592" lon="4.73832">
        <ele>153</ele>
        <time>2022-09-18T08:35:58.000Z</time>
      </trkpt>
      <trkpt lat="49.85923" lon="4.7383">
        <ele>153</ele>
        <time>2022-09-18T08:35:59.000Z</time>
      </trkpt>
      <trkpt lat="49.85926" lon="4.73828">
        <ele>153</ele>
        <time>2022-09-18T08:36:00.000Z</time>
      </trkpt>
      <trkpt lat="49.85929" lon="4.73826">
        <ele>153</ele>
        <time>2022-09-18T08:36:01.000Z</time>
      </trkpt>
      <trkpt lat="49.85933" lon="4.73825">
        <ele>153</ele>
        <time>2022-09-18T08:36:02.000Z</time>
      </trkpt>
      <trkpt lat="49.85939" lon="4.73823">
        <ele>154</ele>
        <time>2022-09-18T08:36:03.000Z</time>
      </trkpt>
      <trkpt lat="49.85942" lon="4.73821">
        <ele>154</ele>
        <time>2022-09-18T08:36:04.000Z</time>
      </trkpt>
      <trkpt lat="49.85945" lon="4.73821">
        <ele>154</ele>
        <time>2022-09-18T08:36:05.000Z</time>
      </trkpt>
      <trkpt lat="49.85949" lon="4.7382">
        <ele>154</ele>
        <time>2022-09-18T08:36:06.000Z</time>
      </trkpt>
      <trkpt lat="49.85949" lon="4.7382">
        <ele>154</ele>
        <time>2022-09-18T08:36:07.000Z</time>
      </trkpt>
      <trkpt lat="49.85952" lon="4.73819">
        <ele>154</ele>
        <time>2022-09-18T08:36:08.000Z</time>
      </trkpt>
      <trkpt lat="49.85959" lon="4.73823">
        <ele>155</ele>
        <time>2022-09-18T08:36:09.000Z</time>
      </trkpt>
      <trkpt lat="49.85961" lon="4.73826">
        <ele>155</ele>
        <time>2022-09-18T08:36:10.000Z</time>
      </trkpt>
      <trkpt lat="49.85962" lon="4.7383">
        <ele>155</ele>
        <time>2022-09-18T08:36:11.000Z</time>
      </trkpt>
      <trkpt lat="49.85962" lon="4.7383">
        <ele>155</ele>
        <time>2022-09-18T08:36:12.000Z</time>
      </trkpt>
      <trkpt lat="49.85963" lon="4.73833">
        <ele>155</ele>
        <time>2022-09-18T08:36:13.000Z</time>
      </trkpt>
      <trkpt lat="49.85964" lon="4.73837">
        <ele>155</ele>
        <time>2022-09-18T08:36:14.000Z</time>
      </trkpt>
      <trkpt lat="49.85965" lon="4.7384">
        <ele>156</ele>
        <time>2022-09-18T08:36:15.000Z</time>
      </trkpt>
      <trkpt lat="49.85966" lon="4.73844">
        <ele>156</ele>
        <time>2022-09-18T08:36:16.000Z</time>
      </trkpt>
      <trkpt lat="49.85967" lon="4.73848">
        <ele>156</ele>
        <time>2022-09-18T08:36:17.000Z</time>
      </trkpt>
      <trkpt lat="49.85968" lon="4.73852">
        <ele>156</ele>
        <time>2022-09-18T08:36:18.000Z</time>
      </trkpt>
      <trkpt lat="49.85969" lon="4.73855">
        <ele>157</ele>
        <time>2022-09-18T08:36:19.000Z</time>
      </trkpt>
      <trkpt lat="49.8597" lon="4.73858">
        <ele>157</ele>
        <time>2022-09-18T08:36:20.000Z</time>
      </trkpt>
      <trkpt lat="49.8597" lon="4.73858">
        <ele>157</ele>
        <time>2022-09-18T08:36:21.000Z</time>
      </trkpt>
      <trkpt lat="49.85971" lon="4.73863">
        <ele>157</ele>
        <time>2022-09-18T08:36:22.000Z</time>
      </trkpt>
      <trkpt lat="49.85971" lon="4.73863">
        <ele>157</ele>
        <time>2022-09-18T08:36:23.000Z</time>
      </trkpt>
      <trkpt lat="49.85973" lon="4.73869">
        <ele>158</ele>
        <time>2022-09-18T08:36:24.000Z</time>
      </trkpt>
      <trkpt lat="49.85974" lon="4.73871">
        <ele>158</ele>
        <time>2022-09-18T08:36:25.000Z</time>
      </trkpt>
      <trkpt lat="49.85975" lon="4.73874">
        <ele>158</ele>
        <time>2022-09-18T08:36:26.000Z</time>
      </trkpt>
      <trkpt lat="49.85975" lon="4.73874">
        <ele>158</ele>
        <time>2022-09-18T08:36:27.000Z</time>
      </trkpt>
      <trkpt lat="49.85976" lon="4.73876">
        <ele>159</ele>
        <time>2022-09-18T08:36:28.000Z</time>
      </trkpt>
      <trkpt lat="49.85977" lon="4.73881">
        <ele>159</ele>
        <time>2022-09-18T08:36:29.000Z</time>
      </trkpt>
      <trkpt lat="49.85977" lon="4.73881">
        <ele>159</ele>
        <time>2022-09-18T08:36:30.000Z</time>
      </trkpt>
      <trkpt lat="49.85978" lon="4.73885">
        <ele>160</ele>
        <time>2022-09-18T08:36:31.000Z</time>
      </trkpt>
      <trkpt lat="49.8598" lon="4.73887">
        <ele>160</ele>
        <time>2022-09-18T08:36:32.000Z</time>
      </trkpt>
      <trkpt lat="49.8598" lon="4.73887">
        <ele>160</ele>
        <time>2022-09-18T08:36:33.000Z</time>
      </trkpt>
      <trkpt lat="49.85981" lon="4.7389">
        <ele>160</ele>
        <time>2022-09-18T08:36:34.000Z</time>
      </trkpt>
      <trkpt lat="49.85982" lon="4.73892">
        <ele>161</ele>
        <time>2022-09-18T08:36:35.000Z</time>
      </trkpt>
      <trkpt lat="49.85985" lon="4.73896">
        <ele>161</ele>
        <time>2022-09-18T08:36:36.000Z</time>
      </trkpt>
      <trkpt lat="49.85985" lon="4.73896">
        <ele>161</ele>
        <time>2022-09-18T08:36:37.000Z</time>
      </trkpt>
      <trkpt lat="49.85988" lon="4.739">
        <ele>162</ele>
        <time>2022-09-18T08:36:38.000Z</time>
      </trkpt>
      <trkpt lat="49.85988" lon="4.739">
        <ele>162</ele>
        <time>2022-09-18T08:36:39.000Z</time>
      </trkpt>
      <trkpt lat="49.8599" lon="4.73902">
        <ele>162</ele>
        <time>2022-09-18T08:36:40.000Z</time>
      </trkpt>
      <trkpt lat="49.85992" lon="4.73905">
        <ele>163</ele>
        <time>2022-09-18T08:36:41.000Z</time>
      </trkpt>
      <trkpt lat="49.85993" lon="4.73907">
        <ele>163</ele>
        <time>2022-09-18T08:36:42.000Z</time>
      </trkpt>
      <trkpt lat="49.85995" lon="4.73909">
        <ele>163</ele>
        <time>2022-09-18T08:36:43.000Z</time>
      </trkpt>
      <trkpt lat="49.85996" lon="4.73912">
        <ele>164</ele>
        <time>2022-09-18T08:36:44.000Z</time>
      </trkpt>
      <trkpt lat="49.85997" lon="4.73914">
        <ele>164</ele>
        <time>2022-09-18T08:36:45.000Z</time>
      </trkpt>
      <trkpt lat="49.85998" lon="4.73916">
        <ele>164</ele>
        <time>2022-09-18T08:36:46.000Z</time>
      </trkpt>
      <trkpt lat="49.85998" lon="4.73919">
        <ele>165</ele>
        <time>2022-09-18T08:36:47.000Z</time>
      </trkpt>
      <trkpt lat="49.85999" lon="4.73921">
        <ele>165</ele>
        <time>2022-09-18T08:36:48.000Z</time>
      </trkpt>
      <trkpt lat="49.86" lon="4.73923">
        <ele>165</ele>
        <time>2022-09-18T08:36:49.000Z</time>
      </trkpt>
      <trkpt lat="49.86001" lon="4.73925">
        <ele>166</ele>
        <time>2022-09-18T08:36:50.000Z</time>
      </trkpt>
      <trkpt lat="49.86002" lon="4.73927">
        <ele>166</ele>
        <time>2022-09-18T08:36:51.000Z</time>
      </trkpt>
      <trkpt lat="49.86003" lon="4.73928">
        <ele>166</ele>
        <time>2022-09-18T08:36:52.000Z</time>
      </trkpt>
      <trkpt lat="49.86004" lon="4.7393">
        <ele>167</ele>
        <time>2022-09-18T08:36:53.000Z</time>
      </trkpt>
      <trkpt lat="49.86004" lon="4.7393">
        <ele>167</ele>
        <time>2022-09-18T08:36:54.000Z</time>
      </trkpt>
      <trkpt lat="49.86006" lon="4.73932">
        <ele>167</ele>
        <time>2022-09-18T08:36:55.000Z</time>
      </trkpt>
      <trkpt lat="49.86007" lon="4.73934">
        <ele>168</ele>
        <time>2022-09-18T08:36:56.000Z</time>
      </trkpt>
      <trkpt lat="49.86009" lon="4.73938">
        <ele>169</ele>
        <time>2022-09-18T08:36:57.000Z</time>
      </trkpt>
      <trkpt lat="49.86011" lon="4.7394">
        <ele>169</ele>
        <time>2022-09-18T08:36:58.000Z</time>
      </trkpt>
      <trkpt lat="49.86012" lon="4.73942">
        <ele>170</ele>
        <time>2022-09-18T08:36:59.000Z</time>
      </trkpt>
      <trkpt lat="49.86013" lon="4.73944">
        <ele>170</ele>
        <time>2022-09-18T08:37:00.000Z</time>
      </trkpt>
      <trkpt lat="49.86014" lon="4.73947">
        <ele>171</ele>
        <time>2022-09-18T08:37:01.000Z</time>
      </trkpt>
      <trkpt lat="49.86015" lon="4.73949">
        <ele>171</ele>
        <time>2022-09-18T08:37:02.000Z</time>
      </trkpt>
      <trkpt lat="49.86016" lon="4.73951">
        <ele>172</ele>
        <time>2022-09-18T08:37:03.000Z</time>
      </trkpt>
      <trkpt lat="49.86016" lon="4.73951">
        <ele>172</ele>
        <time>2022-09-18T08:37:04.000Z</time>
      </trkpt>
      <trkpt lat="49.86019" lon="4.73955">
        <ele>173</ele>
        <time>2022-09-18T08:37:05.000Z</time>
      </trkpt>
      <trkpt lat="49.8602" lon="4.73956">
        <ele>173</ele>
        <time>2022-09-18T08:37:06.000Z</time>
      </trkpt>
      <trkpt lat="49.8602" lon="4.73956">
        <ele>173</ele>
        <time>2022-09-18T08:37:07.000Z</time>
      </trkpt>
      <trkpt lat="49.86024" lon="4.73957">
        <ele>174</ele>
        <time>2022-09-18T08:37:08.000Z</time>
      </trkpt>
      <trkpt lat="49.86026" lon="4.73956">
        <ele>174</ele>
        <time>2022-09-18T08:37:09.000Z</time>
      </trkpt>
      <trkpt lat="49.86026" lon="4.73956">
        <ele>174</ele>
        <time>2022-09-18T08:37:10.000Z</time>
      </trkpt>
      <trkpt lat="49.8603" lon="4.73956">
        <ele>175</ele>
        <time>2022-09-18T08:37:11.000Z</time>
      </trkpt>
      <trkpt lat="49.8603" lon="4.73956">
        <ele>175</ele>
        <time>2022-09-18T08:37:12.000Z</time>
      </trkpt>
      <trkpt lat="49.86032" lon="4.73957">
        <ele>175</ele>
        <time>2022-09-18T08:37:13.000Z</time>
      </trkpt>
      <trkpt lat="49.86036" lon="4.73961">
        <ele>176</ele>
        <time>2022-09-18T08:37:14.000Z</time>
      </trkpt>
      <trkpt lat="49.86037" lon="4.73963">
        <ele>176</ele>
        <time>2022-09-18T08:37:15.000Z</time>
      </trkpt>
      <trkpt lat="49.86037" lon="4.73963">
        <ele>176</ele>
        <time>2022-09-18T08:37:16.000Z</time>
      </trkpt>
      <trkpt lat="49.86039" lon="4.73965">
        <ele>176</ele>
        <time>2022-09-18T08:37:17.000Z</time>
      </trkpt>
      <trkpt lat="49.86041" lon="4.73967">
        <ele>177</ele>
        <time>2022-09-18T08:37:18.000Z</time>
      </trkpt>
      <trkpt lat="49.86043" lon="4.73968">
        <ele>177</ele>
        <time>2022-09-18T08:37:19.000Z</time>
      </trkpt>
      <trkpt lat="49.86044" lon="4.7397">
        <ele>177</ele>
        <time>2022-09-18T08:37:20.000Z</time>
      </trkpt>
      <trkpt lat="49.86045" lon="4.73972">
        <ele>177</ele>
        <time>2022-09-18T08:37:21.000Z</time>
      </trkpt>
      <trkpt lat="49.86044" lon="4.73975">
        <ele>177</ele>
        <time>2022-09-18T08:37:22.000Z</time>
      </trkpt>
      <trkpt lat="49.86042" lon="4.73976">
        <ele>178</ele>
        <time>2022-09-18T08:37:23.000Z</time>
      </trkpt>
      <trkpt lat="49.8604" lon="4.73978">
        <ele>178</ele>
        <time>2022-09-18T08:37:24.000Z</time>
      </trkpt>
      <trkpt lat="49.86038" lon="4.73979">
        <ele>178</ele>
        <time>2022-09-18T08:37:25.000Z</time>
      </trkpt>
      <trkpt lat="49.86037" lon="4.7398">
        <ele>178</ele>
        <time>2022-09-18T08:37:26.000Z</time>
      </trkpt>
      <trkpt lat="49.86034" lon="4.73981">
        <ele>178</ele>
        <time>2022-09-18T08:37:27.000Z</time>
      </trkpt>
      <trkpt lat="49.86034" lon="4.73981">
        <ele>178</ele>
        <time>2022-09-18T08:37:28.000Z</time>
      </trkpt>
      <trkpt lat="49.86034" lon="4.73978">
        <ele>178</ele>
        <time>2022-09-18T08:37:29.000Z</time>
      </trkpt>
      <trkpt lat="49.86035" lon="4.73977">
        <ele>178</ele>
        <time>2022-09-18T08:37:30.000Z</time>
      </trkpt>
      <trkpt lat="49.86036" lon="4.73977">
        <ele>179</ele>
        <time>2022-09-18T08:37:31.000Z</time>
      </trkpt>
      <trkpt lat="49.86038" lon="4.73978">
        <ele>179</ele>
        <time>2022-09-18T08:37:32.000Z</time>
      </trkpt>
      <trkpt lat="49.86039" lon="4.73981">
        <ele>179</ele>
        <time>2022-09-18T08:37:33.000Z</time>
      </trkpt>
      <trkpt lat="49.8604" lon="4.73984">
        <ele>179</ele>
        <time>2022-09-18T08:37:34.000Z</time>
      </trkpt>
      <trkpt lat="49.8604" lon="4.73986">
        <ele>179</ele>
        <time>2022-09-18T08:37:35.000Z</time>
      </trkpt>
      <trkpt lat="49.8604" lon="4.73988">
        <ele>179</ele>
        <time>2022-09-18T08:37:36.000Z</time>
      </trkpt>
      <trkpt lat="49.86039" lon="4.73991">
        <ele>180</ele>
        <time>2022-09-18T08:37:37.000Z</time>
      </trkpt>
      <trkpt lat="49.86038" lon="4.73993">
        <ele>180</ele>
        <time>2022-09-18T08:37:38.000Z</time>
      </trkpt>
      <trkpt lat="49.86038" lon="4.73997">
        <ele>180</ele>
        <time>2022-09-18T08:37:39.000Z</time>
      </trkpt>
      <trkpt lat="49.86038" lon="4.73997">
        <ele>180</ele>
        <time>2022-09-18T08:37:40.000Z</time>
      </trkpt>
      <trkpt lat="49.86041" lon="4.73998">
        <ele>181</ele>
        <time>2022-09-18T08:37:41.000Z</time>
      </trkpt>
      <trkpt lat="49.86043" lon="4.73998">
        <ele>181</ele>
        <time>2022-09-18T08:37:42.000Z</time>
      </trkpt>
      <trkpt lat="49.86043" lon="4.73998">
        <ele>181</ele>
        <time>2022-09-18T08:37:43.000Z</time>
      </trkpt>
      <trkpt lat="49.86044" lon="4.73998">
        <ele>181</ele>
        <time>2022-09-18T08:37:44.000Z</time>
      </trkpt>
      <trkpt lat="49.86046" lon="4.73998">
        <ele>182</ele>
        <time>2022-09-18T08:37:45.000Z</time>
      </trkpt>
      <trkpt lat="49.86048" lon="4.73997">
        <ele>182</ele>
        <time>2022-09-18T08:37:46.000Z</time>
      </trkpt>
      <trkpt lat="49.8605" lon="4.73997">
        <ele>182</ele>
        <time>2022-09-18T08:37:47.000Z</time>
      </trkpt>
      <trkpt lat="49.86052" lon="4.73997">
        <ele>183</ele>
        <time>2022-09-18T08:37:48.000Z</time>
      </trkpt>
      <trkpt lat="49.86054" lon="4.73996">
        <ele>183</ele>
        <time>2022-09-18T08:37:49.000Z</time>
      </trkpt>
      <trkpt lat="49.86056" lon="4.73995">
        <ele>183</ele>
        <time>2022-09-18T08:37:50.000Z</time>
      </trkpt>
      <trkpt lat="49.86058" lon="4.73993">
        <ele>183</ele>
        <time>2022-09-18T08:37:51.000Z</time>
      </trkpt>
      <trkpt lat="49.86061" lon="4.73991">
        <ele>183</ele>
        <time>2022-09-18T08:37:52.000Z</time>
      </trkpt>
      <trkpt lat="49.86065" lon="4.73986">
        <ele>183</ele>
        <time>2022-09-18T08:37:53.000Z</time>
      </trkpt>
      <trkpt lat="49.86065" lon="4.73986">
        <ele>183</ele>
        <time>2022-09-18T08:37:54.000Z</time>
      </trkpt>
      <trkpt lat="49.86067" lon="4.73983">
        <ele>183</ele>
        <time>2022-09-18T08:37:55.000Z</time>
      </trkpt>
      <trkpt lat="49.86069" lon="4.7398">
        <ele>184</ele>
        <time>2022-09-18T08:37:56.000Z</time>
      </trkpt>
      <trkpt lat="49.86071" lon="4.73976">
        <ele>184</ele>
        <time>2022-09-18T08:37:57.000Z</time>
      </trkpt>
      <trkpt lat="49.86074" lon="4.73973">
        <ele>184</ele>
        <time>2022-09-18T08:37:58.000Z</time>
      </trkpt>
      <trkpt lat="49.86076" lon="4.7397">
        <ele>184</ele>
        <time>2022-09-18T08:37:59.000Z</time>
      </trkpt>
      <trkpt lat="49.86079" lon="4.73967">
        <ele>184</ele>
        <time>2022-09-18T08:38:00.000Z</time>
      </trkpt>
      <trkpt lat="49.86084" lon="4.73965">
        <ele>184</ele>
        <time>2022-09-18T08:38:01.000Z</time>
      </trkpt>
      <trkpt lat="49.86088" lon="4.73964">
        <ele>184</ele>
        <time>2022-09-18T08:38:02.000Z</time>
      </trkpt>
      <trkpt lat="49.86092" lon="4.73963">
        <ele>184</ele>
        <time>2022-09-18T08:38:03.000Z</time>
      </trkpt>
      <trkpt lat="49.86095" lon="4.73963">
        <ele>184</ele>
        <time>2022-09-18T08:38:04.000Z</time>
      </trkpt>
      <trkpt lat="49.86097" lon="4.73964">
        <ele>184</ele>
        <time>2022-09-18T08:38:05.000Z</time>
      </trkpt>
      <trkpt lat="49.86099" lon="4.73965">
        <ele>184</ele>
        <time>2022-09-18T08:38:06.000Z</time>
      </trkpt>
      <trkpt lat="49.86101" lon="4.73966">
        <ele>184</ele>
        <time>2022-09-18T08:38:07.000Z</time>
      </trkpt>
      <trkpt lat="49.86103" lon="4.73968">
        <ele>184</ele>
        <time>2022-09-18T08:38:08.000Z</time>
      </trkpt>
      <trkpt lat="49.86105" lon="4.7397">
        <ele>184</ele>
        <time>2022-09-18T08:38:09.000Z</time>
      </trkpt>
      <trkpt lat="49.86106" lon="4.73972">
        <ele>184</ele>
        <time>2022-09-18T08:38:10.000Z</time>
      </trkpt>
      <trkpt lat="49.86108" lon="4.73974">
        <ele>185</ele>
        <time>2022-09-18T08:38:11.000Z</time>
      </trkpt>
      <trkpt lat="49.8611" lon="4.73976">
        <ele>185</ele>
        <time>2022-09-18T08:38:12.000Z</time>
      </trkpt>
      <trkpt lat="49.86111" lon="4.73978">
        <ele>185</ele>
        <time>2022-09-18T08:38:13.000Z</time>
      </trkpt>
      <trkpt lat="49.86112" lon="4.7398">
        <ele>185</ele>
        <time>2022-09-18T08:38:14.000Z</time>
      </trkpt>
      <trkpt lat="49.86114" lon="4.73982">
        <ele>185</ele>
        <time>2022-09-18T08:38:15.000Z</time>
      </trkpt>
      <trkpt lat="49.86116" lon="4.73984">
        <ele>185</ele>
        <time>2022-09-18T08:38:16.000Z</time>
      </trkpt>
      <trkpt lat="49.86118" lon="4.73986">
        <ele>186</ele>
        <time>2022-09-18T08:38:17.000Z</time>
      </trkpt>
      <trkpt lat="49.8612" lon="4.73988">
        <ele>186</ele>
        <time>2022-09-18T08:38:18.000Z</time>
      </trkpt>
      <trkpt lat="49.86122" lon="4.73989">
        <ele>186</ele>
        <time>2022-09-18T08:38:19.000Z</time>
      </trkpt>
      <trkpt lat="49.86125" lon="4.73991">
        <ele>186</ele>
        <time>2022-09-18T08:38:20.000Z</time>
      </trkpt>
      <trkpt lat="49.86127" lon="4.73993">
        <ele>187</ele>
        <time>2022-09-18T08:38:21.000Z</time>
      </trkpt>
      <trkpt lat="49.86129" lon="4.73995">
        <ele>187</ele>
        <time>2022-09-18T08:38:22.000Z</time>
      </trkpt>
      <trkpt lat="49.86131" lon="4.73997">
        <ele>187</ele>
        <time>2022-09-18T08:38:23.000Z</time>
      </trkpt>
      <trkpt lat="49.86133" lon="4.73998">
        <ele>188</ele>
        <time>2022-09-18T08:38:24.000Z</time>
      </trkpt>
      <trkpt lat="49.86135" lon="4.74">
        <ele>188</ele>
        <time>2022-09-18T08:38:25.000Z</time>
      </trkpt>
      <trkpt lat="49.86137" lon="4.74001">
        <ele>188</ele>
        <time>2022-09-18T08:38:26.000Z</time>
      </trkpt>
      <trkpt lat="49.86139" lon="4.74003">
        <ele>188</ele>
        <time>2022-09-18T08:38:27.000Z</time>
      </trkpt>
      <trkpt lat="49.86141" lon="4.74005">
        <ele>189</ele>
        <time>2022-09-18T08:38:28.000Z</time>
      </trkpt>
      <trkpt lat="49.86142" lon="4.74007">
        <ele>189</ele>
        <time>2022-09-18T08:38:29.000Z</time>
      </trkpt>
      <trkpt lat="49.86144" lon="4.74009">
        <ele>189</ele>
        <time>2022-09-18T08:38:30.000Z</time>
      </trkpt>
      <trkpt lat="49.86146" lon="4.7401">
        <ele>190</ele>
        <time>2022-09-18T08:38:31.000Z</time>
      </trkpt>
      <trkpt lat="49.86148" lon="4.74012">
        <ele>190</ele>
        <time>2022-09-18T08:38:32.000Z</time>
      </trkpt>
      <trkpt lat="49.86149" lon="4.74014">
        <ele>190</ele>
        <time>2022-09-18T08:38:33.000Z</time>
      </trkpt>
      <trkpt lat="49.86151" lon="4.74016">
        <ele>191</ele>
        <time>2022-09-18T08:38:34.000Z</time>
      </trkpt>
      <trkpt lat="49.86153" lon="4.74018">
        <ele>191</ele>
        <time>2022-09-18T08:38:35.000Z</time>
      </trkpt>
      <trkpt lat="49.86154" lon="4.7402">
        <ele>192</ele>
        <time>2022-09-18T08:38:36.000Z</time>
      </trkpt>
      <trkpt lat="49.86156" lon="4.74022">
        <ele>192</ele>
        <time>2022-09-18T08:38:37.000Z</time>
      </trkpt>
      <trkpt lat="49.86158" lon="4.74023">
        <ele>193</ele>
        <time>2022-09-18T08:38:38.000Z</time>
      </trkpt>
      <trkpt lat="49.8616" lon="4.74025">
        <ele>193</ele>
        <time>2022-09-18T08:38:39.000Z</time>
      </trkpt>
      <trkpt lat="49.86161" lon="4.74027">
        <ele>194</ele>
        <time>2022-09-18T08:38:40.000Z</time>
      </trkpt>
      <trkpt lat="49.86163" lon="4.74029">
        <ele>194</ele>
        <time>2022-09-18T08:38:41.000Z</time>
      </trkpt>
      <trkpt lat="49.86165" lon="4.74031">
        <ele>194</ele>
        <time>2022-09-18T08:38:42.000Z</time>
      </trkpt>
      <trkpt lat="49.86168" lon="4.74033">
        <ele>195</ele>
        <time>2022-09-18T08:38:43.000Z</time>
      </trkpt>
      <trkpt lat="49.8617" lon="4.74034">
        <ele>195</ele>
        <time>2022-09-18T08:38:44.000Z</time>
      </trkpt>
      <trkpt lat="49.86172" lon="4.74036">
        <ele>196</ele>
        <time>2022-09-18T08:38:45.000Z</time>
      </trkpt>
      <trkpt lat="49.86174" lon="4.74038">
        <ele>196</ele>
        <time>2022-09-18T08:38:46.000Z</time>
      </trkpt>
      <trkpt lat="49.86176" lon="4.74039">
        <ele>196</ele>
        <time>2022-09-18T08:38:47.000Z</time>
      </trkpt>
      <trkpt lat="49.86177" lon="4.7404">
        <ele>197</ele>
        <time>2022-09-18T08:38:48.000Z</time>
      </trkpt>
      <trkpt lat="49.86179" lon="4.74042">
        <ele>197</ele>
        <time>2022-09-18T08:38:49.000Z</time>
      </trkpt>
      <trkpt lat="49.86181" lon="4.74044">
        <ele>198</ele>
        <time>2022-09-18T08:38:50.000Z</time>
      </trkpt>
      <trkpt lat="49.86183" lon="4.74045">
        <ele>198</ele>
        <time>2022-09-18T08:38:51.000Z</time>
      </trkpt>
      <trkpt lat="49.86184" lon="4.74047">
        <ele>198</ele>
        <time>2022-09-18T08:38:52.000Z</time>
      </trkpt>
      <trkpt lat="49.86186" lon="4.74049">
        <ele>199</ele>
        <time>2022-09-18T08:38:53.000Z</time>
      </trkpt>
      <trkpt lat="49.86188" lon="4.74049">
        <ele>199</ele>
        <time>2022-09-18T08:38:54.000Z</time>
      </trkpt>
      <trkpt lat="49.86191" lon="4.74049">
        <ele>199</ele>
        <time>2022-09-18T08:38:55.000Z</time>
      </trkpt>
      <trkpt lat="49.86193" lon="4.74049">
        <ele>199</ele>
        <time>2022-09-18T08:38:56.000Z</time>
      </trkpt>
      <trkpt lat="49.86195" lon="4.74049">
        <ele>199</ele>
        <time>2022-09-18T08:38:57.000Z</time>
      </trkpt>
      <trkpt lat="49.86198" lon="4.74049">
        <ele>200</ele>
        <time>2022-09-18T08:38:58.000Z</time>
      </trkpt>
      <trkpt lat="49.862" lon="4.7405">
        <ele>200</ele>
        <time>2022-09-18T08:38:59.000Z</time>
      </trkpt>
      <trkpt lat="49.86202" lon="4.7405">
        <ele>200</ele>
        <time>2022-09-18T08:39:00.000Z</time>
      </trkpt>
      <trkpt lat="49.86205" lon="4.7405">
        <ele>200</ele>
        <time>2022-09-18T08:39:01.000Z</time>
      </trkpt>
      <trkpt lat="49.86207" lon="4.74049">
        <ele>200</ele>
        <time>2022-09-18T08:39:02.000Z</time>
      </trkpt>
      <trkpt lat="49.8621" lon="4.74048">
        <ele>200</ele>
        <time>2022-09-18T08:39:03.000Z</time>
      </trkpt>
      <trkpt lat="49.86212" lon="4.74048">
        <ele>200</ele>
        <time>2022-09-18T08:39:04.000Z</time>
      </trkpt>
      <trkpt lat="49.86214" lon="4.74048">
        <ele>200</ele>
        <time>2022-09-18T08:39:05.000Z</time>
      </trkpt>
      <trkpt lat="49.86216" lon="4.74048">
        <ele>200</ele>
        <time>2022-09-18T08:39:06.000Z</time>
      </trkpt>
      <trkpt lat="49.86218" lon="4.74049">
        <ele>200</ele>
        <time>2022-09-18T08:39:07.000Z</time>
      </trkpt>
      <trkpt lat="49.86221" lon="4.7405">
        <ele>200</ele>
        <time>2022-09-18T08:39:08.000Z</time>
      </trkpt>
      <trkpt lat="49.86224" lon="4.7405">
        <ele>200</ele>
        <time>2022-09-18T08:39:09.000Z</time>
      </trkpt>
      <trkpt lat="49.86228" lon="4.74051">
        <ele>200</ele>
        <time>2022-09-18T08:39:10.000Z</time>
      </trkpt>
      <trkpt lat="49.86231" lon="4.74052">
        <ele>200</ele>
        <time>2022-09-18T08:39:11.000Z</time>
      </trkpt>
      <trkpt lat="49.86234" lon="4.74052">
        <ele>200</ele>
        <time>2022-09-18T08:39:12.000Z</time>
      </trkpt>
      <trkpt lat="49.86237" lon="4.74053">
        <ele>200</ele>
        <time>2022-09-18T08:39:13.000Z</time>
      </trkpt>
      <trkpt lat="49.8624" lon="4.74053">
        <ele>200</ele>
        <time>2022-09-18T08:39:14.000Z</time>
      </trkpt>
      <trkpt lat="49.86242" lon="4.74053">
        <ele>199</ele>
        <time>2022-09-18T08:39:15.000Z</time>
      </trkpt>
      <trkpt lat="49.86244" lon="4.74053">
        <ele>199</ele>
        <time>2022-09-18T08:39:16.000Z</time>
      </trkpt>
      <trkpt lat="49.86246" lon="4.74053">
        <ele>199</ele>
        <time>2022-09-18T08:39:17.000Z</time>
      </trkpt>
      <trkpt lat="49.86248" lon="4.74054">
        <ele>199</ele>
        <time>2022-09-18T08:39:18.000Z</time>
      </trkpt>
      <trkpt lat="49.8625" lon="4.74055">
        <ele>199</ele>
        <time>2022-09-18T08:39:19.000Z</time>
      </trkpt>
      <trkpt lat="49.86252" lon="4.74056">
        <ele>199</ele>
        <time>2022-09-18T08:39:20.000Z</time>
      </trkpt>
      <trkpt lat="49.86254" lon="4.74059">
        <ele>199</ele>
        <time>2022-09-18T08:39:21.000Z</time>
      </trkpt>
      <trkpt lat="49.86256" lon="4.74062">
        <ele>199</ele>
        <time>2022-09-18T08:39:22.000Z</time>
      </trkpt>
      <trkpt lat="49.86258" lon="4.74065">
        <ele>199</ele>
        <time>2022-09-18T08:39:23.000Z</time>
      </trkpt>
      <trkpt lat="49.86259" lon="4.74068">
        <ele>199</ele>
        <time>2022-09-18T08:39:24.000Z</time>
      </trkpt>
      <trkpt lat="49.8626" lon="4.74071">
        <ele>199</ele>
        <time>2022-09-18T08:39:25.000Z</time>
      </trkpt>
      <trkpt lat="49.86262" lon="4.74073">
        <ele>199</ele>
        <time>2022-09-18T08:39:26.000Z</time>
      </trkpt>
      <trkpt lat="49.86263" lon="4.74076">
        <ele>199</ele>
        <time>2022-09-18T08:39:27.000Z</time>
      </trkpt>
      <trkpt lat="49.86265" lon="4.74077">
        <ele>199</ele>
        <time>2022-09-18T08:39:28.000Z</time>
      </trkpt>
      <trkpt lat="49.86268" lon="4.74079">
        <ele>199</ele>
        <time>2022-09-18T08:39:29.000Z</time>
      </trkpt>
      <trkpt lat="49.86269" lon="4.74081">
        <ele>199</ele>
        <time>2022-09-18T08:39:30.000Z</time>
      </trkpt>
      <trkpt lat="49.86271" lon="4.74084">
        <ele>199</ele>
        <time>2022-09-18T08:39:31.000Z</time>
      </trkpt>
      <trkpt lat="49.86273" lon="4.74086">
        <ele>199</ele>
        <time>2022-09-18T08:39:32.000Z</time>
      </trkpt>
      <trkpt lat="49.86275" lon="4.74088">
        <ele>199</ele>
        <time>2022-09-18T08:39:33.000Z</time>
      </trkpt>
      <trkpt lat="49.86276" lon="4.74091">
        <ele>199</ele>
        <time>2022-09-18T08:39:34.000Z</time>
      </trkpt>
      <trkpt lat="49.86278" lon="4.74094">
        <ele>199</ele>
        <time>2022-09-18T08:39:35.000Z</time>
      </trkpt>
      <trkpt lat="49.8628" lon="4.74096">
        <ele>199</ele>
        <time>2022-09-18T08:39:36.000Z</time>
      </trkpt>
      <trkpt lat="49.86281" lon="4.74099">
        <ele>199</ele>
        <time>2022-09-18T08:39:37.000Z</time>
      </trkpt>
      <trkpt lat="49.86282" lon="4.74101">
        <ele>199</ele>
        <time>2022-09-18T08:39:38.000Z</time>
      </trkpt>
      <trkpt lat="49.86284" lon="4.74103">
        <ele>199</ele>
        <time>2022-09-18T08:39:39.000Z</time>
      </trkpt>
      <trkpt lat="49.86285" lon="4.74106">
        <ele>199</ele>
        <time>2022-09-18T08:39:40.000Z</time>
      </trkpt>
      <trkpt lat="49.86287" lon="4.74108">
        <ele>200</ele>
        <time>2022-09-18T08:39:41.000Z</time>
      </trkpt>
      <trkpt lat="49.86288" lon="4.7411">
        <ele>200</ele>
        <time>2022-09-18T08:39:42.000Z</time>
      </trkpt>
      <trkpt lat="49.8629" lon="4.74112">
        <ele>200</ele>
        <time>2022-09-18T08:39:43.000Z</time>
      </trkpt>
      <trkpt lat="49.86291" lon="4.74114">
        <ele>200</ele>
        <time>2022-09-18T08:39:44.000Z</time>
      </trkpt>
      <trkpt lat="49.86292" lon="4.74115">
        <ele>200</ele>
        <time>2022-09-18T08:39:45.000Z</time>
      </trkpt>
      <trkpt lat="49.86293" lon="4.74115">
        <ele>201</ele>
        <time>2022-09-18T08:39:46.000Z</time>
      </trkpt>
      <trkpt lat="49.86294" lon="4.74116">
        <ele>201</ele>
        <time>2022-09-18T08:39:47.000Z</time>
      </trkpt>
      <trkpt lat="49.86294" lon="4.74117">
        <ele>201</ele>
        <time>2022-09-18T08:39:48.000Z</time>
      </trkpt>
      <trkpt lat="49.86296" lon="4.74118">
        <ele>201</ele>
        <time>2022-09-18T08:39:49.000Z</time>
      </trkpt>
      <trkpt lat="49.86297" lon="4.7412">
        <ele>202</ele>
        <time>2022-09-18T08:39:50.000Z</time>
      </trkpt>
      <trkpt lat="49.86298" lon="4.74121">
        <ele>202</ele>
        <time>2022-09-18T08:39:51.000Z</time>
      </trkpt>
      <trkpt lat="49.86299" lon="4.74122">
        <ele>202</ele>
        <time>2022-09-18T08:39:52.000Z</time>
      </trkpt>
      <trkpt lat="49.863" lon="4.74123">
        <ele>202</ele>
        <time>2022-09-18T08:39:53.000Z</time>
      </trkpt>
      <trkpt lat="49.86301" lon="4.74124">
        <ele>202</ele>
        <time>2022-09-18T08:39:54.000Z</time>
      </trkpt>
      <trkpt lat="49.86302" lon="4.74125">
        <ele>202</ele>
        <time>2022-09-18T08:39:55.000Z</time>
      </trkpt>
      <trkpt lat="49.86303" lon="4.74126">
        <ele>202</ele>
        <time>2022-09-18T08:39:56.000Z</time>
      </trkpt>
      <trkpt lat="49.86304" lon="4.74128">
        <ele>203</ele>
        <time>2022-09-18T08:39:57.000Z</time>
      </trkpt>
      <trkpt lat="49.86305" lon="4.74129">
        <ele>203</ele>
        <time>2022-09-18T08:39:58.000Z</time>
      </trkpt>
      <trkpt lat="49.86307" lon="4.74131">
        <ele>203</ele>
        <time>2022-09-18T08:39:59.000Z</time>
      </trkpt>
      <trkpt lat="49.86308" lon="4.74132">
        <ele>203</ele>
        <time>2022-09-18T08:40:00.000Z</time>
      </trkpt>
      <trkpt lat="49.8631" lon="4.74134">
        <ele>203</ele>
        <time>2022-09-18T08:40:01.000Z</time>
      </trkpt>
      <trkpt lat="49.86311" lon="4.74136">
        <ele>204</ele>
        <time>2022-09-18T08:40:02.000Z</time>
      </trkpt>
      <trkpt lat="49.86313" lon="4.74138">
        <ele>204</ele>
        <time>2022-09-18T08:40:03.000Z</time>
      </trkpt>
      <trkpt lat="49.86315" lon="4.7414">
        <ele>204</ele>
        <time>2022-09-18T08:40:04.000Z</time>
      </trkpt>
      <trkpt lat="49.86316" lon="4.74142">
        <ele>204</ele>
        <time>2022-09-18T08:40:05.000Z</time>
      </trkpt>
      <trkpt lat="49.86318" lon="4.74145">
        <ele>205</ele>
        <time>2022-09-18T08:40:06.000Z</time>
      </trkpt>
      <trkpt lat="49.8632" lon="4.74147">
        <ele>205</ele>
        <time>2022-09-18T08:40:07.000Z</time>
      </trkpt>
      <trkpt lat="49.86321" lon="4.7415">
        <ele>205</ele>
        <time>2022-09-18T08:40:08.000Z</time>
      </trkpt>
      <trkpt lat="49.86322" lon="4.74153">
        <ele>205</ele>
        <time>2022-09-18T08:40:09.000Z</time>
      </trkpt>
      <trkpt lat="49.86324" lon="4.74156">
        <ele>205</ele>
        <time>2022-09-18T08:40:10.000Z</time>
      </trkpt>
      <trkpt lat="49.86326" lon="4.74158">
        <ele>206</ele>
        <time>2022-09-18T08:40:11.000Z</time>
      </trkpt>
      <trkpt lat="49.86327" lon="4.74159">
        <ele>206</ele>
        <time>2022-09-18T08:40:12.000Z</time>
      </trkpt>
      <trkpt lat="49.86328" lon="4.7416">
        <ele>206</ele>
        <time>2022-09-18T08:40:13.000Z</time>
      </trkpt>
      <trkpt lat="49.86329" lon="4.74162">
        <ele>206</ele>
        <time>2022-09-18T08:40:14.000Z</time>
      </trkpt>
      <trkpt lat="49.86331" lon="4.74164">
        <ele>206</ele>
        <time>2022-09-18T08:40:15.000Z</time>
      </trkpt>
      <trkpt lat="49.86332" lon="4.74166">
        <ele>206</ele>
        <time>2022-09-18T08:40:16.000Z</time>
      </trkpt>
      <trkpt lat="49.86333" lon="4.74168">
        <ele>206</ele>
        <time>2022-09-18T08:40:17.000Z</time>
      </trkpt>
      <trkpt lat="49.86335" lon="4.7417">
        <ele>206</ele>
        <time>2022-09-18T08:40:18.000Z</time>
      </trkpt>
      <trkpt lat="49.86337" lon="4.74171">
        <ele>206</ele>
        <time>2022-09-18T08:40:19.000Z</time>
      </trkpt>
      <trkpt lat="49.86339" lon="4.74172">
        <ele>206</ele>
        <time>2022-09-18T08:40:20.000Z</time>
      </trkpt>
      <trkpt lat="49.8634" lon="4.74173">
        <ele>206</ele>
        <time>2022-09-18T08:40:21.000Z</time>
      </trkpt>
      <trkpt lat="49.86341" lon="4.74174">
        <ele>206</ele>
        <time>2022-09-18T08:40:22.000Z</time>
      </trkpt>
      <trkpt lat="49.86343" lon="4.74176">
        <ele>207</ele>
        <time>2022-09-18T08:40:23.000Z</time>
      </trkpt>
      <trkpt lat="49.86345" lon="4.74177">
        <ele>207</ele>
        <time>2022-09-18T08:40:24.000Z</time>
      </trkpt>
      <trkpt lat="49.86347" lon="4.74178">
        <ele>207</ele>
        <time>2022-09-18T08:40:25.000Z</time>
      </trkpt>
      <trkpt lat="49.86348" lon="4.74179">
        <ele>207</ele>
        <time>2022-09-18T08:40:26.000Z</time>
      </trkpt>
      <trkpt lat="49.8635" lon="4.7418">
        <ele>208</ele>
        <time>2022-09-18T08:40:27.000Z</time>
      </trkpt>
      <trkpt lat="49.86351" lon="4.74182">
        <ele>208</ele>
        <time>2022-09-18T08:40:28.000Z</time>
      </trkpt>
      <trkpt lat="49.86352" lon="4.74184">
        <ele>208</ele>
        <time>2022-09-18T08:40:29.000Z</time>
      </trkpt>
      <trkpt lat="49.86353" lon="4.74185">
        <ele>208</ele>
        <time>2022-09-18T08:40:30.000Z</time>
      </trkpt>
      <trkpt lat="49.86354" lon="4.74185">
        <ele>209</ele>
        <time>2022-09-18T08:40:31.000Z</time>
      </trkpt>
      <trkpt lat="49.86354" lon="4.74186">
        <ele>209</ele>
        <time>2022-09-18T08:40:32.000Z</time>
      </trkpt>
      <trkpt lat="49.86355" lon="4.74188">
        <ele>209</ele>
        <time>2022-09-18T08:40:33.000Z</time>
      </trkpt>
      <trkpt lat="49.86357" lon="4.74189">
        <ele>209</ele>
        <time>2022-09-18T08:40:34.000Z</time>
      </trkpt>
      <trkpt lat="49.86358" lon="4.74191">
        <ele>209</ele>
        <time>2022-09-18T08:40:35.000Z</time>
      </trkpt>
      <trkpt lat="49.8636" lon="4.74192">
        <ele>209</ele>
        <time>2022-09-18T08:40:36.000Z</time>
      </trkpt>
      <trkpt lat="49.86362" lon="4.74194">
        <ele>209</ele>
        <time>2022-09-18T08:40:37.000Z</time>
      </trkpt>
      <trkpt lat="49.86363" lon="4.74196">
        <ele>210</ele>
        <time>2022-09-18T08:40:38.000Z</time>
      </trkpt>
      <trkpt lat="49.86364" lon="4.74198">
        <ele>210</ele>
        <time>2022-09-18T08:40:39.000Z</time>
      </trkpt>
      <trkpt lat="49.86366" lon="4.742">
        <ele>210</ele>
        <time>2022-09-18T08:40:40.000Z</time>
      </trkpt>
      <trkpt lat="49.86368" lon="4.74202">
        <ele>210</ele>
        <time>2022-09-18T08:40:41.000Z</time>
      </trkpt>
      <trkpt lat="49.86369" lon="4.74204">
        <ele>210</ele>
        <time>2022-09-18T08:40:42.000Z</time>
      </trkpt>
      <trkpt lat="49.8637" lon="4.74207">
        <ele>210</ele>
        <time>2022-09-18T08:40:43.000Z</time>
      </trkpt>
      <trkpt lat="49.86371" lon="4.7421">
        <ele>210</ele>
        <time>2022-09-18T08:40:44.000Z</time>
      </trkpt>
      <trkpt lat="49.86372" lon="4.74213">
        <ele>210</ele>
        <time>2022-09-18T08:40:45.000Z</time>
      </trkpt>
      <trkpt lat="49.86373" lon="4.74216">
        <ele>210</ele>
        <time>2022-09-18T08:40:46.000Z</time>
      </trkpt>
      <trkpt lat="49.86373" lon="4.74218">
        <ele>210</ele>
        <time>2022-09-18T08:40:47.000Z</time>
      </trkpt>
      <trkpt lat="49.86373" lon="4.7422">
        <ele>211</ele>
        <time>2022-09-18T08:40:48.000Z</time>
      </trkpt>
      <trkpt lat="49.86374" lon="4.74222">
        <ele>211</ele>
        <time>2022-09-18T08:40:49.000Z</time>
      </trkpt>
      <trkpt lat="49.86375" lon="4.74223">
        <ele>211</ele>
        <time>2022-09-18T08:40:50.000Z</time>
      </trkpt>
      <trkpt lat="49.86376" lon="4.74225">
        <ele>211</ele>
        <time>2022-09-18T08:40:51.000Z</time>
      </trkpt>
      <trkpt lat="49.86377" lon="4.74227">
        <ele>211</ele>
        <time>2022-09-18T08:40:52.000Z</time>
      </trkpt>
      <trkpt lat="49.86378" lon="4.74229">
        <ele>212</ele>
        <time>2022-09-18T08:40:53.000Z</time>
      </trkpt>
      <trkpt lat="49.86379" lon="4.7423">
        <ele>212</ele>
        <time>2022-09-18T08:40:54.000Z</time>
      </trkpt>
      <trkpt lat="49.8638" lon="4.74231">
        <ele>212</ele>
        <time>2022-09-18T08:40:55.000Z</time>
      </trkpt>
      <trkpt lat="49.86381" lon="4.74232">
        <ele>212</ele>
        <time>2022-09-18T08:40:56.000Z</time>
      </trkpt>
      <trkpt lat="49.86381" lon="4.74232">
        <ele>212</ele>
        <time>2022-09-18T08:40:57.000Z</time>
      </trkpt>
      <trkpt lat="49.86381" lon="4.74232">
        <ele>212</ele>
        <time>2022-09-18T08:40:58.000Z</time>
      </trkpt>
      <trkpt lat="49.86381" lon="4.74232">
        <ele>213</ele>
        <time>2022-09-18T08:40:59.000Z</time>
      </trkpt>
      <trkpt lat="49.86381" lon="4.74232">
        <ele>213</ele>
        <time>2022-09-18T08:41:00.000Z</time>
      </trkpt>
      <trkpt lat="49.86381" lon="4.74233">
        <ele>213</ele>
        <time>2022-09-18T08:41:01.000Z</time>
      </trkpt>
      <trkpt lat="49.86381" lon="4.74233">
        <ele>213</ele>
        <time>2022-09-18T08:41:02.000Z</time>
      </trkpt>
      <trkpt lat="49.86382" lon="4.74233">
        <ele>213</ele>
        <time>2022-09-18T08:41:03.000Z</time>
      </trkpt>
      <trkpt lat="49.86382" lon="4.74233">
        <ele>213</ele>
        <time>2022-09-18T08:41:04.000Z</time>
      </trkpt>
      <trkpt lat="49.86382" lon="4.74233">
        <ele>213</ele>
        <time>2022-09-18T08:41:05.000Z</time>
      </trkpt>
      <trkpt lat="49.86382" lon="4.74233">
        <ele>213</ele>
        <time>2022-09-18T08:41:06.000Z</time>
      </trkpt>
      <trkpt lat="49.86382" lon="4.74233">
        <ele>213</ele>
        <time>2022-09-18T08:41:07.000Z</time>
      </trkpt>
      <trkpt lat="49.86382" lon="4.74233">
        <ele>213</ele>
        <time>2022-09-18T08:41:08.000Z</time>
      </trkpt>
      <trkpt lat="49.86382" lon="4.74233">
        <ele>213</ele>
        <time>2022-09-18T08:41:09.000Z</time>
      </trkpt>
      <trkpt lat="49.86382" lon="4.74233">
        <ele>213</ele>
        <time>2022-09-18T08:41:10.000Z</time>
      </trkpt>
      <trkpt lat="49.86382" lon="4.74233">
        <ele>214</ele>
        <time>2022-09-18T08:41:11.000Z</time>
      </trkpt>
      <trkpt lat="49.86382" lon="4.74233">
        <ele>214</ele>
        <time>2022-09-18T08:41:12.000Z</time>
      </trkpt>
      <trkpt lat="49.86382" lon="4.74233">
        <ele>214</ele>
        <time>2022-09-18T08:41:13.000Z</time>
      </trkpt>
      <trkpt lat="49.86382" lon="4.74233">
        <ele>214</ele>
        <time>2022-09-18T08:41:14.000Z</time>
      </trkpt>
      <trkpt lat="49.86383" lon="4.74233">
        <ele>214</ele>
        <time>2022-09-18T08:41:15.000Z</time>
      </trkpt>
      <trkpt lat="49.86383" lon="4.74233">
        <ele>214</ele>
        <time>2022-09-18T08:41:16.000Z</time>
      </trkpt>
      <trkpt lat="49.86383" lon="4.74233">
        <ele>214</ele>
        <time>2022-09-18T08:41:17.000Z</time>
      </trkpt>
      <trkpt lat="49.86383" lon="4.74233">
        <ele>214</ele>
        <time>2022-09-18T08:41:18.000Z</time>
      </trkpt>
      <trkpt lat="49.86383" lon="4.74233">
        <ele>214</ele>
        <time>2022-09-18T08:41:19.000Z</time>
      </trkpt>
      <trkpt lat="49.86384" lon="4.74233">
        <ele>214</ele>
        <time>2022-09-18T08:41:20.000Z</time>
      </trkpt>
      <trkpt lat="49.86386" lon="4.74233">
        <ele>214</ele>
        <time>2022-09-18T08:41:21.000Z</time>
      </trkpt>
      <trkpt lat="49.86388" lon="4.74233">
        <ele>214</ele>
        <time>2022-09-18T08:41:22.000Z</time>
      </trkpt>
      <trkpt lat="49.86392" lon="4.74233">
        <ele>214</ele>
        <time>2022-09-18T08:41:23.000Z</time>
      </trkpt>
      <trkpt lat="49.86396" lon="4.74233">
        <ele>214</ele>
        <time>2022-09-18T08:41:24.000Z</time>
      </trkpt>
      <trkpt lat="49.864" lon="4.74234">
        <ele>215</ele>
        <time>2022-09-18T08:41:25.000Z</time>
      </trkpt>
      <trkpt lat="49.86404" lon="4.74235">
        <ele>215</ele>
        <time>2022-09-18T08:41:26.000Z</time>
      </trkpt>
      <trkpt lat="49.86408" lon="4.74236">
        <ele>215</ele>
        <time>2022-09-18T08:41:27.000Z</time>
      </trkpt>
      <trkpt lat="49.86412" lon="4.74237">
        <ele>214</ele>
        <time>2022-09-18T08:41:28.000Z</time>
      </trkpt>
      <trkpt lat="49.86415" lon="4.74238">
        <ele>215</ele>
        <time>2022-09-18T08:41:29.000Z</time>
      </trkpt>
      <trkpt lat="49.86418" lon="4.7424">
        <ele>215</ele>
        <time>2022-09-18T08:41:30.000Z</time>
      </trkpt>
      <trkpt lat="49.86421" lon="4.74242">
        <ele>215</ele>
        <time>2022-09-18T08:41:31.000Z</time>
      </trkpt>
      <trkpt lat="49.86425" lon="4.74244">
        <ele>214</ele>
        <time>2022-09-18T08:41:32.000Z</time>
      </trkpt>
      <trkpt lat="49.86428" lon="4.74245">
        <ele>214</ele>
        <time>2022-09-18T08:41:33.000Z</time>
      </trkpt>
      <trkpt lat="49.86432" lon="4.74245">
        <ele>214</ele>
        <time>2022-09-18T08:41:34.000Z</time>
      </trkpt>
      <trkpt lat="49.86436" lon="4.74246">
        <ele>214</ele>
        <time>2022-09-18T08:41:35.000Z</time>
      </trkpt>
      <trkpt lat="49.8644" lon="4.74246">
        <ele>214</ele>
        <time>2022-09-18T08:41:36.000Z</time>
      </trkpt>
      <trkpt lat="49.86444" lon="4.74246">
        <ele>214</ele>
        <time>2022-09-18T08:41:37.000Z</time>
      </trkpt>
      <trkpt lat="49.86448" lon="4.74246">
        <ele>214</ele>
        <time>2022-09-18T08:41:38.000Z</time>
      </trkpt>
      <trkpt lat="49.86452" lon="4.74245">
        <ele>214</ele>
        <time>2022-09-18T08:41:39.000Z</time>
      </trkpt>
      <trkpt lat="49.86455" lon="4.74244">
        <ele>214</ele>
        <time>2022-09-18T08:41:40.000Z</time>
      </trkpt>
      <trkpt lat="49.86458" lon="4.74244">
        <ele>214</ele>
        <time>2022-09-18T08:41:41.000Z</time>
      </trkpt>
      <trkpt lat="49.86461" lon="4.74243">
        <ele>214</ele>
        <time>2022-09-18T08:41:42.000Z</time>
      </trkpt>
      <trkpt lat="49.86464" lon="4.74242">
        <ele>214</ele>
        <time>2022-09-18T08:41:43.000Z</time>
      </trkpt>
      <trkpt lat="49.86468" lon="4.74241">
        <ele>213</ele>
        <time>2022-09-18T08:41:44.000Z</time>
      </trkpt>
      <trkpt lat="49.86471" lon="4.74241">
        <ele>213</ele>
        <time>2022-09-18T08:41:45.000Z</time>
      </trkpt>
      <trkpt lat="49.86474" lon="4.7424">
        <ele>213</ele>
        <time>2022-09-18T08:41:46.000Z</time>
      </trkpt>
      <trkpt lat="49.86478" lon="4.7424">
        <ele>212</ele>
        <time>2022-09-18T08:41:47.000Z</time>
      </trkpt>
      <trkpt lat="49.86482" lon="4.74239">
        <ele>212</ele>
        <time>2022-09-18T08:41:48.000Z</time>
      </trkpt>
      <trkpt lat="49.86485" lon="4.74237">
        <ele>212</ele>
        <time>2022-09-18T08:41:49.000Z</time>
      </trkpt>
      <trkpt lat="49.86489" lon="4.74236">
        <ele>212</ele>
        <time>2022-09-18T08:41:50.000Z</time>
      </trkpt>
      <trkpt lat="49.86492" lon="4.74234">
        <ele>211</ele>
        <time>2022-09-18T08:41:51.000Z</time>
      </trkpt>
      <trkpt lat="49.86496" lon="4.74233">
        <ele>211</ele>
        <time>2022-09-18T08:41:52.000Z</time>
      </trkpt>
      <trkpt lat="49.86499" lon="4.74232">
        <ele>211</ele>
        <time>2022-09-18T08:41:53.000Z</time>
      </trkpt>
      <trkpt lat="49.86503" lon="4.7423">
        <ele>210</ele>
        <time>2022-09-18T08:41:54.000Z</time>
      </trkpt>
      <trkpt lat="49.86507" lon="4.74228">
        <ele>210</ele>
        <time>2022-09-18T08:41:55.000Z</time>
      </trkpt>
      <trkpt lat="49.8651" lon="4.74228">
        <ele>209</ele>
        <time>2022-09-18T08:41:56.000Z</time>
      </trkpt>
      <trkpt lat="49.86513" lon="4.74227">
        <ele>209</ele>
        <time>2022-09-18T08:41:57.000Z</time>
      </trkpt>
      <trkpt lat="49.86517" lon="4.74226">
        <ele>208</ele>
        <time>2022-09-18T08:41:58.000Z</time>
      </trkpt>
      <trkpt lat="49.8652" lon="4.74224">
        <ele>208</ele>
        <time>2022-09-18T08:41:59.000Z</time>
      </trkpt>
      <trkpt lat="49.86524" lon="4.74223">
        <ele>207</ele>
        <time>2022-09-18T08:42:00.000Z</time>
      </trkpt>
      <trkpt lat="49.86527" lon="4.74221">
        <ele>207</ele>
        <time>2022-09-18T08:42:01.000Z</time>
      </trkpt>
      <trkpt lat="49.8653" lon="4.7422">
        <ele>206</ele>
        <time>2022-09-18T08:42:02.000Z</time>
      </trkpt>
      <trkpt lat="49.86533" lon="4.7422">
        <ele>206</ele>
        <time>2022-09-18T08:42:03.000Z</time>
      </trkpt>
      <trkpt lat="49.86536" lon="4.7422">
        <ele>205</ele>
        <time>2022-09-18T08:42:04.000Z</time>
      </trkpt>
      <trkpt lat="49.86539" lon="4.74221">
        <ele>205</ele>
        <time>2022-09-18T08:42:05.000Z</time>
      </trkpt>
      <trkpt lat="49.86542" lon="4.74222">
        <ele>205</ele>
        <time>2022-09-18T08:42:06.000Z</time>
      </trkpt>
      <trkpt lat="49.86545" lon="4.74224">
        <ele>204</ele>
        <time>2022-09-18T08:42:07.000Z</time>
      </trkpt>
      <trkpt lat="49.86548" lon="4.74225">
        <ele>204</ele>
        <time>2022-09-18T08:42:08.000Z</time>
      </trkpt>
      <trkpt lat="49.8655" lon="4.74226">
        <ele>203</ele>
        <time>2022-09-18T08:42:09.000Z</time>
      </trkpt>
      <trkpt lat="49.86554" lon="4.74227">
        <ele>203</ele>
        <time>2022-09-18T08:42:10.000Z</time>
      </trkpt>
      <trkpt lat="49.86556" lon="4.74229">
        <ele>203</ele>
        <time>2022-09-18T08:42:11.000Z</time>
      </trkpt>
      <trkpt lat="49.86559" lon="4.7423">
        <ele>202</ele>
        <time>2022-09-18T08:42:12.000Z</time>
      </trkpt>
      <trkpt lat="49.86561" lon="4.74232">
        <ele>202</ele>
        <time>2022-09-18T08:42:13.000Z</time>
      </trkpt>
      <trkpt lat="49.86564" lon="4.74234">
        <ele>202</ele>
        <time>2022-09-18T08:42:14.000Z</time>
      </trkpt>
      <trkpt lat="49.86567" lon="4.74237">
        <ele>201</ele>
        <time>2022-09-18T08:42:15.000Z</time>
      </trkpt>
      <trkpt lat="49.86571" lon="4.7424">
        <ele>201</ele>
        <time>2022-09-18T08:42:16.000Z</time>
      </trkpt>
      <trkpt lat="49.86574" lon="4.74242">
        <ele>201</ele>
        <time>2022-09-18T08:42:17.000Z</time>
      </trkpt>
      <trkpt lat="49.86577" lon="4.74245">
        <ele>200</ele>
        <time>2022-09-18T08:42:18.000Z</time>
      </trkpt>
      <trkpt lat="49.8658" lon="4.74247">
        <ele>200</ele>
        <time>2022-09-18T08:42:19.000Z</time>
      </trkpt>
      <trkpt lat="49.86582" lon="4.7425">
        <ele>200</ele>
        <time>2022-09-18T08:42:20.000Z</time>
      </trkpt>
      <trkpt lat="49.86584" lon="4.74254">
        <ele>199</ele>
        <time>2022-09-18T08:42:21.000Z</time>
      </trkpt>
      <trkpt lat="49.86586" lon="4.74256">
        <ele>199</ele>
        <time>2022-09-18T08:42:22.000Z</time>
      </trkpt>
      <trkpt lat="49.8659" lon="4.74258">
        <ele>199</ele>
        <time>2022-09-18T08:42:23.000Z</time>
      </trkpt>
      <trkpt lat="49.86592" lon="4.74259">
        <ele>199</ele>
        <time>2022-09-18T08:42:24.000Z</time>
      </trkpt>
      <trkpt lat="49.86595" lon="4.74261">
        <ele>199</ele>
        <time>2022-09-18T08:42:25.000Z</time>
      </trkpt>
      <trkpt lat="49.86598" lon="4.74262">
        <ele>198</ele>
        <time>2022-09-18T08:42:26.000Z</time>
      </trkpt>
      <trkpt lat="49.866" lon="4.74263">
        <ele>198</ele>
        <time>2022-09-18T08:42:27.000Z</time>
      </trkpt>
      <trkpt lat="49.86602" lon="4.74263">
        <ele>198</ele>
        <time>2022-09-18T08:42:28.000Z</time>
      </trkpt>
      <trkpt lat="49.86604" lon="4.74263">
        <ele>198</ele>
        <time>2022-09-18T08:42:29.000Z</time>
      </trkpt>
      <trkpt lat="49.86606" lon="4.74263">
        <ele>197</ele>
        <time>2022-09-18T08:42:30.000Z</time>
      </trkpt>
      <trkpt lat="49.86609" lon="4.74263">
        <ele>197</ele>
        <time>2022-09-18T08:42:31.000Z</time>
      </trkpt>
      <trkpt lat="49.86611" lon="4.74262">
        <ele>197</ele>
        <time>2022-09-18T08:42:32.000Z</time>
      </trkpt>
      <trkpt lat="49.86614" lon="4.74262">
        <ele>197</ele>
        <time>2022-09-18T08:42:33.000Z</time>
      </trkpt>
      <trkpt lat="49.86616" lon="4.74261">
        <ele>196</ele>
        <time>2022-09-18T08:42:34.000Z</time>
      </trkpt>
      <trkpt lat="49.86617" lon="4.74262">
        <ele>196</ele>
        <time>2022-09-18T08:42:35.000Z</time>
      </trkpt>
      <trkpt lat="49.86618" lon="4.74262">
        <ele>196</ele>
        <time>2022-09-18T08:42:36.000Z</time>
      </trkpt>
      <trkpt lat="49.86619" lon="4.74262">
        <ele>196</ele>
        <time>2022-09-18T08:42:37.000Z</time>
      </trkpt>
      <trkpt lat="49.8662" lon="4.74262">
        <ele>196</ele>
        <time>2022-09-18T08:42:38.000Z</time>
      </trkpt>
      <trkpt lat="49.86621" lon="4.74262">
        <ele>196</ele>
        <time>2022-09-18T08:42:39.000Z</time>
      </trkpt>
      <trkpt lat="49.86622" lon="4.74263">
        <ele>196</ele>
        <time>2022-09-18T08:42:40.000Z</time>
      </trkpt>
      <trkpt lat="49.86624" lon="4.74262">
        <ele>196</ele>
        <time>2022-09-18T08:42:41.000Z</time>
      </trkpt>
      <trkpt lat="49.86626" lon="4.74262">
        <ele>196</ele>
        <time>2022-09-18T08:42:42.000Z</time>
      </trkpt>
      <trkpt lat="49.86629" lon="4.74263">
        <ele>196</ele>
        <time>2022-09-18T08:42:43.000Z</time>
      </trkpt>
      <trkpt lat="49.86632" lon="4.74263">
        <ele>196</ele>
        <time>2022-09-18T08:42:44.000Z</time>
      </trkpt>
      <trkpt lat="49.86635" lon="4.74262">
        <ele>196</ele>
        <time>2022-09-18T08:42:45.000Z</time>
      </trkpt>
      <trkpt lat="49.86638" lon="4.74261">
        <ele>196</ele>
        <time>2022-09-18T08:42:46.000Z</time>
      </trkpt>
      <trkpt lat="49.86641" lon="4.74259">
        <ele>196</ele>
        <time>2022-09-18T08:42:47.000Z</time>
      </trkpt>
      <trkpt lat="49.86644" lon="4.74258">
        <ele>196</ele>
        <time>2022-09-18T08:42:48.000Z</time>
      </trkpt>
      <trkpt lat="49.86647" lon="4.74257">
        <ele>196</ele>
        <time>2022-09-18T08:42:49.000Z</time>
      </trkpt>
      <trkpt lat="49.8665" lon="4.74258">
        <ele>195</ele>
        <time>2022-09-18T08:42:50.000Z</time>
      </trkpt>
      <trkpt lat="49.86653" lon="4.74258">
        <ele>195</ele>
        <time>2022-09-18T08:42:51.000Z</time>
      </trkpt>
      <trkpt lat="49.86656" lon="4.74259">
        <ele>195</ele>
        <time>2022-09-18T08:42:52.000Z</time>
      </trkpt>
      <trkpt lat="49.86658" lon="4.74259">
        <ele>195</ele>
        <time>2022-09-18T08:42:53.000Z</time>
      </trkpt>
      <trkpt lat="49.86661" lon="4.74258">
        <ele>195</ele>
        <time>2022-09-18T08:42:54.000Z</time>
      </trkpt>
      <trkpt lat="49.86664" lon="4.74259">
        <ele>195</ele>
        <time>2022-09-18T08:42:55.000Z</time>
      </trkpt>
      <trkpt lat="49.86667" lon="4.74261">
        <ele>195</ele>
        <time>2022-09-18T08:42:56.000Z</time>
      </trkpt>
      <trkpt lat="49.86671" lon="4.74262">
        <ele>195</ele>
        <time>2022-09-18T08:42:57.000Z</time>
      </trkpt>
      <trkpt lat="49.86674" lon="4.74263">
        <ele>195</ele>
        <time>2022-09-18T08:42:58.000Z</time>
      </trkpt>
      <trkpt lat="49.86677" lon="4.74264">
        <ele>195</ele>
        <time>2022-09-18T08:42:59.000Z</time>
      </trkpt>
      <trkpt lat="49.8668" lon="4.74265">
        <ele>195</ele>
        <time>2022-09-18T08:43:00.000Z</time>
      </trkpt>
      <trkpt lat="49.86683" lon="4.74266">
        <ele>195</ele>
        <time>2022-09-18T08:43:01.000Z</time>
      </trkpt>
      <trkpt lat="49.86686" lon="4.74268">
        <ele>195</ele>
        <time>2022-09-18T08:43:02.000Z</time>
      </trkpt>
      <trkpt lat="49.8669" lon="4.7427">
        <ele>195</ele>
        <time>2022-09-18T08:43:03.000Z</time>
      </trkpt>
      <trkpt lat="49.86693" lon="4.74271">
        <ele>195</ele>
        <time>2022-09-18T08:43:04.000Z</time>
      </trkpt>
      <trkpt lat="49.86696" lon="4.74274">
        <ele>195</ele>
        <time>2022-09-18T08:43:05.000Z</time>
      </trkpt>
      <trkpt lat="49.86698" lon="4.74275">
        <ele>195</ele>
        <time>2022-09-18T08:43:06.000Z</time>
      </trkpt>
      <trkpt lat="49.86701" lon="4.74277">
        <ele>195</ele>
        <time>2022-09-18T08:43:07.000Z</time>
      </trkpt>
      <trkpt lat="49.86704" lon="4.74279">
        <ele>195</ele>
        <time>2022-09-18T08:43:08.000Z</time>
      </trkpt>
      <trkpt lat="49.86707" lon="4.74282">
        <ele>195</ele>
        <time>2022-09-18T08:43:09.000Z</time>
      </trkpt>
      <trkpt lat="49.8671" lon="4.74285">
        <ele>195</ele>
        <time>2022-09-18T08:43:10.000Z</time>
      </trkpt>
      <trkpt lat="49.86713" lon="4.74286">
        <ele>195</ele>
        <time>2022-09-18T08:43:11.000Z</time>
      </trkpt>
      <trkpt lat="49.86716" lon="4.74287">
        <ele>195</ele>
        <time>2022-09-18T08:43:12.000Z</time>
      </trkpt>
      <trkpt lat="49.86718" lon="4.74289">
        <ele>195</ele>
        <time>2022-09-18T08:43:13.000Z</time>
      </trkpt>
      <trkpt lat="49.86721" lon="4.7429">
        <ele>195</ele>
        <time>2022-09-18T08:43:14.000Z</time>
      </trkpt>
      <trkpt lat="49.86722" lon="4.74292">
        <ele>195</ele>
        <time>2022-09-18T08:43:15.000Z</time>
      </trkpt>
      <trkpt lat="49.86723" lon="4.74293">
        <ele>195</ele>
        <time>2022-09-18T08:43:16.000Z</time>
      </trkpt>
      <trkpt lat="49.86724" lon="4.74293">
        <ele>195</ele>
        <time>2022-09-18T08:43:17.000Z</time>
      </trkpt>
      <trkpt lat="49.86725" lon="4.74294">
        <ele>195</ele>
        <time>2022-09-18T08:43:18.000Z</time>
      </trkpt>
      <trkpt lat="49.86727" lon="4.74295">
        <ele>195</ele>
        <time>2022-09-18T08:43:19.000Z</time>
      </trkpt>
      <trkpt lat="49.86727" lon="4.74295">
        <ele>195</ele>
        <time>2022-09-18T08:43:20.000Z</time>
      </trkpt>
      <trkpt lat="49.86729" lon="4.74296">
        <ele>195</ele>
        <time>2022-09-18T08:43:21.000Z</time>
      </trkpt>
      <trkpt lat="49.86732" lon="4.74297">
        <ele>195</ele>
        <time>2022-09-18T08:43:22.000Z</time>
      </trkpt>
      <trkpt lat="49.86734" lon="4.74298">
        <ele>195</ele>
        <time>2022-09-18T08:43:23.000Z</time>
      </trkpt>
      <trkpt lat="49.86737" lon="4.74298">
        <ele>195</ele>
        <time>2022-09-18T08:43:24.000Z</time>
      </trkpt>
      <trkpt lat="49.8674" lon="4.74299">
        <ele>195</ele>
        <time>2022-09-18T08:43:25.000Z</time>
      </trkpt>
      <trkpt lat="49.86743" lon="4.74299">
        <ele>195</ele>
        <time>2022-09-18T08:43:26.000Z</time>
      </trkpt>
      <trkpt lat="49.86747" lon="4.74301">
        <ele>195</ele>
        <time>2022-09-18T08:43:27.000Z</time>
      </trkpt>
      <trkpt lat="49.86751" lon="4.74302">
        <ele>195</ele>
        <time>2022-09-18T08:43:28.000Z</time>
      </trkpt>
      <trkpt lat="49.86755" lon="4.74303">
        <ele>195</ele>
        <time>2022-09-18T08:43:29.000Z</time>
      </trkpt>
      <trkpt lat="49.86759" lon="4.74305">
        <ele>196</ele>
        <time>2022-09-18T08:43:30.000Z</time>
      </trkpt>
      <trkpt lat="49.86763" lon="4.74305">
        <ele>196</ele>
        <time>2022-09-18T08:43:31.000Z</time>
      </trkpt>
      <trkpt lat="49.86767" lon="4.74305">
        <ele>196</ele>
        <time>2022-09-18T08:43:32.000Z</time>
      </trkpt>
      <trkpt lat="49.8677" lon="4.74304">
        <ele>196</ele>
        <time>2022-09-18T08:43:33.000Z</time>
      </trkpt>
      <trkpt lat="49.86772" lon="4.74305">
        <ele>196</ele>
        <time>2022-09-18T08:43:34.000Z</time>
      </trkpt>
      <trkpt lat="49.86775" lon="4.74306">
        <ele>196</ele>
        <time>2022-09-18T08:43:35.000Z</time>
      </trkpt>
      <trkpt lat="49.86777" lon="4.74305">
        <ele>196</ele>
        <time>2022-09-18T08:43:36.000Z</time>
      </trkpt>
      <trkpt lat="49.8678" lon="4.74305">
        <ele>195</ele>
        <time>2022-09-18T08:43:37.000Z</time>
      </trkpt>
      <trkpt lat="49.86783" lon="4.74304">
        <ele>195</ele>
        <time>2022-09-18T08:43:38.000Z</time>
      </trkpt>
      <trkpt lat="49.86786" lon="4.74304">
        <ele>195</ele>
        <time>2022-09-18T08:43:39.000Z</time>
      </trkpt>
      <trkpt lat="49.86789" lon="4.74305">
        <ele>195</ele>
        <time>2022-09-18T08:43:40.000Z</time>
      </trkpt>
      <trkpt lat="49.86792" lon="4.74307">
        <ele>195</ele>
        <time>2022-09-18T08:43:41.000Z</time>
      </trkpt>
      <trkpt lat="49.86795" lon="4.74309">
        <ele>195</ele>
        <time>2022-09-18T08:43:42.000Z</time>
      </trkpt>
      <trkpt lat="49.86799" lon="4.7431">
        <ele>195</ele>
        <time>2022-09-18T08:43:43.000Z</time>
      </trkpt>
      <trkpt lat="49.86803" lon="4.74312">
        <ele>195</ele>
        <time>2022-09-18T08:43:44.000Z</time>
      </trkpt>
      <trkpt lat="49.86806" lon="4.74313">
        <ele>195</ele>
        <time>2022-09-18T08:43:45.000Z</time>
      </trkpt>
      <trkpt lat="49.8681" lon="4.74316">
        <ele>194</ele>
        <time>2022-09-18T08:43:46.000Z</time>
      </trkpt>
      <trkpt lat="49.86814" lon="4.74318">
        <ele>194</ele>
        <time>2022-09-18T08:43:47.000Z</time>
      </trkpt>
      <trkpt lat="49.86818" lon="4.7432">
        <ele>194</ele>
        <time>2022-09-18T08:43:48.000Z</time>
      </trkpt>
      <trkpt lat="49.86821" lon="4.74322">
        <ele>194</ele>
        <time>2022-09-18T08:43:49.000Z</time>
      </trkpt>
      <trkpt lat="49.86825" lon="4.74325">
        <ele>194</ele>
        <time>2022-09-18T08:43:50.000Z</time>
      </trkpt>
      <trkpt lat="49.86828" lon="4.74326">
        <ele>194</ele>
        <time>2022-09-18T08:43:51.000Z</time>
      </trkpt>
      <trkpt lat="49.8683" lon="4.74329">
        <ele>194</ele>
        <time>2022-09-18T08:43:52.000Z</time>
      </trkpt>
      <trkpt lat="49.86833" lon="4.74331">
        <ele>194</ele>
        <time>2022-09-18T08:43:53.000Z</time>
      </trkpt>
      <trkpt lat="49.86835" lon="4.74333">
        <ele>194</ele>
        <time>2022-09-18T08:43:54.000Z</time>
      </trkpt>
      <trkpt lat="49.86837" lon="4.74335">
        <ele>194</ele>
        <time>2022-09-18T08:43:55.000Z</time>
      </trkpt>
      <trkpt lat="49.86839" lon="4.74337">
        <ele>194</ele>
        <time>2022-09-18T08:43:56.000Z</time>
      </trkpt>
      <trkpt lat="49.86841" lon="4.74338">
        <ele>194</ele>
        <time>2022-09-18T08:43:57.000Z</time>
      </trkpt>
      <trkpt lat="49.86843" lon="4.7434">
        <ele>193</ele>
        <time>2022-09-18T08:43:58.000Z</time>
      </trkpt>
      <trkpt lat="49.86845" lon="4.74343">
        <ele>193</ele>
        <time>2022-09-18T08:43:59.000Z</time>
      </trkpt>
      <trkpt lat="49.86848" lon="4.74345">
        <ele>193</ele>
        <time>2022-09-18T08:44:00.000Z</time>
      </trkpt>
      <trkpt lat="49.8685" lon="4.74349">
        <ele>193</ele>
        <time>2022-09-18T08:44:01.000Z</time>
      </trkpt>
      <trkpt lat="49.86852" lon="4.74352">
        <ele>193</ele>
        <time>2022-09-18T08:44:02.000Z</time>
      </trkpt>
      <trkpt lat="49.86854" lon="4.74354">
        <ele>193</ele>
        <time>2022-09-18T08:44:03.000Z</time>
      </trkpt>
      <trkpt lat="49.86857" lon="4.74357">
        <ele>193</ele>
        <time>2022-09-18T08:44:04.000Z</time>
      </trkpt>
      <trkpt lat="49.86859" lon="4.74358">
        <ele>193</ele>
        <time>2022-09-18T08:44:05.000Z</time>
      </trkpt>
      <trkpt lat="49.86861" lon="4.74356">
        <ele>193</ele>
        <time>2022-09-18T08:44:06.000Z</time>
      </trkpt>
      <trkpt lat="49.86864" lon="4.74356">
        <ele>193</ele>
        <time>2022-09-18T08:44:07.000Z</time>
      </trkpt>
      <trkpt lat="49.86867" lon="4.74356">
        <ele>192</ele>
        <time>2022-09-18T08:44:08.000Z</time>
      </trkpt>
      <trkpt lat="49.8687" lon="4.74358">
        <ele>192</ele>
        <time>2022-09-18T08:44:09.000Z</time>
      </trkpt>
      <trkpt lat="49.86873" lon="4.7436">
        <ele>192</ele>
        <time>2022-09-18T08:44:10.000Z</time>
      </trkpt>
      <trkpt lat="49.86875" lon="4.74362">
        <ele>192</ele>
        <time>2022-09-18T08:44:11.000Z</time>
      </trkpt>
      <trkpt lat="49.86878" lon="4.74363">
        <ele>192</ele>
        <time>2022-09-18T08:44:12.000Z</time>
      </trkpt>
      <trkpt lat="49.86881" lon="4.74364">
        <ele>192</ele>
        <time>2022-09-18T08:44:13.000Z</time>
      </trkpt>
      <trkpt lat="49.86883" lon="4.74365">
        <ele>192</ele>
        <time>2022-09-18T08:44:14.000Z</time>
      </trkpt>
      <trkpt lat="49.86886" lon="4.74366">
        <ele>192</ele>
        <time>2022-09-18T08:44:15.000Z</time>
      </trkpt>
      <trkpt lat="49.86889" lon="4.74367">
        <ele>192</ele>
        <time>2022-09-18T08:44:16.000Z</time>
      </trkpt>
      <trkpt lat="49.86892" lon="4.74368">
        <ele>192</ele>
        <time>2022-09-18T08:44:17.000Z</time>
      </trkpt>
      <trkpt lat="49.86894" lon="4.74369">
        <ele>192</ele>
        <time>2022-09-18T08:44:18.000Z</time>
      </trkpt>
      <trkpt lat="49.86896" lon="4.7437">
        <ele>192</ele>
        <time>2022-09-18T08:44:19.000Z</time>
      </trkpt>
      <trkpt lat="49.86898" lon="4.74369">
        <ele>192</ele>
        <time>2022-09-18T08:44:20.000Z</time>
      </trkpt>
      <trkpt lat="49.86901" lon="4.74369">
        <ele>192</ele>
        <time>2022-09-18T08:44:21.000Z</time>
      </trkpt>
      <trkpt lat="49.86904" lon="4.74368">
        <ele>192</ele>
        <time>2022-09-18T08:44:22.000Z</time>
      </trkpt>
      <trkpt lat="49.86906" lon="4.74368">
        <ele>192</ele>
        <time>2022-09-18T08:44:23.000Z</time>
      </trkpt>
      <trkpt lat="49.86908" lon="4.74369">
        <ele>192</ele>
        <time>2022-09-18T08:44:24.000Z</time>
      </trkpt>
      <trkpt lat="49.8691" lon="4.74369">
        <ele>192</ele>
        <time>2022-09-18T08:44:25.000Z</time>
      </trkpt>
      <trkpt lat="49.86912" lon="4.74368">
        <ele>192</ele>
        <time>2022-09-18T08:44:26.000Z</time>
      </trkpt>
      <trkpt lat="49.86914" lon="4.74367">
        <ele>192</ele>
        <time>2022-09-18T08:44:27.000Z</time>
      </trkpt>
      <trkpt lat="49.86916" lon="4.74366">
        <ele>192</ele>
        <time>2022-09-18T08:44:28.000Z</time>
      </trkpt>
      <trkpt lat="49.86919" lon="4.74366">
        <ele>192</ele>
        <time>2022-09-18T08:44:29.000Z</time>
      </trkpt>
      <trkpt lat="49.86923" lon="4.74366">
        <ele>192</ele>
        <time>2022-09-18T08:44:30.000Z</time>
      </trkpt>
      <trkpt lat="49.86926" lon="4.74365">
        <ele>192</ele>
        <time>2022-09-18T08:44:31.000Z</time>
      </trkpt>
      <trkpt lat="49.86929" lon="4.74364">
        <ele>192</ele>
        <time>2022-09-18T08:44:32.000Z</time>
      </trkpt>
      <trkpt lat="49.86931" lon="4.74362">
        <ele>192</ele>
        <time>2022-09-18T08:44:33.000Z</time>
      </trkpt>
      <trkpt lat="49.86935" lon="4.7436">
        <ele>191</ele>
        <time>2022-09-18T08:44:34.000Z</time>
      </trkpt>
      <trkpt lat="49.86938" lon="4.74359">
        <ele>191</ele>
        <time>2022-09-18T08:44:35.000Z</time>
      </trkpt>
      <trkpt lat="49.86942" lon="4.74358">
        <ele>191</ele>
        <time>2022-09-18T08:44:36.000Z</time>
      </trkpt>
      <trkpt lat="49.86945" lon="4.74356">
        <ele>191</ele>
        <time>2022-09-18T08:44:37.000Z</time>
      </trkpt>
      <trkpt lat="49.86948" lon="4.74353">
        <ele>191</ele>
        <time>2022-09-18T08:44:38.000Z</time>
      </trkpt>
      <trkpt lat="49.86952" lon="4.74351">
        <ele>190</ele>
        <time>2022-09-18T08:44:39.000Z</time>
      </trkpt>
      <trkpt lat="49.86957" lon="4.7435">
        <ele>190</ele>
        <time>2022-09-18T08:44:40.000Z</time>
      </trkpt>
      <trkpt lat="49.86962" lon="4.7435">
        <ele>190</ele>
        <time>2022-09-18T08:44:41.000Z</time>
      </trkpt>
      <trkpt lat="49.86966" lon="4.7435">
        <ele>190</ele>
        <time>2022-09-18T08:44:42.000Z</time>
      </trkpt>
      <trkpt lat="49.8697" lon="4.74349">
        <ele>190</ele>
        <time>2022-09-18T08:44:43.000Z</time>
      </trkpt>
      <trkpt lat="49.86974" lon="4.74348">
        <ele>189</ele>
        <time>2022-09-18T08:44:44.000Z</time>
      </trkpt>
      <trkpt lat="49.86977" lon="4.74347">
        <ele>189</ele>
        <time>2022-09-18T08:44:45.000Z</time>
      </trkpt>
      <trkpt lat="49.8698" lon="4.74347">
        <ele>189</ele>
        <time>2022-09-18T08:44:46.000Z</time>
      </trkpt>
      <trkpt lat="49.86982" lon="4.74346">
        <ele>189</ele>
        <time>2022-09-18T08:44:47.000Z</time>
      </trkpt>
      <trkpt lat="49.86985" lon="4.74344">
        <ele>188</ele>
        <time>2022-09-18T08:44:48.000Z</time>
      </trkpt>
      <trkpt lat="49.86988" lon="4.7434">
        <ele>188</ele>
        <time>2022-09-18T08:44:49.000Z</time>
      </trkpt>
      <trkpt lat="49.86991" lon="4.74337">
        <ele>188</ele>
        <time>2022-09-18T08:44:50.000Z</time>
      </trkpt>
      <trkpt lat="49.86993" lon="4.74334">
        <ele>188</ele>
        <time>2022-09-18T08:44:51.000Z</time>
      </trkpt>
      <trkpt lat="49.86995" lon="4.74331">
        <ele>187</ele>
        <time>2022-09-18T08:44:52.000Z</time>
      </trkpt>
      <trkpt lat="49.86998" lon="4.74327">
        <ele>187</ele>
        <time>2022-09-18T08:44:53.000Z</time>
      </trkpt>
      <trkpt lat="49.86999" lon="4.74325">
        <ele>187</ele>
        <time>2022-09-18T08:44:54.000Z</time>
      </trkpt>
      <trkpt lat="49.87002" lon="4.74323">
        <ele>186</ele>
        <time>2022-09-18T08:44:55.000Z</time>
      </trkpt>
      <trkpt lat="49.87004" lon="4.74322">
        <ele>185</ele>
        <time>2022-09-18T08:44:56.000Z</time>
      </trkpt>
      <trkpt lat="49.87006" lon="4.74322">
        <ele>185</ele>
        <time>2022-09-18T08:44:57.000Z</time>
      </trkpt>
      <trkpt lat="49.87007" lon="4.74322">
        <ele>185</ele>
        <time>2022-09-18T08:44:58.000Z</time>
      </trkpt>
      <trkpt lat="49.87008" lon="4.74321">
        <ele>184</ele>
        <time>2022-09-18T08:44:59.000Z</time>
      </trkpt>
      <trkpt lat="49.87008" lon="4.74321">
        <ele>184</ele>
        <time>2022-09-18T08:45:00.000Z</time>
      </trkpt>
      <trkpt lat="49.8701" lon="4.74322">
        <ele>184</ele>
        <time>2022-09-18T08:45:01.000Z</time>
      </trkpt>
      <trkpt lat="49.87013" lon="4.74322">
        <ele>183</ele>
        <time>2022-09-18T08:45:02.000Z</time>
      </trkpt>
      <trkpt lat="49.87015" lon="4.74323">
        <ele>183</ele>
        <time>2022-09-18T08:45:03.000Z</time>
      </trkpt>
      <trkpt lat="49.87019" lon="4.74322">
        <ele>183</ele>
        <time>2022-09-18T08:45:04.000Z</time>
      </trkpt>
      <trkpt lat="49.87022" lon="4.74321">
        <ele>182</ele>
        <time>2022-09-18T08:45:05.000Z</time>
      </trkpt>
      <trkpt lat="49.87024" lon="4.7432">
        <ele>182</ele>
        <time>2022-09-18T08:45:06.000Z</time>
      </trkpt>
      <trkpt lat="49.87024" lon="4.7432">
        <ele>182</ele>
        <time>2022-09-18T08:45:07.000Z</time>
      </trkpt>
      <trkpt lat="49.87024" lon="4.7432">
        <ele>182</ele>
        <time>2022-09-18T08:45:08.000Z</time>
      </trkpt>
      <trkpt lat="49.87025" lon="4.7432">
        <ele>181</ele>
        <time>2022-09-18T08:45:09.000Z</time>
      </trkpt>
      <trkpt lat="49.87025" lon="4.74319">
        <ele>181</ele>
        <time>2022-09-18T08:45:10.000Z</time>
      </trkpt>
      <trkpt lat="49.87026" lon="4.74319">
        <ele>181</ele>
        <time>2022-09-18T08:45:11.000Z</time>
      </trkpt>
      <trkpt lat="49.87026" lon="4.74319">
        <ele>181</ele>
        <time>2022-09-18T08:45:12.000Z</time>
      </trkpt>
      <trkpt lat="49.87026" lon="4.74319">
        <ele>181</ele>
        <time>2022-09-18T08:45:13.000Z</time>
      </trkpt>
      <trkpt lat="49.87026" lon="4.74318">
        <ele>180</ele>
        <time>2022-09-18T08:45:14.000Z</time>
      </trkpt>
      <trkpt lat="49.87026" lon="4.74318">
        <ele>180</ele>
        <time>2022-09-18T08:45:15.000Z</time>
      </trkpt>
      <trkpt lat="49.87027" lon="4.74318">
        <ele>180</ele>
        <time>2022-09-18T08:45:16.000Z</time>
      </trkpt>
      <trkpt lat="49.87027" lon="4.74318">
        <ele>180</ele>
        <time>2022-09-18T08:45:17.000Z</time>
      </trkpt>
      <trkpt lat="49.87027" lon="4.74317">
        <ele>180</ele>
        <time>2022-09-18T08:45:18.000Z</time>
      </trkpt>
      <trkpt lat="49.87027" lon="4.74317">
        <ele>180</ele>
        <time>2022-09-18T08:45:19.000Z</time>
      </trkpt>
      <trkpt lat="49.87027" lon="4.74317">
        <ele>180</ele>
        <time>2022-09-18T08:45:20.000Z</time>
      </trkpt>
      <trkpt lat="49.87027" lon="4.74317">
        <ele>180</ele>
        <time>2022-09-18T08:45:21.000Z</time>
      </trkpt>
      <trkpt lat="49.87027" lon="4.74317">
        <ele>180</ele>
        <time>2022-09-18T08:45:22.000Z</time>
      </trkpt>
      <trkpt lat="49.87027" lon="4.74316">
        <ele>180</ele>
        <time>2022-09-18T08:45:23.000Z</time>
      </trkpt>
      <trkpt lat="49.87028" lon="4.74316">
        <ele>180</ele>
        <time>2022-09-18T08:45:24.000Z</time>
      </trkpt>
      <trkpt lat="49.87028" lon="4.74316">
        <ele>180</ele>
        <time>2022-09-18T08:45:25.000Z</time>
      </trkpt>
      <trkpt lat="49.87028" lon="4.74316">
        <ele>180</ele>
        <time>2022-09-18T08:45:26.000Z</time>
      </trkpt>
      <trkpt lat="49.87028" lon="4.74316">
        <ele>180</ele>
        <time>2022-09-18T08:45:27.000Z</time>
      </trkpt>
      <trkpt lat="49.87028" lon="4.74316">
        <ele>180</ele>
        <time>2022-09-18T08:45:28.000Z</time>
      </trkpt>
      <trkpt lat="49.87028" lon="4.74316">
        <ele>180</ele>
        <time>2022-09-18T08:45:29.000Z</time>
      </trkpt>
      <trkpt lat="49.87028" lon="4.74315">
        <ele>180</ele>
        <time>2022-09-18T08:45:30.000Z</time>
      </trkpt>
      <trkpt lat="49.87028" lon="4.74315">
        <ele>180</ele>
        <time>2022-09-18T08:45:31.000Z</time>
      </trkpt>
      <trkpt lat="49.87028" lon="4.74315">
        <ele>180</ele>
        <time>2022-09-18T08:45:32.000Z</time>
      </trkpt>
      <trkpt lat="49.87028" lon="4.74315">
        <ele>180</ele>
        <time>2022-09-18T08:45:33.000Z</time>
      </trkpt>
      <trkpt lat="49.87028" lon="4.74315">
        <ele>180</ele>
        <time>2022-09-18T08:45:34.000Z</time>
      </trkpt>
      <trkpt lat="49.87028" lon="4.74315">
        <ele>180</ele>
        <time>2022-09-18T08:45:35.000Z</time>
      </trkpt>
      <trkpt lat="49.87029" lon="4.74315">
        <ele>180</ele>
        <time>2022-09-18T08:45:36.000Z</time>
      </trkpt>
      <trkpt lat="49.87029" lon="4.74315">
        <ele>180</ele>
        <time>2022-09-18T08:45:37.000Z</time>
      </trkpt>
      <trkpt lat="49.87029" lon="4.74315">
        <ele>180</ele>
        <time>2022-09-18T08:45:38.000Z</time>
      </trkpt>
      <trkpt lat="49.87029" lon="4.74315">
        <ele>180</ele>
        <time>2022-09-18T08:45:39.000Z</time>
      </trkpt>
      <trkpt lat="49.87029" lon="4.74314">
        <ele>180</ele>
        <time>2022-09-18T08:45:40.000Z</time>
      </trkpt>
      <trkpt lat="49.87029" lon="4.74314">
        <ele>180</ele>
        <time>2022-09-18T08:45:41.000Z</time>
      </trkpt>
      <trkpt lat="49.87029" lon="4.74314">
        <ele>180</ele>
        <time>2022-09-18T08:45:42.000Z</time>
      </trkpt>
      <trkpt lat="49.87029" lon="4.74314">
        <ele>180</ele>
        <time>2022-09-18T08:45:43.000Z</time>
      </trkpt>
      <trkpt lat="49.87029" lon="4.74314">
        <ele>180</ele>
        <time>2022-09-18T08:45:44.000Z</time>
      </trkpt>
      <trkpt lat="49.87029" lon="4.74314">
        <ele>180</ele>
        <time>2022-09-18T08:45:45.000Z</time>
      </trkpt>
      <trkpt lat="49.87029" lon="4.74314">
        <ele>180</ele>
        <time>2022-09-18T08:45:46.000Z</time>
      </trkpt>
      <trkpt lat="49.87029" lon="4.74314">
        <ele>180</ele>
        <time>2022-09-18T08:45:47.000Z</time>
      </trkpt>
      <trkpt lat="49.87029" lon="4.74314">
        <ele>180</ele>
        <time>2022-09-18T08:45:48.000Z</time>
      </trkpt>
      <trkpt lat="49.87029" lon="4.74314">
        <ele>180</ele>
        <time>2022-09-18T08:45:49.000Z</time>
      </trkpt>
      <trkpt lat="49.87029" lon="4.74314">
        <ele>180</ele>
        <time>2022-09-18T08:45:50.000Z</time>
      </trkpt>
      <trkpt lat="49.87029" lon="4.74314">
        <ele>180</ele>
        <time>2022-09-18T08:45:51.000Z</time>
      </trkpt>
      <trkpt lat="49.87029" lon="4.74314">
        <ele>180</ele>
        <time>2022-09-18T08:45:52.000Z</time>
      </trkpt>
      <trkpt lat="49.87029" lon="4.74314">
        <ele>180</ele>
        <time>2022-09-18T08:45:53.000Z</time>
      </trkpt>
      <trkpt lat="49.87029" lon="4.74314">
        <ele>180</ele>
        <time>2022-09-18T08:45:54.000Z</time>
      </trkpt>
      <trkpt lat="49.87029" lon="4.74314">
        <ele>180</ele>
        <time>2022-09-18T08:45:55.000Z</time>
      </trkpt>
      <trkpt lat="49.87029" lon="4.74314">
        <ele>180</ele>
        <time>2022-09-18T08:45:56.000Z</time>
      </trkpt>
      <trkpt lat="49.87029" lon="4.74314">
        <ele>180</ele>
        <time>2022-09-18T08:45:57.000Z</time>
      </trkpt>
      <trkpt lat="49.87029" lon="4.74314">
        <ele>180</ele>
        <time>2022-09-18T08:45:58.000Z</time>
      </trkpt>
      <trkpt lat="49.87029" lon="4.74314">
        <ele>180</ele>
        <time>2022-09-18T08:45:59.000Z</time>
      </trkpt>
      <trkpt lat="49.87029" lon="4.74314">
        <ele>180</ele>
        <time>2022-09-18T08:46:00.000Z</time>
      </trkpt>
      <trkpt lat="49.87029" lon="4.74314">
        <ele>180</ele>
        <time>2022-09-18T08:46:01.000Z</time>
      </trkpt>
      <trkpt lat="49.87029" lon="4.74314">
        <ele>180</ele>
        <time>2022-09-18T08:46:02.000Z</time>
      </trkpt>
      <trkpt lat="49.8703" lon="4.74313">
        <ele>180</ele>
        <time>2022-09-18T08:46:03.000Z</time>
      </trkpt>
      <trkpt lat="49.8703" lon="4.74314">
        <ele>180</ele>
        <time>2022-09-18T08:46:04.000Z</time>
      </trkpt>
      <trkpt lat="49.87032" lon="4.74315">
        <ele>180</ele>
        <time>2022-09-18T08:46:05.000Z</time>
      </trkpt>
      <trkpt lat="49.87034" lon="4.74315">
        <ele>180</ele>
        <time>2022-09-18T08:46:06.000Z</time>
      </trkpt>
      <trkpt lat="49.87036" lon="4.74316">
        <ele>180</ele>
        <time>2022-09-18T08:46:07.000Z</time>
      </trkpt>
      <trkpt lat="49.87039" lon="4.74317">
        <ele>180</ele>
        <time>2022-09-18T08:46:08.000Z</time>
      </trkpt>
      <trkpt lat="49.87041" lon="4.74318">
        <ele>180</ele>
        <time>2022-09-18T08:46:09.000Z</time>
      </trkpt>
      <trkpt lat="49.87044" lon="4.74319">
        <ele>180</ele>
        <time>2022-09-18T08:46:10.000Z</time>
      </trkpt>
      <trkpt lat="49.87047" lon="4.7432">
        <ele>180</ele>
        <time>2022-09-18T08:46:11.000Z</time>
      </trkpt>
      <trkpt lat="49.8705" lon="4.74321">
        <ele>179</ele>
        <time>2022-09-18T08:46:12.000Z</time>
      </trkpt>
      <trkpt lat="49.87053" lon="4.74323">
        <ele>179</ele>
        <time>2022-09-18T08:46:13.000Z</time>
      </trkpt>
      <trkpt lat="49.87056" lon="4.74324">
        <ele>179</ele>
        <time>2022-09-18T08:46:14.000Z</time>
      </trkpt>
      <trkpt lat="49.87059" lon="4.74326">
        <ele>179</ele>
        <time>2022-09-18T08:46:15.000Z</time>
      </trkpt>
      <trkpt lat="49.87062" lon="4.74327">
        <ele>179</ele>
        <time>2022-09-18T08:46:16.000Z</time>
      </trkpt>
      <trkpt lat="49.87065" lon="4.74329">
        <ele>178</ele>
        <time>2022-09-18T08:46:17.000Z</time>
      </trkpt>
      <trkpt lat="49.87069" lon="4.74331">
        <ele>178</ele>
        <time>2022-09-18T08:46:18.000Z</time>
      </trkpt>
      <trkpt lat="49.87073" lon="4.74334">
        <ele>178</ele>
        <time>2022-09-18T08:46:19.000Z</time>
      </trkpt>
      <trkpt lat="49.87076" lon="4.74338">
        <ele>178</ele>
        <time>2022-09-18T08:46:20.000Z</time>
      </trkpt>
      <trkpt lat="49.8708" lon="4.74341">
        <ele>178</ele>
        <time>2022-09-18T08:46:21.000Z</time>
      </trkpt>
      <trkpt lat="49.87082" lon="4.74343">
        <ele>177</ele>
        <time>2022-09-18T08:46:22.000Z</time>
      </trkpt>
      <trkpt lat="49.87084" lon="4.74346">
        <ele>177</ele>
        <time>2022-09-18T08:46:23.000Z</time>
      </trkpt>
      <trkpt lat="49.87086" lon="4.74348">
        <ele>177</ele>
        <time>2022-09-18T08:46:24.000Z</time>
      </trkpt>
      <trkpt lat="49.87088" lon="4.74349">
        <ele>177</ele>
        <time>2022-09-18T08:46:25.000Z</time>
      </trkpt>
      <trkpt lat="49.87091" lon="4.74351">
        <ele>177</ele>
        <time>2022-09-18T08:46:26.000Z</time>
      </trkpt>
      <trkpt lat="49.87093" lon="4.74353">
        <ele>177</ele>
        <time>2022-09-18T08:46:27.000Z</time>
      </trkpt>
      <trkpt lat="49.87095" lon="4.74355">
        <ele>177</ele>
        <time>2022-09-18T08:46:28.000Z</time>
      </trkpt>
      <trkpt lat="49.87097" lon="4.74357">
        <ele>177</ele>
        <time>2022-09-18T08:46:29.000Z</time>
      </trkpt>
      <trkpt lat="49.87099" lon="4.7436">
        <ele>177</ele>
        <time>2022-09-18T08:46:30.000Z</time>
      </trkpt>
      <trkpt lat="49.871" lon="4.74362">
        <ele>177</ele>
        <time>2022-09-18T08:46:31.000Z</time>
      </trkpt>
      <trkpt lat="49.87102" lon="4.74365">
        <ele>177</ele>
        <time>2022-09-18T08:46:32.000Z</time>
      </trkpt>
      <trkpt lat="49.87104" lon="4.74367">
        <ele>177</ele>
        <time>2022-09-18T08:46:33.000Z</time>
      </trkpt>
      <trkpt lat="49.87105" lon="4.7437">
        <ele>177</ele>
        <time>2022-09-18T08:46:34.000Z</time>
      </trkpt>
      <trkpt lat="49.87107" lon="4.74372">
        <ele>177</ele>
        <time>2022-09-18T08:46:35.000Z</time>
      </trkpt>
      <trkpt lat="49.87109" lon="4.74374">
        <ele>177</ele>
        <time>2022-09-18T08:46:36.000Z</time>
      </trkpt>
      <trkpt lat="49.87111" lon="4.74376">
        <ele>177</ele>
        <time>2022-09-18T08:46:37.000Z</time>
      </trkpt>
      <trkpt lat="49.87113" lon="4.74379">
        <ele>177</ele>
        <time>2022-09-18T08:46:38.000Z</time>
      </trkpt>
      <trkpt lat="49.87115" lon="4.74381">
        <ele>177</ele>
        <time>2022-09-18T08:46:39.000Z</time>
      </trkpt>
      <trkpt lat="49.87118" lon="4.74384">
        <ele>178</ele>
        <time>2022-09-18T08:46:40.000Z</time>
      </trkpt>
      <trkpt lat="49.8712" lon="4.74386">
        <ele>178</ele>
        <time>2022-09-18T08:46:41.000Z</time>
      </trkpt>
      <trkpt lat="49.87123" lon="4.74388">
        <ele>178</ele>
        <time>2022-09-18T08:46:42.000Z</time>
      </trkpt>
      <trkpt lat="49.87125" lon="4.7439">
        <ele>178</ele>
        <time>2022-09-18T08:46:43.000Z</time>
      </trkpt>
      <trkpt lat="49.87127" lon="4.74391">
        <ele>178</ele>
        <time>2022-09-18T08:46:44.000Z</time>
      </trkpt>
      <trkpt lat="49.87129" lon="4.74393">
        <ele>178</ele>
        <time>2022-09-18T08:46:45.000Z</time>
      </trkpt>
      <trkpt lat="49.87131" lon="4.74394">
        <ele>178</ele>
        <time>2022-09-18T08:46:46.000Z</time>
      </trkpt>
      <trkpt lat="49.87133" lon="4.74396">
        <ele>179</ele>
        <time>2022-09-18T08:46:47.000Z</time>
      </trkpt>
      <trkpt lat="49.87135" lon="4.74397">
        <ele>179</ele>
        <time>2022-09-18T08:46:48.000Z</time>
      </trkpt>
      <trkpt lat="49.87138" lon="4.74399">
        <ele>179</ele>
        <time>2022-09-18T08:46:49.000Z</time>
      </trkpt>
      <trkpt lat="49.87141" lon="4.744">
        <ele>179</ele>
        <time>2022-09-18T08:46:50.000Z</time>
      </trkpt>
      <trkpt lat="49.87143" lon="4.74402">
        <ele>179</ele>
        <time>2022-09-18T08:46:51.000Z</time>
      </trkpt>
      <trkpt lat="49.87145" lon="4.74404">
        <ele>179</ele>
        <time>2022-09-18T08:46:52.000Z</time>
      </trkpt>
      <trkpt lat="49.87148" lon="4.74406">
        <ele>180</ele>
        <time>2022-09-18T08:46:53.000Z</time>
      </trkpt>
      <trkpt lat="49.87151" lon="4.74408">
        <ele>180</ele>
        <time>2022-09-18T08:46:54.000Z</time>
      </trkpt>
      <trkpt lat="49.87153" lon="4.74409">
        <ele>180</ele>
        <time>2022-09-18T08:46:55.000Z</time>
      </trkpt>
      <trkpt lat="49.87156" lon="4.74411">
        <ele>180</ele>
        <time>2022-09-18T08:46:56.000Z</time>
      </trkpt>
      <trkpt lat="49.87157" lon="4.74413">
        <ele>181</ele>
        <time>2022-09-18T08:46:57.000Z</time>
      </trkpt>
      <trkpt lat="49.87159" lon="4.74416">
        <ele>181</ele>
        <time>2022-09-18T08:46:58.000Z</time>
      </trkpt>
      <trkpt lat="49.87161" lon="4.74418">
        <ele>181</ele>
        <time>2022-09-18T08:46:59.000Z</time>
      </trkpt>
      <trkpt lat="49.87163" lon="4.7442">
        <ele>182</ele>
        <time>2022-09-18T08:47:00.000Z</time>
      </trkpt>
      <trkpt lat="49.87165" lon="4.74422">
        <ele>182</ele>
        <time>2022-09-18T08:47:01.000Z</time>
      </trkpt>
      <trkpt lat="49.87168" lon="4.74423">
        <ele>182</ele>
        <time>2022-09-18T08:47:02.000Z</time>
      </trkpt>
      <trkpt lat="49.8717" lon="4.74425">
        <ele>183</ele>
        <time>2022-09-18T08:47:03.000Z</time>
      </trkpt>
      <trkpt lat="49.87173" lon="4.74427">
        <ele>183</ele>
        <time>2022-09-18T08:47:04.000Z</time>
      </trkpt>
      <trkpt lat="49.87175" lon="4.74429">
        <ele>183</ele>
        <time>2022-09-18T08:47:05.000Z</time>
      </trkpt>
      <trkpt lat="49.87178" lon="4.74432">
        <ele>183</ele>
        <time>2022-09-18T08:47:06.000Z</time>
      </trkpt>
      <trkpt lat="49.8718" lon="4.74434">
        <ele>184</ele>
        <time>2022-09-18T08:47:07.000Z</time>
      </trkpt>
      <trkpt lat="49.87182" lon="4.74437">
        <ele>184</ele>
        <time>2022-09-18T08:47:08.000Z</time>
      </trkpt>
      <trkpt lat="49.87184" lon="4.74439">
        <ele>184</ele>
        <time>2022-09-18T08:47:09.000Z</time>
      </trkpt>
      <trkpt lat="49.87186" lon="4.74441">
        <ele>184</ele>
        <time>2022-09-18T08:47:10.000Z</time>
      </trkpt>
      <trkpt lat="49.87188" lon="4.74444">
        <ele>184</ele>
        <time>2022-09-18T08:47:11.000Z</time>
      </trkpt>
      <trkpt lat="49.8719" lon="4.74445">
        <ele>184</ele>
        <time>2022-09-18T08:47:12.000Z</time>
      </trkpt>
      <trkpt lat="49.87192" lon="4.74448">
        <ele>185</ele>
        <time>2022-09-18T08:47:13.000Z</time>
      </trkpt>
      <trkpt lat="49.87195" lon="4.7445">
        <ele>185</ele>
        <time>2022-09-18T08:47:14.000Z</time>
      </trkpt>
      <trkpt lat="49.87196" lon="4.74453">
        <ele>185</ele>
        <time>2022-09-18T08:47:15.000Z</time>
      </trkpt>
      <trkpt lat="49.87198" lon="4.74455">
        <ele>185</ele>
        <time>2022-09-18T08:47:16.000Z</time>
      </trkpt>
      <trkpt lat="49.872" lon="4.74457">
        <ele>185</ele>
        <time>2022-09-18T08:47:17.000Z</time>
      </trkpt>
      <trkpt lat="49.87202" lon="4.74459">
        <ele>185</ele>
        <time>2022-09-18T08:47:18.000Z</time>
      </trkpt>
      <trkpt lat="49.87205" lon="4.74462">
        <ele>185</ele>
        <time>2022-09-18T08:47:19.000Z</time>
      </trkpt>
      <trkpt lat="49.87208" lon="4.74464">
        <ele>185</ele>
        <time>2022-09-18T08:47:20.000Z</time>
      </trkpt>
      <trkpt lat="49.8721" lon="4.74467">
        <ele>185</ele>
        <time>2022-09-18T08:47:21.000Z</time>
      </trkpt>
      <trkpt lat="49.87212" lon="4.74469">
        <ele>185</ele>
        <time>2022-09-18T08:47:22.000Z</time>
      </trkpt>
      <trkpt lat="49.87215" lon="4.74471">
        <ele>186</ele>
        <time>2022-09-18T08:47:23.000Z</time>
      </trkpt>
      <trkpt lat="49.87217" lon="4.74472">
        <ele>186</ele>
        <time>2022-09-18T08:47:24.000Z</time>
      </trkpt>
      <trkpt lat="49.8722" lon="4.74474">
        <ele>186</ele>
        <time>2022-09-18T08:47:25.000Z</time>
      </trkpt>
      <trkpt lat="49.87223" lon="4.74476">
        <ele>186</ele>
        <time>2022-09-18T08:47:26.000Z</time>
      </trkpt>
      <trkpt lat="49.87226" lon="4.74476">
        <ele>186</ele>
        <time>2022-09-18T08:47:27.000Z</time>
      </trkpt>
      <trkpt lat="49.8723" lon="4.74476">
        <ele>186</ele>
        <time>2022-09-18T08:47:28.000Z</time>
      </trkpt>
      <trkpt lat="49.87233" lon="4.74477">
        <ele>187</ele>
        <time>2022-09-18T08:47:29.000Z</time>
      </trkpt>
      <trkpt lat="49.87236" lon="4.74478">
        <ele>187</ele>
        <time>2022-09-18T08:47:30.000Z</time>
      </trkpt>
      <trkpt lat="49.87238" lon="4.74479">
        <ele>187</ele>
        <time>2022-09-18T08:47:31.000Z</time>
      </trkpt>
      <trkpt lat="49.87241" lon="4.74479">
        <ele>187</ele>
        <time>2022-09-18T08:47:32.000Z</time>
      </trkpt>
      <trkpt lat="49.87243" lon="4.7448">
        <ele>187</ele>
        <time>2022-09-18T08:47:33.000Z</time>
      </trkpt>
      <trkpt lat="49.87246" lon="4.74481">
        <ele>187</ele>
        <time>2022-09-18T08:47:34.000Z</time>
      </trkpt>
      <trkpt lat="49.87249" lon="4.74482">
        <ele>187</ele>
        <time>2022-09-18T08:47:35.000Z</time>
      </trkpt>
      <trkpt lat="49.87252" lon="4.74483">
        <ele>188</ele>
        <time>2022-09-18T08:47:36.000Z</time>
      </trkpt>
      <trkpt lat="49.87254" lon="4.74484">
        <ele>188</ele>
        <time>2022-09-18T08:47:37.000Z</time>
      </trkpt>
      <trkpt lat="49.87257" lon="4.74484">
        <ele>188</ele>
        <time>2022-09-18T08:47:38.000Z</time>
      </trkpt>
      <trkpt lat="49.87259" lon="4.74485">
        <ele>188</ele>
        <time>2022-09-18T08:47:39.000Z</time>
      </trkpt>
      <trkpt lat="49.87261" lon="4.74486">
        <ele>188</ele>
        <time>2022-09-18T08:47:40.000Z</time>
      </trkpt>
      <trkpt lat="49.87263" lon="4.74488">
        <ele>188</ele>
        <time>2022-09-18T08:47:41.000Z</time>
      </trkpt>
      <trkpt lat="49.87265" lon="4.74489">
        <ele>189</ele>
        <time>2022-09-18T08:47:42.000Z</time>
      </trkpt>
      <trkpt lat="49.87268" lon="4.74491">
        <ele>189</ele>
        <time>2022-09-18T08:47:43.000Z</time>
      </trkpt>
      <trkpt lat="49.8727" lon="4.74493">
        <ele>189</ele>
        <time>2022-09-18T08:47:44.000Z</time>
      </trkpt>
      <trkpt lat="49.87272" lon="4.74495">
        <ele>189</ele>
        <time>2022-09-18T08:47:45.000Z</time>
      </trkpt>
      <trkpt lat="49.87274" lon="4.74497">
        <ele>189</ele>
        <time>2022-09-18T08:47:46.000Z</time>
      </trkpt>
      <trkpt lat="49.87276" lon="4.74498">
        <ele>190</ele>
        <time>2022-09-18T08:47:47.000Z</time>
      </trkpt>
      <trkpt lat="49.87278" lon="4.745">
        <ele>190</ele>
        <time>2022-09-18T08:47:48.000Z</time>
      </trkpt>
      <trkpt lat="49.8728" lon="4.74502">
        <ele>190</ele>
        <time>2022-09-18T08:47:49.000Z</time>
      </trkpt>
      <trkpt lat="49.87282" lon="4.74504">
        <ele>190</ele>
        <time>2022-09-18T08:47:50.000Z</time>
      </trkpt>
      <trkpt lat="49.87284" lon="4.74505">
        <ele>191</ele>
        <time>2022-09-18T08:47:51.000Z</time>
      </trkpt>
      <trkpt lat="49.87286" lon="4.74507">
        <ele>191</ele>
        <time>2022-09-18T08:47:52.000Z</time>
      </trkpt>
      <trkpt lat="49.87289" lon="4.74507">
        <ele>191</ele>
        <time>2022-09-18T08:47:53.000Z</time>
      </trkpt>
      <trkpt lat="49.87291" lon="4.74508">
        <ele>191</ele>
        <time>2022-09-18T08:47:54.000Z</time>
      </trkpt>
      <trkpt lat="49.87293" lon="4.7451">
        <ele>192</ele>
        <time>2022-09-18T08:47:55.000Z</time>
      </trkpt>
      <trkpt lat="49.87295" lon="4.74511">
        <ele>192</ele>
        <time>2022-09-18T08:47:56.000Z</time>
      </trkpt>
      <trkpt lat="49.87297" lon="4.74513">
        <ele>192</ele>
        <time>2022-09-18T08:47:57.000Z</time>
      </trkpt>
      <trkpt lat="49.87299" lon="4.74514">
        <ele>193</ele>
        <time>2022-09-18T08:47:58.000Z</time>
      </trkpt>
      <trkpt lat="49.87301" lon="4.74515">
        <ele>193</ele>
        <time>2022-09-18T08:47:59.000Z</time>
      </trkpt>
      <trkpt lat="49.87303" lon="4.74517">
        <ele>193</ele>
        <time>2022-09-18T08:48:00.000Z</time>
      </trkpt>
      <trkpt lat="49.87305" lon="4.74518">
        <ele>194</ele>
        <time>2022-09-18T08:48:01.000Z</time>
      </trkpt>
      <trkpt lat="49.87306" lon="4.74518">
        <ele>194</ele>
        <time>2022-09-18T08:48:02.000Z</time>
      </trkpt>
      <trkpt lat="49.87308" lon="4.7452">
        <ele>194</ele>
        <time>2022-09-18T08:48:03.000Z</time>
      </trkpt>
      <trkpt lat="49.87309" lon="4.74522">
        <ele>194</ele>
        <time>2022-09-18T08:48:04.000Z</time>
      </trkpt>
      <trkpt lat="49.87308" lon="4.74524">
        <ele>195</ele>
        <time>2022-09-18T08:48:05.000Z</time>
      </trkpt>
      <trkpt lat="49.87307" lon="4.74525">
        <ele>195</ele>
        <time>2022-09-18T08:48:06.000Z</time>
      </trkpt>
      <trkpt lat="49.87306" lon="4.74527">
        <ele>195</ele>
        <time>2022-09-18T08:48:07.000Z</time>
      </trkpt>
      <trkpt lat="49.87305" lon="4.74527">
        <ele>195</ele>
        <time>2022-09-18T08:48:08.000Z</time>
      </trkpt>
      <trkpt lat="49.87303" lon="4.74528">
        <ele>195</ele>
        <time>2022-09-18T08:48:09.000Z</time>
      </trkpt>
      <trkpt lat="49.87302" lon="4.74528">
        <ele>195</ele>
        <time>2022-09-18T08:48:10.000Z</time>
      </trkpt>
      <trkpt lat="49.87301" lon="4.74529">
        <ele>196</ele>
        <time>2022-09-18T08:48:11.000Z</time>
      </trkpt>
      <trkpt lat="49.873" lon="4.7453">
        <ele>196</ele>
        <time>2022-09-18T08:48:12.000Z</time>
      </trkpt>
      <trkpt lat="49.87298" lon="4.74532">
        <ele>196</ele>
        <time>2022-09-18T08:48:13.000Z</time>
      </trkpt>
      <trkpt lat="49.87297" lon="4.74533">
        <ele>196</ele>
        <time>2022-09-18T08:48:14.000Z</time>
      </trkpt>
      <trkpt lat="49.87295" lon="4.74534">
        <ele>196</ele>
        <time>2022-09-18T08:48:15.000Z</time>
      </trkpt>
      <trkpt lat="49.87294" lon="4.74535">
        <ele>196</ele>
        <time>2022-09-18T08:48:16.000Z</time>
      </trkpt>
      <trkpt lat="49.87292" lon="4.74536">
        <ele>197</ele>
        <time>2022-09-18T08:48:17.000Z</time>
      </trkpt>
      <trkpt lat="49.87291" lon="4.74537">
        <ele>197</ele>
        <time>2022-09-18T08:48:18.000Z</time>
      </trkpt>
      <trkpt lat="49.87289" lon="4.74538">
        <ele>197</ele>
        <time>2022-09-18T08:48:19.000Z</time>
      </trkpt>
      <trkpt lat="49.87287" lon="4.74539">
        <ele>197</ele>
        <time>2022-09-18T08:48:20.000Z</time>
      </trkpt>
      <trkpt lat="49.87286" lon="4.7454">
        <ele>197</ele>
        <time>2022-09-18T08:48:21.000Z</time>
      </trkpt>
      <trkpt lat="49.87284" lon="4.74542">
        <ele>197</ele>
        <time>2022-09-18T08:48:22.000Z</time>
      </trkpt>
      <trkpt lat="49.87282" lon="4.74543">
        <ele>197</ele>
        <time>2022-09-18T08:48:23.000Z</time>
      </trkpt>
      <trkpt lat="49.8728" lon="4.74544">
        <ele>197</ele>
        <time>2022-09-18T08:48:24.000Z</time>
      </trkpt>
      <trkpt lat="49.87278" lon="4.74546">
        <ele>197</ele>
        <time>2022-09-18T08:48:25.000Z</time>
      </trkpt>
      <trkpt lat="49.87276" lon="4.74548">
        <ele>197</ele>
        <time>2022-09-18T08:48:26.000Z</time>
      </trkpt>
      <trkpt lat="49.87273" lon="4.74549">
        <ele>198</ele>
        <time>2022-09-18T08:48:27.000Z</time>
      </trkpt>
      <trkpt lat="49.87271" lon="4.74551">
        <ele>198</ele>
        <time>2022-09-18T08:48:28.000Z</time>
      </trkpt>
      <trkpt lat="49.8727" lon="4.74552">
        <ele>198</ele>
        <time>2022-09-18T08:48:29.000Z</time>
      </trkpt>
      <trkpt lat="49.87268" lon="4.74552">
        <ele>198</ele>
        <time>2022-09-18T08:48:30.000Z</time>
      </trkpt>
      <trkpt lat="49.87267" lon="4.74553">
        <ele>198</ele>
        <time>2022-09-18T08:48:31.000Z</time>
      </trkpt>
      <trkpt lat="49.87267" lon="4.74553">
        <ele>198</ele>
        <time>2022-09-18T08:48:32.000Z</time>
      </trkpt>
      <trkpt lat="49.87267" lon="4.74553">
        <ele>198</ele>
        <time>2022-09-18T08:48:33.000Z</time>
      </trkpt>
      <trkpt lat="49.87267" lon="4.74553">
        <ele>198</ele>
        <time>2022-09-18T08:48:34.000Z</time>
      </trkpt>
      <trkpt lat="49.87266" lon="4.74553">
        <ele>198</ele>
        <time>2022-09-18T08:48:35.000Z</time>
      </trkpt>
      <trkpt lat="49.87266" lon="4.74553">
        <ele>199</ele>
        <time>2022-09-18T08:48:36.000Z</time>
      </trkpt>
      <trkpt lat="49.87266" lon="4.74553">
        <ele>199</ele>
        <time>2022-09-18T08:48:37.000Z</time>
      </trkpt>
      <trkpt lat="49.87266" lon="4.74552">
        <ele>199</ele>
        <time>2022-09-18T08:48:38.000Z</time>
      </trkpt>
      <trkpt lat="49.87266" lon="4.74552">
        <ele>199</ele>
        <time>2022-09-18T08:48:39.000Z</time>
      </trkpt>
      <trkpt lat="49.87266" lon="4.74551">
        <ele>199</ele>
        <time>2022-09-18T08:48:40.000Z</time>
      </trkpt>
      <trkpt lat="49.87266" lon="4.74551">
        <ele>200</ele>
        <time>2022-09-18T08:48:41.000Z</time>
      </trkpt>
      <trkpt lat="49.87266" lon="4.74551">
        <ele>200</ele>
        <time>2022-09-18T08:48:42.000Z</time>
      </trkpt>
      <trkpt lat="49.87266" lon="4.74551">
        <ele>200</ele>
        <time>2022-09-18T08:48:43.000Z</time>
      </trkpt>
      <trkpt lat="49.87266" lon="4.7455">
        <ele>200</ele>
        <time>2022-09-18T08:48:44.000Z</time>
      </trkpt>
      <trkpt lat="49.87266" lon="4.7455">
        <ele>200</ele>
        <time>2022-09-18T08:48:45.000Z</time>
      </trkpt>
      <trkpt lat="49.87266" lon="4.7455">
        <ele>200</ele>
        <time>2022-09-18T08:48:46.000Z</time>
      </trkpt>
      <trkpt lat="49.87266" lon="4.7455">
        <ele>200</ele>
        <time>2022-09-18T08:48:47.000Z</time>
      </trkpt>
      <trkpt lat="49.87266" lon="4.7455">
        <ele>200</ele>
        <time>2022-09-18T08:48:48.000Z</time>
      </trkpt>
      <trkpt lat="49.87266" lon="4.7455">
        <ele>200</ele>
        <time>2022-09-18T08:48:49.000Z</time>
      </trkpt>
      <trkpt lat="49.87266" lon="4.7455">
        <ele>200</ele>
        <time>2022-09-18T08:48:50.000Z</time>
      </trkpt>
      <trkpt lat="49.87266" lon="4.7455">
        <ele>201</ele>
        <time>2022-09-18T08:48:51.000Z</time>
      </trkpt>
      <trkpt lat="49.87266" lon="4.7455">
        <ele>201</ele>
        <time>2022-09-18T08:48:52.000Z</time>
      </trkpt>
      <trkpt lat="49.87266" lon="4.74549">
        <ele>201</ele>
        <time>2022-09-18T08:48:53.000Z</time>
      </trkpt>
      <trkpt lat="49.87266" lon="4.74549">
        <ele>201</ele>
        <time>2022-09-18T08:48:54.000Z</time>
      </trkpt>
      <trkpt lat="49.87266" lon="4.74549">
        <ele>201</ele>
        <time>2022-09-18T08:48:55.000Z</time>
      </trkpt>
      <trkpt lat="49.87266" lon="4.74549">
        <ele>201</ele>
        <time>2022-09-18T08:48:56.000Z</time>
      </trkpt>
      <trkpt lat="49.87266" lon="4.74549">
        <ele>201</ele>
        <time>2022-09-18T08:48:57.000Z</time>
      </trkpt>
      <trkpt lat="49.87266" lon="4.74549">
        <ele>201</ele>
        <time>2022-09-18T08:48:58.000Z</time>
      </trkpt>
      <trkpt lat="49.87266" lon="4.74549">
        <ele>201</ele>
        <time>2022-09-18T08:48:59.000Z</time>
      </trkpt>
      <trkpt lat="49.87266" lon="4.74549">
        <ele>201</ele>
        <time>2022-09-18T08:49:00.000Z</time>
      </trkpt>
      <trkpt lat="49.87266" lon="4.74549">
        <ele>201</ele>
        <time>2022-09-18T08:49:01.000Z</time>
      </trkpt>
      <trkpt lat="49.87266" lon="4.74549">
        <ele>201</ele>
        <time>2022-09-18T08:49:02.000Z</time>
      </trkpt>
      <trkpt lat="49.87266" lon="4.74549">
        <ele>201</ele>
        <time>2022-09-18T08:49:03.000Z</time>
      </trkpt>
      <trkpt lat="49.87266" lon="4.74549">
        <ele>201</ele>
        <time>2022-09-18T08:49:04.000Z</time>
      </trkpt>
      <trkpt lat="49.87266" lon="4.74549">
        <ele>201</ele>
        <time>2022-09-18T08:49:05.000Z</time>
      </trkpt>
      <trkpt lat="49.87266" lon="4.74549">
        <ele>201</ele>
        <time>2022-09-18T08:49:06.000Z</time>
      </trkpt>
      <trkpt lat="49.87266" lon="4.74549">
        <ele>201</ele>
        <time>2022-09-18T08:49:07.000Z</time>
      </trkpt>
      <trkpt lat="49.87266" lon="4.74548">
        <ele>202</ele>
        <time>2022-09-18T08:49:08.000Z</time>
      </trkpt>
      <trkpt lat="49.87266" lon="4.74548">
        <ele>202</ele>
        <time>2022-09-18T08:49:09.000Z</time>
      </trkpt>
      <trkpt lat="49.87266" lon="4.74548">
        <ele>202</ele>
        <time>2022-09-18T08:49:10.000Z</time>
      </trkpt>
      <trkpt lat="49.87266" lon="4.74548">
        <ele>202</ele>
        <time>2022-09-18T08:49:11.000Z</time>
      </trkpt>
      <trkpt lat="49.87266" lon="4.74548">
        <ele>202</ele>
        <time>2022-09-18T08:49:12.000Z</time>
      </trkpt>
      <trkpt lat="49.87266" lon="4.74547">
        <ele>202</ele>
        <time>2022-09-18T08:49:13.000Z</time>
      </trkpt>
      <trkpt lat="49.87266" lon="4.74546">
        <ele>202</ele>
        <time>2022-09-18T08:49:14.000Z</time>
      </trkpt>
      <trkpt lat="49.87266" lon="4.74546">
        <ele>202</ele>
        <time>2022-09-18T08:49:15.000Z</time>
      </trkpt>
      <trkpt lat="49.87266" lon="4.74546">
        <ele>203</ele>
        <time>2022-09-18T08:49:16.000Z</time>
      </trkpt>
      <trkpt lat="49.87266" lon="4.74545">
        <ele>203</ele>
        <time>2022-09-18T08:49:17.000Z</time>
      </trkpt>
      <trkpt lat="49.87266" lon="4.74545">
        <ele>203</ele>
        <time>2022-09-18T08:49:18.000Z</time>
      </trkpt>
      <trkpt lat="49.87266" lon="4.74544">
        <ele>203</ele>
        <time>2022-09-18T08:49:19.000Z</time>
      </trkpt>
      <trkpt lat="49.87266" lon="4.74544">
        <ele>203</ele>
        <time>2022-09-18T08:49:20.000Z</time>
      </trkpt>
      <trkpt lat="49.87266" lon="4.74544">
        <ele>203</ele>
        <time>2022-09-18T08:49:21.000Z</time>
      </trkpt>
      <trkpt lat="49.87266" lon="4.74543">
        <ele>203</ele>
        <time>2022-09-18T08:49:22.000Z</time>
      </trkpt>
      <trkpt lat="49.87266" lon="4.74543">
        <ele>204</ele>
        <time>2022-09-18T08:49:23.000Z</time>
      </trkpt>
      <trkpt lat="49.87266" lon="4.74543">
        <ele>204</ele>
        <time>2022-09-18T08:49:24.000Z</time>
      </trkpt>
      <trkpt lat="49.87266" lon="4.74542">
        <ele>204</ele>
        <time>2022-09-18T08:49:25.000Z</time>
      </trkpt>
      <trkpt lat="49.87266" lon="4.74542">
        <ele>204</ele>
        <time>2022-09-18T08:49:26.000Z</time>
      </trkpt>
      <trkpt lat="49.87266" lon="4.74542">
        <ele>204</ele>
        <time>2022-09-18T08:49:27.000Z</time>
      </trkpt>
      <trkpt lat="49.87266" lon="4.74542">
        <ele>204</ele>
        <time>2022-09-18T08:49:28.000Z</time>
      </trkpt>
      <trkpt lat="49.87266" lon="4.74542">
        <ele>204</ele>
        <time>2022-09-18T08:49:29.000Z</time>
      </trkpt>
      <trkpt lat="49.87266" lon="4.74542">
        <ele>204</ele>
        <time>2022-09-18T08:49:30.000Z</time>
      </trkpt>
      <trkpt lat="49.87266" lon="4.74542">
        <ele>204</ele>
        <time>2022-09-18T08:49:31.000Z</time>
      </trkpt>
      <trkpt lat="49.87267" lon="4.74542">
        <ele>204</ele>
        <time>2022-09-18T08:49:32.000Z</time>
      </trkpt>
      <trkpt lat="49.87267" lon="4.74543">
        <ele>204</ele>
        <time>2022-09-18T08:49:33.000Z</time>
      </trkpt>
      <trkpt lat="49.87267" lon="4.74543">
        <ele>204</ele>
        <time>2022-09-18T08:49:34.000Z</time>
      </trkpt>
      <trkpt lat="49.87267" lon="4.74543">
        <ele>204</ele>
        <time>2022-09-18T08:49:35.000Z</time>
      </trkpt>
      <trkpt lat="49.87267" lon="4.74543">
        <ele>204</ele>
        <time>2022-09-18T08:49:36.000Z</time>
      </trkpt>
      <trkpt lat="49.87267" lon="4.74544">
        <ele>204</ele>
        <time>2022-09-18T08:49:37.000Z</time>
      </trkpt>
      <trkpt lat="49.87267" lon="4.74544">
        <ele>204</ele>
        <time>2022-09-18T08:49:38.000Z</time>
      </trkpt>
      <trkpt lat="49.87268" lon="4.74544">
        <ele>204</ele>
        <time>2022-09-18T08:49:39.000Z</time>
      </trkpt>
      <trkpt lat="49.87268" lon="4.74544">
        <ele>204</ele>
        <time>2022-09-18T08:49:40.000Z</time>
      </trkpt>
      <trkpt lat="49.87268" lon="4.74544">
        <ele>204</ele>
        <time>2022-09-18T08:49:41.000Z</time>
      </trkpt>
      <trkpt lat="49.87268" lon="4.74544">
        <ele>204</ele>
        <time>2022-09-18T08:49:42.000Z</time>
      </trkpt>
      <trkpt lat="49.87268" lon="4.74544">
        <ele>204</ele>
        <time>2022-09-18T08:49:43.000Z</time>
      </trkpt>
      <trkpt lat="49.87268" lon="4.74545">
        <ele>204</ele>
        <time>2022-09-18T08:49:44.000Z</time>
      </trkpt>
      <trkpt lat="49.87268" lon="4.74545">
        <ele>204</ele>
        <time>2022-09-18T08:49:45.000Z</time>
      </trkpt>
      <trkpt lat="49.87268" lon="4.74545">
        <ele>204</ele>
        <time>2022-09-18T08:49:46.000Z</time>
      </trkpt>
      <trkpt lat="49.87268" lon="4.74545">
        <ele>204</ele>
        <time>2022-09-18T08:49:47.000Z</time>
      </trkpt>
      <trkpt lat="49.87268" lon="4.74545">
        <ele>204</ele>
        <time>2022-09-18T08:49:48.000Z</time>
      </trkpt>
      <trkpt lat="49.87269" lon="4.74545">
        <ele>204</ele>
        <time>2022-09-18T08:49:49.000Z</time>
      </trkpt>
      <trkpt lat="49.87269" lon="4.74545">
        <ele>204</ele>
        <time>2022-09-18T08:49:50.000Z</time>
      </trkpt>
      <trkpt lat="49.87269" lon="4.74545">
        <ele>204</ele>
        <time>2022-09-18T08:49:51.000Z</time>
      </trkpt>
      <trkpt lat="49.87269" lon="4.74545">
        <ele>204</ele>
        <time>2022-09-18T08:49:52.000Z</time>
      </trkpt>
      <trkpt lat="49.87269" lon="4.74545">
        <ele>204</ele>
        <time>2022-09-18T08:49:53.000Z</time>
      </trkpt>
      <trkpt lat="49.87269" lon="4.74545">
        <ele>204</ele>
        <time>2022-09-18T08:49:54.000Z</time>
      </trkpt>
      <trkpt lat="49.87269" lon="4.74545">
        <ele>204</ele>
        <time>2022-09-18T08:49:55.000Z</time>
      </trkpt>
      <trkpt lat="49.87269" lon="4.74545">
        <ele>204</ele>
        <time>2022-09-18T08:49:56.000Z</time>
      </trkpt>
      <trkpt lat="49.87269" lon="4.74546">
        <ele>204</ele>
        <time>2022-09-18T08:49:57.000Z</time>
      </trkpt>
      <trkpt lat="49.87269" lon="4.74546">
        <ele>204</ele>
        <time>2022-09-18T08:49:58.000Z</time>
      </trkpt>
      <trkpt lat="49.87269" lon="4.74546">
        <ele>204</ele>
        <time>2022-09-18T08:49:59.000Z</time>
      </trkpt>
      <trkpt lat="49.87269" lon="4.74546">
        <ele>204</ele>
        <time>2022-09-18T08:50:00.000Z</time>
      </trkpt>
      <trkpt lat="49.87269" lon="4.74546">
        <ele>204</ele>
        <time>2022-09-18T08:50:01.000Z</time>
      </trkpt>
      <trkpt lat="49.87269" lon="4.74546">
        <ele>204</ele>
        <time>2022-09-18T08:50:02.000Z</time>
      </trkpt>
      <trkpt lat="49.87269" lon="4.74546">
        <ele>204</ele>
        <time>2022-09-18T08:50:03.000Z</time>
      </trkpt>
      <trkpt lat="49.87269" lon="4.74546">
        <ele>204</ele>
        <time>2022-09-18T08:50:04.000Z</time>
      </trkpt>
      <trkpt lat="49.87269" lon="4.74546">
        <ele>204</ele>
        <time>2022-09-18T08:50:05.000Z</time>
      </trkpt>
      <trkpt lat="49.87269" lon="4.74546">
        <ele>204</ele>
        <time>2022-09-18T08:50:06.000Z</time>
      </trkpt>
      <trkpt lat="49.8727" lon="4.74546">
        <ele>204</ele>
        <time>2022-09-18T08:50:07.000Z</time>
      </trkpt>
      <trkpt lat="49.8727" lon="4.74546">
        <ele>204</ele>
        <time>2022-09-18T08:50:08.000Z</time>
      </trkpt>
      <trkpt lat="49.8727" lon="4.74546">
        <ele>204</ele>
        <time>2022-09-18T08:50:09.000Z</time>
      </trkpt>
      <trkpt lat="49.8727" lon="4.74545">
        <ele>204</ele>
        <time>2022-09-18T08:50:10.000Z</time>
      </trkpt>
      <trkpt lat="49.8727" lon="4.74545">
        <ele>204</ele>
        <time>2022-09-18T08:50:11.000Z</time>
      </trkpt>
      <trkpt lat="49.8727" lon="4.74545">
        <ele>204</ele>
        <time>2022-09-18T08:50:12.000Z</time>
      </trkpt>
      <trkpt lat="49.8727" lon="4.74545">
        <ele>204</ele>
        <time>2022-09-18T08:50:13.000Z</time>
      </trkpt>
      <trkpt lat="49.8727" lon="4.74545">
        <ele>204</ele>
        <time>2022-09-18T08:50:14.000Z</time>
      </trkpt>
      <trkpt lat="49.8727" lon="4.74545">
        <ele>204</ele>
        <time>2022-09-18T08:50:15.000Z</time>
      </trkpt>
      <trkpt lat="49.8727" lon="4.74545">
        <ele>204</ele>
        <time>2022-09-18T08:50:16.000Z</time>
      </trkpt>
      <trkpt lat="49.8727" lon="4.74545">
        <ele>204</ele>
        <time>2022-09-18T08:50:17.000Z</time>
      </trkpt>
      <trkpt lat="49.8727" lon="4.74545">
        <ele>204</ele>
        <time>2022-09-18T08:50:18.000Z</time>
      </trkpt>
      <trkpt lat="49.8727" lon="4.74545">
        <ele>204</ele>
        <time>2022-09-18T08:50:19.000Z</time>
      </trkpt>
      <trkpt lat="49.8727" lon="4.74545">
        <ele>204</ele>
        <time>2022-09-18T08:50:20.000Z</time>
      </trkpt>
      <trkpt lat="49.8727" lon="4.74545">
        <ele>203</ele>
        <time>2022-09-18T08:50:21.000Z</time>
      </trkpt>
      <trkpt lat="49.8727" lon="4.74545">
        <ele>203</ele>
        <time>2022-09-18T08:50:22.000Z</time>
      </trkpt>
      <trkpt lat="49.8727" lon="4.74545">
        <ele>203</ele>
        <time>2022-09-18T08:50:23.000Z</time>
      </trkpt>
      <trkpt lat="49.8727" lon="4.74545">
        <ele>203</ele>
        <time>2022-09-18T08:50:24.000Z</time>
      </trkpt>
      <trkpt lat="49.8727" lon="4.74545">
        <ele>203</ele>
        <time>2022-09-18T08:50:25.000Z</time>
      </trkpt>
      <trkpt lat="49.8727" lon="4.74545">
        <ele>203</ele>
        <time>2022-09-18T08:50:26.000Z</time>
      </trkpt>
      <trkpt lat="49.8727" lon="4.74545">
        <ele>203</ele>
        <time>2022-09-18T08:50:27.000Z</time>
      </trkpt>
      <trkpt lat="49.8727" lon="4.74545">
        <ele>203</ele>
        <time>2022-09-18T08:50:28.000Z</time>
      </trkpt>
      <trkpt lat="49.8727" lon="4.74545">
        <ele>203</ele>
        <time>2022-09-18T08:50:29.000Z</time>
      </trkpt>
      <trkpt lat="49.8727" lon="4.74545">
        <ele>203</ele>
        <time>2022-09-18T08:50:30.000Z</time>
      </trkpt>
      <trkpt lat="49.8727" lon="4.74545">
        <ele>203</ele>
        <time>2022-09-18T08:50:31.000Z</time>
      </trkpt>
      <trkpt lat="49.8727" lon="4.74545">
        <ele>202</ele>
        <time>2022-09-18T08:50:32.000Z</time>
      </trkpt>
      <trkpt lat="49.8727" lon="4.74545">
        <ele>202</ele>
        <time>2022-09-18T08:50:33.000Z</time>
      </trkpt>
      <trkpt lat="49.8727" lon="4.74545">
        <ele>202</ele>
        <time>2022-09-18T08:50:34.000Z</time>
      </trkpt>
      <trkpt lat="49.8727" lon="4.74545">
        <ele>202</ele>
        <time>2022-09-18T08:50:35.000Z</time>
      </trkpt>
      <trkpt lat="49.8727" lon="4.74545">
        <ele>202</ele>
        <time>2022-09-18T08:50:36.000Z</time>
      </trkpt>
      <trkpt lat="49.8727" lon="4.74545">
        <ele>202</ele>
        <time>2022-09-18T08:50:37.000Z</time>
      </trkpt>
      <trkpt lat="49.8727" lon="4.74545">
        <ele>202</ele>
        <time>2022-09-18T08:50:38.000Z</time>
      </trkpt>
      <trkpt lat="49.8727" lon="4.74545">
        <ele>202</ele>
        <time>2022-09-18T08:50:39.000Z</time>
      </trkpt>
      <trkpt lat="49.8727" lon="4.74545">
        <ele>202</ele>
        <time>2022-09-18T08:50:40.000Z</time>
      </trkpt>
      <trkpt lat="49.8727" lon="4.74545">
        <ele>202</ele>
        <time>2022-09-18T08:50:41.000Z</time>
      </trkpt>
      <trkpt lat="49.8727" lon="4.74545">
        <ele>202</ele>
        <time>2022-09-18T08:50:42.000Z</time>
      </trkpt>
      <trkpt lat="49.8727" lon="4.74545">
        <ele>202</ele>
        <time>2022-09-18T08:50:43.000Z</time>
      </trkpt>
      <trkpt lat="49.8727" lon="4.74546">
        <ele>202</ele>
        <time>2022-09-18T08:50:44.000Z</time>
      </trkpt>
      <trkpt lat="49.8727" lon="4.74546">
        <ele>202</ele>
        <time>2022-09-18T08:50:45.000Z</time>
      </trkpt>
      <trkpt lat="49.8727" lon="4.74546">
        <ele>202</ele>
        <time>2022-09-18T08:50:46.000Z</time>
      </trkpt>
      <trkpt lat="49.8727" lon="4.74546">
        <ele>202</ele>
        <time>2022-09-18T08:50:47.000Z</time>
      </trkpt>
      <trkpt lat="49.8727" lon="4.74546">
        <ele>202</ele>
        <time>2022-09-18T08:50:48.000Z</time>
      </trkpt>
      <trkpt lat="49.8727" lon="4.74546">
        <ele>202</ele>
        <time>2022-09-18T08:50:49.000Z</time>
      </trkpt>
      <trkpt lat="49.8727" lon="4.74546">
        <ele>202</ele>
        <time>2022-09-18T08:50:50.000Z</time>
      </trkpt>
      <trkpt lat="49.8727" lon="4.74546">
        <ele>202</ele>
        <time>2022-09-18T08:50:51.000Z</time>
      </trkpt>
      <trkpt lat="49.8727" lon="4.74546">
        <ele>202</ele>
        <time>2022-09-18T08:50:52.000Z</time>
      </trkpt>
      <trkpt lat="49.8727" lon="4.74546">
        <ele>202</ele>
        <time>2022-09-18T08:50:53.000Z</time>
      </trkpt>
      <trkpt lat="49.8727" lon="4.74546">
        <ele>202</ele>
        <time>2022-09-18T08:50:54.000Z</time>
      </trkpt>
      <trkpt lat="49.87271" lon="4.74546">
        <ele>202</ele>
        <time>2022-09-18T08:50:55.000Z</time>
      </trkpt>
      <trkpt lat="49.87271" lon="4.74545">
        <ele>202</ele>
        <time>2022-09-18T08:50:56.000Z</time>
      </trkpt>
      <trkpt lat="49.87272" lon="4.74545">
        <ele>202</ele>
        <time>2022-09-18T08:50:57.000Z</time>
      </trkpt>
      <trkpt lat="49.87274" lon="4.74543">
        <ele>202</ele>
        <time>2022-09-18T08:50:58.000Z</time>
      </trkpt>
      <trkpt lat="49.87277" lon="4.74542">
        <ele>202</ele>
        <time>2022-09-18T08:50:59.000Z</time>
      </trkpt>
      <trkpt lat="49.87279" lon="4.74541">
        <ele>201</ele>
        <time>2022-09-18T08:51:00.000Z</time>
      </trkpt>
      <trkpt lat="49.87283" lon="4.74539">
        <ele>201</ele>
        <time>2022-09-18T08:51:01.000Z</time>
      </trkpt>
      <trkpt lat="49.87288" lon="4.74538">
        <ele>201</ele>
        <time>2022-09-18T08:51:02.000Z</time>
      </trkpt>
      <trkpt lat="49.87293" lon="4.74536">
        <ele>201</ele>
        <time>2022-09-18T08:51:03.000Z</time>
      </trkpt>
      <trkpt lat="49.87297" lon="4.74534">
        <ele>201</ele>
        <time>2022-09-18T08:51:04.000Z</time>
      </trkpt>
      <trkpt lat="49.873" lon="4.74533">
        <ele>201</ele>
        <time>2022-09-18T08:51:05.000Z</time>
      </trkpt>
      <trkpt lat="49.87303" lon="4.74532">
        <ele>201</ele>
        <time>2022-09-18T08:51:06.000Z</time>
      </trkpt>
      <trkpt lat="49.87307" lon="4.7453">
        <ele>201</ele>
        <time>2022-09-18T08:51:07.000Z</time>
      </trkpt>
      <trkpt lat="49.8731" lon="4.74528">
        <ele>201</ele>
        <time>2022-09-18T08:51:08.000Z</time>
      </trkpt>
      <trkpt lat="49.87314" lon="4.74528">
        <ele>201</ele>
        <time>2022-09-18T08:51:09.000Z</time>
      </trkpt>
      <trkpt lat="49.87317" lon="4.74527">
        <ele>201</ele>
        <time>2022-09-18T08:51:10.000Z</time>
      </trkpt>
      <trkpt lat="49.87321" lon="4.74528">
        <ele>201</ele>
        <time>2022-09-18T08:51:11.000Z</time>
      </trkpt>
      <trkpt lat="49.87326" lon="4.74528">
        <ele>201</ele>
        <time>2022-09-18T08:51:12.000Z</time>
      </trkpt>
      <trkpt lat="49.87331" lon="4.74528">
        <ele>201</ele>
        <time>2022-09-18T08:51:13.000Z</time>
      </trkpt>
      <trkpt lat="49.87336" lon="4.74528">
        <ele>200</ele>
        <time>2022-09-18T08:51:14.000Z</time>
      </trkpt>
      <trkpt lat="49.87342" lon="4.74528">
        <ele>200</ele>
        <time>2022-09-18T08:51:15.000Z</time>
      </trkpt>
      <trkpt lat="49.87348" lon="4.74529">
        <ele>200</ele>
        <time>2022-09-18T08:51:16.000Z</time>
      </trkpt>
      <trkpt lat="49.87354" lon="4.7453">
        <ele>200</ele>
        <time>2022-09-18T08:51:17.000Z</time>
      </trkpt>
      <trkpt lat="49.8736" lon="4.74533">
        <ele>200</ele>
        <time>2022-09-18T08:51:18.000Z</time>
      </trkpt>
      <trkpt lat="49.87365" lon="4.74536">
        <ele>199</ele>
        <time>2022-09-18T08:51:19.000Z</time>
      </trkpt>
      <trkpt lat="49.8737" lon="4.74538">
        <ele>199</ele>
        <time>2022-09-18T08:51:20.000Z</time>
      </trkpt>
      <trkpt lat="49.87374" lon="4.74539">
        <ele>199</ele>
        <time>2022-09-18T08:51:21.000Z</time>
      </trkpt>
      <trkpt lat="49.8738" lon="4.74542">
        <ele>199</ele>
        <time>2022-09-18T08:51:22.000Z</time>
      </trkpt>
      <trkpt lat="49.87385" lon="4.74543">
        <ele>199</ele>
        <time>2022-09-18T08:51:23.000Z</time>
      </trkpt>
      <trkpt lat="49.8739" lon="4.74545">
        <ele>199</ele>
        <time>2022-09-18T08:51:24.000Z</time>
      </trkpt>
      <trkpt lat="49.87395" lon="4.74546">
        <ele>198</ele>
        <time>2022-09-18T08:51:25.000Z</time>
      </trkpt>
      <trkpt lat="49.874" lon="4.74546">
        <ele>198</ele>
        <time>2022-09-18T08:51:26.000Z</time>
      </trkpt>
      <trkpt lat="49.87404" lon="4.74547">
        <ele>198</ele>
        <time>2022-09-18T08:51:27.000Z</time>
      </trkpt>
      <trkpt lat="49.87409" lon="4.74548">
        <ele>198</ele>
        <time>2022-09-18T08:51:28.000Z</time>
      </trkpt>
      <trkpt lat="49.87414" lon="4.74549">
        <ele>197</ele>
        <time>2022-09-18T08:51:29.000Z</time>
      </trkpt>
      <trkpt lat="49.87419" lon="4.74549">
        <ele>197</ele>
        <time>2022-09-18T08:51:30.000Z</time>
      </trkpt>
      <trkpt lat="49.87423" lon="4.74549">
        <ele>197</ele>
        <time>2022-09-18T08:51:31.000Z</time>
      </trkpt>
      <trkpt lat="49.87428" lon="4.74549">
        <ele>197</ele>
        <time>2022-09-18T08:51:32.000Z</time>
      </trkpt>
      <trkpt lat="49.87432" lon="4.74549">
        <ele>197</ele>
        <time>2022-09-18T08:51:33.000Z</time>
      </trkpt>
      <trkpt lat="49.87436" lon="4.74549">
        <ele>197</ele>
        <time>2022-09-18T08:51:34.000Z</time>
      </trkpt>
      <trkpt lat="49.87439" lon="4.74549">
        <ele>197</ele>
        <time>2022-09-18T08:51:35.000Z</time>
      </trkpt>
      <trkpt lat="49.87442" lon="4.74549">
        <ele>196</ele>
        <time>2022-09-18T08:51:36.000Z</time>
      </trkpt>
      <trkpt lat="49.87446" lon="4.7455">
        <ele>196</ele>
        <time>2022-09-18T08:51:37.000Z</time>
      </trkpt>
      <trkpt lat="49.8745" lon="4.74551">
        <ele>196</ele>
        <time>2022-09-18T08:51:38.000Z</time>
      </trkpt>
      <trkpt lat="49.87454" lon="4.74551">
        <ele>196</ele>
        <time>2022-09-18T08:51:39.000Z</time>
      </trkpt>
      <trkpt lat="49.87458" lon="4.74551">
        <ele>195</ele>
        <time>2022-09-18T08:51:40.000Z</time>
      </trkpt>
      <trkpt lat="49.87461" lon="4.74551">
        <ele>195</ele>
        <time>2022-09-18T08:51:41.000Z</time>
      </trkpt>
      <trkpt lat="49.87462" lon="4.74552">
        <ele>195</ele>
        <time>2022-09-18T08:51:42.000Z</time>
      </trkpt>
      <trkpt lat="49.87464" lon="4.74551">
        <ele>195</ele>
        <time>2022-09-18T08:51:43.000Z</time>
      </trkpt>
      <trkpt lat="49.87465" lon="4.74551">
        <ele>194</ele>
        <time>2022-09-18T08:51:44.000Z</time>
      </trkpt>
      <trkpt lat="49.87465" lon="4.74551">
        <ele>194</ele>
        <time>2022-09-18T08:51:45.000Z</time>
      </trkpt>
      <trkpt lat="49.87465" lon="4.74551">
        <ele>194</ele>
        <time>2022-09-18T08:51:46.000Z</time>
      </trkpt>
      <trkpt lat="49.87465" lon="4.74551">
        <ele>194</ele>
        <time>2022-09-18T08:51:47.000Z</time>
      </trkpt>
      <trkpt lat="49.87466" lon="4.74551">
        <ele>193</ele>
        <time>2022-09-18T08:51:48.000Z</time>
      </trkpt>
      <trkpt lat="49.87468" lon="4.74551">
        <ele>193</ele>
        <time>2022-09-18T08:51:49.000Z</time>
      </trkpt>
      <trkpt lat="49.87469" lon="4.74551">
        <ele>193</ele>
        <time>2022-09-18T08:51:50.000Z</time>
      </trkpt>
      <trkpt lat="49.87469" lon="4.74551">
        <ele>193</ele>
        <time>2022-09-18T08:51:51.000Z</time>
      </trkpt>
      <trkpt lat="49.87469" lon="4.74551">
        <ele>193</ele>
        <time>2022-09-18T08:51:52.000Z</time>
      </trkpt>
      <trkpt lat="49.87469" lon="4.74551">
        <ele>193</ele>
        <time>2022-09-18T08:51:53.000Z</time>
      </trkpt>
      <trkpt lat="49.87469" lon="4.74551">
        <ele>193</ele>
        <time>2022-09-18T08:51:54.000Z</time>
      </trkpt>
      <trkpt lat="49.8747" lon="4.7455">
        <ele>193</ele>
        <time>2022-09-18T08:51:55.000Z</time>
      </trkpt>
      <trkpt lat="49.87471" lon="4.7455">
        <ele>193</ele>
        <time>2022-09-18T08:51:56.000Z</time>
      </trkpt>
      <trkpt lat="49.87473" lon="4.7455">
        <ele>193</ele>
        <time>2022-09-18T08:51:57.000Z</time>
      </trkpt>
      <trkpt lat="49.87475" lon="4.74549">
        <ele>193</ele>
        <time>2022-09-18T08:51:58.000Z</time>
      </trkpt>
      <trkpt lat="49.87477" lon="4.7455">
        <ele>193</ele>
        <time>2022-09-18T08:51:59.000Z</time>
      </trkpt>
      <trkpt lat="49.87479" lon="4.74551">
        <ele>193</ele>
        <time>2022-09-18T08:52:00.000Z</time>
      </trkpt>
      <trkpt lat="49.87482" lon="4.74551">
        <ele>193</ele>
        <time>2022-09-18T08:52:01.000Z</time>
      </trkpt>
      <trkpt lat="49.87485" lon="4.74552">
        <ele>193</ele>
        <time>2022-09-18T08:52:02.000Z</time>
      </trkpt>
      <trkpt lat="49.87489" lon="4.74551">
        <ele>193</ele>
        <time>2022-09-18T08:52:03.000Z</time>
      </trkpt>
      <trkpt lat="49.87492" lon="4.74551">
        <ele>193</ele>
        <time>2022-09-18T08:52:04.000Z</time>
      </trkpt>
      <trkpt lat="49.87496" lon="4.74551">
        <ele>192</ele>
        <time>2022-09-18T08:52:05.000Z</time>
      </trkpt>
      <trkpt lat="49.87499" lon="4.74551">
        <ele>192</ele>
        <time>2022-09-18T08:52:06.000Z</time>
      </trkpt>
      <trkpt lat="49.87502" lon="4.7455">
        <ele>192</ele>
        <time>2022-09-18T08:52:07.000Z</time>
      </trkpt>
      <trkpt lat="49.87506" lon="4.74551">
        <ele>192</ele>
        <time>2022-09-18T08:52:08.000Z</time>
      </trkpt>
      <trkpt lat="49.8751" lon="4.74551">
        <ele>192</ele>
        <time>2022-09-18T08:52:09.000Z</time>
      </trkpt>
      <trkpt lat="49.87514" lon="4.74551">
        <ele>192</ele>
        <time>2022-09-18T08:52:10.000Z</time>
      </trkpt>
      <trkpt lat="49.87518" lon="4.74551">
        <ele>192</ele>
        <time>2022-09-18T08:52:11.000Z</time>
      </trkpt>
      <trkpt lat="49.87522" lon="4.74551">
        <ele>192</ele>
        <time>2022-09-18T08:52:12.000Z</time>
      </trkpt>
      <trkpt lat="49.87527" lon="4.74552">
        <ele>192</ele>
        <time>2022-09-18T08:52:13.000Z</time>
      </trkpt>
      <trkpt lat="49.87531" lon="4.74553">
        <ele>192</ele>
        <time>2022-09-18T08:52:14.000Z</time>
      </trkpt>
      <trkpt lat="49.87535" lon="4.74552">
        <ele>192</ele>
        <time>2022-09-18T08:52:15.000Z</time>
      </trkpt>
      <trkpt lat="49.87539" lon="4.74552">
        <ele>192</ele>
        <time>2022-09-18T08:52:16.000Z</time>
      </trkpt>
      <trkpt lat="49.87543" lon="4.74552">
        <ele>192</ele>
        <time>2022-09-18T08:52:17.000Z</time>
      </trkpt>
      <trkpt lat="49.87547" lon="4.74553">
        <ele>192</ele>
        <time>2022-09-18T08:52:18.000Z</time>
      </trkpt>
      <trkpt lat="49.87551" lon="4.74554">
        <ele>192</ele>
        <time>2022-09-18T08:52:19.000Z</time>
      </trkpt>
      <trkpt lat="49.87555" lon="4.74554">
        <ele>192</ele>
        <time>2022-09-18T08:52:20.000Z</time>
      </trkpt>
      <trkpt lat="49.87558" lon="4.74555">
        <ele>192</ele>
        <time>2022-09-18T08:52:21.000Z</time>
      </trkpt>
      <trkpt lat="49.87562" lon="4.74555">
        <ele>192</ele>
        <time>2022-09-18T08:52:22.000Z</time>
      </trkpt>
      <trkpt lat="49.87566" lon="4.74555">
        <ele>192</ele>
        <time>2022-09-18T08:52:23.000Z</time>
      </trkpt>
      <trkpt lat="49.87571" lon="4.74555">
        <ele>191</ele>
        <time>2022-09-18T08:52:24.000Z</time>
      </trkpt>
      <trkpt lat="49.87575" lon="4.74555">
        <ele>191</ele>
        <time>2022-09-18T08:52:25.000Z</time>
      </trkpt>
      <trkpt lat="49.87579" lon="4.74556">
        <ele>191</ele>
        <time>2022-09-18T08:52:26.000Z</time>
      </trkpt>
      <trkpt lat="49.87583" lon="4.74556">
        <ele>191</ele>
        <time>2022-09-18T08:52:27.000Z</time>
      </trkpt>
      <trkpt lat="49.87587" lon="4.74557">
        <ele>191</ele>
        <time>2022-09-18T08:52:28.000Z</time>
      </trkpt>
      <trkpt lat="49.8759" lon="4.74557">
        <ele>191</ele>
        <time>2022-09-18T08:52:29.000Z</time>
      </trkpt>
      <trkpt lat="49.87593" lon="4.74557">
        <ele>191</ele>
        <time>2022-09-18T08:52:30.000Z</time>
      </trkpt>
      <trkpt lat="49.87597" lon="4.74557">
        <ele>190</ele>
        <time>2022-09-18T08:52:31.000Z</time>
      </trkpt>
      <trkpt lat="49.876" lon="4.74557">
        <ele>190</ele>
        <time>2022-09-18T08:52:32.000Z</time>
      </trkpt>
      <trkpt lat="49.87604" lon="4.74557">
        <ele>190</ele>
        <time>2022-09-18T08:52:33.000Z</time>
      </trkpt>
      <trkpt lat="49.87607" lon="4.74557">
        <ele>190</ele>
        <time>2022-09-18T08:52:34.000Z</time>
      </trkpt>
      <trkpt lat="49.8761" lon="4.74557">
        <ele>190</ele>
        <time>2022-09-18T08:52:35.000Z</time>
      </trkpt>
      <trkpt lat="49.87613" lon="4.74556">
        <ele>190</ele>
        <time>2022-09-18T08:52:36.000Z</time>
      </trkpt>
      <trkpt lat="49.87616" lon="4.74553">
        <ele>190</ele>
        <time>2022-09-18T08:52:37.000Z</time>
      </trkpt>
      <trkpt lat="49.87619" lon="4.7455">
        <ele>190</ele>
        <time>2022-09-18T08:52:38.000Z</time>
      </trkpt>
      <trkpt lat="49.87622" lon="4.74546">
        <ele>190</ele>
        <time>2022-09-18T08:52:39.000Z</time>
      </trkpt>
      <trkpt lat="49.87625" lon="4.74541">
        <ele>190</ele>
        <time>2022-09-18T08:52:40.000Z</time>
      </trkpt>
      <trkpt lat="49.87628" lon="4.74536">
        <ele>190</ele>
        <time>2022-09-18T08:52:41.000Z</time>
      </trkpt>
      <trkpt lat="49.87631" lon="4.74531">
        <ele>189</ele>
        <time>2022-09-18T08:52:42.000Z</time>
      </trkpt>
      <trkpt lat="49.87634" lon="4.74526">
        <ele>189</ele>
        <time>2022-09-18T08:52:43.000Z</time>
      </trkpt>
      <trkpt lat="49.87636" lon="4.74521">
        <ele>189</ele>
        <time>2022-09-18T08:52:44.000Z</time>
      </trkpt>
      <trkpt lat="49.87638" lon="4.74515">
        <ele>189</ele>
        <time>2022-09-18T08:52:45.000Z</time>
      </trkpt>
      <trkpt lat="49.8764" lon="4.74509">
        <ele>189</ele>
        <time>2022-09-18T08:52:46.000Z</time>
      </trkpt>
      <trkpt lat="49.87641" lon="4.74502">
        <ele>189</ele>
        <time>2022-09-18T08:52:47.000Z</time>
      </trkpt>
      <trkpt lat="49.87642" lon="4.74494">
        <ele>189</ele>
        <time>2022-09-18T08:52:48.000Z</time>
      </trkpt>
      <trkpt lat="49.87643" lon="4.74487">
        <ele>188</ele>
        <time>2022-09-18T08:52:49.000Z</time>
      </trkpt>
      <trkpt lat="49.87645" lon="4.74479">
        <ele>188</ele>
        <time>2022-09-18T08:52:50.000Z</time>
      </trkpt>
      <trkpt lat="49.87646" lon="4.74473">
        <ele>188</ele>
        <time>2022-09-18T08:52:51.000Z</time>
      </trkpt>
      <trkpt lat="49.87648" lon="4.74468">
        <ele>187</ele>
        <time>2022-09-18T08:52:52.000Z</time>
      </trkpt>
      <trkpt lat="49.87649" lon="4.74466">
        <ele>187</ele>
        <time>2022-09-18T08:52:53.000Z</time>
      </trkpt>
      <trkpt lat="49.8765" lon="4.74463">
        <ele>187</ele>
        <time>2022-09-18T08:52:54.000Z</time>
      </trkpt>
      <trkpt lat="49.8765" lon="4.74461">
        <ele>186</ele>
        <time>2022-09-18T08:52:55.000Z</time>
      </trkpt>
      <trkpt lat="49.8765" lon="4.74458">
        <ele>186</ele>
        <time>2022-09-18T08:52:56.000Z</time>
      </trkpt>
      <trkpt lat="49.8765" lon="4.74457">
        <ele>185</ele>
        <time>2022-09-18T08:52:57.000Z</time>
      </trkpt>
      <trkpt lat="49.8765" lon="4.74456">
        <ele>185</ele>
        <time>2022-09-18T08:52:58.000Z</time>
      </trkpt>
      <trkpt lat="49.87649" lon="4.74455">
        <ele>184</ele>
        <time>2022-09-18T08:52:59.000Z</time>
      </trkpt>
      <trkpt lat="49.87649" lon="4.74453">
        <ele>184</ele>
        <time>2022-09-18T08:53:00.000Z</time>
      </trkpt>
      <trkpt lat="49.87649" lon="4.7445">
        <ele>183</ele>
        <time>2022-09-18T08:53:01.000Z</time>
      </trkpt>
      <trkpt lat="49.8765" lon="4.74447">
        <ele>183</ele>
        <time>2022-09-18T08:53:02.000Z</time>
      </trkpt>
      <trkpt lat="49.8765" lon="4.74442">
        <ele>182</ele>
        <time>2022-09-18T08:53:03.000Z</time>
      </trkpt>
      <trkpt lat="49.87651" lon="4.74437">
        <ele>181</ele>
        <time>2022-09-18T08:53:04.000Z</time>
      </trkpt>
      <trkpt lat="49.87652" lon="4.74432">
        <ele>181</ele>
        <time>2022-09-18T08:53:05.000Z</time>
      </trkpt>
      <trkpt lat="49.87654" lon="4.74428">
        <ele>180</ele>
        <time>2022-09-18T08:53:06.000Z</time>
      </trkpt>
      <trkpt lat="49.87655" lon="4.74425">
        <ele>180</ele>
        <time>2022-09-18T08:53:07.000Z</time>
      </trkpt>
      <trkpt lat="49.87656" lon="4.74424">
        <ele>179</ele>
        <time>2022-09-18T08:53:08.000Z</time>
      </trkpt>
      <trkpt lat="49.87658" lon="4.74422">
        <ele>179</ele>
        <time>2022-09-18T08:53:09.000Z</time>
      </trkpt>
      <trkpt lat="49.8766" lon="4.74422">
        <ele>179</ele>
        <time>2022-09-18T08:53:10.000Z</time>
      </trkpt>
      <trkpt lat="49.87662" lon="4.74423">
        <ele>179</ele>
        <time>2022-09-18T08:53:11.000Z</time>
      </trkpt>
      <trkpt lat="49.87665" lon="4.74423">
        <ele>178</ele>
        <time>2022-09-18T08:53:12.000Z</time>
      </trkpt>
      <trkpt lat="49.87668" lon="4.74424">
        <ele>178</ele>
        <time>2022-09-18T08:53:13.000Z</time>
      </trkpt>
      <trkpt lat="49.87672" lon="4.74426">
        <ele>178</ele>
        <time>2022-09-18T08:53:14.000Z</time>
      </trkpt>
      <trkpt lat="49.87675" lon="4.74428">
        <ele>177</ele>
        <time>2022-09-18T08:53:15.000Z</time>
      </trkpt>
      <trkpt lat="49.87679" lon="4.7443">
        <ele>177</ele>
        <time>2022-09-18T08:53:16.000Z</time>
      </trkpt>
      <trkpt lat="49.87682" lon="4.74433">
        <ele>177</ele>
        <time>2022-09-18T08:53:17.000Z</time>
      </trkpt>
      <trkpt lat="49.87686" lon="4.74435">
        <ele>176</ele>
        <time>2022-09-18T08:53:18.000Z</time>
      </trkpt>
      <trkpt lat="49.87691" lon="4.74438">
        <ele>176</ele>
        <time>2022-09-18T08:53:19.000Z</time>
      </trkpt>
      <trkpt lat="49.87696" lon="4.74441">
        <ele>175</ele>
        <time>2022-09-18T08:53:20.000Z</time>
      </trkpt>
      <trkpt lat="49.877" lon="4.74443">
        <ele>175</ele>
        <time>2022-09-18T08:53:21.000Z</time>
      </trkpt>
      <trkpt lat="49.87704" lon="4.74444">
        <ele>175</ele>
        <time>2022-09-18T08:53:22.000Z</time>
      </trkpt>
      <trkpt lat="49.87708" lon="4.74445">
        <ele>174</ele>
        <time>2022-09-18T08:53:23.000Z</time>
      </trkpt>
      <trkpt lat="49.87712" lon="4.74445">
        <ele>174</ele>
        <time>2022-09-18T08:53:24.000Z</time>
      </trkpt>
      <trkpt lat="49.87718" lon="4.74442">
        <ele>174</ele>
        <time>2022-09-18T08:53:25.000Z</time>
      </trkpt>
      <trkpt lat="49.87723" lon="4.7444">
        <ele>174</ele>
        <time>2022-09-18T08:53:26.000Z</time>
      </trkpt>
      <trkpt lat="49.87728" lon="4.74436">
        <ele>173</ele>
        <time>2022-09-18T08:53:27.000Z</time>
      </trkpt>
      <trkpt lat="49.87731" lon="4.74431">
        <ele>173</ele>
        <time>2022-09-18T08:53:28.000Z</time>
      </trkpt>
      <trkpt lat="49.87733" lon="4.74426">
        <ele>173</ele>
        <time>2022-09-18T08:53:29.000Z</time>
      </trkpt>
      <trkpt lat="49.87734" lon="4.74422">
        <ele>172</ele>
        <time>2022-09-18T08:53:30.000Z</time>
      </trkpt>
      <trkpt lat="49.87736" lon="4.74418">
        <ele>172</ele>
        <time>2022-09-18T08:53:31.000Z</time>
      </trkpt>
      <trkpt lat="49.87738" lon="4.74417">
        <ele>172</ele>
        <time>2022-09-18T08:53:32.000Z</time>
      </trkpt>
      <trkpt lat="49.87741" lon="4.74416">
        <ele>171</ele>
        <time>2022-09-18T08:53:33.000Z</time>
      </trkpt>
      <trkpt lat="49.87744" lon="4.74417">
        <ele>171</ele>
        <time>2022-09-18T08:53:34.000Z</time>
      </trkpt>
      <trkpt lat="49.87747" lon="4.74419">
        <ele>170</ele>
        <time>2022-09-18T08:53:35.000Z</time>
      </trkpt>
      <trkpt lat="49.8775" lon="4.74421">
        <ele>170</ele>
        <time>2022-09-18T08:53:36.000Z</time>
      </trkpt>
      <trkpt lat="49.87752" lon="4.74424">
        <ele>169</ele>
        <time>2022-09-18T08:53:37.000Z</time>
      </trkpt>
      <trkpt lat="49.87754" lon="4.74426">
        <ele>169</ele>
        <time>2022-09-18T08:53:38.000Z</time>
      </trkpt>
      <trkpt lat="49.87755" lon="4.74428">
        <ele>169</ele>
        <time>2022-09-18T08:53:39.000Z</time>
      </trkpt>
      <trkpt lat="49.87756" lon="4.7443">
        <ele>168</ele>
        <time>2022-09-18T08:53:40.000Z</time>
      </trkpt>
      <trkpt lat="49.87757" lon="4.74432">
        <ele>168</ele>
        <time>2022-09-18T08:53:41.000Z</time>
      </trkpt>
      <trkpt lat="49.87759" lon="4.74435">
        <ele>168</ele>
        <time>2022-09-18T08:53:42.000Z</time>
      </trkpt>
      <trkpt lat="49.87762" lon="4.74438">
        <ele>167</ele>
        <time>2022-09-18T08:53:43.000Z</time>
      </trkpt>
      <trkpt lat="49.87764" lon="4.7444">
        <ele>167</ele>
        <time>2022-09-18T08:53:44.000Z</time>
      </trkpt>
      <trkpt lat="49.87767" lon="4.74442">
        <ele>167</ele>
        <time>2022-09-18T08:53:45.000Z</time>
      </trkpt>
      <trkpt lat="49.87769" lon="4.74444">
        <ele>167</ele>
        <time>2022-09-18T08:53:46.000Z</time>
      </trkpt>
      <trkpt lat="49.87773" lon="4.74447">
        <ele>167</ele>
        <time>2022-09-18T08:53:47.000Z</time>
      </trkpt>
      <trkpt lat="49.87776" lon="4.7445">
        <ele>167</ele>
        <time>2022-09-18T08:53:48.000Z</time>
      </trkpt>
      <trkpt lat="49.87779" lon="4.74454">
        <ele>166</ele>
        <time>2022-09-18T08:53:49.000Z</time>
      </trkpt>
      <trkpt lat="49.87783" lon="4.74458">
        <ele>166</ele>
        <time>2022-09-18T08:53:50.000Z</time>
      </trkpt>
      <trkpt lat="49.87786" lon="4.74461">
        <ele>166</ele>
        <time>2022-09-18T08:53:51.000Z</time>
      </trkpt>
      <trkpt lat="49.8779" lon="4.74463">
        <ele>166</ele>
        <time>2022-09-18T08:53:52.000Z</time>
      </trkpt>
      <trkpt lat="49.87794" lon="4.74466">
        <ele>166</ele>
        <time>2022-09-18T08:53:53.000Z</time>
      </trkpt>
      <trkpt lat="49.87796" lon="4.74469">
        <ele>166</ele>
        <time>2022-09-18T08:53:54.000Z</time>
      </trkpt>
      <trkpt lat="49.87799" lon="4.7447">
        <ele>166</ele>
        <time>2022-09-18T08:53:55.000Z</time>
      </trkpt>
      <trkpt lat="49.87802" lon="4.7447">
        <ele>166</ele>
        <time>2022-09-18T08:53:56.000Z</time>
      </trkpt>
      <trkpt lat="49.87804" lon="4.74472">
        <ele>166</ele>
        <time>2022-09-18T08:53:57.000Z</time>
      </trkpt>
      <trkpt lat="49.87806" lon="4.74474">
        <ele>166</ele>
        <time>2022-09-18T08:53:58.000Z</time>
      </trkpt>
      <trkpt lat="49.87808" lon="4.74475">
        <ele>166</ele>
        <time>2022-09-18T08:53:59.000Z</time>
      </trkpt>
      <trkpt lat="49.87811" lon="4.74476">
        <ele>166</ele>
        <time>2022-09-18T08:54:00.000Z</time>
      </trkpt>
      <trkpt lat="49.87814" lon="4.74477">
        <ele>166</ele>
        <time>2022-09-18T08:54:01.000Z</time>
      </trkpt>
      <trkpt lat="49.87816" lon="4.74479">
        <ele>167</ele>
        <time>2022-09-18T08:54:02.000Z</time>
      </trkpt>
      <trkpt lat="49.8782" lon="4.74481">
        <ele>167</ele>
        <time>2022-09-18T08:54:03.000Z</time>
      </trkpt>
      <trkpt lat="49.87824" lon="4.74484">
        <ele>167</ele>
        <time>2022-09-18T08:54:04.000Z</time>
      </trkpt>
      <trkpt lat="49.87828" lon="4.74485">
        <ele>167</ele>
        <time>2022-09-18T08:54:05.000Z</time>
      </trkpt>
      <trkpt lat="49.87832" lon="4.74487">
        <ele>167</ele>
        <time>2022-09-18T08:54:06.000Z</time>
      </trkpt>
      <trkpt lat="49.87837" lon="4.74489">
        <ele>167</ele>
        <time>2022-09-18T08:54:07.000Z</time>
      </trkpt>
      <trkpt lat="49.87841" lon="4.7449">
        <ele>167</ele>
        <time>2022-09-18T08:54:08.000Z</time>
      </trkpt>
      <trkpt lat="49.87845" lon="4.74492">
        <ele>167</ele>
        <time>2022-09-18T08:54:09.000Z</time>
      </trkpt>
      <trkpt lat="49.8785" lon="4.74495">
        <ele>167</ele>
        <time>2022-09-18T08:54:10.000Z</time>
      </trkpt>
      <trkpt lat="49.87855" lon="4.74498">
        <ele>167</ele>
        <time>2022-09-18T08:54:11.000Z</time>
      </trkpt>
      <trkpt lat="49.8786" lon="4.74501">
        <ele>167</ele>
        <time>2022-09-18T08:54:12.000Z</time>
      </trkpt>
      <trkpt lat="49.87864" lon="4.74503">
        <ele>167</ele>
        <time>2022-09-18T08:54:13.000Z</time>
      </trkpt>
      <trkpt lat="49.87869" lon="4.74507">
        <ele>167</ele>
        <time>2022-09-18T08:54:14.000Z</time>
      </trkpt>
      <trkpt lat="49.87874" lon="4.7451">
        <ele>167</ele>
        <time>2022-09-18T08:54:15.000Z</time>
      </trkpt>
      <trkpt lat="49.87878" lon="4.74513">
        <ele>167</ele>
        <time>2022-09-18T08:54:16.000Z</time>
      </trkpt>
      <trkpt lat="49.87883" lon="4.74517">
        <ele>166</ele>
        <time>2022-09-18T08:54:17.000Z</time>
      </trkpt>
      <trkpt lat="49.87887" lon="4.74521">
        <ele>166</ele>
        <time>2022-09-18T08:54:18.000Z</time>
      </trkpt>
      <trkpt lat="49.87891" lon="4.74525">
        <ele>166</ele>
        <time>2022-09-18T08:54:19.000Z</time>
      </trkpt>
      <trkpt lat="49.87895" lon="4.74529">
        <ele>166</ele>
        <time>2022-09-18T08:54:20.000Z</time>
      </trkpt>
      <trkpt lat="49.87899" lon="4.74534">
        <ele>166</ele>
        <time>2022-09-18T08:54:21.000Z</time>
      </trkpt>
      <trkpt lat="49.87903" lon="4.74538">
        <ele>166</ele>
        <time>2022-09-18T08:54:22.000Z</time>
      </trkpt>
      <trkpt lat="49.87907" lon="4.74543">
        <ele>166</ele>
        <time>2022-09-18T08:54:23.000Z</time>
      </trkpt>
      <trkpt lat="49.8791" lon="4.74548">
        <ele>165</ele>
        <time>2022-09-18T08:54:24.000Z</time>
      </trkpt>
      <trkpt lat="49.87914" lon="4.74554">
        <ele>165</ele>
        <time>2022-09-18T08:54:25.000Z</time>
      </trkpt>
      <trkpt lat="49.87917" lon="4.74561">
        <ele>165</ele>
        <time>2022-09-18T08:54:26.000Z</time>
      </trkpt>
      <trkpt lat="49.87921" lon="4.74567">
        <ele>165</ele>
        <time>2022-09-18T08:54:27.000Z</time>
      </trkpt>
      <trkpt lat="49.87924" lon="4.74573">
        <ele>165</ele>
        <time>2022-09-18T08:54:28.000Z</time>
      </trkpt>
      <trkpt lat="49.87927" lon="4.74579">
        <ele>165</ele>
        <time>2022-09-18T08:54:29.000Z</time>
      </trkpt>
      <trkpt lat="49.8793" lon="4.74586">
        <ele>165</ele>
        <time>2022-09-18T08:54:30.000Z</time>
      </trkpt>
      <trkpt lat="49.87933" lon="4.74591">
        <ele>165</ele>
        <time>2022-09-18T08:54:31.000Z</time>
      </trkpt>
      <trkpt lat="49.87936" lon="4.74598">
        <ele>165</ele>
        <time>2022-09-18T08:54:32.000Z</time>
      </trkpt>
      <trkpt lat="49.87938" lon="4.74604">
        <ele>165</ele>
        <time>2022-09-18T08:54:33.000Z</time>
      </trkpt>
      <trkpt lat="49.87941" lon="4.7461">
        <ele>165</ele>
        <time>2022-09-18T08:54:34.000Z</time>
      </trkpt>
      <trkpt lat="49.87944" lon="4.74616">
        <ele>165</ele>
        <time>2022-09-18T08:54:35.000Z</time>
      </trkpt>
      <trkpt lat="49.87948" lon="4.74623">
        <ele>165</ele>
        <time>2022-09-18T08:54:36.000Z</time>
      </trkpt>
      <trkpt lat="49.87951" lon="4.74629">
        <ele>164</ele>
        <time>2022-09-18T08:54:37.000Z</time>
      </trkpt>
      <trkpt lat="49.87954" lon="4.74635">
        <ele>164</ele>
        <time>2022-09-18T08:54:38.000Z</time>
      </trkpt>
      <trkpt lat="49.87957" lon="4.74641">
        <ele>164</ele>
        <time>2022-09-18T08:54:39.000Z</time>
      </trkpt>
      <trkpt lat="49.8796" lon="4.74647">
        <ele>164</ele>
        <time>2022-09-18T08:54:40.000Z</time>
      </trkpt>
      <trkpt lat="49.87964" lon="4.74652">
        <ele>164</ele>
        <time>2022-09-18T08:54:41.000Z</time>
      </trkpt>
      <trkpt lat="49.87967" lon="4.74658">
        <ele>164</ele>
        <time>2022-09-18T08:54:42.000Z</time>
      </trkpt>
      <trkpt lat="49.87971" lon="4.74663">
        <ele>164</ele>
        <time>2022-09-18T08:54:43.000Z</time>
      </trkpt>
      <trkpt lat="49.87974" lon="4.74668">
        <ele>164</ele>
        <time>2022-09-18T08:54:44.000Z</time>
      </trkpt>
      <trkpt lat="49.87977" lon="4.74673">
        <ele>164</ele>
        <time>2022-09-18T08:54:45.000Z</time>
      </trkpt>
      <trkpt lat="49.8798" lon="4.74678">
        <ele>164</ele>
        <time>2022-09-18T08:54:46.000Z</time>
      </trkpt>
      <trkpt lat="49.87983" lon="4.74683">
        <ele>164</ele>
        <time>2022-09-18T08:54:47.000Z</time>
      </trkpt>
      <trkpt lat="49.87985" lon="4.74689">
        <ele>164</ele>
        <time>2022-09-18T08:54:48.000Z</time>
      </trkpt>
      <trkpt lat="49.87988" lon="4.74694">
        <ele>163</ele>
        <time>2022-09-18T08:54:49.000Z</time>
      </trkpt>
      <trkpt lat="49.87991" lon="4.74699">
        <ele>163</ele>
        <time>2022-09-18T08:54:50.000Z</time>
      </trkpt>
      <trkpt lat="49.87993" lon="4.74704">
        <ele>163</ele>
        <time>2022-09-18T08:54:51.000Z</time>
      </trkpt>
      <trkpt lat="49.87996" lon="4.74709">
        <ele>163</ele>
        <time>2022-09-18T08:54:52.000Z</time>
      </trkpt>
      <trkpt lat="49.87999" lon="4.74714">
        <ele>163</ele>
        <time>2022-09-18T08:54:53.000Z</time>
      </trkpt>
      <trkpt lat="49.88002" lon="4.7472">
        <ele>163</ele>
        <time>2022-09-18T08:54:54.000Z</time>
      </trkpt>
      <trkpt lat="49.88004" lon="4.74726">
        <ele>163</ele>
        <time>2022-09-18T08:54:55.000Z</time>
      </trkpt>
      <trkpt lat="49.88006" lon="4.74732">
        <ele>163</ele>
        <time>2022-09-18T08:54:56.000Z</time>
      </trkpt>
      <trkpt lat="49.88009" lon="4.74738">
        <ele>163</ele>
        <time>2022-09-18T08:54:57.000Z</time>
      </trkpt>
      <trkpt lat="49.88011" lon="4.74743">
        <ele>163</ele>
        <time>2022-09-18T08:54:58.000Z</time>
      </trkpt>
      <trkpt lat="49.88013" lon="4.74749">
        <ele>163</ele>
        <time>2022-09-18T08:54:59.000Z</time>
      </trkpt>
      <trkpt lat="49.88016" lon="4.74754">
        <ele>163</ele>
        <time>2022-09-18T08:55:00.000Z</time>
      </trkpt>
      <trkpt lat="49.88019" lon="4.74759">
        <ele>163</ele>
        <time>2022-09-18T08:55:01.000Z</time>
      </trkpt>
      <trkpt lat="49.88021" lon="4.74765">
        <ele>163</ele>
        <time>2022-09-18T08:55:02.000Z</time>
      </trkpt>
      <trkpt lat="49.88023" lon="4.74769">
        <ele>163</ele>
        <time>2022-09-18T08:55:03.000Z</time>
      </trkpt>
      <trkpt lat="49.88026" lon="4.74774">
        <ele>163</ele>
        <time>2022-09-18T08:55:04.000Z</time>
      </trkpt>
      <trkpt lat="49.88028" lon="4.7478">
        <ele>163</ele>
        <time>2022-09-18T08:55:05.000Z</time>
      </trkpt>
      <trkpt lat="49.88031" lon="4.74787">
        <ele>163</ele>
        <time>2022-09-18T08:55:06.000Z</time>
      </trkpt>
      <trkpt lat="49.88032" lon="4.74793">
        <ele>163</ele>
        <time>2022-09-18T08:55:07.000Z</time>
      </trkpt>
      <trkpt lat="49.88034" lon="4.748">
        <ele>163</ele>
        <time>2022-09-18T08:55:08.000Z</time>
      </trkpt>
      <trkpt lat="49.88035" lon="4.74806">
        <ele>163</ele>
        <time>2022-09-18T08:55:09.000Z</time>
      </trkpt>
      <trkpt lat="49.88035" lon="4.74811">
        <ele>163</ele>
        <time>2022-09-18T08:55:10.000Z</time>
      </trkpt>
      <trkpt lat="49.88036" lon="4.74817">
        <ele>163</ele>
        <time>2022-09-18T08:55:11.000Z</time>
      </trkpt>
      <trkpt lat="49.88036" lon="4.74824">
        <ele>163</ele>
        <time>2022-09-18T08:55:12.000Z</time>
      </trkpt>
      <trkpt lat="49.88037" lon="4.7483">
        <ele>163</ele>
        <time>2022-09-18T08:55:13.000Z</time>
      </trkpt>
      <trkpt lat="49.88037" lon="4.74836">
        <ele>162</ele>
        <time>2022-09-18T08:55:14.000Z</time>
      </trkpt>
      <trkpt lat="49.88038" lon="4.74842">
        <ele>162</ele>
        <time>2022-09-18T08:55:15.000Z</time>
      </trkpt>
      <trkpt lat="49.88038" lon="4.74848">
        <ele>162</ele>
        <time>2022-09-18T08:55:16.000Z</time>
      </trkpt>
      <trkpt lat="49.88038" lon="4.74854">
        <ele>162</ele>
        <time>2022-09-18T08:55:17.000Z</time>
      </trkpt>
      <trkpt lat="49.88039" lon="4.74861">
        <ele>162</ele>
        <time>2022-09-18T08:55:18.000Z</time>
      </trkpt>
      <trkpt lat="49.88039" lon="4.74866">
        <ele>162</ele>
        <time>2022-09-18T08:55:19.000Z</time>
      </trkpt>
      <trkpt lat="49.88039" lon="4.74873">
        <ele>162</ele>
        <time>2022-09-18T08:55:20.000Z</time>
      </trkpt>
      <trkpt lat="49.8804" lon="4.7488">
        <ele>162</ele>
        <time>2022-09-18T08:55:21.000Z</time>
      </trkpt>
      <trkpt lat="49.8804" lon="4.74887">
        <ele>162</ele>
        <time>2022-09-18T08:55:22.000Z</time>
      </trkpt>
      <trkpt lat="49.88041" lon="4.74895">
        <ele>162</ele>
        <time>2022-09-18T08:55:23.000Z</time>
      </trkpt>
      <trkpt lat="49.88042" lon="4.74902">
        <ele>162</ele>
        <time>2022-09-18T08:55:24.000Z</time>
      </trkpt>
      <trkpt lat="49.88043" lon="4.74909">
        <ele>162</ele>
        <time>2022-09-18T08:55:25.000Z</time>
      </trkpt>
      <trkpt lat="49.88044" lon="4.74916">
        <ele>162</ele>
        <time>2022-09-18T08:55:26.000Z</time>
      </trkpt>
      <trkpt lat="49.88045" lon="4.74923">
        <ele>162</ele>
        <time>2022-09-18T08:55:27.000Z</time>
      </trkpt>
      <trkpt lat="49.88046" lon="4.74928">
        <ele>162</ele>
        <time>2022-09-18T08:55:28.000Z</time>
      </trkpt>
      <trkpt lat="49.88048" lon="4.74935">
        <ele>162</ele>
        <time>2022-09-18T08:55:29.000Z</time>
      </trkpt>
      <trkpt lat="49.88049" lon="4.7494">
        <ele>162</ele>
        <time>2022-09-18T08:55:30.000Z</time>
      </trkpt>
      <trkpt lat="49.88051" lon="4.74946">
        <ele>162</ele>
        <time>2022-09-18T08:55:31.000Z</time>
      </trkpt>
      <trkpt lat="49.88052" lon="4.74952">
        <ele>162</ele>
        <time>2022-09-18T08:55:32.000Z</time>
      </trkpt>
      <trkpt lat="49.88054" lon="4.74957">
        <ele>162</ele>
        <time>2022-09-18T08:55:33.000Z</time>
      </trkpt>
      <trkpt lat="49.88056" lon="4.74962">
        <ele>163</ele>
        <time>2022-09-18T08:55:34.000Z</time>
      </trkpt>
      <trkpt lat="49.88057" lon="4.74968">
        <ele>163</ele>
        <time>2022-09-18T08:55:35.000Z</time>
      </trkpt>
      <trkpt lat="49.88059" lon="4.74972">
        <ele>163</ele>
        <time>2022-09-18T08:55:36.000Z</time>
      </trkpt>
      <trkpt lat="49.88061" lon="4.74978">
        <ele>163</ele>
        <time>2022-09-18T08:55:37.000Z</time>
      </trkpt>
      <trkpt lat="49.88063" lon="4.74984">
        <ele>163</ele>
        <time>2022-09-18T08:55:38.000Z</time>
      </trkpt>
      <trkpt lat="49.88065" lon="4.7499">
        <ele>163</ele>
        <time>2022-09-18T08:55:39.000Z</time>
      </trkpt>
      <trkpt lat="49.88068" lon="4.74995">
        <ele>163</ele>
        <time>2022-09-18T08:55:40.000Z</time>
      </trkpt>
      <trkpt lat="49.8807" lon="4.75001">
        <ele>163</ele>
        <time>2022-09-18T08:55:41.000Z</time>
      </trkpt>
      <trkpt lat="49.88073" lon="4.75007">
        <ele>163</ele>
        <time>2022-09-18T08:55:42.000Z</time>
      </trkpt>
      <trkpt lat="49.88075" lon="4.75012">
        <ele>163</ele>
        <time>2022-09-18T08:55:43.000Z</time>
      </trkpt>
      <trkpt lat="49.88077" lon="4.75018">
        <ele>163</ele>
        <time>2022-09-18T08:55:44.000Z</time>
      </trkpt>
      <trkpt lat="49.88079" lon="4.75024">
        <ele>163</ele>
        <time>2022-09-18T08:55:45.000Z</time>
      </trkpt>
      <trkpt lat="49.88081" lon="4.7503">
        <ele>163</ele>
        <time>2022-09-18T08:55:46.000Z</time>
      </trkpt>
      <trkpt lat="49.88084" lon="4.75035">
        <ele>163</ele>
        <time>2022-09-18T08:55:47.000Z</time>
      </trkpt>
      <trkpt lat="49.88087" lon="4.75041">
        <ele>163</ele>
        <time>2022-09-18T08:55:48.000Z</time>
      </trkpt>
      <trkpt lat="49.88089" lon="4.75047">
        <ele>163</ele>
        <time>2022-09-18T08:55:49.000Z</time>
      </trkpt>
      <trkpt lat="49.88092" lon="4.75053">
        <ele>163</ele>
        <time>2022-09-18T08:55:50.000Z</time>
      </trkpt>
      <trkpt lat="49.88095" lon="4.7506">
        <ele>163</ele>
        <time>2022-09-18T08:55:51.000Z</time>
      </trkpt>
      <trkpt lat="49.88097" lon="4.75066">
        <ele>163</ele>
        <time>2022-09-18T08:55:52.000Z</time>
      </trkpt>
      <trkpt lat="49.881" lon="4.75073">
        <ele>163</ele>
        <time>2022-09-18T08:55:53.000Z</time>
      </trkpt>
      <trkpt lat="49.88103" lon="4.7508">
        <ele>163</ele>
        <time>2022-09-18T08:55:54.000Z</time>
      </trkpt>
      <trkpt lat="49.88106" lon="4.75086">
        <ele>163</ele>
        <time>2022-09-18T08:55:55.000Z</time>
      </trkpt>
      <trkpt lat="49.88109" lon="4.75092">
        <ele>163</ele>
        <time>2022-09-18T08:55:56.000Z</time>
      </trkpt>
      <trkpt lat="49.88111" lon="4.75098">
        <ele>163</ele>
        <time>2022-09-18T08:55:57.000Z</time>
      </trkpt>
      <trkpt lat="49.88114" lon="4.75105">
        <ele>163</ele>
        <time>2022-09-18T08:55:58.000Z</time>
      </trkpt>
      <trkpt lat="49.88117" lon="4.75111">
        <ele>163</ele>
        <time>2022-09-18T08:55:59.000Z</time>
      </trkpt>
      <trkpt lat="49.88119" lon="4.75117">
        <ele>163</ele>
        <time>2022-09-18T08:56:00.000Z</time>
      </trkpt>
      <trkpt lat="49.88122" lon="4.75123">
        <ele>163</ele>
        <time>2022-09-18T08:56:01.000Z</time>
      </trkpt>
      <trkpt lat="49.88125" lon="4.75129">
        <ele>163</ele>
        <time>2022-09-18T08:56:02.000Z</time>
      </trkpt>
      <trkpt lat="49.88128" lon="4.75135">
        <ele>163</ele>
        <time>2022-09-18T08:56:03.000Z</time>
      </trkpt>
      <trkpt lat="49.88131" lon="4.75142">
        <ele>163</ele>
        <time>2022-09-18T08:56:04.000Z</time>
      </trkpt>
      <trkpt lat="49.88134" lon="4.75148">
        <ele>163</ele>
        <time>2022-09-18T08:56:05.000Z</time>
      </trkpt>
      <trkpt lat="49.88136" lon="4.75155">
        <ele>163</ele>
        <time>2022-09-18T08:56:06.000Z</time>
      </trkpt>
      <trkpt lat="49.88138" lon="4.75161">
        <ele>163</ele>
        <time>2022-09-18T08:56:07.000Z</time>
      </trkpt>
      <trkpt lat="49.88141" lon="4.75167">
        <ele>163</ele>
        <time>2022-09-18T08:56:08.000Z</time>
      </trkpt>
      <trkpt lat="49.88144" lon="4.75173">
        <ele>163</ele>
        <time>2022-09-18T08:56:09.000Z</time>
      </trkpt>
      <trkpt lat="49.88145" lon="4.75179">
        <ele>163</ele>
        <time>2022-09-18T08:56:10.000Z</time>
      </trkpt>
      <trkpt lat="49.88148" lon="4.75185">
        <ele>164</ele>
        <time>2022-09-18T08:56:11.000Z</time>
      </trkpt>
      <trkpt lat="49.8815" lon="4.75192">
        <ele>164</ele>
        <time>2022-09-18T08:56:12.000Z</time>
      </trkpt>
      <trkpt lat="49.88152" lon="4.75198">
        <ele>164</ele>
        <time>2022-09-18T08:56:13.000Z</time>
      </trkpt>
      <trkpt lat="49.88154" lon="4.75204">
        <ele>164</ele>
        <time>2022-09-18T08:56:14.000Z</time>
      </trkpt>
      <trkpt lat="49.88155" lon="4.7521">
        <ele>164</ele>
        <time>2022-09-18T08:56:15.000Z</time>
      </trkpt>
      <trkpt lat="49.88157" lon="4.75217">
        <ele>164</ele>
        <time>2022-09-18T08:56:16.000Z</time>
      </trkpt>
      <trkpt lat="49.88159" lon="4.75224">
        <ele>164</ele>
        <time>2022-09-18T08:56:17.000Z</time>
      </trkpt>
      <trkpt lat="49.8816" lon="4.75231">
        <ele>164</ele>
        <time>2022-09-18T08:56:18.000Z</time>
      </trkpt>
      <trkpt lat="49.88162" lon="4.75237">
        <ele>164</ele>
        <time>2022-09-18T08:56:19.000Z</time>
      </trkpt>
      <trkpt lat="49.88163" lon="4.75244">
        <ele>164</ele>
        <time>2022-09-18T08:56:20.000Z</time>
      </trkpt>
      <trkpt lat="49.88165" lon="4.75251">
        <ele>164</ele>
        <time>2022-09-18T08:56:21.000Z</time>
      </trkpt>
      <trkpt lat="49.88166" lon="4.75258">
        <ele>164</ele>
        <time>2022-09-18T08:56:22.000Z</time>
      </trkpt>
      <trkpt lat="49.88167" lon="4.75265">
        <ele>164</ele>
        <time>2022-09-18T08:56:23.000Z</time>
      </trkpt>
      <trkpt lat="49.88167" lon="4.75272">
        <ele>164</ele>
        <time>2022-09-18T08:56:24.000Z</time>
      </trkpt>
      <trkpt lat="49.88168" lon="4.75279">
        <ele>164</ele>
        <time>2022-09-18T08:56:25.000Z</time>
      </trkpt>
      <trkpt lat="49.88169" lon="4.75287">
        <ele>164</ele>
        <time>2022-09-18T08:56:26.000Z</time>
      </trkpt>
      <trkpt lat="49.8817" lon="4.75294">
        <ele>163</ele>
        <time>2022-09-18T08:56:27.000Z</time>
      </trkpt>
      <trkpt lat="49.88171" lon="4.75301">
        <ele>163</ele>
        <time>2022-09-18T08:56:28.000Z</time>
      </trkpt>
      <trkpt lat="49.88171" lon="4.75308">
        <ele>163</ele>
        <time>2022-09-18T08:56:29.000Z</time>
      </trkpt>
      <trkpt lat="49.88172" lon="4.75316">
        <ele>163</ele>
        <time>2022-09-18T08:56:30.000Z</time>
      </trkpt>
      <trkpt lat="49.88172" lon="4.75323">
        <ele>163</ele>
        <time>2022-09-18T08:56:31.000Z</time>
      </trkpt>
      <trkpt lat="49.88172" lon="4.7533">
        <ele>163</ele>
        <time>2022-09-18T08:56:32.000Z</time>
      </trkpt>
      <trkpt lat="49.88171" lon="4.75338">
        <ele>163</ele>
        <time>2022-09-18T08:56:33.000Z</time>
      </trkpt>
      <trkpt lat="49.88171" lon="4.75345">
        <ele>163</ele>
        <time>2022-09-18T08:56:34.000Z</time>
      </trkpt>
      <trkpt lat="49.8817" lon="4.75352">
        <ele>163</ele>
        <time>2022-09-18T08:56:35.000Z</time>
      </trkpt>
      <trkpt lat="49.8817" lon="4.7536">
        <ele>164</ele>
        <time>2022-09-18T08:56:36.000Z</time>
      </trkpt>
      <trkpt lat="49.88169" lon="4.75367">
        <ele>164</ele>
        <time>2022-09-18T08:56:37.000Z</time>
      </trkpt>
      <trkpt lat="49.88168" lon="4.75373">
        <ele>164</ele>
        <time>2022-09-18T08:56:38.000Z</time>
      </trkpt>
      <trkpt lat="49.88167" lon="4.7538">
        <ele>164</ele>
        <time>2022-09-18T08:56:39.000Z</time>
      </trkpt>
      <trkpt lat="49.88166" lon="4.75385">
        <ele>164</ele>
        <time>2022-09-18T08:56:40.000Z</time>
      </trkpt>
      <trkpt lat="49.88166" lon="4.7539">
        <ele>164</ele>
        <time>2022-09-18T08:56:41.000Z</time>
      </trkpt>
      <trkpt lat="49.88165" lon="4.75396">
        <ele>164</ele>
        <time>2022-09-18T08:56:42.000Z</time>
      </trkpt>
      <trkpt lat="49.88165" lon="4.75401">
        <ele>164</ele>
        <time>2022-09-18T08:56:43.000Z</time>
      </trkpt>
      <trkpt lat="49.88164" lon="4.75406">
        <ele>164</ele>
        <time>2022-09-18T08:56:44.000Z</time>
      </trkpt>
      <trkpt lat="49.88164" lon="4.75412">
        <ele>164</ele>
        <time>2022-09-18T08:56:45.000Z</time>
      </trkpt>
      <trkpt lat="49.88163" lon="4.75417">
        <ele>164</ele>
        <time>2022-09-18T08:56:46.000Z</time>
      </trkpt>
      <trkpt lat="49.88163" lon="4.75422">
        <ele>164</ele>
        <time>2022-09-18T08:56:47.000Z</time>
      </trkpt>
      <trkpt lat="49.88162" lon="4.75428">
        <ele>164</ele>
        <time>2022-09-18T08:56:48.000Z</time>
      </trkpt>
      <trkpt lat="49.88161" lon="4.75433">
        <ele>164</ele>
        <time>2022-09-18T08:56:49.000Z</time>
      </trkpt>
      <trkpt lat="49.88161" lon="4.75438">
        <ele>165</ele>
        <time>2022-09-18T08:56:50.000Z</time>
      </trkpt>
      <trkpt lat="49.8816" lon="4.75444">
        <ele>165</ele>
        <time>2022-09-18T08:56:51.000Z</time>
      </trkpt>
      <trkpt lat="49.8816" lon="4.75449">
        <ele>165</ele>
        <time>2022-09-18T08:56:52.000Z</time>
      </trkpt>
      <trkpt lat="49.88159" lon="4.75454">
        <ele>165</ele>
        <time>2022-09-18T08:56:53.000Z</time>
      </trkpt>
      <trkpt lat="49.88158" lon="4.7546">
        <ele>165</ele>
        <time>2022-09-18T08:56:54.000Z</time>
      </trkpt>
      <trkpt lat="49.88158" lon="4.75466">
        <ele>166</ele>
        <time>2022-09-18T08:56:55.000Z</time>
      </trkpt>
      <trkpt lat="49.88157" lon="4.75472">
        <ele>166</ele>
        <time>2022-09-18T08:56:56.000Z</time>
      </trkpt>
      <trkpt lat="49.88157" lon="4.75478">
        <ele>166</ele>
        <time>2022-09-18T08:56:57.000Z</time>
      </trkpt>
      <trkpt lat="49.88157" lon="4.75483">
        <ele>166</ele>
        <time>2022-09-18T08:56:58.000Z</time>
      </trkpt>
      <trkpt lat="49.88157" lon="4.75489">
        <ele>166</ele>
        <time>2022-09-18T08:56:59.000Z</time>
      </trkpt>
      <trkpt lat="49.88156" lon="4.75495">
        <ele>166</ele>
        <time>2022-09-18T08:57:00.000Z</time>
      </trkpt>
      <trkpt lat="49.88155" lon="4.75502">
        <ele>166</ele>
        <time>2022-09-18T08:57:01.000Z</time>
      </trkpt>
      <trkpt lat="49.88155" lon="4.75509">
        <ele>166</ele>
        <time>2022-09-18T08:57:02.000Z</time>
      </trkpt>
      <trkpt lat="49.88155" lon="4.75516">
        <ele>166</ele>
        <time>2022-09-18T08:57:03.000Z</time>
      </trkpt>
      <trkpt lat="49.88154" lon="4.75523">
        <ele>166</ele>
        <time>2022-09-18T08:57:04.000Z</time>
      </trkpt>
      <trkpt lat="49.88154" lon="4.75531">
        <ele>166</ele>
        <time>2022-09-18T08:57:05.000Z</time>
      </trkpt>
      <trkpt lat="49.88153" lon="4.75538">
        <ele>166</ele>
        <time>2022-09-18T08:57:06.000Z</time>
      </trkpt>
      <trkpt lat="49.88153" lon="4.75545">
        <ele>167</ele>
        <time>2022-09-18T08:57:07.000Z</time>
      </trkpt>
      <trkpt lat="49.88152" lon="4.75551">
        <ele>167</ele>
        <time>2022-09-18T08:57:08.000Z</time>
      </trkpt>
      <trkpt lat="49.88151" lon="4.75558">
        <ele>167</ele>
        <time>2022-09-18T08:57:09.000Z</time>
      </trkpt>
      <trkpt lat="49.88151" lon="4.75565">
        <ele>167</ele>
        <time>2022-09-18T08:57:10.000Z</time>
      </trkpt>
      <trkpt lat="49.88151" lon="4.75572">
        <ele>167</ele>
        <time>2022-09-18T08:57:11.000Z</time>
      </trkpt>
      <trkpt lat="49.88151" lon="4.7558">
        <ele>167</ele>
        <time>2022-09-18T08:57:12.000Z</time>
      </trkpt>
      <trkpt lat="49.88152" lon="4.75589">
        <ele>167</ele>
        <time>2022-09-18T08:57:13.000Z</time>
      </trkpt>
      <trkpt lat="49.88152" lon="4.75598">
        <ele>168</ele>
        <time>2022-09-18T08:57:14.000Z</time>
      </trkpt>
      <trkpt lat="49.88152" lon="4.75607">
        <ele>168</ele>
        <time>2022-09-18T08:57:15.000Z</time>
      </trkpt>
      <trkpt lat="49.88152" lon="4.75615">
        <ele>168</ele>
        <time>2022-09-18T08:57:16.000Z</time>
      </trkpt>
      <trkpt lat="49.88153" lon="4.75623">
        <ele>168</ele>
        <time>2022-09-18T08:57:17.000Z</time>
      </trkpt>
      <trkpt lat="49.88152" lon="4.75631">
        <ele>168</ele>
        <time>2022-09-18T08:57:18.000Z</time>
      </trkpt>
      <trkpt lat="49.88152" lon="4.75638">
        <ele>168</ele>
        <time>2022-09-18T08:57:19.000Z</time>
      </trkpt>
      <trkpt lat="49.88152" lon="4.75646">
        <ele>168</ele>
        <time>2022-09-18T08:57:20.000Z</time>
      </trkpt>
      <trkpt lat="49.88151" lon="4.75653">
        <ele>168</ele>
        <time>2022-09-18T08:57:21.000Z</time>
      </trkpt>
      <trkpt lat="49.88151" lon="4.75661">
        <ele>168</ele>
        <time>2022-09-18T08:57:22.000Z</time>
      </trkpt>
      <trkpt lat="49.8815" lon="4.75668">
        <ele>168</ele>
        <time>2022-09-18T08:57:23.000Z</time>
      </trkpt>
      <trkpt lat="49.8815" lon="4.75675">
        <ele>168</ele>
        <time>2022-09-18T08:57:24.000Z</time>
      </trkpt>
      <trkpt lat="49.8815" lon="4.75683">
        <ele>168</ele>
        <time>2022-09-18T08:57:25.000Z</time>
      </trkpt>
      <trkpt lat="49.8815" lon="4.75691">
        <ele>168</ele>
        <time>2022-09-18T08:57:26.000Z</time>
      </trkpt>
      <trkpt lat="49.8815" lon="4.75699">
        <ele>168</ele>
        <time>2022-09-18T08:57:27.000Z</time>
      </trkpt>
      <trkpt lat="49.8815" lon="4.75706">
        <ele>168</ele>
        <time>2022-09-18T08:57:28.000Z</time>
      </trkpt>
      <trkpt lat="49.8815" lon="4.75714">
        <ele>168</ele>
        <time>2022-09-18T08:57:29.000Z</time>
      </trkpt>
      <trkpt lat="49.8815" lon="4.75722">
        <ele>168</ele>
        <time>2022-09-18T08:57:30.000Z</time>
      </trkpt>
      <trkpt lat="49.8815" lon="4.75731">
        <ele>168</ele>
        <time>2022-09-18T08:57:31.000Z</time>
      </trkpt>
      <trkpt lat="49.8815" lon="4.75738">
        <ele>169</ele>
        <time>2022-09-18T08:57:32.000Z</time>
      </trkpt>
      <trkpt lat="49.88151" lon="4.75746">
        <ele>169</ele>
        <time>2022-09-18T08:57:33.000Z</time>
      </trkpt>
      <trkpt lat="49.88151" lon="4.75754">
        <ele>169</ele>
        <time>2022-09-18T08:57:34.000Z</time>
      </trkpt>
      <trkpt lat="49.88151" lon="4.75762">
        <ele>169</ele>
        <time>2022-09-18T08:57:35.000Z</time>
      </trkpt>
      <trkpt lat="49.88151" lon="4.7577">
        <ele>169</ele>
        <time>2022-09-18T08:57:36.000Z</time>
      </trkpt>
      <trkpt lat="49.88151" lon="4.75778">
        <ele>169</ele>
        <time>2022-09-18T08:57:37.000Z</time>
      </trkpt>
      <trkpt lat="49.88151" lon="4.75785">
        <ele>169</ele>
        <time>2022-09-18T08:57:38.000Z</time>
      </trkpt>
      <trkpt lat="49.88151" lon="4.75793">
        <ele>169</ele>
        <time>2022-09-18T08:57:39.000Z</time>
      </trkpt>
      <trkpt lat="49.88152" lon="4.758">
        <ele>169</ele>
        <time>2022-09-18T08:57:40.000Z</time>
      </trkpt>
      <trkpt lat="49.88153" lon="4.75807">
        <ele>169</ele>
        <time>2022-09-18T08:57:41.000Z</time>
      </trkpt>
      <trkpt lat="49.88154" lon="4.75815">
        <ele>169</ele>
        <time>2022-09-18T08:57:42.000Z</time>
      </trkpt>
      <trkpt lat="49.88154" lon="4.75822">
        <ele>169</ele>
        <time>2022-09-18T08:57:43.000Z</time>
      </trkpt>
      <trkpt lat="49.88154" lon="4.75829">
        <ele>169</ele>
        <time>2022-09-18T08:57:44.000Z</time>
      </trkpt>
      <trkpt lat="49.88155" lon="4.75836">
        <ele>169</ele>
        <time>2022-09-18T08:57:45.000Z</time>
      </trkpt>
      <trkpt lat="49.88156" lon="4.75843">
        <ele>169</ele>
        <time>2022-09-18T08:57:46.000Z</time>
      </trkpt>
      <trkpt lat="49.88156" lon="4.75851">
        <ele>169</ele>
        <time>2022-09-18T08:57:47.000Z</time>
      </trkpt>
      <trkpt lat="49.88157" lon="4.75858">
        <ele>169</ele>
        <time>2022-09-18T08:57:48.000Z</time>
      </trkpt>
      <trkpt lat="49.88157" lon="4.75866">
        <ele>169</ele>
        <time>2022-09-18T08:57:49.000Z</time>
      </trkpt>
      <trkpt lat="49.88157" lon="4.75872">
        <ele>169</ele>
        <time>2022-09-18T08:57:50.000Z</time>
      </trkpt>
      <trkpt lat="49.88157" lon="4.75879">
        <ele>169</ele>
        <time>2022-09-18T08:57:51.000Z</time>
      </trkpt>
      <trkpt lat="49.88157" lon="4.75887">
        <ele>169</ele>
        <time>2022-09-18T08:57:52.000Z</time>
      </trkpt>
      <trkpt lat="49.88156" lon="4.75894">
        <ele>169</ele>
        <time>2022-09-18T08:57:53.000Z</time>
      </trkpt>
      <trkpt lat="49.88155" lon="4.75901">
        <ele>169</ele>
        <time>2022-09-18T08:57:54.000Z</time>
      </trkpt>
      <trkpt lat="49.88155" lon="4.75908">
        <ele>169</ele>
        <time>2022-09-18T08:57:55.000Z</time>
      </trkpt>
      <trkpt lat="49.88154" lon="4.75916">
        <ele>169</ele>
        <time>2022-09-18T08:57:56.000Z</time>
      </trkpt>
      <trkpt lat="49.88154" lon="4.75923">
        <ele>169</ele>
        <time>2022-09-18T08:57:57.000Z</time>
      </trkpt>
      <trkpt lat="49.88154" lon="4.7593">
        <ele>169</ele>
        <time>2022-09-18T08:57:58.000Z</time>
      </trkpt>
      <trkpt lat="49.88154" lon="4.75938">
        <ele>169</ele>
        <time>2022-09-18T08:57:59.000Z</time>
      </trkpt>
      <trkpt lat="49.88154" lon="4.75945">
        <ele>169</ele>
        <time>2022-09-18T08:58:00.000Z</time>
      </trkpt>
      <trkpt lat="49.88154" lon="4.75952">
        <ele>169</ele>
        <time>2022-09-18T08:58:01.000Z</time>
      </trkpt>
      <trkpt lat="49.88153" lon="4.75959">
        <ele>169</ele>
        <time>2022-09-18T08:58:02.000Z</time>
      </trkpt>
      <trkpt lat="49.88152" lon="4.75966">
        <ele>169</ele>
        <time>2022-09-18T08:58:03.000Z</time>
      </trkpt>
      <trkpt lat="49.88151" lon="4.75974">
        <ele>169</ele>
        <time>2022-09-18T08:58:04.000Z</time>
      </trkpt>
      <trkpt lat="49.88151" lon="4.75982">
        <ele>168</ele>
        <time>2022-09-18T08:58:05.000Z</time>
      </trkpt>
      <trkpt lat="49.8815" lon="4.7599">
        <ele>168</ele>
        <time>2022-09-18T08:58:06.000Z</time>
      </trkpt>
      <trkpt lat="49.88149" lon="4.75998">
        <ele>168</ele>
        <time>2022-09-18T08:58:07.000Z</time>
      </trkpt>
      <trkpt lat="49.88148" lon="4.76006">
        <ele>168</ele>
        <time>2022-09-18T08:58:08.000Z</time>
      </trkpt>
      <trkpt lat="49.88147" lon="4.76013">
        <ele>167</ele>
        <time>2022-09-18T08:58:09.000Z</time>
      </trkpt>
      <trkpt lat="49.88147" lon="4.76021">
        <ele>167</ele>
        <time>2022-09-18T08:58:10.000Z</time>
      </trkpt>
      <trkpt lat="49.88146" lon="4.76028">
        <ele>167</ele>
        <time>2022-09-18T08:58:11.000Z</time>
      </trkpt>
      <trkpt lat="49.88146" lon="4.76035">
        <ele>167</ele>
        <time>2022-09-18T08:58:12.000Z</time>
      </trkpt>
      <trkpt lat="49.88145" lon="4.76042">
        <ele>167</ele>
        <time>2022-09-18T08:58:13.000Z</time>
      </trkpt>
      <trkpt lat="49.88145" lon="4.7605">
        <ele>166</ele>
        <time>2022-09-18T08:58:14.000Z</time>
      </trkpt>
      <trkpt lat="49.88144" lon="4.76057">
        <ele>166</ele>
        <time>2022-09-18T08:58:15.000Z</time>
      </trkpt>
      <trkpt lat="49.88144" lon="4.76065">
        <ele>166</ele>
        <time>2022-09-18T08:58:16.000Z</time>
      </trkpt>
      <trkpt lat="49.88143" lon="4.76072">
        <ele>166</ele>
        <time>2022-09-18T08:58:17.000Z</time>
      </trkpt>
      <trkpt lat="49.88143" lon="4.7608">
        <ele>166</ele>
        <time>2022-09-18T08:58:18.000Z</time>
      </trkpt>
      <trkpt lat="49.88142" lon="4.76087">
        <ele>166</ele>
        <time>2022-09-18T08:58:19.000Z</time>
      </trkpt>
      <trkpt lat="49.88141" lon="4.76094">
        <ele>166</ele>
        <time>2022-09-18T08:58:20.000Z</time>
      </trkpt>
      <trkpt lat="49.8814" lon="4.76101">
        <ele>165</ele>
        <time>2022-09-18T08:58:21.000Z</time>
      </trkpt>
      <trkpt lat="49.88139" lon="4.76108">
        <ele>165</ele>
        <time>2022-09-18T08:58:22.000Z</time>
      </trkpt>
      <trkpt lat="49.88138" lon="4.76115">
        <ele>165</ele>
        <time>2022-09-18T08:58:23.000Z</time>
      </trkpt>
      <trkpt lat="49.88137" lon="4.76121">
        <ele>165</ele>
        <time>2022-09-18T08:58:24.000Z</time>
      </trkpt>
      <trkpt lat="49.88137" lon="4.76128">
        <ele>165</ele>
        <time>2022-09-18T08:58:25.000Z</time>
      </trkpt>
      <trkpt lat="49.88136" lon="4.76136">
        <ele>165</ele>
        <time>2022-09-18T08:58:26.000Z</time>
      </trkpt>
      <trkpt lat="49.88136" lon="4.76142">
        <ele>165</ele>
        <time>2022-09-18T08:58:27.000Z</time>
      </trkpt>
      <trkpt lat="49.88135" lon="4.7615">
        <ele>165</ele>
        <time>2022-09-18T08:58:28.000Z</time>
      </trkpt>
      <trkpt lat="49.88134" lon="4.76157">
        <ele>165</ele>
        <time>2022-09-18T08:58:29.000Z</time>
      </trkpt>
      <trkpt lat="49.88134" lon="4.76164">
        <ele>165</ele>
        <time>2022-09-18T08:58:30.000Z</time>
      </trkpt>
      <trkpt lat="49.88134" lon="4.76171">
        <ele>166</ele>
        <time>2022-09-18T08:58:31.000Z</time>
      </trkpt>
      <trkpt lat="49.88134" lon="4.76178">
        <ele>166</ele>
        <time>2022-09-18T08:58:32.000Z</time>
      </trkpt>
      <trkpt lat="49.88134" lon="4.76186">
        <ele>166</ele>
        <time>2022-09-18T08:58:33.000Z</time>
      </trkpt>
      <trkpt lat="49.88134" lon="4.76193">
        <ele>166</ele>
        <time>2022-09-18T08:58:34.000Z</time>
      </trkpt>
      <trkpt lat="49.88134" lon="4.76201">
        <ele>166</ele>
        <time>2022-09-18T08:58:35.000Z</time>
      </trkpt>
      <trkpt lat="49.88134" lon="4.76209">
        <ele>166</ele>
        <time>2022-09-18T08:58:36.000Z</time>
      </trkpt>
      <trkpt lat="49.88134" lon="4.76216">
        <ele>166</ele>
        <time>2022-09-18T08:58:37.000Z</time>
      </trkpt>
      <trkpt lat="49.88134" lon="4.76223">
        <ele>167</ele>
        <time>2022-09-18T08:58:38.000Z</time>
      </trkpt>
      <trkpt lat="49.88134" lon="4.7623">
        <ele>167</ele>
        <time>2022-09-18T08:58:39.000Z</time>
      </trkpt>
      <trkpt lat="49.88133" lon="4.76237">
        <ele>167</ele>
        <time>2022-09-18T08:58:40.000Z</time>
      </trkpt>
      <trkpt lat="49.88132" lon="4.76243">
        <ele>167</ele>
        <time>2022-09-18T08:58:41.000Z</time>
      </trkpt>
      <trkpt lat="49.88132" lon="4.7625">
        <ele>167</ele>
        <time>2022-09-18T08:58:42.000Z</time>
      </trkpt>
      <trkpt lat="49.88132" lon="4.76257">
        <ele>167</ele>
        <time>2022-09-18T08:58:43.000Z</time>
      </trkpt>
      <trkpt lat="49.88132" lon="4.76264">
        <ele>168</ele>
        <time>2022-09-18T08:58:44.000Z</time>
      </trkpt>
      <trkpt lat="49.88132" lon="4.76271">
        <ele>168</ele>
        <time>2022-09-18T08:58:45.000Z</time>
      </trkpt>
      <trkpt lat="49.88132" lon="4.76278">
        <ele>168</ele>
        <time>2022-09-18T08:58:46.000Z</time>
      </trkpt>
      <trkpt lat="49.88131" lon="4.76286">
        <ele>168</ele>
        <time>2022-09-18T08:58:47.000Z</time>
      </trkpt>
      <trkpt lat="49.88131" lon="4.76293">
        <ele>168</ele>
        <time>2022-09-18T08:58:48.000Z</time>
      </trkpt>
      <trkpt lat="49.8813" lon="4.763">
        <ele>168</ele>
        <time>2022-09-18T08:58:49.000Z</time>
      </trkpt>
      <trkpt lat="49.8813" lon="4.76307">
        <ele>168</ele>
        <time>2022-09-18T08:58:50.000Z</time>
      </trkpt>
      <trkpt lat="49.88129" lon="4.76315">
        <ele>168</ele>
        <time>2022-09-18T08:58:51.000Z</time>
      </trkpt>
      <trkpt lat="49.88129" lon="4.76322">
        <ele>169</ele>
        <time>2022-09-18T08:58:52.000Z</time>
      </trkpt>
      <trkpt lat="49.88129" lon="4.76329">
        <ele>169</ele>
        <time>2022-09-18T08:58:53.000Z</time>
      </trkpt>
      <trkpt lat="49.88129" lon="4.76336">
        <ele>169</ele>
        <time>2022-09-18T08:58:54.000Z</time>
      </trkpt>
      <trkpt lat="49.88129" lon="4.76344">
        <ele>169</ele>
        <time>2022-09-18T08:58:55.000Z</time>
      </trkpt>
      <trkpt lat="49.88129" lon="4.76352">
        <ele>168</ele>
        <time>2022-09-18T08:58:56.000Z</time>
      </trkpt>
      <trkpt lat="49.88129" lon="4.76359">
        <ele>168</ele>
        <time>2022-09-18T08:58:57.000Z</time>
      </trkpt>
      <trkpt lat="49.88129" lon="4.76366">
        <ele>168</ele>
        <time>2022-09-18T08:58:58.000Z</time>
      </trkpt>
      <trkpt lat="49.8813" lon="4.76373">
        <ele>168</ele>
        <time>2022-09-18T08:58:59.000Z</time>
      </trkpt>
      <trkpt lat="49.8813" lon="4.76381">
        <ele>168</ele>
        <time>2022-09-18T08:59:00.000Z</time>
      </trkpt>
      <trkpt lat="49.8813" lon="4.76388">
        <ele>168</ele>
        <time>2022-09-18T08:59:01.000Z</time>
      </trkpt>
      <trkpt lat="49.88131" lon="4.76395">
        <ele>168</ele>
        <time>2022-09-18T08:59:02.000Z</time>
      </trkpt>
      <trkpt lat="49.88131" lon="4.76402">
        <ele>168</ele>
        <time>2022-09-18T08:59:03.000Z</time>
      </trkpt>
      <trkpt lat="49.88131" lon="4.7641">
        <ele>168</ele>
        <time>2022-09-18T08:59:04.000Z</time>
      </trkpt>
      <trkpt lat="49.88131" lon="4.76417">
        <ele>168</ele>
        <time>2022-09-18T08:59:05.000Z</time>
      </trkpt>
      <trkpt lat="49.88131" lon="4.76424">
        <ele>168</ele>
        <time>2022-09-18T08:59:06.000Z</time>
      </trkpt>
      <trkpt lat="49.88131" lon="4.76432">
        <ele>168</ele>
        <time>2022-09-18T08:59:07.000Z</time>
      </trkpt>
      <trkpt lat="49.88132" lon="4.76439">
        <ele>168</ele>
        <time>2022-09-18T08:59:08.000Z</time>
      </trkpt>
      <trkpt lat="49.88132" lon="4.76445">
        <ele>168</ele>
        <time>2022-09-18T08:59:09.000Z</time>
      </trkpt>
      <trkpt lat="49.88132" lon="4.76452">
        <ele>168</ele>
        <time>2022-09-18T08:59:10.000Z</time>
      </trkpt>
      <trkpt lat="49.88132" lon="4.76459">
        <ele>168</ele>
        <time>2022-09-18T08:59:11.000Z</time>
      </trkpt>
      <trkpt lat="49.88132" lon="4.76466">
        <ele>168</ele>
        <time>2022-09-18T08:59:12.000Z</time>
      </trkpt>
      <trkpt lat="49.88132" lon="4.76473">
        <ele>168</ele>
        <time>2022-09-18T08:59:13.000Z</time>
      </trkpt>
      <trkpt lat="49.88131" lon="4.76479">
        <ele>168</ele>
        <time>2022-09-18T08:59:14.000Z</time>
      </trkpt>
      <trkpt lat="49.88131" lon="4.76486">
        <ele>168</ele>
        <time>2022-09-18T08:59:15.000Z</time>
      </trkpt>
      <trkpt lat="49.8813" lon="4.76493">
        <ele>168</ele>
        <time>2022-09-18T08:59:16.000Z</time>
      </trkpt>
      <trkpt lat="49.88129" lon="4.765">
        <ele>168</ele>
        <time>2022-09-18T08:59:17.000Z</time>
      </trkpt>
      <trkpt lat="49.88128" lon="4.76506">
        <ele>169</ele>
        <time>2022-09-18T08:59:18.000Z</time>
      </trkpt>
      <trkpt lat="49.88128" lon="4.76513">
        <ele>169</ele>
        <time>2022-09-18T08:59:19.000Z</time>
      </trkpt>
      <trkpt lat="49.88126" lon="4.76519">
        <ele>169</ele>
        <time>2022-09-18T08:59:20.000Z</time>
      </trkpt>
      <trkpt lat="49.88125" lon="4.76525">
        <ele>169</ele>
        <time>2022-09-18T08:59:21.000Z</time>
      </trkpt>
      <trkpt lat="49.88124" lon="4.76532">
        <ele>169</ele>
        <time>2022-09-18T08:59:22.000Z</time>
      </trkpt>
      <trkpt lat="49.88123" lon="4.76539">
        <ele>169</ele>
        <time>2022-09-18T08:59:23.000Z</time>
      </trkpt>
      <trkpt lat="49.88123" lon="4.76545">
        <ele>169</ele>
        <time>2022-09-18T08:59:24.000Z</time>
      </trkpt>
      <trkpt lat="49.88122" lon="4.76552">
        <ele>169</ele>
        <time>2022-09-18T08:59:25.000Z</time>
      </trkpt>
      <trkpt lat="49.88122" lon="4.7656">
        <ele>169</ele>
        <time>2022-09-18T08:59:26.000Z</time>
      </trkpt>
      <trkpt lat="49.88122" lon="4.76567">
        <ele>169</ele>
        <time>2022-09-18T08:59:27.000Z</time>
      </trkpt>
      <trkpt lat="49.88122" lon="4.76574">
        <ele>169</ele>
        <time>2022-09-18T08:59:28.000Z</time>
      </trkpt>
      <trkpt lat="49.8812" lon="4.76581">
        <ele>170</ele>
        <time>2022-09-18T08:59:29.000Z</time>
      </trkpt>
      <trkpt lat="49.88119" lon="4.76587">
        <ele>170</ele>
        <time>2022-09-18T08:59:30.000Z</time>
      </trkpt>
      <trkpt lat="49.88118" lon="4.76593">
        <ele>170</ele>
        <time>2022-09-18T08:59:31.000Z</time>
      </trkpt>
      <trkpt lat="49.88117" lon="4.766">
        <ele>170</ele>
        <time>2022-09-18T08:59:32.000Z</time>
      </trkpt>
      <trkpt lat="49.88116" lon="4.76607">
        <ele>170</ele>
        <time>2022-09-18T08:59:33.000Z</time>
      </trkpt>
      <trkpt lat="49.88116" lon="4.76615">
        <ele>170</ele>
        <time>2022-09-18T08:59:34.000Z</time>
      </trkpt>
      <trkpt lat="49.88115" lon="4.76624">
        <ele>170</ele>
        <time>2022-09-18T08:59:35.000Z</time>
      </trkpt>
      <trkpt lat="49.88114" lon="4.76632">
        <ele>170</ele>
        <time>2022-09-18T08:59:36.000Z</time>
      </trkpt>
      <trkpt lat="49.88113" lon="4.7664">
        <ele>171</ele>
        <time>2022-09-18T08:59:37.000Z</time>
      </trkpt>
      <trkpt lat="49.88112" lon="4.76648">
        <ele>171</ele>
        <time>2022-09-18T08:59:38.000Z</time>
      </trkpt>
      <trkpt lat="49.88111" lon="4.76655">
        <ele>171</ele>
        <time>2022-09-18T08:59:39.000Z</time>
      </trkpt>
      <trkpt lat="49.88111" lon="4.76664">
        <ele>171</ele>
        <time>2022-09-18T08:59:40.000Z</time>
      </trkpt>
      <trkpt lat="49.88111" lon="4.76672">
        <ele>171</ele>
        <time>2022-09-18T08:59:41.000Z</time>
      </trkpt>
      <trkpt lat="49.88112" lon="4.7668">
        <ele>171</ele>
        <time>2022-09-18T08:59:42.000Z</time>
      </trkpt>
      <trkpt lat="49.88113" lon="4.76688">
        <ele>171</ele>
        <time>2022-09-18T08:59:43.000Z</time>
      </trkpt>
      <trkpt lat="49.88114" lon="4.76696">
        <ele>171</ele>
        <time>2022-09-18T08:59:44.000Z</time>
      </trkpt>
      <trkpt lat="49.88115" lon="4.76704">
        <ele>171</ele>
        <time>2022-09-18T08:59:45.000Z</time>
      </trkpt>
      <trkpt lat="49.88117" lon="4.76711">
        <ele>171</ele>
        <time>2022-09-18T08:59:46.000Z</time>
      </trkpt>
      <trkpt lat="49.88118" lon="4.76719">
        <ele>171</ele>
        <time>2022-09-18T08:59:47.000Z</time>
      </trkpt>
      <trkpt lat="49.88118" lon="4.76726">
        <ele>171</ele>
        <time>2022-09-18T08:59:48.000Z</time>
      </trkpt>
      <trkpt lat="49.88119" lon="4.76733">
        <ele>171</ele>
        <time>2022-09-18T08:59:49.000Z</time>
      </trkpt>
      <trkpt lat="49.8812" lon="4.7674">
        <ele>171</ele>
        <time>2022-09-18T08:59:50.000Z</time>
      </trkpt>
      <trkpt lat="49.88121" lon="4.76747">
        <ele>171</ele>
        <time>2022-09-18T08:59:51.000Z</time>
      </trkpt>
      <trkpt lat="49.88121" lon="4.76754">
        <ele>171</ele>
        <time>2022-09-18T08:59:52.000Z</time>
      </trkpt>
      <trkpt lat="49.88121" lon="4.76762">
        <ele>171</ele>
        <time>2022-09-18T08:59:53.000Z</time>
      </trkpt>
      <trkpt lat="49.88123" lon="4.7677">
        <ele>171</ele>
        <time>2022-09-18T08:59:54.000Z</time>
      </trkpt>
      <trkpt lat="49.88124" lon="4.76777">
        <ele>171</ele>
        <time>2022-09-18T08:59:55.000Z</time>
      </trkpt>
      <trkpt lat="49.88126" lon="4.76784">
        <ele>171</ele>
        <time>2022-09-18T08:59:56.000Z</time>
      </trkpt>
      <trkpt lat="49.88127" lon="4.76791">
        <ele>171</ele>
        <time>2022-09-18T08:59:57.000Z</time>
      </trkpt>
      <trkpt lat="49.88128" lon="4.76798">
        <ele>171</ele>
        <time>2022-09-18T08:59:58.000Z</time>
      </trkpt>
      <trkpt lat="49.88129" lon="4.76805">
        <ele>171</ele>
        <time>2022-09-18T08:59:59.000Z</time>
      </trkpt>
      <trkpt lat="49.88131" lon="4.76813">
        <ele>171</ele>
        <time>2022-09-18T09:00:00.000Z</time>
      </trkpt>
      <trkpt lat="49.88132" lon="4.7682">
        <ele>171</ele>
        <time>2022-09-18T09:00:01.000Z</time>
      </trkpt>
      <trkpt lat="49.88133" lon="4.76827">
        <ele>171</ele>
        <time>2022-09-18T09:00:02.000Z</time>
      </trkpt>
      <trkpt lat="49.88134" lon="4.76834">
        <ele>170</ele>
        <time>2022-09-18T09:00:03.000Z</time>
      </trkpt>
      <trkpt lat="49.88135" lon="4.76842">
        <ele>170</ele>
        <time>2022-09-18T09:00:04.000Z</time>
      </trkpt>
      <trkpt lat="49.88136" lon="4.7685">
        <ele>170</ele>
        <time>2022-09-18T09:00:05.000Z</time>
      </trkpt>
      <trkpt lat="49.88137" lon="4.76857">
        <ele>170</ele>
        <time>2022-09-18T09:00:06.000Z</time>
      </trkpt>
      <trkpt lat="49.88137" lon="4.76865">
        <ele>170</ele>
        <time>2022-09-18T09:00:07.000Z</time>
      </trkpt>
      <trkpt lat="49.88139" lon="4.76872">
        <ele>170</ele>
        <time>2022-09-18T09:00:08.000Z</time>
      </trkpt>
      <trkpt lat="49.88141" lon="4.76878">
        <ele>170</ele>
        <time>2022-09-18T09:00:09.000Z</time>
      </trkpt>
      <trkpt lat="49.88142" lon="4.76884">
        <ele>170</ele>
        <time>2022-09-18T09:00:10.000Z</time>
      </trkpt>
      <trkpt lat="49.88143" lon="4.7689">
        <ele>170</ele>
        <time>2022-09-18T09:00:11.000Z</time>
      </trkpt>
      <trkpt lat="49.88144" lon="4.76895">
        <ele>170</ele>
        <time>2022-09-18T09:00:12.000Z</time>
      </trkpt>
      <trkpt lat="49.88145" lon="4.76902">
        <ele>170</ele>
        <time>2022-09-18T09:00:13.000Z</time>
      </trkpt>
      <trkpt lat="49.88146" lon="4.76908">
        <ele>170</ele>
        <time>2022-09-18T09:00:14.000Z</time>
      </trkpt>
      <trkpt lat="49.88147" lon="4.76915">
        <ele>170</ele>
        <time>2022-09-18T09:00:15.000Z</time>
      </trkpt>
      <trkpt lat="49.88147" lon="4.76922">
        <ele>170</ele>
        <time>2022-09-18T09:00:16.000Z</time>
      </trkpt>
      <trkpt lat="49.88148" lon="4.76929">
        <ele>170</ele>
        <time>2022-09-18T09:00:17.000Z</time>
      </trkpt>
      <trkpt lat="49.88148" lon="4.76936">
        <ele>170</ele>
        <time>2022-09-18T09:00:18.000Z</time>
      </trkpt>
      <trkpt lat="49.88148" lon="4.76942">
        <ele>170</ele>
        <time>2022-09-18T09:00:19.000Z</time>
      </trkpt>
      <trkpt lat="49.88149" lon="4.76949">
        <ele>170</ele>
        <time>2022-09-18T09:00:20.000Z</time>
      </trkpt>
      <trkpt lat="49.88149" lon="4.76956">
        <ele>170</ele>
        <time>2022-09-18T09:00:21.000Z</time>
      </trkpt>
      <trkpt lat="49.8815" lon="4.76963">
        <ele>170</ele>
        <time>2022-09-18T09:00:22.000Z</time>
      </trkpt>
      <trkpt lat="49.88151" lon="4.7697">
        <ele>170</ele>
        <time>2022-09-18T09:00:23.000Z</time>
      </trkpt>
      <trkpt lat="49.88152" lon="4.76976">
        <ele>169</ele>
        <time>2022-09-18T09:00:24.000Z</time>
      </trkpt>
      <trkpt lat="49.88153" lon="4.76984">
        <ele>169</ele>
        <time>2022-09-18T09:00:25.000Z</time>
      </trkpt>
      <trkpt lat="49.88154" lon="4.76991">
        <ele>169</ele>
        <time>2022-09-18T09:00:26.000Z</time>
      </trkpt>
      <trkpt lat="49.88155" lon="4.76998">
        <ele>169</ele>
        <time>2022-09-18T09:00:27.000Z</time>
      </trkpt>
      <trkpt lat="49.88157" lon="4.77005">
        <ele>169</ele>
        <time>2022-09-18T09:00:28.000Z</time>
      </trkpt>
      <trkpt lat="49.88158" lon="4.77012">
        <ele>169</ele>
        <time>2022-09-18T09:00:29.000Z</time>
      </trkpt>
      <trkpt lat="49.8816" lon="4.7702">
        <ele>169</ele>
        <time>2022-09-18T09:00:30.000Z</time>
      </trkpt>
      <trkpt lat="49.88162" lon="4.77027">
        <ele>170</ele>
        <time>2022-09-18T09:00:31.000Z</time>
      </trkpt>
      <trkpt lat="49.88163" lon="4.77034">
        <ele>170</ele>
        <time>2022-09-18T09:00:32.000Z</time>
      </trkpt>
      <trkpt lat="49.88164" lon="4.77041">
        <ele>170</ele>
        <time>2022-09-18T09:00:33.000Z</time>
      </trkpt>
      <trkpt lat="49.88165" lon="4.77048">
        <ele>170</ele>
        <time>2022-09-18T09:00:34.000Z</time>
      </trkpt>
      <trkpt lat="49.88166" lon="4.77055">
        <ele>170</ele>
        <time>2022-09-18T09:00:35.000Z</time>
      </trkpt>
      <trkpt lat="49.88167" lon="4.77062">
        <ele>169</ele>
        <time>2022-09-18T09:00:36.000Z</time>
      </trkpt>
      <trkpt lat="49.88168" lon="4.77069">
        <ele>169</ele>
        <time>2022-09-18T09:00:37.000Z</time>
      </trkpt>
      <trkpt lat="49.88169" lon="4.77076">
        <ele>169</ele>
        <time>2022-09-18T09:00:38.000Z</time>
      </trkpt>
      <trkpt lat="49.8817" lon="4.77083">
        <ele>169</ele>
        <time>2022-09-18T09:00:39.000Z</time>
      </trkpt>
      <trkpt lat="49.88171" lon="4.7709">
        <ele>169</ele>
        <time>2022-09-18T09:00:40.000Z</time>
      </trkpt>
      <trkpt lat="49.88172" lon="4.77096">
        <ele>169</ele>
        <time>2022-09-18T09:00:41.000Z</time>
      </trkpt>
      <trkpt lat="49.88173" lon="4.77102">
        <ele>169</ele>
        <time>2022-09-18T09:00:42.000Z</time>
      </trkpt>
      <trkpt lat="49.88174" lon="4.77108">
        <ele>169</ele>
        <time>2022-09-18T09:00:43.000Z</time>
      </trkpt>
      <trkpt lat="49.88175" lon="4.77114">
        <ele>169</ele>
        <time>2022-09-18T09:00:44.000Z</time>
      </trkpt>
      <trkpt lat="49.88176" lon="4.7712">
        <ele>169</ele>
        <time>2022-09-18T09:00:45.000Z</time>
      </trkpt>
      <trkpt lat="49.88177" lon="4.77127">
        <ele>169</ele>
        <time>2022-09-18T09:00:46.000Z</time>
      </trkpt>
      <trkpt lat="49.88178" lon="4.77133">
        <ele>169</ele>
        <time>2022-09-18T09:00:47.000Z</time>
      </trkpt>
      <trkpt lat="49.88179" lon="4.7714">
        <ele>169</ele>
        <time>2022-09-18T09:00:48.000Z</time>
      </trkpt>
      <trkpt lat="49.88181" lon="4.77147">
        <ele>169</ele>
        <time>2022-09-18T09:00:49.000Z</time>
      </trkpt>
      <trkpt lat="49.88182" lon="4.77154">
        <ele>169</ele>
        <time>2022-09-18T09:00:50.000Z</time>
      </trkpt>
      <trkpt lat="49.88184" lon="4.77161">
        <ele>168</ele>
        <time>2022-09-18T09:00:51.000Z</time>
      </trkpt>
      <trkpt lat="49.88185" lon="4.77168">
        <ele>168</ele>
        <time>2022-09-18T09:00:52.000Z</time>
      </trkpt>
      <trkpt lat="49.88187" lon="4.77175">
        <ele>168</ele>
        <time>2022-09-18T09:00:53.000Z</time>
      </trkpt>
      <trkpt lat="49.88188" lon="4.77182">
        <ele>168</ele>
        <time>2022-09-18T09:00:54.000Z</time>
      </trkpt>
      <trkpt lat="49.8819" lon="4.77189">
        <ele>168</ele>
        <time>2022-09-18T09:00:55.000Z</time>
      </trkpt>
      <trkpt lat="49.88191" lon="4.77196">
        <ele>168</ele>
        <time>2022-09-18T09:00:56.000Z</time>
      </trkpt>
      <trkpt lat="49.88192" lon="4.77203">
        <ele>168</ele>
        <time>2022-09-18T09:00:57.000Z</time>
      </trkpt>
      <trkpt lat="49.88194" lon="4.7721">
        <ele>168</ele>
        <time>2022-09-18T09:00:58.000Z</time>
      </trkpt>
      <trkpt lat="49.88195" lon="4.77217">
        <ele>168</ele>
        <time>2022-09-18T09:00:59.000Z</time>
      </trkpt>
      <trkpt lat="49.88196" lon="4.77224">
        <ele>168</ele>
        <time>2022-09-18T09:01:00.000Z</time>
      </trkpt>
      <trkpt lat="49.88197" lon="4.7723">
        <ele>167</ele>
        <time>2022-09-18T09:01:01.000Z</time>
      </trkpt>
      <trkpt lat="49.88198" lon="4.77237">
        <ele>167</ele>
        <time>2022-09-18T09:01:02.000Z</time>
      </trkpt>
      <trkpt lat="49.882" lon="4.77243">
        <ele>167</ele>
        <time>2022-09-18T09:01:03.000Z</time>
      </trkpt>
      <trkpt lat="49.88201" lon="4.77249">
        <ele>167</ele>
        <time>2022-09-18T09:01:04.000Z</time>
      </trkpt>
      <trkpt lat="49.88202" lon="4.77255">
        <ele>167</ele>
        <time>2022-09-18T09:01:05.000Z</time>
      </trkpt>
      <trkpt lat="49.88204" lon="4.77261">
        <ele>167</ele>
        <time>2022-09-18T09:01:06.000Z</time>
      </trkpt>
      <trkpt lat="49.88205" lon="4.77266">
        <ele>167</ele>
        <time>2022-09-18T09:01:07.000Z</time>
      </trkpt>
      <trkpt lat="49.88207" lon="4.77273">
        <ele>167</ele>
        <time>2022-09-18T09:01:08.000Z</time>
      </trkpt>
      <trkpt lat="49.88208" lon="4.77279">
        <ele>167</ele>
        <time>2022-09-18T09:01:09.000Z</time>
      </trkpt>
      <trkpt lat="49.8821" lon="4.77285">
        <ele>167</ele>
        <time>2022-09-18T09:01:10.000Z</time>
      </trkpt>
      <trkpt lat="49.88211" lon="4.77291">
        <ele>167</ele>
        <time>2022-09-18T09:01:11.000Z</time>
      </trkpt>
      <trkpt lat="49.88212" lon="4.77296">
        <ele>168</ele>
        <time>2022-09-18T09:01:12.000Z</time>
      </trkpt>
      <trkpt lat="49.88213" lon="4.77302">
        <ele>168</ele>
        <time>2022-09-18T09:01:13.000Z</time>
      </trkpt>
      <trkpt lat="49.88214" lon="4.77308">
        <ele>168</ele>
        <time>2022-09-18T09:01:14.000Z</time>
      </trkpt>
      <trkpt lat="49.88214" lon="4.77314">
        <ele>168</ele>
        <time>2022-09-18T09:01:15.000Z</time>
      </trkpt>
      <trkpt lat="49.88213" lon="4.77321">
        <ele>168</ele>
        <time>2022-09-18T09:01:16.000Z</time>
      </trkpt>
      <trkpt lat="49.88211" lon="4.77327">
        <ele>168</ele>
        <time>2022-09-18T09:01:17.000Z</time>
      </trkpt>
      <trkpt lat="49.88208" lon="4.77332">
        <ele>168</ele>
        <time>2022-09-18T09:01:18.000Z</time>
      </trkpt>
      <trkpt lat="49.88205" lon="4.77338">
        <ele>168</ele>
        <time>2022-09-18T09:01:19.000Z</time>
      </trkpt>
      <trkpt lat="49.88202" lon="4.77344">
        <ele>168</ele>
        <time>2022-09-18T09:01:20.000Z</time>
      </trkpt>
      <trkpt lat="49.88199" lon="4.77349">
        <ele>168</ele>
        <time>2022-09-18T09:01:21.000Z</time>
      </trkpt>
      <trkpt lat="49.88196" lon="4.77354">
        <ele>168</ele>
        <time>2022-09-18T09:01:22.000Z</time>
      </trkpt>
      <trkpt lat="49.88193" lon="4.77358">
        <ele>168</ele>
        <time>2022-09-18T09:01:23.000Z</time>
      </trkpt>
      <trkpt lat="49.8819" lon="4.77363">
        <ele>168</ele>
        <time>2022-09-18T09:01:24.000Z</time>
      </trkpt>
      <trkpt lat="49.88187" lon="4.77367">
        <ele>168</ele>
        <time>2022-09-18T09:01:25.000Z</time>
      </trkpt>
      <trkpt lat="49.88184" lon="4.77371">
        <ele>169</ele>
        <time>2022-09-18T09:01:26.000Z</time>
      </trkpt>
      <trkpt lat="49.88181" lon="4.77376">
        <ele>169</ele>
        <time>2022-09-18T09:01:27.000Z</time>
      </trkpt>
      <trkpt lat="49.88178" lon="4.7738">
        <ele>169</ele>
        <time>2022-09-18T09:01:28.000Z</time>
      </trkpt>
      <trkpt lat="49.88175" lon="4.77384">
        <ele>169</ele>
        <time>2022-09-18T09:01:29.000Z</time>
      </trkpt>
      <trkpt lat="49.88171" lon="4.77388">
        <ele>169</ele>
        <time>2022-09-18T09:01:30.000Z</time>
      </trkpt>
      <trkpt lat="49.88168" lon="4.77393">
        <ele>169</ele>
        <time>2022-09-18T09:01:31.000Z</time>
      </trkpt>
      <trkpt lat="49.88166" lon="4.77397">
        <ele>169</ele>
        <time>2022-09-18T09:01:32.000Z</time>
      </trkpt>
      <trkpt lat="49.88163" lon="4.77401">
        <ele>169</ele>
        <time>2022-09-18T09:01:33.000Z</time>
      </trkpt>
      <trkpt lat="49.88161" lon="4.77404">
        <ele>169</ele>
        <time>2022-09-18T09:01:34.000Z</time>
      </trkpt>
      <trkpt lat="49.88158" lon="4.77409">
        <ele>170</ele>
        <time>2022-09-18T09:01:35.000Z</time>
      </trkpt>
      <trkpt lat="49.88155" lon="4.77413">
        <ele>170</ele>
        <time>2022-09-18T09:01:36.000Z</time>
      </trkpt>
      <trkpt lat="49.88152" lon="4.77418">
        <ele>170</ele>
        <time>2022-09-18T09:01:37.000Z</time>
      </trkpt>
      <trkpt lat="49.88149" lon="4.77422">
        <ele>170</ele>
        <time>2022-09-18T09:01:38.000Z</time>
      </trkpt>
      <trkpt lat="49.88146" lon="4.77426">
        <ele>170</ele>
        <time>2022-09-18T09:01:39.000Z</time>
      </trkpt>
      <trkpt lat="49.88144" lon="4.7743">
        <ele>170</ele>
        <time>2022-09-18T09:01:40.000Z</time>
      </trkpt>
      <trkpt lat="49.88141" lon="4.77434">
        <ele>170</ele>
        <time>2022-09-18T09:01:41.000Z</time>
      </trkpt>
      <trkpt lat="49.88138" lon="4.77437">
        <ele>170</ele>
        <time>2022-09-18T09:01:42.000Z</time>
      </trkpt>
      <trkpt lat="49.88135" lon="4.77441">
        <ele>171</ele>
        <time>2022-09-18T09:01:43.000Z</time>
      </trkpt>
      <trkpt lat="49.88132" lon="4.77445">
        <ele>171</ele>
        <time>2022-09-18T09:01:44.000Z</time>
      </trkpt>
      <trkpt lat="49.8813" lon="4.7745">
        <ele>171</ele>
        <time>2022-09-18T09:01:45.000Z</time>
      </trkpt>
      <trkpt lat="49.88129" lon="4.77455">
        <ele>171</ele>
        <time>2022-09-18T09:01:46.000Z</time>
      </trkpt>
      <trkpt lat="49.88127" lon="4.7746">
        <ele>171</ele>
        <time>2022-09-18T09:01:47.000Z</time>
      </trkpt>
      <trkpt lat="49.88125" lon="4.77465">
        <ele>171</ele>
        <time>2022-09-18T09:01:48.000Z</time>
      </trkpt>
      <trkpt lat="49.88124" lon="4.7747">
        <ele>171</ele>
        <time>2022-09-18T09:01:49.000Z</time>
      </trkpt>
      <trkpt lat="49.88122" lon="4.77474">
        <ele>171</ele>
        <time>2022-09-18T09:01:50.000Z</time>
      </trkpt>
      <trkpt lat="49.8812" lon="4.77478">
        <ele>172</ele>
        <time>2022-09-18T09:01:51.000Z</time>
      </trkpt>
      <trkpt lat="49.88117" lon="4.77483">
        <ele>172</ele>
        <time>2022-09-18T09:01:52.000Z</time>
      </trkpt>
      <trkpt lat="49.88115" lon="4.77487">
        <ele>172</ele>
        <time>2022-09-18T09:01:53.000Z</time>
      </trkpt>
      <trkpt lat="49.88112" lon="4.77492">
        <ele>172</ele>
        <time>2022-09-18T09:01:54.000Z</time>
      </trkpt>
      <trkpt lat="49.8811" lon="4.77497">
        <ele>172</ele>
        <time>2022-09-18T09:01:55.000Z</time>
      </trkpt>
      <trkpt lat="49.88107" lon="4.77502">
        <ele>172</ele>
        <time>2022-09-18T09:01:56.000Z</time>
      </trkpt>
      <trkpt lat="49.88105" lon="4.77507">
        <ele>172</ele>
        <time>2022-09-18T09:01:57.000Z</time>
      </trkpt>
      <trkpt lat="49.88102" lon="4.77512">
        <ele>172</ele>
        <time>2022-09-18T09:01:58.000Z</time>
      </trkpt>
      <trkpt lat="49.88099" lon="4.77515">
        <ele>173</ele>
        <time>2022-09-18T09:01:59.000Z</time>
      </trkpt>
      <trkpt lat="49.88096" lon="4.77519">
        <ele>173</ele>
        <time>2022-09-18T09:02:00.000Z</time>
      </trkpt>
      <trkpt lat="49.88093" lon="4.77523">
        <ele>173</ele>
        <time>2022-09-18T09:02:01.000Z</time>
      </trkpt>
      <trkpt lat="49.8809" lon="4.77526">
        <ele>173</ele>
        <time>2022-09-18T09:02:02.000Z</time>
      </trkpt>
      <trkpt lat="49.88087" lon="4.7753">
        <ele>173</ele>
        <time>2022-09-18T09:02:03.000Z</time>
      </trkpt>
      <trkpt lat="49.88084" lon="4.77534">
        <ele>173</ele>
        <time>2022-09-18T09:02:04.000Z</time>
      </trkpt>
      <trkpt lat="49.88081" lon="4.77538">
        <ele>173</ele>
        <time>2022-09-18T09:02:05.000Z</time>
      </trkpt>
      <trkpt lat="49.88078" lon="4.77542">
        <ele>173</ele>
        <time>2022-09-18T09:02:06.000Z</time>
      </trkpt>
      <trkpt lat="49.88076" lon="4.77545">
        <ele>173</ele>
        <time>2022-09-18T09:02:07.000Z</time>
      </trkpt>
      <trkpt lat="49.88072" lon="4.7755">
        <ele>173</ele>
        <time>2022-09-18T09:02:08.000Z</time>
      </trkpt>
      <trkpt lat="49.88069" lon="4.77555">
        <ele>173</ele>
        <time>2022-09-18T09:02:09.000Z</time>
      </trkpt>
      <trkpt lat="49.88066" lon="4.77559">
        <ele>173</ele>
        <time>2022-09-18T09:02:10.000Z</time>
      </trkpt>
      <trkpt lat="49.88063" lon="4.77562">
        <ele>173</ele>
        <time>2022-09-18T09:02:11.000Z</time>
      </trkpt>
      <trkpt lat="49.8806" lon="4.77566">
        <ele>173</ele>
        <time>2022-09-18T09:02:12.000Z</time>
      </trkpt>
      <trkpt lat="49.88057" lon="4.7757">
        <ele>173</ele>
        <time>2022-09-18T09:02:13.000Z</time>
      </trkpt>
      <trkpt lat="49.88054" lon="4.77573">
        <ele>173</ele>
        <time>2022-09-18T09:02:14.000Z</time>
      </trkpt>
      <trkpt lat="49.88052" lon="4.77577">
        <ele>173</ele>
        <time>2022-09-18T09:02:15.000Z</time>
      </trkpt>
      <trkpt lat="49.88049" lon="4.7758">
        <ele>174</ele>
        <time>2022-09-18T09:02:16.000Z</time>
      </trkpt>
      <trkpt lat="49.88045" lon="4.77584">
        <ele>174</ele>
        <time>2022-09-18T09:02:17.000Z</time>
      </trkpt>
      <trkpt lat="49.88042" lon="4.77588">
        <ele>174</ele>
        <time>2022-09-18T09:02:18.000Z</time>
      </trkpt>
      <trkpt lat="49.88039" lon="4.77592">
        <ele>174</ele>
        <time>2022-09-18T09:02:19.000Z</time>
      </trkpt>
      <trkpt lat="49.88037" lon="4.77596">
        <ele>174</ele>
        <time>2022-09-18T09:02:20.000Z</time>
      </trkpt>
      <trkpt lat="49.88034" lon="4.77601">
        <ele>174</ele>
        <time>2022-09-18T09:02:21.000Z</time>
      </trkpt>
      <trkpt lat="49.88032" lon="4.77605">
        <ele>175</ele>
        <time>2022-09-18T09:02:22.000Z</time>
      </trkpt>
      <trkpt lat="49.8803" lon="4.7761">
        <ele>175</ele>
        <time>2022-09-18T09:02:23.000Z</time>
      </trkpt>
      <trkpt lat="49.88027" lon="4.77615">
        <ele>175</ele>
        <time>2022-09-18T09:02:24.000Z</time>
      </trkpt>
      <trkpt lat="49.88024" lon="4.77621">
        <ele>175</ele>
        <time>2022-09-18T09:02:25.000Z</time>
      </trkpt>
      <trkpt lat="49.88022" lon="4.77626">
        <ele>176</ele>
        <time>2022-09-18T09:02:26.000Z</time>
      </trkpt>
      <trkpt lat="49.8802" lon="4.77631">
        <ele>176</ele>
        <time>2022-09-18T09:02:27.000Z</time>
      </trkpt>
      <trkpt lat="49.88017" lon="4.77636">
        <ele>176</ele>
        <time>2022-09-18T09:02:28.000Z</time>
      </trkpt>
      <trkpt lat="49.88015" lon="4.77642">
        <ele>176</ele>
        <time>2022-09-18T09:02:29.000Z</time>
      </trkpt>
      <trkpt lat="49.88012" lon="4.77647">
        <ele>177</ele>
        <time>2022-09-18T09:02:30.000Z</time>
      </trkpt>
      <trkpt lat="49.88009" lon="4.77653">
        <ele>177</ele>
        <time>2022-09-18T09:02:31.000Z</time>
      </trkpt>
      <trkpt lat="49.88007" lon="4.77658">
        <ele>177</ele>
        <time>2022-09-18T09:02:32.000Z</time>
      </trkpt>
      <trkpt lat="49.88004" lon="4.77663">
        <ele>177</ele>
        <time>2022-09-18T09:02:33.000Z</time>
      </trkpt>
      <trkpt lat="49.88002" lon="4.77667">
        <ele>177</ele>
        <time>2022-09-18T09:02:34.000Z</time>
      </trkpt>
      <trkpt lat="49.87999" lon="4.77672">
        <ele>178</ele>
        <time>2022-09-18T09:02:35.000Z</time>
      </trkpt>
      <trkpt lat="49.87997" lon="4.77676">
        <ele>178</ele>
        <time>2022-09-18T09:02:36.000Z</time>
      </trkpt>
      <trkpt lat="49.87994" lon="4.7768">
        <ele>178</ele>
        <time>2022-09-18T09:02:37.000Z</time>
      </trkpt>
      <trkpt lat="49.87991" lon="4.77684">
        <ele>178</ele>
        <time>2022-09-18T09:02:38.000Z</time>
      </trkpt>
      <trkpt lat="49.87987" lon="4.77687">
        <ele>178</ele>
        <time>2022-09-18T09:02:39.000Z</time>
      </trkpt>
      <trkpt lat="49.87984" lon="4.7769">
        <ele>178</ele>
        <time>2022-09-18T09:02:40.000Z</time>
      </trkpt>
      <trkpt lat="49.87981" lon="4.77694">
        <ele>178</ele>
        <time>2022-09-18T09:02:41.000Z</time>
      </trkpt>
      <trkpt lat="49.87978" lon="4.77697">
        <ele>178</ele>
        <time>2022-09-18T09:02:42.000Z</time>
      </trkpt>
      <trkpt lat="49.87975" lon="4.777">
        <ele>178</ele>
        <time>2022-09-18T09:02:43.000Z</time>
      </trkpt>
      <trkpt lat="49.87972" lon="4.77703">
        <ele>179</ele>
        <time>2022-09-18T09:02:44.000Z</time>
      </trkpt>
      <trkpt lat="49.87969" lon="4.77707">
        <ele>179</ele>
        <time>2022-09-18T09:02:45.000Z</time>
      </trkpt>
      <trkpt lat="49.87966" lon="4.7771">
        <ele>179</ele>
        <time>2022-09-18T09:02:46.000Z</time>
      </trkpt>
      <trkpt lat="49.87963" lon="4.77713">
        <ele>179</ele>
        <time>2022-09-18T09:02:47.000Z</time>
      </trkpt>
      <trkpt lat="49.87961" lon="4.77716">
        <ele>179</ele>
        <time>2022-09-18T09:02:48.000Z</time>
      </trkpt>
      <trkpt lat="49.87959" lon="4.77719">
        <ele>179</ele>
        <time>2022-09-18T09:02:49.000Z</time>
      </trkpt>
      <trkpt lat="49.87957" lon="4.77722">
        <ele>179</ele>
        <time>2022-09-18T09:02:50.000Z</time>
      </trkpt>
      <trkpt lat="49.87954" lon="4.77725">
        <ele>179</ele>
        <time>2022-09-18T09:02:51.000Z</time>
      </trkpt>
      <trkpt lat="49.87952" lon="4.77728">
        <ele>179</ele>
        <time>2022-09-18T09:02:52.000Z</time>
      </trkpt>
      <trkpt lat="49.87949" lon="4.77731">
        <ele>179</ele>
        <time>2022-09-18T09:02:53.000Z</time>
      </trkpt>
      <trkpt lat="49.87946" lon="4.77734">
        <ele>179</ele>
        <time>2022-09-18T09:02:54.000Z</time>
      </trkpt>
      <trkpt lat="49.87943" lon="4.77737">
        <ele>179</ele>
        <time>2022-09-18T09:02:55.000Z</time>
      </trkpt>
      <trkpt lat="49.87941" lon="4.7774">
        <ele>179</ele>
        <time>2022-09-18T09:02:56.000Z</time>
      </trkpt>
      <trkpt lat="49.87939" lon="4.77744">
        <ele>179</ele>
        <time>2022-09-18T09:02:57.000Z</time>
      </trkpt>
      <trkpt lat="49.87937" lon="4.77747">
        <ele>179</ele>
        <time>2022-09-18T09:02:58.000Z</time>
      </trkpt>
      <trkpt lat="49.87935" lon="4.7775">
        <ele>180</ele>
        <time>2022-09-18T09:02:59.000Z</time>
      </trkpt>
      <trkpt lat="49.87932" lon="4.77752">
        <ele>180</ele>
        <time>2022-09-18T09:03:00.000Z</time>
      </trkpt>
      <trkpt lat="49.8793" lon="4.77755">
        <ele>180</ele>
        <time>2022-09-18T09:03:01.000Z</time>
      </trkpt>
      <trkpt lat="49.87928" lon="4.77758">
        <ele>180</ele>
        <time>2022-09-18T09:03:02.000Z</time>
      </trkpt>
      <trkpt lat="49.87927" lon="4.7776">
        <ele>180</ele>
        <time>2022-09-18T09:03:03.000Z</time>
      </trkpt>
      <trkpt lat="49.87926" lon="4.77763">
        <ele>180</ele>
        <time>2022-09-18T09:03:04.000Z</time>
      </trkpt>
      <trkpt lat="49.87924" lon="4.77765">
        <ele>180</ele>
        <time>2022-09-18T09:03:05.000Z</time>
      </trkpt>
      <trkpt lat="49.87923" lon="4.77768">
        <ele>180</ele>
        <time>2022-09-18T09:03:06.000Z</time>
      </trkpt>
      <trkpt lat="49.87922" lon="4.7777">
        <ele>181</ele>
        <time>2022-09-18T09:03:07.000Z</time>
      </trkpt>
      <trkpt lat="49.8792" lon="4.77772">
        <ele>181</ele>
        <time>2022-09-18T09:03:08.000Z</time>
      </trkpt>
      <trkpt lat="49.87919" lon="4.77773">
        <ele>181</ele>
        <time>2022-09-18T09:03:09.000Z</time>
      </trkpt>
      <trkpt lat="49.87917" lon="4.77774">
        <ele>181</ele>
        <time>2022-09-18T09:03:10.000Z</time>
      </trkpt>
      <trkpt lat="49.87916" lon="4.77775">
        <ele>181</ele>
        <time>2022-09-18T09:03:11.000Z</time>
      </trkpt>
      <trkpt lat="49.87914" lon="4.77776">
        <ele>181</ele>
        <time>2022-09-18T09:03:12.000Z</time>
      </trkpt>
      <trkpt lat="49.87913" lon="4.77777">
        <ele>181</ele>
        <time>2022-09-18T09:03:13.000Z</time>
      </trkpt>
      <trkpt lat="49.87912" lon="4.77779">
        <ele>181</ele>
        <time>2022-09-18T09:03:14.000Z</time>
      </trkpt>
      <trkpt lat="49.8791" lon="4.77781">
        <ele>181</ele>
        <time>2022-09-18T09:03:15.000Z</time>
      </trkpt>
      <trkpt lat="49.87908" lon="4.77783">
        <ele>181</ele>
        <time>2022-09-18T09:03:16.000Z</time>
      </trkpt>
      <trkpt lat="49.87906" lon="4.77785">
        <ele>182</ele>
        <time>2022-09-18T09:03:17.000Z</time>
      </trkpt>
      <trkpt lat="49.87905" lon="4.77786">
        <ele>182</ele>
        <time>2022-09-18T09:03:18.000Z</time>
      </trkpt>
      <trkpt lat="49.87904" lon="4.77788">
        <ele>182</ele>
        <time>2022-09-18T09:03:19.000Z</time>
      </trkpt>
      <trkpt lat="49.87903" lon="4.77789">
        <ele>182</ele>
        <time>2022-09-18T09:03:20.000Z</time>
      </trkpt>
      <trkpt lat="49.87902" lon="4.77791">
        <ele>182</ele>
        <time>2022-09-18T09:03:21.000Z</time>
      </trkpt>
      <trkpt lat="49.87901" lon="4.77792">
        <ele>183</ele>
        <time>2022-09-18T09:03:22.000Z</time>
      </trkpt>
      <trkpt lat="49.879" lon="4.77794">
        <ele>183</ele>
        <time>2022-09-18T09:03:23.000Z</time>
      </trkpt>
      <trkpt lat="49.87898" lon="4.77795">
        <ele>183</ele>
        <time>2022-09-18T09:03:24.000Z</time>
      </trkpt>
      <trkpt lat="49.87897" lon="4.77797">
        <ele>183</ele>
        <time>2022-09-18T09:03:25.000Z</time>
      </trkpt>
      <trkpt lat="49.87895" lon="4.77798">
        <ele>184</ele>
        <time>2022-09-18T09:03:26.000Z</time>
      </trkpt>
      <trkpt lat="49.87894" lon="4.77799">
        <ele>184</ele>
        <time>2022-09-18T09:03:27.000Z</time>
      </trkpt>
      <trkpt lat="49.87893" lon="4.778">
        <ele>184</ele>
        <time>2022-09-18T09:03:28.000Z</time>
      </trkpt>
      <trkpt lat="49.87892" lon="4.77801">
        <ele>184</ele>
        <time>2022-09-18T09:03:29.000Z</time>
      </trkpt>
      <trkpt lat="49.87891" lon="4.77802">
        <ele>185</ele>
        <time>2022-09-18T09:03:30.000Z</time>
      </trkpt>
      <trkpt lat="49.8789" lon="4.77804">
        <ele>185</ele>
        <time>2022-09-18T09:03:31.000Z</time>
      </trkpt>
      <trkpt lat="49.87888" lon="4.77806">
        <ele>185</ele>
        <time>2022-09-18T09:03:32.000Z</time>
      </trkpt>
      <trkpt lat="49.87886" lon="4.77808">
        <ele>185</ele>
        <time>2022-09-18T09:03:33.000Z</time>
      </trkpt>
      <trkpt lat="49.87885" lon="4.77809">
        <ele>186</ele>
        <time>2022-09-18T09:03:34.000Z</time>
      </trkpt>
      <trkpt lat="49.87883" lon="4.77811">
        <ele>186</ele>
        <time>2022-09-18T09:03:35.000Z</time>
      </trkpt>
      <trkpt lat="49.87881" lon="4.77813">
        <ele>186</ele>
        <time>2022-09-18T09:03:36.000Z</time>
      </trkpt>
      <trkpt lat="49.87879" lon="4.77814">
        <ele>186</ele>
        <time>2022-09-18T09:03:37.000Z</time>
      </trkpt>
      <trkpt lat="49.87877" lon="4.77815">
        <ele>186</ele>
        <time>2022-09-18T09:03:38.000Z</time>
      </trkpt>
      <trkpt lat="49.87875" lon="4.77816">
        <ele>187</ele>
        <time>2022-09-18T09:03:39.000Z</time>
      </trkpt>
      <trkpt lat="49.87874" lon="4.77816">
        <ele>187</ele>
        <time>2022-09-18T09:03:40.000Z</time>
      </trkpt>
      <trkpt lat="49.87873" lon="4.77817">
        <ele>187</ele>
        <time>2022-09-18T09:03:41.000Z</time>
      </trkpt>
      <trkpt lat="49.87872" lon="4.77818">
        <ele>188</ele>
        <time>2022-09-18T09:03:42.000Z</time>
      </trkpt>
      <trkpt lat="49.87871" lon="4.77819">
        <ele>188</ele>
        <time>2022-09-18T09:03:43.000Z</time>
      </trkpt>
      <trkpt lat="49.8787" lon="4.7782">
        <ele>188</ele>
        <time>2022-09-18T09:03:44.000Z</time>
      </trkpt>
      <trkpt lat="49.87868" lon="4.77821">
        <ele>188</ele>
        <time>2022-09-18T09:03:45.000Z</time>
      </trkpt>
      <trkpt lat="49.87867" lon="4.77823">
        <ele>188</ele>
        <time>2022-09-18T09:03:46.000Z</time>
      </trkpt>
      <trkpt lat="49.87865" lon="4.77824">
        <ele>189</ele>
        <time>2022-09-18T09:03:47.000Z</time>
      </trkpt>
      <trkpt lat="49.87864" lon="4.77825">
        <ele>189</ele>
        <time>2022-09-18T09:03:48.000Z</time>
      </trkpt>
      <trkpt lat="49.87862" lon="4.77827">
        <ele>189</ele>
        <time>2022-09-18T09:03:49.000Z</time>
      </trkpt>
      <trkpt lat="49.87861" lon="4.77828">
        <ele>189</ele>
        <time>2022-09-18T09:03:50.000Z</time>
      </trkpt>
      <trkpt lat="49.87859" lon="4.7783">
        <ele>189</ele>
        <time>2022-09-18T09:03:51.000Z</time>
      </trkpt>
      <trkpt lat="49.87857" lon="4.77832">
        <ele>190</ele>
        <time>2022-09-18T09:03:52.000Z</time>
      </trkpt>
      <trkpt lat="49.87856" lon="4.77833">
        <ele>190</ele>
        <time>2022-09-18T09:03:53.000Z</time>
      </trkpt>
      <trkpt lat="49.87855" lon="4.77834">
        <ele>190</ele>
        <time>2022-09-18T09:03:54.000Z</time>
      </trkpt>
      <trkpt lat="49.87853" lon="4.77837">
        <ele>190</ele>
        <time>2022-09-18T09:03:55.000Z</time>
      </trkpt>
      <trkpt lat="49.87851" lon="4.77839">
        <ele>190</ele>
        <time>2022-09-18T09:03:56.000Z</time>
      </trkpt>
      <trkpt lat="49.87849" lon="4.77842">
        <ele>191</ele>
        <time>2022-09-18T09:03:57.000Z</time>
      </trkpt>
      <trkpt lat="49.87847" lon="4.77845">
        <ele>191</ele>
        <time>2022-09-18T09:03:58.000Z</time>
      </trkpt>
      <trkpt lat="49.87846" lon="4.77847">
        <ele>191</ele>
        <time>2022-09-18T09:03:59.000Z</time>
      </trkpt>
      <trkpt lat="49.87844" lon="4.77849">
        <ele>191</ele>
        <time>2022-09-18T09:04:00.000Z</time>
      </trkpt>
      <trkpt lat="49.87842" lon="4.77852">
        <ele>191</ele>
        <time>2022-09-18T09:04:01.000Z</time>
      </trkpt>
      <trkpt lat="49.87841" lon="4.77854">
        <ele>192</ele>
        <time>2022-09-18T09:04:02.000Z</time>
      </trkpt>
      <trkpt lat="49.87839" lon="4.77856">
        <ele>192</ele>
        <time>2022-09-18T09:04:03.000Z</time>
      </trkpt>
      <trkpt lat="49.87837" lon="4.77859">
        <ele>192</ele>
        <time>2022-09-18T09:04:04.000Z</time>
      </trkpt>
      <trkpt lat="49.87835" lon="4.77861">
        <ele>192</ele>
        <time>2022-09-18T09:04:05.000Z</time>
      </trkpt>
      <trkpt lat="49.87832" lon="4.77864">
        <ele>192</ele>
        <time>2022-09-18T09:04:06.000Z</time>
      </trkpt>
      <trkpt lat="49.8783" lon="4.77866">
        <ele>192</ele>
        <time>2022-09-18T09:04:07.000Z</time>
      </trkpt>
      <trkpt lat="49.87829" lon="4.77868">
        <ele>192</ele>
        <time>2022-09-18T09:04:08.000Z</time>
      </trkpt>
      <trkpt lat="49.87827" lon="4.7787">
        <ele>192</ele>
        <time>2022-09-18T09:04:09.000Z</time>
      </trkpt>
      <trkpt lat="49.87826" lon="4.77871">
        <ele>192</ele>
        <time>2022-09-18T09:04:10.000Z</time>
      </trkpt>
      <trkpt lat="49.87824" lon="4.77873">
        <ele>193</ele>
        <time>2022-09-18T09:04:11.000Z</time>
      </trkpt>
      <trkpt lat="49.87822" lon="4.77875">
        <ele>193</ele>
        <time>2022-09-18T09:04:12.000Z</time>
      </trkpt>
      <trkpt lat="49.8782" lon="4.77877">
        <ele>193</ele>
        <time>2022-09-18T09:04:13.000Z</time>
      </trkpt>
      <trkpt lat="49.87819" lon="4.77878">
        <ele>193</ele>
        <time>2022-09-18T09:04:14.000Z</time>
      </trkpt>
      <trkpt lat="49.87817" lon="4.77879">
        <ele>193</ele>
        <time>2022-09-18T09:04:15.000Z</time>
      </trkpt>
      <trkpt lat="49.87816" lon="4.7788">
        <ele>193</ele>
        <time>2022-09-18T09:04:16.000Z</time>
      </trkpt>
      <trkpt lat="49.87816" lon="4.77881">
        <ele>193</ele>
        <time>2022-09-18T09:04:17.000Z</time>
      </trkpt>
      <trkpt lat="49.87815" lon="4.77881">
        <ele>193</ele>
        <time>2022-09-18T09:04:18.000Z</time>
      </trkpt>
      <trkpt lat="49.87815" lon="4.77882">
        <ele>193</ele>
        <time>2022-09-18T09:04:19.000Z</time>
      </trkpt>
      <trkpt lat="49.87814" lon="4.77883">
        <ele>193</ele>
        <time>2022-09-18T09:04:20.000Z</time>
      </trkpt>
      <trkpt lat="49.87813" lon="4.77883">
        <ele>194</ele>
        <time>2022-09-18T09:04:21.000Z</time>
      </trkpt>
      <trkpt lat="49.87813" lon="4.77884">
        <ele>194</ele>
        <time>2022-09-18T09:04:22.000Z</time>
      </trkpt>
      <trkpt lat="49.87812" lon="4.77885">
        <ele>194</ele>
        <time>2022-09-18T09:04:23.000Z</time>
      </trkpt>
      <trkpt lat="49.87812" lon="4.77885">
        <ele>194</ele>
        <time>2022-09-18T09:04:24.000Z</time>
      </trkpt>
      <trkpt lat="49.87812" lon="4.77886">
        <ele>194</ele>
        <time>2022-09-18T09:04:25.000Z</time>
      </trkpt>
      <trkpt lat="49.87811" lon="4.77887">
        <ele>194</ele>
        <time>2022-09-18T09:04:26.000Z</time>
      </trkpt>
      <trkpt lat="49.87811" lon="4.77889">
        <ele>195</ele>
        <time>2022-09-18T09:04:27.000Z</time>
      </trkpt>
      <trkpt lat="49.8781" lon="4.7789">
        <ele>195</ele>
        <time>2022-09-18T09:04:28.000Z</time>
      </trkpt>
      <trkpt lat="49.8781" lon="4.77891">
        <ele>195</ele>
        <time>2022-09-18T09:04:29.000Z</time>
      </trkpt>
      <trkpt lat="49.8781" lon="4.77891">
        <ele>195</ele>
        <time>2022-09-18T09:04:30.000Z</time>
      </trkpt>
      <trkpt lat="49.8781" lon="4.77892">
        <ele>195</ele>
        <time>2022-09-18T09:04:31.000Z</time>
      </trkpt>
      <trkpt lat="49.87809" lon="4.77892">
        <ele>196</ele>
        <time>2022-09-18T09:04:32.000Z</time>
      </trkpt>
      <trkpt lat="49.87808" lon="4.77894">
        <ele>196</ele>
        <time>2022-09-18T09:04:33.000Z</time>
      </trkpt>
      <trkpt lat="49.87807" lon="4.77896">
        <ele>196</ele>
        <time>2022-09-18T09:04:34.000Z</time>
      </trkpt>
      <trkpt lat="49.87806" lon="4.77898">
        <ele>196</ele>
        <time>2022-09-18T09:04:35.000Z</time>
      </trkpt>
      <trkpt lat="49.87805" lon="4.779">
        <ele>196</ele>
        <time>2022-09-18T09:04:36.000Z</time>
      </trkpt>
      <trkpt lat="49.87803" lon="4.77902">
        <ele>197</ele>
        <time>2022-09-18T09:04:37.000Z</time>
      </trkpt>
      <trkpt lat="49.87802" lon="4.77904">
        <ele>197</ele>
        <time>2022-09-18T09:04:38.000Z</time>
      </trkpt>
      <trkpt lat="49.878" lon="4.77906">
        <ele>197</ele>
        <time>2022-09-18T09:04:39.000Z</time>
      </trkpt>
      <trkpt lat="49.87798" lon="4.77909">
        <ele>197</ele>
        <time>2022-09-18T09:04:40.000Z</time>
      </trkpt>
      <trkpt lat="49.87796" lon="4.77911">
        <ele>197</ele>
        <time>2022-09-18T09:04:41.000Z</time>
      </trkpt>
      <trkpt lat="49.87794" lon="4.77913">
        <ele>197</ele>
        <time>2022-09-18T09:04:42.000Z</time>
      </trkpt>
      <trkpt lat="49.87792" lon="4.77916">
        <ele>198</ele>
        <time>2022-09-18T09:04:43.000Z</time>
      </trkpt>
      <trkpt lat="49.87789" lon="4.77919">
        <ele>198</ele>
        <time>2022-09-18T09:04:44.000Z</time>
      </trkpt>
      <trkpt lat="49.87787" lon="4.77921">
        <ele>198</ele>
        <time>2022-09-18T09:04:45.000Z</time>
      </trkpt>
      <trkpt lat="49.87786" lon="4.77924">
        <ele>198</ele>
        <time>2022-09-18T09:04:46.000Z</time>
      </trkpt>
      <trkpt lat="49.87784" lon="4.77927">
        <ele>198</ele>
        <time>2022-09-18T09:04:47.000Z</time>
      </trkpt>
      <trkpt lat="49.87783" lon="4.77929">
        <ele>198</ele>
        <time>2022-09-18T09:04:48.000Z</time>
      </trkpt>
      <trkpt lat="49.87782" lon="4.77932">
        <ele>198</ele>
        <time>2022-09-18T09:04:49.000Z</time>
      </trkpt>
      <trkpt lat="49.87781" lon="4.77935">
        <ele>198</ele>
        <time>2022-09-18T09:04:50.000Z</time>
      </trkpt>
      <trkpt lat="49.87779" lon="4.77937">
        <ele>198</ele>
        <time>2022-09-18T09:04:51.000Z</time>
      </trkpt>
      <trkpt lat="49.87777" lon="4.77939">
        <ele>199</ele>
        <time>2022-09-18T09:04:52.000Z</time>
      </trkpt>
      <trkpt lat="49.87775" lon="4.77941">
        <ele>199</ele>
        <time>2022-09-18T09:04:53.000Z</time>
      </trkpt>
      <trkpt lat="49.87773" lon="4.77943">
        <ele>199</ele>
        <time>2022-09-18T09:04:54.000Z</time>
      </trkpt>
      <trkpt lat="49.87771" lon="4.77944">
        <ele>199</ele>
        <time>2022-09-18T09:04:55.000Z</time>
      </trkpt>
      <trkpt lat="49.8777" lon="4.77946">
        <ele>199</ele>
        <time>2022-09-18T09:04:56.000Z</time>
      </trkpt>
      <trkpt lat="49.87769" lon="4.77947">
        <ele>199</ele>
        <time>2022-09-18T09:04:57.000Z</time>
      </trkpt>
      <trkpt lat="49.87768" lon="4.77949">
        <ele>199</ele>
        <time>2022-09-18T09:04:58.000Z</time>
      </trkpt>
      <trkpt lat="49.87767" lon="4.7795">
        <ele>198</ele>
        <time>2022-09-18T09:04:59.000Z</time>
      </trkpt>
      <trkpt lat="49.87766" lon="4.7795">
        <ele>198</ele>
        <time>2022-09-18T09:05:00.000Z</time>
      </trkpt>
      <trkpt lat="49.87765" lon="4.77951">
        <ele>198</ele>
        <time>2022-09-18T09:05:01.000Z</time>
      </trkpt>
      <trkpt lat="49.87764" lon="4.77953">
        <ele>198</ele>
        <time>2022-09-18T09:05:02.000Z</time>
      </trkpt>
      <trkpt lat="49.87763" lon="4.77954">
        <ele>198</ele>
        <time>2022-09-18T09:05:03.000Z</time>
      </trkpt>
      <trkpt lat="49.87762" lon="4.77955">
        <ele>198</ele>
        <time>2022-09-18T09:05:04.000Z</time>
      </trkpt>
      <trkpt lat="49.87761" lon="4.77957">
        <ele>198</ele>
        <time>2022-09-18T09:05:05.000Z</time>
      </trkpt>
      <trkpt lat="49.8776" lon="4.77958">
        <ele>198</ele>
        <time>2022-09-18T09:05:06.000Z</time>
      </trkpt>
      <trkpt lat="49.87759" lon="4.7796">
        <ele>198</ele>
        <time>2022-09-18T09:05:07.000Z</time>
      </trkpt>
      <trkpt lat="49.87759" lon="4.77962">
        <ele>198</ele>
        <time>2022-09-18T09:05:08.000Z</time>
      </trkpt>
      <trkpt lat="49.87758" lon="4.77965">
        <ele>198</ele>
        <time>2022-09-18T09:05:09.000Z</time>
      </trkpt>
      <trkpt lat="49.87757" lon="4.77967">
        <ele>198</ele>
        <time>2022-09-18T09:05:10.000Z</time>
      </trkpt>
      <trkpt lat="49.87756" lon="4.77968">
        <ele>198</ele>
        <time>2022-09-18T09:05:11.000Z</time>
      </trkpt>
      <trkpt lat="49.87756" lon="4.77969">
        <ele>198</ele>
        <time>2022-09-18T09:05:12.000Z</time>
      </trkpt>
      <trkpt lat="49.87755" lon="4.77969">
        <ele>198</ele>
        <time>2022-09-18T09:05:13.000Z</time>
      </trkpt>
      <trkpt lat="49.87754" lon="4.7797">
        <ele>198</ele>
        <time>2022-09-18T09:05:14.000Z</time>
      </trkpt>
      <trkpt lat="49.87754" lon="4.77971">
        <ele>198</ele>
        <time>2022-09-18T09:05:15.000Z</time>
      </trkpt>
      <trkpt lat="49.87753" lon="4.77972">
        <ele>198</ele>
        <time>2022-09-18T09:05:16.000Z</time>
      </trkpt>
      <trkpt lat="49.87752" lon="4.77973">
        <ele>198</ele>
        <time>2022-09-18T09:05:17.000Z</time>
      </trkpt>
      <trkpt lat="49.87751" lon="4.77975">
        <ele>199</ele>
        <time>2022-09-18T09:05:18.000Z</time>
      </trkpt>
      <trkpt lat="49.8775" lon="4.77975">
        <ele>199</ele>
        <time>2022-09-18T09:05:19.000Z</time>
      </trkpt>
      <trkpt lat="49.87749" lon="4.77976">
        <ele>199</ele>
        <time>2022-09-18T09:05:20.000Z</time>
      </trkpt>
      <trkpt lat="49.87749" lon="4.77977">
        <ele>199</ele>
        <time>2022-09-18T09:05:21.000Z</time>
      </trkpt>
      <trkpt lat="49.87747" lon="4.77978">
        <ele>199</ele>
        <time>2022-09-18T09:05:22.000Z</time>
      </trkpt>
      <trkpt lat="49.87746" lon="4.77979">
        <ele>199</ele>
        <time>2022-09-18T09:05:23.000Z</time>
      </trkpt>
      <trkpt lat="49.87745" lon="4.7798">
        <ele>199</ele>
        <time>2022-09-18T09:05:24.000Z</time>
      </trkpt>
      <trkpt lat="49.87744" lon="4.7798">
        <ele>199</ele>
        <time>2022-09-18T09:05:25.000Z</time>
      </trkpt>
      <trkpt lat="49.87743" lon="4.77982">
        <ele>199</ele>
        <time>2022-09-18T09:05:26.000Z</time>
      </trkpt>
      <trkpt lat="49.87743" lon="4.77983">
        <ele>199</ele>
        <time>2022-09-18T09:05:27.000Z</time>
      </trkpt>
      <trkpt lat="49.87743" lon="4.77983">
        <ele>200</ele>
        <time>2022-09-18T09:05:28.000Z</time>
      </trkpt>
      <trkpt lat="49.87742" lon="4.77984">
        <ele>200</ele>
        <time>2022-09-18T09:05:29.000Z</time>
      </trkpt>
      <trkpt lat="49.87741" lon="4.77985">
        <ele>200</ele>
        <time>2022-09-18T09:05:30.000Z</time>
      </trkpt>
      <trkpt lat="49.8774" lon="4.77985">
        <ele>200</ele>
        <time>2022-09-18T09:05:31.000Z</time>
      </trkpt>
      <trkpt lat="49.87739" lon="4.77986">
        <ele>200</ele>
        <time>2022-09-18T09:05:32.000Z</time>
      </trkpt>
      <trkpt lat="49.87737" lon="4.77987">
        <ele>200</ele>
        <time>2022-09-18T09:05:33.000Z</time>
      </trkpt>
      <trkpt lat="49.87735" lon="4.77988">
        <ele>200</ele>
        <time>2022-09-18T09:05:34.000Z</time>
      </trkpt>
      <trkpt lat="49.87734" lon="4.77989">
        <ele>200</ele>
        <time>2022-09-18T09:05:35.000Z</time>
      </trkpt>
      <trkpt lat="49.87732" lon="4.77989">
        <ele>200</ele>
        <time>2022-09-18T09:05:36.000Z</time>
      </trkpt>
      <trkpt lat="49.87731" lon="4.77989">
        <ele>200</ele>
        <time>2022-09-18T09:05:37.000Z</time>
      </trkpt>
      <trkpt lat="49.8773" lon="4.77989">
        <ele>200</ele>
        <time>2022-09-18T09:05:38.000Z</time>
      </trkpt>
      <trkpt lat="49.87729" lon="4.77988">
        <ele>201</ele>
        <time>2022-09-18T09:05:39.000Z</time>
      </trkpt>
      <trkpt lat="49.87728" lon="4.77989">
        <ele>201</ele>
        <time>2022-09-18T09:05:40.000Z</time>
      </trkpt>
      <trkpt lat="49.87727" lon="4.77989">
        <ele>201</ele>
        <time>2022-09-18T09:05:41.000Z</time>
      </trkpt>
      <trkpt lat="49.87726" lon="4.77988">
        <ele>201</ele>
        <time>2022-09-18T09:05:42.000Z</time>
      </trkpt>
      <trkpt lat="49.87725" lon="4.77989">
        <ele>201</ele>
        <time>2022-09-18T09:05:43.000Z</time>
      </trkpt>
      <trkpt lat="49.87723" lon="4.7799">
        <ele>202</ele>
        <time>2022-09-18T09:05:44.000Z</time>
      </trkpt>
      <trkpt lat="49.87722" lon="4.77991">
        <ele>202</ele>
        <time>2022-09-18T09:05:45.000Z</time>
      </trkpt>
      <trkpt lat="49.8772" lon="4.77991">
        <ele>202</ele>
        <time>2022-09-18T09:05:46.000Z</time>
      </trkpt>
      <trkpt lat="49.87719" lon="4.77992">
        <ele>203</ele>
        <time>2022-09-18T09:05:47.000Z</time>
      </trkpt>
      <trkpt lat="49.87717" lon="4.77992">
        <ele>203</ele>
        <time>2022-09-18T09:05:48.000Z</time>
      </trkpt>
      <trkpt lat="49.87716" lon="4.77993">
        <ele>203</ele>
        <time>2022-09-18T09:05:49.000Z</time>
      </trkpt>
      <trkpt lat="49.87715" lon="4.77995">
        <ele>204</ele>
        <time>2022-09-18T09:05:50.000Z</time>
      </trkpt>
      <trkpt lat="49.87713" lon="4.77997">
        <ele>204</ele>
        <time>2022-09-18T09:05:51.000Z</time>
      </trkpt>
      <trkpt lat="49.87712" lon="4.78">
        <ele>204</ele>
        <time>2022-09-18T09:05:52.000Z</time>
      </trkpt>
      <trkpt lat="49.8771" lon="4.78002">
        <ele>204</ele>
        <time>2022-09-18T09:05:53.000Z</time>
      </trkpt>
      <trkpt lat="49.87708" lon="4.78004">
        <ele>204</ele>
        <time>2022-09-18T09:05:54.000Z</time>
      </trkpt>
      <trkpt lat="49.87707" lon="4.78007">
        <ele>204</ele>
        <time>2022-09-18T09:05:55.000Z</time>
      </trkpt>
      <trkpt lat="49.87705" lon="4.78009">
        <ele>205</ele>
        <time>2022-09-18T09:05:56.000Z</time>
      </trkpt>
      <trkpt lat="49.87705" lon="4.78011">
        <ele>205</ele>
        <time>2022-09-18T09:05:57.000Z</time>
      </trkpt>
      <trkpt lat="49.87705" lon="4.78014">
        <ele>205</ele>
        <time>2022-09-18T09:05:58.000Z</time>
      </trkpt>
      <trkpt lat="49.87706" lon="4.78018">
        <ele>205</ele>
        <time>2022-09-18T09:05:59.000Z</time>
      </trkpt>
      <trkpt lat="49.87706" lon="4.78022">
        <ele>206</ele>
        <time>2022-09-18T09:06:00.000Z</time>
      </trkpt>
      <trkpt lat="49.87706" lon="4.78026">
        <ele>206</ele>
        <time>2022-09-18T09:06:01.000Z</time>
      </trkpt>
      <trkpt lat="49.87705" lon="4.7803">
        <ele>206</ele>
        <time>2022-09-18T09:06:02.000Z</time>
      </trkpt>
      <trkpt lat="49.87705" lon="4.78033">
        <ele>206</ele>
        <time>2022-09-18T09:06:03.000Z</time>
      </trkpt>
      <trkpt lat="49.87704" lon="4.78036">
        <ele>206</ele>
        <time>2022-09-18T09:06:04.000Z</time>
      </trkpt>
      <trkpt lat="49.87704" lon="4.7804">
        <ele>206</ele>
        <time>2022-09-18T09:06:05.000Z</time>
      </trkpt>
      <trkpt lat="49.87704" lon="4.78044">
        <ele>206</ele>
        <time>2022-09-18T09:06:06.000Z</time>
      </trkpt>
      <trkpt lat="49.87704" lon="4.78048">
        <ele>207</ele>
        <time>2022-09-18T09:06:07.000Z</time>
      </trkpt>
      <trkpt lat="49.87704" lon="4.78051">
        <ele>207</ele>
        <time>2022-09-18T09:06:08.000Z</time>
      </trkpt>
      <trkpt lat="49.87704" lon="4.78054">
        <ele>207</ele>
        <time>2022-09-18T09:06:09.000Z</time>
      </trkpt>
      <trkpt lat="49.87704" lon="4.78058">
        <ele>207</ele>
        <time>2022-09-18T09:06:10.000Z</time>
      </trkpt>
      <trkpt lat="49.87704" lon="4.78062">
        <ele>207</ele>
        <time>2022-09-18T09:06:11.000Z</time>
      </trkpt>
      <trkpt lat="49.87704" lon="4.78066">
        <ele>207</ele>
        <time>2022-09-18T09:06:12.000Z</time>
      </trkpt>
      <trkpt lat="49.87704" lon="4.78069">
        <ele>207</ele>
        <time>2022-09-18T09:06:13.000Z</time>
      </trkpt>
      <trkpt lat="49.87703" lon="4.78073">
        <ele>207</ele>
        <time>2022-09-18T09:06:14.000Z</time>
      </trkpt>
      <trkpt lat="49.87702" lon="4.78077">
        <ele>207</ele>
        <time>2022-09-18T09:06:15.000Z</time>
      </trkpt>
      <trkpt lat="49.87702" lon="4.78081">
        <ele>207</ele>
        <time>2022-09-18T09:06:16.000Z</time>
      </trkpt>
      <trkpt lat="49.87702" lon="4.78087">
        <ele>207</ele>
        <time>2022-09-18T09:06:17.000Z</time>
      </trkpt>
      <trkpt lat="49.87701" lon="4.78092">
        <ele>207</ele>
        <time>2022-09-18T09:06:18.000Z</time>
      </trkpt>
      <trkpt lat="49.877" lon="4.78097">
        <ele>206</ele>
        <time>2022-09-18T09:06:19.000Z</time>
      </trkpt>
      <trkpt lat="49.87699" lon="4.78102">
        <ele>206</ele>
        <time>2022-09-18T09:06:20.000Z</time>
      </trkpt>
      <trkpt lat="49.87697" lon="4.78106">
        <ele>206</ele>
        <time>2022-09-18T09:06:21.000Z</time>
      </trkpt>
      <trkpt lat="49.87695" lon="4.78111">
        <ele>206</ele>
        <time>2022-09-18T09:06:22.000Z</time>
      </trkpt>
      <trkpt lat="49.87694" lon="4.78117">
        <ele>206</ele>
        <time>2022-09-18T09:06:23.000Z</time>
      </trkpt>
      <trkpt lat="49.87692" lon="4.78122">
        <ele>206</ele>
        <time>2022-09-18T09:06:24.000Z</time>
      </trkpt>
      <trkpt lat="49.87691" lon="4.78127">
        <ele>206</ele>
        <time>2022-09-18T09:06:25.000Z</time>
      </trkpt>
      <trkpt lat="49.87689" lon="4.78132">
        <ele>206</ele>
        <time>2022-09-18T09:06:26.000Z</time>
      </trkpt>
      <trkpt lat="49.87687" lon="4.78136">
        <ele>205</ele>
        <time>2022-09-18T09:06:27.000Z</time>
      </trkpt>
      <trkpt lat="49.87685" lon="4.7814">
        <ele>205</ele>
        <time>2022-09-18T09:06:28.000Z</time>
      </trkpt>
      <trkpt lat="49.87682" lon="4.78143">
        <ele>205</ele>
        <time>2022-09-18T09:06:29.000Z</time>
      </trkpt>
      <trkpt lat="49.8768" lon="4.78146">
        <ele>205</ele>
        <time>2022-09-18T09:06:30.000Z</time>
      </trkpt>
      <trkpt lat="49.87678" lon="4.78149">
        <ele>205</ele>
        <time>2022-09-18T09:06:31.000Z</time>
      </trkpt>
      <trkpt lat="49.87675" lon="4.78151">
        <ele>204</ele>
        <time>2022-09-18T09:06:32.000Z</time>
      </trkpt>
      <trkpt lat="49.87672" lon="4.78152">
        <ele>204</ele>
        <time>2022-09-18T09:06:33.000Z</time>
      </trkpt>
      <trkpt lat="49.87669" lon="4.78153">
        <ele>204</ele>
        <time>2022-09-18T09:06:34.000Z</time>
      </trkpt>
      <trkpt lat="49.87666" lon="4.78155">
        <ele>203</ele>
        <time>2022-09-18T09:06:35.000Z</time>
      </trkpt>
      <trkpt lat="49.87663" lon="4.78157">
        <ele>203</ele>
        <time>2022-09-18T09:06:36.000Z</time>
      </trkpt>
      <trkpt lat="49.8766" lon="4.7816">
        <ele>203</ele>
        <time>2022-09-18T09:06:37.000Z</time>
      </trkpt>
      <trkpt lat="49.87658" lon="4.78161">
        <ele>203</ele>
        <time>2022-09-18T09:06:38.000Z</time>
      </trkpt>
      <trkpt lat="49.87655" lon="4.78162">
        <ele>202</ele>
        <time>2022-09-18T09:06:39.000Z</time>
      </trkpt>
      <trkpt lat="49.87651" lon="4.78162">
        <ele>202</ele>
        <time>2022-09-18T09:06:40.000Z</time>
      </trkpt>
      <trkpt lat="49.87648" lon="4.78161">
        <ele>202</ele>
        <time>2022-09-18T09:06:41.000Z</time>
      </trkpt>
      <trkpt lat="49.87646" lon="4.78161">
        <ele>201</ele>
        <time>2022-09-18T09:06:42.000Z</time>
      </trkpt>
      <trkpt lat="49.87644" lon="4.7816">
        <ele>201</ele>
        <time>2022-09-18T09:06:43.000Z</time>
      </trkpt>
      <trkpt lat="49.87641" lon="4.78161">
        <ele>201</ele>
        <time>2022-09-18T09:06:44.000Z</time>
      </trkpt>
      <trkpt lat="49.87638" lon="4.78163">
        <ele>201</ele>
        <time>2022-09-18T09:06:45.000Z</time>
      </trkpt>
      <trkpt lat="49.87634" lon="4.78165">
        <ele>200</ele>
        <time>2022-09-18T09:06:46.000Z</time>
      </trkpt>
      <trkpt lat="49.8763" lon="4.78166">
        <ele>200</ele>
        <time>2022-09-18T09:06:47.000Z</time>
      </trkpt>
      <trkpt lat="49.87626" lon="4.78167">
        <ele>199</ele>
        <time>2022-09-18T09:06:48.000Z</time>
      </trkpt>
      <trkpt lat="49.87622" lon="4.78169">
        <ele>199</ele>
        <time>2022-09-18T09:06:49.000Z</time>
      </trkpt>
      <trkpt lat="49.87618" lon="4.7817">
        <ele>199</ele>
        <time>2022-09-18T09:06:50.000Z</time>
      </trkpt>
      <trkpt lat="49.87614" lon="4.78171">
        <ele>199</ele>
        <time>2022-09-18T09:06:51.000Z</time>
      </trkpt>
      <trkpt lat="49.8761" lon="4.78171">
        <ele>198</ele>
        <time>2022-09-18T09:06:52.000Z</time>
      </trkpt>
      <trkpt lat="49.87606" lon="4.78172">
        <ele>198</ele>
        <time>2022-09-18T09:06:53.000Z</time>
      </trkpt>
      <trkpt lat="49.87603" lon="4.78173">
        <ele>198</ele>
        <time>2022-09-18T09:06:54.000Z</time>
      </trkpt>
      <trkpt lat="49.87599" lon="4.78175">
        <ele>198</ele>
        <time>2022-09-18T09:06:55.000Z</time>
      </trkpt>
      <trkpt lat="49.87596" lon="4.78176">
        <ele>197</ele>
        <time>2022-09-18T09:06:56.000Z</time>
      </trkpt>
      <trkpt lat="49.87593" lon="4.78177">
        <ele>197</ele>
        <time>2022-09-18T09:06:57.000Z</time>
      </trkpt>
      <trkpt lat="49.87591" lon="4.78178">
        <ele>197</ele>
        <time>2022-09-18T09:06:58.000Z</time>
      </trkpt>
      <trkpt lat="49.87588" lon="4.78179">
        <ele>197</ele>
        <time>2022-09-18T09:06:59.000Z</time>
      </trkpt>
      <trkpt lat="49.87585" lon="4.78181">
        <ele>197</ele>
        <time>2022-09-18T09:07:00.000Z</time>
      </trkpt>
      <trkpt lat="49.87582" lon="4.78182">
        <ele>197</ele>
        <time>2022-09-18T09:07:01.000Z</time>
      </trkpt>
      <trkpt lat="49.8758" lon="4.78183">
        <ele>197</ele>
        <time>2022-09-18T09:07:02.000Z</time>
      </trkpt>
      <trkpt lat="49.87576" lon="4.78184">
        <ele>196</ele>
        <time>2022-09-18T09:07:03.000Z</time>
      </trkpt>
      <trkpt lat="49.87571" lon="4.78185">
        <ele>196</ele>
        <time>2022-09-18T09:07:04.000Z</time>
      </trkpt>
      <trkpt lat="49.87565" lon="4.78187">
        <ele>196</ele>
        <time>2022-09-18T09:07:05.000Z</time>
      </trkpt>
      <trkpt lat="49.87561" lon="4.78189">
        <ele>196</ele>
        <time>2022-09-18T09:07:06.000Z</time>
      </trkpt>
      <trkpt lat="49.87557" lon="4.78191">
        <ele>196</ele>
        <time>2022-09-18T09:07:07.000Z</time>
      </trkpt>
      <trkpt lat="49.87553" lon="4.78193">
        <ele>196</ele>
        <time>2022-09-18T09:07:08.000Z</time>
      </trkpt>
      <trkpt lat="49.87548" lon="4.78196">
        <ele>196</ele>
        <time>2022-09-18T09:07:09.000Z</time>
      </trkpt>
      <trkpt lat="49.87544" lon="4.78198">
        <ele>195</ele>
        <time>2022-09-18T09:07:10.000Z</time>
      </trkpt>
      <trkpt lat="49.8754" lon="4.78199">
        <ele>195</ele>
        <time>2022-09-18T09:07:11.000Z</time>
      </trkpt>
      <trkpt lat="49.87536" lon="4.78199">
        <ele>195</ele>
        <time>2022-09-18T09:07:12.000Z</time>
      </trkpt>
      <trkpt lat="49.87532" lon="4.782">
        <ele>195</ele>
        <time>2022-09-18T09:07:13.000Z</time>
      </trkpt>
      <trkpt lat="49.87527" lon="4.78202">
        <ele>195</ele>
        <time>2022-09-18T09:07:14.000Z</time>
      </trkpt>
      <trkpt lat="49.87523" lon="4.78203">
        <ele>195</ele>
        <time>2022-09-18T09:07:15.000Z</time>
      </trkpt>
      <trkpt lat="49.87519" lon="4.78205">
        <ele>194</ele>
        <time>2022-09-18T09:07:16.000Z</time>
      </trkpt>
      <trkpt lat="49.87515" lon="4.78208">
        <ele>194</ele>
        <time>2022-09-18T09:07:17.000Z</time>
      </trkpt>
      <trkpt lat="49.8751" lon="4.7821">
        <ele>194</ele>
        <time>2022-09-18T09:07:18.000Z</time>
      </trkpt>
      <trkpt lat="49.87506" lon="4.78212">
        <ele>194</ele>
        <time>2022-09-18T09:07:19.000Z</time>
      </trkpt>
      <trkpt lat="49.87502" lon="4.78215">
        <ele>194</ele>
        <time>2022-09-18T09:07:20.000Z</time>
      </trkpt>
      <trkpt lat="49.87499" lon="4.78219">
        <ele>193</ele>
        <time>2022-09-18T09:07:21.000Z</time>
      </trkpt>
      <trkpt lat="49.87495" lon="4.78222">
        <ele>193</ele>
        <time>2022-09-18T09:07:22.000Z</time>
      </trkpt>
      <trkpt lat="49.87491" lon="4.78224">
        <ele>193</ele>
        <time>2022-09-18T09:07:23.000Z</time>
      </trkpt>
      <trkpt lat="49.87487" lon="4.78227">
        <ele>192</ele>
        <time>2022-09-18T09:07:24.000Z</time>
      </trkpt>
      <trkpt lat="49.87482" lon="4.7823">
        <ele>192</ele>
        <time>2022-09-18T09:07:25.000Z</time>
      </trkpt>
      <trkpt lat="49.87476" lon="4.78234">
        <ele>191</ele>
        <time>2022-09-18T09:07:26.000Z</time>
      </trkpt>
      <trkpt lat="49.87471" lon="4.78237">
        <ele>191</ele>
        <time>2022-09-18T09:07:27.000Z</time>
      </trkpt>
      <trkpt lat="49.87466" lon="4.78239">
        <ele>191</ele>
        <time>2022-09-18T09:07:28.000Z</time>
      </trkpt>
      <trkpt lat="49.87461" lon="4.78241">
        <ele>190</ele>
        <time>2022-09-18T09:07:29.000Z</time>
      </trkpt>
      <trkpt lat="49.87456" lon="4.78244">
        <ele>189</ele>
        <time>2022-09-18T09:07:30.000Z</time>
      </trkpt>
      <trkpt lat="49.87451" lon="4.78247">
        <ele>189</ele>
        <time>2022-09-18T09:07:31.000Z</time>
      </trkpt>
      <trkpt lat="49.87448" lon="4.78248">
        <ele>188</ele>
        <time>2022-09-18T09:07:32.000Z</time>
      </trkpt>
      <trkpt lat="49.87444" lon="4.78251">
        <ele>188</ele>
        <time>2022-09-18T09:07:33.000Z</time>
      </trkpt>
      <trkpt lat="49.87441" lon="4.78254">
        <ele>187</ele>
        <time>2022-09-18T09:07:34.000Z</time>
      </trkpt>
      <trkpt lat="49.87437" lon="4.78257">
        <ele>186</ele>
        <time>2022-09-18T09:07:35.000Z</time>
      </trkpt>
      <trkpt lat="49.87433" lon="4.7826">
        <ele>185</ele>
        <time>2022-09-18T09:07:36.000Z</time>
      </trkpt>
      <trkpt lat="49.8743" lon="4.78264">
        <ele>184</ele>
        <time>2022-09-18T09:07:37.000Z</time>
      </trkpt>
      <trkpt lat="49.87427" lon="4.78266">
        <ele>184</ele>
        <time>2022-09-18T09:07:38.000Z</time>
      </trkpt>
      <trkpt lat="49.87425" lon="4.78265">
        <ele>183</ele>
        <time>2022-09-18T09:07:39.000Z</time>
      </trkpt>
      <trkpt lat="49.87422" lon="4.78264">
        <ele>182</ele>
        <time>2022-09-18T09:07:40.000Z</time>
      </trkpt>
      <trkpt lat="49.87419" lon="4.78263">
        <ele>181</ele>
        <time>2022-09-18T09:07:41.000Z</time>
      </trkpt>
      <trkpt lat="49.87416" lon="4.78262">
        <ele>180</ele>
        <time>2022-09-18T09:07:42.000Z</time>
      </trkpt>
      <trkpt lat="49.87413" lon="4.7826">
        <ele>180</ele>
        <time>2022-09-18T09:07:43.000Z</time>
      </trkpt>
      <trkpt lat="49.87409" lon="4.78258">
        <ele>179</ele>
        <time>2022-09-18T09:07:44.000Z</time>
      </trkpt>
      <trkpt lat="49.87406" lon="4.78256">
        <ele>178</ele>
        <time>2022-09-18T09:07:45.000Z</time>
      </trkpt>
      <trkpt lat="49.87402" lon="4.78255">
        <ele>178</ele>
        <time>2022-09-18T09:07:46.000Z</time>
      </trkpt>
      <trkpt lat="49.87399" lon="4.78253">
        <ele>177</ele>
        <time>2022-09-18T09:07:47.000Z</time>
      </trkpt>
      <trkpt lat="49.87395" lon="4.78252">
        <ele>176</ele>
        <time>2022-09-18T09:07:48.000Z</time>
      </trkpt>
      <trkpt lat="49.87392" lon="4.78249">
        <ele>176</ele>
        <time>2022-09-18T09:07:49.000Z</time>
      </trkpt>
      <trkpt lat="49.87388" lon="4.78247">
        <ele>175</ele>
        <time>2022-09-18T09:07:50.000Z</time>
      </trkpt>
      <trkpt lat="49.87385" lon="4.78245">
        <ele>175</ele>
        <time>2022-09-18T09:07:51.000Z</time>
      </trkpt>
      <trkpt lat="49.87381" lon="4.78242">
        <ele>174</ele>
        <time>2022-09-18T09:07:52.000Z</time>
      </trkpt>
      <trkpt lat="49.87378" lon="4.7824">
        <ele>174</ele>
        <time>2022-09-18T09:07:53.000Z</time>
      </trkpt>
      <trkpt lat="49.87374" lon="4.78238">
        <ele>173</ele>
        <time>2022-09-18T09:07:54.000Z</time>
      </trkpt>
      <trkpt lat="49.87371" lon="4.78236">
        <ele>173</ele>
        <time>2022-09-18T09:07:55.000Z</time>
      </trkpt>
      <trkpt lat="49.87367" lon="4.78234">
        <ele>172</ele>
        <time>2022-09-18T09:07:56.000Z</time>
      </trkpt>
      <trkpt lat="49.87364" lon="4.78231">
        <ele>172</ele>
        <time>2022-09-18T09:07:57.000Z</time>
      </trkpt>
      <trkpt lat="49.8736" lon="4.78229">
        <ele>172</ele>
        <time>2022-09-18T09:07:58.000Z</time>
      </trkpt>
      <trkpt lat="49.87357" lon="4.78226">
        <ele>171</ele>
        <time>2022-09-18T09:07:59.000Z</time>
      </trkpt>
      <trkpt lat="49.87354" lon="4.78223">
        <ele>171</ele>
        <time>2022-09-18T09:08:00.000Z</time>
      </trkpt>
      <trkpt lat="49.87351" lon="4.78221">
        <ele>171</ele>
        <time>2022-09-18T09:08:01.000Z</time>
      </trkpt>
      <trkpt lat="49.87348" lon="4.78218">
        <ele>171</ele>
        <time>2022-09-18T09:08:02.000Z</time>
      </trkpt>
      <trkpt lat="49.87345" lon="4.78215">
        <ele>170</ele>
        <time>2022-09-18T09:08:03.000Z</time>
      </trkpt>
      <trkpt lat="49.87343" lon="4.78212">
        <ele>170</ele>
        <time>2022-09-18T09:08:04.000Z</time>
      </trkpt>
      <trkpt lat="49.8734" lon="4.78209">
        <ele>170</ele>
        <time>2022-09-18T09:08:05.000Z</time>
      </trkpt>
      <trkpt lat="49.87338" lon="4.78206">
        <ele>170</ele>
        <time>2022-09-18T09:08:06.000Z</time>
      </trkpt>
      <trkpt lat="49.87335" lon="4.78203">
        <ele>170</ele>
        <time>2022-09-18T09:08:07.000Z</time>
      </trkpt>
      <trkpt lat="49.87333" lon="4.782">
        <ele>169</ele>
        <time>2022-09-18T09:08:08.000Z</time>
      </trkpt>
      <trkpt lat="49.87331" lon="4.78196">
        <ele>169</ele>
        <time>2022-09-18T09:08:09.000Z</time>
      </trkpt>
      <trkpt lat="49.87328" lon="4.78193">
        <ele>169</ele>
        <time>2022-09-18T09:08:10.000Z</time>
      </trkpt>
      <trkpt lat="49.87326" lon="4.7819">
        <ele>169</ele>
        <time>2022-09-18T09:08:11.000Z</time>
      </trkpt>
      <trkpt lat="49.87323" lon="4.78187">
        <ele>169</ele>
        <time>2022-09-18T09:08:12.000Z</time>
      </trkpt>
      <trkpt lat="49.87321" lon="4.78184">
        <ele>169</ele>
        <time>2022-09-18T09:08:13.000Z</time>
      </trkpt>
      <trkpt lat="49.87318" lon="4.7818">
        <ele>169</ele>
        <time>2022-09-18T09:08:14.000Z</time>
      </trkpt>
      <trkpt lat="49.87316" lon="4.78177">
        <ele>169</ele>
        <time>2022-09-18T09:08:15.000Z</time>
      </trkpt>
      <trkpt lat="49.87313" lon="4.78175">
        <ele>169</ele>
        <time>2022-09-18T09:08:16.000Z</time>
      </trkpt>
      <trkpt lat="49.87311" lon="4.78172">
        <ele>169</ele>
        <time>2022-09-18T09:08:17.000Z</time>
      </trkpt>
      <trkpt lat="49.87308" lon="4.78169">
        <ele>169</ele>
        <time>2022-09-18T09:08:18.000Z</time>
      </trkpt>
      <trkpt lat="49.87306" lon="4.78165">
        <ele>169</ele>
        <time>2022-09-18T09:08:19.000Z</time>
      </trkpt>
      <trkpt lat="49.87304" lon="4.78162">
        <ele>169</ele>
        <time>2022-09-18T09:08:20.000Z</time>
      </trkpt>
      <trkpt lat="49.87302" lon="4.78158">
        <ele>169</ele>
        <time>2022-09-18T09:08:21.000Z</time>
      </trkpt>
      <trkpt lat="49.873" lon="4.78155">
        <ele>169</ele>
        <time>2022-09-18T09:08:22.000Z</time>
      </trkpt>
      <trkpt lat="49.87298" lon="4.78151">
        <ele>170</ele>
        <time>2022-09-18T09:08:23.000Z</time>
      </trkpt>
      <trkpt lat="49.87296" lon="4.78147">
        <ele>170</ele>
        <time>2022-09-18T09:08:24.000Z</time>
      </trkpt>
      <trkpt lat="49.87295" lon="4.78143">
        <ele>170</ele>
        <time>2022-09-18T09:08:25.000Z</time>
      </trkpt>
      <trkpt lat="49.87294" lon="4.7814">
        <ele>170</ele>
        <time>2022-09-18T09:08:26.000Z</time>
      </trkpt>
      <trkpt lat="49.87293" lon="4.78137">
        <ele>170</ele>
        <time>2022-09-18T09:08:27.000Z</time>
      </trkpt>
      <trkpt lat="49.87292" lon="4.78134">
        <ele>170</ele>
        <time>2022-09-18T09:08:28.000Z</time>
      </trkpt>
      <trkpt lat="49.87291" lon="4.78131">
        <ele>170</ele>
        <time>2022-09-18T09:08:29.000Z</time>
      </trkpt>
      <trkpt lat="49.8729" lon="4.78127">
        <ele>170</ele>
        <time>2022-09-18T09:08:30.000Z</time>
      </trkpt>
      <trkpt lat="49.87289" lon="4.78124">
        <ele>170</ele>
        <time>2022-09-18T09:08:31.000Z</time>
      </trkpt>
      <trkpt lat="49.87288" lon="4.7812">
        <ele>171</ele>
        <time>2022-09-18T09:08:32.000Z</time>
      </trkpt>
      <trkpt lat="49.87287" lon="4.78117">
        <ele>171</ele>
        <time>2022-09-18T09:08:33.000Z</time>
      </trkpt>
      <trkpt lat="49.87286" lon="4.78114">
        <ele>171</ele>
        <time>2022-09-18T09:08:34.000Z</time>
      </trkpt>
      <trkpt lat="49.87285" lon="4.7811">
        <ele>171</ele>
        <time>2022-09-18T09:08:35.000Z</time>
      </trkpt>
      <trkpt lat="49.87284" lon="4.78107">
        <ele>171</ele>
        <time>2022-09-18T09:08:36.000Z</time>
      </trkpt>
      <trkpt lat="49.87284" lon="4.78103">
        <ele>172</ele>
        <time>2022-09-18T09:08:37.000Z</time>
      </trkpt>
      <trkpt lat="49.87283" lon="4.78099">
        <ele>172</ele>
        <time>2022-09-18T09:08:38.000Z</time>
      </trkpt>
      <trkpt lat="49.87283" lon="4.78095">
        <ele>172</ele>
        <time>2022-09-18T09:08:39.000Z</time>
      </trkpt>
      <trkpt lat="49.87282" lon="4.78092">
        <ele>172</ele>
        <time>2022-09-18T09:08:40.000Z</time>
      </trkpt>
      <trkpt lat="49.87281" lon="4.78088">
        <ele>173</ele>
        <time>2022-09-18T09:08:41.000Z</time>
      </trkpt>
      <trkpt lat="49.8728" lon="4.78084">
        <ele>173</ele>
        <time>2022-09-18T09:08:42.000Z</time>
      </trkpt>
      <trkpt lat="49.87279" lon="4.78081">
        <ele>173</ele>
        <time>2022-09-18T09:08:43.000Z</time>
      </trkpt>
      <trkpt lat="49.87279" lon="4.78078">
        <ele>173</ele>
        <time>2022-09-18T09:08:44.000Z</time>
      </trkpt>
      <trkpt lat="49.87278" lon="4.78074">
        <ele>174</ele>
        <time>2022-09-18T09:08:45.000Z</time>
      </trkpt>
      <trkpt lat="49.87278" lon="4.78071">
        <ele>174</ele>
        <time>2022-09-18T09:08:46.000Z</time>
      </trkpt>
      <trkpt lat="49.87277" lon="4.78068">
        <ele>174</ele>
        <time>2022-09-18T09:08:47.000Z</time>
      </trkpt>
      <trkpt lat="49.87277" lon="4.78065">
        <ele>174</ele>
        <time>2022-09-18T09:08:48.000Z</time>
      </trkpt>
      <trkpt lat="49.87276" lon="4.78062">
        <ele>174</ele>
        <time>2022-09-18T09:08:49.000Z</time>
      </trkpt>
      <trkpt lat="49.87276" lon="4.78059">
        <ele>174</ele>
        <time>2022-09-18T09:08:50.000Z</time>
      </trkpt>
      <trkpt lat="49.87277" lon="4.78056">
        <ele>175</ele>
        <time>2022-09-18T09:08:51.000Z</time>
      </trkpt>
      <trkpt lat="49.87278" lon="4.78054">
        <ele>175</ele>
        <time>2022-09-18T09:08:52.000Z</time>
      </trkpt>
      <trkpt lat="49.8728" lon="4.78054">
        <ele>175</ele>
        <time>2022-09-18T09:08:53.000Z</time>
      </trkpt>
      <trkpt lat="49.87282" lon="4.78055">
        <ele>175</ele>
        <time>2022-09-18T09:08:54.000Z</time>
      </trkpt>
      <trkpt lat="49.87284" lon="4.78057">
        <ele>175</ele>
        <time>2022-09-18T09:08:55.000Z</time>
      </trkpt>
      <trkpt lat="49.87285" lon="4.7806">
        <ele>175</ele>
        <time>2022-09-18T09:08:56.000Z</time>
      </trkpt>
      <trkpt lat="49.87287" lon="4.78063">
        <ele>175</ele>
        <time>2022-09-18T09:08:57.000Z</time>
      </trkpt>
      <trkpt lat="49.87288" lon="4.78066">
        <ele>175</ele>
        <time>2022-09-18T09:08:58.000Z</time>
      </trkpt>
      <trkpt lat="49.8729" lon="4.7807">
        <ele>175</ele>
        <time>2022-09-18T09:08:59.000Z</time>
      </trkpt>
      <trkpt lat="49.87292" lon="4.78073">
        <ele>175</ele>
        <time>2022-09-18T09:09:00.000Z</time>
      </trkpt>
      <trkpt lat="49.87293" lon="4.78075">
        <ele>175</ele>
        <time>2022-09-18T09:09:01.000Z</time>
      </trkpt>
      <trkpt lat="49.87295" lon="4.78076">
        <ele>175</ele>
        <time>2022-09-18T09:09:02.000Z</time>
      </trkpt>
      <trkpt lat="49.87297" lon="4.78078">
        <ele>175</ele>
        <time>2022-09-18T09:09:03.000Z</time>
      </trkpt>
      <trkpt lat="49.87298" lon="4.7808">
        <ele>175</ele>
        <time>2022-09-18T09:09:04.000Z</time>
      </trkpt>
      <trkpt lat="49.873" lon="4.78082">
        <ele>175</ele>
        <time>2022-09-18T09:09:05.000Z</time>
      </trkpt>
      <trkpt lat="49.87302" lon="4.78084">
        <ele>175</ele>
        <time>2022-09-18T09:09:06.000Z</time>
      </trkpt>
      <trkpt lat="49.87303" lon="4.78086">
        <ele>175</ele>
        <time>2022-09-18T09:09:07.000Z</time>
      </trkpt>
      <trkpt lat="49.87304" lon="4.78088">
        <ele>175</ele>
        <time>2022-09-18T09:09:08.000Z</time>
      </trkpt>
      <trkpt lat="49.87305" lon="4.7809">
        <ele>175</ele>
        <time>2022-09-18T09:09:09.000Z</time>
      </trkpt>
      <trkpt lat="49.87306" lon="4.78091">
        <ele>175</ele>
        <time>2022-09-18T09:09:10.000Z</time>
      </trkpt>
      <trkpt lat="49.87307" lon="4.78092">
        <ele>175</ele>
        <time>2022-09-18T09:09:11.000Z</time>
      </trkpt>
      <trkpt lat="49.87308" lon="4.78093">
        <ele>176</ele>
        <time>2022-09-18T09:09:12.000Z</time>
      </trkpt>
      <trkpt lat="49.8731" lon="4.78094">
        <ele>176</ele>
        <time>2022-09-18T09:09:13.000Z</time>
      </trkpt>
      <trkpt lat="49.87312" lon="4.78095">
        <ele>176</ele>
        <time>2022-09-18T09:09:14.000Z</time>
      </trkpt>
      <trkpt lat="49.87313" lon="4.78096">
        <ele>176</ele>
        <time>2022-09-18T09:09:15.000Z</time>
      </trkpt>
      <trkpt lat="49.87315" lon="4.78097">
        <ele>177</ele>
        <time>2022-09-18T09:09:16.000Z</time>
      </trkpt>
      <trkpt lat="49.87316" lon="4.78097">
        <ele>177</ele>
        <time>2022-09-18T09:09:17.000Z</time>
      </trkpt>
      <trkpt lat="49.87318" lon="4.78097">
        <ele>177</ele>
        <time>2022-09-18T09:09:18.000Z</time>
      </trkpt>
      <trkpt lat="49.8732" lon="4.78096">
        <ele>178</ele>
        <time>2022-09-18T09:09:19.000Z</time>
      </trkpt>
      <trkpt lat="49.87322" lon="4.78096">
        <ele>178</ele>
        <time>2022-09-18T09:09:20.000Z</time>
      </trkpt>
      <trkpt lat="49.87323" lon="4.78095">
        <ele>178</ele>
        <time>2022-09-18T09:09:21.000Z</time>
      </trkpt>
      <trkpt lat="49.87325" lon="4.78095">
        <ele>178</ele>
        <time>2022-09-18T09:09:22.000Z</time>
      </trkpt>
      <trkpt lat="49.87327" lon="4.78094">
        <ele>179</ele>
        <time>2022-09-18T09:09:23.000Z</time>
      </trkpt>
      <trkpt lat="49.87329" lon="4.78093">
        <ele>179</ele>
        <time>2022-09-18T09:09:24.000Z</time>
      </trkpt>
      <trkpt lat="49.87332" lon="4.78093">
        <ele>179</ele>
        <time>2022-09-18T09:09:25.000Z</time>
      </trkpt>
      <trkpt lat="49.87333" lon="4.78093">
        <ele>179</ele>
        <time>2022-09-18T09:09:26.000Z</time>
      </trkpt>
      <trkpt lat="49.87336" lon="4.78093">
        <ele>179</ele>
        <time>2022-09-18T09:09:27.000Z</time>
      </trkpt>
      <trkpt lat="49.87338" lon="4.78093">
        <ele>179</ele>
        <time>2022-09-18T09:09:28.000Z</time>
      </trkpt>
      <trkpt lat="49.8734" lon="4.78093">
        <ele>179</ele>
        <time>2022-09-18T09:09:29.000Z</time>
      </trkpt>
      <trkpt lat="49.87342" lon="4.78093">
        <ele>180</ele>
        <time>2022-09-18T09:09:30.000Z</time>
      </trkpt>
      <trkpt lat="49.87343" lon="4.78093">
        <ele>180</ele>
        <time>2022-09-18T09:09:31.000Z</time>
      </trkpt>
      <trkpt lat="49.87345" lon="4.78093">
        <ele>180</ele>
        <time>2022-09-18T09:09:32.000Z</time>
      </trkpt>
      <trkpt lat="49.87347" lon="4.78093">
        <ele>180</ele>
        <time>2022-09-18T09:09:33.000Z</time>
      </trkpt>
      <trkpt lat="49.87348" lon="4.78093">
        <ele>181</ele>
        <time>2022-09-18T09:09:34.000Z</time>
      </trkpt>
      <trkpt lat="49.8735" lon="4.78093">
        <ele>181</ele>
        <time>2022-09-18T09:09:35.000Z</time>
      </trkpt>
      <trkpt lat="49.87352" lon="4.78094">
        <ele>181</ele>
        <time>2022-09-18T09:09:36.000Z</time>
      </trkpt>
      <trkpt lat="49.87354" lon="4.78093">
        <ele>181</ele>
        <time>2022-09-18T09:09:37.000Z</time>
      </trkpt>
      <trkpt lat="49.87356" lon="4.78093">
        <ele>182</ele>
        <time>2022-09-18T09:09:38.000Z</time>
      </trkpt>
      <trkpt lat="49.87358" lon="4.78093">
        <ele>182</ele>
        <time>2022-09-18T09:09:39.000Z</time>
      </trkpt>
      <trkpt lat="49.8736" lon="4.78094">
        <ele>182</ele>
        <time>2022-09-18T09:09:40.000Z</time>
      </trkpt>
      <trkpt lat="49.87362" lon="4.78094">
        <ele>183</ele>
        <time>2022-09-18T09:09:41.000Z</time>
      </trkpt>
      <trkpt lat="49.87363" lon="4.78094">
        <ele>183</ele>
        <time>2022-09-18T09:09:42.000Z</time>
      </trkpt>
      <trkpt lat="49.87365" lon="4.78094">
        <ele>183</ele>
        <time>2022-09-18T09:09:43.000Z</time>
      </trkpt>
      <trkpt lat="49.87367" lon="4.78094">
        <ele>184</ele>
        <time>2022-09-18T09:09:44.000Z</time>
      </trkpt>
      <trkpt lat="49.87369" lon="4.78094">
        <ele>184</ele>
        <time>2022-09-18T09:09:45.000Z</time>
      </trkpt>
      <trkpt lat="49.87371" lon="4.78094">
        <ele>184</ele>
        <time>2022-09-18T09:09:46.000Z</time>
      </trkpt>
      <trkpt lat="49.87373" lon="4.78094">
        <ele>185</ele>
        <time>2022-09-18T09:09:47.000Z</time>
      </trkpt>
      <trkpt lat="49.87375" lon="4.78094">
        <ele>185</ele>
        <time>2022-09-18T09:09:48.000Z</time>
      </trkpt>
      <trkpt lat="49.87377" lon="4.78094">
        <ele>185</ele>
        <time>2022-09-18T09:09:49.000Z</time>
      </trkpt>
      <trkpt lat="49.87379" lon="4.78093">
        <ele>185</ele>
        <time>2022-09-18T09:09:50.000Z</time>
      </trkpt>
      <trkpt lat="49.87381" lon="4.78093">
        <ele>185</ele>
        <time>2022-09-18T09:09:51.000Z</time>
      </trkpt>
      <trkpt lat="49.87383" lon="4.78093">
        <ele>186</ele>
        <time>2022-09-18T09:09:52.000Z</time>
      </trkpt>
      <trkpt lat="49.87385" lon="4.78093">
        <ele>186</ele>
        <time>2022-09-18T09:09:53.000Z</time>
      </trkpt>
      <trkpt lat="49.87387" lon="4.78092">
        <ele>186</ele>
        <time>2022-09-18T09:09:54.000Z</time>
      </trkpt>
      <trkpt lat="49.87389" lon="4.78092">
        <ele>186</ele>
        <time>2022-09-18T09:09:55.000Z</time>
      </trkpt>
      <trkpt lat="49.87391" lon="4.78092">
        <ele>186</ele>
        <time>2022-09-18T09:09:56.000Z</time>
      </trkpt>
      <trkpt lat="49.87393" lon="4.78092">
        <ele>186</ele>
        <time>2022-09-18T09:09:57.000Z</time>
      </trkpt>
      <trkpt lat="49.87394" lon="4.78092">
        <ele>187</ele>
        <time>2022-09-18T09:09:58.000Z</time>
      </trkpt>
      <trkpt lat="49.87395" lon="4.78091">
        <ele>187</ele>
        <time>2022-09-18T09:09:59.000Z</time>
      </trkpt>
      <trkpt lat="49.87397" lon="4.78091">
        <ele>187</ele>
        <time>2022-09-18T09:10:00.000Z</time>
      </trkpt>
      <trkpt lat="49.87399" lon="4.7809">
        <ele>187</ele>
        <time>2022-09-18T09:10:01.000Z</time>
      </trkpt>
      <trkpt lat="49.874" lon="4.7809">
        <ele>188</ele>
        <time>2022-09-18T09:10:02.000Z</time>
      </trkpt>
      <trkpt lat="49.87402" lon="4.78089">
        <ele>188</ele>
        <time>2022-09-18T09:10:03.000Z</time>
      </trkpt>
      <trkpt lat="49.87403" lon="4.78089">
        <ele>188</ele>
        <time>2022-09-18T09:10:04.000Z</time>
      </trkpt>
      <trkpt lat="49.87405" lon="4.78088">
        <ele>188</ele>
        <time>2022-09-18T09:10:05.000Z</time>
      </trkpt>
      <trkpt lat="49.87406" lon="4.78087">
        <ele>189</ele>
        <time>2022-09-18T09:10:06.000Z</time>
      </trkpt>
      <trkpt lat="49.87408" lon="4.78086">
        <ele>189</ele>
        <time>2022-09-18T09:10:07.000Z</time>
      </trkpt>
      <trkpt lat="49.87409" lon="4.78085">
        <ele>189</ele>
        <time>2022-09-18T09:10:08.000Z</time>
      </trkpt>
      <trkpt lat="49.8741" lon="4.78085">
        <ele>189</ele>
        <time>2022-09-18T09:10:09.000Z</time>
      </trkpt>
      <trkpt lat="49.87412" lon="4.78084">
        <ele>190</ele>
        <time>2022-09-18T09:10:10.000Z</time>
      </trkpt>
      <trkpt lat="49.87414" lon="4.78083">
        <ele>190</ele>
        <time>2022-09-18T09:10:11.000Z</time>
      </trkpt>
      <trkpt lat="49.87416" lon="4.78082">
        <ele>190</ele>
        <time>2022-09-18T09:10:12.000Z</time>
      </trkpt>
      <trkpt lat="49.87418" lon="4.78081">
        <ele>190</ele>
        <time>2022-09-18T09:10:13.000Z</time>
      </trkpt>
      <trkpt lat="49.8742" lon="4.7808">
        <ele>190</ele>
        <time>2022-09-18T09:10:14.000Z</time>
      </trkpt>
      <trkpt lat="49.87422" lon="4.78078">
        <ele>190</ele>
        <time>2022-09-18T09:10:15.000Z</time>
      </trkpt>
      <trkpt lat="49.87424" lon="4.78077">
        <ele>190</ele>
        <time>2022-09-18T09:10:16.000Z</time>
      </trkpt>
      <trkpt lat="49.87427" lon="4.78076">
        <ele>191</ele>
        <time>2022-09-18T09:10:17.000Z</time>
      </trkpt>
      <trkpt lat="49.87428" lon="4.78076">
        <ele>191</ele>
        <time>2022-09-18T09:10:18.000Z</time>
      </trkpt>
      <trkpt lat="49.8743" lon="4.78075">
        <ele>191</ele>
        <time>2022-09-18T09:10:19.000Z</time>
      </trkpt>
      <trkpt lat="49.87432" lon="4.78074">
        <ele>191</ele>
        <time>2022-09-18T09:10:20.000Z</time>
      </trkpt>
      <trkpt lat="49.87434" lon="4.78073">
        <ele>191</ele>
        <time>2022-09-18T09:10:21.000Z</time>
      </trkpt>
      <trkpt lat="49.87436" lon="4.78073">
        <ele>192</ele>
        <time>2022-09-18T09:10:22.000Z</time>
      </trkpt>
      <trkpt lat="49.87437" lon="4.78073">
        <ele>192</ele>
        <time>2022-09-18T09:10:23.000Z</time>
      </trkpt>
      <trkpt lat="49.87439" lon="4.78073">
        <ele>192</ele>
        <time>2022-09-18T09:10:24.000Z</time>
      </trkpt>
      <trkpt lat="49.87441" lon="4.78073">
        <ele>192</ele>
        <time>2022-09-18T09:10:25.000Z</time>
      </trkpt>
      <trkpt lat="49.87443" lon="4.78073">
        <ele>193</ele>
        <time>2022-09-18T09:10:26.000Z</time>
      </trkpt>
      <trkpt lat="49.87445" lon="4.78073">
        <ele>193</ele>
        <time>2022-09-18T09:10:27.000Z</time>
      </trkpt>
      <trkpt lat="49.87447" lon="4.78073">
        <ele>194</ele>
        <time>2022-09-18T09:10:28.000Z</time>
      </trkpt>
      <trkpt lat="49.87449" lon="4.78074">
        <ele>194</ele>
        <time>2022-09-18T09:10:29.000Z</time>
      </trkpt>
      <trkpt lat="49.8745" lon="4.78074">
        <ele>194</ele>
        <time>2022-09-18T09:10:30.000Z</time>
      </trkpt>
      <trkpt lat="49.87452" lon="4.78074">
        <ele>195</ele>
        <time>2022-09-18T09:10:31.000Z</time>
      </trkpt>
      <trkpt lat="49.87454" lon="4.78074">
        <ele>195</ele>
        <time>2022-09-18T09:10:32.000Z</time>
      </trkpt>
      <trkpt lat="49.87455" lon="4.78074">
        <ele>196</ele>
        <time>2022-09-18T09:10:33.000Z</time>
      </trkpt>
      <trkpt lat="49.87456" lon="4.78074">
        <ele>196</ele>
        <time>2022-09-18T09:10:34.000Z</time>
      </trkpt>
      <trkpt lat="49.87458" lon="4.78073">
        <ele>197</ele>
        <time>2022-09-18T09:10:35.000Z</time>
      </trkpt>
      <trkpt lat="49.87459" lon="4.78073">
        <ele>197</ele>
        <time>2022-09-18T09:10:36.000Z</time>
      </trkpt>
      <trkpt lat="49.8746" lon="4.78072">
        <ele>198</ele>
        <time>2022-09-18T09:10:37.000Z</time>
      </trkpt>
      <trkpt lat="49.87461" lon="4.7807">
        <ele>198</ele>
        <time>2022-09-18T09:10:38.000Z</time>
      </trkpt>
      <trkpt lat="49.87463" lon="4.78069">
        <ele>199</ele>
        <time>2022-09-18T09:10:39.000Z</time>
      </trkpt>
      <trkpt lat="49.87463" lon="4.78068">
        <ele>200</ele>
        <time>2022-09-18T09:10:40.000Z</time>
      </trkpt>
      <trkpt lat="49.87463" lon="4.78067">
        <ele>200</ele>
        <time>2022-09-18T09:10:41.000Z</time>
      </trkpt>
      <trkpt lat="49.87463" lon="4.78066">
        <ele>201</ele>
        <time>2022-09-18T09:10:42.000Z</time>
      </trkpt>
      <trkpt lat="49.87462" lon="4.78064">
        <ele>201</ele>
        <time>2022-09-18T09:10:43.000Z</time>
      </trkpt>
      <trkpt lat="49.87461" lon="4.78063">
        <ele>202</ele>
        <time>2022-09-18T09:10:44.000Z</time>
      </trkpt>
      <trkpt lat="49.8746" lon="4.78062">
        <ele>202</ele>
        <time>2022-09-18T09:10:45.000Z</time>
      </trkpt>
      <trkpt lat="49.87459" lon="4.7806">
        <ele>203</ele>
        <time>2022-09-18T09:10:46.000Z</time>
      </trkpt>
      <trkpt lat="49.87457" lon="4.78059">
        <ele>203</ele>
        <time>2022-09-18T09:10:47.000Z</time>
      </trkpt>
      <trkpt lat="49.87456" lon="4.78056">
        <ele>204</ele>
        <time>2022-09-18T09:10:48.000Z</time>
      </trkpt>
      <trkpt lat="49.87455" lon="4.78054">
        <ele>204</ele>
        <time>2022-09-18T09:10:49.000Z</time>
      </trkpt>
      <trkpt lat="49.87454" lon="4.78053">
        <ele>204</ele>
        <time>2022-09-18T09:10:50.000Z</time>
      </trkpt>
      <trkpt lat="49.87453" lon="4.78051">
        <ele>204</ele>
        <time>2022-09-18T09:10:51.000Z</time>
      </trkpt>
      <trkpt lat="49.87452" lon="4.78049">
        <ele>205</ele>
        <time>2022-09-18T09:10:52.000Z</time>
      </trkpt>
      <trkpt lat="49.8745" lon="4.78047">
        <ele>205</ele>
        <time>2022-09-18T09:10:53.000Z</time>
      </trkpt>
      <trkpt lat="49.87449" lon="4.78045">
        <ele>205</ele>
        <time>2022-09-18T09:10:54.000Z</time>
      </trkpt>
      <trkpt lat="49.87448" lon="4.78043">
        <ele>205</ele>
        <time>2022-09-18T09:10:55.000Z</time>
      </trkpt>
      <trkpt lat="49.87447" lon="4.78042">
        <ele>205</ele>
        <time>2022-09-18T09:10:56.000Z</time>
      </trkpt>
      <trkpt lat="49.87446" lon="4.7804">
        <ele>205</ele>
        <time>2022-09-18T09:10:57.000Z</time>
      </trkpt>
      <trkpt lat="49.87445" lon="4.78038">
        <ele>205</ele>
        <time>2022-09-18T09:10:58.000Z</time>
      </trkpt>
      <trkpt lat="49.87444" lon="4.78036">
        <ele>205</ele>
        <time>2022-09-18T09:10:59.000Z</time>
      </trkpt>
      <trkpt lat="49.87443" lon="4.78033">
        <ele>205</ele>
        <time>2022-09-18T09:11:00.000Z</time>
      </trkpt>
      <trkpt lat="49.87442" lon="4.7803">
        <ele>205</ele>
        <time>2022-09-18T09:11:01.000Z</time>
      </trkpt>
      <trkpt lat="49.8744" lon="4.78028">
        <ele>205</ele>
        <time>2022-09-18T09:11:02.000Z</time>
      </trkpt>
      <trkpt lat="49.87439" lon="4.78026">
        <ele>205</ele>
        <time>2022-09-18T09:11:03.000Z</time>
      </trkpt>
      <trkpt lat="49.87438" lon="4.78024">
        <ele>206</ele>
        <time>2022-09-18T09:11:04.000Z</time>
      </trkpt>
      <trkpt lat="49.87436" lon="4.78022">
        <ele>206</ele>
        <time>2022-09-18T09:11:05.000Z</time>
      </trkpt>
      <trkpt lat="49.87434" lon="4.7802">
        <ele>206</ele>
        <time>2022-09-18T09:11:06.000Z</time>
      </trkpt>
      <trkpt lat="49.87433" lon="4.78019">
        <ele>206</ele>
        <time>2022-09-18T09:11:07.000Z</time>
      </trkpt>
      <trkpt lat="49.87431" lon="4.78017">
        <ele>206</ele>
        <time>2022-09-18T09:11:08.000Z</time>
      </trkpt>
      <trkpt lat="49.8743" lon="4.78015">
        <ele>206</ele>
        <time>2022-09-18T09:11:09.000Z</time>
      </trkpt>
      <trkpt lat="49.87428" lon="4.78014">
        <ele>207</ele>
        <time>2022-09-18T09:11:10.000Z</time>
      </trkpt>
      <trkpt lat="49.87427" lon="4.78013">
        <ele>207</ele>
        <time>2022-09-18T09:11:11.000Z</time>
      </trkpt>
      <trkpt lat="49.87426" lon="4.78011">
        <ele>207</ele>
        <time>2022-09-18T09:11:12.000Z</time>
      </trkpt>
      <trkpt lat="49.87425" lon="4.78009">
        <ele>207</ele>
        <time>2022-09-18T09:11:13.000Z</time>
      </trkpt>
      <trkpt lat="49.87424" lon="4.78006">
        <ele>208</ele>
        <time>2022-09-18T09:11:14.000Z</time>
      </trkpt>
      <trkpt lat="49.87423" lon="4.78003">
        <ele>208</ele>
        <time>2022-09-18T09:11:15.000Z</time>
      </trkpt>
      <trkpt lat="49.87422" lon="4.78">
        <ele>208</ele>
        <time>2022-09-18T09:11:16.000Z</time>
      </trkpt>
      <trkpt lat="49.87421" lon="4.77998">
        <ele>208</ele>
        <time>2022-09-18T09:11:17.000Z</time>
      </trkpt>
      <trkpt lat="49.8742" lon="4.77995">
        <ele>208</ele>
        <time>2022-09-18T09:11:18.000Z</time>
      </trkpt>
      <trkpt lat="49.87419" lon="4.77993">
        <ele>208</ele>
        <time>2022-09-18T09:11:19.000Z</time>
      </trkpt>
      <trkpt lat="49.87417" lon="4.7799">
        <ele>209</ele>
        <time>2022-09-18T09:11:20.000Z</time>
      </trkpt>
      <trkpt lat="49.87416" lon="4.77987">
        <ele>209</ele>
        <time>2022-09-18T09:11:21.000Z</time>
      </trkpt>
      <trkpt lat="49.87415" lon="4.77985">
        <ele>209</ele>
        <time>2022-09-18T09:11:22.000Z</time>
      </trkpt>
      <trkpt lat="49.87414" lon="4.77983">
        <ele>209</ele>
        <time>2022-09-18T09:11:23.000Z</time>
      </trkpt>
      <trkpt lat="49.87412" lon="4.7798">
        <ele>210</ele>
        <time>2022-09-18T09:11:24.000Z</time>
      </trkpt>
      <trkpt lat="49.87411" lon="4.77978">
        <ele>210</ele>
        <time>2022-09-18T09:11:25.000Z</time>
      </trkpt>
      <trkpt lat="49.87409" lon="4.77976">
        <ele>211</ele>
        <time>2022-09-18T09:11:26.000Z</time>
      </trkpt>
      <trkpt lat="49.87407" lon="4.77973">
        <ele>211</ele>
        <time>2022-09-18T09:11:27.000Z</time>
      </trkpt>
      <trkpt lat="49.87406" lon="4.77971">
        <ele>212</ele>
        <time>2022-09-18T09:11:28.000Z</time>
      </trkpt>
      <trkpt lat="49.87405" lon="4.77968">
        <ele>212</ele>
        <time>2022-09-18T09:11:29.000Z</time>
      </trkpt>
      <trkpt lat="49.87404" lon="4.77966">
        <ele>212</ele>
        <time>2022-09-18T09:11:30.000Z</time>
      </trkpt>
      <trkpt lat="49.87402" lon="4.77963">
        <ele>213</ele>
        <time>2022-09-18T09:11:31.000Z</time>
      </trkpt>
      <trkpt lat="49.87401" lon="4.77961">
        <ele>213</ele>
        <time>2022-09-18T09:11:32.000Z</time>
      </trkpt>
      <trkpt lat="49.87399" lon="4.77958">
        <ele>213</ele>
        <time>2022-09-18T09:11:33.000Z</time>
      </trkpt>
      <trkpt lat="49.87397" lon="4.77955">
        <ele>214</ele>
        <time>2022-09-18T09:11:34.000Z</time>
      </trkpt>
      <trkpt lat="49.87396" lon="4.77952">
        <ele>214</ele>
        <time>2022-09-18T09:11:35.000Z</time>
      </trkpt>
      <trkpt lat="49.87395" lon="4.77949">
        <ele>214</ele>
        <time>2022-09-18T09:11:36.000Z</time>
      </trkpt>
      <trkpt lat="49.87394" lon="4.77946">
        <ele>214</ele>
        <time>2022-09-18T09:11:37.000Z</time>
      </trkpt>
      <trkpt lat="49.87392" lon="4.77943">
        <ele>215</ele>
        <time>2022-09-18T09:11:38.000Z</time>
      </trkpt>
      <trkpt lat="49.8739" lon="4.77941">
        <ele>215</ele>
        <time>2022-09-18T09:11:39.000Z</time>
      </trkpt>
      <trkpt lat="49.87389" lon="4.77938">
        <ele>215</ele>
        <time>2022-09-18T09:11:40.000Z</time>
      </trkpt>
      <trkpt lat="49.87388" lon="4.77935">
        <ele>216</ele>
        <time>2022-09-18T09:11:41.000Z</time>
      </trkpt>
      <trkpt lat="49.87387" lon="4.77932">
        <ele>216</ele>
        <time>2022-09-18T09:11:42.000Z</time>
      </trkpt>
      <trkpt lat="49.87386" lon="4.7793">
        <ele>216</ele>
        <time>2022-09-18T09:11:43.000Z</time>
      </trkpt>
      <trkpt lat="49.87384" lon="4.77927">
        <ele>216</ele>
        <time>2022-09-18T09:11:44.000Z</time>
      </trkpt>
      <trkpt lat="49.87382" lon="4.77925">
        <ele>217</ele>
        <time>2022-09-18T09:11:45.000Z</time>
      </trkpt>
      <trkpt lat="49.87381" lon="4.77922">
        <ele>217</ele>
        <time>2022-09-18T09:11:46.000Z</time>
      </trkpt>
      <trkpt lat="49.8738" lon="4.7792">
        <ele>217</ele>
        <time>2022-09-18T09:11:47.000Z</time>
      </trkpt>
      <trkpt lat="49.87378" lon="4.77918">
        <ele>217</ele>
        <time>2022-09-18T09:11:48.000Z</time>
      </trkpt>
      <trkpt lat="49.87377" lon="4.77917">
        <ele>217</ele>
        <time>2022-09-18T09:11:49.000Z</time>
      </trkpt>
      <trkpt lat="49.87376" lon="4.77916">
        <ele>218</ele>
        <time>2022-09-18T09:11:50.000Z</time>
      </trkpt>
      <trkpt lat="49.87374" lon="4.77915">
        <ele>218</ele>
        <time>2022-09-18T09:11:51.000Z</time>
      </trkpt>
      <trkpt lat="49.87373" lon="4.77913">
        <ele>218</ele>
        <time>2022-09-18T09:11:52.000Z</time>
      </trkpt>
      <trkpt lat="49.87371" lon="4.77911">
        <ele>218</ele>
        <time>2022-09-18T09:11:53.000Z</time>
      </trkpt>
      <trkpt lat="49.8737" lon="4.7791">
        <ele>218</ele>
        <time>2022-09-18T09:11:54.000Z</time>
      </trkpt>
      <trkpt lat="49.87369" lon="4.77908">
        <ele>218</ele>
        <time>2022-09-18T09:11:55.000Z</time>
      </trkpt>
      <trkpt lat="49.87367" lon="4.77905">
        <ele>218</ele>
        <time>2022-09-18T09:11:56.000Z</time>
      </trkpt>
      <trkpt lat="49.87366" lon="4.77903">
        <ele>219</ele>
        <time>2022-09-18T09:11:57.000Z</time>
      </trkpt>
      <trkpt lat="49.87365" lon="4.779">
        <ele>219</ele>
        <time>2022-09-18T09:11:58.000Z</time>
      </trkpt>
      <trkpt lat="49.87364" lon="4.77898">
        <ele>219</ele>
        <time>2022-09-18T09:11:59.000Z</time>
      </trkpt>
      <trkpt lat="49.87362" lon="4.77895">
        <ele>219</ele>
        <time>2022-09-18T09:12:00.000Z</time>
      </trkpt>
      <trkpt lat="49.87361" lon="4.77892">
        <ele>219</ele>
        <time>2022-09-18T09:12:01.000Z</time>
      </trkpt>
      <trkpt lat="49.8736" lon="4.77889">
        <ele>219</ele>
        <time>2022-09-18T09:12:02.000Z</time>
      </trkpt>
      <trkpt lat="49.87359" lon="4.77887">
        <ele>220</ele>
        <time>2022-09-18T09:12:03.000Z</time>
      </trkpt>
      <trkpt lat="49.87358" lon="4.77885">
        <ele>220</ele>
        <time>2022-09-18T09:12:04.000Z</time>
      </trkpt>
      <trkpt lat="49.87357" lon="4.77883">
        <ele>220</ele>
        <time>2022-09-18T09:12:05.000Z</time>
      </trkpt>
      <trkpt lat="49.87356" lon="4.77881">
        <ele>220</ele>
        <time>2022-09-18T09:12:06.000Z</time>
      </trkpt>
      <trkpt lat="49.87354" lon="4.77879">
        <ele>221</ele>
        <time>2022-09-18T09:12:07.000Z</time>
      </trkpt>
      <trkpt lat="49.87352" lon="4.77877">
        <ele>221</ele>
        <time>2022-09-18T09:12:08.000Z</time>
      </trkpt>
      <trkpt lat="49.87351" lon="4.77875">
        <ele>221</ele>
        <time>2022-09-18T09:12:09.000Z</time>
      </trkpt>
      <trkpt lat="49.8735" lon="4.77872">
        <ele>221</ele>
        <time>2022-09-18T09:12:10.000Z</time>
      </trkpt>
      <trkpt lat="49.87348" lon="4.7787">
        <ele>221</ele>
        <time>2022-09-18T09:12:11.000Z</time>
      </trkpt>
      <trkpt lat="49.87347" lon="4.77867">
        <ele>221</ele>
        <time>2022-09-18T09:12:12.000Z</time>
      </trkpt>
      <trkpt lat="49.87346" lon="4.77864">
        <ele>221</ele>
        <time>2022-09-18T09:12:13.000Z</time>
      </trkpt>
      <trkpt lat="49.87344" lon="4.77861">
        <ele>221</ele>
        <time>2022-09-18T09:12:14.000Z</time>
      </trkpt>
      <trkpt lat="49.87343" lon="4.77859">
        <ele>221</ele>
        <time>2022-09-18T09:12:15.000Z</time>
      </trkpt>
      <trkpt lat="49.87342" lon="4.77856">
        <ele>221</ele>
        <time>2022-09-18T09:12:16.000Z</time>
      </trkpt>
      <trkpt lat="49.8734" lon="4.77854">
        <ele>221</ele>
        <time>2022-09-18T09:12:17.000Z</time>
      </trkpt>
      <trkpt lat="49.87339" lon="4.77852">
        <ele>221</ele>
        <time>2022-09-18T09:12:18.000Z</time>
      </trkpt>
      <trkpt lat="49.87338" lon="4.7785">
        <ele>221</ele>
        <time>2022-09-18T09:12:19.000Z</time>
      </trkpt>
      <trkpt lat="49.87335" lon="4.77848">
        <ele>221</ele>
        <time>2022-09-18T09:12:20.000Z</time>
      </trkpt>
      <trkpt lat="49.87334" lon="4.77847">
        <ele>221</ele>
        <time>2022-09-18T09:12:21.000Z</time>
      </trkpt>
      <trkpt lat="49.87332" lon="4.77844">
        <ele>221</ele>
        <time>2022-09-18T09:12:22.000Z</time>
      </trkpt>
      <trkpt lat="49.8733" lon="4.77842">
        <ele>221</ele>
        <time>2022-09-18T09:12:23.000Z</time>
      </trkpt>
      <trkpt lat="49.87329" lon="4.7784">
        <ele>221</ele>
        <time>2022-09-18T09:12:24.000Z</time>
      </trkpt>
      <trkpt lat="49.87327" lon="4.77837">
        <ele>220</ele>
        <time>2022-09-18T09:12:25.000Z</time>
      </trkpt>
      <trkpt lat="49.87326" lon="4.77835">
        <ele>220</ele>
        <time>2022-09-18T09:12:26.000Z</time>
      </trkpt>
      <trkpt lat="49.87325" lon="4.77833">
        <ele>220</ele>
        <time>2022-09-18T09:12:27.000Z</time>
      </trkpt>
      <trkpt lat="49.87324" lon="4.7783">
        <ele>220</ele>
        <time>2022-09-18T09:12:28.000Z</time>
      </trkpt>
      <trkpt lat="49.87322" lon="4.77828">
        <ele>220</ele>
        <time>2022-09-18T09:12:29.000Z</time>
      </trkpt>
      <trkpt lat="49.8732" lon="4.77826">
        <ele>220</ele>
        <time>2022-09-18T09:12:30.000Z</time>
      </trkpt>
      <trkpt lat="49.87319" lon="4.77823">
        <ele>220</ele>
        <time>2022-09-18T09:12:31.000Z</time>
      </trkpt>
      <trkpt lat="49.87318" lon="4.7782">
        <ele>220</ele>
        <time>2022-09-18T09:12:32.000Z</time>
      </trkpt>
      <trkpt lat="49.87317" lon="4.77818">
        <ele>220</ele>
        <time>2022-09-18T09:12:33.000Z</time>
      </trkpt>
      <trkpt lat="49.87315" lon="4.77815">
        <ele>220</ele>
        <time>2022-09-18T09:12:34.000Z</time>
      </trkpt>
      <trkpt lat="49.87314" lon="4.77813">
        <ele>220</ele>
        <time>2022-09-18T09:12:35.000Z</time>
      </trkpt>
      <trkpt lat="49.87312" lon="4.7781">
        <ele>221</ele>
        <time>2022-09-18T09:12:36.000Z</time>
      </trkpt>
      <trkpt lat="49.87311" lon="4.77808">
        <ele>221</ele>
        <time>2022-09-18T09:12:37.000Z</time>
      </trkpt>
      <trkpt lat="49.8731" lon="4.77806">
        <ele>221</ele>
        <time>2022-09-18T09:12:38.000Z</time>
      </trkpt>
      <trkpt lat="49.87309" lon="4.77803">
        <ele>221</ele>
        <time>2022-09-18T09:12:39.000Z</time>
      </trkpt>
      <trkpt lat="49.87308" lon="4.77801">
        <ele>222</ele>
        <time>2022-09-18T09:12:40.000Z</time>
      </trkpt>
      <trkpt lat="49.87306" lon="4.77799">
        <ele>222</ele>
        <time>2022-09-18T09:12:41.000Z</time>
      </trkpt>
      <trkpt lat="49.87305" lon="4.77796">
        <ele>222</ele>
        <time>2022-09-18T09:12:42.000Z</time>
      </trkpt>
      <trkpt lat="49.87304" lon="4.77794">
        <ele>222</ele>
        <time>2022-09-18T09:12:43.000Z</time>
      </trkpt>
      <trkpt lat="49.87302" lon="4.77791">
        <ele>223</ele>
        <time>2022-09-18T09:12:44.000Z</time>
      </trkpt>
      <trkpt lat="49.87301" lon="4.77789">
        <ele>223</ele>
        <time>2022-09-18T09:12:45.000Z</time>
      </trkpt>
      <trkpt lat="49.87299" lon="4.77786">
        <ele>223</ele>
        <time>2022-09-18T09:12:46.000Z</time>
      </trkpt>
      <trkpt lat="49.87298" lon="4.77784">
        <ele>223</ele>
        <time>2022-09-18T09:12:47.000Z</time>
      </trkpt>
      <trkpt lat="49.87296" lon="4.77782">
        <ele>224</ele>
        <time>2022-09-18T09:12:48.000Z</time>
      </trkpt>
      <trkpt lat="49.87295" lon="4.7778">
        <ele>224</ele>
        <time>2022-09-18T09:12:49.000Z</time>
      </trkpt>
      <trkpt lat="49.87293" lon="4.77778">
        <ele>224</ele>
        <time>2022-09-18T09:12:50.000Z</time>
      </trkpt>
      <trkpt lat="49.87291" lon="4.77776">
        <ele>224</ele>
        <time>2022-09-18T09:12:51.000Z</time>
      </trkpt>
      <trkpt lat="49.8729" lon="4.77774">
        <ele>224</ele>
        <time>2022-09-18T09:12:52.000Z</time>
      </trkpt>
      <trkpt lat="49.87288" lon="4.77771">
        <ele>225</ele>
        <time>2022-09-18T09:12:53.000Z</time>
      </trkpt>
      <trkpt lat="49.87286" lon="4.77769">
        <ele>225</ele>
        <time>2022-09-18T09:12:54.000Z</time>
      </trkpt>
      <trkpt lat="49.87285" lon="4.77766">
        <ele>225</ele>
        <time>2022-09-18T09:12:55.000Z</time>
      </trkpt>
      <trkpt lat="49.87283" lon="4.77764">
        <ele>225</ele>
        <time>2022-09-18T09:12:56.000Z</time>
      </trkpt>
      <trkpt lat="49.87281" lon="4.77762">
        <ele>225</ele>
        <time>2022-09-18T09:12:57.000Z</time>
      </trkpt>
      <trkpt lat="49.87279" lon="4.7776">
        <ele>226</ele>
        <time>2022-09-18T09:12:58.000Z</time>
      </trkpt>
      <trkpt lat="49.87278" lon="4.77757">
        <ele>226</ele>
        <time>2022-09-18T09:12:59.000Z</time>
      </trkpt>
      <trkpt lat="49.87276" lon="4.77755">
        <ele>226</ele>
        <time>2022-09-18T09:13:00.000Z</time>
      </trkpt>
      <trkpt lat="49.87275" lon="4.77752">
        <ele>226</ele>
        <time>2022-09-18T09:13:01.000Z</time>
      </trkpt>
      <trkpt lat="49.87273" lon="4.7775">
        <ele>226</ele>
        <time>2022-09-18T09:13:02.000Z</time>
      </trkpt>
      <trkpt lat="49.87272" lon="4.77748">
        <ele>226</ele>
        <time>2022-09-18T09:13:03.000Z</time>
      </trkpt>
      <trkpt lat="49.8727" lon="4.77745">
        <ele>226</ele>
        <time>2022-09-18T09:13:04.000Z</time>
      </trkpt>
      <trkpt lat="49.87268" lon="4.77743">
        <ele>226</ele>
        <time>2022-09-18T09:13:05.000Z</time>
      </trkpt>
      <trkpt lat="49.87266" lon="4.77741">
        <ele>226</ele>
        <time>2022-09-18T09:13:06.000Z</time>
      </trkpt>
      <trkpt lat="49.87264" lon="4.77739">
        <ele>226</ele>
        <time>2022-09-18T09:13:07.000Z</time>
      </trkpt>
      <trkpt lat="49.87262" lon="4.77737">
        <ele>226</ele>
        <time>2022-09-18T09:13:08.000Z</time>
      </trkpt>
      <trkpt lat="49.8726" lon="4.77735">
        <ele>226</ele>
        <time>2022-09-18T09:13:09.000Z</time>
      </trkpt>
      <trkpt lat="49.87259" lon="4.77733">
        <ele>226</ele>
        <time>2022-09-18T09:13:10.000Z</time>
      </trkpt>
      <trkpt lat="49.87257" lon="4.77731">
        <ele>226</ele>
        <time>2022-09-18T09:13:11.000Z</time>
      </trkpt>
      <trkpt lat="49.87256" lon="4.77728">
        <ele>226</ele>
        <time>2022-09-18T09:13:12.000Z</time>
      </trkpt>
      <trkpt lat="49.87254" lon="4.77727">
        <ele>226</ele>
        <time>2022-09-18T09:13:13.000Z</time>
      </trkpt>
      <trkpt lat="49.87252" lon="4.77725">
        <ele>226</ele>
        <time>2022-09-18T09:13:14.000Z</time>
      </trkpt>
      <trkpt lat="49.87251" lon="4.77723">
        <ele>226</ele>
        <time>2022-09-18T09:13:15.000Z</time>
      </trkpt>
      <trkpt lat="49.87249" lon="4.77722">
        <ele>226</ele>
        <time>2022-09-18T09:13:16.000Z</time>
      </trkpt>
      <trkpt lat="49.87248" lon="4.7772">
        <ele>226</ele>
        <time>2022-09-18T09:13:17.000Z</time>
      </trkpt>
      <trkpt lat="49.87246" lon="4.77719">
        <ele>227</ele>
        <time>2022-09-18T09:13:18.000Z</time>
      </trkpt>
      <trkpt lat="49.87244" lon="4.77717">
        <ele>227</ele>
        <time>2022-09-18T09:13:19.000Z</time>
      </trkpt>
      <trkpt lat="49.87243" lon="4.77716">
        <ele>227</ele>
        <time>2022-09-18T09:13:20.000Z</time>
      </trkpt>
      <trkpt lat="49.87241" lon="4.77715">
        <ele>227</ele>
        <time>2022-09-18T09:13:21.000Z</time>
      </trkpt>
      <trkpt lat="49.87239" lon="4.77713">
        <ele>228</ele>
        <time>2022-09-18T09:13:22.000Z</time>
      </trkpt>
      <trkpt lat="49.87238" lon="4.77712">
        <ele>228</ele>
        <time>2022-09-18T09:13:23.000Z</time>
      </trkpt>
      <trkpt lat="49.87236" lon="4.7771">
        <ele>228</ele>
        <time>2022-09-18T09:13:24.000Z</time>
      </trkpt>
      <trkpt lat="49.87234" lon="4.77708">
        <ele>228</ele>
        <time>2022-09-18T09:13:25.000Z</time>
      </trkpt>
      <trkpt lat="49.87232" lon="4.77706">
        <ele>229</ele>
        <time>2022-09-18T09:13:26.000Z</time>
      </trkpt>
      <trkpt lat="49.87231" lon="4.77704">
        <ele>229</ele>
        <time>2022-09-18T09:13:27.000Z</time>
      </trkpt>
      <trkpt lat="49.87229" lon="4.77703">
        <ele>229</ele>
        <time>2022-09-18T09:13:28.000Z</time>
      </trkpt>
      <trkpt lat="49.87228" lon="4.77701">
        <ele>230</ele>
        <time>2022-09-18T09:13:29.000Z</time>
      </trkpt>
      <trkpt lat="49.87226" lon="4.77699">
        <ele>230</ele>
        <time>2022-09-18T09:13:30.000Z</time>
      </trkpt>
      <trkpt lat="49.87224" lon="4.77698">
        <ele>230</ele>
        <time>2022-09-18T09:13:31.000Z</time>
      </trkpt>
      <trkpt lat="49.87222" lon="4.77696">
        <ele>230</ele>
        <time>2022-09-18T09:13:32.000Z</time>
      </trkpt>
      <trkpt lat="49.8722" lon="4.77694">
        <ele>230</ele>
        <time>2022-09-18T09:13:33.000Z</time>
      </trkpt>
      <trkpt lat="49.87218" lon="4.77692">
        <ele>231</ele>
        <time>2022-09-18T09:13:34.000Z</time>
      </trkpt>
      <trkpt lat="49.87217" lon="4.77691">
        <ele>231</ele>
        <time>2022-09-18T09:13:35.000Z</time>
      </trkpt>
      <trkpt lat="49.87215" lon="4.77689">
        <ele>231</ele>
        <time>2022-09-18T09:13:36.000Z</time>
      </trkpt>
      <trkpt lat="49.87214" lon="4.77688">
        <ele>231</ele>
        <time>2022-09-18T09:13:37.000Z</time>
      </trkpt>
      <trkpt lat="49.87212" lon="4.77686">
        <ele>231</ele>
        <time>2022-09-18T09:13:38.000Z</time>
      </trkpt>
      <trkpt lat="49.87211" lon="4.77685">
        <ele>232</ele>
        <time>2022-09-18T09:13:39.000Z</time>
      </trkpt>
      <trkpt lat="49.8721" lon="4.77683">
        <ele>232</ele>
        <time>2022-09-18T09:13:40.000Z</time>
      </trkpt>
      <trkpt lat="49.87209" lon="4.77681">
        <ele>232</ele>
        <time>2022-09-18T09:13:41.000Z</time>
      </trkpt>
      <trkpt lat="49.87208" lon="4.77679">
        <ele>232</ele>
        <time>2022-09-18T09:13:42.000Z</time>
      </trkpt>
      <trkpt lat="49.87208" lon="4.77676">
        <ele>232</ele>
        <time>2022-09-18T09:13:43.000Z</time>
      </trkpt>
      <trkpt lat="49.87208" lon="4.77674">
        <ele>233</ele>
        <time>2022-09-18T09:13:44.000Z</time>
      </trkpt>
      <trkpt lat="49.87208" lon="4.77671">
        <ele>233</ele>
        <time>2022-09-18T09:13:45.000Z</time>
      </trkpt>
      <trkpt lat="49.87209" lon="4.77669">
        <ele>233</ele>
        <time>2022-09-18T09:13:46.000Z</time>
      </trkpt>
      <trkpt lat="49.8721" lon="4.77668">
        <ele>234</ele>
        <time>2022-09-18T09:13:47.000Z</time>
      </trkpt>
      <trkpt lat="49.87212" lon="4.77667">
        <ele>234</ele>
        <time>2022-09-18T09:13:48.000Z</time>
      </trkpt>
      <trkpt lat="49.87213" lon="4.77666">
        <ele>234</ele>
        <time>2022-09-18T09:13:49.000Z</time>
      </trkpt>
      <trkpt lat="49.87215" lon="4.77665">
        <ele>235</ele>
        <time>2022-09-18T09:13:50.000Z</time>
      </trkpt>
      <trkpt lat="49.87216" lon="4.77664">
        <ele>235</ele>
        <time>2022-09-18T09:13:51.000Z</time>
      </trkpt>
      <trkpt lat="49.87218" lon="4.77664">
        <ele>235</ele>
        <time>2022-09-18T09:13:52.000Z</time>
      </trkpt>
      <trkpt lat="49.8722" lon="4.77663">
        <ele>235</ele>
        <time>2022-09-18T09:13:53.000Z</time>
      </trkpt>
      <trkpt lat="49.87221" lon="4.77663">
        <ele>236</ele>
        <time>2022-09-18T09:13:54.000Z</time>
      </trkpt>
      <trkpt lat="49.87223" lon="4.77662">
        <ele>236</ele>
        <time>2022-09-18T09:13:55.000Z</time>
      </trkpt>
      <trkpt lat="49.87224" lon="4.77662">
        <ele>236</ele>
        <time>2022-09-18T09:13:56.000Z</time>
      </trkpt>
      <trkpt lat="49.87225" lon="4.77662">
        <ele>237</ele>
        <time>2022-09-18T09:13:57.000Z</time>
      </trkpt>
      <trkpt lat="49.87226" lon="4.77662">
        <ele>237</ele>
        <time>2022-09-18T09:13:58.000Z</time>
      </trkpt>
      <trkpt lat="49.87228" lon="4.77661">
        <ele>237</ele>
        <time>2022-09-18T09:13:59.000Z</time>
      </trkpt>
      <trkpt lat="49.8723" lon="4.77661">
        <ele>237</ele>
        <time>2022-09-18T09:14:00.000Z</time>
      </trkpt>
      <trkpt lat="49.87231" lon="4.77661">
        <ele>238</ele>
        <time>2022-09-18T09:14:01.000Z</time>
      </trkpt>
      <trkpt lat="49.87232" lon="4.77661">
        <ele>238</ele>
        <time>2022-09-18T09:14:02.000Z</time>
      </trkpt>
      <trkpt lat="49.87233" lon="4.77661">
        <ele>238</ele>
        <time>2022-09-18T09:14:03.000Z</time>
      </trkpt>
      <trkpt lat="49.87234" lon="4.77661">
        <ele>239</ele>
        <time>2022-09-18T09:14:04.000Z</time>
      </trkpt>
      <trkpt lat="49.87235" lon="4.77661">
        <ele>239</ele>
        <time>2022-09-18T09:14:05.000Z</time>
      </trkpt>
      <trkpt lat="49.87237" lon="4.7766">
        <ele>240</ele>
        <time>2022-09-18T09:14:06.000Z</time>
      </trkpt>
      <trkpt lat="49.87239" lon="4.77659">
        <ele>240</ele>
        <time>2022-09-18T09:14:07.000Z</time>
      </trkpt>
      <trkpt lat="49.87241" lon="4.77658">
        <ele>240</ele>
        <time>2022-09-18T09:14:08.000Z</time>
      </trkpt>
      <trkpt lat="49.87242" lon="4.77659">
        <ele>240</ele>
        <time>2022-09-18T09:14:09.000Z</time>
      </trkpt>
      <trkpt lat="49.87243" lon="4.77658">
        <ele>240</ele>
        <time>2022-09-18T09:14:10.000Z</time>
      </trkpt>
      <trkpt lat="49.87244" lon="4.77658">
        <ele>241</ele>
        <time>2022-09-18T09:14:11.000Z</time>
      </trkpt>
      <trkpt lat="49.87246" lon="4.77657">
        <ele>241</ele>
        <time>2022-09-18T09:14:12.000Z</time>
      </trkpt>
      <trkpt lat="49.87247" lon="4.77657">
        <ele>241</ele>
        <time>2022-09-18T09:14:13.000Z</time>
      </trkpt>
      <trkpt lat="49.87249" lon="4.77656">
        <ele>241</ele>
        <time>2022-09-18T09:14:14.000Z</time>
      </trkpt>
      <trkpt lat="49.8725" lon="4.77656">
        <ele>241</ele>
        <time>2022-09-18T09:14:15.000Z</time>
      </trkpt>
      <trkpt lat="49.87252" lon="4.77655">
        <ele>241</ele>
        <time>2022-09-18T09:14:16.000Z</time>
      </trkpt>
      <trkpt lat="49.87253" lon="4.77655">
        <ele>242</ele>
        <time>2022-09-18T09:14:17.000Z</time>
      </trkpt>
      <trkpt lat="49.87255" lon="4.77654">
        <ele>242</ele>
        <time>2022-09-18T09:14:18.000Z</time>
      </trkpt>
      <trkpt lat="49.87257" lon="4.77653">
        <ele>242</ele>
        <time>2022-09-18T09:14:19.000Z</time>
      </trkpt>
      <trkpt lat="49.87259" lon="4.77653">
        <ele>242</ele>
        <time>2022-09-18T09:14:20.000Z</time>
      </trkpt>
      <trkpt lat="49.87261" lon="4.77652">
        <ele>243</ele>
        <time>2022-09-18T09:14:21.000Z</time>
      </trkpt>
      <trkpt lat="49.87262" lon="4.77652">
        <ele>243</ele>
        <time>2022-09-18T09:14:22.000Z</time>
      </trkpt>
      <trkpt lat="49.87264" lon="4.77651">
        <ele>243</ele>
        <time>2022-09-18T09:14:23.000Z</time>
      </trkpt>
      <trkpt lat="49.87266" lon="4.7765">
        <ele>243</ele>
        <time>2022-09-18T09:14:24.000Z</time>
      </trkpt>
      <trkpt lat="49.87269" lon="4.77649">
        <ele>244</ele>
        <time>2022-09-18T09:14:25.000Z</time>
      </trkpt>
      <trkpt lat="49.87271" lon="4.77648">
        <ele>244</ele>
        <time>2022-09-18T09:14:26.000Z</time>
      </trkpt>
      <trkpt lat="49.87273" lon="4.77647">
        <ele>244</ele>
        <time>2022-09-18T09:14:27.000Z</time>
      </trkpt>
      <trkpt lat="49.87275" lon="4.77646">
        <ele>244</ele>
        <time>2022-09-18T09:14:28.000Z</time>
      </trkpt>
      <trkpt lat="49.87277" lon="4.77646">
        <ele>244</ele>
        <time>2022-09-18T09:14:29.000Z</time>
      </trkpt>
      <trkpt lat="49.87279" lon="4.77645">
        <ele>244</ele>
        <time>2022-09-18T09:14:30.000Z</time>
      </trkpt>
      <trkpt lat="49.87281" lon="4.77645">
        <ele>244</ele>
        <time>2022-09-18T09:14:31.000Z</time>
      </trkpt>
      <trkpt lat="49.87284" lon="4.77645">
        <ele>244</ele>
        <time>2022-09-18T09:14:32.000Z</time>
      </trkpt>
      <trkpt lat="49.87286" lon="4.77645">
        <ele>244</ele>
        <time>2022-09-18T09:14:33.000Z</time>
      </trkpt>
      <trkpt lat="49.87288" lon="4.77645">
        <ele>245</ele>
        <time>2022-09-18T09:14:34.000Z</time>
      </trkpt>
      <trkpt lat="49.8729" lon="4.77645">
        <ele>245</ele>
        <time>2022-09-18T09:14:35.000Z</time>
      </trkpt>
      <trkpt lat="49.87292" lon="4.77645">
        <ele>245</ele>
        <time>2022-09-18T09:14:36.000Z</time>
      </trkpt>
      <trkpt lat="49.87294" lon="4.77645">
        <ele>245</ele>
        <time>2022-09-18T09:14:37.000Z</time>
      </trkpt>
      <trkpt lat="49.87296" lon="4.77646">
        <ele>245</ele>
        <time>2022-09-18T09:14:38.000Z</time>
      </trkpt>
      <trkpt lat="49.87298" lon="4.77646">
        <ele>246</ele>
        <time>2022-09-18T09:14:39.000Z</time>
      </trkpt>
      <trkpt lat="49.873" lon="4.77647">
        <ele>246</ele>
        <time>2022-09-18T09:14:40.000Z</time>
      </trkpt>
      <trkpt lat="49.87303" lon="4.77647">
        <ele>246</ele>
        <time>2022-09-18T09:14:41.000Z</time>
      </trkpt>
      <trkpt lat="49.87304" lon="4.77648">
        <ele>247</ele>
        <time>2022-09-18T09:14:42.000Z</time>
      </trkpt>
      <trkpt lat="49.87306" lon="4.77648">
        <ele>247</ele>
        <time>2022-09-18T09:14:43.000Z</time>
      </trkpt>
      <trkpt lat="49.87308" lon="4.77649">
        <ele>247</ele>
        <time>2022-09-18T09:14:44.000Z</time>
      </trkpt>
      <trkpt lat="49.87309" lon="4.7765">
        <ele>248</ele>
        <time>2022-09-18T09:14:45.000Z</time>
      </trkpt>
      <trkpt lat="49.87311" lon="4.7765">
        <ele>248</ele>
        <time>2022-09-18T09:14:46.000Z</time>
      </trkpt>
      <trkpt lat="49.87312" lon="4.7765">
        <ele>248</ele>
        <time>2022-09-18T09:14:47.000Z</time>
      </trkpt>
      <trkpt lat="49.87314" lon="4.77651">
        <ele>248</ele>
        <time>2022-09-18T09:14:48.000Z</time>
      </trkpt>
      <trkpt lat="49.87316" lon="4.77652">
        <ele>249</ele>
        <time>2022-09-18T09:14:49.000Z</time>
      </trkpt>
      <trkpt lat="49.87317" lon="4.77653">
        <ele>249</ele>
        <time>2022-09-18T09:14:50.000Z</time>
      </trkpt>
      <trkpt lat="49.87319" lon="4.77654">
        <ele>249</ele>
        <time>2022-09-18T09:14:51.000Z</time>
      </trkpt>
      <trkpt lat="49.87322" lon="4.77656">
        <ele>249</ele>
        <time>2022-09-18T09:14:52.000Z</time>
      </trkpt>
      <trkpt lat="49.87324" lon="4.77657">
        <ele>249</ele>
        <time>2022-09-18T09:14:53.000Z</time>
      </trkpt>
      <trkpt lat="49.87325" lon="4.77658">
        <ele>250</ele>
        <time>2022-09-18T09:14:54.000Z</time>
      </trkpt>
      <trkpt lat="49.87327" lon="4.77659">
        <ele>250</ele>
        <time>2022-09-18T09:14:55.000Z</time>
      </trkpt>
      <trkpt lat="49.87329" lon="4.77661">
        <ele>250</ele>
        <time>2022-09-18T09:14:56.000Z</time>
      </trkpt>
      <trkpt lat="49.8733" lon="4.77662">
        <ele>251</ele>
        <time>2022-09-18T09:14:57.000Z</time>
      </trkpt>
      <trkpt lat="49.87332" lon="4.77664">
        <ele>251</ele>
        <time>2022-09-18T09:14:58.000Z</time>
      </trkpt>
      <trkpt lat="49.87334" lon="4.77665">
        <ele>251</ele>
        <time>2022-09-18T09:14:59.000Z</time>
      </trkpt>
      <trkpt lat="49.87335" lon="4.77665">
        <ele>251</ele>
        <time>2022-09-18T09:15:00.000Z</time>
      </trkpt>
      <trkpt lat="49.87336" lon="4.77667">
        <ele>251</ele>
        <time>2022-09-18T09:15:01.000Z</time>
      </trkpt>
      <trkpt lat="49.87337" lon="4.77668">
        <ele>251</ele>
        <time>2022-09-18T09:15:02.000Z</time>
      </trkpt>
      <trkpt lat="49.87339" lon="4.77669">
        <ele>252</ele>
        <time>2022-09-18T09:15:03.000Z</time>
      </trkpt>
      <trkpt lat="49.8734" lon="4.7767">
        <ele>252</ele>
        <time>2022-09-18T09:15:04.000Z</time>
      </trkpt>
      <trkpt lat="49.87342" lon="4.77671">
        <ele>252</ele>
        <time>2022-09-18T09:15:05.000Z</time>
      </trkpt>
      <trkpt lat="49.87343" lon="4.77672">
        <ele>252</ele>
        <time>2022-09-18T09:15:06.000Z</time>
      </trkpt>
      <trkpt lat="49.87345" lon="4.77674">
        <ele>252</ele>
        <time>2022-09-18T09:15:07.000Z</time>
      </trkpt>
      <trkpt lat="49.87346" lon="4.77676">
        <ele>253</ele>
        <time>2022-09-18T09:15:08.000Z</time>
      </trkpt>
      <trkpt lat="49.87347" lon="4.77678">
        <ele>253</ele>
        <time>2022-09-18T09:15:09.000Z</time>
      </trkpt>
      <trkpt lat="49.87349" lon="4.7768">
        <ele>253</ele>
        <time>2022-09-18T09:15:10.000Z</time>
      </trkpt>
      <trkpt lat="49.8735" lon="4.77682">
        <ele>253</ele>
        <time>2022-09-18T09:15:11.000Z</time>
      </trkpt>
      <trkpt lat="49.87351" lon="4.77683">
        <ele>253</ele>
        <time>2022-09-18T09:15:12.000Z</time>
      </trkpt>
      <trkpt lat="49.87353" lon="4.77685">
        <ele>254</ele>
        <time>2022-09-18T09:15:13.000Z</time>
      </trkpt>
      <trkpt lat="49.87355" lon="4.77687">
        <ele>254</ele>
        <time>2022-09-18T09:15:14.000Z</time>
      </trkpt>
      <trkpt lat="49.87357" lon="4.77689">
        <ele>254</ele>
        <time>2022-09-18T09:15:15.000Z</time>
      </trkpt>
      <trkpt lat="49.87359" lon="4.7769">
        <ele>254</ele>
        <time>2022-09-18T09:15:16.000Z</time>
      </trkpt>
      <trkpt lat="49.87361" lon="4.77691">
        <ele>254</ele>
        <time>2022-09-18T09:15:17.000Z</time>
      </trkpt>
      <trkpt lat="49.87362" lon="4.77691">
        <ele>254</ele>
        <time>2022-09-18T09:15:18.000Z</time>
      </trkpt>
      <trkpt lat="49.87363" lon="4.77691">
        <ele>254</ele>
        <time>2022-09-18T09:15:19.000Z</time>
      </trkpt>
      <trkpt lat="49.87364" lon="4.7769">
        <ele>254</ele>
        <time>2022-09-18T09:15:20.000Z</time>
      </trkpt>
      <trkpt lat="49.87365" lon="4.77688">
        <ele>254</ele>
        <time>2022-09-18T09:15:21.000Z</time>
      </trkpt>
      <trkpt lat="49.87366" lon="4.77686">
        <ele>255</ele>
        <time>2022-09-18T09:15:22.000Z</time>
      </trkpt>
      <trkpt lat="49.87365" lon="4.77685">
        <ele>255</ele>
        <time>2022-09-18T09:15:23.000Z</time>
      </trkpt>
      <trkpt lat="49.87364" lon="4.77684">
        <ele>255</ele>
        <time>2022-09-18T09:15:24.000Z</time>
      </trkpt>
      <trkpt lat="49.87364" lon="4.77682">
        <ele>256</ele>
        <time>2022-09-18T09:15:25.000Z</time>
      </trkpt>
      <trkpt lat="49.87363" lon="4.77681">
        <ele>256</ele>
        <time>2022-09-18T09:15:26.000Z</time>
      </trkpt>
      <trkpt lat="49.87362" lon="4.77679">
        <ele>256</ele>
        <time>2022-09-18T09:15:27.000Z</time>
      </trkpt>
      <trkpt lat="49.87361" lon="4.77677">
        <ele>256</ele>
        <time>2022-09-18T09:15:28.000Z</time>
      </trkpt>
      <trkpt lat="49.87361" lon="4.77675">
        <ele>256</ele>
        <time>2022-09-18T09:15:29.000Z</time>
      </trkpt>
      <trkpt lat="49.87359" lon="4.77672">
        <ele>257</ele>
        <time>2022-09-18T09:15:30.000Z</time>
      </trkpt>
      <trkpt lat="49.87358" lon="4.77669">
        <ele>257</ele>
        <time>2022-09-18T09:15:31.000Z</time>
      </trkpt>
      <trkpt lat="49.87357" lon="4.77667">
        <ele>257</ele>
        <time>2022-09-18T09:15:32.000Z</time>
      </trkpt>
      <trkpt lat="49.87356" lon="4.77664">
        <ele>257</ele>
        <time>2022-09-18T09:15:33.000Z</time>
      </trkpt>
      <trkpt lat="49.87355" lon="4.77661">
        <ele>257</ele>
        <time>2022-09-18T09:15:34.000Z</time>
      </trkpt>
      <trkpt lat="49.87355" lon="4.77658">
        <ele>258</ele>
        <time>2022-09-18T09:15:35.000Z</time>
      </trkpt>
      <trkpt lat="49.87354" lon="4.77655">
        <ele>258</ele>
        <time>2022-09-18T09:15:36.000Z</time>
      </trkpt>
      <trkpt lat="49.87353" lon="4.77652">
        <ele>258</ele>
        <time>2022-09-18T09:15:37.000Z</time>
      </trkpt>
      <trkpt lat="49.87352" lon="4.77649">
        <ele>259</ele>
        <time>2022-09-18T09:15:38.000Z</time>
      </trkpt>
      <trkpt lat="49.87351" lon="4.77645">
        <ele>259</ele>
        <time>2022-09-18T09:15:39.000Z</time>
      </trkpt>
      <trkpt lat="49.87351" lon="4.77642">
        <ele>259</ele>
        <time>2022-09-18T09:15:40.000Z</time>
      </trkpt>
      <trkpt lat="49.8735" lon="4.77639">
        <ele>259</ele>
        <time>2022-09-18T09:15:41.000Z</time>
      </trkpt>
      <trkpt lat="49.87349" lon="4.77636">
        <ele>260</ele>
        <time>2022-09-18T09:15:42.000Z</time>
      </trkpt>
      <trkpt lat="49.87348" lon="4.77633">
        <ele>260</ele>
        <time>2022-09-18T09:15:43.000Z</time>
      </trkpt>
      <trkpt lat="49.87346" lon="4.7763">
        <ele>260</ele>
        <time>2022-09-18T09:15:44.000Z</time>
      </trkpt>
      <trkpt lat="49.87345" lon="4.77627">
        <ele>260</ele>
        <time>2022-09-18T09:15:45.000Z</time>
      </trkpt>
      <trkpt lat="49.87344" lon="4.77625">
        <ele>260</ele>
        <time>2022-09-18T09:15:46.000Z</time>
      </trkpt>
      <trkpt lat="49.87343" lon="4.77622">
        <ele>260</ele>
        <time>2022-09-18T09:15:47.000Z</time>
      </trkpt>
      <trkpt lat="49.87342" lon="4.7762">
        <ele>261</ele>
        <time>2022-09-18T09:15:48.000Z</time>
      </trkpt>
      <trkpt lat="49.87341" lon="4.77617">
        <ele>261</ele>
        <time>2022-09-18T09:15:49.000Z</time>
      </trkpt>
      <trkpt lat="49.8734" lon="4.77615">
        <ele>261</ele>
        <time>2022-09-18T09:15:50.000Z</time>
      </trkpt>
      <trkpt lat="49.87339" lon="4.77612">
        <ele>261</ele>
        <time>2022-09-18T09:15:51.000Z</time>
      </trkpt>
      <trkpt lat="49.87338" lon="4.7761">
        <ele>262</ele>
        <time>2022-09-18T09:15:52.000Z</time>
      </trkpt>
      <trkpt lat="49.87337" lon="4.77607">
        <ele>262</ele>
        <time>2022-09-18T09:15:53.000Z</time>
      </trkpt>
      <trkpt lat="49.87336" lon="4.77605">
        <ele>263</ele>
        <time>2022-09-18T09:15:54.000Z</time>
      </trkpt>
      <trkpt lat="49.87335" lon="4.77602">
        <ele>263</ele>
        <time>2022-09-18T09:15:55.000Z</time>
      </trkpt>
      <trkpt lat="49.87334" lon="4.776">
        <ele>264</ele>
        <time>2022-09-18T09:15:56.000Z</time>
      </trkpt>
      <trkpt lat="49.87333" lon="4.77597">
        <ele>264</ele>
        <time>2022-09-18T09:15:57.000Z</time>
      </trkpt>
      <trkpt lat="49.87332" lon="4.77595">
        <ele>264</ele>
        <time>2022-09-18T09:15:58.000Z</time>
      </trkpt>
      <trkpt lat="49.87331" lon="4.77592">
        <ele>265</ele>
        <time>2022-09-18T09:15:59.000Z</time>
      </trkpt>
      <trkpt lat="49.8733" lon="4.77589">
        <ele>265</ele>
        <time>2022-09-18T09:16:00.000Z</time>
      </trkpt>
      <trkpt lat="49.87329" lon="4.77586">
        <ele>265</ele>
        <time>2022-09-18T09:16:01.000Z</time>
      </trkpt>
      <trkpt lat="49.87328" lon="4.77583">
        <ele>265</ele>
        <time>2022-09-18T09:16:02.000Z</time>
      </trkpt>
      <trkpt lat="49.87327" lon="4.77581">
        <ele>266</ele>
        <time>2022-09-18T09:16:03.000Z</time>
      </trkpt>
      <trkpt lat="49.87326" lon="4.77578">
        <ele>266</ele>
        <time>2022-09-18T09:16:04.000Z</time>
      </trkpt>
      <trkpt lat="49.87325" lon="4.77577">
        <ele>266</ele>
        <time>2022-09-18T09:16:05.000Z</time>
      </trkpt>
      <trkpt lat="49.87324" lon="4.77575">
        <ele>266</ele>
        <time>2022-09-18T09:16:06.000Z</time>
      </trkpt>
      <trkpt lat="49.87322" lon="4.77574">
        <ele>266</ele>
        <time>2022-09-18T09:16:07.000Z</time>
      </trkpt>
      <trkpt lat="49.87321" lon="4.77572">
        <ele>266</ele>
        <time>2022-09-18T09:16:08.000Z</time>
      </trkpt>
      <trkpt lat="49.87319" lon="4.77569">
        <ele>266</ele>
        <time>2022-09-18T09:16:09.000Z</time>
      </trkpt>
      <trkpt lat="49.87318" lon="4.77567">
        <ele>266</ele>
        <time>2022-09-18T09:16:10.000Z</time>
      </trkpt>
      <trkpt lat="49.87317" lon="4.77564">
        <ele>266</ele>
        <time>2022-09-18T09:16:11.000Z</time>
      </trkpt>
      <trkpt lat="49.87316" lon="4.77561">
        <ele>266</ele>
        <time>2022-09-18T09:16:12.000Z</time>
      </trkpt>
      <trkpt lat="49.87315" lon="4.77559">
        <ele>266</ele>
        <time>2022-09-18T09:16:13.000Z</time>
      </trkpt>
      <trkpt lat="49.87314" lon="4.77556">
        <ele>266</ele>
        <time>2022-09-18T09:16:14.000Z</time>
      </trkpt>
      <trkpt lat="49.87314" lon="4.77553">
        <ele>266</ele>
        <time>2022-09-18T09:16:15.000Z</time>
      </trkpt>
      <trkpt lat="49.87312" lon="4.77551">
        <ele>267</ele>
        <time>2022-09-18T09:16:16.000Z</time>
      </trkpt>
      <trkpt lat="49.87311" lon="4.77548">
        <ele>267</ele>
        <time>2022-09-18T09:16:17.000Z</time>
      </trkpt>
      <trkpt lat="49.8731" lon="4.77545">
        <ele>267</ele>
        <time>2022-09-18T09:16:18.000Z</time>
      </trkpt>
      <trkpt lat="49.87309" lon="4.77542">
        <ele>267</ele>
        <time>2022-09-18T09:16:19.000Z</time>
      </trkpt>
      <trkpt lat="49.87308" lon="4.77538">
        <ele>267</ele>
        <time>2022-09-18T09:16:20.000Z</time>
      </trkpt>
      <trkpt lat="49.87307" lon="4.77535">
        <ele>267</ele>
        <time>2022-09-18T09:16:21.000Z</time>
      </trkpt>
      <trkpt lat="49.87306" lon="4.77532">
        <ele>268</ele>
        <time>2022-09-18T09:16:22.000Z</time>
      </trkpt>
      <trkpt lat="49.87305" lon="4.77529">
        <ele>268</ele>
        <time>2022-09-18T09:16:23.000Z</time>
      </trkpt>
      <trkpt lat="49.87304" lon="4.77526">
        <ele>268</ele>
        <time>2022-09-18T09:16:24.000Z</time>
      </trkpt>
      <trkpt lat="49.87302" lon="4.77523">
        <ele>268</ele>
        <time>2022-09-18T09:16:25.000Z</time>
      </trkpt>
      <trkpt lat="49.87301" lon="4.77521">
        <ele>269</ele>
        <time>2022-09-18T09:16:26.000Z</time>
      </trkpt>
      <trkpt lat="49.87299" lon="4.77518">
        <ele>269</ele>
        <time>2022-09-18T09:16:27.000Z</time>
      </trkpt>
      <trkpt lat="49.87298" lon="4.77515">
        <ele>269</ele>
        <time>2022-09-18T09:16:28.000Z</time>
      </trkpt>
      <trkpt lat="49.87296" lon="4.77512">
        <ele>269</ele>
        <time>2022-09-18T09:16:29.000Z</time>
      </trkpt>
      <trkpt lat="49.87295" lon="4.77509">
        <ele>270</ele>
        <time>2022-09-18T09:16:30.000Z</time>
      </trkpt>
      <trkpt lat="49.87294" lon="4.77506">
        <ele>270</ele>
        <time>2022-09-18T09:16:31.000Z</time>
      </trkpt>
      <trkpt lat="49.87293" lon="4.77503">
        <ele>270</ele>
        <time>2022-09-18T09:16:32.000Z</time>
      </trkpt>
      <trkpt lat="49.87291" lon="4.77501">
        <ele>270</ele>
        <time>2022-09-18T09:16:33.000Z</time>
      </trkpt>
      <trkpt lat="49.87291" lon="4.77498">
        <ele>270</ele>
        <time>2022-09-18T09:16:34.000Z</time>
      </trkpt>
      <trkpt lat="49.8729" lon="4.77495">
        <ele>270</ele>
        <time>2022-09-18T09:16:35.000Z</time>
      </trkpt>
      <trkpt lat="49.87289" lon="4.77492">
        <ele>271</ele>
        <time>2022-09-18T09:16:36.000Z</time>
      </trkpt>
      <trkpt lat="49.87287" lon="4.77488">
        <ele>271</ele>
        <time>2022-09-18T09:16:37.000Z</time>
      </trkpt>
      <trkpt lat="49.87286" lon="4.77486">
        <ele>271</ele>
        <time>2022-09-18T09:16:38.000Z</time>
      </trkpt>
      <trkpt lat="49.87285" lon="4.77483">
        <ele>271</ele>
        <time>2022-09-18T09:16:39.000Z</time>
      </trkpt>
      <trkpt lat="49.87284" lon="4.7748">
        <ele>271</ele>
        <time>2022-09-18T09:16:40.000Z</time>
      </trkpt>
      <trkpt lat="49.87283" lon="4.77477">
        <ele>271</ele>
        <time>2022-09-18T09:16:41.000Z</time>
      </trkpt>
      <trkpt lat="49.87282" lon="4.77475">
        <ele>271</ele>
        <time>2022-09-18T09:16:42.000Z</time>
      </trkpt>
      <trkpt lat="49.8728" lon="4.77472">
        <ele>271</ele>
        <time>2022-09-18T09:16:43.000Z</time>
      </trkpt>
      <trkpt lat="49.87279" lon="4.77471">
        <ele>271</ele>
        <time>2022-09-18T09:16:44.000Z</time>
      </trkpt>
      <trkpt lat="49.87279" lon="4.77468">
        <ele>271</ele>
        <time>2022-09-18T09:16:45.000Z</time>
      </trkpt>
      <trkpt lat="49.87278" lon="4.77465">
        <ele>271</ele>
        <time>2022-09-18T09:16:46.000Z</time>
      </trkpt>
      <trkpt lat="49.87278" lon="4.77463">
        <ele>272</ele>
        <time>2022-09-18T09:16:47.000Z</time>
      </trkpt>
      <trkpt lat="49.87277" lon="4.7746">
        <ele>272</ele>
        <time>2022-09-18T09:16:48.000Z</time>
      </trkpt>
      <trkpt lat="49.87275" lon="4.77457">
        <ele>272</ele>
        <time>2022-09-18T09:16:49.000Z</time>
      </trkpt>
      <trkpt lat="49.87274" lon="4.77454">
        <ele>272</ele>
        <time>2022-09-18T09:16:50.000Z</time>
      </trkpt>
      <trkpt lat="49.87273" lon="4.7745">
        <ele>272</ele>
        <time>2022-09-18T09:16:51.000Z</time>
      </trkpt>
      <trkpt lat="49.87272" lon="4.77447">
        <ele>272</ele>
        <time>2022-09-18T09:16:52.000Z</time>
      </trkpt>
      <trkpt lat="49.8727" lon="4.77444">
        <ele>272</ele>
        <time>2022-09-18T09:16:53.000Z</time>
      </trkpt>
      <trkpt lat="49.87269" lon="4.77441">
        <ele>272</ele>
        <time>2022-09-18T09:16:54.000Z</time>
      </trkpt>
      <trkpt lat="49.87268" lon="4.77438">
        <ele>272</ele>
        <time>2022-09-18T09:16:55.000Z</time>
      </trkpt>
      <trkpt lat="49.87267" lon="4.77435">
        <ele>272</ele>
        <time>2022-09-18T09:16:56.000Z</time>
      </trkpt>
      <trkpt lat="49.87266" lon="4.77431">
        <ele>272</ele>
        <time>2022-09-18T09:16:57.000Z</time>
      </trkpt>
      <trkpt lat="49.87265" lon="4.77428">
        <ele>273</ele>
        <time>2022-09-18T09:16:58.000Z</time>
      </trkpt>
      <trkpt lat="49.87265" lon="4.77425">
        <ele>273</ele>
        <time>2022-09-18T09:16:59.000Z</time>
      </trkpt>
      <trkpt lat="49.87264" lon="4.77422">
        <ele>273</ele>
        <time>2022-09-18T09:17:00.000Z</time>
      </trkpt>
      <trkpt lat="49.87263" lon="4.7742">
        <ele>273</ele>
        <time>2022-09-18T09:17:01.000Z</time>
      </trkpt>
      <trkpt lat="49.87262" lon="4.77417">
        <ele>274</ele>
        <time>2022-09-18T09:17:02.000Z</time>
      </trkpt>
      <trkpt lat="49.87261" lon="4.77415">
        <ele>274</ele>
        <time>2022-09-18T09:17:03.000Z</time>
      </trkpt>
      <trkpt lat="49.8726" lon="4.77412">
        <ele>274</ele>
        <time>2022-09-18T09:17:04.000Z</time>
      </trkpt>
      <trkpt lat="49.87259" lon="4.7741">
        <ele>274</ele>
        <time>2022-09-18T09:17:05.000Z</time>
      </trkpt>
      <trkpt lat="49.87257" lon="4.77407">
        <ele>275</ele>
        <time>2022-09-18T09:17:06.000Z</time>
      </trkpt>
      <trkpt lat="49.87256" lon="4.77405">
        <ele>275</ele>
        <time>2022-09-18T09:17:07.000Z</time>
      </trkpt>
      <trkpt lat="49.87255" lon="4.77403">
        <ele>275</ele>
        <time>2022-09-18T09:17:08.000Z</time>
      </trkpt>
      <trkpt lat="49.87253" lon="4.77401">
        <ele>275</ele>
        <time>2022-09-18T09:17:09.000Z</time>
      </trkpt>
      <trkpt lat="49.87252" lon="4.77399">
        <ele>275</ele>
        <time>2022-09-18T09:17:10.000Z</time>
      </trkpt>
      <trkpt lat="49.8725" lon="4.77398">
        <ele>275</ele>
        <time>2022-09-18T09:17:11.000Z</time>
      </trkpt>
      <trkpt lat="49.87249" lon="4.77396">
        <ele>275</ele>
        <time>2022-09-18T09:17:12.000Z</time>
      </trkpt>
      <trkpt lat="49.87248" lon="4.77395">
        <ele>276</ele>
        <time>2022-09-18T09:17:13.000Z</time>
      </trkpt>
      <trkpt lat="49.87248" lon="4.77393">
        <ele>276</ele>
        <time>2022-09-18T09:17:14.000Z</time>
      </trkpt>
      <trkpt lat="49.87246" lon="4.77391">
        <ele>276</ele>
        <time>2022-09-18T09:17:15.000Z</time>
      </trkpt>
      <trkpt lat="49.87245" lon="4.77389">
        <ele>276</ele>
        <time>2022-09-18T09:17:16.000Z</time>
      </trkpt>
      <trkpt lat="49.87243" lon="4.77387">
        <ele>276</ele>
        <time>2022-09-18T09:17:17.000Z</time>
      </trkpt>
      <trkpt lat="49.87242" lon="4.77386">
        <ele>276</ele>
        <time>2022-09-18T09:17:18.000Z</time>
      </trkpt>
      <trkpt lat="49.87241" lon="4.77384">
        <ele>276</ele>
        <time>2022-09-18T09:17:19.000Z</time>
      </trkpt>
      <trkpt lat="49.87239" lon="4.77383">
        <ele>277</ele>
        <time>2022-09-18T09:17:20.000Z</time>
      </trkpt>
      <trkpt lat="49.87238" lon="4.77381">
        <ele>277</ele>
        <time>2022-09-18T09:17:21.000Z</time>
      </trkpt>
      <trkpt lat="49.87237" lon="4.77378">
        <ele>277</ele>
        <time>2022-09-18T09:17:22.000Z</time>
      </trkpt>
      <trkpt lat="49.87236" lon="4.77377">
        <ele>277</ele>
        <time>2022-09-18T09:17:23.000Z</time>
      </trkpt>
      <trkpt lat="49.87235" lon="4.77374">
        <ele>277</ele>
        <time>2022-09-18T09:17:24.000Z</time>
      </trkpt>
      <trkpt lat="49.87234" lon="4.77373">
        <ele>277</ele>
        <time>2022-09-18T09:17:25.000Z</time>
      </trkpt>
      <trkpt lat="49.87233" lon="4.77371">
        <ele>278</ele>
        <time>2022-09-18T09:17:26.000Z</time>
      </trkpt>
      <trkpt lat="49.87233" lon="4.7737">
        <ele>278</ele>
        <time>2022-09-18T09:17:27.000Z</time>
      </trkpt>
      <trkpt lat="49.87231" lon="4.7737">
        <ele>278</ele>
        <time>2022-09-18T09:17:28.000Z</time>
      </trkpt>
      <trkpt lat="49.87229" lon="4.77369">
        <ele>278</ele>
        <time>2022-09-18T09:17:29.000Z</time>
      </trkpt>
      <trkpt lat="49.87228" lon="4.77369">
        <ele>278</ele>
        <time>2022-09-18T09:17:30.000Z</time>
      </trkpt>
      <trkpt lat="49.87227" lon="4.77367">
        <ele>278</ele>
        <time>2022-09-18T09:17:31.000Z</time>
      </trkpt>
      <trkpt lat="49.87226" lon="4.77365">
        <ele>278</ele>
        <time>2022-09-18T09:17:32.000Z</time>
      </trkpt>
      <trkpt lat="49.87226" lon="4.77363">
        <ele>278</ele>
        <time>2022-09-18T09:17:33.000Z</time>
      </trkpt>
      <trkpt lat="49.87224" lon="4.77362">
        <ele>278</ele>
        <time>2022-09-18T09:17:34.000Z</time>
      </trkpt>
      <trkpt lat="49.87223" lon="4.7736">
        <ele>278</ele>
        <time>2022-09-18T09:17:35.000Z</time>
      </trkpt>
      <trkpt lat="49.87223" lon="4.77359">
        <ele>278</ele>
        <time>2022-09-18T09:17:36.000Z</time>
      </trkpt>
      <trkpt lat="49.87221" lon="4.77357">
        <ele>278</ele>
        <time>2022-09-18T09:17:37.000Z</time>
      </trkpt>
      <trkpt lat="49.8722" lon="4.77356">
        <ele>278</ele>
        <time>2022-09-18T09:17:38.000Z</time>
      </trkpt>
      <trkpt lat="49.87219" lon="4.77355">
        <ele>278</ele>
        <time>2022-09-18T09:17:39.000Z</time>
      </trkpt>
      <trkpt lat="49.87217" lon="4.77353">
        <ele>279</ele>
        <time>2022-09-18T09:17:40.000Z</time>
      </trkpt>
      <trkpt lat="49.87216" lon="4.77351">
        <ele>279</ele>
        <time>2022-09-18T09:17:41.000Z</time>
      </trkpt>
      <trkpt lat="49.87214" lon="4.7735">
        <ele>279</ele>
        <time>2022-09-18T09:17:42.000Z</time>
      </trkpt>
      <trkpt lat="49.87213" lon="4.77348">
        <ele>279</ele>
        <time>2022-09-18T09:17:43.000Z</time>
      </trkpt>
      <trkpt lat="49.87211" lon="4.77346">
        <ele>279</ele>
        <time>2022-09-18T09:17:44.000Z</time>
      </trkpt>
      <trkpt lat="49.8721" lon="4.77343">
        <ele>279</ele>
        <time>2022-09-18T09:17:45.000Z</time>
      </trkpt>
      <trkpt lat="49.87209" lon="4.77341">
        <ele>279</ele>
        <time>2022-09-18T09:17:46.000Z</time>
      </trkpt>
      <trkpt lat="49.87208" lon="4.77339">
        <ele>280</ele>
        <time>2022-09-18T09:17:47.000Z</time>
      </trkpt>
      <trkpt lat="49.87207" lon="4.77338">
        <ele>280</ele>
        <time>2022-09-18T09:17:48.000Z</time>
      </trkpt>
      <trkpt lat="49.87206" lon="4.77336">
        <ele>280</ele>
        <time>2022-09-18T09:17:49.000Z</time>
      </trkpt>
      <trkpt lat="49.87205" lon="4.77334">
        <ele>280</ele>
        <time>2022-09-18T09:17:50.000Z</time>
      </trkpt>
      <trkpt lat="49.87204" lon="4.77331">
        <ele>280</ele>
        <time>2022-09-18T09:17:51.000Z</time>
      </trkpt>
      <trkpt lat="49.87203" lon="4.77328">
        <ele>280</ele>
        <time>2022-09-18T09:17:52.000Z</time>
      </trkpt>
      <trkpt lat="49.87202" lon="4.77326">
        <ele>280</ele>
        <time>2022-09-18T09:17:53.000Z</time>
      </trkpt>
      <trkpt lat="49.872" lon="4.77322">
        <ele>281</ele>
        <time>2022-09-18T09:17:54.000Z</time>
      </trkpt>
      <trkpt lat="49.872" lon="4.77319">
        <ele>281</ele>
        <time>2022-09-18T09:17:55.000Z</time>
      </trkpt>
      <trkpt lat="49.87199" lon="4.77316">
        <ele>281</ele>
        <time>2022-09-18T09:17:56.000Z</time>
      </trkpt>
      <trkpt lat="49.87198" lon="4.77314">
        <ele>281</ele>
        <time>2022-09-18T09:17:57.000Z</time>
      </trkpt>
      <trkpt lat="49.87197" lon="4.77311">
        <ele>281</ele>
        <time>2022-09-18T09:17:58.000Z</time>
      </trkpt>
      <trkpt lat="49.87196" lon="4.77309">
        <ele>282</ele>
        <time>2022-09-18T09:17:59.000Z</time>
      </trkpt>
      <trkpt lat="49.87196" lon="4.77305">
        <ele>282</ele>
        <time>2022-09-18T09:18:00.000Z</time>
      </trkpt>
      <trkpt lat="49.87195" lon="4.77303">
        <ele>282</ele>
        <time>2022-09-18T09:18:01.000Z</time>
      </trkpt>
      <trkpt lat="49.87194" lon="4.773">
        <ele>282</ele>
        <time>2022-09-18T09:18:02.000Z</time>
      </trkpt>
      <trkpt lat="49.87194" lon="4.77297">
        <ele>283</ele>
        <time>2022-09-18T09:18:03.000Z</time>
      </trkpt>
      <trkpt lat="49.87193" lon="4.77294">
        <ele>283</ele>
        <time>2022-09-18T09:18:04.000Z</time>
      </trkpt>
      <trkpt lat="49.87192" lon="4.77292">
        <ele>283</ele>
        <time>2022-09-18T09:18:05.000Z</time>
      </trkpt>
      <trkpt lat="49.87192" lon="4.7729">
        <ele>283</ele>
        <time>2022-09-18T09:18:06.000Z</time>
      </trkpt>
      <trkpt lat="49.87191" lon="4.77287">
        <ele>284</ele>
        <time>2022-09-18T09:18:07.000Z</time>
      </trkpt>
      <trkpt lat="49.8719" lon="4.77284">
        <ele>284</ele>
        <time>2022-09-18T09:18:08.000Z</time>
      </trkpt>
      <trkpt lat="49.87188" lon="4.77281">
        <ele>284</ele>
        <time>2022-09-18T09:18:09.000Z</time>
      </trkpt>
      <trkpt lat="49.87187" lon="4.77278">
        <ele>284</ele>
        <time>2022-09-18T09:18:10.000Z</time>
      </trkpt>
      <trkpt lat="49.87186" lon="4.77275">
        <ele>284</ele>
        <time>2022-09-18T09:18:11.000Z</time>
      </trkpt>
      <trkpt lat="49.87184" lon="4.77272">
        <ele>285</ele>
        <time>2022-09-18T09:18:12.000Z</time>
      </trkpt>
      <trkpt lat="49.87183" lon="4.77269">
        <ele>285</ele>
        <time>2022-09-18T09:18:13.000Z</time>
      </trkpt>
      <trkpt lat="49.87181" lon="4.77266">
        <ele>285</ele>
        <time>2022-09-18T09:18:14.000Z</time>
      </trkpt>
      <trkpt lat="49.8718" lon="4.77262">
        <ele>285</ele>
        <time>2022-09-18T09:18:15.000Z</time>
      </trkpt>
      <trkpt lat="49.87178" lon="4.77259">
        <ele>285</ele>
        <time>2022-09-18T09:18:16.000Z</time>
      </trkpt>
      <trkpt lat="49.87177" lon="4.77255">
        <ele>286</ele>
        <time>2022-09-18T09:18:17.000Z</time>
      </trkpt>
      <trkpt lat="49.87177" lon="4.77252">
        <ele>286</ele>
        <time>2022-09-18T09:18:18.000Z</time>
      </trkpt>
      <trkpt lat="49.87176" lon="4.77249">
        <ele>286</ele>
        <time>2022-09-18T09:18:19.000Z</time>
      </trkpt>
      <trkpt lat="49.87175" lon="4.77247">
        <ele>287</ele>
        <time>2022-09-18T09:18:20.000Z</time>
      </trkpt>
      <trkpt lat="49.87174" lon="4.77245">
        <ele>287</ele>
        <time>2022-09-18T09:18:21.000Z</time>
      </trkpt>
      <trkpt lat="49.87174" lon="4.77242">
        <ele>287</ele>
        <time>2022-09-18T09:18:22.000Z</time>
      </trkpt>
      <trkpt lat="49.87173" lon="4.77239">
        <ele>287</ele>
        <time>2022-09-18T09:18:23.000Z</time>
      </trkpt>
      <trkpt lat="49.87173" lon="4.77236">
        <ele>288</ele>
        <time>2022-09-18T09:18:24.000Z</time>
      </trkpt>
      <trkpt lat="49.87173" lon="4.77234">
        <ele>288</ele>
        <time>2022-09-18T09:18:25.000Z</time>
      </trkpt>
      <trkpt lat="49.87172" lon="4.77231">
        <ele>288</ele>
        <time>2022-09-18T09:18:26.000Z</time>
      </trkpt>
      <trkpt lat="49.87172" lon="4.77228">
        <ele>288</ele>
        <time>2022-09-18T09:18:27.000Z</time>
      </trkpt>
      <trkpt lat="49.87171" lon="4.77225">
        <ele>289</ele>
        <time>2022-09-18T09:18:28.000Z</time>
      </trkpt>
      <trkpt lat="49.8717" lon="4.77222">
        <ele>289</ele>
        <time>2022-09-18T09:18:29.000Z</time>
      </trkpt>
      <trkpt lat="49.8717" lon="4.7722">
        <ele>289</ele>
        <time>2022-09-18T09:18:30.000Z</time>
      </trkpt>
      <trkpt lat="49.87169" lon="4.77219">
        <ele>290</ele>
        <time>2022-09-18T09:18:31.000Z</time>
      </trkpt>
      <trkpt lat="49.87168" lon="4.77217">
        <ele>290</ele>
        <time>2022-09-18T09:18:32.000Z</time>
      </trkpt>
      <trkpt lat="49.87167" lon="4.77214">
        <ele>290</ele>
        <time>2022-09-18T09:18:33.000Z</time>
      </trkpt>
      <trkpt lat="49.87166" lon="4.77212">
        <ele>290</ele>
        <time>2022-09-18T09:18:34.000Z</time>
      </trkpt>
      <trkpt lat="49.87166" lon="4.77209">
        <ele>291</ele>
        <time>2022-09-18T09:18:35.000Z</time>
      </trkpt>
      <trkpt lat="49.87165" lon="4.77207">
        <ele>291</ele>
        <time>2022-09-18T09:18:36.000Z</time>
      </trkpt>
      <trkpt lat="49.87164" lon="4.77204">
        <ele>291</ele>
        <time>2022-09-18T09:18:37.000Z</time>
      </trkpt>
      <trkpt lat="49.87163" lon="4.77202">
        <ele>291</ele>
        <time>2022-09-18T09:18:38.000Z</time>
      </trkpt>
      <trkpt lat="49.87162" lon="4.77198">
        <ele>291</ele>
        <time>2022-09-18T09:18:39.000Z</time>
      </trkpt>
      <trkpt lat="49.87162" lon="4.77195">
        <ele>292</ele>
        <time>2022-09-18T09:18:40.000Z</time>
      </trkpt>
      <trkpt lat="49.87161" lon="4.77192">
        <ele>292</ele>
        <time>2022-09-18T09:18:41.000Z</time>
      </trkpt>
      <trkpt lat="49.8716" lon="4.77189">
        <ele>292</ele>
        <time>2022-09-18T09:18:42.000Z</time>
      </trkpt>
      <trkpt lat="49.87159" lon="4.77186">
        <ele>293</ele>
        <time>2022-09-18T09:18:43.000Z</time>
      </trkpt>
      <trkpt lat="49.87159" lon="4.77182">
        <ele>293</ele>
        <time>2022-09-18T09:18:44.000Z</time>
      </trkpt>
      <trkpt lat="49.87158" lon="4.77179">
        <ele>293</ele>
        <time>2022-09-18T09:18:45.000Z</time>
      </trkpt>
      <trkpt lat="49.87157" lon="4.77176">
        <ele>293</ele>
        <time>2022-09-18T09:18:46.000Z</time>
      </trkpt>
      <trkpt lat="49.87156" lon="4.77172">
        <ele>293</ele>
        <time>2022-09-18T09:18:47.000Z</time>
      </trkpt>
      <trkpt lat="49.87156" lon="4.77169">
        <ele>293</ele>
        <time>2022-09-18T09:18:48.000Z</time>
      </trkpt>
      <trkpt lat="49.87155" lon="4.77165">
        <ele>294</ele>
        <time>2022-09-18T09:18:49.000Z</time>
      </trkpt>
      <trkpt lat="49.87154" lon="4.77162">
        <ele>294</ele>
        <time>2022-09-18T09:18:50.000Z</time>
      </trkpt>
      <trkpt lat="49.87154" lon="4.77159">
        <ele>294</ele>
        <time>2022-09-18T09:18:51.000Z</time>
      </trkpt>
      <trkpt lat="49.87154" lon="4.77156">
        <ele>294</ele>
        <time>2022-09-18T09:18:52.000Z</time>
      </trkpt>
      <trkpt lat="49.87154" lon="4.77153">
        <ele>294</ele>
        <time>2022-09-18T09:18:53.000Z</time>
      </trkpt>
      <trkpt lat="49.87154" lon="4.7715">
        <ele>294</ele>
        <time>2022-09-18T09:18:54.000Z</time>
      </trkpt>
      <trkpt lat="49.87154" lon="4.77147">
        <ele>295</ele>
        <time>2022-09-18T09:18:55.000Z</time>
      </trkpt>
      <trkpt lat="49.87153" lon="4.77144">
        <ele>295</ele>
        <time>2022-09-18T09:18:56.000Z</time>
      </trkpt>
      <trkpt lat="49.87153" lon="4.77141">
        <ele>295</ele>
        <time>2022-09-18T09:18:57.000Z</time>
      </trkpt>
      <trkpt lat="49.87152" lon="4.77137">
        <ele>295</ele>
        <time>2022-09-18T09:18:58.000Z</time>
      </trkpt>
      <trkpt lat="49.87152" lon="4.77134">
        <ele>295</ele>
        <time>2022-09-18T09:18:59.000Z</time>
      </trkpt>
      <trkpt lat="49.87152" lon="4.7713">
        <ele>296</ele>
        <time>2022-09-18T09:19:00.000Z</time>
      </trkpt>
      <trkpt lat="49.87151" lon="4.77127">
        <ele>296</ele>
        <time>2022-09-18T09:19:01.000Z</time>
      </trkpt>
      <trkpt lat="49.8715" lon="4.77124">
        <ele>296</ele>
        <time>2022-09-18T09:19:02.000Z</time>
      </trkpt>
      <trkpt lat="49.87149" lon="4.77121">
        <ele>296</ele>
        <time>2022-09-18T09:19:03.000Z</time>
      </trkpt>
      <trkpt lat="49.87148" lon="4.77117">
        <ele>297</ele>
        <time>2022-09-18T09:19:04.000Z</time>
      </trkpt>
      <trkpt lat="49.87148" lon="4.77114">
        <ele>297</ele>
        <time>2022-09-18T09:19:05.000Z</time>
      </trkpt>
      <trkpt lat="49.87147" lon="4.77111">
        <ele>297</ele>
        <time>2022-09-18T09:19:06.000Z</time>
      </trkpt>
      <trkpt lat="49.87145" lon="4.77108">
        <ele>298</ele>
        <time>2022-09-18T09:19:07.000Z</time>
      </trkpt>
      <trkpt lat="49.87144" lon="4.77105">
        <ele>298</ele>
        <time>2022-09-18T09:19:08.000Z</time>
      </trkpt>
      <trkpt lat="49.87142" lon="4.77103">
        <ele>298</ele>
        <time>2022-09-18T09:19:09.000Z</time>
      </trkpt>
      <trkpt lat="49.87141" lon="4.771">
        <ele>298</ele>
        <time>2022-09-18T09:19:10.000Z</time>
      </trkpt>
      <trkpt lat="49.8714" lon="4.77097">
        <ele>299</ele>
        <time>2022-09-18T09:19:11.000Z</time>
      </trkpt>
      <trkpt lat="49.8714" lon="4.77095">
        <ele>299</ele>
        <time>2022-09-18T09:19:12.000Z</time>
      </trkpt>
      <trkpt lat="49.87139" lon="4.77092">
        <ele>299</ele>
        <time>2022-09-18T09:19:13.000Z</time>
      </trkpt>
      <trkpt lat="49.87139" lon="4.77089">
        <ele>299</ele>
        <time>2022-09-18T09:19:14.000Z</time>
      </trkpt>
      <trkpt lat="49.87138" lon="4.77087">
        <ele>300</ele>
        <time>2022-09-18T09:19:15.000Z</time>
      </trkpt>
      <trkpt lat="49.87138" lon="4.77084">
        <ele>300</ele>
        <time>2022-09-18T09:19:16.000Z</time>
      </trkpt>
      <trkpt lat="49.87137" lon="4.77082">
        <ele>300</ele>
        <time>2022-09-18T09:19:17.000Z</time>
      </trkpt>
      <trkpt lat="49.87136" lon="4.7708">
        <ele>300</ele>
        <time>2022-09-18T09:19:18.000Z</time>
      </trkpt>
      <trkpt lat="49.87134" lon="4.77077">
        <ele>300</ele>
        <time>2022-09-18T09:19:19.000Z</time>
      </trkpt>
      <trkpt lat="49.87133" lon="4.77074">
        <ele>301</ele>
        <time>2022-09-18T09:19:20.000Z</time>
      </trkpt>
      <trkpt lat="49.87132" lon="4.77072">
        <ele>301</ele>
        <time>2022-09-18T09:19:21.000Z</time>
      </trkpt>
      <trkpt lat="49.87131" lon="4.77069">
        <ele>301</ele>
        <time>2022-09-18T09:19:22.000Z</time>
      </trkpt>
      <trkpt lat="49.8713" lon="4.77067">
        <ele>301</ele>
        <time>2022-09-18T09:19:23.000Z</time>
      </trkpt>
      <trkpt lat="49.87129" lon="4.77065">
        <ele>301</ele>
        <time>2022-09-18T09:19:24.000Z</time>
      </trkpt>
      <trkpt lat="49.87127" lon="4.77062">
        <ele>301</ele>
        <time>2022-09-18T09:19:25.000Z</time>
      </trkpt>
      <trkpt lat="49.87125" lon="4.7706">
        <ele>301</ele>
        <time>2022-09-18T09:19:26.000Z</time>
      </trkpt>
      <trkpt lat="49.87123" lon="4.77059">
        <ele>302</ele>
        <time>2022-09-18T09:19:27.000Z</time>
      </trkpt>
      <trkpt lat="49.87121" lon="4.77057">
        <ele>302</ele>
        <time>2022-09-18T09:19:28.000Z</time>
      </trkpt>
      <trkpt lat="49.8712" lon="4.77055">
        <ele>302</ele>
        <time>2022-09-18T09:19:29.000Z</time>
      </trkpt>
      <trkpt lat="49.87118" lon="4.77054">
        <ele>302</ele>
        <time>2022-09-18T09:19:30.000Z</time>
      </trkpt>
      <trkpt lat="49.87116" lon="4.77053">
        <ele>302</ele>
        <time>2022-09-18T09:19:31.000Z</time>
      </trkpt>
      <trkpt lat="49.87114" lon="4.77053">
        <ele>302</ele>
        <time>2022-09-18T09:19:32.000Z</time>
      </trkpt>
      <trkpt lat="49.87112" lon="4.77052">
        <ele>302</ele>
        <time>2022-09-18T09:19:33.000Z</time>
      </trkpt>
      <trkpt lat="49.87111" lon="4.77051">
        <ele>302</ele>
        <time>2022-09-18T09:19:34.000Z</time>
      </trkpt>
      <trkpt lat="49.8711" lon="4.7705">
        <ele>303</ele>
        <time>2022-09-18T09:19:35.000Z</time>
      </trkpt>
      <trkpt lat="49.87109" lon="4.77049">
        <ele>303</ele>
        <time>2022-09-18T09:19:36.000Z</time>
      </trkpt>
      <trkpt lat="49.87107" lon="4.77049">
        <ele>303</ele>
        <time>2022-09-18T09:19:37.000Z</time>
      </trkpt>
      <trkpt lat="49.87106" lon="4.77049">
        <ele>303</ele>
        <time>2022-09-18T09:19:38.000Z</time>
      </trkpt>
      <trkpt lat="49.87104" lon="4.77049">
        <ele>303</ele>
        <time>2022-09-18T09:19:39.000Z</time>
      </trkpt>
      <trkpt lat="49.87103" lon="4.77049">
        <ele>303</ele>
        <time>2022-09-18T09:19:40.000Z</time>
      </trkpt>
      <trkpt lat="49.87101" lon="4.77049">
        <ele>304</ele>
        <time>2022-09-18T09:19:41.000Z</time>
      </trkpt>
      <trkpt lat="49.87099" lon="4.7705">
        <ele>304</ele>
        <time>2022-09-18T09:19:42.000Z</time>
      </trkpt>
      <trkpt lat="49.87097" lon="4.7705">
        <ele>304</ele>
        <time>2022-09-18T09:19:43.000Z</time>
      </trkpt>
      <trkpt lat="49.87095" lon="4.7705">
        <ele>305</ele>
        <time>2022-09-18T09:19:44.000Z</time>
      </trkpt>
      <trkpt lat="49.87092" lon="4.7705">
        <ele>305</ele>
        <time>2022-09-18T09:19:45.000Z</time>
      </trkpt>
      <trkpt lat="49.8709" lon="4.77051">
        <ele>305</ele>
        <time>2022-09-18T09:19:46.000Z</time>
      </trkpt>
      <trkpt lat="49.87088" lon="4.77051">
        <ele>305</ele>
        <time>2022-09-18T09:19:47.000Z</time>
      </trkpt>
      <trkpt lat="49.87086" lon="4.7705">
        <ele>305</ele>
        <time>2022-09-18T09:19:48.000Z</time>
      </trkpt>
      <trkpt lat="49.87084" lon="4.77051">
        <ele>305</ele>
        <time>2022-09-18T09:19:49.000Z</time>
      </trkpt>
      <trkpt lat="49.87082" lon="4.7705">
        <ele>305</ele>
        <time>2022-09-18T09:19:50.000Z</time>
      </trkpt>
      <trkpt lat="49.8708" lon="4.7705">
        <ele>305</ele>
        <time>2022-09-18T09:19:51.000Z</time>
      </trkpt>
      <trkpt lat="49.87078" lon="4.7705">
        <ele>305</ele>
        <time>2022-09-18T09:19:52.000Z</time>
      </trkpt>
      <trkpt lat="49.87076" lon="4.7705">
        <ele>305</ele>
        <time>2022-09-18T09:19:53.000Z</time>
      </trkpt>
      <trkpt lat="49.87074" lon="4.7705">
        <ele>306</ele>
        <time>2022-09-18T09:19:54.000Z</time>
      </trkpt>
      <trkpt lat="49.87071" lon="4.7705">
        <ele>306</ele>
        <time>2022-09-18T09:19:55.000Z</time>
      </trkpt>
      <trkpt lat="49.87069" lon="4.7705">
        <ele>306</ele>
        <time>2022-09-18T09:19:56.000Z</time>
      </trkpt>
      <trkpt lat="49.87067" lon="4.7705">
        <ele>306</ele>
        <time>2022-09-18T09:19:57.000Z</time>
      </trkpt>
      <trkpt lat="49.87064" lon="4.77051">
        <ele>307</ele>
        <time>2022-09-18T09:19:58.000Z</time>
      </trkpt>
      <trkpt lat="49.87062" lon="4.77052">
        <ele>307</ele>
        <time>2022-09-18T09:19:59.000Z</time>
      </trkpt>
      <trkpt lat="49.8706" lon="4.77054">
        <ele>307</ele>
        <time>2022-09-18T09:20:00.000Z</time>
      </trkpt>
      <trkpt lat="49.87058" lon="4.77055">
        <ele>308</ele>
        <time>2022-09-18T09:20:01.000Z</time>
      </trkpt>
      <trkpt lat="49.87056" lon="4.77056">
        <ele>308</ele>
        <time>2022-09-18T09:20:02.000Z</time>
      </trkpt>
      <trkpt lat="49.87054" lon="4.77057">
        <ele>308</ele>
        <time>2022-09-18T09:20:03.000Z</time>
      </trkpt>
      <trkpt lat="49.87053" lon="4.77059">
        <ele>309</ele>
        <time>2022-09-18T09:20:04.000Z</time>
      </trkpt>
      <trkpt lat="49.87051" lon="4.7706">
        <ele>309</ele>
        <time>2022-09-18T09:20:05.000Z</time>
      </trkpt>
      <trkpt lat="49.87048" lon="4.77062">
        <ele>309</ele>
        <time>2022-09-18T09:20:06.000Z</time>
      </trkpt>
      <trkpt lat="49.87045" lon="4.77063">
        <ele>309</ele>
        <time>2022-09-18T09:20:07.000Z</time>
      </trkpt>
      <trkpt lat="49.87043" lon="4.77065">
        <ele>309</ele>
        <time>2022-09-18T09:20:08.000Z</time>
      </trkpt>
      <trkpt lat="49.8704" lon="4.77066">
        <ele>309</ele>
        <time>2022-09-18T09:20:09.000Z</time>
      </trkpt>
      <trkpt lat="49.87037" lon="4.77067">
        <ele>310</ele>
        <time>2022-09-18T09:20:10.000Z</time>
      </trkpt>
      <trkpt lat="49.87034" lon="4.77069">
        <ele>310</ele>
        <time>2022-09-18T09:20:11.000Z</time>
      </trkpt>
      <trkpt lat="49.87032" lon="4.77069">
        <ele>310</ele>
        <time>2022-09-18T09:20:12.000Z</time>
      </trkpt>
      <trkpt lat="49.87029" lon="4.7707">
        <ele>310</ele>
        <time>2022-09-18T09:20:13.000Z</time>
      </trkpt>
      <trkpt lat="49.87027" lon="4.7707">
        <ele>310</ele>
        <time>2022-09-18T09:20:14.000Z</time>
      </trkpt>
      <trkpt lat="49.87024" lon="4.7707">
        <ele>310</ele>
        <time>2022-09-18T09:20:15.000Z</time>
      </trkpt>
      <trkpt lat="49.87021" lon="4.7707">
        <ele>310</ele>
        <time>2022-09-18T09:20:16.000Z</time>
      </trkpt>
      <trkpt lat="49.87018" lon="4.77069">
        <ele>310</ele>
        <time>2022-09-18T09:20:17.000Z</time>
      </trkpt>
      <trkpt lat="49.87017" lon="4.77068">
        <ele>310</ele>
        <time>2022-09-18T09:20:18.000Z</time>
      </trkpt>
      <trkpt lat="49.87016" lon="4.77066">
        <ele>310</ele>
        <time>2022-09-18T09:20:19.000Z</time>
      </trkpt>
      <trkpt lat="49.87015" lon="4.77064">
        <ele>309</ele>
        <time>2022-09-18T09:20:20.000Z</time>
      </trkpt>
      <trkpt lat="49.87015" lon="4.77062">
        <ele>309</ele>
        <time>2022-09-18T09:20:21.000Z</time>
      </trkpt>
      <trkpt lat="49.87015" lon="4.7706">
        <ele>309</ele>
        <time>2022-09-18T09:20:22.000Z</time>
      </trkpt>
      <trkpt lat="49.87016" lon="4.77057">
        <ele>309</ele>
        <time>2022-09-18T09:20:23.000Z</time>
      </trkpt>
      <trkpt lat="49.87017" lon="4.77055">
        <ele>309</ele>
        <time>2022-09-18T09:20:24.000Z</time>
      </trkpt>
      <trkpt lat="49.87019" lon="4.77052">
        <ele>309</ele>
        <time>2022-09-18T09:20:25.000Z</time>
      </trkpt>
      <trkpt lat="49.87019" lon="4.77049">
        <ele>309</ele>
        <time>2022-09-18T09:20:26.000Z</time>
      </trkpt>
      <trkpt lat="49.8702" lon="4.77046">
        <ele>309</ele>
        <time>2022-09-18T09:20:27.000Z</time>
      </trkpt>
      <trkpt lat="49.87021" lon="4.77044">
        <ele>308</ele>
        <time>2022-09-18T09:20:28.000Z</time>
      </trkpt>
      <trkpt lat="49.87021" lon="4.77042">
        <ele>308</ele>
        <time>2022-09-18T09:20:29.000Z</time>
      </trkpt>
      <trkpt lat="49.87022" lon="4.7704">
        <ele>308</ele>
        <time>2022-09-18T09:20:30.000Z</time>
      </trkpt>
      <trkpt lat="49.87023" lon="4.77038">
        <ele>308</ele>
        <time>2022-09-18T09:20:31.000Z</time>
      </trkpt>
      <trkpt lat="49.87023" lon="4.77035">
        <ele>308</ele>
        <time>2022-09-18T09:20:32.000Z</time>
      </trkpt>
      <trkpt lat="49.87022" lon="4.77033">
        <ele>308</ele>
        <time>2022-09-18T09:20:33.000Z</time>
      </trkpt>
      <trkpt lat="49.87021" lon="4.77033">
        <ele>308</ele>
        <time>2022-09-18T09:20:34.000Z</time>
      </trkpt>
      <trkpt lat="49.8702" lon="4.77033">
        <ele>308</ele>
        <time>2022-09-18T09:20:35.000Z</time>
      </trkpt>
      <trkpt lat="49.8702" lon="4.77036">
        <ele>308</ele>
        <time>2022-09-18T09:20:36.000Z</time>
      </trkpt>
      <trkpt lat="49.87019" lon="4.77038">
        <ele>308</ele>
        <time>2022-09-18T09:20:37.000Z</time>
      </trkpt>
      <trkpt lat="49.87019" lon="4.77041">
        <ele>308</ele>
        <time>2022-09-18T09:20:38.000Z</time>
      </trkpt>
      <trkpt lat="49.87018" lon="4.77044">
        <ele>308</ele>
        <time>2022-09-18T09:20:39.000Z</time>
      </trkpt>
      <trkpt lat="49.87017" lon="4.77047">
        <ele>308</ele>
        <time>2022-09-18T09:20:40.000Z</time>
      </trkpt>
      <trkpt lat="49.87016" lon="4.7705">
        <ele>308</ele>
        <time>2022-09-18T09:20:41.000Z</time>
      </trkpt>
      <trkpt lat="49.87015" lon="4.77052">
        <ele>308</ele>
        <time>2022-09-18T09:20:42.000Z</time>
      </trkpt>
      <trkpt lat="49.87014" lon="4.77054">
        <ele>308</ele>
        <time>2022-09-18T09:20:43.000Z</time>
      </trkpt>
      <trkpt lat="49.87013" lon="4.77057">
        <ele>308</ele>
        <time>2022-09-18T09:20:44.000Z</time>
      </trkpt>
      <trkpt lat="49.87011" lon="4.77059">
        <ele>308</ele>
        <time>2022-09-18T09:20:45.000Z</time>
      </trkpt>
      <trkpt lat="49.8701" lon="4.77062">
        <ele>308</ele>
        <time>2022-09-18T09:20:46.000Z</time>
      </trkpt>
      <trkpt lat="49.87008" lon="4.77065">
        <ele>307</ele>
        <time>2022-09-18T09:20:47.000Z</time>
      </trkpt>
      <trkpt lat="49.87007" lon="4.77068">
        <ele>307</ele>
        <time>2022-09-18T09:20:48.000Z</time>
      </trkpt>
      <trkpt lat="49.87006" lon="4.77072">
        <ele>307</ele>
        <time>2022-09-18T09:20:49.000Z</time>
      </trkpt>
      <trkpt lat="49.87004" lon="4.77075">
        <ele>307</ele>
        <time>2022-09-18T09:20:50.000Z</time>
      </trkpt>
      <trkpt lat="49.87002" lon="4.77078">
        <ele>306</ele>
        <time>2022-09-18T09:20:51.000Z</time>
      </trkpt>
      <trkpt lat="49.87" lon="4.7708">
        <ele>306</ele>
        <time>2022-09-18T09:20:52.000Z</time>
      </trkpt>
      <trkpt lat="49.86998" lon="4.77081">
        <ele>306</ele>
        <time>2022-09-18T09:20:53.000Z</time>
      </trkpt>
      <trkpt lat="49.86997" lon="4.77083">
        <ele>305</ele>
        <time>2022-09-18T09:20:54.000Z</time>
      </trkpt>
      <trkpt lat="49.86996" lon="4.77086">
        <ele>305</ele>
        <time>2022-09-18T09:20:55.000Z</time>
      </trkpt>
      <trkpt lat="49.86995" lon="4.77089">
        <ele>305</ele>
        <time>2022-09-18T09:20:56.000Z</time>
      </trkpt>
      <trkpt lat="49.86994" lon="4.77092">
        <ele>305</ele>
        <time>2022-09-18T09:20:57.000Z</time>
      </trkpt>
      <trkpt lat="49.86993" lon="4.77095">
        <ele>305</ele>
        <time>2022-09-18T09:20:58.000Z</time>
      </trkpt>
      <trkpt lat="49.86991" lon="4.77098">
        <ele>305</ele>
        <time>2022-09-18T09:20:59.000Z</time>
      </trkpt>
      <trkpt lat="49.8699" lon="4.77101">
        <ele>305</ele>
        <time>2022-09-18T09:21:00.000Z</time>
      </trkpt>
      <trkpt lat="49.86987" lon="4.77104">
        <ele>305</ele>
        <time>2022-09-18T09:21:01.000Z</time>
      </trkpt>
      <trkpt lat="49.86986" lon="4.77107">
        <ele>305</ele>
        <time>2022-09-18T09:21:02.000Z</time>
      </trkpt>
      <trkpt lat="49.86984" lon="4.77111">
        <ele>304</ele>
        <time>2022-09-18T09:21:03.000Z</time>
      </trkpt>
      <trkpt lat="49.86982" lon="4.77115">
        <ele>304</ele>
        <time>2022-09-18T09:21:04.000Z</time>
      </trkpt>
      <trkpt lat="49.8698" lon="4.77118">
        <ele>304</ele>
        <time>2022-09-18T09:21:05.000Z</time>
      </trkpt>
      <trkpt lat="49.86978" lon="4.77122">
        <ele>304</ele>
        <time>2022-09-18T09:21:06.000Z</time>
      </trkpt>
      <trkpt lat="49.86976" lon="4.77125">
        <ele>304</ele>
        <time>2022-09-18T09:21:07.000Z</time>
      </trkpt>
      <trkpt lat="49.86974" lon="4.77128">
        <ele>304</ele>
        <time>2022-09-18T09:21:08.000Z</time>
      </trkpt>
      <trkpt lat="49.86972" lon="4.77132">
        <ele>304</ele>
        <time>2022-09-18T09:21:09.000Z</time>
      </trkpt>
      <trkpt lat="49.8697" lon="4.77135">
        <ele>304</ele>
        <time>2022-09-18T09:21:10.000Z</time>
      </trkpt>
      <trkpt lat="49.86968" lon="4.77139">
        <ele>304</ele>
        <time>2022-09-18T09:21:11.000Z</time>
      </trkpt>
      <trkpt lat="49.86967" lon="4.77143">
        <ele>304</ele>
        <time>2022-09-18T09:21:12.000Z</time>
      </trkpt>
      <trkpt lat="49.86965" lon="4.77146">
        <ele>304</ele>
        <time>2022-09-18T09:21:13.000Z</time>
      </trkpt>
      <trkpt lat="49.86964" lon="4.7715">
        <ele>304</ele>
        <time>2022-09-18T09:21:14.000Z</time>
      </trkpt>
      <trkpt lat="49.86963" lon="4.77153">
        <ele>304</ele>
        <time>2022-09-18T09:21:15.000Z</time>
      </trkpt>
      <trkpt lat="49.86961" lon="4.77157">
        <ele>304</ele>
        <time>2022-09-18T09:21:16.000Z</time>
      </trkpt>
      <trkpt lat="49.86959" lon="4.7716">
        <ele>304</ele>
        <time>2022-09-18T09:21:17.000Z</time>
      </trkpt>
      <trkpt lat="49.86958" lon="4.77163">
        <ele>304</ele>
        <time>2022-09-18T09:21:18.000Z</time>
      </trkpt>
      <trkpt lat="49.86956" lon="4.77166">
        <ele>304</ele>
        <time>2022-09-18T09:21:19.000Z</time>
      </trkpt>
      <trkpt lat="49.86955" lon="4.77169">
        <ele>304</ele>
        <time>2022-09-18T09:21:20.000Z</time>
      </trkpt>
      <trkpt lat="49.86953" lon="4.77173">
        <ele>304</ele>
        <time>2022-09-18T09:21:21.000Z</time>
      </trkpt>
      <trkpt lat="49.86952" lon="4.77176">
        <ele>305</ele>
        <time>2022-09-18T09:21:22.000Z</time>
      </trkpt>
      <trkpt lat="49.8695" lon="4.77179">
        <ele>305</ele>
        <time>2022-09-18T09:21:23.000Z</time>
      </trkpt>
      <trkpt lat="49.86949" lon="4.77182">
        <ele>305</ele>
        <time>2022-09-18T09:21:24.000Z</time>
      </trkpt>
      <trkpt lat="49.86948" lon="4.77185">
        <ele>306</ele>
        <time>2022-09-18T09:21:25.000Z</time>
      </trkpt>
      <trkpt lat="49.86947" lon="4.77188">
        <ele>306</ele>
        <time>2022-09-18T09:21:26.000Z</time>
      </trkpt>
      <trkpt lat="49.86946" lon="4.77192">
        <ele>306</ele>
        <time>2022-09-18T09:21:27.000Z</time>
      </trkpt>
      <trkpt lat="49.86945" lon="4.77195">
        <ele>306</ele>
        <time>2022-09-18T09:21:28.000Z</time>
      </trkpt>
      <trkpt lat="49.86944" lon="4.77199">
        <ele>307</ele>
        <time>2022-09-18T09:21:29.000Z</time>
      </trkpt>
      <trkpt lat="49.86944" lon="4.77202">
        <ele>307</ele>
        <time>2022-09-18T09:21:30.000Z</time>
      </trkpt>
      <trkpt lat="49.86943" lon="4.77206">
        <ele>307</ele>
        <time>2022-09-18T09:21:31.000Z</time>
      </trkpt>
      <trkpt lat="49.86943" lon="4.77209">
        <ele>308</ele>
        <time>2022-09-18T09:21:32.000Z</time>
      </trkpt>
      <trkpt lat="49.86942" lon="4.77212">
        <ele>308</ele>
        <time>2022-09-18T09:21:33.000Z</time>
      </trkpt>
      <trkpt lat="49.86941" lon="4.77215">
        <ele>308</ele>
        <time>2022-09-18T09:21:34.000Z</time>
      </trkpt>
      <trkpt lat="49.8694" lon="4.77218">
        <ele>309</ele>
        <time>2022-09-18T09:21:35.000Z</time>
      </trkpt>
      <trkpt lat="49.8694" lon="4.77221">
        <ele>309</ele>
        <time>2022-09-18T09:21:36.000Z</time>
      </trkpt>
      <trkpt lat="49.86939" lon="4.77224">
        <ele>309</ele>
        <time>2022-09-18T09:21:37.000Z</time>
      </trkpt>
      <trkpt lat="49.86938" lon="4.77227">
        <ele>310</ele>
        <time>2022-09-18T09:21:38.000Z</time>
      </trkpt>
      <trkpt lat="49.86938" lon="4.7723">
        <ele>310</ele>
        <time>2022-09-18T09:21:39.000Z</time>
      </trkpt>
      <trkpt lat="49.86937" lon="4.77233">
        <ele>310</ele>
        <time>2022-09-18T09:21:40.000Z</time>
      </trkpt>
      <trkpt lat="49.86936" lon="4.77237">
        <ele>311</ele>
        <time>2022-09-18T09:21:41.000Z</time>
      </trkpt>
      <trkpt lat="49.86935" lon="4.7724">
        <ele>311</ele>
        <time>2022-09-18T09:21:42.000Z</time>
      </trkpt>
      <trkpt lat="49.86935" lon="4.77243">
        <ele>311</ele>
        <time>2022-09-18T09:21:43.000Z</time>
      </trkpt>
      <trkpt lat="49.86934" lon="4.77246">
        <ele>312</ele>
        <time>2022-09-18T09:21:44.000Z</time>
      </trkpt>
      <trkpt lat="49.86933" lon="4.77249">
        <ele>312</ele>
        <time>2022-09-18T09:21:45.000Z</time>
      </trkpt>
      <trkpt lat="49.86932" lon="4.77253">
        <ele>312</ele>
        <time>2022-09-18T09:21:46.000Z</time>
      </trkpt>
      <trkpt lat="49.86931" lon="4.77256">
        <ele>312</ele>
        <time>2022-09-18T09:21:47.000Z</time>
      </trkpt>
      <trkpt lat="49.8693" lon="4.7726">
        <ele>313</ele>
        <time>2022-09-18T09:21:48.000Z</time>
      </trkpt>
      <trkpt lat="49.8693" lon="4.77264">
        <ele>313</ele>
        <time>2022-09-18T09:21:49.000Z</time>
      </trkpt>
      <trkpt lat="49.86929" lon="4.77266">
        <ele>313</ele>
        <time>2022-09-18T09:21:50.000Z</time>
      </trkpt>
      <trkpt lat="49.86928" lon="4.7727">
        <ele>314</ele>
        <time>2022-09-18T09:21:51.000Z</time>
      </trkpt>
      <trkpt lat="49.86927" lon="4.77273">
        <ele>314</ele>
        <time>2022-09-18T09:21:52.000Z</time>
      </trkpt>
      <trkpt lat="49.86925" lon="4.77276">
        <ele>314</ele>
        <time>2022-09-18T09:21:53.000Z</time>
      </trkpt>
      <trkpt lat="49.86924" lon="4.77279">
        <ele>315</ele>
        <time>2022-09-18T09:21:54.000Z</time>
      </trkpt>
      <trkpt lat="49.86923" lon="4.77281">
        <ele>315</ele>
        <time>2022-09-18T09:21:55.000Z</time>
      </trkpt>
      <trkpt lat="49.86922" lon="4.77283">
        <ele>315</ele>
        <time>2022-09-18T09:21:56.000Z</time>
      </trkpt>
      <trkpt lat="49.8692" lon="4.77285">
        <ele>316</ele>
        <time>2022-09-18T09:21:57.000Z</time>
      </trkpt>
      <trkpt lat="49.86919" lon="4.77287">
        <ele>316</ele>
        <time>2022-09-18T09:21:58.000Z</time>
      </trkpt>
      <trkpt lat="49.86917" lon="4.77289">
        <ele>317</ele>
        <time>2022-09-18T09:21:59.000Z</time>
      </trkpt>
      <trkpt lat="49.86916" lon="4.7729">
        <ele>317</ele>
        <time>2022-09-18T09:22:00.000Z</time>
      </trkpt>
      <trkpt lat="49.86915" lon="4.77292">
        <ele>317</ele>
        <time>2022-09-18T09:22:01.000Z</time>
      </trkpt>
      <trkpt lat="49.86914" lon="4.77294">
        <ele>318</ele>
        <time>2022-09-18T09:22:02.000Z</time>
      </trkpt>
      <trkpt lat="49.86913" lon="4.77296">
        <ele>318</ele>
        <time>2022-09-18T09:22:03.000Z</time>
      </trkpt>
      <trkpt lat="49.86912" lon="4.77298">
        <ele>318</ele>
        <time>2022-09-18T09:22:04.000Z</time>
      </trkpt>
      <trkpt lat="49.86911" lon="4.773">
        <ele>318</ele>
        <time>2022-09-18T09:22:05.000Z</time>
      </trkpt>
      <trkpt lat="49.8691" lon="4.77303">
        <ele>318</ele>
        <time>2022-09-18T09:22:06.000Z</time>
      </trkpt>
      <trkpt lat="49.86908" lon="4.77306">
        <ele>318</ele>
        <time>2022-09-18T09:22:07.000Z</time>
      </trkpt>
      <trkpt lat="49.86906" lon="4.77309">
        <ele>319</ele>
        <time>2022-09-18T09:22:08.000Z</time>
      </trkpt>
      <trkpt lat="49.86904" lon="4.77313">
        <ele>319</ele>
        <time>2022-09-18T09:22:09.000Z</time>
      </trkpt>
      <trkpt lat="49.86903" lon="4.77317">
        <ele>319</ele>
        <time>2022-09-18T09:22:10.000Z</time>
      </trkpt>
      <trkpt lat="49.86901" lon="4.77321">
        <ele>319</ele>
        <time>2022-09-18T09:22:11.000Z</time>
      </trkpt>
      <trkpt lat="49.86901" lon="4.77325">
        <ele>319</ele>
        <time>2022-09-18T09:22:12.000Z</time>
      </trkpt>
      <trkpt lat="49.869" lon="4.7733">
        <ele>319</ele>
        <time>2022-09-18T09:22:13.000Z</time>
      </trkpt>
      <trkpt lat="49.869" lon="4.77335">
        <ele>319</ele>
        <time>2022-09-18T09:22:14.000Z</time>
      </trkpt>
      <trkpt lat="49.869" lon="4.7734">
        <ele>319</ele>
        <time>2022-09-18T09:22:15.000Z</time>
      </trkpt>
      <trkpt lat="49.86899" lon="4.77345">
        <ele>319</ele>
        <time>2022-09-18T09:22:16.000Z</time>
      </trkpt>
      <trkpt lat="49.86899" lon="4.7735">
        <ele>319</ele>
        <time>2022-09-18T09:22:17.000Z</time>
      </trkpt>
      <trkpt lat="49.86898" lon="4.77356">
        <ele>319</ele>
        <time>2022-09-18T09:22:18.000Z</time>
      </trkpt>
      <trkpt lat="49.86898" lon="4.77361">
        <ele>320</ele>
        <time>2022-09-18T09:22:19.000Z</time>
      </trkpt>
      <trkpt lat="49.86897" lon="4.77366">
        <ele>320</ele>
        <time>2022-09-18T09:22:20.000Z</time>
      </trkpt>
      <trkpt lat="49.86896" lon="4.77372">
        <ele>320</ele>
        <time>2022-09-18T09:22:21.000Z</time>
      </trkpt>
      <trkpt lat="49.86896" lon="4.77377">
        <ele>320</ele>
        <time>2022-09-18T09:22:22.000Z</time>
      </trkpt>
      <trkpt lat="49.86896" lon="4.77382">
        <ele>320</ele>
        <time>2022-09-18T09:22:23.000Z</time>
      </trkpt>
      <trkpt lat="49.86895" lon="4.77387">
        <ele>320</ele>
        <time>2022-09-18T09:22:24.000Z</time>
      </trkpt>
      <trkpt lat="49.86895" lon="4.77392">
        <ele>320</ele>
        <time>2022-09-18T09:22:25.000Z</time>
      </trkpt>
      <trkpt lat="49.86895" lon="4.77397">
        <ele>320</ele>
        <time>2022-09-18T09:22:26.000Z</time>
      </trkpt>
      <trkpt lat="49.86894" lon="4.77402">
        <ele>320</ele>
        <time>2022-09-18T09:22:27.000Z</time>
      </trkpt>
      <trkpt lat="49.86894" lon="4.77406">
        <ele>320</ele>
        <time>2022-09-18T09:22:28.000Z</time>
      </trkpt>
      <trkpt lat="49.86894" lon="4.77411">
        <ele>320</ele>
        <time>2022-09-18T09:22:29.000Z</time>
      </trkpt>
      <trkpt lat="49.86894" lon="4.77416">
        <ele>320</ele>
        <time>2022-09-18T09:22:30.000Z</time>
      </trkpt>
      <trkpt lat="49.86894" lon="4.77419">
        <ele>320</ele>
        <time>2022-09-18T09:22:31.000Z</time>
      </trkpt>
      <trkpt lat="49.86894" lon="4.77424">
        <ele>320</ele>
        <time>2022-09-18T09:22:32.000Z</time>
      </trkpt>
      <trkpt lat="49.86895" lon="4.77428">
        <ele>320</ele>
        <time>2022-09-18T09:22:33.000Z</time>
      </trkpt>
      <trkpt lat="49.86895" lon="4.77433">
        <ele>320</ele>
        <time>2022-09-18T09:22:34.000Z</time>
      </trkpt>
      <trkpt lat="49.86896" lon="4.77438">
        <ele>320</ele>
        <time>2022-09-18T09:22:35.000Z</time>
      </trkpt>
      <trkpt lat="49.86896" lon="4.77443">
        <ele>320</ele>
        <time>2022-09-18T09:22:36.000Z</time>
      </trkpt>
      <trkpt lat="49.86897" lon="4.77448">
        <ele>320</ele>
        <time>2022-09-18T09:22:37.000Z</time>
      </trkpt>
      <trkpt lat="49.86898" lon="4.77453">
        <ele>320</ele>
        <time>2022-09-18T09:22:38.000Z</time>
      </trkpt>
      <trkpt lat="49.86898" lon="4.77458">
        <ele>320</ele>
        <time>2022-09-18T09:22:39.000Z</time>
      </trkpt>
      <trkpt lat="49.86898" lon="4.77463">
        <ele>320</ele>
        <time>2022-09-18T09:22:40.000Z</time>
      </trkpt>
      <trkpt lat="49.86899" lon="4.77468">
        <ele>320</ele>
        <time>2022-09-18T09:22:41.000Z</time>
      </trkpt>
      <trkpt lat="49.869" lon="4.77473">
        <ele>320</ele>
        <time>2022-09-18T09:22:42.000Z</time>
      </trkpt>
      <trkpt lat="49.869" lon="4.77478">
        <ele>320</ele>
        <time>2022-09-18T09:22:43.000Z</time>
      </trkpt>
      <trkpt lat="49.86901" lon="4.77482">
        <ele>320</ele>
        <time>2022-09-18T09:22:44.000Z</time>
      </trkpt>
      <trkpt lat="49.86901" lon="4.77486">
        <ele>320</ele>
        <time>2022-09-18T09:22:45.000Z</time>
      </trkpt>
      <trkpt lat="49.86902" lon="4.77491">
        <ele>320</ele>
        <time>2022-09-18T09:22:46.000Z</time>
      </trkpt>
      <trkpt lat="49.86904" lon="4.77496">
        <ele>320</ele>
        <time>2022-09-18T09:22:47.000Z</time>
      </trkpt>
      <trkpt lat="49.86906" lon="4.775">
        <ele>320</ele>
        <time>2022-09-18T09:22:48.000Z</time>
      </trkpt>
      <trkpt lat="49.86907" lon="4.77505">
        <ele>320</ele>
        <time>2022-09-18T09:22:49.000Z</time>
      </trkpt>
      <trkpt lat="49.86908" lon="4.77509">
        <ele>320</ele>
        <time>2022-09-18T09:22:50.000Z</time>
      </trkpt>
      <trkpt lat="49.86909" lon="4.77512">
        <ele>320</ele>
        <time>2022-09-18T09:22:51.000Z</time>
      </trkpt>
      <trkpt lat="49.8691" lon="4.77515">
        <ele>321</ele>
        <time>2022-09-18T09:22:52.000Z</time>
      </trkpt>
      <trkpt lat="49.86911" lon="4.77517">
        <ele>321</ele>
        <time>2022-09-18T09:22:53.000Z</time>
      </trkpt>
      <trkpt lat="49.86912" lon="4.77518">
        <ele>321</ele>
        <time>2022-09-18T09:22:54.000Z</time>
      </trkpt>
      <trkpt lat="49.86912" lon="4.77519">
        <ele>321</ele>
        <time>2022-09-18T09:22:55.000Z</time>
      </trkpt>
      <trkpt lat="49.86912" lon="4.77519">
        <ele>322</ele>
        <time>2022-09-18T09:22:56.000Z</time>
      </trkpt>
      <trkpt lat="49.86912" lon="4.7752">
        <ele>322</ele>
        <time>2022-09-18T09:22:57.000Z</time>
      </trkpt>
      <trkpt lat="49.86912" lon="4.7752">
        <ele>322</ele>
        <time>2022-09-18T09:22:58.000Z</time>
      </trkpt>
      <trkpt lat="49.86912" lon="4.7752">
        <ele>322</ele>
        <time>2022-09-18T09:22:59.000Z</time>
      </trkpt>
      <trkpt lat="49.86912" lon="4.7752">
        <ele>323</ele>
        <time>2022-09-18T09:23:00.000Z</time>
      </trkpt>
      <trkpt lat="49.86913" lon="4.77521">
        <ele>323</ele>
        <time>2022-09-18T09:23:01.000Z</time>
      </trkpt>
      <trkpt lat="49.86913" lon="4.77521">
        <ele>323</ele>
        <time>2022-09-18T09:23:02.000Z</time>
      </trkpt>
      <trkpt lat="49.86913" lon="4.77521">
        <ele>323</ele>
        <time>2022-09-18T09:23:03.000Z</time>
      </trkpt>
      <trkpt lat="49.86913" lon="4.77521">
        <ele>323</ele>
        <time>2022-09-18T09:23:04.000Z</time>
      </trkpt>
      <trkpt lat="49.86913" lon="4.77521">
        <ele>324</ele>
        <time>2022-09-18T09:23:05.000Z</time>
      </trkpt>
      <trkpt lat="49.86913" lon="4.77521">
        <ele>324</ele>
        <time>2022-09-18T09:23:06.000Z</time>
      </trkpt>
      <trkpt lat="49.86913" lon="4.77521">
        <ele>324</ele>
        <time>2022-09-18T09:23:07.000Z</time>
      </trkpt>
      <trkpt lat="49.86913" lon="4.77522">
        <ele>324</ele>
        <time>2022-09-18T09:23:08.000Z</time>
      </trkpt>
      <trkpt lat="49.86913" lon="4.77522">
        <ele>324</ele>
        <time>2022-09-18T09:23:09.000Z</time>
      </trkpt>
      <trkpt lat="49.86913" lon="4.77522">
        <ele>324</ele>
        <time>2022-09-18T09:23:10.000Z</time>
      </trkpt>
      <trkpt lat="49.86913" lon="4.77522">
        <ele>325</ele>
        <time>2022-09-18T09:23:11.000Z</time>
      </trkpt>
      <trkpt lat="49.86913" lon="4.77522">
        <ele>325</ele>
        <time>2022-09-18T09:23:12.000Z</time>
      </trkpt>
      <trkpt lat="49.86914" lon="4.77522">
        <ele>325</ele>
        <time>2022-09-18T09:23:13.000Z</time>
      </trkpt>
      <trkpt lat="49.86914" lon="4.77523">
        <ele>325</ele>
        <time>2022-09-18T09:23:14.000Z</time>
      </trkpt>
      <trkpt lat="49.86914" lon="4.77523">
        <ele>325</ele>
        <time>2022-09-18T09:23:15.000Z</time>
      </trkpt>
      <trkpt lat="49.86914" lon="4.77523">
        <ele>325</ele>
        <time>2022-09-18T09:23:16.000Z</time>
      </trkpt>
      <trkpt lat="49.86914" lon="4.77523">
        <ele>326</ele>
        <time>2022-09-18T09:23:17.000Z</time>
      </trkpt>
      <trkpt lat="49.86914" lon="4.77523">
        <ele>326</ele>
        <time>2022-09-18T09:23:18.000Z</time>
      </trkpt>
      <trkpt lat="49.86914" lon="4.77523">
        <ele>326</ele>
        <time>2022-09-18T09:23:19.000Z</time>
      </trkpt>
      <trkpt lat="49.86914" lon="4.77523">
        <ele>326</ele>
        <time>2022-09-18T09:23:20.000Z</time>
      </trkpt>
      <trkpt lat="49.86914" lon="4.77523">
        <ele>326</ele>
        <time>2022-09-18T09:23:21.000Z</time>
      </trkpt>
      <trkpt lat="49.86914" lon="4.77523">
        <ele>326</ele>
        <time>2022-09-18T09:23:22.000Z</time>
      </trkpt>
      <trkpt lat="49.86914" lon="4.77523">
        <ele>326</ele>
        <time>2022-09-18T09:23:23.000Z</time>
      </trkpt>
      <trkpt lat="49.86914" lon="4.77523">
        <ele>326</ele>
        <time>2022-09-18T09:23:24.000Z</time>
      </trkpt>
      <trkpt lat="49.86914" lon="4.77523">
        <ele>326</ele>
        <time>2022-09-18T09:23:25.000Z</time>
      </trkpt>
      <trkpt lat="49.86914" lon="4.77523">
        <ele>326</ele>
        <time>2022-09-18T09:23:26.000Z</time>
      </trkpt>
      <trkpt lat="49.86914" lon="4.77523">
        <ele>326</ele>
        <time>2022-09-18T09:23:27.000Z</time>
      </trkpt>
      <trkpt lat="49.86914" lon="4.77523">
        <ele>326</ele>
        <time>2022-09-18T09:23:28.000Z</time>
      </trkpt>
      <trkpt lat="49.86914" lon="4.77523">
        <ele>326</ele>
        <time>2022-09-18T09:23:29.000Z</time>
      </trkpt>
      <trkpt lat="49.86914" lon="4.77523">
        <ele>327</ele>
        <time>2022-09-18T09:23:30.000Z</time>
      </trkpt>
      <trkpt lat="49.86914" lon="4.77523">
        <ele>327</ele>
        <time>2022-09-18T09:23:31.000Z</time>
      </trkpt>
      <trkpt lat="49.86914" lon="4.77523">
        <ele>327</ele>
        <time>2022-09-18T09:23:32.000Z</time>
      </trkpt>
      <trkpt lat="49.86914" lon="4.77523">
        <ele>327</ele>
        <time>2022-09-18T09:23:33.000Z</time>
      </trkpt>
      <trkpt lat="49.86914" lon="4.77523">
        <ele>327</ele>
        <time>2022-09-18T09:23:34.000Z</time>
      </trkpt>
      <trkpt lat="49.86914" lon="4.77523">
        <ele>327</ele>
        <time>2022-09-18T09:23:35.000Z</time>
      </trkpt>
      <trkpt lat="49.86914" lon="4.77523">
        <ele>327</ele>
        <time>2022-09-18T09:23:36.000Z</time>
      </trkpt>
      <trkpt lat="49.86914" lon="4.77523">
        <ele>327</ele>
        <time>2022-09-18T09:23:37.000Z</time>
      </trkpt>
      <trkpt lat="49.86914" lon="4.77522">
        <ele>327</ele>
        <time>2022-09-18T09:23:38.000Z</time>
      </trkpt>
      <trkpt lat="49.86914" lon="4.77522">
        <ele>327</ele>
        <time>2022-09-18T09:23:39.000Z</time>
      </trkpt>
      <trkpt lat="49.86914" lon="4.77522">
        <ele>327</ele>
        <time>2022-09-18T09:23:40.000Z</time>
      </trkpt>
      <trkpt lat="49.86914" lon="4.77522">
        <ele>327</ele>
        <time>2022-09-18T09:23:41.000Z</time>
      </trkpt>
      <trkpt lat="49.86914" lon="4.77523">
        <ele>327</ele>
        <time>2022-09-18T09:23:42.000Z</time>
      </trkpt>
      <trkpt lat="49.86914" lon="4.77523">
        <ele>327</ele>
        <time>2022-09-18T09:23:43.000Z</time>
      </trkpt>
      <trkpt lat="49.86914" lon="4.77523">
        <ele>327</ele>
        <time>2022-09-18T09:23:44.000Z</time>
      </trkpt>
      <trkpt lat="49.86914" lon="4.77523">
        <ele>327</ele>
        <time>2022-09-18T09:23:45.000Z</time>
      </trkpt>
      <trkpt lat="49.86914" lon="4.77523">
        <ele>327</ele>
        <time>2022-09-18T09:23:46.000Z</time>
      </trkpt>
      <trkpt lat="49.86914" lon="4.77523">
        <ele>327</ele>
        <time>2022-09-18T09:23:47.000Z</time>
      </trkpt>
      <trkpt lat="49.86914" lon="4.77523">
        <ele>327</ele>
        <time>2022-09-18T09:23:48.000Z</time>
      </trkpt>
      <trkpt lat="49.86914" lon="4.77523">
        <ele>327</ele>
        <time>2022-09-18T09:23:49.000Z</time>
      </trkpt>
      <trkpt lat="49.86914" lon="4.77523">
        <ele>327</ele>
        <time>2022-09-18T09:23:50.000Z</time>
      </trkpt>
      <trkpt lat="49.86914" lon="4.77522">
        <ele>327</ele>
        <time>2022-09-18T09:23:51.000Z</time>
      </trkpt>
      <trkpt lat="49.86914" lon="4.77522">
        <ele>327</ele>
        <time>2022-09-18T09:23:52.000Z</time>
      </trkpt>
      <trkpt lat="49.86914" lon="4.77522">
        <ele>327</ele>
        <time>2022-09-18T09:23:53.000Z</time>
      </trkpt>
      <trkpt lat="49.86914" lon="4.77522">
        <ele>327</ele>
        <time>2022-09-18T09:23:54.000Z</time>
      </trkpt>
      <trkpt lat="49.86914" lon="4.77522">
        <ele>327</ele>
        <time>2022-09-18T09:23:55.000Z</time>
      </trkpt>
      <trkpt lat="49.86914" lon="4.77522">
        <ele>327</ele>
        <time>2022-09-18T09:23:56.000Z</time>
      </trkpt>
      <trkpt lat="49.86914" lon="4.77522">
        <ele>327</ele>
        <time>2022-09-18T09:23:57.000Z</time>
      </trkpt>
      <trkpt lat="49.86914" lon="4.77522">
        <ele>327</ele>
        <time>2022-09-18T09:23:58.000Z</time>
      </trkpt>
      <trkpt lat="49.86914" lon="4.77522">
        <ele>327</ele>
        <time>2022-09-18T09:23:59.000Z</time>
      </trkpt>
      <trkpt lat="49.86914" lon="4.77522">
        <ele>327</ele>
        <time>2022-09-18T09:24:00.000Z</time>
      </trkpt>
      <trkpt lat="49.86914" lon="4.77522">
        <ele>327</ele>
        <time>2022-09-18T09:24:01.000Z</time>
      </trkpt>
      <trkpt lat="49.86914" lon="4.77522">
        <ele>328</ele>
        <time>2022-09-18T09:24:02.000Z</time>
      </trkpt>
      <trkpt lat="49.86914" lon="4.77523">
        <ele>328</ele>
        <time>2022-09-18T09:24:03.000Z</time>
      </trkpt>
      <trkpt lat="49.86914" lon="4.77523">
        <ele>328</ele>
        <time>2022-09-18T09:24:04.000Z</time>
      </trkpt>
      <trkpt lat="49.86914" lon="4.77523">
        <ele>328</ele>
        <time>2022-09-18T09:24:05.000Z</time>
      </trkpt>
      <trkpt lat="49.86914" lon="4.77523">
        <ele>328</ele>
        <time>2022-09-18T09:24:06.000Z</time>
      </trkpt>
      <trkpt lat="49.86914" lon="4.77523">
        <ele>328</ele>
        <time>2022-09-18T09:24:07.000Z</time>
      </trkpt>
      <trkpt lat="49.86914" lon="4.77524">
        <ele>328</ele>
        <time>2022-09-18T09:24:08.000Z</time>
      </trkpt>
      <trkpt lat="49.86914" lon="4.77524">
        <ele>328</ele>
        <time>2022-09-18T09:24:09.000Z</time>
      </trkpt>
      <trkpt lat="49.86915" lon="4.77524">
        <ele>328</ele>
        <time>2022-09-18T09:24:10.000Z</time>
      </trkpt>
      <trkpt lat="49.86915" lon="4.77524">
        <ele>328</ele>
        <time>2022-09-18T09:24:11.000Z</time>
      </trkpt>
      <trkpt lat="49.86915" lon="4.77524">
        <ele>328</ele>
        <time>2022-09-18T09:24:12.000Z</time>
      </trkpt>
      <trkpt lat="49.86915" lon="4.77524">
        <ele>328</ele>
        <time>2022-09-18T09:24:13.000Z</time>
      </trkpt>
      <trkpt lat="49.86915" lon="4.77525">
        <ele>328</ele>
        <time>2022-09-18T09:24:14.000Z</time>
      </trkpt>
      <trkpt lat="49.86915" lon="4.77525">
        <ele>328</ele>
        <time>2022-09-18T09:24:15.000Z</time>
      </trkpt>
      <trkpt lat="49.86915" lon="4.77525">
        <ele>328</ele>
        <time>2022-09-18T09:24:16.000Z</time>
      </trkpt>
      <trkpt lat="49.86915" lon="4.77525">
        <ele>328</ele>
        <time>2022-09-18T09:24:17.000Z</time>
      </trkpt>
      <trkpt lat="49.86915" lon="4.77525">
        <ele>328</ele>
        <time>2022-09-18T09:24:18.000Z</time>
      </trkpt>
      <trkpt lat="49.86915" lon="4.77525">
        <ele>328</ele>
        <time>2022-09-18T09:24:19.000Z</time>
      </trkpt>
      <trkpt lat="49.86915" lon="4.77525">
        <ele>328</ele>
        <time>2022-09-18T09:24:20.000Z</time>
      </trkpt>
      <trkpt lat="49.86915" lon="4.77525">
        <ele>328</ele>
        <time>2022-09-18T09:24:21.000Z</time>
      </trkpt>
      <trkpt lat="49.86915" lon="4.77525">
        <ele>328</ele>
        <time>2022-09-18T09:24:22.000Z</time>
      </trkpt>
      <trkpt lat="49.86915" lon="4.77525">
        <ele>328</ele>
        <time>2022-09-18T09:24:23.000Z</time>
      </trkpt>
      <trkpt lat="49.86915" lon="4.77525">
        <ele>328</ele>
        <time>2022-09-18T09:24:24.000Z</time>
      </trkpt>
      <trkpt lat="49.86915" lon="4.77525">
        <ele>328</ele>
        <time>2022-09-18T09:24:25.000Z</time>
      </trkpt>
      <trkpt lat="49.86915" lon="4.77525">
        <ele>328</ele>
        <time>2022-09-18T09:24:26.000Z</time>
      </trkpt>
      <trkpt lat="49.86915" lon="4.77525">
        <ele>328</ele>
        <time>2022-09-18T09:24:27.000Z</time>
      </trkpt>
      <trkpt lat="49.86915" lon="4.77525">
        <ele>329</ele>
        <time>2022-09-18T09:24:28.000Z</time>
      </trkpt>
      <trkpt lat="49.86915" lon="4.77525">
        <ele>329</ele>
        <time>2022-09-18T09:24:29.000Z</time>
      </trkpt>
      <trkpt lat="49.86915" lon="4.77525">
        <ele>329</ele>
        <time>2022-09-18T09:24:30.000Z</time>
      </trkpt>
      <trkpt lat="49.86915" lon="4.77525">
        <ele>329</ele>
        <time>2022-09-18T09:24:31.000Z</time>
      </trkpt>
      <trkpt lat="49.86915" lon="4.77525">
        <ele>329</ele>
        <time>2022-09-18T09:24:32.000Z</time>
      </trkpt>
      <trkpt lat="49.86915" lon="4.77525">
        <ele>329</ele>
        <time>2022-09-18T09:24:33.000Z</time>
      </trkpt>
      <trkpt lat="49.86915" lon="4.77525">
        <ele>329</ele>
        <time>2022-09-18T09:24:34.000Z</time>
      </trkpt>
      <trkpt lat="49.86915" lon="4.77525">
        <ele>329</ele>
        <time>2022-09-18T09:24:35.000Z</time>
      </trkpt>
      <trkpt lat="49.86915" lon="4.77525">
        <ele>329</ele>
        <time>2022-09-18T09:24:36.000Z</time>
      </trkpt>
      <trkpt lat="49.86915" lon="4.77525">
        <ele>329</ele>
        <time>2022-09-18T09:24:37.000Z</time>
      </trkpt>
      <trkpt lat="49.86915" lon="4.77525">
        <ele>329</ele>
        <time>2022-09-18T09:24:38.000Z</time>
      </trkpt>
      <trkpt lat="49.86915" lon="4.77525">
        <ele>329</ele>
        <time>2022-09-18T09:24:39.000Z</time>
      </trkpt>
      <trkpt lat="49.86915" lon="4.77525">
        <ele>329</ele>
        <time>2022-09-18T09:24:40.000Z</time>
      </trkpt>
      <trkpt lat="49.86916" lon="4.77526">
        <ele>329</ele>
        <time>2022-09-18T09:24:41.000Z</time>
      </trkpt>
      <trkpt lat="49.86916" lon="4.77526">
        <ele>329</ele>
        <time>2022-09-18T09:24:42.000Z</time>
      </trkpt>
      <trkpt lat="49.86916" lon="4.77526">
        <ele>329</ele>
        <time>2022-09-18T09:24:43.000Z</time>
      </trkpt>
      <trkpt lat="49.86916" lon="4.77525">
        <ele>329</ele>
        <time>2022-09-18T09:24:44.000Z</time>
      </trkpt>
      <trkpt lat="49.86916" lon="4.77525">
        <ele>329</ele>
        <time>2022-09-18T09:24:45.000Z</time>
      </trkpt>
      <trkpt lat="49.86916" lon="4.77525">
        <ele>329</ele>
        <time>2022-09-18T09:24:46.000Z</time>
      </trkpt>
      <trkpt lat="49.86916" lon="4.77525">
        <ele>329</ele>
        <time>2022-09-18T09:24:47.000Z</time>
      </trkpt>
      <trkpt lat="49.86916" lon="4.77525">
        <ele>329</ele>
        <time>2022-09-18T09:24:48.000Z</time>
      </trkpt>
      <trkpt lat="49.86916" lon="4.77524">
        <ele>329</ele>
        <time>2022-09-18T09:24:49.000Z</time>
      </trkpt>
      <trkpt lat="49.86916" lon="4.77524">
        <ele>329</ele>
        <time>2022-09-18T09:24:50.000Z</time>
      </trkpt>
      <trkpt lat="49.86916" lon="4.77524">
        <ele>329</ele>
        <time>2022-09-18T09:24:51.000Z</time>
      </trkpt>
      <trkpt lat="49.86916" lon="4.77524">
        <ele>329</ele>
        <time>2022-09-18T09:24:52.000Z</time>
      </trkpt>
      <trkpt lat="49.86916" lon="4.77524">
        <ele>329</ele>
        <time>2022-09-18T09:24:53.000Z</time>
      </trkpt>
      <trkpt lat="49.86916" lon="4.77524">
        <ele>329</ele>
        <time>2022-09-18T09:24:54.000Z</time>
      </trkpt>
      <trkpt lat="49.86916" lon="4.77524">
        <ele>329</ele>
        <time>2022-09-18T09:24:55.000Z</time>
      </trkpt>
      <trkpt lat="49.86916" lon="4.77524">
        <ele>329</ele>
        <time>2022-09-18T09:24:56.000Z</time>
      </trkpt>
      <trkpt lat="49.86916" lon="4.77524">
        <ele>329</ele>
        <time>2022-09-18T09:24:57.000Z</time>
      </trkpt>
      <trkpt lat="49.86916" lon="4.77524">
        <ele>329</ele>
        <time>2022-09-18T09:24:58.000Z</time>
      </trkpt>
      <trkpt lat="49.86916" lon="4.77524">
        <ele>329</ele>
        <time>2022-09-18T09:24:59.000Z</time>
      </trkpt>
      <trkpt lat="49.86916" lon="4.77524">
        <ele>329</ele>
        <time>2022-09-18T09:25:00.000Z</time>
      </trkpt>
      <trkpt lat="49.86916" lon="4.77524">
        <ele>329</ele>
        <time>2022-09-18T09:25:01.000Z</time>
      </trkpt>
      <trkpt lat="49.86916" lon="4.77524">
        <ele>329</ele>
        <time>2022-09-18T09:25:02.000Z</time>
      </trkpt>
      <trkpt lat="49.86916" lon="4.77524">
        <ele>329</ele>
        <time>2022-09-18T09:25:03.000Z</time>
      </trkpt>
      <trkpt lat="49.86916" lon="4.77524">
        <ele>329</ele>
        <time>2022-09-18T09:25:04.000Z</time>
      </trkpt>
      <trkpt lat="49.86916" lon="4.77524">
        <ele>329</ele>
        <time>2022-09-18T09:25:05.000Z</time>
      </trkpt>
      <trkpt lat="49.86916" lon="4.77524">
        <ele>329</ele>
        <time>2022-09-18T09:25:06.000Z</time>
      </trkpt>
      <trkpt lat="49.86916" lon="4.77524">
        <ele>329</ele>
        <time>2022-09-18T09:25:07.000Z</time>
      </trkpt>
      <trkpt lat="49.86916" lon="4.77524">
        <ele>329</ele>
        <time>2022-09-18T09:25:08.000Z</time>
      </trkpt>
      <trkpt lat="49.86916" lon="4.77524">
        <ele>329</ele>
        <time>2022-09-18T09:25:09.000Z</time>
      </trkpt>
      <trkpt lat="49.86916" lon="4.77524">
        <ele>329</ele>
        <time>2022-09-18T09:25:10.000Z</time>
      </trkpt>
      <trkpt lat="49.86916" lon="4.77524">
        <ele>329</ele>
        <time>2022-09-18T09:25:11.000Z</time>
      </trkpt>
      <trkpt lat="49.86916" lon="4.77524">
        <ele>329</ele>
        <time>2022-09-18T09:25:12.000Z</time>
      </trkpt>
      <trkpt lat="49.86916" lon="4.77524">
        <ele>329</ele>
        <time>2022-09-18T09:25:13.000Z</time>
      </trkpt>
      <trkpt lat="49.86916" lon="4.77524">
        <ele>329</ele>
        <time>2022-09-18T09:25:14.000Z</time>
      </trkpt>
      <trkpt lat="49.86916" lon="4.77524">
        <ele>329</ele>
        <time>2022-09-18T09:25:15.000Z</time>
      </trkpt>
      <trkpt lat="49.86916" lon="4.77524">
        <ele>329</ele>
        <time>2022-09-18T09:25:16.000Z</time>
      </trkpt>
      <trkpt lat="49.86916" lon="4.77524">
        <ele>330</ele>
        <time>2022-09-18T09:25:17.000Z</time>
      </trkpt>
      <trkpt lat="49.86916" lon="4.77524">
        <ele>330</ele>
        <time>2022-09-18T09:25:18.000Z</time>
      </trkpt>
      <trkpt lat="49.86916" lon="4.77524">
        <ele>330</ele>
        <time>2022-09-18T09:25:19.000Z</time>
      </trkpt>
      <trkpt lat="49.86916" lon="4.77524">
        <ele>330</ele>
        <time>2022-09-18T09:25:20.000Z</time>
      </trkpt>
      <trkpt lat="49.86915" lon="4.77525">
        <ele>330</ele>
        <time>2022-09-18T09:25:21.000Z</time>
      </trkpt>
      <trkpt lat="49.86915" lon="4.77525">
        <ele>330</ele>
        <time>2022-09-18T09:25:22.000Z</time>
      </trkpt>
      <trkpt lat="49.86915" lon="4.77525">
        <ele>330</ele>
        <time>2022-09-18T09:25:23.000Z</time>
      </trkpt>
      <trkpt lat="49.86915" lon="4.77525">
        <ele>330</ele>
        <time>2022-09-18T09:25:24.000Z</time>
      </trkpt>
      <trkpt lat="49.86915" lon="4.77525">
        <ele>330</ele>
        <time>2022-09-18T09:25:25.000Z</time>
      </trkpt>
      <trkpt lat="49.86915" lon="4.77525">
        <ele>330</ele>
        <time>2022-09-18T09:25:26.000Z</time>
      </trkpt>
      <trkpt lat="49.86915" lon="4.77525">
        <ele>330</ele>
        <time>2022-09-18T09:25:27.000Z</time>
      </trkpt>
      <trkpt lat="49.86915" lon="4.77525">
        <ele>330</ele>
        <time>2022-09-18T09:25:28.000Z</time>
      </trkpt>
      <trkpt lat="49.86915" lon="4.77525">
        <ele>330</ele>
        <time>2022-09-18T09:25:29.000Z</time>
      </trkpt>
      <trkpt lat="49.86915" lon="4.77525">
        <ele>330</ele>
        <time>2022-09-18T09:25:30.000Z</time>
      </trkpt>
      <trkpt lat="49.86915" lon="4.77525">
        <ele>330</ele>
        <time>2022-09-18T09:25:31.000Z</time>
      </trkpt>
      <trkpt lat="49.86915" lon="4.77525">
        <ele>330</ele>
        <time>2022-09-18T09:25:32.000Z</time>
      </trkpt>
      <trkpt lat="49.86915" lon="4.77525">
        <ele>330</ele>
        <time>2022-09-18T09:25:33.000Z</time>
      </trkpt>
      <trkpt lat="49.86915" lon="4.77525">
        <ele>330</ele>
        <time>2022-09-18T09:25:34.000Z</time>
      </trkpt>
      <trkpt lat="49.86915" lon="4.77525">
        <ele>330</ele>
        <time>2022-09-18T09:25:35.000Z</time>
      </trkpt>
      <trkpt lat="49.86915" lon="4.77525">
        <ele>330</ele>
        <time>2022-09-18T09:25:36.000Z</time>
      </trkpt>
      <trkpt lat="49.86915" lon="4.77525">
        <ele>330</ele>
        <time>2022-09-18T09:25:37.000Z</time>
      </trkpt>
      <trkpt lat="49.86915" lon="4.77525">
        <ele>330</ele>
        <time>2022-09-18T09:25:38.000Z</time>
      </trkpt>
      <trkpt lat="49.86915" lon="4.77525">
        <ele>330</ele>
        <time>2022-09-18T09:25:39.000Z</time>
      </trkpt>
      <trkpt lat="49.86915" lon="4.77525">
        <ele>330</ele>
        <time>2022-09-18T09:25:40.000Z</time>
      </trkpt>
      <trkpt lat="49.86916" lon="4.77524">
        <ele>330</ele>
        <time>2022-09-18T09:25:41.000Z</time>
      </trkpt>
      <trkpt lat="49.86916" lon="4.77524">
        <ele>330</ele>
        <time>2022-09-18T09:25:42.000Z</time>
      </trkpt>
      <trkpt lat="49.86916" lon="4.77524">
        <ele>330</ele>
        <time>2022-09-18T09:25:43.000Z</time>
      </trkpt>
      <trkpt lat="49.86916" lon="4.77524">
        <ele>330</ele>
        <time>2022-09-18T09:25:44.000Z</time>
      </trkpt>
      <trkpt lat="49.86916" lon="4.77524">
        <ele>330</ele>
        <time>2022-09-18T09:25:45.000Z</time>
      </trkpt>
      <trkpt lat="49.86916" lon="4.77524">
        <ele>330</ele>
        <time>2022-09-18T09:25:46.000Z</time>
      </trkpt>
      <trkpt lat="49.86916" lon="4.77524">
        <ele>330</ele>
        <time>2022-09-18T09:25:47.000Z</time>
      </trkpt>
      <trkpt lat="49.86916" lon="4.77524">
        <ele>330</ele>
        <time>2022-09-18T09:25:48.000Z</time>
      </trkpt>
      <trkpt lat="49.86916" lon="4.77525">
        <ele>330</ele>
        <time>2022-09-18T09:25:49.000Z</time>
      </trkpt>
      <trkpt lat="49.86916" lon="4.77525">
        <ele>330</ele>
        <time>2022-09-18T09:25:50.000Z</time>
      </trkpt>
      <trkpt lat="49.86916" lon="4.77525">
        <ele>330</ele>
        <time>2022-09-18T09:25:51.000Z</time>
      </trkpt>
      <trkpt lat="49.86916" lon="4.77525">
        <ele>330</ele>
        <time>2022-09-18T09:25:52.000Z</time>
      </trkpt>
      <trkpt lat="49.86916" lon="4.77525">
        <ele>330</ele>
        <time>2022-09-18T09:25:53.000Z</time>
      </trkpt>
      <trkpt lat="49.86916" lon="4.77525">
        <ele>330</ele>
        <time>2022-09-18T09:25:54.000Z</time>
      </trkpt>
      <trkpt lat="49.86916" lon="4.77525">
        <ele>330</ele>
        <time>2022-09-18T09:25:55.000Z</time>
      </trkpt>
      <trkpt lat="49.86916" lon="4.77525">
        <ele>330</ele>
        <time>2022-09-18T09:25:56.000Z</time>
      </trkpt>
      <trkpt lat="49.86916" lon="4.77525">
        <ele>330</ele>
        <time>2022-09-18T09:25:57.000Z</time>
      </trkpt>
      <trkpt lat="49.86916" lon="4.77525">
        <ele>330</ele>
        <time>2022-09-18T09:25:58.000Z</time>
      </trkpt>
      <trkpt lat="49.86916" lon="4.77525">
        <ele>330</ele>
        <time>2022-09-18T09:25:59.000Z</time>
      </trkpt>
      <trkpt lat="49.86916" lon="4.77525">
        <ele>330</ele>
        <time>2022-09-18T09:26:00.000Z</time>
      </trkpt>
      <trkpt lat="49.86916" lon="4.77525">
        <ele>330</ele>
        <time>2022-09-18T09:26:01.000Z</time>
      </trkpt>
      <trkpt lat="49.86916" lon="4.77525">
        <ele>330</ele>
        <time>2022-09-18T09:26:02.000Z</time>
      </trkpt>
      <trkpt lat="49.86916" lon="4.77525">
        <ele>330</ele>
        <time>2022-09-18T09:26:03.000Z</time>
      </trkpt>
      <trkpt lat="49.86916" lon="4.77525">
        <ele>330</ele>
        <time>2022-09-18T09:26:04.000Z</time>
      </trkpt>
      <trkpt lat="49.86916" lon="4.77525">
        <ele>330</ele>
        <time>2022-09-18T09:26:05.000Z</time>
      </trkpt>
      <trkpt lat="49.86916" lon="4.77525">
        <ele>330</ele>
        <time>2022-09-18T09:26:06.000Z</time>
      </trkpt>
      <trkpt lat="49.86916" lon="4.77525">
        <ele>330</ele>
        <time>2022-09-18T09:26:07.000Z</time>
      </trkpt>
      <trkpt lat="49.86916" lon="4.77525">
        <ele>330</ele>
        <time>2022-09-18T09:26:08.000Z</time>
      </trkpt>
      <trkpt lat="49.86916" lon="4.77525">
        <ele>330</ele>
        <time>2022-09-18T09:26:09.000Z</time>
      </trkpt>
      <trkpt lat="49.86916" lon="4.77525">
        <ele>330</ele>
        <time>2022-09-18T09:26:10.000Z</time>
      </trkpt>
      <trkpt lat="49.86916" lon="4.77525">
        <ele>330</ele>
        <time>2022-09-18T09:26:11.000Z</time>
      </trkpt>
      <trkpt lat="49.86916" lon="4.77525">
        <ele>330</ele>
        <time>2022-09-18T09:26:12.000Z</time>
      </trkpt>
      <trkpt lat="49.86916" lon="4.77525">
        <ele>330</ele>
        <time>2022-09-18T09:26:13.000Z</time>
      </trkpt>
      <trkpt lat="49.86916" lon="4.77525">
        <ele>330</ele>
        <time>2022-09-18T09:26:14.000Z</time>
      </trkpt>
      <trkpt lat="49.86916" lon="4.77525">
        <ele>330</ele>
        <time>2022-09-18T09:26:15.000Z</time>
      </trkpt>
      <trkpt lat="49.86916" lon="4.77525">
        <ele>330</ele>
        <time>2022-09-18T09:26:16.000Z</time>
      </trkpt>
      <trkpt lat="49.86916" lon="4.77525">
        <ele>330</ele>
        <time>2022-09-18T09:26:17.000Z</time>
      </trkpt>
      <trkpt lat="49.86916" lon="4.77525">
        <ele>330</ele>
        <time>2022-09-18T09:26:18.000Z</time>
      </trkpt>
      <trkpt lat="49.86916" lon="4.77525">
        <ele>330</ele>
        <time>2022-09-18T09:26:19.000Z</time>
      </trkpt>
      <trkpt lat="49.86916" lon="4.77525">
        <ele>330</ele>
        <time>2022-09-18T09:26:20.000Z</time>
      </trkpt>
      <trkpt lat="49.86916" lon="4.77525">
        <ele>330</ele>
        <time>2022-09-18T09:26:21.000Z</time>
      </trkpt>
      <trkpt lat="49.86916" lon="4.77525">
        <ele>330</ele>
        <time>2022-09-18T09:26:22.000Z</time>
      </trkpt>
      <trkpt lat="49.86916" lon="4.77525">
        <ele>330</ele>
        <time>2022-09-18T09:26:23.000Z</time>
      </trkpt>
      <trkpt lat="49.86916" lon="4.77525">
        <ele>330</ele>
        <time>2022-09-18T09:26:24.000Z</time>
      </trkpt>
      <trkpt lat="49.86916" lon="4.77525">
        <ele>330</ele>
        <time>2022-09-18T09:26:25.000Z</time>
      </trkpt>
      <trkpt lat="49.86916" lon="4.77525">
        <ele>330</ele>
        <time>2022-09-18T09:26:26.000Z</time>
      </trkpt>
      <trkpt lat="49.86916" lon="4.77525">
        <ele>330</ele>
        <time>2022-09-18T09:26:27.000Z</time>
      </trkpt>
      <trkpt lat="49.86916" lon="4.77525">
        <ele>330</ele>
        <time>2022-09-18T09:26:28.000Z</time>
      </trkpt>
      <trkpt lat="49.86916" lon="4.77525">
        <ele>330</ele>
        <time>2022-09-18T09:26:29.000Z</time>
      </trkpt>
      <trkpt lat="49.86916" lon="4.77525">
        <ele>330</ele>
        <time>2022-09-18T09:26:30.000Z</time>
      </trkpt>
      <trkpt lat="49.86916" lon="4.77525">
        <ele>330</ele>
        <time>2022-09-18T09:26:31.000Z</time>
      </trkpt>
      <trkpt lat="49.86916" lon="4.77525">
        <ele>330</ele>
        <time>2022-09-18T09:26:32.000Z</time>
      </trkpt>
      <trkpt lat="49.86916" lon="4.77525">
        <ele>331</ele>
        <time>2022-09-18T09:26:33.000Z</time>
      </trkpt>
      <trkpt lat="49.86916" lon="4.77525">
        <ele>331</ele>
        <time>2022-09-18T09:26:34.000Z</time>
      </trkpt>
      <trkpt lat="49.86916" lon="4.77525">
        <ele>331</ele>
        <time>2022-09-18T09:26:35.000Z</time>
      </trkpt>
      <trkpt lat="49.86916" lon="4.77525">
        <ele>331</ele>
        <time>2022-09-18T09:26:36.000Z</time>
      </trkpt>
      <trkpt lat="49.86916" lon="4.77525">
        <ele>331</ele>
        <time>2022-09-18T09:26:37.000Z</time>
      </trkpt>
      <trkpt lat="49.86916" lon="4.77525">
        <ele>331</ele>
        <time>2022-09-18T09:26:38.000Z</time>
      </trkpt>
      <trkpt lat="49.86916" lon="4.77525">
        <ele>331</ele>
        <time>2022-09-18T09:26:39.000Z</time>
      </trkpt>
      <trkpt lat="49.86916" lon="4.77525">
        <ele>331</ele>
        <time>2022-09-18T09:26:40.000Z</time>
      </trkpt>
      <trkpt lat="49.86916" lon="4.77525">
        <ele>331</ele>
        <time>2022-09-18T09:26:41.000Z</time>
      </trkpt>
      <trkpt lat="49.86916" lon="4.77525">
        <ele>331</ele>
        <time>2022-09-18T09:26:42.000Z</time>
      </trkpt>
      <trkpt lat="49.86916" lon="4.77525">
        <ele>331</ele>
        <time>2022-09-18T09:26:43.000Z</time>
      </trkpt>
      <trkpt lat="49.86916" lon="4.77525">
        <ele>331</ele>
        <time>2022-09-18T09:26:44.000Z</time>
      </trkpt>
      <trkpt lat="49.86916" lon="4.77525">
        <ele>331</ele>
        <time>2022-09-18T09:26:45.000Z</time>
      </trkpt>
      <trkpt lat="49.86916" lon="4.77525">
        <ele>331</ele>
        <time>2022-09-18T09:26:46.000Z</time>
      </trkpt>
      <trkpt lat="49.86916" lon="4.77525">
        <ele>331</ele>
        <time>2022-09-18T09:26:47.000Z</time>
      </trkpt>
      <trkpt lat="49.86916" lon="4.77525">
        <ele>331</ele>
        <time>2022-09-18T09:26:48.000Z</time>
      </trkpt>
      <trkpt lat="49.86916" lon="4.77525">
        <ele>331</ele>
        <time>2022-09-18T09:26:49.000Z</time>
      </trkpt>
      <trkpt lat="49.86916" lon="4.77525">
        <ele>331</ele>
        <time>2022-09-18T09:26:50.000Z</time>
      </trkpt>
      <trkpt lat="49.86916" lon="4.77525">
        <ele>331</ele>
        <time>2022-09-18T09:26:51.000Z</time>
      </trkpt>
      <trkpt lat="49.86916" lon="4.77525">
        <ele>331</ele>
        <time>2022-09-18T09:26:52.000Z</time>
      </trkpt>
      <trkpt lat="49.86916" lon="4.77525">
        <ele>331</ele>
        <time>2022-09-18T09:26:53.000Z</time>
      </trkpt>
      <trkpt lat="49.86916" lon="4.77525">
        <ele>331</ele>
        <time>2022-09-18T09:26:54.000Z</time>
      </trkpt>
      <trkpt lat="49.86916" lon="4.77525">
        <ele>331</ele>
        <time>2022-09-18T09:26:55.000Z</time>
      </trkpt>
      <trkpt lat="49.86916" lon="4.77525">
        <ele>331</ele>
        <time>2022-09-18T09:26:56.000Z</time>
      </trkpt>
      <trkpt lat="49.86916" lon="4.77525">
        <ele>331</ele>
        <time>2022-09-18T09:26:57.000Z</time>
      </trkpt>
      <trkpt lat="49.86916" lon="4.77525">
        <ele>331</ele>
        <time>2022-09-18T09:26:58.000Z</time>
      </trkpt>
      <trkpt lat="49.86916" lon="4.77525">
        <ele>331</ele>
        <time>2022-09-18T09:26:59.000Z</time>
      </trkpt>
      <trkpt lat="49.86916" lon="4.77525">
        <ele>331</ele>
        <time>2022-09-18T09:27:00.000Z</time>
      </trkpt>
      <trkpt lat="49.86916" lon="4.77525">
        <ele>331</ele>
        <time>2022-09-18T09:27:01.000Z</time>
      </trkpt>
      <trkpt lat="49.86916" lon="4.77525">
        <ele>331</ele>
        <time>2022-09-18T09:27:02.000Z</time>
      </trkpt>
      <trkpt lat="49.86916" lon="4.77525">
        <ele>331</ele>
        <time>2022-09-18T09:27:03.000Z</time>
      </trkpt>
      <trkpt lat="49.86916" lon="4.77525">
        <ele>331</ele>
        <time>2022-09-18T09:27:04.000Z</time>
      </trkpt>
      <trkpt lat="49.86916" lon="4.77525">
        <ele>331</ele>
        <time>2022-09-18T09:27:05.000Z</time>
      </trkpt>
      <trkpt lat="49.86916" lon="4.77525">
        <ele>331</ele>
        <time>2022-09-18T09:27:06.000Z</time>
      </trkpt>
      <trkpt lat="49.86916" lon="4.77525">
        <ele>330</ele>
        <time>2022-09-18T09:27:07.000Z</time>
      </trkpt>
      <trkpt lat="49.86916" lon="4.77525">
        <ele>330</ele>
        <time>2022-09-18T09:27:08.000Z</time>
      </trkpt>
      <trkpt lat="49.86916" lon="4.77525">
        <ele>330</ele>
        <time>2022-09-18T09:27:09.000Z</time>
      </trkpt>
      <trkpt lat="49.86916" lon="4.77525">
        <ele>330</ele>
        <time>2022-09-18T09:27:10.000Z</time>
      </trkpt>
      <trkpt lat="49.86916" lon="4.77525">
        <ele>330</ele>
        <time>2022-09-18T09:27:11.000Z</time>
      </trkpt>
      <trkpt lat="49.86916" lon="4.77525">
        <ele>330</ele>
        <time>2022-09-18T09:27:12.000Z</time>
      </trkpt>
      <trkpt lat="49.86916" lon="4.77525">
        <ele>330</ele>
        <time>2022-09-18T09:27:13.000Z</time>
      </trkpt>
      <trkpt lat="49.86916" lon="4.77526">
        <ele>330</ele>
        <time>2022-09-18T09:27:14.000Z</time>
      </trkpt>
      <trkpt lat="49.86916" lon="4.77526">
        <ele>330</ele>
        <time>2022-09-18T09:27:15.000Z</time>
      </trkpt>
      <trkpt lat="49.86915" lon="4.77525">
        <ele>330</ele>
        <time>2022-09-18T09:27:16.000Z</time>
      </trkpt>
      <trkpt lat="49.86916" lon="4.77525">
        <ele>330</ele>
        <time>2022-09-18T09:27:17.000Z</time>
      </trkpt>
      <trkpt lat="49.86916" lon="4.77525">
        <ele>330</ele>
        <time>2022-09-18T09:27:18.000Z</time>
      </trkpt>
      <trkpt lat="49.86916" lon="4.77525">
        <ele>330</ele>
        <time>2022-09-18T09:27:19.000Z</time>
      </trkpt>
      <trkpt lat="49.86916" lon="4.77526">
        <ele>330</ele>
        <time>2022-09-18T09:27:20.000Z</time>
      </trkpt>
      <trkpt lat="49.86916" lon="4.77527">
        <ele>330</ele>
        <time>2022-09-18T09:27:21.000Z</time>
      </trkpt>
      <trkpt lat="49.86917" lon="4.77529">
        <ele>330</ele>
        <time>2022-09-18T09:27:22.000Z</time>
      </trkpt>
      <trkpt lat="49.86918" lon="4.77532">
        <ele>330</ele>
        <time>2022-09-18T09:27:23.000Z</time>
      </trkpt>
      <trkpt lat="49.86919" lon="4.77533">
        <ele>330</ele>
        <time>2022-09-18T09:27:24.000Z</time>
      </trkpt>
      <trkpt lat="49.86919" lon="4.77536">
        <ele>330</ele>
        <time>2022-09-18T09:27:25.000Z</time>
      </trkpt>
      <trkpt lat="49.8692" lon="4.77538">
        <ele>330</ele>
        <time>2022-09-18T09:27:26.000Z</time>
      </trkpt>
      <trkpt lat="49.86921" lon="4.77541">
        <ele>330</ele>
        <time>2022-09-18T09:27:27.000Z</time>
      </trkpt>
      <trkpt lat="49.86922" lon="4.77544">
        <ele>330</ele>
        <time>2022-09-18T09:27:28.000Z</time>
      </trkpt>
      <trkpt lat="49.86923" lon="4.77547">
        <ele>330</ele>
        <time>2022-09-18T09:27:29.000Z</time>
      </trkpt>
      <trkpt lat="49.86924" lon="4.7755">
        <ele>330</ele>
        <time>2022-09-18T09:27:30.000Z</time>
      </trkpt>
      <trkpt lat="49.86925" lon="4.77552">
        <ele>330</ele>
        <time>2022-09-18T09:27:31.000Z</time>
      </trkpt>
      <trkpt lat="49.86927" lon="4.77556">
        <ele>330</ele>
        <time>2022-09-18T09:27:32.000Z</time>
      </trkpt>
      <trkpt lat="49.86928" lon="4.77559">
        <ele>329</ele>
        <time>2022-09-18T09:27:33.000Z</time>
      </trkpt>
      <trkpt lat="49.8693" lon="4.77563">
        <ele>329</ele>
        <time>2022-09-18T09:27:34.000Z</time>
      </trkpt>
      <trkpt lat="49.86931" lon="4.77567">
        <ele>329</ele>
        <time>2022-09-18T09:27:35.000Z</time>
      </trkpt>
      <trkpt lat="49.86932" lon="4.7757">
        <ele>329</ele>
        <time>2022-09-18T09:27:36.000Z</time>
      </trkpt>
      <trkpt lat="49.86934" lon="4.77573">
        <ele>329</ele>
        <time>2022-09-18T09:27:37.000Z</time>
      </trkpt>
      <trkpt lat="49.86935" lon="4.77577">
        <ele>329</ele>
        <time>2022-09-18T09:27:38.000Z</time>
      </trkpt>
      <trkpt lat="49.86937" lon="4.77581">
        <ele>329</ele>
        <time>2022-09-18T09:27:39.000Z</time>
      </trkpt>
      <trkpt lat="49.86938" lon="4.77585">
        <ele>329</ele>
        <time>2022-09-18T09:27:40.000Z</time>
      </trkpt>
      <trkpt lat="49.8694" lon="4.77588">
        <ele>329</ele>
        <time>2022-09-18T09:27:41.000Z</time>
      </trkpt>
      <trkpt lat="49.86941" lon="4.77591">
        <ele>329</ele>
        <time>2022-09-18T09:27:42.000Z</time>
      </trkpt>
      <trkpt lat="49.86942" lon="4.77591">
        <ele>329</ele>
        <time>2022-09-18T09:27:43.000Z</time>
      </trkpt>
      <trkpt lat="49.86943" lon="4.77593">
        <ele>329</ele>
        <time>2022-09-18T09:27:44.000Z</time>
      </trkpt>
      <trkpt lat="49.86945" lon="4.77597">
        <ele>329</ele>
        <time>2022-09-18T09:27:45.000Z</time>
      </trkpt>
      <trkpt lat="49.86948" lon="4.77601">
        <ele>329</ele>
        <time>2022-09-18T09:27:46.000Z</time>
      </trkpt>
      <trkpt lat="49.8695" lon="4.77605">
        <ele>329</ele>
        <time>2022-09-18T09:27:47.000Z</time>
      </trkpt>
      <trkpt lat="49.86952" lon="4.77608">
        <ele>329</ele>
        <time>2022-09-18T09:27:48.000Z</time>
      </trkpt>
      <trkpt lat="49.86954" lon="4.77612">
        <ele>329</ele>
        <time>2022-09-18T09:27:49.000Z</time>
      </trkpt>
      <trkpt lat="49.86956" lon="4.77615">
        <ele>329</ele>
        <time>2022-09-18T09:27:50.000Z</time>
      </trkpt>
      <trkpt lat="49.86958" lon="4.77618">
        <ele>329</ele>
        <time>2022-09-18T09:27:51.000Z</time>
      </trkpt>
      <trkpt lat="49.8696" lon="4.77621">
        <ele>329</ele>
        <time>2022-09-18T09:27:52.000Z</time>
      </trkpt>
      <trkpt lat="49.86963" lon="4.77625">
        <ele>329</ele>
        <time>2022-09-18T09:27:53.000Z</time>
      </trkpt>
      <trkpt lat="49.86965" lon="4.7763">
        <ele>329</ele>
        <time>2022-09-18T09:27:54.000Z</time>
      </trkpt>
      <trkpt lat="49.86967" lon="4.77634">
        <ele>329</ele>
        <time>2022-09-18T09:27:55.000Z</time>
      </trkpt>
      <trkpt lat="49.8697" lon="4.77639">
        <ele>329</ele>
        <time>2022-09-18T09:27:56.000Z</time>
      </trkpt>
      <trkpt lat="49.86973" lon="4.77643">
        <ele>329</ele>
        <time>2022-09-18T09:27:57.000Z</time>
      </trkpt>
      <trkpt lat="49.86975" lon="4.77648">
        <ele>329</ele>
        <time>2022-09-18T09:27:58.000Z</time>
      </trkpt>
      <trkpt lat="49.86977" lon="4.77653">
        <ele>329</ele>
        <time>2022-09-18T09:27:59.000Z</time>
      </trkpt>
      <trkpt lat="49.86979" lon="4.77657">
        <ele>329</ele>
        <time>2022-09-18T09:28:00.000Z</time>
      </trkpt>
      <trkpt lat="49.8698" lon="4.77662">
        <ele>328</ele>
        <time>2022-09-18T09:28:01.000Z</time>
      </trkpt>
      <trkpt lat="49.8698" lon="4.77667">
        <ele>328</ele>
        <time>2022-09-18T09:28:02.000Z</time>
      </trkpt>
      <trkpt lat="49.86979" lon="4.77671">
        <ele>328</ele>
        <time>2022-09-18T09:28:03.000Z</time>
      </trkpt>
      <trkpt lat="49.86978" lon="4.77673">
        <ele>328</ele>
        <time>2022-09-18T09:28:04.000Z</time>
      </trkpt>
      <trkpt lat="49.86976" lon="4.77675">
        <ele>328</ele>
        <time>2022-09-18T09:28:05.000Z</time>
      </trkpt>
      <trkpt lat="49.86974" lon="4.77676">
        <ele>328</ele>
        <time>2022-09-18T09:28:06.000Z</time>
      </trkpt>
      <trkpt lat="49.86972" lon="4.77676">
        <ele>327</ele>
        <time>2022-09-18T09:28:07.000Z</time>
      </trkpt>
      <trkpt lat="49.8697" lon="4.77676">
        <ele>327</ele>
        <time>2022-09-18T09:28:08.000Z</time>
      </trkpt>
      <trkpt lat="49.86968" lon="4.77675">
        <ele>327</ele>
        <time>2022-09-18T09:28:09.000Z</time>
      </trkpt>
      <trkpt lat="49.86966" lon="4.77675">
        <ele>326</ele>
        <time>2022-09-18T09:28:10.000Z</time>
      </trkpt>
      <trkpt lat="49.86964" lon="4.77675">
        <ele>326</ele>
        <time>2022-09-18T09:28:11.000Z</time>
      </trkpt>
      <trkpt lat="49.86962" lon="4.77674">
        <ele>326</ele>
        <time>2022-09-18T09:28:12.000Z</time>
      </trkpt>
      <trkpt lat="49.86959" lon="4.77673">
        <ele>325</ele>
        <time>2022-09-18T09:28:13.000Z</time>
      </trkpt>
      <trkpt lat="49.86957" lon="4.7767">
        <ele>325</ele>
        <time>2022-09-18T09:28:14.000Z</time>
      </trkpt>
      <trkpt lat="49.86954" lon="4.77668">
        <ele>325</ele>
        <time>2022-09-18T09:28:15.000Z</time>
      </trkpt>
      <trkpt lat="49.86951" lon="4.77666">
        <ele>325</ele>
        <time>2022-09-18T09:28:16.000Z</time>
      </trkpt>
      <trkpt lat="49.86948" lon="4.77665">
        <ele>325</ele>
        <time>2022-09-18T09:28:17.000Z</time>
      </trkpt>
      <trkpt lat="49.86945" lon="4.77666">
        <ele>325</ele>
        <time>2022-09-18T09:28:18.000Z</time>
      </trkpt>
      <trkpt lat="49.86942" lon="4.77667">
        <ele>325</ele>
        <time>2022-09-18T09:28:19.000Z</time>
      </trkpt>
      <trkpt lat="49.86939" lon="4.77669">
        <ele>325</ele>
        <time>2022-09-18T09:28:20.000Z</time>
      </trkpt>
      <trkpt lat="49.86936" lon="4.77669">
        <ele>325</ele>
        <time>2022-09-18T09:28:21.000Z</time>
      </trkpt>
      <trkpt lat="49.86933" lon="4.77669">
        <ele>325</ele>
        <time>2022-09-18T09:28:22.000Z</time>
      </trkpt>
      <trkpt lat="49.86931" lon="4.77668">
        <ele>324</ele>
        <time>2022-09-18T09:28:23.000Z</time>
      </trkpt>
      <trkpt lat="49.86928" lon="4.77668">
        <ele>324</ele>
        <time>2022-09-18T09:28:24.000Z</time>
      </trkpt>
      <trkpt lat="49.86926" lon="4.77669">
        <ele>324</ele>
        <time>2022-09-18T09:28:25.000Z</time>
      </trkpt>
      <trkpt lat="49.86924" lon="4.7767">
        <ele>324</ele>
        <time>2022-09-18T09:28:26.000Z</time>
      </trkpt>
      <trkpt lat="49.86923" lon="4.77672">
        <ele>324</ele>
        <time>2022-09-18T09:28:27.000Z</time>
      </trkpt>
      <trkpt lat="49.86921" lon="4.77675">
        <ele>324</ele>
        <time>2022-09-18T09:28:28.000Z</time>
      </trkpt>
      <trkpt lat="49.86919" lon="4.77677">
        <ele>324</ele>
        <time>2022-09-18T09:28:29.000Z</time>
      </trkpt>
      <trkpt lat="49.86917" lon="4.77677">
        <ele>324</ele>
        <time>2022-09-18T09:28:30.000Z</time>
      </trkpt>
      <trkpt lat="49.86913" lon="4.77677">
        <ele>324</ele>
        <time>2022-09-18T09:28:31.000Z</time>
      </trkpt>
      <trkpt lat="49.8691" lon="4.77677">
        <ele>324</ele>
        <time>2022-09-18T09:28:32.000Z</time>
      </trkpt>
      <trkpt lat="49.86908" lon="4.77678">
        <ele>325</ele>
        <time>2022-09-18T09:28:33.000Z</time>
      </trkpt>
      <trkpt lat="49.86906" lon="4.77679">
        <ele>325</ele>
        <time>2022-09-18T09:28:34.000Z</time>
      </trkpt>
      <trkpt lat="49.86903" lon="4.7768">
        <ele>325</ele>
        <time>2022-09-18T09:28:35.000Z</time>
      </trkpt>
      <trkpt lat="49.86901" lon="4.7768">
        <ele>325</ele>
        <time>2022-09-18T09:28:36.000Z</time>
      </trkpt>
      <trkpt lat="49.86898" lon="4.7768">
        <ele>325</ele>
        <time>2022-09-18T09:28:37.000Z</time>
      </trkpt>
      <trkpt lat="49.86895" lon="4.7768">
        <ele>325</ele>
        <time>2022-09-18T09:28:38.000Z</time>
      </trkpt>
      <trkpt lat="49.86892" lon="4.77681">
        <ele>325</ele>
        <time>2022-09-18T09:28:39.000Z</time>
      </trkpt>
      <trkpt lat="49.8689" lon="4.77681">
        <ele>325</ele>
        <time>2022-09-18T09:28:40.000Z</time>
      </trkpt>
      <trkpt lat="49.86887" lon="4.77682">
        <ele>325</ele>
        <time>2022-09-18T09:28:41.000Z</time>
      </trkpt>
      <trkpt lat="49.86884" lon="4.77682">
        <ele>326</ele>
        <time>2022-09-18T09:28:42.000Z</time>
      </trkpt>
      <trkpt lat="49.86881" lon="4.77681">
        <ele>326</ele>
        <time>2022-09-18T09:28:43.000Z</time>
      </trkpt>
      <trkpt lat="49.86879" lon="4.77681">
        <ele>326</ele>
        <time>2022-09-18T09:28:44.000Z</time>
      </trkpt>
      <trkpt lat="49.86876" lon="4.77682">
        <ele>326</ele>
        <time>2022-09-18T09:28:45.000Z</time>
      </trkpt>
      <trkpt lat="49.86873" lon="4.77682">
        <ele>326</ele>
        <time>2022-09-18T09:28:46.000Z</time>
      </trkpt>
      <trkpt lat="49.8687" lon="4.77683">
        <ele>326</ele>
        <time>2022-09-18T09:28:47.000Z</time>
      </trkpt>
      <trkpt lat="49.86869" lon="4.77684">
        <ele>325</ele>
        <time>2022-09-18T09:28:48.000Z</time>
      </trkpt>
      <trkpt lat="49.86866" lon="4.77684">
        <ele>325</ele>
        <time>2022-09-18T09:28:49.000Z</time>
      </trkpt>
      <trkpt lat="49.86864" lon="4.77684">
        <ele>325</ele>
        <time>2022-09-18T09:28:50.000Z</time>
      </trkpt>
      <trkpt lat="49.86861" lon="4.77684">
        <ele>325</ele>
        <time>2022-09-18T09:28:51.000Z</time>
      </trkpt>
      <trkpt lat="49.86859" lon="4.77685">
        <ele>325</ele>
        <time>2022-09-18T09:28:52.000Z</time>
      </trkpt>
      <trkpt lat="49.86856" lon="4.77685">
        <ele>325</ele>
        <time>2022-09-18T09:28:53.000Z</time>
      </trkpt>
      <trkpt lat="49.86853" lon="4.77686">
        <ele>325</ele>
        <time>2022-09-18T09:28:54.000Z</time>
      </trkpt>
      <trkpt lat="49.86849" lon="4.77687">
        <ele>325</ele>
        <time>2022-09-18T09:28:55.000Z</time>
      </trkpt>
      <trkpt lat="49.86846" lon="4.77687">
        <ele>325</ele>
        <time>2022-09-18T09:28:56.000Z</time>
      </trkpt>
      <trkpt lat="49.86842" lon="4.77687">
        <ele>325</ele>
        <time>2022-09-18T09:28:57.000Z</time>
      </trkpt>
      <trkpt lat="49.86839" lon="4.77687">
        <ele>325</ele>
        <time>2022-09-18T09:28:58.000Z</time>
      </trkpt>
      <trkpt lat="49.86835" lon="4.77687">
        <ele>325</ele>
        <time>2022-09-18T09:28:59.000Z</time>
      </trkpt>
      <trkpt lat="49.86831" lon="4.77686">
        <ele>325</ele>
        <time>2022-09-18T09:29:00.000Z</time>
      </trkpt>
      <trkpt lat="49.86827" lon="4.77684">
        <ele>325</ele>
        <time>2022-09-18T09:29:01.000Z</time>
      </trkpt>
      <trkpt lat="49.86824" lon="4.77681">
        <ele>325</ele>
        <time>2022-09-18T09:29:02.000Z</time>
      </trkpt>
      <trkpt lat="49.86822" lon="4.77679">
        <ele>325</ele>
        <time>2022-09-18T09:29:03.000Z</time>
      </trkpt>
      <trkpt lat="49.86818" lon="4.77676">
        <ele>325</ele>
        <time>2022-09-18T09:29:04.000Z</time>
      </trkpt>
      <trkpt lat="49.86815" lon="4.77674">
        <ele>325</ele>
        <time>2022-09-18T09:29:05.000Z</time>
      </trkpt>
      <trkpt lat="49.86811" lon="4.77672">
        <ele>325</ele>
        <time>2022-09-18T09:29:06.000Z</time>
      </trkpt>
      <trkpt lat="49.86807" lon="4.7767">
        <ele>325</ele>
        <time>2022-09-18T09:29:07.000Z</time>
      </trkpt>
      <trkpt lat="49.86803" lon="4.77666">
        <ele>325</ele>
        <time>2022-09-18T09:29:08.000Z</time>
      </trkpt>
      <trkpt lat="49.86799" lon="4.77662">
        <ele>325</ele>
        <time>2022-09-18T09:29:09.000Z</time>
      </trkpt>
      <trkpt lat="49.86795" lon="4.77659">
        <ele>325</ele>
        <time>2022-09-18T09:29:10.000Z</time>
      </trkpt>
      <trkpt lat="49.8679" lon="4.77656">
        <ele>325</ele>
        <time>2022-09-18T09:29:11.000Z</time>
      </trkpt>
      <trkpt lat="49.86786" lon="4.77651">
        <ele>325</ele>
        <time>2022-09-18T09:29:12.000Z</time>
      </trkpt>
      <trkpt lat="49.86781" lon="4.77648">
        <ele>325</ele>
        <time>2022-09-18T09:29:13.000Z</time>
      </trkpt>
      <trkpt lat="49.86777" lon="4.77646">
        <ele>325</ele>
        <time>2022-09-18T09:29:14.000Z</time>
      </trkpt>
      <trkpt lat="49.86772" lon="4.77645">
        <ele>325</ele>
        <time>2022-09-18T09:29:15.000Z</time>
      </trkpt>
      <trkpt lat="49.86767" lon="4.77645">
        <ele>325</ele>
        <time>2022-09-18T09:29:16.000Z</time>
      </trkpt>
      <trkpt lat="49.86762" lon="4.77645">
        <ele>325</ele>
        <time>2022-09-18T09:29:17.000Z</time>
      </trkpt>
      <trkpt lat="49.86757" lon="4.77644">
        <ele>324</ele>
        <time>2022-09-18T09:29:18.000Z</time>
      </trkpt>
      <trkpt lat="49.86753" lon="4.77643">
        <ele>324</ele>
        <time>2022-09-18T09:29:19.000Z</time>
      </trkpt>
      <trkpt lat="49.86748" lon="4.77642">
        <ele>324</ele>
        <time>2022-09-18T09:29:20.000Z</time>
      </trkpt>
      <trkpt lat="49.86743" lon="4.77641">
        <ele>324</ele>
        <time>2022-09-18T09:29:21.000Z</time>
      </trkpt>
      <trkpt lat="49.86738" lon="4.77639">
        <ele>324</ele>
        <time>2022-09-18T09:29:22.000Z</time>
      </trkpt>
      <trkpt lat="49.86733" lon="4.77638">
        <ele>324</ele>
        <time>2022-09-18T09:29:23.000Z</time>
      </trkpt>
      <trkpt lat="49.86729" lon="4.77638">
        <ele>324</ele>
        <time>2022-09-18T09:29:24.000Z</time>
      </trkpt>
      <trkpt lat="49.86725" lon="4.77638">
        <ele>324</ele>
        <time>2022-09-18T09:29:25.000Z</time>
      </trkpt>
      <trkpt lat="49.8672" lon="4.77638">
        <ele>323</ele>
        <time>2022-09-18T09:29:26.000Z</time>
      </trkpt>
      <trkpt lat="49.86715" lon="4.77637">
        <ele>323</ele>
        <time>2022-09-18T09:29:27.000Z</time>
      </trkpt>
      <trkpt lat="49.8671" lon="4.77638">
        <ele>323</ele>
        <time>2022-09-18T09:29:28.000Z</time>
      </trkpt>
      <trkpt lat="49.86705" lon="4.7764">
        <ele>322</ele>
        <time>2022-09-18T09:29:29.000Z</time>
      </trkpt>
      <trkpt lat="49.86701" lon="4.77641">
        <ele>322</ele>
        <time>2022-09-18T09:29:30.000Z</time>
      </trkpt>
      <trkpt lat="49.86697" lon="4.77643">
        <ele>322</ele>
        <time>2022-09-18T09:29:31.000Z</time>
      </trkpt>
      <trkpt lat="49.86691" lon="4.77645">
        <ele>321</ele>
        <time>2022-09-18T09:29:32.000Z</time>
      </trkpt>
      <trkpt lat="49.86686" lon="4.77647">
        <ele>321</ele>
        <time>2022-09-18T09:29:33.000Z</time>
      </trkpt>
      <trkpt lat="49.86679" lon="4.7765">
        <ele>321</ele>
        <time>2022-09-18T09:29:34.000Z</time>
      </trkpt>
      <trkpt lat="49.86674" lon="4.77651">
        <ele>320</ele>
        <time>2022-09-18T09:29:35.000Z</time>
      </trkpt>
      <trkpt lat="49.86668" lon="4.77653">
        <ele>320</ele>
        <time>2022-09-18T09:29:36.000Z</time>
      </trkpt>
      <trkpt lat="49.86663" lon="4.77655">
        <ele>319</ele>
        <time>2022-09-18T09:29:37.000Z</time>
      </trkpt>
      <trkpt lat="49.86657" lon="4.77655">
        <ele>319</ele>
        <time>2022-09-18T09:29:38.000Z</time>
      </trkpt>
      <trkpt lat="49.86653" lon="4.77656">
        <ele>319</ele>
        <time>2022-09-18T09:29:39.000Z</time>
      </trkpt>
      <trkpt lat="49.86648" lon="4.77659">
        <ele>319</ele>
        <time>2022-09-18T09:29:40.000Z</time>
      </trkpt>
      <trkpt lat="49.86643" lon="4.7766">
        <ele>318</ele>
        <time>2022-09-18T09:29:41.000Z</time>
      </trkpt>
      <trkpt lat="49.86639" lon="4.77661">
        <ele>318</ele>
        <time>2022-09-18T09:29:42.000Z</time>
      </trkpt>
      <trkpt lat="49.86635" lon="4.77662">
        <ele>318</ele>
        <time>2022-09-18T09:29:43.000Z</time>
      </trkpt>
      <trkpt lat="49.8663" lon="4.77662">
        <ele>318</ele>
        <time>2022-09-18T09:29:44.000Z</time>
      </trkpt>
      <trkpt lat="49.86626" lon="4.77663">
        <ele>318</ele>
        <time>2022-09-18T09:29:45.000Z</time>
      </trkpt>
      <trkpt lat="49.8662" lon="4.77664">
        <ele>318</ele>
        <time>2022-09-18T09:29:46.000Z</time>
      </trkpt>
      <trkpt lat="49.86615" lon="4.77664">
        <ele>318</ele>
        <time>2022-09-18T09:29:47.000Z</time>
      </trkpt>
      <trkpt lat="49.86609" lon="4.77665">
        <ele>318</ele>
        <time>2022-09-18T09:29:48.000Z</time>
      </trkpt>
      <trkpt lat="49.86604" lon="4.77664">
        <ele>318</ele>
        <time>2022-09-18T09:29:49.000Z</time>
      </trkpt>
      <trkpt lat="49.86601" lon="4.77663">
        <ele>318</ele>
        <time>2022-09-18T09:29:50.000Z</time>
      </trkpt>
      <trkpt lat="49.86597" lon="4.77663">
        <ele>318</ele>
        <time>2022-09-18T09:29:51.000Z</time>
      </trkpt>
      <trkpt lat="49.86593" lon="4.77664">
        <ele>317</ele>
        <time>2022-09-18T09:29:52.000Z</time>
      </trkpt>
      <trkpt lat="49.8659" lon="4.77666">
        <ele>317</ele>
        <time>2022-09-18T09:29:53.000Z</time>
      </trkpt>
      <trkpt lat="49.86587" lon="4.77668">
        <ele>317</ele>
        <time>2022-09-18T09:29:54.000Z</time>
      </trkpt>
      <trkpt lat="49.86584" lon="4.7767">
        <ele>317</ele>
        <time>2022-09-18T09:29:55.000Z</time>
      </trkpt>
      <trkpt lat="49.86582" lon="4.77671">
        <ele>317</ele>
        <time>2022-09-18T09:29:56.000Z</time>
      </trkpt>
      <trkpt lat="49.8658" lon="4.77672">
        <ele>317</ele>
        <time>2022-09-18T09:29:57.000Z</time>
      </trkpt>
      <trkpt lat="49.86577" lon="4.77674">
        <ele>317</ele>
        <time>2022-09-18T09:29:58.000Z</time>
      </trkpt>
      <trkpt lat="49.86574" lon="4.77676">
        <ele>316</ele>
        <time>2022-09-18T09:29:59.000Z</time>
      </trkpt>
      <trkpt lat="49.86571" lon="4.77677">
        <ele>316</ele>
        <time>2022-09-18T09:30:00.000Z</time>
      </trkpt>
      <trkpt lat="49.86568" lon="4.77677">
        <ele>316</ele>
        <time>2022-09-18T09:30:01.000Z</time>
      </trkpt>
      <trkpt lat="49.86565" lon="4.77677">
        <ele>316</ele>
        <time>2022-09-18T09:30:02.000Z</time>
      </trkpt>
      <trkpt lat="49.86562" lon="4.77676">
        <ele>316</ele>
        <time>2022-09-18T09:30:03.000Z</time>
      </trkpt>
      <trkpt lat="49.86559" lon="4.77676">
        <ele>316</ele>
        <time>2022-09-18T09:30:04.000Z</time>
      </trkpt>
      <trkpt lat="49.86556" lon="4.77679">
        <ele>316</ele>
        <time>2022-09-18T09:30:05.000Z</time>
      </trkpt>
      <trkpt lat="49.86552" lon="4.77682">
        <ele>316</ele>
        <time>2022-09-18T09:30:06.000Z</time>
      </trkpt>
      <trkpt lat="49.86548" lon="4.77685">
        <ele>315</ele>
        <time>2022-09-18T09:30:07.000Z</time>
      </trkpt>
      <trkpt lat="49.86543" lon="4.77687">
        <ele>315</ele>
        <time>2022-09-18T09:30:08.000Z</time>
      </trkpt>
      <trkpt lat="49.86538" lon="4.77691">
        <ele>314</ele>
        <time>2022-09-18T09:30:09.000Z</time>
      </trkpt>
      <trkpt lat="49.86533" lon="4.77692">
        <ele>314</ele>
        <time>2022-09-18T09:30:10.000Z</time>
      </trkpt>
      <trkpt lat="49.86528" lon="4.77694">
        <ele>314</ele>
        <time>2022-09-18T09:30:11.000Z</time>
      </trkpt>
      <trkpt lat="49.86523" lon="4.77697">
        <ele>314</ele>
        <time>2022-09-18T09:30:12.000Z</time>
      </trkpt>
      <trkpt lat="49.86519" lon="4.777">
        <ele>314</ele>
        <time>2022-09-18T09:30:13.000Z</time>
      </trkpt>
      <trkpt lat="49.86515" lon="4.77701">
        <ele>313</ele>
        <time>2022-09-18T09:30:14.000Z</time>
      </trkpt>
      <trkpt lat="49.8651" lon="4.77701">
        <ele>313</ele>
        <time>2022-09-18T09:30:15.000Z</time>
      </trkpt>
      <trkpt lat="49.86505" lon="4.77702">
        <ele>313</ele>
        <time>2022-09-18T09:30:16.000Z</time>
      </trkpt>
      <trkpt lat="49.86501" lon="4.77702">
        <ele>313</ele>
        <time>2022-09-18T09:30:17.000Z</time>
      </trkpt>
      <trkpt lat="49.86497" lon="4.77702">
        <ele>313</ele>
        <time>2022-09-18T09:30:18.000Z</time>
      </trkpt>
      <trkpt lat="49.86493" lon="4.77703">
        <ele>313</ele>
        <time>2022-09-18T09:30:19.000Z</time>
      </trkpt>
      <trkpt lat="49.8649" lon="4.77705">
        <ele>313</ele>
        <time>2022-09-18T09:30:20.000Z</time>
      </trkpt>
      <trkpt lat="49.86487" lon="4.77707">
        <ele>313</ele>
        <time>2022-09-18T09:30:21.000Z</time>
      </trkpt>
      <trkpt lat="49.86483" lon="4.77709">
        <ele>313</ele>
        <time>2022-09-18T09:30:22.000Z</time>
      </trkpt>
      <trkpt lat="49.86478" lon="4.7771">
        <ele>313</ele>
        <time>2022-09-18T09:30:23.000Z</time>
      </trkpt>
      <trkpt lat="49.86474" lon="4.77713">
        <ele>313</ele>
        <time>2022-09-18T09:30:24.000Z</time>
      </trkpt>
      <trkpt lat="49.86468" lon="4.77716">
        <ele>313</ele>
        <time>2022-09-18T09:30:25.000Z</time>
      </trkpt>
      <trkpt lat="49.86462" lon="4.77718">
        <ele>313</ele>
        <time>2022-09-18T09:30:26.000Z</time>
      </trkpt>
      <trkpt lat="49.86456" lon="4.7772">
        <ele>313</ele>
        <time>2022-09-18T09:30:27.000Z</time>
      </trkpt>
      <trkpt lat="49.8645" lon="4.77722">
        <ele>313</ele>
        <time>2022-09-18T09:30:28.000Z</time>
      </trkpt>
      <trkpt lat="49.86444" lon="4.77724">
        <ele>313</ele>
        <time>2022-09-18T09:30:29.000Z</time>
      </trkpt>
      <trkpt lat="49.86438" lon="4.77726">
        <ele>313</ele>
        <time>2022-09-18T09:30:30.000Z</time>
      </trkpt>
      <trkpt lat="49.86433" lon="4.77727">
        <ele>314</ele>
        <time>2022-09-18T09:30:31.000Z</time>
      </trkpt>
      <trkpt lat="49.86428" lon="4.77727">
        <ele>314</ele>
        <time>2022-09-18T09:30:32.000Z</time>
      </trkpt>
      <trkpt lat="49.86424" lon="4.77726">
        <ele>314</ele>
        <time>2022-09-18T09:30:33.000Z</time>
      </trkpt>
      <trkpt lat="49.86419" lon="4.77725">
        <ele>314</ele>
        <time>2022-09-18T09:30:34.000Z</time>
      </trkpt>
      <trkpt lat="49.86414" lon="4.77723">
        <ele>314</ele>
        <time>2022-09-18T09:30:35.000Z</time>
      </trkpt>
      <trkpt lat="49.86409" lon="4.77722">
        <ele>314</ele>
        <time>2022-09-18T09:30:36.000Z</time>
      </trkpt>
      <trkpt lat="49.86404" lon="4.77722">
        <ele>314</ele>
        <time>2022-09-18T09:30:37.000Z</time>
      </trkpt>
      <trkpt lat="49.86398" lon="4.77723">
        <ele>314</ele>
        <time>2022-09-18T09:30:38.000Z</time>
      </trkpt>
      <trkpt lat="49.86393" lon="4.77726">
        <ele>315</ele>
        <time>2022-09-18T09:30:39.000Z</time>
      </trkpt>
      <trkpt lat="49.86388" lon="4.7773">
        <ele>315</ele>
        <time>2022-09-18T09:30:40.000Z</time>
      </trkpt>
      <trkpt lat="49.86383" lon="4.77733">
        <ele>315</ele>
        <time>2022-09-18T09:30:41.000Z</time>
      </trkpt>
      <trkpt lat="49.8638" lon="4.77738">
        <ele>315</ele>
        <time>2022-09-18T09:30:42.000Z</time>
      </trkpt>
      <trkpt lat="49.86376" lon="4.77743">
        <ele>315</ele>
        <time>2022-09-18T09:30:43.000Z</time>
      </trkpt>
      <trkpt lat="49.86373" lon="4.77747">
        <ele>315</ele>
        <time>2022-09-18T09:30:44.000Z</time>
      </trkpt>
      <trkpt lat="49.86371" lon="4.77751">
        <ele>315</ele>
        <time>2022-09-18T09:30:45.000Z</time>
      </trkpt>
      <trkpt lat="49.86369" lon="4.77754">
        <ele>316</ele>
        <time>2022-09-18T09:30:46.000Z</time>
      </trkpt>
      <trkpt lat="49.86368" lon="4.77758">
        <ele>316</ele>
        <time>2022-09-18T09:30:47.000Z</time>
      </trkpt>
      <trkpt lat="49.86366" lon="4.77762">
        <ele>316</ele>
        <time>2022-09-18T09:30:48.000Z</time>
      </trkpt>
      <trkpt lat="49.86365" lon="4.77767">
        <ele>316</ele>
        <time>2022-09-18T09:30:49.000Z</time>
      </trkpt>
      <trkpt lat="49.86364" lon="4.77771">
        <ele>317</ele>
        <time>2022-09-18T09:30:50.000Z</time>
      </trkpt>
      <trkpt lat="49.86364" lon="4.77776">
        <ele>317</ele>
        <time>2022-09-18T09:30:51.000Z</time>
      </trkpt>
      <trkpt lat="49.86363" lon="4.7778">
        <ele>317</ele>
        <time>2022-09-18T09:30:52.000Z</time>
      </trkpt>
      <trkpt lat="49.86363" lon="4.77785">
        <ele>317</ele>
        <time>2022-09-18T09:30:53.000Z</time>
      </trkpt>
      <trkpt lat="49.86362" lon="4.77789">
        <ele>318</ele>
        <time>2022-09-18T09:30:54.000Z</time>
      </trkpt>
      <trkpt lat="49.86362" lon="4.77793">
        <ele>318</ele>
        <time>2022-09-18T09:30:55.000Z</time>
      </trkpt>
      <trkpt lat="49.86361" lon="4.77798">
        <ele>318</ele>
        <time>2022-09-18T09:30:56.000Z</time>
      </trkpt>
      <trkpt lat="49.8636" lon="4.77802">
        <ele>318</ele>
        <time>2022-09-18T09:30:57.000Z</time>
      </trkpt>
      <trkpt lat="49.86359" lon="4.77806">
        <ele>319</ele>
        <time>2022-09-18T09:30:58.000Z</time>
      </trkpt>
      <trkpt lat="49.86359" lon="4.77811">
        <ele>319</ele>
        <time>2022-09-18T09:30:59.000Z</time>
      </trkpt>
      <trkpt lat="49.86358" lon="4.77815">
        <ele>319</ele>
        <time>2022-09-18T09:31:00.000Z</time>
      </trkpt>
      <trkpt lat="49.86356" lon="4.77818">
        <ele>319</ele>
        <time>2022-09-18T09:31:01.000Z</time>
      </trkpt>
      <trkpt lat="49.86354" lon="4.7782">
        <ele>320</ele>
        <time>2022-09-18T09:31:02.000Z</time>
      </trkpt>
      <trkpt lat="49.86352" lon="4.77822">
        <ele>320</ele>
        <time>2022-09-18T09:31:03.000Z</time>
      </trkpt>
      <trkpt lat="49.86349" lon="4.77822">
        <ele>320</ele>
        <time>2022-09-18T09:31:04.000Z</time>
      </trkpt>
      <trkpt lat="49.86346" lon="4.77822">
        <ele>320</ele>
        <time>2022-09-18T09:31:05.000Z</time>
      </trkpt>
      <trkpt lat="49.86343" lon="4.77823">
        <ele>320</ele>
        <time>2022-09-18T09:31:06.000Z</time>
      </trkpt>
      <trkpt lat="49.86339" lon="4.77824">
        <ele>320</ele>
        <time>2022-09-18T09:31:07.000Z</time>
      </trkpt>
      <trkpt lat="49.86336" lon="4.77824">
        <ele>320</ele>
        <time>2022-09-18T09:31:08.000Z</time>
      </trkpt>
      <trkpt lat="49.86332" lon="4.77825">
        <ele>320</ele>
        <time>2022-09-18T09:31:09.000Z</time>
      </trkpt>
      <trkpt lat="49.86328" lon="4.77825">
        <ele>320</ele>
        <time>2022-09-18T09:31:10.000Z</time>
      </trkpt>
      <trkpt lat="49.86324" lon="4.77825">
        <ele>321</ele>
        <time>2022-09-18T09:31:11.000Z</time>
      </trkpt>
      <trkpt lat="49.86321" lon="4.77825">
        <ele>321</ele>
        <time>2022-09-18T09:31:12.000Z</time>
      </trkpt>
      <trkpt lat="49.86317" lon="4.77825">
        <ele>321</ele>
        <time>2022-09-18T09:31:13.000Z</time>
      </trkpt>
      <trkpt lat="49.86313" lon="4.77825">
        <ele>321</ele>
        <time>2022-09-18T09:31:14.000Z</time>
      </trkpt>
      <trkpt lat="49.86309" lon="4.77826">
        <ele>321</ele>
        <time>2022-09-18T09:31:15.000Z</time>
      </trkpt>
      <trkpt lat="49.86306" lon="4.77828">
        <ele>321</ele>
        <time>2022-09-18T09:31:16.000Z</time>
      </trkpt>
      <trkpt lat="49.86304" lon="4.77831">
        <ele>321</ele>
        <time>2022-09-18T09:31:17.000Z</time>
      </trkpt>
      <trkpt lat="49.86302" lon="4.77833">
        <ele>321</ele>
        <time>2022-09-18T09:31:18.000Z</time>
      </trkpt>
      <trkpt lat="49.863" lon="4.77836">
        <ele>321</ele>
        <time>2022-09-18T09:31:19.000Z</time>
      </trkpt>
      <trkpt lat="49.86299" lon="4.77838">
        <ele>321</ele>
        <time>2022-09-18T09:31:20.000Z</time>
      </trkpt>
      <trkpt lat="49.86298" lon="4.7784">
        <ele>322</ele>
        <time>2022-09-18T09:31:21.000Z</time>
      </trkpt>
      <trkpt lat="49.86297" lon="4.77841">
        <ele>322</ele>
        <time>2022-09-18T09:31:22.000Z</time>
      </trkpt>
      <trkpt lat="49.86296" lon="4.77843">
        <ele>322</ele>
        <time>2022-09-18T09:31:23.000Z</time>
      </trkpt>
      <trkpt lat="49.86295" lon="4.77844">
        <ele>322</ele>
        <time>2022-09-18T09:31:24.000Z</time>
      </trkpt>
      <trkpt lat="49.86293" lon="4.77846">
        <ele>322</ele>
        <time>2022-09-18T09:31:25.000Z</time>
      </trkpt>
      <trkpt lat="49.86291" lon="4.77848">
        <ele>322</ele>
        <time>2022-09-18T09:31:26.000Z</time>
      </trkpt>
      <trkpt lat="49.86288" lon="4.7785">
        <ele>322</ele>
        <time>2022-09-18T09:31:27.000Z</time>
      </trkpt>
      <trkpt lat="49.86285" lon="4.77851">
        <ele>322</ele>
        <time>2022-09-18T09:31:28.000Z</time>
      </trkpt>
      <trkpt lat="49.86281" lon="4.77853">
        <ele>322</ele>
        <time>2022-09-18T09:31:29.000Z</time>
      </trkpt>
      <trkpt lat="49.86278" lon="4.77854">
        <ele>322</ele>
        <time>2022-09-18T09:31:30.000Z</time>
      </trkpt>
      <trkpt lat="49.86274" lon="4.77854">
        <ele>322</ele>
        <time>2022-09-18T09:31:31.000Z</time>
      </trkpt>
      <trkpt lat="49.86271" lon="4.77852">
        <ele>322</ele>
        <time>2022-09-18T09:31:32.000Z</time>
      </trkpt>
      <trkpt lat="49.86269" lon="4.7785">
        <ele>322</ele>
        <time>2022-09-18T09:31:33.000Z</time>
      </trkpt>
      <trkpt lat="49.86265" lon="4.77846">
        <ele>322</ele>
        <time>2022-09-18T09:31:34.000Z</time>
      </trkpt>
      <trkpt lat="49.86263" lon="4.77841">
        <ele>322</ele>
        <time>2022-09-18T09:31:35.000Z</time>
      </trkpt>
      <trkpt lat="49.86262" lon="4.77835">
        <ele>322</ele>
        <time>2022-09-18T09:31:36.000Z</time>
      </trkpt>
      <trkpt lat="49.86261" lon="4.77829">
        <ele>322</ele>
        <time>2022-09-18T09:31:37.000Z</time>
      </trkpt>
      <trkpt lat="49.86261" lon="4.77822">
        <ele>322</ele>
        <time>2022-09-18T09:31:38.000Z</time>
      </trkpt>
      <trkpt lat="49.86261" lon="4.77815">
        <ele>322</ele>
        <time>2022-09-18T09:31:39.000Z</time>
      </trkpt>
      <trkpt lat="49.86262" lon="4.77809">
        <ele>322</ele>
        <time>2022-09-18T09:31:40.000Z</time>
      </trkpt>
      <trkpt lat="49.86264" lon="4.77803">
        <ele>322</ele>
        <time>2022-09-18T09:31:41.000Z</time>
      </trkpt>
      <trkpt lat="49.86266" lon="4.77797">
        <ele>322</ele>
        <time>2022-09-18T09:31:42.000Z</time>
      </trkpt>
      <trkpt lat="49.86267" lon="4.77791">
        <ele>322</ele>
        <time>2022-09-18T09:31:43.000Z</time>
      </trkpt>
      <trkpt lat="49.86268" lon="4.77784">
        <ele>322</ele>
        <time>2022-09-18T09:31:44.000Z</time>
      </trkpt>
      <trkpt lat="49.86269" lon="4.77778">
        <ele>323</ele>
        <time>2022-09-18T09:31:45.000Z</time>
      </trkpt>
      <trkpt lat="49.86269" lon="4.77771">
        <ele>323</ele>
        <time>2022-09-18T09:31:46.000Z</time>
      </trkpt>
      <trkpt lat="49.86269" lon="4.77764">
        <ele>323</ele>
        <time>2022-09-18T09:31:47.000Z</time>
      </trkpt>
      <trkpt lat="49.8627" lon="4.77758">
        <ele>323</ele>
        <time>2022-09-18T09:31:48.000Z</time>
      </trkpt>
      <trkpt lat="49.86271" lon="4.77752">
        <ele>323</ele>
        <time>2022-09-18T09:31:49.000Z</time>
      </trkpt>
      <trkpt lat="49.86273" lon="4.77748">
        <ele>323</ele>
        <time>2022-09-18T09:31:50.000Z</time>
      </trkpt>
      <trkpt lat="49.86274" lon="4.77743">
        <ele>323</ele>
        <time>2022-09-18T09:31:51.000Z</time>
      </trkpt>
      <trkpt lat="49.86275" lon="4.77738">
        <ele>323</ele>
        <time>2022-09-18T09:31:52.000Z</time>
      </trkpt>
      <trkpt lat="49.86274" lon="4.77734">
        <ele>323</ele>
        <time>2022-09-18T09:31:53.000Z</time>
      </trkpt>
      <trkpt lat="49.86272" lon="4.77731">
        <ele>324</ele>
        <time>2022-09-18T09:31:54.000Z</time>
      </trkpt>
      <trkpt lat="49.8627" lon="4.77727">
        <ele>324</ele>
        <time>2022-09-18T09:31:55.000Z</time>
      </trkpt>
      <trkpt lat="49.86266" lon="4.77725">
        <ele>324</ele>
        <time>2022-09-18T09:31:56.000Z</time>
      </trkpt>
      <trkpt lat="49.86263" lon="4.77723">
        <ele>324</ele>
        <time>2022-09-18T09:31:57.000Z</time>
      </trkpt>
      <trkpt lat="49.86261" lon="4.77722">
        <ele>324</ele>
        <time>2022-09-18T09:31:58.000Z</time>
      </trkpt>
      <trkpt lat="49.86258" lon="4.7772">
        <ele>324</ele>
        <time>2022-09-18T09:31:59.000Z</time>
      </trkpt>
      <trkpt lat="49.86256" lon="4.77718">
        <ele>325</ele>
        <time>2022-09-18T09:32:00.000Z</time>
      </trkpt>
      <trkpt lat="49.86253" lon="4.77716">
        <ele>325</ele>
        <time>2022-09-18T09:32:01.000Z</time>
      </trkpt>
      <trkpt lat="49.8625" lon="4.77715">
        <ele>325</ele>
        <time>2022-09-18T09:32:02.000Z</time>
      </trkpt>
      <trkpt lat="49.86247" lon="4.77714">
        <ele>325</ele>
        <time>2022-09-18T09:32:03.000Z</time>
      </trkpt>
      <trkpt lat="49.86245" lon="4.77712">
        <ele>326</ele>
        <time>2022-09-18T09:32:04.000Z</time>
      </trkpt>
      <trkpt lat="49.86242" lon="4.77711">
        <ele>326</ele>
        <time>2022-09-18T09:32:05.000Z</time>
      </trkpt>
      <trkpt lat="49.86239" lon="4.77709">
        <ele>326</ele>
        <time>2022-09-18T09:32:06.000Z</time>
      </trkpt>
      <trkpt lat="49.86235" lon="4.77706">
        <ele>327</ele>
        <time>2022-09-18T09:32:07.000Z</time>
      </trkpt>
      <trkpt lat="49.86233" lon="4.77703">
        <ele>327</ele>
        <time>2022-09-18T09:32:08.000Z</time>
      </trkpt>
      <trkpt lat="49.86229" lon="4.77702">
        <ele>327</ele>
        <time>2022-09-18T09:32:09.000Z</time>
      </trkpt>
      <trkpt lat="49.86226" lon="4.77701">
        <ele>327</ele>
        <time>2022-09-18T09:32:10.000Z</time>
      </trkpt>
      <trkpt lat="49.86222" lon="4.777">
        <ele>327</ele>
        <time>2022-09-18T09:32:11.000Z</time>
      </trkpt>
      <trkpt lat="49.86218" lon="4.77699">
        <ele>328</ele>
        <time>2022-09-18T09:32:12.000Z</time>
      </trkpt>
      <trkpt lat="49.86213" lon="4.77699">
        <ele>328</ele>
        <time>2022-09-18T09:32:13.000Z</time>
      </trkpt>
      <trkpt lat="49.86209" lon="4.77698">
        <ele>328</ele>
        <time>2022-09-18T09:32:14.000Z</time>
      </trkpt>
      <trkpt lat="49.86204" lon="4.77697">
        <ele>328</ele>
        <time>2022-09-18T09:32:15.000Z</time>
      </trkpt>
      <trkpt lat="49.86199" lon="4.77696">
        <ele>328</ele>
        <time>2022-09-18T09:32:16.000Z</time>
      </trkpt>
      <trkpt lat="49.86194" lon="4.77695">
        <ele>328</ele>
        <time>2022-09-18T09:32:17.000Z</time>
      </trkpt>
      <trkpt lat="49.86188" lon="4.77694">
        <ele>327</ele>
        <time>2022-09-18T09:32:18.000Z</time>
      </trkpt>
      <trkpt lat="49.86182" lon="4.77693">
        <ele>327</ele>
        <time>2022-09-18T09:32:19.000Z</time>
      </trkpt>
      <trkpt lat="49.86176" lon="4.77692">
        <ele>327</ele>
        <time>2022-09-18T09:32:20.000Z</time>
      </trkpt>
      <trkpt lat="49.86171" lon="4.7769">
        <ele>327</ele>
        <time>2022-09-18T09:32:21.000Z</time>
      </trkpt>
      <trkpt lat="49.86166" lon="4.7769">
        <ele>327</ele>
        <time>2022-09-18T09:32:22.000Z</time>
      </trkpt>
      <trkpt lat="49.86161" lon="4.7769">
        <ele>327</ele>
        <time>2022-09-18T09:32:23.000Z</time>
      </trkpt>
      <trkpt lat="49.86156" lon="4.77689">
        <ele>327</ele>
        <time>2022-09-18T09:32:24.000Z</time>
      </trkpt>
      <trkpt lat="49.86153" lon="4.77688">
        <ele>327</ele>
        <time>2022-09-18T09:32:25.000Z</time>
      </trkpt>
      <trkpt lat="49.86149" lon="4.77688">
        <ele>328</ele>
        <time>2022-09-18T09:32:26.000Z</time>
      </trkpt>
      <trkpt lat="49.86144" lon="4.77687">
        <ele>328</ele>
        <time>2022-09-18T09:32:27.000Z</time>
      </trkpt>
      <trkpt lat="49.86141" lon="4.77687">
        <ele>328</ele>
        <time>2022-09-18T09:32:28.000Z</time>
      </trkpt>
      <trkpt lat="49.86137" lon="4.77687">
        <ele>328</ele>
        <time>2022-09-18T09:32:29.000Z</time>
      </trkpt>
      <trkpt lat="49.86133" lon="4.77687">
        <ele>329</ele>
        <time>2022-09-18T09:32:30.000Z</time>
      </trkpt>
      <trkpt lat="49.8613" lon="4.77687">
        <ele>329</ele>
        <time>2022-09-18T09:32:31.000Z</time>
      </trkpt>
      <trkpt lat="49.86126" lon="4.77685">
        <ele>329</ele>
        <time>2022-09-18T09:32:32.000Z</time>
      </trkpt>
      <trkpt lat="49.86123" lon="4.77684">
        <ele>330</ele>
        <time>2022-09-18T09:32:33.000Z</time>
      </trkpt>
      <trkpt lat="49.8612" lon="4.77684">
        <ele>330</ele>
        <time>2022-09-18T09:32:34.000Z</time>
      </trkpt>
      <trkpt lat="49.86117" lon="4.77683">
        <ele>330</ele>
        <time>2022-09-18T09:32:35.000Z</time>
      </trkpt>
      <trkpt lat="49.86113" lon="4.77682">
        <ele>330</ele>
        <time>2022-09-18T09:32:36.000Z</time>
      </trkpt>
      <trkpt lat="49.8611" lon="4.77682">
        <ele>330</ele>
        <time>2022-09-18T09:32:37.000Z</time>
      </trkpt>
      <trkpt lat="49.86107" lon="4.77683">
        <ele>330</ele>
        <time>2022-09-18T09:32:38.000Z</time>
      </trkpt>
      <trkpt lat="49.86104" lon="4.77684">
        <ele>330</ele>
        <time>2022-09-18T09:32:39.000Z</time>
      </trkpt>
      <trkpt lat="49.86101" lon="4.77684">
        <ele>331</ele>
        <time>2022-09-18T09:32:40.000Z</time>
      </trkpt>
      <trkpt lat="49.86096" lon="4.77684">
        <ele>331</ele>
        <time>2022-09-18T09:32:41.000Z</time>
      </trkpt>
      <trkpt lat="49.86093" lon="4.77685">
        <ele>331</ele>
        <time>2022-09-18T09:32:42.000Z</time>
      </trkpt>
      <trkpt lat="49.86089" lon="4.77684">
        <ele>331</ele>
        <time>2022-09-18T09:32:43.000Z</time>
      </trkpt>
      <trkpt lat="49.86084" lon="4.77685">
        <ele>331</ele>
        <time>2022-09-18T09:32:44.000Z</time>
      </trkpt>
      <trkpt lat="49.86078" lon="4.77685">
        <ele>331</ele>
        <time>2022-09-18T09:32:45.000Z</time>
      </trkpt>
      <trkpt lat="49.86073" lon="4.77686">
        <ele>331</ele>
        <time>2022-09-18T09:32:46.000Z</time>
      </trkpt>
      <trkpt lat="49.86067" lon="4.77687">
        <ele>331</ele>
        <time>2022-09-18T09:32:47.000Z</time>
      </trkpt>
      <trkpt lat="49.86062" lon="4.77688">
        <ele>331</ele>
        <time>2022-09-18T09:32:48.000Z</time>
      </trkpt>
      <trkpt lat="49.86057" lon="4.77688">
        <ele>331</ele>
        <time>2022-09-18T09:32:49.000Z</time>
      </trkpt>
      <trkpt lat="49.86053" lon="4.77689">
        <ele>331</ele>
        <time>2022-09-18T09:32:50.000Z</time>
      </trkpt>
      <trkpt lat="49.86048" lon="4.7769">
        <ele>331</ele>
        <time>2022-09-18T09:32:51.000Z</time>
      </trkpt>
      <trkpt lat="49.86043" lon="4.77691">
        <ele>331</ele>
        <time>2022-09-18T09:32:52.000Z</time>
      </trkpt>
      <trkpt lat="49.86038" lon="4.77691">
        <ele>331</ele>
        <time>2022-09-18T09:32:53.000Z</time>
      </trkpt>
      <trkpt lat="49.86033" lon="4.77692">
        <ele>331</ele>
        <time>2022-09-18T09:32:54.000Z</time>
      </trkpt>
      <trkpt lat="49.86028" lon="4.77693">
        <ele>331</ele>
        <time>2022-09-18T09:32:55.000Z</time>
      </trkpt>
      <trkpt lat="49.86023" lon="4.77693">
        <ele>332</ele>
        <time>2022-09-18T09:32:56.000Z</time>
      </trkpt>
      <trkpt lat="49.86019" lon="4.77695">
        <ele>332</ele>
        <time>2022-09-18T09:32:57.000Z</time>
      </trkpt>
      <trkpt lat="49.86014" lon="4.77696">
        <ele>332</ele>
        <time>2022-09-18T09:32:58.000Z</time>
      </trkpt>
      <trkpt lat="49.8601" lon="4.77697">
        <ele>332</ele>
        <time>2022-09-18T09:32:59.000Z</time>
      </trkpt>
      <trkpt lat="49.86006" lon="4.77698">
        <ele>332</ele>
        <time>2022-09-18T09:33:00.000Z</time>
      </trkpt>
      <trkpt lat="49.86002" lon="4.77699">
        <ele>332</ele>
        <time>2022-09-18T09:33:01.000Z</time>
      </trkpt>
      <trkpt lat="49.85998" lon="4.777">
        <ele>332</ele>
        <time>2022-09-18T09:33:02.000Z</time>
      </trkpt>
      <trkpt lat="49.85995" lon="4.777">
        <ele>332</ele>
        <time>2022-09-18T09:33:03.000Z</time>
      </trkpt>
      <trkpt lat="49.85992" lon="4.77701">
        <ele>332</ele>
        <time>2022-09-18T09:33:04.000Z</time>
      </trkpt>
      <trkpt lat="49.85989" lon="4.77701">
        <ele>332</ele>
        <time>2022-09-18T09:33:05.000Z</time>
      </trkpt>
      <trkpt lat="49.85985" lon="4.77702">
        <ele>332</ele>
        <time>2022-09-18T09:33:06.000Z</time>
      </trkpt>
      <trkpt lat="49.85981" lon="4.77703">
        <ele>332</ele>
        <time>2022-09-18T09:33:07.000Z</time>
      </trkpt>
      <trkpt lat="49.85976" lon="4.77705">
        <ele>332</ele>
        <time>2022-09-18T09:33:08.000Z</time>
      </trkpt>
      <trkpt lat="49.8597" lon="4.77707">
        <ele>332</ele>
        <time>2022-09-18T09:33:09.000Z</time>
      </trkpt>
      <trkpt lat="49.85964" lon="4.77709">
        <ele>332</ele>
        <time>2022-09-18T09:33:10.000Z</time>
      </trkpt>
      <trkpt lat="49.85957" lon="4.77711">
        <ele>332</ele>
        <time>2022-09-18T09:33:11.000Z</time>
      </trkpt>
      <trkpt lat="49.85951" lon="4.77713">
        <ele>332</ele>
        <time>2022-09-18T09:33:12.000Z</time>
      </trkpt>
      <trkpt lat="49.85945" lon="4.77715">
        <ele>331</ele>
        <time>2022-09-18T09:33:13.000Z</time>
      </trkpt>
      <trkpt lat="49.85939" lon="4.77718">
        <ele>331</ele>
        <time>2022-09-18T09:33:14.000Z</time>
      </trkpt>
      <trkpt lat="49.85934" lon="4.7772">
        <ele>331</ele>
        <time>2022-09-18T09:33:15.000Z</time>
      </trkpt>
      <trkpt lat="49.85929" lon="4.77723">
        <ele>330</ele>
        <time>2022-09-18T09:33:16.000Z</time>
      </trkpt>
      <trkpt lat="49.85925" lon="4.77725">
        <ele>330</ele>
        <time>2022-09-18T09:33:17.000Z</time>
      </trkpt>
      <trkpt lat="49.8592" lon="4.77728">
        <ele>330</ele>
        <time>2022-09-18T09:33:18.000Z</time>
      </trkpt>
      <trkpt lat="49.85916" lon="4.77729">
        <ele>329</ele>
        <time>2022-09-18T09:33:19.000Z</time>
      </trkpt>
      <trkpt lat="49.85911" lon="4.77731">
        <ele>329</ele>
        <time>2022-09-18T09:33:20.000Z</time>
      </trkpt>
      <trkpt lat="49.85907" lon="4.77732">
        <ele>328</ele>
        <time>2022-09-18T09:33:21.000Z</time>
      </trkpt>
      <trkpt lat="49.85903" lon="4.77735">
        <ele>328</ele>
        <time>2022-09-18T09:33:22.000Z</time>
      </trkpt>
      <trkpt lat="49.85899" lon="4.77737">
        <ele>327</ele>
        <time>2022-09-18T09:33:23.000Z</time>
      </trkpt>
      <trkpt lat="49.85894" lon="4.77738">
        <ele>327</ele>
        <time>2022-09-18T09:33:24.000Z</time>
      </trkpt>
      <trkpt lat="49.8589" lon="4.7774">
        <ele>326</ele>
        <time>2022-09-18T09:33:25.000Z</time>
      </trkpt>
      <trkpt lat="49.85886" lon="4.77744">
        <ele>326</ele>
        <time>2022-09-18T09:33:26.000Z</time>
      </trkpt>
      <trkpt lat="49.85881" lon="4.77746">
        <ele>325</ele>
        <time>2022-09-18T09:33:27.000Z</time>
      </trkpt>
      <trkpt lat="49.85876" lon="4.77749">
        <ele>325</ele>
        <time>2022-09-18T09:33:28.000Z</time>
      </trkpt>
      <trkpt lat="49.85871" lon="4.77752">
        <ele>324</ele>
        <time>2022-09-18T09:33:29.000Z</time>
      </trkpt>
      <trkpt lat="49.85866" lon="4.77755">
        <ele>324</ele>
        <time>2022-09-18T09:33:30.000Z</time>
      </trkpt>
      <trkpt lat="49.8586" lon="4.77757">
        <ele>324</ele>
        <time>2022-09-18T09:33:31.000Z</time>
      </trkpt>
      <trkpt lat="49.85854" lon="4.77758">
        <ele>323</ele>
        <time>2022-09-18T09:33:32.000Z</time>
      </trkpt>
      <trkpt lat="49.85848" lon="4.77759">
        <ele>323</ele>
        <time>2022-09-18T09:33:33.000Z</time>
      </trkpt>
      <trkpt lat="49.85842" lon="4.7776">
        <ele>322</ele>
        <time>2022-09-18T09:33:34.000Z</time>
      </trkpt>
      <trkpt lat="49.85836" lon="4.77761">
        <ele>322</ele>
        <time>2022-09-18T09:33:35.000Z</time>
      </trkpt>
      <trkpt lat="49.8583" lon="4.77761">
        <ele>321</ele>
        <time>2022-09-18T09:33:36.000Z</time>
      </trkpt>
      <trkpt lat="49.85825" lon="4.77762">
        <ele>321</ele>
        <time>2022-09-18T09:33:37.000Z</time>
      </trkpt>
      <trkpt lat="49.85819" lon="4.77763">
        <ele>320</ele>
        <time>2022-09-18T09:33:38.000Z</time>
      </trkpt>
      <trkpt lat="49.85813" lon="4.77764">
        <ele>320</ele>
        <time>2022-09-18T09:33:39.000Z</time>
      </trkpt>
      <trkpt lat="49.85809" lon="4.77766">
        <ele>319</ele>
        <time>2022-09-18T09:33:40.000Z</time>
      </trkpt>
      <trkpt lat="49.85804" lon="4.77767">
        <ele>319</ele>
        <time>2022-09-18T09:33:41.000Z</time>
      </trkpt>
      <trkpt lat="49.85799" lon="4.77768">
        <ele>318</ele>
        <time>2022-09-18T09:33:42.000Z</time>
      </trkpt>
      <trkpt lat="49.85794" lon="4.77768">
        <ele>318</ele>
        <time>2022-09-18T09:33:43.000Z</time>
      </trkpt>
      <trkpt lat="49.8579" lon="4.77768">
        <ele>317</ele>
        <time>2022-09-18T09:33:44.000Z</time>
      </trkpt>
      <trkpt lat="49.85787" lon="4.77768">
        <ele>316</ele>
        <time>2022-09-18T09:33:45.000Z</time>
      </trkpt>
      <trkpt lat="49.85785" lon="4.77768">
        <ele>316</ele>
        <time>2022-09-18T09:33:46.000Z</time>
      </trkpt>
      <trkpt lat="49.85782" lon="4.77766">
        <ele>315</ele>
        <time>2022-09-18T09:33:47.000Z</time>
      </trkpt>
      <trkpt lat="49.85781" lon="4.77763">
        <ele>315</ele>
        <time>2022-09-18T09:33:48.000Z</time>
      </trkpt>
      <trkpt lat="49.85779" lon="4.77758">
        <ele>314</ele>
        <time>2022-09-18T09:33:49.000Z</time>
      </trkpt>
      <trkpt lat="49.85776" lon="4.77753">
        <ele>314</ele>
        <time>2022-09-18T09:33:50.000Z</time>
      </trkpt>
      <trkpt lat="49.85773" lon="4.77749">
        <ele>314</ele>
        <time>2022-09-18T09:33:51.000Z</time>
      </trkpt>
      <trkpt lat="49.85768" lon="4.77747">
        <ele>313</ele>
        <time>2022-09-18T09:33:52.000Z</time>
      </trkpt>
      <trkpt lat="49.85764" lon="4.77746">
        <ele>313</ele>
        <time>2022-09-18T09:33:53.000Z</time>
      </trkpt>
      <trkpt lat="49.85759" lon="4.77746">
        <ele>312</ele>
        <time>2022-09-18T09:33:54.000Z</time>
      </trkpt>
      <trkpt lat="49.85754" lon="4.77747">
        <ele>312</ele>
        <time>2022-09-18T09:33:55.000Z</time>
      </trkpt>
      <trkpt lat="49.8575" lon="4.77748">
        <ele>312</ele>
        <time>2022-09-18T09:33:56.000Z</time>
      </trkpt>
      <trkpt lat="49.85745" lon="4.7775">
        <ele>312</ele>
        <time>2022-09-18T09:33:57.000Z</time>
      </trkpt>
      <trkpt lat="49.8574" lon="4.77752">
        <ele>311</ele>
        <time>2022-09-18T09:33:58.000Z</time>
      </trkpt>
      <trkpt lat="49.85735" lon="4.77753">
        <ele>311</ele>
        <time>2022-09-18T09:33:59.000Z</time>
      </trkpt>
      <trkpt lat="49.8573" lon="4.77755">
        <ele>311</ele>
        <time>2022-09-18T09:34:00.000Z</time>
      </trkpt>
      <trkpt lat="49.85726" lon="4.77757">
        <ele>311</ele>
        <time>2022-09-18T09:34:01.000Z</time>
      </trkpt>
      <trkpt lat="49.85722" lon="4.7776">
        <ele>310</ele>
        <time>2022-09-18T09:34:02.000Z</time>
      </trkpt>
      <trkpt lat="49.85718" lon="4.77762">
        <ele>310</ele>
        <time>2022-09-18T09:34:03.000Z</time>
      </trkpt>
      <trkpt lat="49.85714" lon="4.77765">
        <ele>310</ele>
        <time>2022-09-18T09:34:04.000Z</time>
      </trkpt>
      <trkpt lat="49.85711" lon="4.77767">
        <ele>310</ele>
        <time>2022-09-18T09:34:05.000Z</time>
      </trkpt>
      <trkpt lat="49.85706" lon="4.77769">
        <ele>310</ele>
        <time>2022-09-18T09:34:06.000Z</time>
      </trkpt>
      <trkpt lat="49.85703" lon="4.77772">
        <ele>310</ele>
        <time>2022-09-18T09:34:07.000Z</time>
      </trkpt>
      <trkpt lat="49.85698" lon="4.77774">
        <ele>310</ele>
        <time>2022-09-18T09:34:08.000Z</time>
      </trkpt>
      <trkpt lat="49.85694" lon="4.77776">
        <ele>310</ele>
        <time>2022-09-18T09:34:09.000Z</time>
      </trkpt>
      <trkpt lat="49.85691" lon="4.77778">
        <ele>310</ele>
        <time>2022-09-18T09:34:10.000Z</time>
      </trkpt>
      <trkpt lat="49.85687" lon="4.77781">
        <ele>310</ele>
        <time>2022-09-18T09:34:11.000Z</time>
      </trkpt>
      <trkpt lat="49.85684" lon="4.77784">
        <ele>311</ele>
        <time>2022-09-18T09:34:12.000Z</time>
      </trkpt>
      <trkpt lat="49.8568" lon="4.77787">
        <ele>311</ele>
        <time>2022-09-18T09:34:13.000Z</time>
      </trkpt>
      <trkpt lat="49.85677" lon="4.7779">
        <ele>311</ele>
        <time>2022-09-18T09:34:14.000Z</time>
      </trkpt>
      <trkpt lat="49.85673" lon="4.77794">
        <ele>311</ele>
        <time>2022-09-18T09:34:15.000Z</time>
      </trkpt>
      <trkpt lat="49.8567" lon="4.77796">
        <ele>311</ele>
        <time>2022-09-18T09:34:16.000Z</time>
      </trkpt>
      <trkpt lat="49.85667" lon="4.77797">
        <ele>311</ele>
        <time>2022-09-18T09:34:17.000Z</time>
      </trkpt>
      <trkpt lat="49.85663" lon="4.77797">
        <ele>311</ele>
        <time>2022-09-18T09:34:18.000Z</time>
      </trkpt>
      <trkpt lat="49.85661" lon="4.77796">
        <ele>311</ele>
        <time>2022-09-18T09:34:19.000Z</time>
      </trkpt>
      <trkpt lat="49.8566" lon="4.77796">
        <ele>311</ele>
        <time>2022-09-18T09:34:20.000Z</time>
      </trkpt>
      <trkpt lat="49.85659" lon="4.77796">
        <ele>311</ele>
        <time>2022-09-18T09:34:21.000Z</time>
      </trkpt>
      <trkpt lat="49.85657" lon="4.77796">
        <ele>312</ele>
        <time>2022-09-18T09:34:22.000Z</time>
      </trkpt>
      <trkpt lat="49.85656" lon="4.77797">
        <ele>312</ele>
        <time>2022-09-18T09:34:23.000Z</time>
      </trkpt>
      <trkpt lat="49.85653" lon="4.77798">
        <ele>312</ele>
        <time>2022-09-18T09:34:24.000Z</time>
      </trkpt>
      <trkpt lat="49.85652" lon="4.778">
        <ele>312</ele>
        <time>2022-09-18T09:34:25.000Z</time>
      </trkpt>
      <trkpt lat="49.8565" lon="4.77802">
        <ele>312</ele>
        <time>2022-09-18T09:34:26.000Z</time>
      </trkpt>
      <trkpt lat="49.85648" lon="4.77805">
        <ele>312</ele>
        <time>2022-09-18T09:34:27.000Z</time>
      </trkpt>
      <trkpt lat="49.85645" lon="4.77807">
        <ele>312</ele>
        <time>2022-09-18T09:34:28.000Z</time>
      </trkpt>
      <trkpt lat="49.85642" lon="4.77809">
        <ele>312</ele>
        <time>2022-09-18T09:34:29.000Z</time>
      </trkpt>
      <trkpt lat="49.85639" lon="4.77811">
        <ele>313</ele>
        <time>2022-09-18T09:34:30.000Z</time>
      </trkpt>
      <trkpt lat="49.85637" lon="4.77813">
        <ele>313</ele>
        <time>2022-09-18T09:34:31.000Z</time>
      </trkpt>
      <trkpt lat="49.85634" lon="4.77815">
        <ele>313</ele>
        <time>2022-09-18T09:34:32.000Z</time>
      </trkpt>
      <trkpt lat="49.85632" lon="4.77816">
        <ele>313</ele>
        <time>2022-09-18T09:34:33.000Z</time>
      </trkpt>
      <trkpt lat="49.8563" lon="4.77818">
        <ele>313</ele>
        <time>2022-09-18T09:34:34.000Z</time>
      </trkpt>
      <trkpt lat="49.85627" lon="4.7782">
        <ele>313</ele>
        <time>2022-09-18T09:34:35.000Z</time>
      </trkpt>
      <trkpt lat="49.85624" lon="4.77822">
        <ele>313</ele>
        <time>2022-09-18T09:34:36.000Z</time>
      </trkpt>
      <trkpt lat="49.85621" lon="4.77825">
        <ele>313</ele>
        <time>2022-09-18T09:34:37.000Z</time>
      </trkpt>
      <trkpt lat="49.85618" lon="4.77828">
        <ele>313</ele>
        <time>2022-09-18T09:34:38.000Z</time>
      </trkpt>
      <trkpt lat="49.85615" lon="4.77831">
        <ele>313</ele>
        <time>2022-09-18T09:34:39.000Z</time>
      </trkpt>
      <trkpt lat="49.85612" lon="4.77836">
        <ele>313</ele>
        <time>2022-09-18T09:34:40.000Z</time>
      </trkpt>
      <trkpt lat="49.85609" lon="4.7784">
        <ele>313</ele>
        <time>2022-09-18T09:34:41.000Z</time>
      </trkpt>
      <trkpt lat="49.85605" lon="4.77844">
        <ele>313</ele>
        <time>2022-09-18T09:34:42.000Z</time>
      </trkpt>
      <trkpt lat="49.85602" lon="4.77848">
        <ele>313</ele>
        <time>2022-09-18T09:34:43.000Z</time>
      </trkpt>
      <trkpt lat="49.85598" lon="4.77852">
        <ele>313</ele>
        <time>2022-09-18T09:34:44.000Z</time>
      </trkpt>
      <trkpt lat="49.85595" lon="4.77857">
        <ele>313</ele>
        <time>2022-09-18T09:34:45.000Z</time>
      </trkpt>
      <trkpt lat="49.85593" lon="4.77862">
        <ele>313</ele>
        <time>2022-09-18T09:34:46.000Z</time>
      </trkpt>
      <trkpt lat="49.85591" lon="4.77866">
        <ele>313</ele>
        <time>2022-09-18T09:34:47.000Z</time>
      </trkpt>
      <trkpt lat="49.85588" lon="4.77871">
        <ele>313</ele>
        <time>2022-09-18T09:34:48.000Z</time>
      </trkpt>
      <trkpt lat="49.85585" lon="4.77876">
        <ele>313</ele>
        <time>2022-09-18T09:34:49.000Z</time>
      </trkpt>
      <trkpt lat="49.85583" lon="4.77881">
        <ele>313</ele>
        <time>2022-09-18T09:34:50.000Z</time>
      </trkpt>
      <trkpt lat="49.8558" lon="4.77887">
        <ele>313</ele>
        <time>2022-09-18T09:34:51.000Z</time>
      </trkpt>
      <trkpt lat="49.85578" lon="4.77893">
        <ele>313</ele>
        <time>2022-09-18T09:34:52.000Z</time>
      </trkpt>
      <trkpt lat="49.85575" lon="4.77899">
        <ele>313</ele>
        <time>2022-09-18T09:34:53.000Z</time>
      </trkpt>
      <trkpt lat="49.85574" lon="4.77905">
        <ele>313</ele>
        <time>2022-09-18T09:34:54.000Z</time>
      </trkpt>
      <trkpt lat="49.85572" lon="4.77911">
        <ele>313</ele>
        <time>2022-09-18T09:34:55.000Z</time>
      </trkpt>
      <trkpt lat="49.85571" lon="4.77918">
        <ele>313</ele>
        <time>2022-09-18T09:34:56.000Z</time>
      </trkpt>
      <trkpt lat="49.8557" lon="4.77923">
        <ele>313</ele>
        <time>2022-09-18T09:34:57.000Z</time>
      </trkpt>
      <trkpt lat="49.85568" lon="4.77929">
        <ele>314</ele>
        <time>2022-09-18T09:34:58.000Z</time>
      </trkpt>
      <trkpt lat="49.85566" lon="4.77934">
        <ele>314</ele>
        <time>2022-09-18T09:34:59.000Z</time>
      </trkpt>
      <trkpt lat="49.85565" lon="4.7794">
        <ele>314</ele>
        <time>2022-09-18T09:35:00.000Z</time>
      </trkpt>
      <trkpt lat="49.85563" lon="4.77946">
        <ele>313</ele>
        <time>2022-09-18T09:35:01.000Z</time>
      </trkpt>
      <trkpt lat="49.8556" lon="4.77951">
        <ele>313</ele>
        <time>2022-09-18T09:35:02.000Z</time>
      </trkpt>
      <trkpt lat="49.85559" lon="4.77957">
        <ele>313</ele>
        <time>2022-09-18T09:35:03.000Z</time>
      </trkpt>
      <trkpt lat="49.85557" lon="4.77962">
        <ele>313</ele>
        <time>2022-09-18T09:35:04.000Z</time>
      </trkpt>
      <trkpt lat="49.85555" lon="4.77967">
        <ele>313</ele>
        <time>2022-09-18T09:35:05.000Z</time>
      </trkpt>
      <trkpt lat="49.85553" lon="4.77972">
        <ele>313</ele>
        <time>2022-09-18T09:35:06.000Z</time>
      </trkpt>
      <trkpt lat="49.8555" lon="4.77977">
        <ele>313</ele>
        <time>2022-09-18T09:35:07.000Z</time>
      </trkpt>
      <trkpt lat="49.85548" lon="4.77982">
        <ele>312</ele>
        <time>2022-09-18T09:35:08.000Z</time>
      </trkpt>
      <trkpt lat="49.85546" lon="4.77987">
        <ele>312</ele>
        <time>2022-09-18T09:35:09.000Z</time>
      </trkpt>
      <trkpt lat="49.85544" lon="4.77992">
        <ele>312</ele>
        <time>2022-09-18T09:35:10.000Z</time>
      </trkpt>
      <trkpt lat="49.85542" lon="4.77998">
        <ele>312</ele>
        <time>2022-09-18T09:35:11.000Z</time>
      </trkpt>
      <trkpt lat="49.85541" lon="4.78004">
        <ele>312</ele>
        <time>2022-09-18T09:35:12.000Z</time>
      </trkpt>
      <trkpt lat="49.8554" lon="4.78009">
        <ele>311</ele>
        <time>2022-09-18T09:35:13.000Z</time>
      </trkpt>
      <trkpt lat="49.85539" lon="4.78014">
        <ele>311</ele>
        <time>2022-09-18T09:35:14.000Z</time>
      </trkpt>
      <trkpt lat="49.85537" lon="4.7802">
        <ele>311</ele>
        <time>2022-09-18T09:35:15.000Z</time>
      </trkpt>
      <trkpt lat="49.85536" lon="4.78025">
        <ele>311</ele>
        <time>2022-09-18T09:35:16.000Z</time>
      </trkpt>
      <trkpt lat="49.85534" lon="4.78031">
        <ele>311</ele>
        <time>2022-09-18T09:35:17.000Z</time>
      </trkpt>
      <trkpt lat="49.85533" lon="4.78037">
        <ele>311</ele>
        <time>2022-09-18T09:35:18.000Z</time>
      </trkpt>
      <trkpt lat="49.85531" lon="4.78042">
        <ele>311</ele>
        <time>2022-09-18T09:35:19.000Z</time>
      </trkpt>
      <trkpt lat="49.8553" lon="4.78047">
        <ele>310</ele>
        <time>2022-09-18T09:35:20.000Z</time>
      </trkpt>
      <trkpt lat="49.85528" lon="4.78053">
        <ele>310</ele>
        <time>2022-09-18T09:35:21.000Z</time>
      </trkpt>
      <trkpt lat="49.85527" lon="4.78059">
        <ele>310</ele>
        <time>2022-09-18T09:35:22.000Z</time>
      </trkpt>
      <trkpt lat="49.85525" lon="4.78065">
        <ele>310</ele>
        <time>2022-09-18T09:35:23.000Z</time>
      </trkpt>
      <trkpt lat="49.85523" lon="4.7807">
        <ele>310</ele>
        <time>2022-09-18T09:35:24.000Z</time>
      </trkpt>
      <trkpt lat="49.85522" lon="4.78075">
        <ele>310</ele>
        <time>2022-09-18T09:35:25.000Z</time>
      </trkpt>
      <trkpt lat="49.8552" lon="4.78079">
        <ele>310</ele>
        <time>2022-09-18T09:35:26.000Z</time>
      </trkpt>
      <trkpt lat="49.85518" lon="4.78083">
        <ele>310</ele>
        <time>2022-09-18T09:35:27.000Z</time>
      </trkpt>
      <trkpt lat="49.85515" lon="4.78087">
        <ele>310</ele>
        <time>2022-09-18T09:35:28.000Z</time>
      </trkpt>
      <trkpt lat="49.85513" lon="4.78092">
        <ele>310</ele>
        <time>2022-09-18T09:35:29.000Z</time>
      </trkpt>
      <trkpt lat="49.85511" lon="4.78097">
        <ele>310</ele>
        <time>2022-09-18T09:35:30.000Z</time>
      </trkpt>
      <trkpt lat="49.85509" lon="4.78101">
        <ele>310</ele>
        <time>2022-09-18T09:35:31.000Z</time>
      </trkpt>
      <trkpt lat="49.85507" lon="4.78105">
        <ele>310</ele>
        <time>2022-09-18T09:35:32.000Z</time>
      </trkpt>
      <trkpt lat="49.85505" lon="4.7811">
        <ele>310</ele>
        <time>2022-09-18T09:35:33.000Z</time>
      </trkpt>
      <trkpt lat="49.85503" lon="4.78115">
        <ele>310</ele>
        <time>2022-09-18T09:35:34.000Z</time>
      </trkpt>
      <trkpt lat="49.85501" lon="4.7812">
        <ele>310</ele>
        <time>2022-09-18T09:35:35.000Z</time>
      </trkpt>
      <trkpt lat="49.85498" lon="4.78126">
        <ele>310</ele>
        <time>2022-09-18T09:35:36.000Z</time>
      </trkpt>
      <trkpt lat="49.85496" lon="4.7813">
        <ele>310</ele>
        <time>2022-09-18T09:35:37.000Z</time>
      </trkpt>
      <trkpt lat="49.85493" lon="4.78134">
        <ele>310</ele>
        <time>2022-09-18T09:35:38.000Z</time>
      </trkpt>
      <trkpt lat="49.85491" lon="4.78138">
        <ele>310</ele>
        <time>2022-09-18T09:35:39.000Z</time>
      </trkpt>
      <trkpt lat="49.85489" lon="4.78142">
        <ele>310</ele>
        <time>2022-09-18T09:35:40.000Z</time>
      </trkpt>
      <trkpt lat="49.85487" lon="4.78147">
        <ele>310</ele>
        <time>2022-09-18T09:35:41.000Z</time>
      </trkpt>
      <trkpt lat="49.85485" lon="4.78151">
        <ele>310</ele>
        <time>2022-09-18T09:35:42.000Z</time>
      </trkpt>
      <trkpt lat="49.85483" lon="4.78157">
        <ele>310</ele>
        <time>2022-09-18T09:35:43.000Z</time>
      </trkpt>
      <trkpt lat="49.85481" lon="4.78162">
        <ele>310</ele>
        <time>2022-09-18T09:35:44.000Z</time>
      </trkpt>
      <trkpt lat="49.85479" lon="4.78166">
        <ele>310</ele>
        <time>2022-09-18T09:35:45.000Z</time>
      </trkpt>
      <trkpt lat="49.85477" lon="4.7817">
        <ele>311</ele>
        <time>2022-09-18T09:35:46.000Z</time>
      </trkpt>
      <trkpt lat="49.85476" lon="4.78174">
        <ele>311</ele>
        <time>2022-09-18T09:35:47.000Z</time>
      </trkpt>
      <trkpt lat="49.85474" lon="4.78177">
        <ele>311</ele>
        <time>2022-09-18T09:35:48.000Z</time>
      </trkpt>
      <trkpt lat="49.85473" lon="4.78179">
        <ele>311</ele>
        <time>2022-09-18T09:35:49.000Z</time>
      </trkpt>
      <trkpt lat="49.85471" lon="4.78182">
        <ele>311</ele>
        <time>2022-09-18T09:35:50.000Z</time>
      </trkpt>
      <trkpt lat="49.85468" lon="4.78186">
        <ele>311</ele>
        <time>2022-09-18T09:35:51.000Z</time>
      </trkpt>
      <trkpt lat="49.85466" lon="4.7819">
        <ele>311</ele>
        <time>2022-09-18T09:35:52.000Z</time>
      </trkpt>
      <trkpt lat="49.85463" lon="4.78194">
        <ele>311</ele>
        <time>2022-09-18T09:35:53.000Z</time>
      </trkpt>
      <trkpt lat="49.85461" lon="4.78198">
        <ele>311</ele>
        <time>2022-09-18T09:35:54.000Z</time>
      </trkpt>
      <trkpt lat="49.85458" lon="4.78201">
        <ele>311</ele>
        <time>2022-09-18T09:35:55.000Z</time>
      </trkpt>
      <trkpt lat="49.85455" lon="4.78205">
        <ele>311</ele>
        <time>2022-09-18T09:35:56.000Z</time>
      </trkpt>
      <trkpt lat="49.85452" lon="4.78209">
        <ele>312</ele>
        <time>2022-09-18T09:35:57.000Z</time>
      </trkpt>
      <trkpt lat="49.85449" lon="4.78212">
        <ele>312</ele>
        <time>2022-09-18T09:35:58.000Z</time>
      </trkpt>
      <trkpt lat="49.85446" lon="4.78216">
        <ele>312</ele>
        <time>2022-09-18T09:35:59.000Z</time>
      </trkpt>
      <trkpt lat="49.85444" lon="4.78221">
        <ele>312</ele>
        <time>2022-09-18T09:36:00.000Z</time>
      </trkpt>
      <trkpt lat="49.85442" lon="4.78223">
        <ele>312</ele>
        <time>2022-09-18T09:36:01.000Z</time>
      </trkpt>
      <trkpt lat="49.85439" lon="4.78226">
        <ele>312</ele>
        <time>2022-09-18T09:36:02.000Z</time>
      </trkpt>
      <trkpt lat="49.85437" lon="4.78229">
        <ele>312</ele>
        <time>2022-09-18T09:36:03.000Z</time>
      </trkpt>
      <trkpt lat="49.85436" lon="4.78232">
        <ele>312</ele>
        <time>2022-09-18T09:36:04.000Z</time>
      </trkpt>
      <trkpt lat="49.85434" lon="4.78235">
        <ele>313</ele>
        <time>2022-09-18T09:36:05.000Z</time>
      </trkpt>
      <trkpt lat="49.85432" lon="4.78238">
        <ele>313</ele>
        <time>2022-09-18T09:36:06.000Z</time>
      </trkpt>
      <trkpt lat="49.85431" lon="4.78241">
        <ele>313</ele>
        <time>2022-09-18T09:36:07.000Z</time>
      </trkpt>
      <trkpt lat="49.85431" lon="4.78244">
        <ele>313</ele>
        <time>2022-09-18T09:36:08.000Z</time>
      </trkpt>
      <trkpt lat="49.85432" lon="4.78247">
        <ele>313</ele>
        <time>2022-09-18T09:36:09.000Z</time>
      </trkpt>
      <trkpt lat="49.85432" lon="4.7825">
        <ele>313</ele>
        <time>2022-09-18T09:36:10.000Z</time>
      </trkpt>
      <trkpt lat="49.85434" lon="4.78253">
        <ele>313</ele>
        <time>2022-09-18T09:36:11.000Z</time>
      </trkpt>
      <trkpt lat="49.85435" lon="4.78257">
        <ele>313</ele>
        <time>2022-09-18T09:36:12.000Z</time>
      </trkpt>
      <trkpt lat="49.85437" lon="4.78259">
        <ele>313</ele>
        <time>2022-09-18T09:36:13.000Z</time>
      </trkpt>
      <trkpt lat="49.85438" lon="4.78263">
        <ele>314</ele>
        <time>2022-09-18T09:36:14.000Z</time>
      </trkpt>
      <trkpt lat="49.85439" lon="4.78266">
        <ele>314</ele>
        <time>2022-09-18T09:36:15.000Z</time>
      </trkpt>
      <trkpt lat="49.8544" lon="4.78268">
        <ele>314</ele>
        <time>2022-09-18T09:36:16.000Z</time>
      </trkpt>
      <trkpt lat="49.85442" lon="4.78271">
        <ele>314</ele>
        <time>2022-09-18T09:36:17.000Z</time>
      </trkpt>
      <trkpt lat="49.85443" lon="4.78273">
        <ele>315</ele>
        <time>2022-09-18T09:36:18.000Z</time>
      </trkpt>
      <trkpt lat="49.85444" lon="4.78275">
        <ele>315</ele>
        <time>2022-09-18T09:36:19.000Z</time>
      </trkpt>
      <trkpt lat="49.85446" lon="4.78278">
        <ele>315</ele>
        <time>2022-09-18T09:36:20.000Z</time>
      </trkpt>
      <trkpt lat="49.85447" lon="4.7828">
        <ele>316</ele>
        <time>2022-09-18T09:36:21.000Z</time>
      </trkpt>
      <trkpt lat="49.85449" lon="4.78283">
        <ele>316</ele>
        <time>2022-09-18T09:36:22.000Z</time>
      </trkpt>
      <trkpt lat="49.85451" lon="4.78285">
        <ele>316</ele>
        <time>2022-09-18T09:36:23.000Z</time>
      </trkpt>
      <trkpt lat="49.85453" lon="4.78287">
        <ele>317</ele>
        <time>2022-09-18T09:36:24.000Z</time>
      </trkpt>
      <trkpt lat="49.85454" lon="4.78289">
        <ele>317</ele>
        <time>2022-09-18T09:36:25.000Z</time>
      </trkpt>
      <trkpt lat="49.85455" lon="4.78292">
        <ele>317</ele>
        <time>2022-09-18T09:36:26.000Z</time>
      </trkpt>
      <trkpt lat="49.85455" lon="4.78295">
        <ele>317</ele>
        <time>2022-09-18T09:36:27.000Z</time>
      </trkpt>
      <trkpt lat="49.85455" lon="4.78299">
        <ele>317</ele>
        <time>2022-09-18T09:36:28.000Z</time>
      </trkpt>
      <trkpt lat="49.85454" lon="4.78304">
        <ele>317</ele>
        <time>2022-09-18T09:36:29.000Z</time>
      </trkpt>
      <trkpt lat="49.85453" lon="4.78308">
        <ele>318</ele>
        <time>2022-09-18T09:36:30.000Z</time>
      </trkpt>
      <trkpt lat="49.85452" lon="4.78311">
        <ele>318</ele>
        <time>2022-09-18T09:36:31.000Z</time>
      </trkpt>
      <trkpt lat="49.85451" lon="4.78316">
        <ele>318</ele>
        <time>2022-09-18T09:36:32.000Z</time>
      </trkpt>
      <trkpt lat="49.85449" lon="4.78321">
        <ele>318</ele>
        <time>2022-09-18T09:36:33.000Z</time>
      </trkpt>
      <trkpt lat="49.85447" lon="4.78325">
        <ele>318</ele>
        <time>2022-09-18T09:36:34.000Z</time>
      </trkpt>
      <trkpt lat="49.85446" lon="4.78329">
        <ele>318</ele>
        <time>2022-09-18T09:36:35.000Z</time>
      </trkpt>
      <trkpt lat="49.85444" lon="4.78334">
        <ele>318</ele>
        <time>2022-09-18T09:36:36.000Z</time>
      </trkpt>
      <trkpt lat="49.85442" lon="4.78339">
        <ele>318</ele>
        <time>2022-09-18T09:36:37.000Z</time>
      </trkpt>
      <trkpt lat="49.8544" lon="4.78343">
        <ele>318</ele>
        <time>2022-09-18T09:36:38.000Z</time>
      </trkpt>
      <trkpt lat="49.85438" lon="4.78348">
        <ele>318</ele>
        <time>2022-09-18T09:36:39.000Z</time>
      </trkpt>
      <trkpt lat="49.85436" lon="4.78353">
        <ele>318</ele>
        <time>2022-09-18T09:36:40.000Z</time>
      </trkpt>
      <trkpt lat="49.85434" lon="4.78359">
        <ele>318</ele>
        <time>2022-09-18T09:36:41.000Z</time>
      </trkpt>
      <trkpt lat="49.85433" lon="4.78364">
        <ele>318</ele>
        <time>2022-09-18T09:36:42.000Z</time>
      </trkpt>
      <trkpt lat="49.85431" lon="4.7837">
        <ele>318</ele>
        <time>2022-09-18T09:36:43.000Z</time>
      </trkpt>
      <trkpt lat="49.8543" lon="4.78375">
        <ele>319</ele>
        <time>2022-09-18T09:36:44.000Z</time>
      </trkpt>
      <trkpt lat="49.85428" lon="4.7838">
        <ele>319</ele>
        <time>2022-09-18T09:36:45.000Z</time>
      </trkpt>
      <trkpt lat="49.85427" lon="4.78386">
        <ele>319</ele>
        <time>2022-09-18T09:36:46.000Z</time>
      </trkpt>
      <trkpt lat="49.85426" lon="4.78391">
        <ele>319</ele>
        <time>2022-09-18T09:36:47.000Z</time>
      </trkpt>
      <trkpt lat="49.85425" lon="4.78396">
        <ele>319</ele>
        <time>2022-09-18T09:36:48.000Z</time>
      </trkpt>
      <trkpt lat="49.85424" lon="4.78401">
        <ele>319</ele>
        <time>2022-09-18T09:36:49.000Z</time>
      </trkpt>
      <trkpt lat="49.85422" lon="4.78406">
        <ele>319</ele>
        <time>2022-09-18T09:36:50.000Z</time>
      </trkpt>
      <trkpt lat="49.85421" lon="4.78411">
        <ele>320</ele>
        <time>2022-09-18T09:36:51.000Z</time>
      </trkpt>
      <trkpt lat="49.8542" lon="4.78416">
        <ele>320</ele>
        <time>2022-09-18T09:36:52.000Z</time>
      </trkpt>
      <trkpt lat="49.85419" lon="4.78422">
        <ele>320</ele>
        <time>2022-09-18T09:36:53.000Z</time>
      </trkpt>
      <trkpt lat="49.85419" lon="4.78428">
        <ele>320</ele>
        <time>2022-09-18T09:36:54.000Z</time>
      </trkpt>
      <trkpt lat="49.85418" lon="4.78433">
        <ele>320</ele>
        <time>2022-09-18T09:36:55.000Z</time>
      </trkpt>
      <trkpt lat="49.85417" lon="4.78439">
        <ele>320</ele>
        <time>2022-09-18T09:36:56.000Z</time>
      </trkpt>
      <trkpt lat="49.85417" lon="4.78444">
        <ele>321</ele>
        <time>2022-09-18T09:36:57.000Z</time>
      </trkpt>
      <trkpt lat="49.85416" lon="4.78449">
        <ele>321</ele>
        <time>2022-09-18T09:36:58.000Z</time>
      </trkpt>
      <trkpt lat="49.85416" lon="4.78455">
        <ele>321</ele>
        <time>2022-09-18T09:36:59.000Z</time>
      </trkpt>
      <trkpt lat="49.85415" lon="4.7846">
        <ele>321</ele>
        <time>2022-09-18T09:37:00.000Z</time>
      </trkpt>
      <trkpt lat="49.85415" lon="4.78466">
        <ele>321</ele>
        <time>2022-09-18T09:37:01.000Z</time>
      </trkpt>
      <trkpt lat="49.85415" lon="4.78471">
        <ele>321</ele>
        <time>2022-09-18T09:37:02.000Z</time>
      </trkpt>
      <trkpt lat="49.85414" lon="4.78477">
        <ele>321</ele>
        <time>2022-09-18T09:37:03.000Z</time>
      </trkpt>
      <trkpt lat="49.85414" lon="4.78482">
        <ele>322</ele>
        <time>2022-09-18T09:37:04.000Z</time>
      </trkpt>
      <trkpt lat="49.85415" lon="4.78488">
        <ele>322</ele>
        <time>2022-09-18T09:37:05.000Z</time>
      </trkpt>
      <trkpt lat="49.85414" lon="4.78493">
        <ele>322</ele>
        <time>2022-09-18T09:37:06.000Z</time>
      </trkpt>
      <trkpt lat="49.85414" lon="4.78499">
        <ele>322</ele>
        <time>2022-09-18T09:37:07.000Z</time>
      </trkpt>
      <trkpt lat="49.85414" lon="4.78504">
        <ele>322</ele>
        <time>2022-09-18T09:37:08.000Z</time>
      </trkpt>
      <trkpt lat="49.85415" lon="4.7851">
        <ele>323</ele>
        <time>2022-09-18T09:37:09.000Z</time>
      </trkpt>
      <trkpt lat="49.85415" lon="4.78515">
        <ele>323</ele>
        <time>2022-09-18T09:37:10.000Z</time>
      </trkpt>
      <trkpt lat="49.85416" lon="4.78521">
        <ele>323</ele>
        <time>2022-09-18T09:37:11.000Z</time>
      </trkpt>
      <trkpt lat="49.85416" lon="4.78527">
        <ele>323</ele>
        <time>2022-09-18T09:37:12.000Z</time>
      </trkpt>
      <trkpt lat="49.85417" lon="4.78533">
        <ele>323</ele>
        <time>2022-09-18T09:37:13.000Z</time>
      </trkpt>
      <trkpt lat="49.85417" lon="4.78539">
        <ele>323</ele>
        <time>2022-09-18T09:37:14.000Z</time>
      </trkpt>
      <trkpt lat="49.85417" lon="4.78545">
        <ele>323</ele>
        <time>2022-09-18T09:37:15.000Z</time>
      </trkpt>
      <trkpt lat="49.85417" lon="4.78551">
        <ele>323</ele>
        <time>2022-09-18T09:37:16.000Z</time>
      </trkpt>
      <trkpt lat="49.85417" lon="4.78556">
        <ele>324</ele>
        <time>2022-09-18T09:37:17.000Z</time>
      </trkpt>
      <trkpt lat="49.85417" lon="4.78562">
        <ele>324</ele>
        <time>2022-09-18T09:37:18.000Z</time>
      </trkpt>
      <trkpt lat="49.85416" lon="4.78568">
        <ele>324</ele>
        <time>2022-09-18T09:37:19.000Z</time>
      </trkpt>
      <trkpt lat="49.85416" lon="4.78573">
        <ele>324</ele>
        <time>2022-09-18T09:37:20.000Z</time>
      </trkpt>
      <trkpt lat="49.85416" lon="4.78579">
        <ele>324</ele>
        <time>2022-09-18T09:37:21.000Z</time>
      </trkpt>
      <trkpt lat="49.85416" lon="4.78584">
        <ele>324</ele>
        <time>2022-09-18T09:37:22.000Z</time>
      </trkpt>
      <trkpt lat="49.85415" lon="4.78589">
        <ele>324</ele>
        <time>2022-09-18T09:37:23.000Z</time>
      </trkpt>
      <trkpt lat="49.85415" lon="4.78595">
        <ele>324</ele>
        <time>2022-09-18T09:37:24.000Z</time>
      </trkpt>
      <trkpt lat="49.85414" lon="4.786">
        <ele>324</ele>
        <time>2022-09-18T09:37:25.000Z</time>
      </trkpt>
      <trkpt lat="49.85414" lon="4.78606">
        <ele>324</ele>
        <time>2022-09-18T09:37:26.000Z</time>
      </trkpt>
      <trkpt lat="49.85413" lon="4.78611">
        <ele>324</ele>
        <time>2022-09-18T09:37:27.000Z</time>
      </trkpt>
      <trkpt lat="49.85412" lon="4.78617">
        <ele>324</ele>
        <time>2022-09-18T09:37:28.000Z</time>
      </trkpt>
      <trkpt lat="49.8541" lon="4.78622">
        <ele>325</ele>
        <time>2022-09-18T09:37:29.000Z</time>
      </trkpt>
      <trkpt lat="49.85409" lon="4.78628">
        <ele>325</ele>
        <time>2022-09-18T09:37:30.000Z</time>
      </trkpt>
      <trkpt lat="49.85408" lon="4.78633">
        <ele>325</ele>
        <time>2022-09-18T09:37:31.000Z</time>
      </trkpt>
      <trkpt lat="49.85406" lon="4.78638">
        <ele>325</ele>
        <time>2022-09-18T09:37:32.000Z</time>
      </trkpt>
      <trkpt lat="49.85404" lon="4.78643">
        <ele>325</ele>
        <time>2022-09-18T09:37:33.000Z</time>
      </trkpt>
      <trkpt lat="49.85403" lon="4.78648">
        <ele>325</ele>
        <time>2022-09-18T09:37:34.000Z</time>
      </trkpt>
      <trkpt lat="49.854" lon="4.78653">
        <ele>325</ele>
        <time>2022-09-18T09:37:35.000Z</time>
      </trkpt>
      <trkpt lat="49.85398" lon="4.78657">
        <ele>326</ele>
        <time>2022-09-18T09:37:36.000Z</time>
      </trkpt>
      <trkpt lat="49.85395" lon="4.78661">
        <ele>326</ele>
        <time>2022-09-18T09:37:37.000Z</time>
      </trkpt>
      <trkpt lat="49.85392" lon="4.78664">
        <ele>326</ele>
        <time>2022-09-18T09:37:38.000Z</time>
      </trkpt>
      <trkpt lat="49.85389" lon="4.78667">
        <ele>326</ele>
        <time>2022-09-18T09:37:39.000Z</time>
      </trkpt>
      <trkpt lat="49.85386" lon="4.78671">
        <ele>326</ele>
        <time>2022-09-18T09:37:40.000Z</time>
      </trkpt>
      <trkpt lat="49.85383" lon="4.78674">
        <ele>326</ele>
        <time>2022-09-18T09:37:41.000Z</time>
      </trkpt>
      <trkpt lat="49.8538" lon="4.78677">
        <ele>326</ele>
        <time>2022-09-18T09:37:42.000Z</time>
      </trkpt>
      <trkpt lat="49.85377" lon="4.78679">
        <ele>327</ele>
        <time>2022-09-18T09:37:43.000Z</time>
      </trkpt>
      <trkpt lat="49.85374" lon="4.78681">
        <ele>327</ele>
        <time>2022-09-18T09:37:44.000Z</time>
      </trkpt>
      <trkpt lat="49.8537" lon="4.78683">
        <ele>327</ele>
        <time>2022-09-18T09:37:45.000Z</time>
      </trkpt>
      <trkpt lat="49.85366" lon="4.78684">
        <ele>327</ele>
        <time>2022-09-18T09:37:46.000Z</time>
      </trkpt>
      <trkpt lat="49.85363" lon="4.78686">
        <ele>327</ele>
        <time>2022-09-18T09:37:47.000Z</time>
      </trkpt>
      <trkpt lat="49.85359" lon="4.78687">
        <ele>327</ele>
        <time>2022-09-18T09:37:48.000Z</time>
      </trkpt>
      <trkpt lat="49.85355" lon="4.78688">
        <ele>327</ele>
        <time>2022-09-18T09:37:49.000Z</time>
      </trkpt>
      <trkpt lat="49.85351" lon="4.78689">
        <ele>327</ele>
        <time>2022-09-18T09:37:50.000Z</time>
      </trkpt>
      <trkpt lat="49.85347" lon="4.78689">
        <ele>327</ele>
        <time>2022-09-18T09:37:51.000Z</time>
      </trkpt>
      <trkpt lat="49.85344" lon="4.7869">
        <ele>327</ele>
        <time>2022-09-18T09:37:52.000Z</time>
      </trkpt>
      <trkpt lat="49.8534" lon="4.78691">
        <ele>327</ele>
        <time>2022-09-18T09:37:53.000Z</time>
      </trkpt>
      <trkpt lat="49.85337" lon="4.78692">
        <ele>327</ele>
        <time>2022-09-18T09:37:54.000Z</time>
      </trkpt>
      <trkpt lat="49.85334" lon="4.78694">
        <ele>327</ele>
        <time>2022-09-18T09:37:55.000Z</time>
      </trkpt>
      <trkpt lat="49.85332" lon="4.78697">
        <ele>327</ele>
        <time>2022-09-18T09:37:56.000Z</time>
      </trkpt>
      <trkpt lat="49.8533" lon="4.787">
        <ele>327</ele>
        <time>2022-09-18T09:37:57.000Z</time>
      </trkpt>
      <trkpt lat="49.85328" lon="4.78703">
        <ele>327</ele>
        <time>2022-09-18T09:37:58.000Z</time>
      </trkpt>
      <trkpt lat="49.85327" lon="4.78706">
        <ele>327</ele>
        <time>2022-09-18T09:37:59.000Z</time>
      </trkpt>
      <trkpt lat="49.85326" lon="4.7871">
        <ele>327</ele>
        <time>2022-09-18T09:38:00.000Z</time>
      </trkpt>
      <trkpt lat="49.85324" lon="4.78715">
        <ele>326</ele>
        <time>2022-09-18T09:38:01.000Z</time>
      </trkpt>
      <trkpt lat="49.85322" lon="4.78721">
        <ele>326</ele>
        <time>2022-09-18T09:38:02.000Z</time>
      </trkpt>
      <trkpt lat="49.85319" lon="4.78727">
        <ele>326</ele>
        <time>2022-09-18T09:38:03.000Z</time>
      </trkpt>
      <trkpt lat="49.85316" lon="4.78733">
        <ele>326</ele>
        <time>2022-09-18T09:38:04.000Z</time>
      </trkpt>
      <trkpt lat="49.85312" lon="4.7874">
        <ele>326</ele>
        <time>2022-09-18T09:38:05.000Z</time>
      </trkpt>
      <trkpt lat="49.85309" lon="4.78746">
        <ele>326</ele>
        <time>2022-09-18T09:38:06.000Z</time>
      </trkpt>
      <trkpt lat="49.85306" lon="4.78753">
        <ele>326</ele>
        <time>2022-09-18T09:38:07.000Z</time>
      </trkpt>
      <trkpt lat="49.85303" lon="4.78759">
        <ele>326</ele>
        <time>2022-09-18T09:38:08.000Z</time>
      </trkpt>
      <trkpt lat="49.853" lon="4.78766">
        <ele>325</ele>
        <time>2022-09-18T09:38:09.000Z</time>
      </trkpt>
      <trkpt lat="49.85296" lon="4.78774">
        <ele>325</ele>
        <time>2022-09-18T09:38:10.000Z</time>
      </trkpt>
      <trkpt lat="49.85293" lon="4.78782">
        <ele>325</ele>
        <time>2022-09-18T09:38:11.000Z</time>
      </trkpt>
      <trkpt lat="49.8529" lon="4.7879">
        <ele>325</ele>
        <time>2022-09-18T09:38:12.000Z</time>
      </trkpt>
      <trkpt lat="49.85286" lon="4.78798">
        <ele>325</ele>
        <time>2022-09-18T09:38:13.000Z</time>
      </trkpt>
      <trkpt lat="49.85283" lon="4.78806">
        <ele>325</ele>
        <time>2022-09-18T09:38:14.000Z</time>
      </trkpt>
      <trkpt lat="49.8528" lon="4.78814">
        <ele>325</ele>
        <time>2022-09-18T09:38:15.000Z</time>
      </trkpt>
      <trkpt lat="49.85277" lon="4.78823">
        <ele>324</ele>
        <time>2022-09-18T09:38:16.000Z</time>
      </trkpt>
      <trkpt lat="49.85274" lon="4.78831">
        <ele>324</ele>
        <time>2022-09-18T09:38:17.000Z</time>
      </trkpt>
      <trkpt lat="49.85272" lon="4.7884">
        <ele>324</ele>
        <time>2022-09-18T09:38:18.000Z</time>
      </trkpt>
      <trkpt lat="49.8527" lon="4.78847">
        <ele>323</ele>
        <time>2022-09-18T09:38:19.000Z</time>
      </trkpt>
      <trkpt lat="49.85268" lon="4.78855">
        <ele>323</ele>
        <time>2022-09-18T09:38:20.000Z</time>
      </trkpt>
      <trkpt lat="49.85265" lon="4.78864">
        <ele>323</ele>
        <time>2022-09-18T09:38:21.000Z</time>
      </trkpt>
      <trkpt lat="49.85263" lon="4.78874">
        <ele>323</ele>
        <time>2022-09-18T09:38:22.000Z</time>
      </trkpt>
      <trkpt lat="49.85261" lon="4.78884">
        <ele>322</ele>
        <time>2022-09-18T09:38:23.000Z</time>
      </trkpt>
      <trkpt lat="49.8526" lon="4.78893">
        <ele>322</ele>
        <time>2022-09-18T09:38:24.000Z</time>
      </trkpt>
      <trkpt lat="49.85259" lon="4.78903">
        <ele>322</ele>
        <time>2022-09-18T09:38:25.000Z</time>
      </trkpt>
      <trkpt lat="49.85258" lon="4.78913">
        <ele>321</ele>
        <time>2022-09-18T09:38:26.000Z</time>
      </trkpt>
      <trkpt lat="49.85258" lon="4.78923">
        <ele>321</ele>
        <time>2022-09-18T09:38:27.000Z</time>
      </trkpt>
      <trkpt lat="49.85258" lon="4.78933">
        <ele>321</ele>
        <time>2022-09-18T09:38:28.000Z</time>
      </trkpt>
      <trkpt lat="49.85259" lon="4.78943">
        <ele>320</ele>
        <time>2022-09-18T09:38:29.000Z</time>
      </trkpt>
      <trkpt lat="49.85259" lon="4.78953">
        <ele>320</ele>
        <time>2022-09-18T09:38:30.000Z</time>
      </trkpt>
      <trkpt lat="49.85259" lon="4.78963">
        <ele>320</ele>
        <time>2022-09-18T09:38:31.000Z</time>
      </trkpt>
      <trkpt lat="49.85258" lon="4.78971">
        <ele>319</ele>
        <time>2022-09-18T09:38:32.000Z</time>
      </trkpt>
      <trkpt lat="49.85258" lon="4.78978">
        <ele>319</ele>
        <time>2022-09-18T09:38:33.000Z</time>
      </trkpt>
      <trkpt lat="49.85258" lon="4.78986">
        <ele>319</ele>
        <time>2022-09-18T09:38:34.000Z</time>
      </trkpt>
      <trkpt lat="49.85259" lon="4.78996">
        <ele>319</ele>
        <time>2022-09-18T09:38:35.000Z</time>
      </trkpt>
      <trkpt lat="49.85261" lon="4.79006">
        <ele>318</ele>
        <time>2022-09-18T09:38:36.000Z</time>
      </trkpt>
      <trkpt lat="49.85263" lon="4.79015">
        <ele>318</ele>
        <time>2022-09-18T09:38:37.000Z</time>
      </trkpt>
      <trkpt lat="49.85266" lon="4.79024">
        <ele>318</ele>
        <time>2022-09-18T09:38:38.000Z</time>
      </trkpt>
      <trkpt lat="49.85268" lon="4.79031">
        <ele>318</ele>
        <time>2022-09-18T09:38:39.000Z</time>
      </trkpt>
      <trkpt lat="49.85269" lon="4.7904">
        <ele>317</ele>
        <time>2022-09-18T09:38:40.000Z</time>
      </trkpt>
      <trkpt lat="49.85269" lon="4.79047">
        <ele>317</ele>
        <time>2022-09-18T09:38:41.000Z</time>
      </trkpt>
      <trkpt lat="49.85269" lon="4.79055">
        <ele>317</ele>
        <time>2022-09-18T09:38:42.000Z</time>
      </trkpt>
      <trkpt lat="49.85269" lon="4.79062">
        <ele>316</ele>
        <time>2022-09-18T09:38:43.000Z</time>
      </trkpt>
      <trkpt lat="49.8527" lon="4.79068">
        <ele>316</ele>
        <time>2022-09-18T09:38:44.000Z</time>
      </trkpt>
      <trkpt lat="49.8527" lon="4.79072">
        <ele>316</ele>
        <time>2022-09-18T09:38:45.000Z</time>
      </trkpt>
      <trkpt lat="49.8527" lon="4.79078">
        <ele>315</ele>
        <time>2022-09-18T09:38:46.000Z</time>
      </trkpt>
      <trkpt lat="49.85269" lon="4.79083">
        <ele>315</ele>
        <time>2022-09-18T09:38:47.000Z</time>
      </trkpt>
      <trkpt lat="49.85269" lon="4.79089">
        <ele>315</ele>
        <time>2022-09-18T09:38:48.000Z</time>
      </trkpt>
      <trkpt lat="49.85268" lon="4.79095">
        <ele>315</ele>
        <time>2022-09-18T09:38:49.000Z</time>
      </trkpt>
      <trkpt lat="49.85266" lon="4.791">
        <ele>314</ele>
        <time>2022-09-18T09:38:50.000Z</time>
      </trkpt>
      <trkpt lat="49.85266" lon="4.79106">
        <ele>314</ele>
        <time>2022-09-18T09:38:51.000Z</time>
      </trkpt>
      <trkpt lat="49.85266" lon="4.79111">
        <ele>314</ele>
        <time>2022-09-18T09:38:52.000Z</time>
      </trkpt>
      <trkpt lat="49.85266" lon="4.79116">
        <ele>313</ele>
        <time>2022-09-18T09:38:53.000Z</time>
      </trkpt>
      <trkpt lat="49.85267" lon="4.79121">
        <ele>313</ele>
        <time>2022-09-18T09:38:54.000Z</time>
      </trkpt>
      <trkpt lat="49.85267" lon="4.79126">
        <ele>313</ele>
        <time>2022-09-18T09:38:55.000Z</time>
      </trkpt>
      <trkpt lat="49.85267" lon="4.79132">
        <ele>312</ele>
        <time>2022-09-18T09:38:56.000Z</time>
      </trkpt>
      <trkpt lat="49.85267" lon="4.79137">
        <ele>312</ele>
        <time>2022-09-18T09:38:57.000Z</time>
      </trkpt>
      <trkpt lat="49.85265" lon="4.79141">
        <ele>311</ele>
        <time>2022-09-18T09:38:58.000Z</time>
      </trkpt>
      <trkpt lat="49.85262" lon="4.79145">
        <ele>311</ele>
        <time>2022-09-18T09:38:59.000Z</time>
      </trkpt>
      <trkpt lat="49.85258" lon="4.79149">
        <ele>310</ele>
        <time>2022-09-18T09:39:00.000Z</time>
      </trkpt>
      <trkpt lat="49.85254" lon="4.79151">
        <ele>310</ele>
        <time>2022-09-18T09:39:01.000Z</time>
      </trkpt>
      <trkpt lat="49.85249" lon="4.79152">
        <ele>309</ele>
        <time>2022-09-18T09:39:02.000Z</time>
      </trkpt>
      <trkpt lat="49.85244" lon="4.79152">
        <ele>308</ele>
        <time>2022-09-18T09:39:03.000Z</time>
      </trkpt>
      <trkpt lat="49.85239" lon="4.79152">
        <ele>308</ele>
        <time>2022-09-18T09:39:04.000Z</time>
      </trkpt>
      <trkpt lat="49.85234" lon="4.79152">
        <ele>307</ele>
        <time>2022-09-18T09:39:05.000Z</time>
      </trkpt>
      <trkpt lat="49.85229" lon="4.79154">
        <ele>307</ele>
        <time>2022-09-18T09:39:06.000Z</time>
      </trkpt>
      <trkpt lat="49.85225" lon="4.79156">
        <ele>306</ele>
        <time>2022-09-18T09:39:07.000Z</time>
      </trkpt>
      <trkpt lat="49.85221" lon="4.79158">
        <ele>306</ele>
        <time>2022-09-18T09:39:08.000Z</time>
      </trkpt>
      <trkpt lat="49.85216" lon="4.79162">
        <ele>305</ele>
        <time>2022-09-18T09:39:09.000Z</time>
      </trkpt>
      <trkpt lat="49.85212" lon="4.79167">
        <ele>305</ele>
        <time>2022-09-18T09:39:10.000Z</time>
      </trkpt>
      <trkpt lat="49.85209" lon="4.79172">
        <ele>305</ele>
        <time>2022-09-18T09:39:11.000Z</time>
      </trkpt>
      <trkpt lat="49.85206" lon="4.79179">
        <ele>304</ele>
        <time>2022-09-18T09:39:12.000Z</time>
      </trkpt>
      <trkpt lat="49.85204" lon="4.79187">
        <ele>304</ele>
        <time>2022-09-18T09:39:13.000Z</time>
      </trkpt>
      <trkpt lat="49.85202" lon="4.79195">
        <ele>303</ele>
        <time>2022-09-18T09:39:14.000Z</time>
      </trkpt>
      <trkpt lat="49.852" lon="4.79203">
        <ele>303</ele>
        <time>2022-09-18T09:39:15.000Z</time>
      </trkpt>
      <trkpt lat="49.85198" lon="4.7921">
        <ele>303</ele>
        <time>2022-09-18T09:39:16.000Z</time>
      </trkpt>
      <trkpt lat="49.85197" lon="4.79216">
        <ele>303</ele>
        <time>2022-09-18T09:39:17.000Z</time>
      </trkpt>
      <trkpt lat="49.85195" lon="4.79222">
        <ele>303</ele>
        <time>2022-09-18T09:39:18.000Z</time>
      </trkpt>
      <trkpt lat="49.85194" lon="4.79227">
        <ele>303</ele>
        <time>2022-09-18T09:39:19.000Z</time>
      </trkpt>
      <trkpt lat="49.85193" lon="4.79232">
        <ele>303</ele>
        <time>2022-09-18T09:39:20.000Z</time>
      </trkpt>
      <trkpt lat="49.85192" lon="4.79237">
        <ele>302</ele>
        <time>2022-09-18T09:39:21.000Z</time>
      </trkpt>
      <trkpt lat="49.85191" lon="4.79242">
        <ele>302</ele>
        <time>2022-09-18T09:39:22.000Z</time>
      </trkpt>
      <trkpt lat="49.8519" lon="4.79246">
        <ele>302</ele>
        <time>2022-09-18T09:39:23.000Z</time>
      </trkpt>
      <trkpt lat="49.8519" lon="4.7925">
        <ele>302</ele>
        <time>2022-09-18T09:39:24.000Z</time>
      </trkpt>
      <trkpt lat="49.8519" lon="4.79254">
        <ele>302</ele>
        <time>2022-09-18T09:39:25.000Z</time>
      </trkpt>
      <trkpt lat="49.8519" lon="4.79257">
        <ele>302</ele>
        <time>2022-09-18T09:39:26.000Z</time>
      </trkpt>
      <trkpt lat="49.85189" lon="4.79262">
        <ele>302</ele>
        <time>2022-09-18T09:39:27.000Z</time>
      </trkpt>
      <trkpt lat="49.85189" lon="4.79265">
        <ele>302</ele>
        <time>2022-09-18T09:39:28.000Z</time>
      </trkpt>
      <trkpt lat="49.85188" lon="4.79269">
        <ele>302</ele>
        <time>2022-09-18T09:39:29.000Z</time>
      </trkpt>
      <trkpt lat="49.85187" lon="4.79273">
        <ele>302</ele>
        <time>2022-09-18T09:39:30.000Z</time>
      </trkpt>
      <trkpt lat="49.85186" lon="4.79276">
        <ele>302</ele>
        <time>2022-09-18T09:39:31.000Z</time>
      </trkpt>
      <trkpt lat="49.85185" lon="4.79279">
        <ele>302</ele>
        <time>2022-09-18T09:39:32.000Z</time>
      </trkpt>
      <trkpt lat="49.85184" lon="4.79282">
        <ele>303</ele>
        <time>2022-09-18T09:39:33.000Z</time>
      </trkpt>
      <trkpt lat="49.85183" lon="4.79285">
        <ele>303</ele>
        <time>2022-09-18T09:39:34.000Z</time>
      </trkpt>
      <trkpt lat="49.85182" lon="4.79287">
        <ele>303</ele>
        <time>2022-09-18T09:39:35.000Z</time>
      </trkpt>
      <trkpt lat="49.85181" lon="4.79289">
        <ele>303</ele>
        <time>2022-09-18T09:39:36.000Z</time>
      </trkpt>
      <trkpt lat="49.8518" lon="4.79292">
        <ele>303</ele>
        <time>2022-09-18T09:39:37.000Z</time>
      </trkpt>
      <trkpt lat="49.85179" lon="4.79295">
        <ele>303</ele>
        <time>2022-09-18T09:39:38.000Z</time>
      </trkpt>
      <trkpt lat="49.85177" lon="4.79297">
        <ele>303</ele>
        <time>2022-09-18T09:39:39.000Z</time>
      </trkpt>
      <trkpt lat="49.85175" lon="4.79299">
        <ele>303</ele>
        <time>2022-09-18T09:39:40.000Z</time>
      </trkpt>
      <trkpt lat="49.85173" lon="4.79302">
        <ele>303</ele>
        <time>2022-09-18T09:39:41.000Z</time>
      </trkpt>
      <trkpt lat="49.85172" lon="4.79303">
        <ele>303</ele>
        <time>2022-09-18T09:39:42.000Z</time>
      </trkpt>
      <trkpt lat="49.8517" lon="4.79305">
        <ele>304</ele>
        <time>2022-09-18T09:39:43.000Z</time>
      </trkpt>
      <trkpt lat="49.85169" lon="4.79306">
        <ele>304</ele>
        <time>2022-09-18T09:39:44.000Z</time>
      </trkpt>
      <trkpt lat="49.85167" lon="4.79308">
        <ele>304</ele>
        <time>2022-09-18T09:39:45.000Z</time>
      </trkpt>
      <trkpt lat="49.85165" lon="4.7931">
        <ele>304</ele>
        <time>2022-09-18T09:39:46.000Z</time>
      </trkpt>
      <trkpt lat="49.85163" lon="4.79312">
        <ele>304</ele>
        <time>2022-09-18T09:39:47.000Z</time>
      </trkpt>
      <trkpt lat="49.85162" lon="4.79313">
        <ele>304</ele>
        <time>2022-09-18T09:39:48.000Z</time>
      </trkpt>
      <trkpt lat="49.85159" lon="4.79314">
        <ele>304</ele>
        <time>2022-09-18T09:39:49.000Z</time>
      </trkpt>
      <trkpt lat="49.85157" lon="4.79315">
        <ele>305</ele>
        <time>2022-09-18T09:39:50.000Z</time>
      </trkpt>
      <trkpt lat="49.85153" lon="4.79317">
        <ele>305</ele>
        <time>2022-09-18T09:39:51.000Z</time>
      </trkpt>
      <trkpt lat="49.8515" lon="4.79318">
        <ele>305</ele>
        <time>2022-09-18T09:39:52.000Z</time>
      </trkpt>
      <trkpt lat="49.85147" lon="4.7932">
        <ele>305</ele>
        <time>2022-09-18T09:39:53.000Z</time>
      </trkpt>
      <trkpt lat="49.85144" lon="4.79322">
        <ele>305</ele>
        <time>2022-09-18T09:39:54.000Z</time>
      </trkpt>
      <trkpt lat="49.85142" lon="4.79324">
        <ele>305</ele>
        <time>2022-09-18T09:39:55.000Z</time>
      </trkpt>
      <trkpt lat="49.8514" lon="4.79325">
        <ele>305</ele>
        <time>2022-09-18T09:39:56.000Z</time>
      </trkpt>
      <trkpt lat="49.85139" lon="4.79326">
        <ele>305</ele>
        <time>2022-09-18T09:39:57.000Z</time>
      </trkpt>
      <trkpt lat="49.85138" lon="4.79327">
        <ele>305</ele>
        <time>2022-09-18T09:39:58.000Z</time>
      </trkpt>
      <trkpt lat="49.85138" lon="4.79327">
        <ele>305</ele>
        <time>2022-09-18T09:39:59.000Z</time>
      </trkpt>
      <trkpt lat="49.85137" lon="4.79327">
        <ele>305</ele>
        <time>2022-09-18T09:40:00.000Z</time>
      </trkpt>
      <trkpt lat="49.85137" lon="4.79327">
        <ele>305</ele>
        <time>2022-09-18T09:40:01.000Z</time>
      </trkpt>
      <trkpt lat="49.85137" lon="4.79328">
        <ele>305</ele>
        <time>2022-09-18T09:40:02.000Z</time>
      </trkpt>
      <trkpt lat="49.85136" lon="4.79328">
        <ele>306</ele>
        <time>2022-09-18T09:40:03.000Z</time>
      </trkpt>
      <trkpt lat="49.85135" lon="4.79328">
        <ele>306</ele>
        <time>2022-09-18T09:40:04.000Z</time>
      </trkpt>
      <trkpt lat="49.85134" lon="4.79329">
        <ele>306</ele>
        <time>2022-09-18T09:40:05.000Z</time>
      </trkpt>
      <trkpt lat="49.85133" lon="4.7933">
        <ele>306</ele>
        <time>2022-09-18T09:40:06.000Z</time>
      </trkpt>
      <trkpt lat="49.85132" lon="4.79331">
        <ele>306</ele>
        <time>2022-09-18T09:40:07.000Z</time>
      </trkpt>
      <trkpt lat="49.85131" lon="4.79331">
        <ele>306</ele>
        <time>2022-09-18T09:40:08.000Z</time>
      </trkpt>
      <trkpt lat="49.8513" lon="4.79332">
        <ele>306</ele>
        <time>2022-09-18T09:40:09.000Z</time>
      </trkpt>
      <trkpt lat="49.85129" lon="4.79333">
        <ele>307</ele>
        <time>2022-09-18T09:40:10.000Z</time>
      </trkpt>
      <trkpt lat="49.85127" lon="4.79333">
        <ele>307</ele>
        <time>2022-09-18T09:40:11.000Z</time>
      </trkpt>
      <trkpt lat="49.85126" lon="4.79334">
        <ele>307</ele>
        <time>2022-09-18T09:40:12.000Z</time>
      </trkpt>
      <trkpt lat="49.85125" lon="4.79335">
        <ele>307</ele>
        <time>2022-09-18T09:40:13.000Z</time>
      </trkpt>
      <trkpt lat="49.85123" lon="4.79335">
        <ele>307</ele>
        <time>2022-09-18T09:40:14.000Z</time>
      </trkpt>
      <trkpt lat="49.85122" lon="4.79336">
        <ele>307</ele>
        <time>2022-09-18T09:40:15.000Z</time>
      </trkpt>
      <trkpt lat="49.85121" lon="4.79337">
        <ele>307</ele>
        <time>2022-09-18T09:40:16.000Z</time>
      </trkpt>
      <trkpt lat="49.85119" lon="4.79338">
        <ele>308</ele>
        <time>2022-09-18T09:40:17.000Z</time>
      </trkpt>
      <trkpt lat="49.85118" lon="4.79338">
        <ele>308</ele>
        <time>2022-09-18T09:40:18.000Z</time>
      </trkpt>
      <trkpt lat="49.85117" lon="4.79339">
        <ele>308</ele>
        <time>2022-09-18T09:40:19.000Z</time>
      </trkpt>
      <trkpt lat="49.85117" lon="4.79339">
        <ele>308</ele>
        <time>2022-09-18T09:40:20.000Z</time>
      </trkpt>
      <trkpt lat="49.85116" lon="4.7934">
        <ele>308</ele>
        <time>2022-09-18T09:40:21.000Z</time>
      </trkpt>
      <trkpt lat="49.85116" lon="4.7934">
        <ele>308</ele>
        <time>2022-09-18T09:40:22.000Z</time>
      </trkpt>
      <trkpt lat="49.85115" lon="4.7934">
        <ele>308</ele>
        <time>2022-09-18T09:40:23.000Z</time>
      </trkpt>
      <trkpt lat="49.85114" lon="4.79342">
        <ele>309</ele>
        <time>2022-09-18T09:40:24.000Z</time>
      </trkpt>
      <trkpt lat="49.85113" lon="4.79344">
        <ele>309</ele>
        <time>2022-09-18T09:40:25.000Z</time>
      </trkpt>
      <trkpt lat="49.85111" lon="4.79346">
        <ele>309</ele>
        <time>2022-09-18T09:40:26.000Z</time>
      </trkpt>
      <trkpt lat="49.8511" lon="4.79347">
        <ele>309</ele>
        <time>2022-09-18T09:40:27.000Z</time>
      </trkpt>
      <trkpt lat="49.85109" lon="4.79348">
        <ele>309</ele>
        <time>2022-09-18T09:40:28.000Z</time>
      </trkpt>
      <trkpt lat="49.85108" lon="4.7935">
        <ele>309</ele>
        <time>2022-09-18T09:40:29.000Z</time>
      </trkpt>
      <trkpt lat="49.85107" lon="4.79351">
        <ele>309</ele>
        <time>2022-09-18T09:40:30.000Z</time>
      </trkpt>
      <trkpt lat="49.85106" lon="4.79353">
        <ele>309</ele>
        <time>2022-09-18T09:40:31.000Z</time>
      </trkpt>
      <trkpt lat="49.85105" lon="4.79356">
        <ele>309</ele>
        <time>2022-09-18T09:40:32.000Z</time>
      </trkpt>
      <trkpt lat="49.85104" lon="4.79359">
        <ele>309</ele>
        <time>2022-09-18T09:40:33.000Z</time>
      </trkpt>
      <trkpt lat="49.85103" lon="4.79361">
        <ele>309</ele>
        <time>2022-09-18T09:40:34.000Z</time>
      </trkpt>
      <trkpt lat="49.85101" lon="4.79364">
        <ele>310</ele>
        <time>2022-09-18T09:40:35.000Z</time>
      </trkpt>
      <trkpt lat="49.851" lon="4.79367">
        <ele>310</ele>
        <time>2022-09-18T09:40:36.000Z</time>
      </trkpt>
      <trkpt lat="49.85099" lon="4.7937">
        <ele>310</ele>
        <time>2022-09-18T09:40:37.000Z</time>
      </trkpt>
      <trkpt lat="49.85098" lon="4.79372">
        <ele>310</ele>
        <time>2022-09-18T09:40:38.000Z</time>
      </trkpt>
      <trkpt lat="49.85097" lon="4.79374">
        <ele>310</ele>
        <time>2022-09-18T09:40:39.000Z</time>
      </trkpt>
      <trkpt lat="49.85095" lon="4.79377">
        <ele>310</ele>
        <time>2022-09-18T09:40:40.000Z</time>
      </trkpt>
      <trkpt lat="49.85094" lon="4.7938">
        <ele>310</ele>
        <time>2022-09-18T09:40:41.000Z</time>
      </trkpt>
      <trkpt lat="49.85092" lon="4.79383">
        <ele>310</ele>
        <time>2022-09-18T09:40:42.000Z</time>
      </trkpt>
      <trkpt lat="49.85091" lon="4.79386">
        <ele>310</ele>
        <time>2022-09-18T09:40:43.000Z</time>
      </trkpt>
      <trkpt lat="49.85089" lon="4.79389">
        <ele>310</ele>
        <time>2022-09-18T09:40:44.000Z</time>
      </trkpt>
      <trkpt lat="49.85088" lon="4.79391">
        <ele>310</ele>
        <time>2022-09-18T09:40:45.000Z</time>
      </trkpt>
      <trkpt lat="49.85087" lon="4.79394">
        <ele>310</ele>
        <time>2022-09-18T09:40:46.000Z</time>
      </trkpt>
      <trkpt lat="49.85086" lon="4.79397">
        <ele>310</ele>
        <time>2022-09-18T09:40:47.000Z</time>
      </trkpt>
      <trkpt lat="49.85085" lon="4.79401">
        <ele>310</ele>
        <time>2022-09-18T09:40:48.000Z</time>
      </trkpt>
      <trkpt lat="49.85084" lon="4.79404">
        <ele>310</ele>
        <time>2022-09-18T09:40:49.000Z</time>
      </trkpt>
      <trkpt lat="49.85083" lon="4.79407">
        <ele>310</ele>
        <time>2022-09-18T09:40:50.000Z</time>
      </trkpt>
      <trkpt lat="49.85082" lon="4.7941">
        <ele>310</ele>
        <time>2022-09-18T09:40:51.000Z</time>
      </trkpt>
      <trkpt lat="49.85082" lon="4.79413">
        <ele>310</ele>
        <time>2022-09-18T09:40:52.000Z</time>
      </trkpt>
      <trkpt lat="49.85081" lon="4.79416">
        <ele>310</ele>
        <time>2022-09-18T09:40:53.000Z</time>
      </trkpt>
      <trkpt lat="49.85081" lon="4.7942">
        <ele>311</ele>
        <time>2022-09-18T09:40:54.000Z</time>
      </trkpt>
      <trkpt lat="49.8508" lon="4.79423">
        <ele>311</ele>
        <time>2022-09-18T09:40:55.000Z</time>
      </trkpt>
      <trkpt lat="49.8508" lon="4.79427">
        <ele>311</ele>
        <time>2022-09-18T09:40:56.000Z</time>
      </trkpt>
      <trkpt lat="49.85079" lon="4.7943">
        <ele>311</ele>
        <time>2022-09-18T09:40:57.000Z</time>
      </trkpt>
      <trkpt lat="49.85078" lon="4.79434">
        <ele>311</ele>
        <time>2022-09-18T09:40:58.000Z</time>
      </trkpt>
      <trkpt lat="49.85078" lon="4.79437">
        <ele>311</ele>
        <time>2022-09-18T09:40:59.000Z</time>
      </trkpt>
      <trkpt lat="49.85077" lon="4.7944">
        <ele>311</ele>
        <time>2022-09-18T09:41:00.000Z</time>
      </trkpt>
      <trkpt lat="49.85076" lon="4.79444">
        <ele>312</ele>
        <time>2022-09-18T09:41:01.000Z</time>
      </trkpt>
      <trkpt lat="49.85075" lon="4.79447">
        <ele>312</ele>
        <time>2022-09-18T09:41:02.000Z</time>
      </trkpt>
      <trkpt lat="49.85073" lon="4.7945">
        <ele>312</ele>
        <time>2022-09-18T09:41:03.000Z</time>
      </trkpt>
      <trkpt lat="49.85072" lon="4.79454">
        <ele>312</ele>
        <time>2022-09-18T09:41:04.000Z</time>
      </trkpt>
      <trkpt lat="49.85071" lon="4.79457">
        <ele>312</ele>
        <time>2022-09-18T09:41:05.000Z</time>
      </trkpt>
      <trkpt lat="49.8507" lon="4.7946">
        <ele>312</ele>
        <time>2022-09-18T09:41:06.000Z</time>
      </trkpt>
      <trkpt lat="49.85069" lon="4.79464">
        <ele>313</ele>
        <time>2022-09-18T09:41:07.000Z</time>
      </trkpt>
      <trkpt lat="49.85068" lon="4.79466">
        <ele>313</ele>
        <time>2022-09-18T09:41:08.000Z</time>
      </trkpt>
      <trkpt lat="49.85068" lon="4.7947">
        <ele>313</ele>
        <time>2022-09-18T09:41:09.000Z</time>
      </trkpt>
      <trkpt lat="49.85067" lon="4.79473">
        <ele>313</ele>
        <time>2022-09-18T09:41:10.000Z</time>
      </trkpt>
      <trkpt lat="49.85066" lon="4.79476">
        <ele>313</ele>
        <time>2022-09-18T09:41:11.000Z</time>
      </trkpt>
      <trkpt lat="49.85065" lon="4.79479">
        <ele>313</ele>
        <time>2022-09-18T09:41:12.000Z</time>
      </trkpt>
      <trkpt lat="49.85064" lon="4.79482">
        <ele>313</ele>
        <time>2022-09-18T09:41:13.000Z</time>
      </trkpt>
      <trkpt lat="49.85063" lon="4.79486">
        <ele>313</ele>
        <time>2022-09-18T09:41:14.000Z</time>
      </trkpt>
      <trkpt lat="49.85062" lon="4.7949">
        <ele>313</ele>
        <time>2022-09-18T09:41:15.000Z</time>
      </trkpt>
      <trkpt lat="49.85061" lon="4.79493">
        <ele>314</ele>
        <time>2022-09-18T09:41:16.000Z</time>
      </trkpt>
      <trkpt lat="49.8506" lon="4.79497">
        <ele>314</ele>
        <time>2022-09-18T09:41:17.000Z</time>
      </trkpt>
      <trkpt lat="49.85059" lon="4.79501">
        <ele>314</ele>
        <time>2022-09-18T09:41:18.000Z</time>
      </trkpt>
      <trkpt lat="49.85058" lon="4.79505">
        <ele>314</ele>
        <time>2022-09-18T09:41:19.000Z</time>
      </trkpt>
      <trkpt lat="49.85057" lon="4.79509">
        <ele>314</ele>
        <time>2022-09-18T09:41:20.000Z</time>
      </trkpt>
      <trkpt lat="49.85056" lon="4.79513">
        <ele>314</ele>
        <time>2022-09-18T09:41:21.000Z</time>
      </trkpt>
      <trkpt lat="49.85056" lon="4.79517">
        <ele>314</ele>
        <time>2022-09-18T09:41:22.000Z</time>
      </trkpt>
      <trkpt lat="49.85055" lon="4.79521">
        <ele>314</ele>
        <time>2022-09-18T09:41:23.000Z</time>
      </trkpt>
      <trkpt lat="49.85054" lon="4.79525">
        <ele>314</ele>
        <time>2022-09-18T09:41:24.000Z</time>
      </trkpt>
      <trkpt lat="49.85053" lon="4.79529">
        <ele>314</ele>
        <time>2022-09-18T09:41:25.000Z</time>
      </trkpt>
      <trkpt lat="49.85053" lon="4.79533">
        <ele>314</ele>
        <time>2022-09-18T09:41:26.000Z</time>
      </trkpt>
      <trkpt lat="49.85053" lon="4.79537">
        <ele>314</ele>
        <time>2022-09-18T09:41:27.000Z</time>
      </trkpt>
      <trkpt lat="49.85054" lon="4.79541">
        <ele>314</ele>
        <time>2022-09-18T09:41:28.000Z</time>
      </trkpt>
      <trkpt lat="49.85055" lon="4.79544">
        <ele>314</ele>
        <time>2022-09-18T09:41:29.000Z</time>
      </trkpt>
      <trkpt lat="49.85056" lon="4.79548">
        <ele>315</ele>
        <time>2022-09-18T09:41:30.000Z</time>
      </trkpt>
      <trkpt lat="49.85058" lon="4.79552">
        <ele>315</ele>
        <time>2022-09-18T09:41:31.000Z</time>
      </trkpt>
      <trkpt lat="49.85061" lon="4.79555">
        <ele>315</ele>
        <time>2022-09-18T09:41:32.000Z</time>
      </trkpt>
      <trkpt lat="49.85063" lon="4.79559">
        <ele>315</ele>
        <time>2022-09-18T09:41:33.000Z</time>
      </trkpt>
      <trkpt lat="49.85065" lon="4.79564">
        <ele>315</ele>
        <time>2022-09-18T09:41:34.000Z</time>
      </trkpt>
      <trkpt lat="49.85066" lon="4.79568">
        <ele>315</ele>
        <time>2022-09-18T09:41:35.000Z</time>
      </trkpt>
      <trkpt lat="49.85066" lon="4.79573">
        <ele>315</ele>
        <time>2022-09-18T09:41:36.000Z</time>
      </trkpt>
      <trkpt lat="49.85066" lon="4.79577">
        <ele>315</ele>
        <time>2022-09-18T09:41:37.000Z</time>
      </trkpt>
      <trkpt lat="49.85066" lon="4.79582">
        <ele>316</ele>
        <time>2022-09-18T09:41:38.000Z</time>
      </trkpt>
      <trkpt lat="49.85066" lon="4.79588">
        <ele>316</ele>
        <time>2022-09-18T09:41:39.000Z</time>
      </trkpt>
      <trkpt lat="49.85066" lon="4.79593">
        <ele>316</ele>
        <time>2022-09-18T09:41:40.000Z</time>
      </trkpt>
      <trkpt lat="49.85065" lon="4.79599">
        <ele>316</ele>
        <time>2022-09-18T09:41:41.000Z</time>
      </trkpt>
      <trkpt lat="49.85064" lon="4.79604">
        <ele>316</ele>
        <time>2022-09-18T09:41:42.000Z</time>
      </trkpt>
      <trkpt lat="49.85063" lon="4.7961">
        <ele>316</ele>
        <time>2022-09-18T09:41:43.000Z</time>
      </trkpt>
      <trkpt lat="49.85062" lon="4.79615">
        <ele>316</ele>
        <time>2022-09-18T09:41:44.000Z</time>
      </trkpt>
      <trkpt lat="49.85061" lon="4.79621">
        <ele>317</ele>
        <time>2022-09-18T09:41:45.000Z</time>
      </trkpt>
      <trkpt lat="49.85061" lon="4.79626">
        <ele>317</ele>
        <time>2022-09-18T09:41:46.000Z</time>
      </trkpt>
      <trkpt lat="49.85061" lon="4.7963">
        <ele>317</ele>
        <time>2022-09-18T09:41:47.000Z</time>
      </trkpt>
      <trkpt lat="49.85062" lon="4.79635">
        <ele>317</ele>
        <time>2022-09-18T09:41:48.000Z</time>
      </trkpt>
      <trkpt lat="49.85062" lon="4.79641">
        <ele>317</ele>
        <time>2022-09-18T09:41:49.000Z</time>
      </trkpt>
      <trkpt lat="49.85062" lon="4.79646">
        <ele>317</ele>
        <time>2022-09-18T09:41:50.000Z</time>
      </trkpt>
      <trkpt lat="49.85063" lon="4.7965">
        <ele>317</ele>
        <time>2022-09-18T09:41:51.000Z</time>
      </trkpt>
      <trkpt lat="49.85063" lon="4.79655">
        <ele>317</ele>
        <time>2022-09-18T09:41:52.000Z</time>
      </trkpt>
      <trkpt lat="49.85064" lon="4.79659">
        <ele>317</ele>
        <time>2022-09-18T09:41:53.000Z</time>
      </trkpt>
      <trkpt lat="49.85064" lon="4.79663">
        <ele>318</ele>
        <time>2022-09-18T09:41:54.000Z</time>
      </trkpt>
      <trkpt lat="49.85065" lon="4.79666">
        <ele>318</ele>
        <time>2022-09-18T09:41:55.000Z</time>
      </trkpt>
      <trkpt lat="49.85066" lon="4.79669">
        <ele>318</ele>
        <time>2022-09-18T09:41:56.000Z</time>
      </trkpt>
      <trkpt lat="49.85068" lon="4.79672">
        <ele>318</ele>
        <time>2022-09-18T09:41:57.000Z</time>
      </trkpt>
      <trkpt lat="49.85069" lon="4.79673">
        <ele>318</ele>
        <time>2022-09-18T09:41:58.000Z</time>
      </trkpt>
      <trkpt lat="49.85071" lon="4.79674">
        <ele>318</ele>
        <time>2022-09-18T09:41:59.000Z</time>
      </trkpt>
      <trkpt lat="49.85074" lon="4.79675">
        <ele>318</ele>
        <time>2022-09-18T09:42:00.000Z</time>
      </trkpt>
      <trkpt lat="49.85075" lon="4.79676">
        <ele>318</ele>
        <time>2022-09-18T09:42:01.000Z</time>
      </trkpt>
      <trkpt lat="49.85078" lon="4.79677">
        <ele>319</ele>
        <time>2022-09-18T09:42:02.000Z</time>
      </trkpt>
      <trkpt lat="49.8508" lon="4.79677">
        <ele>319</ele>
        <time>2022-09-18T09:42:03.000Z</time>
      </trkpt>
      <trkpt lat="49.85082" lon="4.79677">
        <ele>319</ele>
        <time>2022-09-18T09:42:04.000Z</time>
      </trkpt>
      <trkpt lat="49.85085" lon="4.79678">
        <ele>319</ele>
        <time>2022-09-18T09:42:05.000Z</time>
      </trkpt>
      <trkpt lat="49.85088" lon="4.79678">
        <ele>320</ele>
        <time>2022-09-18T09:42:06.000Z</time>
      </trkpt>
      <trkpt lat="49.85091" lon="4.79678">
        <ele>320</ele>
        <time>2022-09-18T09:42:07.000Z</time>
      </trkpt>
      <trkpt lat="49.85093" lon="4.79678">
        <ele>320</ele>
        <time>2022-09-18T09:42:08.000Z</time>
      </trkpt>
      <trkpt lat="49.85096" lon="4.79678">
        <ele>320</ele>
        <time>2022-09-18T09:42:09.000Z</time>
      </trkpt>
      <trkpt lat="49.85099" lon="4.79678">
        <ele>321</ele>
        <time>2022-09-18T09:42:10.000Z</time>
      </trkpt>
      <trkpt lat="49.85101" lon="4.79679">
        <ele>321</ele>
        <time>2022-09-18T09:42:11.000Z</time>
      </trkpt>
      <trkpt lat="49.85105" lon="4.79681">
        <ele>321</ele>
        <time>2022-09-18T09:42:12.000Z</time>
      </trkpt>
      <trkpt lat="49.85108" lon="4.79681">
        <ele>321</ele>
        <time>2022-09-18T09:42:13.000Z</time>
      </trkpt>
      <trkpt lat="49.85112" lon="4.79683">
        <ele>321</ele>
        <time>2022-09-18T09:42:14.000Z</time>
      </trkpt>
      <trkpt lat="49.85115" lon="4.79683">
        <ele>321</ele>
        <time>2022-09-18T09:42:15.000Z</time>
      </trkpt>
      <trkpt lat="49.85118" lon="4.79684">
        <ele>321</ele>
        <time>2022-09-18T09:42:16.000Z</time>
      </trkpt>
      <trkpt lat="49.85121" lon="4.79684">
        <ele>320</ele>
        <time>2022-09-18T09:42:17.000Z</time>
      </trkpt>
      <trkpt lat="49.85124" lon="4.79684">
        <ele>320</ele>
        <time>2022-09-18T09:42:18.000Z</time>
      </trkpt>
      <trkpt lat="49.85128" lon="4.79685">
        <ele>320</ele>
        <time>2022-09-18T09:42:19.000Z</time>
      </trkpt>
      <trkpt lat="49.85131" lon="4.79686">
        <ele>320</ele>
        <time>2022-09-18T09:42:20.000Z</time>
      </trkpt>
      <trkpt lat="49.85134" lon="4.79688">
        <ele>319</ele>
        <time>2022-09-18T09:42:21.000Z</time>
      </trkpt>
      <trkpt lat="49.85137" lon="4.79691">
        <ele>319</ele>
        <time>2022-09-18T09:42:22.000Z</time>
      </trkpt>
      <trkpt lat="49.8514" lon="4.79693">
        <ele>319</ele>
        <time>2022-09-18T09:42:23.000Z</time>
      </trkpt>
      <trkpt lat="49.85142" lon="4.79694">
        <ele>319</ele>
        <time>2022-09-18T09:42:24.000Z</time>
      </trkpt>
      <trkpt lat="49.85145" lon="4.79695">
        <ele>319</ele>
        <time>2022-09-18T09:42:25.000Z</time>
      </trkpt>
      <trkpt lat="49.85147" lon="4.79696">
        <ele>319</ele>
        <time>2022-09-18T09:42:26.000Z</time>
      </trkpt>
      <trkpt lat="49.8515" lon="4.79698">
        <ele>318</ele>
        <time>2022-09-18T09:42:27.000Z</time>
      </trkpt>
      <trkpt lat="49.85153" lon="4.797">
        <ele>318</ele>
        <time>2022-09-18T09:42:28.000Z</time>
      </trkpt>
      <trkpt lat="49.85156" lon="4.79703">
        <ele>318</ele>
        <time>2022-09-18T09:42:29.000Z</time>
      </trkpt>
      <trkpt lat="49.85159" lon="4.79705">
        <ele>318</ele>
        <time>2022-09-18T09:42:30.000Z</time>
      </trkpt>
      <trkpt lat="49.85162" lon="4.79708">
        <ele>318</ele>
        <time>2022-09-18T09:42:31.000Z</time>
      </trkpt>
      <trkpt lat="49.85165" lon="4.79711">
        <ele>318</ele>
        <time>2022-09-18T09:42:32.000Z</time>
      </trkpt>
      <trkpt lat="49.85168" lon="4.79714">
        <ele>318</ele>
        <time>2022-09-18T09:42:33.000Z</time>
      </trkpt>
      <trkpt lat="49.85171" lon="4.79717">
        <ele>317</ele>
        <time>2022-09-18T09:42:34.000Z</time>
      </trkpt>
      <trkpt lat="49.85173" lon="4.7972">
        <ele>317</ele>
        <time>2022-09-18T09:42:35.000Z</time>
      </trkpt>
      <trkpt lat="49.85176" lon="4.79723">
        <ele>317</ele>
        <time>2022-09-18T09:42:36.000Z</time>
      </trkpt>
      <trkpt lat="49.85178" lon="4.79726">
        <ele>317</ele>
        <time>2022-09-18T09:42:37.000Z</time>
      </trkpt>
      <trkpt lat="49.85181" lon="4.7973">
        <ele>317</ele>
        <time>2022-09-18T09:42:38.000Z</time>
      </trkpt>
      <trkpt lat="49.85183" lon="4.79734">
        <ele>316</ele>
        <time>2022-09-18T09:42:39.000Z</time>
      </trkpt>
      <trkpt lat="49.85186" lon="4.79738">
        <ele>316</ele>
        <time>2022-09-18T09:42:40.000Z</time>
      </trkpt>
      <trkpt lat="49.85188" lon="4.79741">
        <ele>316</ele>
        <time>2022-09-18T09:42:41.000Z</time>
      </trkpt>
      <trkpt lat="49.8519" lon="4.79745">
        <ele>316</ele>
        <time>2022-09-18T09:42:42.000Z</time>
      </trkpt>
      <trkpt lat="49.85192" lon="4.79748">
        <ele>316</ele>
        <time>2022-09-18T09:42:43.000Z</time>
      </trkpt>
      <trkpt lat="49.85194" lon="4.79751">
        <ele>316</ele>
        <time>2022-09-18T09:42:44.000Z</time>
      </trkpt>
      <trkpt lat="49.85197" lon="4.79754">
        <ele>316</ele>
        <time>2022-09-18T09:42:45.000Z</time>
      </trkpt>
      <trkpt lat="49.85199" lon="4.79757">
        <ele>316</ele>
        <time>2022-09-18T09:42:46.000Z</time>
      </trkpt>
      <trkpt lat="49.85201" lon="4.79761">
        <ele>316</ele>
        <time>2022-09-18T09:42:47.000Z</time>
      </trkpt>
      <trkpt lat="49.85203" lon="4.79763">
        <ele>315</ele>
        <time>2022-09-18T09:42:48.000Z</time>
      </trkpt>
      <trkpt lat="49.85206" lon="4.79766">
        <ele>315</ele>
        <time>2022-09-18T09:42:49.000Z</time>
      </trkpt>
      <trkpt lat="49.85208" lon="4.79769">
        <ele>315</ele>
        <time>2022-09-18T09:42:50.000Z</time>
      </trkpt>
      <trkpt lat="49.85211" lon="4.79772">
        <ele>315</ele>
        <time>2022-09-18T09:42:51.000Z</time>
      </trkpt>
      <trkpt lat="49.85213" lon="4.79775">
        <ele>315</ele>
        <time>2022-09-18T09:42:52.000Z</time>
      </trkpt>
      <trkpt lat="49.85215" lon="4.79778">
        <ele>315</ele>
        <time>2022-09-18T09:42:53.000Z</time>
      </trkpt>
      <trkpt lat="49.85217" lon="4.79781">
        <ele>315</ele>
        <time>2022-09-18T09:42:54.000Z</time>
      </trkpt>
      <trkpt lat="49.85219" lon="4.79784">
        <ele>316</ele>
        <time>2022-09-18T09:42:55.000Z</time>
      </trkpt>
      <trkpt lat="49.8522" lon="4.79786">
        <ele>316</ele>
        <time>2022-09-18T09:42:56.000Z</time>
      </trkpt>
      <trkpt lat="49.85221" lon="4.79789">
        <ele>316</ele>
        <time>2022-09-18T09:42:57.000Z</time>
      </trkpt>
      <trkpt lat="49.85221" lon="4.79791">
        <ele>316</ele>
        <time>2022-09-18T09:42:58.000Z</time>
      </trkpt>
      <trkpt lat="49.85222" lon="4.79793">
        <ele>316</ele>
        <time>2022-09-18T09:42:59.000Z</time>
      </trkpt>
      <trkpt lat="49.85223" lon="4.79796">
        <ele>316</ele>
        <time>2022-09-18T09:43:00.000Z</time>
      </trkpt>
      <trkpt lat="49.85226" lon="4.79799">
        <ele>316</ele>
        <time>2022-09-18T09:43:01.000Z</time>
      </trkpt>
      <trkpt lat="49.85227" lon="4.79802">
        <ele>316</ele>
        <time>2022-09-18T09:43:02.000Z</time>
      </trkpt>
      <trkpt lat="49.85229" lon="4.79804">
        <ele>316</ele>
        <time>2022-09-18T09:43:03.000Z</time>
      </trkpt>
      <trkpt lat="49.85231" lon="4.79807">
        <ele>317</ele>
        <time>2022-09-18T09:43:04.000Z</time>
      </trkpt>
      <trkpt lat="49.85233" lon="4.79811">
        <ele>317</ele>
        <time>2022-09-18T09:43:05.000Z</time>
      </trkpt>
      <trkpt lat="49.85234" lon="4.79814">
        <ele>317</ele>
        <time>2022-09-18T09:43:06.000Z</time>
      </trkpt>
      <trkpt lat="49.85236" lon="4.79817">
        <ele>317</ele>
        <time>2022-09-18T09:43:07.000Z</time>
      </trkpt>
      <trkpt lat="49.85237" lon="4.7982">
        <ele>317</ele>
        <time>2022-09-18T09:43:08.000Z</time>
      </trkpt>
      <trkpt lat="49.85238" lon="4.79824">
        <ele>317</ele>
        <time>2022-09-18T09:43:09.000Z</time>
      </trkpt>
      <trkpt lat="49.85239" lon="4.79827">
        <ele>318</ele>
        <time>2022-09-18T09:43:10.000Z</time>
      </trkpt>
      <trkpt lat="49.8524" lon="4.79831">
        <ele>318</ele>
        <time>2022-09-18T09:43:11.000Z</time>
      </trkpt>
      <trkpt lat="49.8524" lon="4.79835">
        <ele>318</ele>
        <time>2022-09-18T09:43:12.000Z</time>
      </trkpt>
      <trkpt lat="49.85241" lon="4.7984">
        <ele>318</ele>
        <time>2022-09-18T09:43:13.000Z</time>
      </trkpt>
      <trkpt lat="49.85241" lon="4.79844">
        <ele>319</ele>
        <time>2022-09-18T09:43:14.000Z</time>
      </trkpt>
      <trkpt lat="49.85242" lon="4.79848">
        <ele>319</ele>
        <time>2022-09-18T09:43:15.000Z</time>
      </trkpt>
      <trkpt lat="49.85242" lon="4.79853">
        <ele>319</ele>
        <time>2022-09-18T09:43:16.000Z</time>
      </trkpt>
      <trkpt lat="49.85243" lon="4.79858">
        <ele>320</ele>
        <time>2022-09-18T09:43:17.000Z</time>
      </trkpt>
      <trkpt lat="49.85242" lon="4.79863">
        <ele>320</ele>
        <time>2022-09-18T09:43:18.000Z</time>
      </trkpt>
      <trkpt lat="49.85242" lon="4.79867">
        <ele>320</ele>
        <time>2022-09-18T09:43:19.000Z</time>
      </trkpt>
      <trkpt lat="49.85241" lon="4.79872">
        <ele>321</ele>
        <time>2022-09-18T09:43:20.000Z</time>
      </trkpt>
      <trkpt lat="49.85241" lon="4.79877">
        <ele>321</ele>
        <time>2022-09-18T09:43:21.000Z</time>
      </trkpt>
      <trkpt lat="49.85241" lon="4.79882">
        <ele>321</ele>
        <time>2022-09-18T09:43:22.000Z</time>
      </trkpt>
      <trkpt lat="49.85241" lon="4.79887">
        <ele>321</ele>
        <time>2022-09-18T09:43:23.000Z</time>
      </trkpt>
      <trkpt lat="49.85241" lon="4.79892">
        <ele>321</ele>
        <time>2022-09-18T09:43:24.000Z</time>
      </trkpt>
      <trkpt lat="49.85241" lon="4.79896">
        <ele>322</ele>
        <time>2022-09-18T09:43:25.000Z</time>
      </trkpt>
      <trkpt lat="49.8524" lon="4.79901">
        <ele>322</ele>
        <time>2022-09-18T09:43:26.000Z</time>
      </trkpt>
      <trkpt lat="49.85239" lon="4.79905">
        <ele>322</ele>
        <time>2022-09-18T09:43:27.000Z</time>
      </trkpt>
      <trkpt lat="49.85238" lon="4.79909">
        <ele>322</ele>
        <time>2022-09-18T09:43:28.000Z</time>
      </trkpt>
      <trkpt lat="49.85237" lon="4.79913">
        <ele>323</ele>
        <time>2022-09-18T09:43:29.000Z</time>
      </trkpt>
      <trkpt lat="49.85236" lon="4.79918">
        <ele>323</ele>
        <time>2022-09-18T09:43:30.000Z</time>
      </trkpt>
      <trkpt lat="49.85235" lon="4.79921">
        <ele>323</ele>
        <time>2022-09-18T09:43:31.000Z</time>
      </trkpt>
      <trkpt lat="49.85233" lon="4.79925">
        <ele>323</ele>
        <time>2022-09-18T09:43:32.000Z</time>
      </trkpt>
      <trkpt lat="49.85232" lon="4.79929">
        <ele>323</ele>
        <time>2022-09-18T09:43:33.000Z</time>
      </trkpt>
      <trkpt lat="49.8523" lon="4.79932">
        <ele>323</ele>
        <time>2022-09-18T09:43:34.000Z</time>
      </trkpt>
      <trkpt lat="49.85228" lon="4.79937">
        <ele>323</ele>
        <time>2022-09-18T09:43:35.000Z</time>
      </trkpt>
      <trkpt lat="49.85226" lon="4.79941">
        <ele>323</ele>
        <time>2022-09-18T09:43:36.000Z</time>
      </trkpt>
      <trkpt lat="49.85224" lon="4.79944">
        <ele>323</ele>
        <time>2022-09-18T09:43:37.000Z</time>
      </trkpt>
      <trkpt lat="49.85222" lon="4.79948">
        <ele>323</ele>
        <time>2022-09-18T09:43:38.000Z</time>
      </trkpt>
      <trkpt lat="49.8522" lon="4.79953">
        <ele>324</ele>
        <time>2022-09-18T09:43:39.000Z</time>
      </trkpt>
      <trkpt lat="49.85218" lon="4.79957">
        <ele>324</ele>
        <time>2022-09-18T09:43:40.000Z</time>
      </trkpt>
      <trkpt lat="49.85217" lon="4.79961">
        <ele>324</ele>
        <time>2022-09-18T09:43:41.000Z</time>
      </trkpt>
      <trkpt lat="49.85215" lon="4.79966">
        <ele>324</ele>
        <time>2022-09-18T09:43:42.000Z</time>
      </trkpt>
      <trkpt lat="49.85214" lon="4.7997">
        <ele>324</ele>
        <time>2022-09-18T09:43:43.000Z</time>
      </trkpt>
      <trkpt lat="49.85212" lon="4.79975">
        <ele>324</ele>
        <time>2022-09-18T09:43:44.000Z</time>
      </trkpt>
      <trkpt lat="49.8521" lon="4.79979">
        <ele>324</ele>
        <time>2022-09-18T09:43:45.000Z</time>
      </trkpt>
      <trkpt lat="49.85208" lon="4.79983">
        <ele>324</ele>
        <time>2022-09-18T09:43:46.000Z</time>
      </trkpt>
      <trkpt lat="49.85207" lon="4.79987">
        <ele>324</ele>
        <time>2022-09-18T09:43:47.000Z</time>
      </trkpt>
      <trkpt lat="49.85205" lon="4.79991">
        <ele>324</ele>
        <time>2022-09-18T09:43:48.000Z</time>
      </trkpt>
      <trkpt lat="49.85203" lon="4.79994">
        <ele>325</ele>
        <time>2022-09-18T09:43:49.000Z</time>
      </trkpt>
      <trkpt lat="49.85201" lon="4.79997">
        <ele>325</ele>
        <time>2022-09-18T09:43:50.000Z</time>
      </trkpt>
      <trkpt lat="49.85199" lon="4.8">
        <ele>325</ele>
        <time>2022-09-18T09:43:51.000Z</time>
      </trkpt>
      <trkpt lat="49.85197" lon="4.80003">
        <ele>325</ele>
        <time>2022-09-18T09:43:52.000Z</time>
      </trkpt>
      <trkpt lat="49.85194" lon="4.80005">
        <ele>325</ele>
        <time>2022-09-18T09:43:53.000Z</time>
      </trkpt>
      <trkpt lat="49.85192" lon="4.80008">
        <ele>325</ele>
        <time>2022-09-18T09:43:54.000Z</time>
      </trkpt>
      <trkpt lat="49.85189" lon="4.80011">
        <ele>325</ele>
        <time>2022-09-18T09:43:55.000Z</time>
      </trkpt>
      <trkpt lat="49.85187" lon="4.80014">
        <ele>325</ele>
        <time>2022-09-18T09:43:56.000Z</time>
      </trkpt>
      <trkpt lat="49.85185" lon="4.80016">
        <ele>325</ele>
        <time>2022-09-18T09:43:57.000Z</time>
      </trkpt>
      <trkpt lat="49.85182" lon="4.80019">
        <ele>325</ele>
        <time>2022-09-18T09:43:58.000Z</time>
      </trkpt>
      <trkpt lat="49.85179" lon="4.80021">
        <ele>325</ele>
        <time>2022-09-18T09:43:59.000Z</time>
      </trkpt>
      <trkpt lat="49.85177" lon="4.80023">
        <ele>325</ele>
        <time>2022-09-18T09:44:00.000Z</time>
      </trkpt>
      <trkpt lat="49.85174" lon="4.80026">
        <ele>325</ele>
        <time>2022-09-18T09:44:01.000Z</time>
      </trkpt>
      <trkpt lat="49.85172" lon="4.80028">
        <ele>325</ele>
        <time>2022-09-18T09:44:02.000Z</time>
      </trkpt>
      <trkpt lat="49.8517" lon="4.80031">
        <ele>325</ele>
        <time>2022-09-18T09:44:03.000Z</time>
      </trkpt>
      <trkpt lat="49.85168" lon="4.80034">
        <ele>326</ele>
        <time>2022-09-18T09:44:04.000Z</time>
      </trkpt>
      <trkpt lat="49.85165" lon="4.80037">
        <ele>326</ele>
        <time>2022-09-18T09:44:05.000Z</time>
      </trkpt>
      <trkpt lat="49.85163" lon="4.80039">
        <ele>326</ele>
        <time>2022-09-18T09:44:06.000Z</time>
      </trkpt>
      <trkpt lat="49.85162" lon="4.80042">
        <ele>326</ele>
        <time>2022-09-18T09:44:07.000Z</time>
      </trkpt>
      <trkpt lat="49.8516" lon="4.80045">
        <ele>326</ele>
        <time>2022-09-18T09:44:08.000Z</time>
      </trkpt>
      <trkpt lat="49.85157" lon="4.80048">
        <ele>326</ele>
        <time>2022-09-18T09:44:09.000Z</time>
      </trkpt>
      <trkpt lat="49.85155" lon="4.8005">
        <ele>326</ele>
        <time>2022-09-18T09:44:10.000Z</time>
      </trkpt>
      <trkpt lat="49.85152" lon="4.80053">
        <ele>326</ele>
        <time>2022-09-18T09:44:11.000Z</time>
      </trkpt>
      <trkpt lat="49.8515" lon="4.80055">
        <ele>326</ele>
        <time>2022-09-18T09:44:12.000Z</time>
      </trkpt>
      <trkpt lat="49.85148" lon="4.80057">
        <ele>326</ele>
        <time>2022-09-18T09:44:13.000Z</time>
      </trkpt>
      <trkpt lat="49.85145" lon="4.80059">
        <ele>326</ele>
        <time>2022-09-18T09:44:14.000Z</time>
      </trkpt>
      <trkpt lat="49.85143" lon="4.8006">
        <ele>327</ele>
        <time>2022-09-18T09:44:15.000Z</time>
      </trkpt>
      <trkpt lat="49.85141" lon="4.80061">
        <ele>327</ele>
        <time>2022-09-18T09:44:16.000Z</time>
      </trkpt>
      <trkpt lat="49.85139" lon="4.80062">
        <ele>327</ele>
        <time>2022-09-18T09:44:17.000Z</time>
      </trkpt>
      <trkpt lat="49.85137" lon="4.80063">
        <ele>327</ele>
        <time>2022-09-18T09:44:18.000Z</time>
      </trkpt>
      <trkpt lat="49.85135" lon="4.80064">
        <ele>327</ele>
        <time>2022-09-18T09:44:19.000Z</time>
      </trkpt>
      <trkpt lat="49.85133" lon="4.80065">
        <ele>327</ele>
        <time>2022-09-18T09:44:20.000Z</time>
      </trkpt>
      <trkpt lat="49.85131" lon="4.80067">
        <ele>328</ele>
        <time>2022-09-18T09:44:21.000Z</time>
      </trkpt>
      <trkpt lat="49.85129" lon="4.80069">
        <ele>328</ele>
        <time>2022-09-18T09:44:22.000Z</time>
      </trkpt>
      <trkpt lat="49.85127" lon="4.8007">
        <ele>328</ele>
        <time>2022-09-18T09:44:23.000Z</time>
      </trkpt>
      <trkpt lat="49.85125" lon="4.80072">
        <ele>328</ele>
        <time>2022-09-18T09:44:24.000Z</time>
      </trkpt>
      <trkpt lat="49.85122" lon="4.80074">
        <ele>328</ele>
        <time>2022-09-18T09:44:25.000Z</time>
      </trkpt>
      <trkpt lat="49.8512" lon="4.80076">
        <ele>329</ele>
        <time>2022-09-18T09:44:26.000Z</time>
      </trkpt>
      <trkpt lat="49.85117" lon="4.80079">
        <ele>329</ele>
        <time>2022-09-18T09:44:27.000Z</time>
      </trkpt>
      <trkpt lat="49.85115" lon="4.80081">
        <ele>329</ele>
        <time>2022-09-18T09:44:28.000Z</time>
      </trkpt>
      <trkpt lat="49.85113" lon="4.80083">
        <ele>330</ele>
        <time>2022-09-18T09:44:29.000Z</time>
      </trkpt>
      <trkpt lat="49.85111" lon="4.80085">
        <ele>330</ele>
        <time>2022-09-18T09:44:30.000Z</time>
      </trkpt>
      <trkpt lat="49.85109" lon="4.80087">
        <ele>330</ele>
        <time>2022-09-18T09:44:31.000Z</time>
      </trkpt>
      <trkpt lat="49.85107" lon="4.80089">
        <ele>330</ele>
        <time>2022-09-18T09:44:32.000Z</time>
      </trkpt>
      <trkpt lat="49.85104" lon="4.80091">
        <ele>331</ele>
        <time>2022-09-18T09:44:33.000Z</time>
      </trkpt>
      <trkpt lat="49.85102" lon="4.80092">
        <ele>331</ele>
        <time>2022-09-18T09:44:34.000Z</time>
      </trkpt>
      <trkpt lat="49.851" lon="4.80094">
        <ele>331</ele>
        <time>2022-09-18T09:44:35.000Z</time>
      </trkpt>
      <trkpt lat="49.85098" lon="4.80095">
        <ele>332</ele>
        <time>2022-09-18T09:44:36.000Z</time>
      </trkpt>
      <trkpt lat="49.85096" lon="4.80096">
        <ele>332</ele>
        <time>2022-09-18T09:44:37.000Z</time>
      </trkpt>
      <trkpt lat="49.85093" lon="4.80097">
        <ele>332</ele>
        <time>2022-09-18T09:44:38.000Z</time>
      </trkpt>
      <trkpt lat="49.8509" lon="4.80098">
        <ele>332</ele>
        <time>2022-09-18T09:44:39.000Z</time>
      </trkpt>
      <trkpt lat="49.85086" lon="4.801">
        <ele>332</ele>
        <time>2022-09-18T09:44:40.000Z</time>
      </trkpt>
      <trkpt lat="49.85082" lon="4.80102">
        <ele>332</ele>
        <time>2022-09-18T09:44:41.000Z</time>
      </trkpt>
      <trkpt lat="49.85079" lon="4.80103">
        <ele>332</ele>
        <time>2022-09-18T09:44:42.000Z</time>
      </trkpt>
      <trkpt lat="49.85076" lon="4.80106">
        <ele>332</ele>
        <time>2022-09-18T09:44:43.000Z</time>
      </trkpt>
      <trkpt lat="49.85073" lon="4.80108">
        <ele>332</ele>
        <time>2022-09-18T09:44:44.000Z</time>
      </trkpt>
      <trkpt lat="49.85071" lon="4.8011">
        <ele>333</ele>
        <time>2022-09-18T09:44:45.000Z</time>
      </trkpt>
      <trkpt lat="49.85069" lon="4.80113">
        <ele>333</ele>
        <time>2022-09-18T09:44:46.000Z</time>
      </trkpt>
      <trkpt lat="49.85067" lon="4.80117">
        <ele>333</ele>
        <time>2022-09-18T09:44:47.000Z</time>
      </trkpt>
      <trkpt lat="49.85065" lon="4.8012">
        <ele>333</ele>
        <time>2022-09-18T09:44:48.000Z</time>
      </trkpt>
      <trkpt lat="49.85062" lon="4.80123">
        <ele>333</ele>
        <time>2022-09-18T09:44:49.000Z</time>
      </trkpt>
      <trkpt lat="49.8506" lon="4.80126">
        <ele>333</ele>
        <time>2022-09-18T09:44:50.000Z</time>
      </trkpt>
      <trkpt lat="49.85058" lon="4.80129">
        <ele>333</ele>
        <time>2022-09-18T09:44:51.000Z</time>
      </trkpt>
      <trkpt lat="49.85056" lon="4.80132">
        <ele>333</ele>
        <time>2022-09-18T09:44:52.000Z</time>
      </trkpt>
      <trkpt lat="49.85054" lon="4.80134">
        <ele>333</ele>
        <time>2022-09-18T09:44:53.000Z</time>
      </trkpt>
      <trkpt lat="49.85052" lon="4.80137">
        <ele>333</ele>
        <time>2022-09-18T09:44:54.000Z</time>
      </trkpt>
      <trkpt lat="49.8505" lon="4.8014">
        <ele>333</ele>
        <time>2022-09-18T09:44:55.000Z</time>
      </trkpt>
      <trkpt lat="49.85047" lon="4.80145">
        <ele>333</ele>
        <time>2022-09-18T09:44:56.000Z</time>
      </trkpt>
      <trkpt lat="49.85044" lon="4.8015">
        <ele>333</ele>
        <time>2022-09-18T09:44:57.000Z</time>
      </trkpt>
      <trkpt lat="49.8504" lon="4.80155">
        <ele>333</ele>
        <time>2022-09-18T09:44:58.000Z</time>
      </trkpt>
      <trkpt lat="49.85036" lon="4.8016">
        <ele>333</ele>
        <time>2022-09-18T09:44:59.000Z</time>
      </trkpt>
      <trkpt lat="49.85033" lon="4.80164">
        <ele>333</ele>
        <time>2022-09-18T09:45:00.000Z</time>
      </trkpt>
      <trkpt lat="49.8503" lon="4.80168">
        <ele>333</ele>
        <time>2022-09-18T09:45:01.000Z</time>
      </trkpt>
      <trkpt lat="49.85027" lon="4.80172">
        <ele>333</ele>
        <time>2022-09-18T09:45:02.000Z</time>
      </trkpt>
      <trkpt lat="49.85024" lon="4.80176">
        <ele>334</ele>
        <time>2022-09-18T09:45:03.000Z</time>
      </trkpt>
      <trkpt lat="49.85021" lon="4.8018">
        <ele>334</ele>
        <time>2022-09-18T09:45:04.000Z</time>
      </trkpt>
      <trkpt lat="49.85018" lon="4.80184">
        <ele>334</ele>
        <time>2022-09-18T09:45:05.000Z</time>
      </trkpt>
      <trkpt lat="49.85015" lon="4.80189">
        <ele>334</ele>
        <time>2022-09-18T09:45:06.000Z</time>
      </trkpt>
      <trkpt lat="49.85012" lon="4.80195">
        <ele>334</ele>
        <time>2022-09-18T09:45:07.000Z</time>
      </trkpt>
      <trkpt lat="49.85009" lon="4.80201">
        <ele>334</ele>
        <time>2022-09-18T09:45:08.000Z</time>
      </trkpt>
      <trkpt lat="49.85006" lon="4.80208">
        <ele>334</ele>
        <time>2022-09-18T09:45:09.000Z</time>
      </trkpt>
      <trkpt lat="49.85004" lon="4.80214">
        <ele>334</ele>
        <time>2022-09-18T09:45:10.000Z</time>
      </trkpt>
      <trkpt lat="49.85002" lon="4.8022">
        <ele>334</ele>
        <time>2022-09-18T09:45:11.000Z</time>
      </trkpt>
      <trkpt lat="49.85001" lon="4.80226">
        <ele>334</ele>
        <time>2022-09-18T09:45:12.000Z</time>
      </trkpt>
      <trkpt lat="49.84999" lon="4.80232">
        <ele>334</ele>
        <time>2022-09-18T09:45:13.000Z</time>
      </trkpt>
      <trkpt lat="49.84998" lon="4.80237">
        <ele>334</ele>
        <time>2022-09-18T09:45:14.000Z</time>
      </trkpt>
      <trkpt lat="49.84997" lon="4.80241">
        <ele>334</ele>
        <time>2022-09-18T09:45:15.000Z</time>
      </trkpt>
      <trkpt lat="49.84997" lon="4.80245">
        <ele>334</ele>
        <time>2022-09-18T09:45:16.000Z</time>
      </trkpt>
      <trkpt lat="49.84996" lon="4.80248">
        <ele>334</ele>
        <time>2022-09-18T09:45:17.000Z</time>
      </trkpt>
      <trkpt lat="49.84997" lon="4.80251">
        <ele>334</ele>
        <time>2022-09-18T09:45:18.000Z</time>
      </trkpt>
      <trkpt lat="49.84997" lon="4.80255">
        <ele>334</ele>
        <time>2022-09-18T09:45:19.000Z</time>
      </trkpt>
      <trkpt lat="49.84998" lon="4.80257">
        <ele>334</ele>
        <time>2022-09-18T09:45:20.000Z</time>
      </trkpt>
      <trkpt lat="49.84999" lon="4.80259">
        <ele>334</ele>
        <time>2022-09-18T09:45:21.000Z</time>
      </trkpt>
      <trkpt lat="49.85" lon="4.80261">
        <ele>334</ele>
        <time>2022-09-18T09:45:22.000Z</time>
      </trkpt>
      <trkpt lat="49.85" lon="4.80263">
        <ele>334</ele>
        <time>2022-09-18T09:45:23.000Z</time>
      </trkpt>
      <trkpt lat="49.85001" lon="4.80266">
        <ele>334</ele>
        <time>2022-09-18T09:45:24.000Z</time>
      </trkpt>
      <trkpt lat="49.85002" lon="4.80269">
        <ele>334</ele>
        <time>2022-09-18T09:45:25.000Z</time>
      </trkpt>
      <trkpt lat="49.85004" lon="4.80272">
        <ele>334</ele>
        <time>2022-09-18T09:45:26.000Z</time>
      </trkpt>
      <trkpt lat="49.85005" lon="4.80275">
        <ele>334</ele>
        <time>2022-09-18T09:45:27.000Z</time>
      </trkpt>
      <trkpt lat="49.85006" lon="4.80278">
        <ele>334</ele>
        <time>2022-09-18T09:45:28.000Z</time>
      </trkpt>
      <trkpt lat="49.85008" lon="4.80281">
        <ele>334</ele>
        <time>2022-09-18T09:45:29.000Z</time>
      </trkpt>
      <trkpt lat="49.8501" lon="4.80286">
        <ele>334</ele>
        <time>2022-09-18T09:45:30.000Z</time>
      </trkpt>
      <trkpt lat="49.85013" lon="4.80291">
        <ele>334</ele>
        <time>2022-09-18T09:45:31.000Z</time>
      </trkpt>
      <trkpt lat="49.85015" lon="4.80297">
        <ele>335</ele>
        <time>2022-09-18T09:45:32.000Z</time>
      </trkpt>
      <trkpt lat="49.85017" lon="4.803">
        <ele>335</ele>
        <time>2022-09-18T09:45:33.000Z</time>
      </trkpt>
      <trkpt lat="49.85019" lon="4.80303">
        <ele>335</ele>
        <time>2022-09-18T09:45:34.000Z</time>
      </trkpt>
      <trkpt lat="49.85021" lon="4.80305">
        <ele>335</ele>
        <time>2022-09-18T09:45:35.000Z</time>
      </trkpt>
      <trkpt lat="49.85022" lon="4.80308">
        <ele>335</ele>
        <time>2022-09-18T09:45:36.000Z</time>
      </trkpt>
      <trkpt lat="49.85024" lon="4.80311">
        <ele>335</ele>
        <time>2022-09-18T09:45:37.000Z</time>
      </trkpt>
      <trkpt lat="49.85026" lon="4.80313">
        <ele>335</ele>
        <time>2022-09-18T09:45:38.000Z</time>
      </trkpt>
      <trkpt lat="49.85028" lon="4.80316">
        <ele>335</ele>
        <time>2022-09-18T09:45:39.000Z</time>
      </trkpt>
      <trkpt lat="49.85029" lon="4.80318">
        <ele>335</ele>
        <time>2022-09-18T09:45:40.000Z</time>
      </trkpt>
      <trkpt lat="49.85031" lon="4.80321">
        <ele>335</ele>
        <time>2022-09-18T09:45:41.000Z</time>
      </trkpt>
      <trkpt lat="49.85033" lon="4.80322">
        <ele>335</ele>
        <time>2022-09-18T09:45:42.000Z</time>
      </trkpt>
      <trkpt lat="49.85035" lon="4.80324">
        <ele>335</ele>
        <time>2022-09-18T09:45:43.000Z</time>
      </trkpt>
      <trkpt lat="49.85037" lon="4.80328">
        <ele>335</ele>
        <time>2022-09-18T09:45:44.000Z</time>
      </trkpt>
      <trkpt lat="49.85039" lon="4.80332">
        <ele>335</ele>
        <time>2022-09-18T09:45:45.000Z</time>
      </trkpt>
      <trkpt lat="49.85042" lon="4.80336">
        <ele>335</ele>
        <time>2022-09-18T09:45:46.000Z</time>
      </trkpt>
      <trkpt lat="49.85045" lon="4.8034">
        <ele>335</ele>
        <time>2022-09-18T09:45:47.000Z</time>
      </trkpt>
      <trkpt lat="49.85048" lon="4.80343">
        <ele>335</ele>
        <time>2022-09-18T09:45:48.000Z</time>
      </trkpt>
      <trkpt lat="49.85051" lon="4.80347">
        <ele>335</ele>
        <time>2022-09-18T09:45:49.000Z</time>
      </trkpt>
      <trkpt lat="49.85055" lon="4.80351">
        <ele>335</ele>
        <time>2022-09-18T09:45:50.000Z</time>
      </trkpt>
      <trkpt lat="49.85058" lon="4.80355">
        <ele>335</ele>
        <time>2022-09-18T09:45:51.000Z</time>
      </trkpt>
      <trkpt lat="49.85062" lon="4.8036">
        <ele>335</ele>
        <time>2022-09-18T09:45:52.000Z</time>
      </trkpt>
      <trkpt lat="49.85063" lon="4.80366">
        <ele>335</ele>
        <time>2022-09-18T09:45:53.000Z</time>
      </trkpt>
      <trkpt lat="49.85065" lon="4.80371">
        <ele>335</ele>
        <time>2022-09-18T09:45:54.000Z</time>
      </trkpt>
      <trkpt lat="49.85066" lon="4.80377">
        <ele>335</ele>
        <time>2022-09-18T09:45:55.000Z</time>
      </trkpt>
      <trkpt lat="49.85068" lon="4.80383">
        <ele>335</ele>
        <time>2022-09-18T09:45:56.000Z</time>
      </trkpt>
      <trkpt lat="49.8507" lon="4.80389">
        <ele>335</ele>
        <time>2022-09-18T09:45:57.000Z</time>
      </trkpt>
      <trkpt lat="49.85072" lon="4.80394">
        <ele>335</ele>
        <time>2022-09-18T09:45:58.000Z</time>
      </trkpt>
      <trkpt lat="49.85076" lon="4.80398">
        <ele>335</ele>
        <time>2022-09-18T09:45:59.000Z</time>
      </trkpt>
      <trkpt lat="49.8508" lon="4.80401">
        <ele>335</ele>
        <time>2022-09-18T09:46:00.000Z</time>
      </trkpt>
      <trkpt lat="49.85085" lon="4.80404">
        <ele>335</ele>
        <time>2022-09-18T09:46:01.000Z</time>
      </trkpt>
      <trkpt lat="49.8509" lon="4.80405">
        <ele>335</ele>
        <time>2022-09-18T09:46:02.000Z</time>
      </trkpt>
      <trkpt lat="49.85095" lon="4.80405">
        <ele>335</ele>
        <time>2022-09-18T09:46:03.000Z</time>
      </trkpt>
      <trkpt lat="49.851" lon="4.80403">
        <ele>335</ele>
        <time>2022-09-18T09:46:04.000Z</time>
      </trkpt>
      <trkpt lat="49.85105" lon="4.80401">
        <ele>335</ele>
        <time>2022-09-18T09:46:05.000Z</time>
      </trkpt>
      <trkpt lat="49.85109" lon="4.80398">
        <ele>335</ele>
        <time>2022-09-18T09:46:06.000Z</time>
      </trkpt>
      <trkpt lat="49.85113" lon="4.80396">
        <ele>334</ele>
        <time>2022-09-18T09:46:07.000Z</time>
      </trkpt>
      <trkpt lat="49.85116" lon="4.80394">
        <ele>334</ele>
        <time>2022-09-18T09:46:08.000Z</time>
      </trkpt>
      <trkpt lat="49.8512" lon="4.80391">
        <ele>333</ele>
        <time>2022-09-18T09:46:09.000Z</time>
      </trkpt>
      <trkpt lat="49.85124" lon="4.80388">
        <ele>333</ele>
        <time>2022-09-18T09:46:10.000Z</time>
      </trkpt>
      <trkpt lat="49.85128" lon="4.80384">
        <ele>332</ele>
        <time>2022-09-18T09:46:11.000Z</time>
      </trkpt>
      <trkpt lat="49.85132" lon="4.8038">
        <ele>331</ele>
        <time>2022-09-18T09:46:12.000Z</time>
      </trkpt>
      <trkpt lat="49.85135" lon="4.80376">
        <ele>331</ele>
        <time>2022-09-18T09:46:13.000Z</time>
      </trkpt>
      <trkpt lat="49.85139" lon="4.80371">
        <ele>330</ele>
        <time>2022-09-18T09:46:14.000Z</time>
      </trkpt>
      <trkpt lat="49.85142" lon="4.80365">
        <ele>330</ele>
        <time>2022-09-18T09:46:15.000Z</time>
      </trkpt>
      <trkpt lat="49.85145" lon="4.8036">
        <ele>329</ele>
        <time>2022-09-18T09:46:16.000Z</time>
      </trkpt>
      <trkpt lat="49.85148" lon="4.80356">
        <ele>329</ele>
        <time>2022-09-18T09:46:17.000Z</time>
      </trkpt>
      <trkpt lat="49.8515" lon="4.80352">
        <ele>328</ele>
        <time>2022-09-18T09:46:18.000Z</time>
      </trkpt>
      <trkpt lat="49.85152" lon="4.8035">
        <ele>328</ele>
        <time>2022-09-18T09:46:19.000Z</time>
      </trkpt>
      <trkpt lat="49.85154" lon="4.80348">
        <ele>327</ele>
        <time>2022-09-18T09:46:20.000Z</time>
      </trkpt>
      <trkpt lat="49.85156" lon="4.80348">
        <ele>327</ele>
        <time>2022-09-18T09:46:21.000Z</time>
      </trkpt>
      <trkpt lat="49.85158" lon="4.80348">
        <ele>326</ele>
        <time>2022-09-18T09:46:22.000Z</time>
      </trkpt>
      <trkpt lat="49.85161" lon="4.80349">
        <ele>326</ele>
        <time>2022-09-18T09:46:23.000Z</time>
      </trkpt>
      <trkpt lat="49.85165" lon="4.80349">
        <ele>326</ele>
        <time>2022-09-18T09:46:24.000Z</time>
      </trkpt>
      <trkpt lat="49.85168" lon="4.8035">
        <ele>325</ele>
        <time>2022-09-18T09:46:25.000Z</time>
      </trkpt>
      <trkpt lat="49.85171" lon="4.8035">
        <ele>325</ele>
        <time>2022-09-18T09:46:26.000Z</time>
      </trkpt>
      <trkpt lat="49.85173" lon="4.80352">
        <ele>325</ele>
        <time>2022-09-18T09:46:27.000Z</time>
      </trkpt>
      <trkpt lat="49.85175" lon="4.80352">
        <ele>324</ele>
        <time>2022-09-18T09:46:28.000Z</time>
      </trkpt>
      <trkpt lat="49.85176" lon="4.80352">
        <ele>324</ele>
        <time>2022-09-18T09:46:29.000Z</time>
      </trkpt>
      <trkpt lat="49.85177" lon="4.80352">
        <ele>324</ele>
        <time>2022-09-18T09:46:30.000Z</time>
      </trkpt>
      <trkpt lat="49.85178" lon="4.80352">
        <ele>323</ele>
        <time>2022-09-18T09:46:31.000Z</time>
      </trkpt>
      <trkpt lat="49.85179" lon="4.80353">
        <ele>323</ele>
        <time>2022-09-18T09:46:32.000Z</time>
      </trkpt>
      <trkpt lat="49.85179" lon="4.80353">
        <ele>323</ele>
        <time>2022-09-18T09:46:33.000Z</time>
      </trkpt>
      <trkpt lat="49.85179" lon="4.80354">
        <ele>323</ele>
        <time>2022-09-18T09:46:34.000Z</time>
      </trkpt>
      <trkpt lat="49.85179" lon="4.80354">
        <ele>323</ele>
        <time>2022-09-18T09:46:35.000Z</time>
      </trkpt>
      <trkpt lat="49.8518" lon="4.80354">
        <ele>322</ele>
        <time>2022-09-18T09:46:36.000Z</time>
      </trkpt>
      <trkpt lat="49.85181" lon="4.80355">
        <ele>322</ele>
        <time>2022-09-18T09:46:37.000Z</time>
      </trkpt>
      <trkpt lat="49.85181" lon="4.80355">
        <ele>322</ele>
        <time>2022-09-18T09:46:38.000Z</time>
      </trkpt>
      <trkpt lat="49.85181" lon="4.80355">
        <ele>322</ele>
        <time>2022-09-18T09:46:39.000Z</time>
      </trkpt>
      <trkpt lat="49.85182" lon="4.80356">
        <ele>322</ele>
        <time>2022-09-18T09:46:40.000Z</time>
      </trkpt>
      <trkpt lat="49.85184" lon="4.80356">
        <ele>322</ele>
        <time>2022-09-18T09:46:41.000Z</time>
      </trkpt>
      <trkpt lat="49.85186" lon="4.80357">
        <ele>322</ele>
        <time>2022-09-18T09:46:42.000Z</time>
      </trkpt>
      <trkpt lat="49.85189" lon="4.80357">
        <ele>321</ele>
        <time>2022-09-18T09:46:43.000Z</time>
      </trkpt>
      <trkpt lat="49.85192" lon="4.80358">
        <ele>321</ele>
        <time>2022-09-18T09:46:44.000Z</time>
      </trkpt>
      <trkpt lat="49.85195" lon="4.80358">
        <ele>321</ele>
        <time>2022-09-18T09:46:45.000Z</time>
      </trkpt>
      <trkpt lat="49.85199" lon="4.80359">
        <ele>321</ele>
        <time>2022-09-18T09:46:46.000Z</time>
      </trkpt>
      <trkpt lat="49.85203" lon="4.8036">
        <ele>321</ele>
        <time>2022-09-18T09:46:47.000Z</time>
      </trkpt>
      <trkpt lat="49.85208" lon="4.8036">
        <ele>320</ele>
        <time>2022-09-18T09:46:48.000Z</time>
      </trkpt>
      <trkpt lat="49.85212" lon="4.8036">
        <ele>320</ele>
        <time>2022-09-18T09:46:49.000Z</time>
      </trkpt>
      <trkpt lat="49.85215" lon="4.80358">
        <ele>320</ele>
        <time>2022-09-18T09:46:50.000Z</time>
      </trkpt>
      <trkpt lat="49.85219" lon="4.80358">
        <ele>320</ele>
        <time>2022-09-18T09:46:51.000Z</time>
      </trkpt>
      <trkpt lat="49.85223" lon="4.80358">
        <ele>319</ele>
        <time>2022-09-18T09:46:52.000Z</time>
      </trkpt>
      <trkpt lat="49.85227" lon="4.80358">
        <ele>319</ele>
        <time>2022-09-18T09:46:53.000Z</time>
      </trkpt>
      <trkpt lat="49.8523" lon="4.80357">
        <ele>319</ele>
        <time>2022-09-18T09:46:54.000Z</time>
      </trkpt>
      <trkpt lat="49.85234" lon="4.80357">
        <ele>318</ele>
        <time>2022-09-18T09:46:55.000Z</time>
      </trkpt>
      <trkpt lat="49.85239" lon="4.80358">
        <ele>318</ele>
        <time>2022-09-18T09:46:56.000Z</time>
      </trkpt>
      <trkpt lat="49.85244" lon="4.80359">
        <ele>317</ele>
        <time>2022-09-18T09:46:57.000Z</time>
      </trkpt>
      <trkpt lat="49.85249" lon="4.8036">
        <ele>317</ele>
        <time>2022-09-18T09:46:58.000Z</time>
      </trkpt>
      <trkpt lat="49.85254" lon="4.80361">
        <ele>317</ele>
        <time>2022-09-18T09:46:59.000Z</time>
      </trkpt>
      <trkpt lat="49.85259" lon="4.80363">
        <ele>316</ele>
        <time>2022-09-18T09:47:00.000Z</time>
      </trkpt>
      <trkpt lat="49.85264" lon="4.80363">
        <ele>316</ele>
        <time>2022-09-18T09:47:01.000Z</time>
      </trkpt>
      <trkpt lat="49.85269" lon="4.80364">
        <ele>315</ele>
        <time>2022-09-18T09:47:02.000Z</time>
      </trkpt>
      <trkpt lat="49.85275" lon="4.80363">
        <ele>315</ele>
        <time>2022-09-18T09:47:03.000Z</time>
      </trkpt>
      <trkpt lat="49.8528" lon="4.80364">
        <ele>314</ele>
        <time>2022-09-18T09:47:04.000Z</time>
      </trkpt>
      <trkpt lat="49.85284" lon="4.80365">
        <ele>314</ele>
        <time>2022-09-18T09:47:05.000Z</time>
      </trkpt>
      <trkpt lat="49.85288" lon="4.80365">
        <ele>314</ele>
        <time>2022-09-18T09:47:06.000Z</time>
      </trkpt>
      <trkpt lat="49.85291" lon="4.80366">
        <ele>314</ele>
        <time>2022-09-18T09:47:07.000Z</time>
      </trkpt>
      <trkpt lat="49.85294" lon="4.80367">
        <ele>314</ele>
        <time>2022-09-18T09:47:08.000Z</time>
      </trkpt>
      <trkpt lat="49.85296" lon="4.80368">
        <ele>314</ele>
        <time>2022-09-18T09:47:09.000Z</time>
      </trkpt>
      <trkpt lat="49.85297" lon="4.80369">
        <ele>313</ele>
        <time>2022-09-18T09:47:10.000Z</time>
      </trkpt>
      <trkpt lat="49.85297" lon="4.80369">
        <ele>313</ele>
        <time>2022-09-18T09:47:11.000Z</time>
      </trkpt>
      <trkpt lat="49.85297" lon="4.80369">
        <ele>313</ele>
        <time>2022-09-18T09:47:12.000Z</time>
      </trkpt>
      <trkpt lat="49.85297" lon="4.80369">
        <ele>313</ele>
        <time>2022-09-18T09:47:13.000Z</time>
      </trkpt>
      <trkpt lat="49.85297" lon="4.80369">
        <ele>313</ele>
        <time>2022-09-18T09:47:14.000Z</time>
      </trkpt>
      <trkpt lat="49.85298" lon="4.80369">
        <ele>313</ele>
        <time>2022-09-18T09:47:15.000Z</time>
      </trkpt>
      <trkpt lat="49.85298" lon="4.8037">
        <ele>313</ele>
        <time>2022-09-18T09:47:16.000Z</time>
      </trkpt>
      <trkpt lat="49.85298" lon="4.80371">
        <ele>313</ele>
        <time>2022-09-18T09:47:17.000Z</time>
      </trkpt>
      <trkpt lat="49.85298" lon="4.80372">
        <ele>313</ele>
        <time>2022-09-18T09:47:18.000Z</time>
      </trkpt>
      <trkpt lat="49.85298" lon="4.80373">
        <ele>313</ele>
        <time>2022-09-18T09:47:19.000Z</time>
      </trkpt>
      <trkpt lat="49.85298" lon="4.80374">
        <ele>313</ele>
        <time>2022-09-18T09:47:20.000Z</time>
      </trkpt>
      <trkpt lat="49.85298" lon="4.80375">
        <ele>313</ele>
        <time>2022-09-18T09:47:21.000Z</time>
      </trkpt>
      <trkpt lat="49.85298" lon="4.80375">
        <ele>313</ele>
        <time>2022-09-18T09:47:22.000Z</time>
      </trkpt>
      <trkpt lat="49.85298" lon="4.80376">
        <ele>313</ele>
        <time>2022-09-18T09:47:23.000Z</time>
      </trkpt>
      <trkpt lat="49.85298" lon="4.80377">
        <ele>313</ele>
        <time>2022-09-18T09:47:24.000Z</time>
      </trkpt>
      <trkpt lat="49.85297" lon="4.80378">
        <ele>312</ele>
        <time>2022-09-18T09:47:25.000Z</time>
      </trkpt>
      <trkpt lat="49.85297" lon="4.80379">
        <ele>312</ele>
        <time>2022-09-18T09:47:26.000Z</time>
      </trkpt>
      <trkpt lat="49.85297" lon="4.8038">
        <ele>312</ele>
        <time>2022-09-18T09:47:27.000Z</time>
      </trkpt>
      <trkpt lat="49.85297" lon="4.80382">
        <ele>312</ele>
        <time>2022-09-18T09:47:28.000Z</time>
      </trkpt>
      <trkpt lat="49.85297" lon="4.80383">
        <ele>312</ele>
        <time>2022-09-18T09:47:29.000Z</time>
      </trkpt>
      <trkpt lat="49.85297" lon="4.80384">
        <ele>312</ele>
        <time>2022-09-18T09:47:30.000Z</time>
      </trkpt>
      <trkpt lat="49.85297" lon="4.80385">
        <ele>312</ele>
        <time>2022-09-18T09:47:31.000Z</time>
      </trkpt>
      <trkpt lat="49.85297" lon="4.80386">
        <ele>312</ele>
        <time>2022-09-18T09:47:32.000Z</time>
      </trkpt>
      <trkpt lat="49.85297" lon="4.80387">
        <ele>312</ele>
        <time>2022-09-18T09:47:33.000Z</time>
      </trkpt>
      <trkpt lat="49.85297" lon="4.80388">
        <ele>313</ele>
        <time>2022-09-18T09:47:34.000Z</time>
      </trkpt>
      <trkpt lat="49.85297" lon="4.80389">
        <ele>313</ele>
        <time>2022-09-18T09:47:35.000Z</time>
      </trkpt>
      <trkpt lat="49.85297" lon="4.80391">
        <ele>313</ele>
        <time>2022-09-18T09:47:36.000Z</time>
      </trkpt>
      <trkpt lat="49.85297" lon="4.80391">
        <ele>313</ele>
        <time>2022-09-18T09:47:37.000Z</time>
      </trkpt>
      <trkpt lat="49.85297" lon="4.80392">
        <ele>313</ele>
        <time>2022-09-18T09:47:38.000Z</time>
      </trkpt>
      <trkpt lat="49.85297" lon="4.80392">
        <ele>313</ele>
        <time>2022-09-18T09:47:39.000Z</time>
      </trkpt>
      <trkpt lat="49.85298" lon="4.80393">
        <ele>313</ele>
        <time>2022-09-18T09:47:40.000Z</time>
      </trkpt>
      <trkpt lat="49.85298" lon="4.80393">
        <ele>313</ele>
        <time>2022-09-18T09:47:41.000Z</time>
      </trkpt>
      <trkpt lat="49.85298" lon="4.80394">
        <ele>313</ele>
        <time>2022-09-18T09:47:42.000Z</time>
      </trkpt>
      <trkpt lat="49.85297" lon="4.80394">
        <ele>313</ele>
        <time>2022-09-18T09:47:43.000Z</time>
      </trkpt>
      <trkpt lat="49.85297" lon="4.80395">
        <ele>313</ele>
        <time>2022-09-18T09:47:44.000Z</time>
      </trkpt>
      <trkpt lat="49.85297" lon="4.80395">
        <ele>313</ele>
        <time>2022-09-18T09:47:45.000Z</time>
      </trkpt>
      <trkpt lat="49.85297" lon="4.80396">
        <ele>313</ele>
        <time>2022-09-18T09:47:46.000Z</time>
      </trkpt>
      <trkpt lat="49.85296" lon="4.80397">
        <ele>313</ele>
        <time>2022-09-18T09:47:47.000Z</time>
      </trkpt>
      <trkpt lat="49.85297" lon="4.80399">
        <ele>313</ele>
        <time>2022-09-18T09:47:48.000Z</time>
      </trkpt>
      <trkpt lat="49.85297" lon="4.804">
        <ele>313</ele>
        <time>2022-09-18T09:47:49.000Z</time>
      </trkpt>
      <trkpt lat="49.85297" lon="4.80401">
        <ele>313</ele>
        <time>2022-09-18T09:47:50.000Z</time>
      </trkpt>
      <trkpt lat="49.85297" lon="4.80402">
        <ele>313</ele>
        <time>2022-09-18T09:47:51.000Z</time>
      </trkpt>
      <trkpt lat="49.85297" lon="4.80403">
        <ele>313</ele>
        <time>2022-09-18T09:47:52.000Z</time>
      </trkpt>
      <trkpt lat="49.85297" lon="4.80405">
        <ele>313</ele>
        <time>2022-09-18T09:47:53.000Z</time>
      </trkpt>
      <trkpt lat="49.85297" lon="4.80405">
        <ele>313</ele>
        <time>2022-09-18T09:47:54.000Z</time>
      </trkpt>
      <trkpt lat="49.85298" lon="4.80407">
        <ele>313</ele>
        <time>2022-09-18T09:47:55.000Z</time>
      </trkpt>
      <trkpt lat="49.85298" lon="4.80408">
        <ele>313</ele>
        <time>2022-09-18T09:47:56.000Z</time>
      </trkpt>
      <trkpt lat="49.85297" lon="4.80409">
        <ele>313</ele>
        <time>2022-09-18T09:47:57.000Z</time>
      </trkpt>
      <trkpt lat="49.85297" lon="4.8041">
        <ele>314</ele>
        <time>2022-09-18T09:47:58.000Z</time>
      </trkpt>
      <trkpt lat="49.85297" lon="4.80411">
        <ele>314</ele>
        <time>2022-09-18T09:47:59.000Z</time>
      </trkpt>
      <trkpt lat="49.85297" lon="4.80412">
        <ele>314</ele>
        <time>2022-09-18T09:48:00.000Z</time>
      </trkpt>
      <trkpt lat="49.85297" lon="4.80413">
        <ele>314</ele>
        <time>2022-09-18T09:48:01.000Z</time>
      </trkpt>
      <trkpt lat="49.85298" lon="4.80414">
        <ele>314</ele>
        <time>2022-09-18T09:48:02.000Z</time>
      </trkpt>
      <trkpt lat="49.85297" lon="4.80415">
        <ele>315</ele>
        <time>2022-09-18T09:48:03.000Z</time>
      </trkpt>
      <trkpt lat="49.85297" lon="4.80416">
        <ele>315</ele>
        <time>2022-09-18T09:48:04.000Z</time>
      </trkpt>
      <trkpt lat="49.85297" lon="4.80418">
        <ele>315</ele>
        <time>2022-09-18T09:48:05.000Z</time>
      </trkpt>
      <trkpt lat="49.85297" lon="4.80419">
        <ele>315</ele>
        <time>2022-09-18T09:48:06.000Z</time>
      </trkpt>
      <trkpt lat="49.85297" lon="4.8042">
        <ele>316</ele>
        <time>2022-09-18T09:48:07.000Z</time>
      </trkpt>
      <trkpt lat="49.85297" lon="4.8042">
        <ele>316</ele>
        <time>2022-09-18T09:48:08.000Z</time>
      </trkpt>
      <trkpt lat="49.85297" lon="4.80421">
        <ele>316</ele>
        <time>2022-09-18T09:48:09.000Z</time>
      </trkpt>
      <trkpt lat="49.85297" lon="4.80422">
        <ele>316</ele>
        <time>2022-09-18T09:48:10.000Z</time>
      </trkpt>
      <trkpt lat="49.85296" lon="4.80423">
        <ele>316</ele>
        <time>2022-09-18T09:48:11.000Z</time>
      </trkpt>
      <trkpt lat="49.85296" lon="4.80424">
        <ele>317</ele>
        <time>2022-09-18T09:48:12.000Z</time>
      </trkpt>
      <trkpt lat="49.85296" lon="4.80424">
        <ele>317</ele>
        <time>2022-09-18T09:48:13.000Z</time>
      </trkpt>
      <trkpt lat="49.85296" lon="4.80425">
        <ele>317</ele>
        <time>2022-09-18T09:48:14.000Z</time>
      </trkpt>
      <trkpt lat="49.85296" lon="4.80426">
        <ele>317</ele>
        <time>2022-09-18T09:48:15.000Z</time>
      </trkpt>
      <trkpt lat="49.85296" lon="4.80427">
        <ele>317</ele>
        <time>2022-09-18T09:48:16.000Z</time>
      </trkpt>
      <trkpt lat="49.85296" lon="4.80428">
        <ele>318</ele>
        <time>2022-09-18T09:48:17.000Z</time>
      </trkpt>
      <trkpt lat="49.85295" lon="4.80428">
        <ele>318</ele>
        <time>2022-09-18T09:48:18.000Z</time>
      </trkpt>
      <trkpt lat="49.85295" lon="4.8043">
        <ele>318</ele>
        <time>2022-09-18T09:48:19.000Z</time>
      </trkpt>
      <trkpt lat="49.85295" lon="4.80431">
        <ele>319</ele>
        <time>2022-09-18T09:48:20.000Z</time>
      </trkpt>
      <trkpt lat="49.85295" lon="4.80433">
        <ele>319</ele>
        <time>2022-09-18T09:48:21.000Z</time>
      </trkpt>
      <trkpt lat="49.85295" lon="4.80434">
        <ele>319</ele>
        <time>2022-09-18T09:48:22.000Z</time>
      </trkpt>
      <trkpt lat="49.85295" lon="4.80435">
        <ele>319</ele>
        <time>2022-09-18T09:48:23.000Z</time>
      </trkpt>
      <trkpt lat="49.85295" lon="4.80437">
        <ele>320</ele>
        <time>2022-09-18T09:48:24.000Z</time>
      </trkpt>
      <trkpt lat="49.85295" lon="4.80438">
        <ele>320</ele>
        <time>2022-09-18T09:48:25.000Z</time>
      </trkpt>
      <trkpt lat="49.85294" lon="4.80439">
        <ele>320</ele>
        <time>2022-09-18T09:48:26.000Z</time>
      </trkpt>
      <trkpt lat="49.85294" lon="4.8044">
        <ele>320</ele>
        <time>2022-09-18T09:48:27.000Z</time>
      </trkpt>
      <trkpt lat="49.85294" lon="4.80442">
        <ele>320</ele>
        <time>2022-09-18T09:48:28.000Z</time>
      </trkpt>
      <trkpt lat="49.85293" lon="4.80443">
        <ele>321</ele>
        <time>2022-09-18T09:48:29.000Z</time>
      </trkpt>
      <trkpt lat="49.85293" lon="4.80444">
        <ele>321</ele>
        <time>2022-09-18T09:48:30.000Z</time>
      </trkpt>
      <trkpt lat="49.85293" lon="4.80446">
        <ele>321</ele>
        <time>2022-09-18T09:48:31.000Z</time>
      </trkpt>
      <trkpt lat="49.85293" lon="4.80447">
        <ele>321</ele>
        <time>2022-09-18T09:48:32.000Z</time>
      </trkpt>
      <trkpt lat="49.85293" lon="4.80448">
        <ele>322</ele>
        <time>2022-09-18T09:48:33.000Z</time>
      </trkpt>
      <trkpt lat="49.85292" lon="4.80449">
        <ele>322</ele>
        <time>2022-09-18T09:48:34.000Z</time>
      </trkpt>
      <trkpt lat="49.85292" lon="4.8045">
        <ele>322</ele>
        <time>2022-09-18T09:48:35.000Z</time>
      </trkpt>
      <trkpt lat="49.85292" lon="4.80451">
        <ele>322</ele>
        <time>2022-09-18T09:48:36.000Z</time>
      </trkpt>
      <trkpt lat="49.85292" lon="4.80453">
        <ele>323</ele>
        <time>2022-09-18T09:48:37.000Z</time>
      </trkpt>
      <trkpt lat="49.85292" lon="4.80454">
        <ele>323</ele>
        <time>2022-09-18T09:48:38.000Z</time>
      </trkpt>
      <trkpt lat="49.85292" lon="4.80456">
        <ele>323</ele>
        <time>2022-09-18T09:48:39.000Z</time>
      </trkpt>
      <trkpt lat="49.85292" lon="4.80457">
        <ele>324</ele>
        <time>2022-09-18T09:48:40.000Z</time>
      </trkpt>
      <trkpt lat="49.85292" lon="4.80459">
        <ele>324</ele>
        <time>2022-09-18T09:48:41.000Z</time>
      </trkpt>
      <trkpt lat="49.85292" lon="4.80461">
        <ele>324</ele>
        <time>2022-09-18T09:48:42.000Z</time>
      </trkpt>
      <trkpt lat="49.85292" lon="4.80463">
        <ele>324</ele>
        <time>2022-09-18T09:48:43.000Z</time>
      </trkpt>
      <trkpt lat="49.85292" lon="4.80465">
        <ele>325</ele>
        <time>2022-09-18T09:48:44.000Z</time>
      </trkpt>
      <trkpt lat="49.85291" lon="4.80466">
        <ele>325</ele>
        <time>2022-09-18T09:48:45.000Z</time>
      </trkpt>
      <trkpt lat="49.85291" lon="4.80467">
        <ele>325</ele>
        <time>2022-09-18T09:48:46.000Z</time>
      </trkpt>
      <trkpt lat="49.85291" lon="4.80468">
        <ele>326</ele>
        <time>2022-09-18T09:48:47.000Z</time>
      </trkpt>
      <trkpt lat="49.8529" lon="4.80469">
        <ele>326</ele>
        <time>2022-09-18T09:48:48.000Z</time>
      </trkpt>
      <trkpt lat="49.8529" lon="4.8047">
        <ele>327</ele>
        <time>2022-09-18T09:48:49.000Z</time>
      </trkpt>
      <trkpt lat="49.8529" lon="4.80471">
        <ele>327</ele>
        <time>2022-09-18T09:48:50.000Z</time>
      </trkpt>
      <trkpt lat="49.85289" lon="4.80472">
        <ele>327</ele>
        <time>2022-09-18T09:48:51.000Z</time>
      </trkpt>
      <trkpt lat="49.85289" lon="4.80473">
        <ele>327</ele>
        <time>2022-09-18T09:48:52.000Z</time>
      </trkpt>
      <trkpt lat="49.85289" lon="4.80475">
        <ele>328</ele>
        <time>2022-09-18T09:48:53.000Z</time>
      </trkpt>
      <trkpt lat="49.85289" lon="4.80476">
        <ele>328</ele>
        <time>2022-09-18T09:48:54.000Z</time>
      </trkpt>
      <trkpt lat="49.85288" lon="4.80477">
        <ele>328</ele>
        <time>2022-09-18T09:48:55.000Z</time>
      </trkpt>
      <trkpt lat="49.85288" lon="4.80478">
        <ele>328</ele>
        <time>2022-09-18T09:48:56.000Z</time>
      </trkpt>
      <trkpt lat="49.85288" lon="4.8048">
        <ele>329</ele>
        <time>2022-09-18T09:48:57.000Z</time>
      </trkpt>
      <trkpt lat="49.85288" lon="4.8048">
        <ele>329</ele>
        <time>2022-09-18T09:48:58.000Z</time>
      </trkpt>
      <trkpt lat="49.85287" lon="4.80481">
        <ele>329</ele>
        <time>2022-09-18T09:48:59.000Z</time>
      </trkpt>
      <trkpt lat="49.85287" lon="4.80482">
        <ele>329</ele>
        <time>2022-09-18T09:49:00.000Z</time>
      </trkpt>
      <trkpt lat="49.85287" lon="4.80483">
        <ele>330</ele>
        <time>2022-09-18T09:49:01.000Z</time>
      </trkpt>
      <trkpt lat="49.85287" lon="4.80484">
        <ele>330</ele>
        <time>2022-09-18T09:49:02.000Z</time>
      </trkpt>
      <trkpt lat="49.85287" lon="4.80485">
        <ele>330</ele>
        <time>2022-09-18T09:49:03.000Z</time>
      </trkpt>
      <trkpt lat="49.85287" lon="4.80487">
        <ele>330</ele>
        <time>2022-09-18T09:49:04.000Z</time>
      </trkpt>
      <trkpt lat="49.85286" lon="4.80488">
        <ele>331</ele>
        <time>2022-09-18T09:49:05.000Z</time>
      </trkpt>
      <trkpt lat="49.85286" lon="4.80489">
        <ele>331</ele>
        <time>2022-09-18T09:49:06.000Z</time>
      </trkpt>
      <trkpt lat="49.85286" lon="4.80491">
        <ele>331</ele>
        <time>2022-09-18T09:49:07.000Z</time>
      </trkpt>
      <trkpt lat="49.85286" lon="4.80492">
        <ele>332</ele>
        <time>2022-09-18T09:49:08.000Z</time>
      </trkpt>
      <trkpt lat="49.85286" lon="4.80494">
        <ele>332</ele>
        <time>2022-09-18T09:49:09.000Z</time>
      </trkpt>
      <trkpt lat="49.85286" lon="4.80495">
        <ele>332</ele>
        <time>2022-09-18T09:49:10.000Z</time>
      </trkpt>
      <trkpt lat="49.85286" lon="4.80497">
        <ele>333</ele>
        <time>2022-09-18T09:49:11.000Z</time>
      </trkpt>
      <trkpt lat="49.85286" lon="4.80499">
        <ele>333</ele>
        <time>2022-09-18T09:49:12.000Z</time>
      </trkpt>
      <trkpt lat="49.85286" lon="4.80501">
        <ele>333</ele>
        <time>2022-09-18T09:49:13.000Z</time>
      </trkpt>
      <trkpt lat="49.85286" lon="4.80502">
        <ele>333</ele>
        <time>2022-09-18T09:49:14.000Z</time>
      </trkpt>
      <trkpt lat="49.85286" lon="4.80504">
        <ele>334</ele>
        <time>2022-09-18T09:49:15.000Z</time>
      </trkpt>
      <trkpt lat="49.85286" lon="4.80506">
        <ele>334</ele>
        <time>2022-09-18T09:49:16.000Z</time>
      </trkpt>
      <trkpt lat="49.85286" lon="4.80507">
        <ele>334</ele>
        <time>2022-09-18T09:49:17.000Z</time>
      </trkpt>
      <trkpt lat="49.85286" lon="4.80509">
        <ele>334</ele>
        <time>2022-09-18T09:49:18.000Z</time>
      </trkpt>
      <trkpt lat="49.85286" lon="4.80511">
        <ele>334</ele>
        <time>2022-09-18T09:49:19.000Z</time>
      </trkpt>
      <trkpt lat="49.85285" lon="4.80512">
        <ele>335</ele>
        <time>2022-09-18T09:49:20.000Z</time>
      </trkpt>
      <trkpt lat="49.85285" lon="4.80514">
        <ele>335</ele>
        <time>2022-09-18T09:49:21.000Z</time>
      </trkpt>
      <trkpt lat="49.85285" lon="4.80515">
        <ele>335</ele>
        <time>2022-09-18T09:49:22.000Z</time>
      </trkpt>
      <trkpt lat="49.85285" lon="4.80516">
        <ele>336</ele>
        <time>2022-09-18T09:49:23.000Z</time>
      </trkpt>
      <trkpt lat="49.85285" lon="4.80518">
        <ele>336</ele>
        <time>2022-09-18T09:49:24.000Z</time>
      </trkpt>
      <trkpt lat="49.85285" lon="4.80519">
        <ele>336</ele>
        <time>2022-09-18T09:49:25.000Z</time>
      </trkpt>
      <trkpt lat="49.85285" lon="4.8052">
        <ele>337</ele>
        <time>2022-09-18T09:49:26.000Z</time>
      </trkpt>
      <trkpt lat="49.85285" lon="4.80522">
        <ele>337</ele>
        <time>2022-09-18T09:49:27.000Z</time>
      </trkpt>
      <trkpt lat="49.85284" lon="4.80523">
        <ele>337</ele>
        <time>2022-09-18T09:49:28.000Z</time>
      </trkpt>
      <trkpt lat="49.85284" lon="4.80525">
        <ele>337</ele>
        <time>2022-09-18T09:49:29.000Z</time>
      </trkpt>
      <trkpt lat="49.85284" lon="4.80526">
        <ele>338</ele>
        <time>2022-09-18T09:49:30.000Z</time>
      </trkpt>
      <trkpt lat="49.85284" lon="4.80528">
        <ele>338</ele>
        <time>2022-09-18T09:49:31.000Z</time>
      </trkpt>
      <trkpt lat="49.85284" lon="4.8053">
        <ele>338</ele>
        <time>2022-09-18T09:49:32.000Z</time>
      </trkpt>
      <trkpt lat="49.85284" lon="4.80531">
        <ele>338</ele>
        <time>2022-09-18T09:49:33.000Z</time>
      </trkpt>
      <trkpt lat="49.85284" lon="4.80533">
        <ele>338</ele>
        <time>2022-09-18T09:49:34.000Z</time>
      </trkpt>
      <trkpt lat="49.85284" lon="4.80535">
        <ele>338</ele>
        <time>2022-09-18T09:49:35.000Z</time>
      </trkpt>
      <trkpt lat="49.85283" lon="4.80537">
        <ele>338</ele>
        <time>2022-09-18T09:49:36.000Z</time>
      </trkpt>
      <trkpt lat="49.85283" lon="4.80539">
        <ele>339</ele>
        <time>2022-09-18T09:49:37.000Z</time>
      </trkpt>
      <trkpt lat="49.85283" lon="4.80541">
        <ele>339</ele>
        <time>2022-09-18T09:49:38.000Z</time>
      </trkpt>
      <trkpt lat="49.85282" lon="4.80542">
        <ele>339</ele>
        <time>2022-09-18T09:49:39.000Z</time>
      </trkpt>
      <trkpt lat="49.85282" lon="4.80545">
        <ele>340</ele>
        <time>2022-09-18T09:49:40.000Z</time>
      </trkpt>
      <trkpt lat="49.85282" lon="4.80548">
        <ele>340</ele>
        <time>2022-09-18T09:49:41.000Z</time>
      </trkpt>
      <trkpt lat="49.85282" lon="4.8055">
        <ele>340</ele>
        <time>2022-09-18T09:49:42.000Z</time>
      </trkpt>
      <trkpt lat="49.85282" lon="4.80552">
        <ele>340</ele>
        <time>2022-09-18T09:49:43.000Z</time>
      </trkpt>
      <trkpt lat="49.85282" lon="4.80554">
        <ele>340</ele>
        <time>2022-09-18T09:49:44.000Z</time>
      </trkpt>
      <trkpt lat="49.85282" lon="4.80556">
        <ele>341</ele>
        <time>2022-09-18T09:49:45.000Z</time>
      </trkpt>
      <trkpt lat="49.85282" lon="4.80558">
        <ele>341</ele>
        <time>2022-09-18T09:49:46.000Z</time>
      </trkpt>
      <trkpt lat="49.85282" lon="4.80559">
        <ele>341</ele>
        <time>2022-09-18T09:49:47.000Z</time>
      </trkpt>
      <trkpt lat="49.85282" lon="4.80561">
        <ele>341</ele>
        <time>2022-09-18T09:49:48.000Z</time>
      </trkpt>
      <trkpt lat="49.85282" lon="4.80563">
        <ele>341</ele>
        <time>2022-09-18T09:49:49.000Z</time>
      </trkpt>
      <trkpt lat="49.85282" lon="4.80565">
        <ele>342</ele>
        <time>2022-09-18T09:49:50.000Z</time>
      </trkpt>
      <trkpt lat="49.85282" lon="4.80568">
        <ele>342</ele>
        <time>2022-09-18T09:49:51.000Z</time>
      </trkpt>
      <trkpt lat="49.85282" lon="4.80569">
        <ele>342</ele>
        <time>2022-09-18T09:49:52.000Z</time>
      </trkpt>
      <trkpt lat="49.85282" lon="4.80569">
        <ele>342</ele>
        <time>2022-09-18T09:49:53.000Z</time>
      </trkpt>
      <trkpt lat="49.85282" lon="4.80569">
        <ele>342</ele>
        <time>2022-09-18T09:49:54.000Z</time>
      </trkpt>
      <trkpt lat="49.85282" lon="4.8057">
        <ele>343</ele>
        <time>2022-09-18T09:49:55.000Z</time>
      </trkpt>
      <trkpt lat="49.85282" lon="4.8057">
        <ele>343</ele>
        <time>2022-09-18T09:49:56.000Z</time>
      </trkpt>
      <trkpt lat="49.85282" lon="4.8057">
        <ele>343</ele>
        <time>2022-09-18T09:49:57.000Z</time>
      </trkpt>
      <trkpt lat="49.85282" lon="4.8057">
        <ele>343</ele>
        <time>2022-09-18T09:49:58.000Z</time>
      </trkpt>
      <trkpt lat="49.85282" lon="4.8057">
        <ele>343</ele>
        <time>2022-09-18T09:49:59.000Z</time>
      </trkpt>
      <trkpt lat="49.85282" lon="4.80571">
        <ele>343</ele>
        <time>2022-09-18T09:50:00.000Z</time>
      </trkpt>
      <trkpt lat="49.85282" lon="4.80573">
        <ele>343</ele>
        <time>2022-09-18T09:50:01.000Z</time>
      </trkpt>
      <trkpt lat="49.85282" lon="4.80574">
        <ele>343</ele>
        <time>2022-09-18T09:50:02.000Z</time>
      </trkpt>
      <trkpt lat="49.85282" lon="4.80576">
        <ele>343</ele>
        <time>2022-09-18T09:50:03.000Z</time>
      </trkpt>
      <trkpt lat="49.85282" lon="4.80579">
        <ele>343</ele>
        <time>2022-09-18T09:50:04.000Z</time>
      </trkpt>
      <trkpt lat="49.85281" lon="4.80581">
        <ele>343</ele>
        <time>2022-09-18T09:50:05.000Z</time>
      </trkpt>
      <trkpt lat="49.85281" lon="4.80584">
        <ele>343</ele>
        <time>2022-09-18T09:50:06.000Z</time>
      </trkpt>
      <trkpt lat="49.85281" lon="4.80587">
        <ele>343</ele>
        <time>2022-09-18T09:50:07.000Z</time>
      </trkpt>
      <trkpt lat="49.8528" lon="4.8059">
        <ele>343</ele>
        <time>2022-09-18T09:50:08.000Z</time>
      </trkpt>
      <trkpt lat="49.85279" lon="4.80592">
        <ele>343</ele>
        <time>2022-09-18T09:50:09.000Z</time>
      </trkpt>
      <trkpt lat="49.85278" lon="4.80594">
        <ele>343</ele>
        <time>2022-09-18T09:50:10.000Z</time>
      </trkpt>
      <trkpt lat="49.85277" lon="4.80596">
        <ele>343</ele>
        <time>2022-09-18T09:50:11.000Z</time>
      </trkpt>
      <trkpt lat="49.85277" lon="4.80597">
        <ele>343</ele>
        <time>2022-09-18T09:50:12.000Z</time>
      </trkpt>
      <trkpt lat="49.85277" lon="4.80597">
        <ele>343</ele>
        <time>2022-09-18T09:50:13.000Z</time>
      </trkpt>
      <trkpt lat="49.85277" lon="4.80598">
        <ele>343</ele>
        <time>2022-09-18T09:50:14.000Z</time>
      </trkpt>
      <trkpt lat="49.85277" lon="4.80598">
        <ele>343</ele>
        <time>2022-09-18T09:50:15.000Z</time>
      </trkpt>
      <trkpt lat="49.85277" lon="4.80599">
        <ele>343</ele>
        <time>2022-09-18T09:50:16.000Z</time>
      </trkpt>
      <trkpt lat="49.85277" lon="4.80599">
        <ele>343</ele>
        <time>2022-09-18T09:50:17.000Z</time>
      </trkpt>
      <trkpt lat="49.85277" lon="4.806">
        <ele>343</ele>
        <time>2022-09-18T09:50:18.000Z</time>
      </trkpt>
      <trkpt lat="49.85277" lon="4.80601">
        <ele>343</ele>
        <time>2022-09-18T09:50:19.000Z</time>
      </trkpt>
      <trkpt lat="49.85277" lon="4.80602">
        <ele>343</ele>
        <time>2022-09-18T09:50:20.000Z</time>
      </trkpt>
      <trkpt lat="49.85278" lon="4.80603">
        <ele>343</ele>
        <time>2022-09-18T09:50:21.000Z</time>
      </trkpt>
      <trkpt lat="49.8528" lon="4.80604">
        <ele>343</ele>
        <time>2022-09-18T09:50:22.000Z</time>
      </trkpt>
      <trkpt lat="49.8528" lon="4.80606">
        <ele>343</ele>
        <time>2022-09-18T09:50:23.000Z</time>
      </trkpt>
      <trkpt lat="49.85281" lon="4.80607">
        <ele>343</ele>
        <time>2022-09-18T09:50:24.000Z</time>
      </trkpt>
      <trkpt lat="49.85281" lon="4.80607">
        <ele>343</ele>
        <time>2022-09-18T09:50:25.000Z</time>
      </trkpt>
      <trkpt lat="49.85281" lon="4.80607">
        <ele>343</ele>
        <time>2022-09-18T09:50:26.000Z</time>
      </trkpt>
      <trkpt lat="49.85281" lon="4.80607">
        <ele>343</ele>
        <time>2022-09-18T09:50:27.000Z</time>
      </trkpt>
      <trkpt lat="49.8528" lon="4.80607">
        <ele>343</ele>
        <time>2022-09-18T09:50:28.000Z</time>
      </trkpt>
      <trkpt lat="49.85279" lon="4.80606">
        <ele>343</ele>
        <time>2022-09-18T09:50:29.000Z</time>
      </trkpt>
      <trkpt lat="49.85278" lon="4.80606">
        <ele>343</ele>
        <time>2022-09-18T09:50:30.000Z</time>
      </trkpt>
      <trkpt lat="49.85277" lon="4.80605">
        <ele>343</ele>
        <time>2022-09-18T09:50:31.000Z</time>
      </trkpt>
      <trkpt lat="49.85276" lon="4.80605">
        <ele>343</ele>
        <time>2022-09-18T09:50:32.000Z</time>
      </trkpt>
      <trkpt lat="49.85275" lon="4.80605">
        <ele>343</ele>
        <time>2022-09-18T09:50:33.000Z</time>
      </trkpt>
      <trkpt lat="49.85274" lon="4.80605">
        <ele>343</ele>
        <time>2022-09-18T09:50:34.000Z</time>
      </trkpt>
      <trkpt lat="49.85273" lon="4.80606">
        <ele>343</ele>
        <time>2022-09-18T09:50:35.000Z</time>
      </trkpt>
      <trkpt lat="49.85272" lon="4.80606">
        <ele>343</ele>
        <time>2022-09-18T09:50:36.000Z</time>
      </trkpt>
      <trkpt lat="49.8527" lon="4.80606">
        <ele>343</ele>
        <time>2022-09-18T09:50:37.000Z</time>
      </trkpt>
      <trkpt lat="49.85269" lon="4.80607">
        <ele>343</ele>
        <time>2022-09-18T09:50:38.000Z</time>
      </trkpt>
      <trkpt lat="49.85269" lon="4.80607">
        <ele>343</ele>
        <time>2022-09-18T09:50:39.000Z</time>
      </trkpt>
      <trkpt lat="49.85268" lon="4.80607">
        <ele>343</ele>
        <time>2022-09-18T09:50:40.000Z</time>
      </trkpt>
      <trkpt lat="49.85267" lon="4.80608">
        <ele>343</ele>
        <time>2022-09-18T09:50:41.000Z</time>
      </trkpt>
      <trkpt lat="49.85265" lon="4.80609">
        <ele>343</ele>
        <time>2022-09-18T09:50:42.000Z</time>
      </trkpt>
      <trkpt lat="49.85264" lon="4.8061">
        <ele>343</ele>
        <time>2022-09-18T09:50:43.000Z</time>
      </trkpt>
      <trkpt lat="49.85262" lon="4.80612">
        <ele>343</ele>
        <time>2022-09-18T09:50:44.000Z</time>
      </trkpt>
      <trkpt lat="49.8526" lon="4.80614">
        <ele>343</ele>
        <time>2022-09-18T09:50:45.000Z</time>
      </trkpt>
      <trkpt lat="49.85258" lon="4.80615">
        <ele>342</ele>
        <time>2022-09-18T09:50:46.000Z</time>
      </trkpt>
      <trkpt lat="49.85256" lon="4.80615">
        <ele>342</ele>
        <time>2022-09-18T09:50:47.000Z</time>
      </trkpt>
      <trkpt lat="49.85254" lon="4.80614">
        <ele>342</ele>
        <time>2022-09-18T09:50:48.000Z</time>
      </trkpt>
      <trkpt lat="49.85252" lon="4.80614">
        <ele>343</ele>
        <time>2022-09-18T09:50:49.000Z</time>
      </trkpt>
      <trkpt lat="49.85251" lon="4.80614">
        <ele>343</ele>
        <time>2022-09-18T09:50:50.000Z</time>
      </trkpt>
      <trkpt lat="49.8525" lon="4.80613">
        <ele>343</ele>
        <time>2022-09-18T09:50:51.000Z</time>
      </trkpt>
      <trkpt lat="49.85249" lon="4.80613">
        <ele>343</ele>
        <time>2022-09-18T09:50:52.000Z</time>
      </trkpt>
      <trkpt lat="49.85249" lon="4.80614">
        <ele>343</ele>
        <time>2022-09-18T09:50:53.000Z</time>
      </trkpt>
      <trkpt lat="49.85248" lon="4.80614">
        <ele>343</ele>
        <time>2022-09-18T09:50:54.000Z</time>
      </trkpt>
      <trkpt lat="49.85248" lon="4.80614">
        <ele>343</ele>
        <time>2022-09-18T09:50:55.000Z</time>
      </trkpt>
      <trkpt lat="49.85247" lon="4.80614">
        <ele>343</ele>
        <time>2022-09-18T09:50:56.000Z</time>
      </trkpt>
      <trkpt lat="49.85246" lon="4.80614">
        <ele>343</ele>
        <time>2022-09-18T09:50:57.000Z</time>
      </trkpt>
      <trkpt lat="49.85244" lon="4.80614">
        <ele>343</ele>
        <time>2022-09-18T09:50:58.000Z</time>
      </trkpt>
      <trkpt lat="49.85243" lon="4.80614">
        <ele>343</ele>
        <time>2022-09-18T09:50:59.000Z</time>
      </trkpt>
      <trkpt lat="49.85241" lon="4.80614">
        <ele>343</ele>
        <time>2022-09-18T09:51:00.000Z</time>
      </trkpt>
      <trkpt lat="49.85239" lon="4.80615">
        <ele>343</ele>
        <time>2022-09-18T09:51:01.000Z</time>
      </trkpt>
      <trkpt lat="49.85237" lon="4.80615">
        <ele>343</ele>
        <time>2022-09-18T09:51:02.000Z</time>
      </trkpt>
      <trkpt lat="49.85236" lon="4.80616">
        <ele>343</ele>
        <time>2022-09-18T09:51:03.000Z</time>
      </trkpt>
      <trkpt lat="49.85234" lon="4.80617">
        <ele>343</ele>
        <time>2022-09-18T09:51:04.000Z</time>
      </trkpt>
      <trkpt lat="49.85232" lon="4.80618">
        <ele>343</ele>
        <time>2022-09-18T09:51:05.000Z</time>
      </trkpt>
      <trkpt lat="49.8523" lon="4.8062">
        <ele>343</ele>
        <time>2022-09-18T09:51:06.000Z</time>
      </trkpt>
      <trkpt lat="49.85228" lon="4.80622">
        <ele>343</ele>
        <time>2022-09-18T09:51:07.000Z</time>
      </trkpt>
      <trkpt lat="49.85227" lon="4.80624">
        <ele>343</ele>
        <time>2022-09-18T09:51:08.000Z</time>
      </trkpt>
      <trkpt lat="49.85224" lon="4.80627">
        <ele>343</ele>
        <time>2022-09-18T09:51:09.000Z</time>
      </trkpt>
      <trkpt lat="49.85222" lon="4.80629">
        <ele>343</ele>
        <time>2022-09-18T09:51:10.000Z</time>
      </trkpt>
      <trkpt lat="49.8522" lon="4.80632">
        <ele>343</ele>
        <time>2022-09-18T09:51:11.000Z</time>
      </trkpt>
      <trkpt lat="49.85218" lon="4.80633">
        <ele>343</ele>
        <time>2022-09-18T09:51:12.000Z</time>
      </trkpt>
      <trkpt lat="49.85216" lon="4.80635">
        <ele>343</ele>
        <time>2022-09-18T09:51:13.000Z</time>
      </trkpt>
      <trkpt lat="49.85214" lon="4.80637">
        <ele>344</ele>
        <time>2022-09-18T09:51:14.000Z</time>
      </trkpt>
      <trkpt lat="49.85211" lon="4.80639">
        <ele>344</ele>
        <time>2022-09-18T09:51:15.000Z</time>
      </trkpt>
      <trkpt lat="49.85209" lon="4.80641">
        <ele>344</ele>
        <time>2022-09-18T09:51:16.000Z</time>
      </trkpt>
      <trkpt lat="49.85206" lon="4.80642">
        <ele>344</ele>
        <time>2022-09-18T09:51:17.000Z</time>
      </trkpt>
      <trkpt lat="49.85204" lon="4.80643">
        <ele>344</ele>
        <time>2022-09-18T09:51:18.000Z</time>
      </trkpt>
      <trkpt lat="49.85201" lon="4.80644">
        <ele>344</ele>
        <time>2022-09-18T09:51:19.000Z</time>
      </trkpt>
      <trkpt lat="49.85199" lon="4.80645">
        <ele>344</ele>
        <time>2022-09-18T09:51:20.000Z</time>
      </trkpt>
      <trkpt lat="49.85196" lon="4.80646">
        <ele>344</ele>
        <time>2022-09-18T09:51:21.000Z</time>
      </trkpt>
      <trkpt lat="49.85194" lon="4.80647">
        <ele>344</ele>
        <time>2022-09-18T09:51:22.000Z</time>
      </trkpt>
      <trkpt lat="49.85192" lon="4.80648">
        <ele>345</ele>
        <time>2022-09-18T09:51:23.000Z</time>
      </trkpt>
      <trkpt lat="49.85189" lon="4.80649">
        <ele>345</ele>
        <time>2022-09-18T09:51:24.000Z</time>
      </trkpt>
      <trkpt lat="49.85187" lon="4.8065">
        <ele>345</ele>
        <time>2022-09-18T09:51:25.000Z</time>
      </trkpt>
      <trkpt lat="49.85185" lon="4.80651">
        <ele>345</ele>
        <time>2022-09-18T09:51:26.000Z</time>
      </trkpt>
      <trkpt lat="49.85182" lon="4.80653">
        <ele>345</ele>
        <time>2022-09-18T09:51:27.000Z</time>
      </trkpt>
      <trkpt lat="49.8518" lon="4.80654">
        <ele>345</ele>
        <time>2022-09-18T09:51:28.000Z</time>
      </trkpt>
      <trkpt lat="49.85178" lon="4.80655">
        <ele>345</ele>
        <time>2022-09-18T09:51:29.000Z</time>
      </trkpt>
      <trkpt lat="49.85175" lon="4.80656">
        <ele>346</ele>
        <time>2022-09-18T09:51:30.000Z</time>
      </trkpt>
      <trkpt lat="49.85172" lon="4.80657">
        <ele>346</ele>
        <time>2022-09-18T09:51:31.000Z</time>
      </trkpt>
      <trkpt lat="49.8517" lon="4.80659">
        <ele>346</ele>
        <time>2022-09-18T09:51:32.000Z</time>
      </trkpt>
      <trkpt lat="49.85168" lon="4.8066">
        <ele>346</ele>
        <time>2022-09-18T09:51:33.000Z</time>
      </trkpt>
      <trkpt lat="49.85166" lon="4.80661">
        <ele>346</ele>
        <time>2022-09-18T09:51:34.000Z</time>
      </trkpt>
      <trkpt lat="49.85163" lon="4.80662">
        <ele>346</ele>
        <time>2022-09-18T09:51:35.000Z</time>
      </trkpt>
      <trkpt lat="49.85161" lon="4.80663">
        <ele>346</ele>
        <time>2022-09-18T09:51:36.000Z</time>
      </trkpt>
      <trkpt lat="49.8516" lon="4.80664">
        <ele>346</ele>
        <time>2022-09-18T09:51:37.000Z</time>
      </trkpt>
      <trkpt lat="49.85159" lon="4.80664">
        <ele>346</ele>
        <time>2022-09-18T09:51:38.000Z</time>
      </trkpt>
      <trkpt lat="49.85158" lon="4.80666">
        <ele>347</ele>
        <time>2022-09-18T09:51:39.000Z</time>
      </trkpt>
      <trkpt lat="49.85158" lon="4.80667">
        <ele>347</ele>
        <time>2022-09-18T09:51:40.000Z</time>
      </trkpt>
      <trkpt lat="49.85157" lon="4.80668">
        <ele>347</ele>
        <time>2022-09-18T09:51:41.000Z</time>
      </trkpt>
      <trkpt lat="49.85156" lon="4.8067">
        <ele>347</ele>
        <time>2022-09-18T09:51:42.000Z</time>
      </trkpt>
      <trkpt lat="49.85155" lon="4.80671">
        <ele>347</ele>
        <time>2022-09-18T09:51:43.000Z</time>
      </trkpt>
      <trkpt lat="49.85154" lon="4.80671">
        <ele>347</ele>
        <time>2022-09-18T09:51:44.000Z</time>
      </trkpt>
      <trkpt lat="49.85153" lon="4.80671">
        <ele>348</ele>
        <time>2022-09-18T09:51:45.000Z</time>
      </trkpt>
      <trkpt lat="49.85153" lon="4.80672">
        <ele>348</ele>
        <time>2022-09-18T09:51:46.000Z</time>
      </trkpt>
      <trkpt lat="49.85152" lon="4.80671">
        <ele>348</ele>
        <time>2022-09-18T09:51:47.000Z</time>
      </trkpt>
      <trkpt lat="49.85152" lon="4.80671">
        <ele>348</ele>
        <time>2022-09-18T09:51:48.000Z</time>
      </trkpt>
      <trkpt lat="49.85151" lon="4.80671">
        <ele>348</ele>
        <time>2022-09-18T09:51:49.000Z</time>
      </trkpt>
      <trkpt lat="49.85151" lon="4.80671">
        <ele>348</ele>
        <time>2022-09-18T09:51:50.000Z</time>
      </trkpt>
      <trkpt lat="49.8515" lon="4.80671">
        <ele>348</ele>
        <time>2022-09-18T09:51:51.000Z</time>
      </trkpt>
      <trkpt lat="49.85149" lon="4.80671">
        <ele>348</ele>
        <time>2022-09-18T09:51:52.000Z</time>
      </trkpt>
      <trkpt lat="49.85148" lon="4.80672">
        <ele>348</ele>
        <time>2022-09-18T09:51:53.000Z</time>
      </trkpt>
      <trkpt lat="49.85146" lon="4.80673">
        <ele>348</ele>
        <time>2022-09-18T09:51:54.000Z</time>
      </trkpt>
      <trkpt lat="49.85144" lon="4.80675">
        <ele>348</ele>
        <time>2022-09-18T09:51:55.000Z</time>
      </trkpt>
      <trkpt lat="49.85142" lon="4.80676">
        <ele>348</ele>
        <time>2022-09-18T09:51:56.000Z</time>
      </trkpt>
      <trkpt lat="49.8514" lon="4.80678">
        <ele>348</ele>
        <time>2022-09-18T09:51:57.000Z</time>
      </trkpt>
      <trkpt lat="49.85137" lon="4.8068">
        <ele>348</ele>
        <time>2022-09-18T09:51:58.000Z</time>
      </trkpt>
      <trkpt lat="49.85134" lon="4.80682">
        <ele>348</ele>
        <time>2022-09-18T09:51:59.000Z</time>
      </trkpt>
      <trkpt lat="49.85131" lon="4.80683">
        <ele>348</ele>
        <time>2022-09-18T09:52:00.000Z</time>
      </trkpt>
      <trkpt lat="49.85129" lon="4.80685">
        <ele>348</ele>
        <time>2022-09-18T09:52:01.000Z</time>
      </trkpt>
      <trkpt lat="49.85126" lon="4.80686">
        <ele>348</ele>
        <time>2022-09-18T09:52:02.000Z</time>
      </trkpt>
      <trkpt lat="49.85123" lon="4.80688">
        <ele>348</ele>
        <time>2022-09-18T09:52:03.000Z</time>
      </trkpt>
      <trkpt lat="49.8512" lon="4.80689">
        <ele>349</ele>
        <time>2022-09-18T09:52:04.000Z</time>
      </trkpt>
      <trkpt lat="49.85118" lon="4.80691">
        <ele>349</ele>
        <time>2022-09-18T09:52:05.000Z</time>
      </trkpt>
      <trkpt lat="49.85116" lon="4.80693">
        <ele>349</ele>
        <time>2022-09-18T09:52:06.000Z</time>
      </trkpt>
      <trkpt lat="49.85114" lon="4.80694">
        <ele>349</ele>
        <time>2022-09-18T09:52:07.000Z</time>
      </trkpt>
      <trkpt lat="49.85111" lon="4.80696">
        <ele>349</ele>
        <time>2022-09-18T09:52:08.000Z</time>
      </trkpt>
      <trkpt lat="49.85109" lon="4.80697">
        <ele>349</ele>
        <time>2022-09-18T09:52:09.000Z</time>
      </trkpt>
      <trkpt lat="49.85106" lon="4.80699">
        <ele>349</ele>
        <time>2022-09-18T09:52:10.000Z</time>
      </trkpt>
      <trkpt lat="49.85104" lon="4.807">
        <ele>349</ele>
        <time>2022-09-18T09:52:11.000Z</time>
      </trkpt>
      <trkpt lat="49.85101" lon="4.80701">
        <ele>349</ele>
        <time>2022-09-18T09:52:12.000Z</time>
      </trkpt>
      <trkpt lat="49.85099" lon="4.80702">
        <ele>350</ele>
        <time>2022-09-18T09:52:13.000Z</time>
      </trkpt>
      <trkpt lat="49.85097" lon="4.80703">
        <ele>350</ele>
        <time>2022-09-18T09:52:14.000Z</time>
      </trkpt>
      <trkpt lat="49.85095" lon="4.80704">
        <ele>350</ele>
        <time>2022-09-18T09:52:15.000Z</time>
      </trkpt>
      <trkpt lat="49.85092" lon="4.80705">
        <ele>350</ele>
        <time>2022-09-18T09:52:16.000Z</time>
      </trkpt>
      <trkpt lat="49.8509" lon="4.80707">
        <ele>350</ele>
        <time>2022-09-18T09:52:17.000Z</time>
      </trkpt>
      <trkpt lat="49.85088" lon="4.80709">
        <ele>350</ele>
        <time>2022-09-18T09:52:18.000Z</time>
      </trkpt>
      <trkpt lat="49.85087" lon="4.80711">
        <ele>350</ele>
        <time>2022-09-18T09:52:19.000Z</time>
      </trkpt>
      <trkpt lat="49.85085" lon="4.80713">
        <ele>350</ele>
        <time>2022-09-18T09:52:20.000Z</time>
      </trkpt>
      <trkpt lat="49.85084" lon="4.80716">
        <ele>350</ele>
        <time>2022-09-18T09:52:21.000Z</time>
      </trkpt>
      <trkpt lat="49.85083" lon="4.80719">
        <ele>350</ele>
        <time>2022-09-18T09:52:22.000Z</time>
      </trkpt>
      <trkpt lat="49.85081" lon="4.80722">
        <ele>350</ele>
        <time>2022-09-18T09:52:23.000Z</time>
      </trkpt>
      <trkpt lat="49.8508" lon="4.80725">
        <ele>350</ele>
        <time>2022-09-18T09:52:24.000Z</time>
      </trkpt>
      <trkpt lat="49.85078" lon="4.80728">
        <ele>350</ele>
        <time>2022-09-18T09:52:25.000Z</time>
      </trkpt>
      <trkpt lat="49.85076" lon="4.80731">
        <ele>350</ele>
        <time>2022-09-18T09:52:26.000Z</time>
      </trkpt>
      <trkpt lat="49.85075" lon="4.80733">
        <ele>350</ele>
        <time>2022-09-18T09:52:27.000Z</time>
      </trkpt>
      <trkpt lat="49.85074" lon="4.80735">
        <ele>350</ele>
        <time>2022-09-18T09:52:28.000Z</time>
      </trkpt>
      <trkpt lat="49.85073" lon="4.80738">
        <ele>350</ele>
        <time>2022-09-18T09:52:29.000Z</time>
      </trkpt>
      <trkpt lat="49.85072" lon="4.8074">
        <ele>350</ele>
        <time>2022-09-18T09:52:30.000Z</time>
      </trkpt>
      <trkpt lat="49.85071" lon="4.80743">
        <ele>350</ele>
        <time>2022-09-18T09:52:31.000Z</time>
      </trkpt>
      <trkpt lat="49.8507" lon="4.80745">
        <ele>349</ele>
        <time>2022-09-18T09:52:32.000Z</time>
      </trkpt>
      <trkpt lat="49.85068" lon="4.80749">
        <ele>349</ele>
        <time>2022-09-18T09:52:33.000Z</time>
      </trkpt>
      <trkpt lat="49.85067" lon="4.80753">
        <ele>349</ele>
        <time>2022-09-18T09:52:34.000Z</time>
      </trkpt>
      <trkpt lat="49.85065" lon="4.80757">
        <ele>349</ele>
        <time>2022-09-18T09:52:35.000Z</time>
      </trkpt>
      <trkpt lat="49.85064" lon="4.80761">
        <ele>349</ele>
        <time>2022-09-18T09:52:36.000Z</time>
      </trkpt>
      <trkpt lat="49.85062" lon="4.80764">
        <ele>349</ele>
        <time>2022-09-18T09:52:37.000Z</time>
      </trkpt>
      <trkpt lat="49.8506" lon="4.80768">
        <ele>349</ele>
        <time>2022-09-18T09:52:38.000Z</time>
      </trkpt>
      <trkpt lat="49.85059" lon="4.80772">
        <ele>349</ele>
        <time>2022-09-18T09:52:39.000Z</time>
      </trkpt>
      <trkpt lat="49.85057" lon="4.80774">
        <ele>349</ele>
        <time>2022-09-18T09:52:40.000Z</time>
      </trkpt>
      <trkpt lat="49.85056" lon="4.80778">
        <ele>349</ele>
        <time>2022-09-18T09:52:41.000Z</time>
      </trkpt>
      <trkpt lat="49.85054" lon="4.80782">
        <ele>349</ele>
        <time>2022-09-18T09:52:42.000Z</time>
      </trkpt>
      <trkpt lat="49.85052" lon="4.80787">
        <ele>349</ele>
        <time>2022-09-18T09:52:43.000Z</time>
      </trkpt>
      <trkpt lat="49.85051" lon="4.8079">
        <ele>350</ele>
        <time>2022-09-18T09:52:44.000Z</time>
      </trkpt>
      <trkpt lat="49.8505" lon="4.80792">
        <ele>350</ele>
        <time>2022-09-18T09:52:45.000Z</time>
      </trkpt>
      <trkpt lat="49.85048" lon="4.80795">
        <ele>350</ele>
        <time>2022-09-18T09:52:46.000Z</time>
      </trkpt>
      <trkpt lat="49.85047" lon="4.80798">
        <ele>350</ele>
        <time>2022-09-18T09:52:47.000Z</time>
      </trkpt>
      <trkpt lat="49.85045" lon="4.80801">
        <ele>350</ele>
        <time>2022-09-18T09:52:48.000Z</time>
      </trkpt>
      <trkpt lat="49.85042" lon="4.80803">
        <ele>350</ele>
        <time>2022-09-18T09:52:49.000Z</time>
      </trkpt>
      <trkpt lat="49.8504" lon="4.80804">
        <ele>350</ele>
        <time>2022-09-18T09:52:50.000Z</time>
      </trkpt>
      <trkpt lat="49.85039" lon="4.80805">
        <ele>350</ele>
        <time>2022-09-18T09:52:51.000Z</time>
      </trkpt>
      <trkpt lat="49.85037" lon="4.80806">
        <ele>350</ele>
        <time>2022-09-18T09:52:52.000Z</time>
      </trkpt>
      <trkpt lat="49.85036" lon="4.80807">
        <ele>351</ele>
        <time>2022-09-18T09:52:53.000Z</time>
      </trkpt>
      <trkpt lat="49.85034" lon="4.80808">
        <ele>351</ele>
        <time>2022-09-18T09:52:54.000Z</time>
      </trkpt>
      <trkpt lat="49.85033" lon="4.80808">
        <ele>351</ele>
        <time>2022-09-18T09:52:55.000Z</time>
      </trkpt>
      <trkpt lat="49.85031" lon="4.80807">
        <ele>351</ele>
        <time>2022-09-18T09:52:56.000Z</time>
      </trkpt>
      <trkpt lat="49.8503" lon="4.80806">
        <ele>351</ele>
        <time>2022-09-18T09:52:57.000Z</time>
      </trkpt>
      <trkpt lat="49.85028" lon="4.80804">
        <ele>352</ele>
        <time>2022-09-18T09:52:58.000Z</time>
      </trkpt>
      <trkpt lat="49.85027" lon="4.80802">
        <ele>352</ele>
        <time>2022-09-18T09:52:59.000Z</time>
      </trkpt>
      <trkpt lat="49.85026" lon="4.80799">
        <ele>352</ele>
        <time>2022-09-18T09:53:00.000Z</time>
      </trkpt>
      <trkpt lat="49.85025" lon="4.80798">
        <ele>352</ele>
        <time>2022-09-18T09:53:01.000Z</time>
      </trkpt>
      <trkpt lat="49.85024" lon="4.80796">
        <ele>352</ele>
        <time>2022-09-18T09:53:02.000Z</time>
      </trkpt>
      <trkpt lat="49.85023" lon="4.80794">
        <ele>352</ele>
        <time>2022-09-18T09:53:03.000Z</time>
      </trkpt>
      <trkpt lat="49.85022" lon="4.80793">
        <ele>353</ele>
        <time>2022-09-18T09:53:04.000Z</time>
      </trkpt>
      <trkpt lat="49.85021" lon="4.80791">
        <ele>353</ele>
        <time>2022-09-18T09:53:05.000Z</time>
      </trkpt>
      <trkpt lat="49.85021" lon="4.8079">
        <ele>353</ele>
        <time>2022-09-18T09:53:06.000Z</time>
      </trkpt>
      <trkpt lat="49.8502" lon="4.80787">
        <ele>353</ele>
        <time>2022-09-18T09:53:07.000Z</time>
      </trkpt>
      <trkpt lat="49.85018" lon="4.80785">
        <ele>353</ele>
        <time>2022-09-18T09:53:08.000Z</time>
      </trkpt>
      <trkpt lat="49.85017" lon="4.80783">
        <ele>354</ele>
        <time>2022-09-18T09:53:09.000Z</time>
      </trkpt>
      <trkpt lat="49.85015" lon="4.80781">
        <ele>354</ele>
        <time>2022-09-18T09:53:10.000Z</time>
      </trkpt>
      <trkpt lat="49.85014" lon="4.80779">
        <ele>354</ele>
        <time>2022-09-18T09:53:11.000Z</time>
      </trkpt>
      <trkpt lat="49.85012" lon="4.80776">
        <ele>354</ele>
        <time>2022-09-18T09:53:12.000Z</time>
      </trkpt>
      <trkpt lat="49.85011" lon="4.80774">
        <ele>354</ele>
        <time>2022-09-18T09:53:13.000Z</time>
      </trkpt>
      <trkpt lat="49.8501" lon="4.80771">
        <ele>355</ele>
        <time>2022-09-18T09:53:14.000Z</time>
      </trkpt>
      <trkpt lat="49.85008" lon="4.80769">
        <ele>355</ele>
        <time>2022-09-18T09:53:15.000Z</time>
      </trkpt>
      <trkpt lat="49.85007" lon="4.80767">
        <ele>355</ele>
        <time>2022-09-18T09:53:16.000Z</time>
      </trkpt>
      <trkpt lat="49.85006" lon="4.80765">
        <ele>355</ele>
        <time>2022-09-18T09:53:17.000Z</time>
      </trkpt>
      <trkpt lat="49.85005" lon="4.80763">
        <ele>355</ele>
        <time>2022-09-18T09:53:18.000Z</time>
      </trkpt>
      <trkpt lat="49.85004" lon="4.80761">
        <ele>356</ele>
        <time>2022-09-18T09:53:19.000Z</time>
      </trkpt>
      <trkpt lat="49.85003" lon="4.80759">
        <ele>356</ele>
        <time>2022-09-18T09:53:20.000Z</time>
      </trkpt>
      <trkpt lat="49.85002" lon="4.80757">
        <ele>356</ele>
        <time>2022-09-18T09:53:21.000Z</time>
      </trkpt>
      <trkpt lat="49.85001" lon="4.80756">
        <ele>356</ele>
        <time>2022-09-18T09:53:22.000Z</time>
      </trkpt>
      <trkpt lat="49.85" lon="4.80754">
        <ele>357</ele>
        <time>2022-09-18T09:53:23.000Z</time>
      </trkpt>
      <trkpt lat="49.84998" lon="4.80753">
        <ele>357</ele>
        <time>2022-09-18T09:53:24.000Z</time>
      </trkpt>
      <trkpt lat="49.84997" lon="4.80752">
        <ele>357</ele>
        <time>2022-09-18T09:53:25.000Z</time>
      </trkpt>
      <trkpt lat="49.84996" lon="4.8075">
        <ele>357</ele>
        <time>2022-09-18T09:53:26.000Z</time>
      </trkpt>
      <trkpt lat="49.84995" lon="4.80749">
        <ele>357</ele>
        <time>2022-09-18T09:53:27.000Z</time>
      </trkpt>
      <trkpt lat="49.84994" lon="4.80747">
        <ele>357</ele>
        <time>2022-09-18T09:53:28.000Z</time>
      </trkpt>
      <trkpt lat="49.84993" lon="4.80747">
        <ele>357</ele>
        <time>2022-09-18T09:53:29.000Z</time>
      </trkpt>
      <trkpt lat="49.84992" lon="4.80745">
        <ele>357</ele>
        <time>2022-09-18T09:53:30.000Z</time>
      </trkpt>
      <trkpt lat="49.8499" lon="4.80744">
        <ele>357</ele>
        <time>2022-09-18T09:53:31.000Z</time>
      </trkpt>
      <trkpt lat="49.84989" lon="4.80743">
        <ele>357</ele>
        <time>2022-09-18T09:53:32.000Z</time>
      </trkpt>
      <trkpt lat="49.84988" lon="4.80742">
        <ele>357</ele>
        <time>2022-09-18T09:53:33.000Z</time>
      </trkpt>
      <trkpt lat="49.84986" lon="4.8074">
        <ele>358</ele>
        <time>2022-09-18T09:53:34.000Z</time>
      </trkpt>
      <trkpt lat="49.84985" lon="4.80739">
        <ele>358</ele>
        <time>2022-09-18T09:53:35.000Z</time>
      </trkpt>
      <trkpt lat="49.84983" lon="4.80738">
        <ele>358</ele>
        <time>2022-09-18T09:53:36.000Z</time>
      </trkpt>
      <trkpt lat="49.84982" lon="4.80737">
        <ele>358</ele>
        <time>2022-09-18T09:53:37.000Z</time>
      </trkpt>
      <trkpt lat="49.84981" lon="4.80735">
        <ele>358</ele>
        <time>2022-09-18T09:53:38.000Z</time>
      </trkpt>
      <trkpt lat="49.84979" lon="4.80734">
        <ele>358</ele>
        <time>2022-09-18T09:53:39.000Z</time>
      </trkpt>
      <trkpt lat="49.84978" lon="4.80733">
        <ele>358</ele>
        <time>2022-09-18T09:53:40.000Z</time>
      </trkpt>
      <trkpt lat="49.84977" lon="4.80732">
        <ele>358</ele>
        <time>2022-09-18T09:53:41.000Z</time>
      </trkpt>
      <trkpt lat="49.84975" lon="4.8073">
        <ele>359</ele>
        <time>2022-09-18T09:53:42.000Z</time>
      </trkpt>
      <trkpt lat="49.84974" lon="4.80729">
        <ele>359</ele>
        <time>2022-09-18T09:53:43.000Z</time>
      </trkpt>
      <trkpt lat="49.84972" lon="4.80728">
        <ele>359</ele>
        <time>2022-09-18T09:53:44.000Z</time>
      </trkpt>
      <trkpt lat="49.84971" lon="4.80727">
        <ele>359</ele>
        <time>2022-09-18T09:53:45.000Z</time>
      </trkpt>
      <trkpt lat="49.84969" lon="4.80726">
        <ele>360</ele>
        <time>2022-09-18T09:53:46.000Z</time>
      </trkpt>
      <trkpt lat="49.84968" lon="4.80724">
        <ele>360</ele>
        <time>2022-09-18T09:53:47.000Z</time>
      </trkpt>
      <trkpt lat="49.84966" lon="4.80724">
        <ele>360</ele>
        <time>2022-09-18T09:53:48.000Z</time>
      </trkpt>
      <trkpt lat="49.84965" lon="4.80723">
        <ele>361</ele>
        <time>2022-09-18T09:53:49.000Z</time>
      </trkpt>
      <trkpt lat="49.84963" lon="4.80722">
        <ele>361</ele>
        <time>2022-09-18T09:53:50.000Z</time>
      </trkpt>
      <trkpt lat="49.84962" lon="4.80721">
        <ele>361</ele>
        <time>2022-09-18T09:53:51.000Z</time>
      </trkpt>
      <trkpt lat="49.8496" lon="4.8072">
        <ele>362</ele>
        <time>2022-09-18T09:53:52.000Z</time>
      </trkpt>
      <trkpt lat="49.84959" lon="4.80719">
        <ele>362</ele>
        <time>2022-09-18T09:53:53.000Z</time>
      </trkpt>
      <trkpt lat="49.84957" lon="4.80718">
        <ele>362</ele>
        <time>2022-09-18T09:53:54.000Z</time>
      </trkpt>
      <trkpt lat="49.84956" lon="4.80718">
        <ele>363</ele>
        <time>2022-09-18T09:53:55.000Z</time>
      </trkpt>
      <trkpt lat="49.84955" lon="4.80717">
        <ele>363</ele>
        <time>2022-09-18T09:53:56.000Z</time>
      </trkpt>
      <trkpt lat="49.84953" lon="4.80716">
        <ele>363</ele>
        <time>2022-09-18T09:53:57.000Z</time>
      </trkpt>
      <trkpt lat="49.84952" lon="4.80716">
        <ele>364</ele>
        <time>2022-09-18T09:53:58.000Z</time>
      </trkpt>
      <trkpt lat="49.8495" lon="4.80715">
        <ele>364</ele>
        <time>2022-09-18T09:53:59.000Z</time>
      </trkpt>
      <trkpt lat="49.84948" lon="4.80715">
        <ele>364</ele>
        <time>2022-09-18T09:54:00.000Z</time>
      </trkpt>
      <trkpt lat="49.84947" lon="4.80714">
        <ele>364</ele>
        <time>2022-09-18T09:54:01.000Z</time>
      </trkpt>
      <trkpt lat="49.84945" lon="4.80713">
        <ele>365</ele>
        <time>2022-09-18T09:54:02.000Z</time>
      </trkpt>
      <trkpt lat="49.84943" lon="4.80713">
        <ele>365</ele>
        <time>2022-09-18T09:54:03.000Z</time>
      </trkpt>
      <trkpt lat="49.84942" lon="4.80713">
        <ele>365</ele>
        <time>2022-09-18T09:54:04.000Z</time>
      </trkpt>
      <trkpt lat="49.8494" lon="4.80712">
        <ele>365</ele>
        <time>2022-09-18T09:54:05.000Z</time>
      </trkpt>
      <trkpt lat="49.84938" lon="4.80713">
        <ele>366</ele>
        <time>2022-09-18T09:54:06.000Z</time>
      </trkpt>
      <trkpt lat="49.84937" lon="4.80712">
        <ele>366</ele>
        <time>2022-09-18T09:54:07.000Z</time>
      </trkpt>
      <trkpt lat="49.84936" lon="4.80712">
        <ele>366</ele>
        <time>2022-09-18T09:54:08.000Z</time>
      </trkpt>
      <trkpt lat="49.84934" lon="4.80711">
        <ele>366</ele>
        <time>2022-09-18T09:54:09.000Z</time>
      </trkpt>
      <trkpt lat="49.84932" lon="4.80711">
        <ele>366</ele>
        <time>2022-09-18T09:54:10.000Z</time>
      </trkpt>
      <trkpt lat="49.8493" lon="4.8071">
        <ele>366</ele>
        <time>2022-09-18T09:54:11.000Z</time>
      </trkpt>
      <trkpt lat="49.84929" lon="4.80709">
        <ele>366</ele>
        <time>2022-09-18T09:54:12.000Z</time>
      </trkpt>
      <trkpt lat="49.84927" lon="4.80708">
        <ele>366</ele>
        <time>2022-09-18T09:54:13.000Z</time>
      </trkpt>
      <trkpt lat="49.84925" lon="4.80708">
        <ele>367</ele>
        <time>2022-09-18T09:54:14.000Z</time>
      </trkpt>
      <trkpt lat="49.84923" lon="4.80707">
        <ele>367</ele>
        <time>2022-09-18T09:54:15.000Z</time>
      </trkpt>
      <trkpt lat="49.84921" lon="4.80706">
        <ele>367</ele>
        <time>2022-09-18T09:54:16.000Z</time>
      </trkpt>
      <trkpt lat="49.84919" lon="4.80705">
        <ele>367</ele>
        <time>2022-09-18T09:54:17.000Z</time>
      </trkpt>
      <trkpt lat="49.84917" lon="4.80705">
        <ele>367</ele>
        <time>2022-09-18T09:54:18.000Z</time>
      </trkpt>
      <trkpt lat="49.84915" lon="4.80704">
        <ele>367</ele>
        <time>2022-09-18T09:54:19.000Z</time>
      </trkpt>
      <trkpt lat="49.84912" lon="4.80703">
        <ele>368</ele>
        <time>2022-09-18T09:54:20.000Z</time>
      </trkpt>
      <trkpt lat="49.8491" lon="4.80702">
        <ele>368</ele>
        <time>2022-09-18T09:54:21.000Z</time>
      </trkpt>
      <trkpt lat="49.84908" lon="4.80701">
        <ele>368</ele>
        <time>2022-09-18T09:54:22.000Z</time>
      </trkpt>
      <trkpt lat="49.84906" lon="4.80701">
        <ele>368</ele>
        <time>2022-09-18T09:54:23.000Z</time>
      </trkpt>
      <trkpt lat="49.84904" lon="4.80701">
        <ele>368</ele>
        <time>2022-09-18T09:54:24.000Z</time>
      </trkpt>
      <trkpt lat="49.84902" lon="4.80701">
        <ele>369</ele>
        <time>2022-09-18T09:54:25.000Z</time>
      </trkpt>
      <trkpt lat="49.84901" lon="4.80701">
        <ele>369</ele>
        <time>2022-09-18T09:54:26.000Z</time>
      </trkpt>
      <trkpt lat="49.84899" lon="4.80701">
        <ele>369</ele>
        <time>2022-09-18T09:54:27.000Z</time>
      </trkpt>
      <trkpt lat="49.84897" lon="4.80701">
        <ele>369</ele>
        <time>2022-09-18T09:54:28.000Z</time>
      </trkpt>
      <trkpt lat="49.84895" lon="4.807">
        <ele>370</ele>
        <time>2022-09-18T09:54:29.000Z</time>
      </trkpt>
      <trkpt lat="49.84893" lon="4.807">
        <ele>370</ele>
        <time>2022-09-18T09:54:30.000Z</time>
      </trkpt>
      <trkpt lat="49.84891" lon="4.80699">
        <ele>370</ele>
        <time>2022-09-18T09:54:31.000Z</time>
      </trkpt>
      <trkpt lat="49.84889" lon="4.80698">
        <ele>371</ele>
        <time>2022-09-18T09:54:32.000Z</time>
      </trkpt>
      <trkpt lat="49.84887" lon="4.80697">
        <ele>371</ele>
        <time>2022-09-18T09:54:33.000Z</time>
      </trkpt>
      <trkpt lat="49.84886" lon="4.80696">
        <ele>371</ele>
        <time>2022-09-18T09:54:34.000Z</time>
      </trkpt>
      <trkpt lat="49.84884" lon="4.80694">
        <ele>372</ele>
        <time>2022-09-18T09:54:35.000Z</time>
      </trkpt>
      <trkpt lat="49.84882" lon="4.80692">
        <ele>372</ele>
        <time>2022-09-18T09:54:36.000Z</time>
      </trkpt>
      <trkpt lat="49.8488" lon="4.80691">
        <ele>372</ele>
        <time>2022-09-18T09:54:37.000Z</time>
      </trkpt>
      <trkpt lat="49.84878" lon="4.80689">
        <ele>373</ele>
        <time>2022-09-18T09:54:38.000Z</time>
      </trkpt>
      <trkpt lat="49.84876" lon="4.80688">
        <ele>373</ele>
        <time>2022-09-18T09:54:39.000Z</time>
      </trkpt>
      <trkpt lat="49.84874" lon="4.80686">
        <ele>373</ele>
        <time>2022-09-18T09:54:40.000Z</time>
      </trkpt>
      <trkpt lat="49.84871" lon="4.80684">
        <ele>374</ele>
        <time>2022-09-18T09:54:41.000Z</time>
      </trkpt>
      <trkpt lat="49.84869" lon="4.80682">
        <ele>374</ele>
        <time>2022-09-18T09:54:42.000Z</time>
      </trkpt>
      <trkpt lat="49.84867" lon="4.8068">
        <ele>375</ele>
        <time>2022-09-18T09:54:43.000Z</time>
      </trkpt>
      <trkpt lat="49.84864" lon="4.80678">
        <ele>375</ele>
        <time>2022-09-18T09:54:44.000Z</time>
      </trkpt>
      <trkpt lat="49.84862" lon="4.80676">
        <ele>375</ele>
        <time>2022-09-18T09:54:45.000Z</time>
      </trkpt>
      <trkpt lat="49.8486" lon="4.80675">
        <ele>376</ele>
        <time>2022-09-18T09:54:46.000Z</time>
      </trkpt>
      <trkpt lat="49.84857" lon="4.80672">
        <ele>376</ele>
        <time>2022-09-18T09:54:47.000Z</time>
      </trkpt>
      <trkpt lat="49.84855" lon="4.8067">
        <ele>377</ele>
        <time>2022-09-18T09:54:48.000Z</time>
      </trkpt>
      <trkpt lat="49.84852" lon="4.80668">
        <ele>377</ele>
        <time>2022-09-18T09:54:49.000Z</time>
      </trkpt>
      <trkpt lat="49.8485" lon="4.80666">
        <ele>377</ele>
        <time>2022-09-18T09:54:50.000Z</time>
      </trkpt>
      <trkpt lat="49.84848" lon="4.80664">
        <ele>378</ele>
        <time>2022-09-18T09:54:51.000Z</time>
      </trkpt>
      <trkpt lat="49.84845" lon="4.80662">
        <ele>378</ele>
        <time>2022-09-18T09:54:52.000Z</time>
      </trkpt>
      <trkpt lat="49.84843" lon="4.80661">
        <ele>378</ele>
        <time>2022-09-18T09:54:53.000Z</time>
      </trkpt>
      <trkpt lat="49.8484" lon="4.80659">
        <ele>378</ele>
        <time>2022-09-18T09:54:54.000Z</time>
      </trkpt>
      <trkpt lat="49.84838" lon="4.80657">
        <ele>378</ele>
        <time>2022-09-18T09:54:55.000Z</time>
      </trkpt>
      <trkpt lat="49.84835" lon="4.80655">
        <ele>379</ele>
        <time>2022-09-18T09:54:56.000Z</time>
      </trkpt>
      <trkpt lat="49.84833" lon="4.80654">
        <ele>379</ele>
        <time>2022-09-18T09:54:57.000Z</time>
      </trkpt>
      <trkpt lat="49.8483" lon="4.80652">
        <ele>379</ele>
        <time>2022-09-18T09:54:58.000Z</time>
      </trkpt>
      <trkpt lat="49.84827" lon="4.8065">
        <ele>379</ele>
        <time>2022-09-18T09:54:59.000Z</time>
      </trkpt>
      <trkpt lat="49.84825" lon="4.80648">
        <ele>380</ele>
        <time>2022-09-18T09:55:00.000Z</time>
      </trkpt>
      <trkpt lat="49.84822" lon="4.80645">
        <ele>380</ele>
        <time>2022-09-18T09:55:01.000Z</time>
      </trkpt>
      <trkpt lat="49.8482" lon="4.80642">
        <ele>380</ele>
        <time>2022-09-18T09:55:02.000Z</time>
      </trkpt>
      <trkpt lat="49.84817" lon="4.8064">
        <ele>381</ele>
        <time>2022-09-18T09:55:03.000Z</time>
      </trkpt>
      <trkpt lat="49.84815" lon="4.80638">
        <ele>381</ele>
        <time>2022-09-18T09:55:04.000Z</time>
      </trkpt>
      <trkpt lat="49.84813" lon="4.80636">
        <ele>381</ele>
        <time>2022-09-18T09:55:05.000Z</time>
      </trkpt>
      <trkpt lat="49.8481" lon="4.80634">
        <ele>381</ele>
        <time>2022-09-18T09:55:06.000Z</time>
      </trkpt>
      <trkpt lat="49.84808" lon="4.80632">
        <ele>381</ele>
        <time>2022-09-18T09:55:07.000Z</time>
      </trkpt>
      <trkpt lat="49.84806" lon="4.80631">
        <ele>382</ele>
        <time>2022-09-18T09:55:08.000Z</time>
      </trkpt>
      <trkpt lat="49.84804" lon="4.80629">
        <ele>382</ele>
        <time>2022-09-18T09:55:09.000Z</time>
      </trkpt>
      <trkpt lat="49.84802" lon="4.80627">
        <ele>382</ele>
        <time>2022-09-18T09:55:10.000Z</time>
      </trkpt>
      <trkpt lat="49.848" lon="4.80625">
        <ele>382</ele>
        <time>2022-09-18T09:55:11.000Z</time>
      </trkpt>
      <trkpt lat="49.84798" lon="4.80623">
        <ele>382</ele>
        <time>2022-09-18T09:55:12.000Z</time>
      </trkpt>
      <trkpt lat="49.84796" lon="4.80621">
        <ele>383</ele>
        <time>2022-09-18T09:55:13.000Z</time>
      </trkpt>
      <trkpt lat="49.84794" lon="4.8062">
        <ele>383</ele>
        <time>2022-09-18T09:55:14.000Z</time>
      </trkpt>
      <trkpt lat="49.84792" lon="4.80618">
        <ele>383</ele>
        <time>2022-09-18T09:55:15.000Z</time>
      </trkpt>
      <trkpt lat="49.8479" lon="4.80616">
        <ele>383</ele>
        <time>2022-09-18T09:55:16.000Z</time>
      </trkpt>
      <trkpt lat="49.84787" lon="4.80615">
        <ele>383</ele>
        <time>2022-09-18T09:55:17.000Z</time>
      </trkpt>
      <trkpt lat="49.84785" lon="4.80615">
        <ele>384</ele>
        <time>2022-09-18T09:55:18.000Z</time>
      </trkpt>
      <trkpt lat="49.84783" lon="4.80617">
        <ele>384</ele>
        <time>2022-09-18T09:55:19.000Z</time>
      </trkpt>
      <trkpt lat="49.8478" lon="4.8062">
        <ele>384</ele>
        <time>2022-09-18T09:55:20.000Z</time>
      </trkpt>
      <trkpt lat="49.84778" lon="4.80623">
        <ele>384</ele>
        <time>2022-09-18T09:55:21.000Z</time>
      </trkpt>
      <trkpt lat="49.84776" lon="4.80627">
        <ele>384</ele>
        <time>2022-09-18T09:55:22.000Z</time>
      </trkpt>
      <trkpt lat="49.84775" lon="4.80631">
        <ele>385</ele>
        <time>2022-09-18T09:55:23.000Z</time>
      </trkpt>
      <trkpt lat="49.84776" lon="4.80635">
        <ele>385</ele>
        <time>2022-09-18T09:55:24.000Z</time>
      </trkpt>
      <trkpt lat="49.84777" lon="4.80639">
        <ele>385</ele>
        <time>2022-09-18T09:55:25.000Z</time>
      </trkpt>
      <trkpt lat="49.84778" lon="4.80643">
        <ele>385</ele>
        <time>2022-09-18T09:55:26.000Z</time>
      </trkpt>
      <trkpt lat="49.8478" lon="4.80647">
        <ele>385</ele>
        <time>2022-09-18T09:55:27.000Z</time>
      </trkpt>
      <trkpt lat="49.84782" lon="4.80651">
        <ele>385</ele>
        <time>2022-09-18T09:55:28.000Z</time>
      </trkpt>
      <trkpt lat="49.84784" lon="4.80654">
        <ele>385</ele>
        <time>2022-09-18T09:55:29.000Z</time>
      </trkpt>
      <trkpt lat="49.84785" lon="4.80658">
        <ele>386</ele>
        <time>2022-09-18T09:55:30.000Z</time>
      </trkpt>
      <trkpt lat="49.84787" lon="4.80662">
        <ele>386</ele>
        <time>2022-09-18T09:55:31.000Z</time>
      </trkpt>
      <trkpt lat="49.84789" lon="4.80667">
        <ele>386</ele>
        <time>2022-09-18T09:55:32.000Z</time>
      </trkpt>
      <trkpt lat="49.84791" lon="4.80672">
        <ele>386</ele>
        <time>2022-09-18T09:55:33.000Z</time>
      </trkpt>
      <trkpt lat="49.84793" lon="4.80676">
        <ele>386</ele>
        <time>2022-09-18T09:55:34.000Z</time>
      </trkpt>
      <trkpt lat="49.84795" lon="4.80681">
        <ele>386</ele>
        <time>2022-09-18T09:55:35.000Z</time>
      </trkpt>
      <trkpt lat="49.84797" lon="4.80685">
        <ele>385</ele>
        <time>2022-09-18T09:55:36.000Z</time>
      </trkpt>
      <trkpt lat="49.84799" lon="4.80688">
        <ele>385</ele>
        <time>2022-09-18T09:55:37.000Z</time>
      </trkpt>
      <trkpt lat="49.84801" lon="4.80692">
        <ele>385</ele>
        <time>2022-09-18T09:55:38.000Z</time>
      </trkpt>
      <trkpt lat="49.84803" lon="4.80695">
        <ele>385</ele>
        <time>2022-09-18T09:55:39.000Z</time>
      </trkpt>
      <trkpt lat="49.84806" lon="4.80698">
        <ele>385</ele>
        <time>2022-09-18T09:55:40.000Z</time>
      </trkpt>
      <trkpt lat="49.84808" lon="4.80702">
        <ele>385</ele>
        <time>2022-09-18T09:55:41.000Z</time>
      </trkpt>
      <trkpt lat="49.8481" lon="4.80704">
        <ele>385</ele>
        <time>2022-09-18T09:55:42.000Z</time>
      </trkpt>
      <trkpt lat="49.84812" lon="4.80706">
        <ele>386</ele>
        <time>2022-09-18T09:55:43.000Z</time>
      </trkpt>
      <trkpt lat="49.84814" lon="4.80709">
        <ele>386</ele>
        <time>2022-09-18T09:55:44.000Z</time>
      </trkpt>
      <trkpt lat="49.84814" lon="4.80711">
        <ele>386</ele>
        <time>2022-09-18T09:55:45.000Z</time>
      </trkpt>
      <trkpt lat="49.84815" lon="4.80715">
        <ele>386</ele>
        <time>2022-09-18T09:55:46.000Z</time>
      </trkpt>
      <trkpt lat="49.84815" lon="4.8072">
        <ele>386</ele>
        <time>2022-09-18T09:55:47.000Z</time>
      </trkpt>
      <trkpt lat="49.84817" lon="4.80724">
        <ele>386</ele>
        <time>2022-09-18T09:55:48.000Z</time>
      </trkpt>
      <trkpt lat="49.84819" lon="4.80729">
        <ele>386</ele>
        <time>2022-09-18T09:55:49.000Z</time>
      </trkpt>
      <trkpt lat="49.84821" lon="4.80735">
        <ele>386</ele>
        <time>2022-09-18T09:55:50.000Z</time>
      </trkpt>
      <trkpt lat="49.84824" lon="4.80741">
        <ele>386</ele>
        <time>2022-09-18T09:55:51.000Z</time>
      </trkpt>
      <trkpt lat="49.84827" lon="4.80746">
        <ele>386</ele>
        <time>2022-09-18T09:55:52.000Z</time>
      </trkpt>
      <trkpt lat="49.8483" lon="4.80752">
        <ele>386</ele>
        <time>2022-09-18T09:55:53.000Z</time>
      </trkpt>
      <trkpt lat="49.84834" lon="4.80758">
        <ele>386</ele>
        <time>2022-09-18T09:55:54.000Z</time>
      </trkpt>
      <trkpt lat="49.84837" lon="4.80764">
        <ele>386</ele>
        <time>2022-09-18T09:55:55.000Z</time>
      </trkpt>
      <trkpt lat="49.8484" lon="4.80769">
        <ele>386</ele>
        <time>2022-09-18T09:55:56.000Z</time>
      </trkpt>
      <trkpt lat="49.84843" lon="4.80774">
        <ele>386</ele>
        <time>2022-09-18T09:55:57.000Z</time>
      </trkpt>
      <trkpt lat="49.84846" lon="4.80778">
        <ele>387</ele>
        <time>2022-09-18T09:55:58.000Z</time>
      </trkpt>
      <trkpt lat="49.84849" lon="4.80782">
        <ele>387</ele>
        <time>2022-09-18T09:55:59.000Z</time>
      </trkpt>
      <trkpt lat="49.84852" lon="4.80786">
        <ele>387</ele>
        <time>2022-09-18T09:56:00.000Z</time>
      </trkpt>
      <trkpt lat="49.84856" lon="4.8079">
        <ele>387</ele>
        <time>2022-09-18T09:56:01.000Z</time>
      </trkpt>
      <trkpt lat="49.84859" lon="4.80793">
        <ele>387</ele>
        <time>2022-09-18T09:56:02.000Z</time>
      </trkpt>
      <trkpt lat="49.84863" lon="4.80796">
        <ele>387</ele>
        <time>2022-09-18T09:56:03.000Z</time>
      </trkpt>
      <trkpt lat="49.84867" lon="4.80798">
        <ele>387</ele>
        <time>2022-09-18T09:56:04.000Z</time>
      </trkpt>
      <trkpt lat="49.84871" lon="4.808">
        <ele>387</ele>
        <time>2022-09-18T09:56:05.000Z</time>
      </trkpt>
      <trkpt lat="49.84874" lon="4.80801">
        <ele>387</ele>
        <time>2022-09-18T09:56:06.000Z</time>
      </trkpt>
      <trkpt lat="49.84877" lon="4.80803">
        <ele>387</ele>
        <time>2022-09-18T09:56:07.000Z</time>
      </trkpt>
      <trkpt lat="49.84879" lon="4.80805">
        <ele>387</ele>
        <time>2022-09-18T09:56:08.000Z</time>
      </trkpt>
      <trkpt lat="49.84882" lon="4.80808">
        <ele>387</ele>
        <time>2022-09-18T09:56:09.000Z</time>
      </trkpt>
      <trkpt lat="49.84885" lon="4.80813">
        <ele>388</ele>
        <time>2022-09-18T09:56:10.000Z</time>
      </trkpt>
      <trkpt lat="49.84887" lon="4.80819">
        <ele>388</ele>
        <time>2022-09-18T09:56:11.000Z</time>
      </trkpt>
      <trkpt lat="49.84889" lon="4.80825">
        <ele>388</ele>
        <time>2022-09-18T09:56:12.000Z</time>
      </trkpt>
      <trkpt lat="49.84892" lon="4.80831">
        <ele>388</ele>
        <time>2022-09-18T09:56:13.000Z</time>
      </trkpt>
      <trkpt lat="49.84894" lon="4.80837">
        <ele>388</ele>
        <time>2022-09-18T09:56:14.000Z</time>
      </trkpt>
      <trkpt lat="49.84897" lon="4.80843">
        <ele>388</ele>
        <time>2022-09-18T09:56:15.000Z</time>
      </trkpt>
      <trkpt lat="49.84899" lon="4.80849">
        <ele>388</ele>
        <time>2022-09-18T09:56:16.000Z</time>
      </trkpt>
      <trkpt lat="49.84902" lon="4.80856">
        <ele>388</ele>
        <time>2022-09-18T09:56:17.000Z</time>
      </trkpt>
      <trkpt lat="49.84906" lon="4.80865">
        <ele>389</ele>
        <time>2022-09-18T09:56:18.000Z</time>
      </trkpt>
      <trkpt lat="49.84911" lon="4.80874">
        <ele>389</ele>
        <time>2022-09-18T09:56:19.000Z</time>
      </trkpt>
      <trkpt lat="49.84914" lon="4.80884">
        <ele>389</ele>
        <time>2022-09-18T09:56:20.000Z</time>
      </trkpt>
      <trkpt lat="49.84917" lon="4.80894">
        <ele>389</ele>
        <time>2022-09-18T09:56:21.000Z</time>
      </trkpt>
      <trkpt lat="49.84918" lon="4.80904">
        <ele>389</ele>
        <time>2022-09-18T09:56:22.000Z</time>
      </trkpt>
      <trkpt lat="49.84919" lon="4.80912">
        <ele>389</ele>
        <time>2022-09-18T09:56:23.000Z</time>
      </trkpt>
      <trkpt lat="49.8492" lon="4.8092">
        <ele>389</ele>
        <time>2022-09-18T09:56:24.000Z</time>
      </trkpt>
      <trkpt lat="49.84922" lon="4.80927">
        <ele>389</ele>
        <time>2022-09-18T09:56:25.000Z</time>
      </trkpt>
      <trkpt lat="49.84925" lon="4.80934">
        <ele>389</ele>
        <time>2022-09-18T09:56:26.000Z</time>
      </trkpt>
      <trkpt lat="49.84928" lon="4.80941">
        <ele>389</ele>
        <time>2022-09-18T09:56:27.000Z</time>
      </trkpt>
      <trkpt lat="49.84931" lon="4.80948">
        <ele>389</ele>
        <time>2022-09-18T09:56:28.000Z</time>
      </trkpt>
      <trkpt lat="49.84934" lon="4.80955">
        <ele>389</ele>
        <time>2022-09-18T09:56:29.000Z</time>
      </trkpt>
      <trkpt lat="49.84936" lon="4.80962">
        <ele>389</ele>
        <time>2022-09-18T09:56:30.000Z</time>
      </trkpt>
      <trkpt lat="49.84939" lon="4.80968">
        <ele>389</ele>
        <time>2022-09-18T09:56:31.000Z</time>
      </trkpt>
      <trkpt lat="49.84942" lon="4.80975">
        <ele>389</ele>
        <time>2022-09-18T09:56:32.000Z</time>
      </trkpt>
      <trkpt lat="49.84944" lon="4.80982">
        <ele>389</ele>
        <time>2022-09-18T09:56:33.000Z</time>
      </trkpt>
      <trkpt lat="49.84947" lon="4.80989">
        <ele>389</ele>
        <time>2022-09-18T09:56:34.000Z</time>
      </trkpt>
      <trkpt lat="49.84949" lon="4.80997">
        <ele>389</ele>
        <time>2022-09-18T09:56:35.000Z</time>
      </trkpt>
      <trkpt lat="49.84951" lon="4.81003">
        <ele>389</ele>
        <time>2022-09-18T09:56:36.000Z</time>
      </trkpt>
      <trkpt lat="49.84954" lon="4.8101">
        <ele>390</ele>
        <time>2022-09-18T09:56:37.000Z</time>
      </trkpt>
      <trkpt lat="49.84957" lon="4.81017">
        <ele>390</ele>
        <time>2022-09-18T09:56:38.000Z</time>
      </trkpt>
      <trkpt lat="49.84959" lon="4.81023">
        <ele>390</ele>
        <time>2022-09-18T09:56:39.000Z</time>
      </trkpt>
      <trkpt lat="49.84961" lon="4.81029">
        <ele>390</ele>
        <time>2022-09-18T09:56:40.000Z</time>
      </trkpt>
      <trkpt lat="49.84964" lon="4.81035">
        <ele>390</ele>
        <time>2022-09-18T09:56:41.000Z</time>
      </trkpt>
      <trkpt lat="49.84966" lon="4.8104">
        <ele>391</ele>
        <time>2022-09-18T09:56:42.000Z</time>
      </trkpt>
      <trkpt lat="49.84969" lon="4.81046">
        <ele>391</ele>
        <time>2022-09-18T09:56:43.000Z</time>
      </trkpt>
      <trkpt lat="49.84971" lon="4.81052">
        <ele>391</ele>
        <time>2022-09-18T09:56:44.000Z</time>
      </trkpt>
      <trkpt lat="49.84974" lon="4.81059">
        <ele>391</ele>
        <time>2022-09-18T09:56:45.000Z</time>
      </trkpt>
      <trkpt lat="49.84976" lon="4.81065">
        <ele>391</ele>
        <time>2022-09-18T09:56:46.000Z</time>
      </trkpt>
      <trkpt lat="49.84979" lon="4.81072">
        <ele>391</ele>
        <time>2022-09-18T09:56:47.000Z</time>
      </trkpt>
      <trkpt lat="49.84981" lon="4.81079">
        <ele>392</ele>
        <time>2022-09-18T09:56:48.000Z</time>
      </trkpt>
      <trkpt lat="49.84984" lon="4.81086">
        <ele>392</ele>
        <time>2022-09-18T09:56:49.000Z</time>
      </trkpt>
      <trkpt lat="49.84986" lon="4.81092">
        <ele>392</ele>
        <time>2022-09-18T09:56:50.000Z</time>
      </trkpt>
      <trkpt lat="49.84989" lon="4.81099">
        <ele>392</ele>
        <time>2022-09-18T09:56:51.000Z</time>
      </trkpt>
      <trkpt lat="49.84991" lon="4.81105">
        <ele>392</ele>
        <time>2022-09-18T09:56:52.000Z</time>
      </trkpt>
      <trkpt lat="49.84993" lon="4.81111">
        <ele>392</ele>
        <time>2022-09-18T09:56:53.000Z</time>
      </trkpt>
      <trkpt lat="49.84996" lon="4.81117">
        <ele>392</ele>
        <time>2022-09-18T09:56:54.000Z</time>
      </trkpt>
      <trkpt lat="49.84999" lon="4.81123">
        <ele>392</ele>
        <time>2022-09-18T09:56:55.000Z</time>
      </trkpt>
      <trkpt lat="49.85002" lon="4.81129">
        <ele>392</ele>
        <time>2022-09-18T09:56:56.000Z</time>
      </trkpt>
      <trkpt lat="49.85004" lon="4.81135">
        <ele>392</ele>
        <time>2022-09-18T09:56:57.000Z</time>
      </trkpt>
      <trkpt lat="49.85008" lon="4.81141">
        <ele>392</ele>
        <time>2022-09-18T09:56:58.000Z</time>
      </trkpt>
      <trkpt lat="49.85011" lon="4.81147">
        <ele>392</ele>
        <time>2022-09-18T09:56:59.000Z</time>
      </trkpt>
      <trkpt lat="49.85014" lon="4.81153">
        <ele>392</ele>
        <time>2022-09-18T09:57:00.000Z</time>
      </trkpt>
      <trkpt lat="49.85017" lon="4.81159">
        <ele>393</ele>
        <time>2022-09-18T09:57:01.000Z</time>
      </trkpt>
      <trkpt lat="49.8502" lon="4.81164">
        <ele>393</ele>
        <time>2022-09-18T09:57:02.000Z</time>
      </trkpt>
      <trkpt lat="49.85024" lon="4.8117">
        <ele>393</ele>
        <time>2022-09-18T09:57:03.000Z</time>
      </trkpt>
      <trkpt lat="49.85028" lon="4.81176">
        <ele>393</ele>
        <time>2022-09-18T09:57:04.000Z</time>
      </trkpt>
      <trkpt lat="49.85032" lon="4.81182">
        <ele>393</ele>
        <time>2022-09-18T09:57:05.000Z</time>
      </trkpt>
      <trkpt lat="49.85035" lon="4.81188">
        <ele>393</ele>
        <time>2022-09-18T09:57:06.000Z</time>
      </trkpt>
      <trkpt lat="49.85039" lon="4.81195">
        <ele>393</ele>
        <time>2022-09-18T09:57:07.000Z</time>
      </trkpt>
      <trkpt lat="49.85043" lon="4.81201">
        <ele>393</ele>
        <time>2022-09-18T09:57:08.000Z</time>
      </trkpt>
      <trkpt lat="49.85046" lon="4.81207">
        <ele>393</ele>
        <time>2022-09-18T09:57:09.000Z</time>
      </trkpt>
      <trkpt lat="49.8505" lon="4.81213">
        <ele>393</ele>
        <time>2022-09-18T09:57:10.000Z</time>
      </trkpt>
      <trkpt lat="49.85054" lon="4.81219">
        <ele>393</ele>
        <time>2022-09-18T09:57:11.000Z</time>
      </trkpt>
      <trkpt lat="49.85057" lon="4.81225">
        <ele>393</ele>
        <time>2022-09-18T09:57:12.000Z</time>
      </trkpt>
      <trkpt lat="49.85061" lon="4.8123">
        <ele>393</ele>
        <time>2022-09-18T09:57:13.000Z</time>
      </trkpt>
      <trkpt lat="49.85065" lon="4.81235">
        <ele>393</ele>
        <time>2022-09-18T09:57:14.000Z</time>
      </trkpt>
      <trkpt lat="49.85068" lon="4.8124">
        <ele>393</ele>
        <time>2022-09-18T09:57:15.000Z</time>
      </trkpt>
      <trkpt lat="49.85071" lon="4.81246">
        <ele>393</ele>
        <time>2022-09-18T09:57:16.000Z</time>
      </trkpt>
      <trkpt lat="49.85075" lon="4.81252">
        <ele>393</ele>
        <time>2022-09-18T09:57:17.000Z</time>
      </trkpt>
      <trkpt lat="49.85079" lon="4.81258">
        <ele>393</ele>
        <time>2022-09-18T09:57:18.000Z</time>
      </trkpt>
      <trkpt lat="49.85082" lon="4.81264">
        <ele>393</ele>
        <time>2022-09-18T09:57:19.000Z</time>
      </trkpt>
      <trkpt lat="49.85086" lon="4.8127">
        <ele>393</ele>
        <time>2022-09-18T09:57:20.000Z</time>
      </trkpt>
      <trkpt lat="49.8509" lon="4.81275">
        <ele>393</ele>
        <time>2022-09-18T09:57:21.000Z</time>
      </trkpt>
      <trkpt lat="49.85093" lon="4.81281">
        <ele>393</ele>
        <time>2022-09-18T09:57:22.000Z</time>
      </trkpt>
      <trkpt lat="49.85097" lon="4.81286">
        <ele>393</ele>
        <time>2022-09-18T09:57:23.000Z</time>
      </trkpt>
      <trkpt lat="49.851" lon="4.81291">
        <ele>393</ele>
        <time>2022-09-18T09:57:24.000Z</time>
      </trkpt>
      <trkpt lat="49.85104" lon="4.81297">
        <ele>393</ele>
        <time>2022-09-18T09:57:25.000Z</time>
      </trkpt>
      <trkpt lat="49.85107" lon="4.81302">
        <ele>392</ele>
        <time>2022-09-18T09:57:26.000Z</time>
      </trkpt>
      <trkpt lat="49.8511" lon="4.81307">
        <ele>392</ele>
        <time>2022-09-18T09:57:27.000Z</time>
      </trkpt>
      <trkpt lat="49.85112" lon="4.81313">
        <ele>392</ele>
        <time>2022-09-18T09:57:28.000Z</time>
      </trkpt>
      <trkpt lat="49.85115" lon="4.81318">
        <ele>392</ele>
        <time>2022-09-18T09:57:29.000Z</time>
      </trkpt>
      <trkpt lat="49.85117" lon="4.81323">
        <ele>392</ele>
        <time>2022-09-18T09:57:30.000Z</time>
      </trkpt>
      <trkpt lat="49.85119" lon="4.81328">
        <ele>392</ele>
        <time>2022-09-18T09:57:31.000Z</time>
      </trkpt>
      <trkpt lat="49.85122" lon="4.81333">
        <ele>391</ele>
        <time>2022-09-18T09:57:32.000Z</time>
      </trkpt>
      <trkpt lat="49.85125" lon="4.81337">
        <ele>391</ele>
        <time>2022-09-18T09:57:33.000Z</time>
      </trkpt>
      <trkpt lat="49.85127" lon="4.81342">
        <ele>391</ele>
        <time>2022-09-18T09:57:34.000Z</time>
      </trkpt>
      <trkpt lat="49.8513" lon="4.81346">
        <ele>391</ele>
        <time>2022-09-18T09:57:35.000Z</time>
      </trkpt>
      <trkpt lat="49.85132" lon="4.81351">
        <ele>391</ele>
        <time>2022-09-18T09:57:36.000Z</time>
      </trkpt>
      <trkpt lat="49.85134" lon="4.81355">
        <ele>391</ele>
        <time>2022-09-18T09:57:37.000Z</time>
      </trkpt>
      <trkpt lat="49.85135" lon="4.8136">
        <ele>391</ele>
        <time>2022-09-18T09:57:38.000Z</time>
      </trkpt>
      <trkpt lat="49.85137" lon="4.81366">
        <ele>391</ele>
        <time>2022-09-18T09:57:39.000Z</time>
      </trkpt>
      <trkpt lat="49.85139" lon="4.81373">
        <ele>391</ele>
        <time>2022-09-18T09:57:40.000Z</time>
      </trkpt>
      <trkpt lat="49.85141" lon="4.81379">
        <ele>390</ele>
        <time>2022-09-18T09:57:41.000Z</time>
      </trkpt>
      <trkpt lat="49.85142" lon="4.81385">
        <ele>390</ele>
        <time>2022-09-18T09:57:42.000Z</time>
      </trkpt>
      <trkpt lat="49.85144" lon="4.81391">
        <ele>390</ele>
        <time>2022-09-18T09:57:43.000Z</time>
      </trkpt>
      <trkpt lat="49.85145" lon="4.81398">
        <ele>390</ele>
        <time>2022-09-18T09:57:44.000Z</time>
      </trkpt>
      <trkpt lat="49.85146" lon="4.81406">
        <ele>390</ele>
        <time>2022-09-18T09:57:45.000Z</time>
      </trkpt>
      <trkpt lat="49.85148" lon="4.81414">
        <ele>390</ele>
        <time>2022-09-18T09:57:46.000Z</time>
      </trkpt>
      <trkpt lat="49.85149" lon="4.81422">
        <ele>390</ele>
        <time>2022-09-18T09:57:47.000Z</time>
      </trkpt>
      <trkpt lat="49.8515" lon="4.81431">
        <ele>391</ele>
        <time>2022-09-18T09:57:48.000Z</time>
      </trkpt>
      <trkpt lat="49.8515" lon="4.81438">
        <ele>391</ele>
        <time>2022-09-18T09:57:49.000Z</time>
      </trkpt>
      <trkpt lat="49.85151" lon="4.81446">
        <ele>391</ele>
        <time>2022-09-18T09:57:50.000Z</time>
      </trkpt>
      <trkpt lat="49.85151" lon="4.81454">
        <ele>391</ele>
        <time>2022-09-18T09:57:51.000Z</time>
      </trkpt>
      <trkpt lat="49.85151" lon="4.81461">
        <ele>391</ele>
        <time>2022-09-18T09:57:52.000Z</time>
      </trkpt>
      <trkpt lat="49.85151" lon="4.81469">
        <ele>391</ele>
        <time>2022-09-18T09:57:53.000Z</time>
      </trkpt>
      <trkpt lat="49.8515" lon="4.81477">
        <ele>391</ele>
        <time>2022-09-18T09:57:54.000Z</time>
      </trkpt>
      <trkpt lat="49.8515" lon="4.81485">
        <ele>391</ele>
        <time>2022-09-18T09:57:55.000Z</time>
      </trkpt>
      <trkpt lat="49.8515" lon="4.81493">
        <ele>391</ele>
        <time>2022-09-18T09:57:56.000Z</time>
      </trkpt>
      <trkpt lat="49.8515" lon="4.81501">
        <ele>391</ele>
        <time>2022-09-18T09:57:57.000Z</time>
      </trkpt>
      <trkpt lat="49.85149" lon="4.81509">
        <ele>391</ele>
        <time>2022-09-18T09:57:58.000Z</time>
      </trkpt>
      <trkpt lat="49.85149" lon="4.81516">
        <ele>391</ele>
        <time>2022-09-18T09:57:59.000Z</time>
      </trkpt>
      <trkpt lat="49.85148" lon="4.81523">
        <ele>392</ele>
        <time>2022-09-18T09:58:00.000Z</time>
      </trkpt>
      <trkpt lat="49.85148" lon="4.8153">
        <ele>392</ele>
        <time>2022-09-18T09:58:01.000Z</time>
      </trkpt>
      <trkpt lat="49.85147" lon="4.81537">
        <ele>392</ele>
        <time>2022-09-18T09:58:02.000Z</time>
      </trkpt>
      <trkpt lat="49.85147" lon="4.81544">
        <ele>392</ele>
        <time>2022-09-18T09:58:03.000Z</time>
      </trkpt>
      <trkpt lat="49.85147" lon="4.81551">
        <ele>392</ele>
        <time>2022-09-18T09:58:04.000Z</time>
      </trkpt>
      <trkpt lat="49.85146" lon="4.81559">
        <ele>392</ele>
        <time>2022-09-18T09:58:05.000Z</time>
      </trkpt>
      <trkpt lat="49.85145" lon="4.81566">
        <ele>392</ele>
        <time>2022-09-18T09:58:06.000Z</time>
      </trkpt>
      <trkpt lat="49.85145" lon="4.81574">
        <ele>393</ele>
        <time>2022-09-18T09:58:07.000Z</time>
      </trkpt>
      <trkpt lat="49.85145" lon="4.81581">
        <ele>393</ele>
        <time>2022-09-18T09:58:08.000Z</time>
      </trkpt>
      <trkpt lat="49.85144" lon="4.81587">
        <ele>393</ele>
        <time>2022-09-18T09:58:09.000Z</time>
      </trkpt>
      <trkpt lat="49.85144" lon="4.81593">
        <ele>393</ele>
        <time>2022-09-18T09:58:10.000Z</time>
      </trkpt>
      <trkpt lat="49.85144" lon="4.816">
        <ele>393</ele>
        <time>2022-09-18T09:58:11.000Z</time>
      </trkpt>
      <trkpt lat="49.85144" lon="4.81606">
        <ele>393</ele>
        <time>2022-09-18T09:58:12.000Z</time>
      </trkpt>
      <trkpt lat="49.85144" lon="4.81613">
        <ele>393</ele>
        <time>2022-09-18T09:58:13.000Z</time>
      </trkpt>
      <trkpt lat="49.85144" lon="4.81619">
        <ele>393</ele>
        <time>2022-09-18T09:58:14.000Z</time>
      </trkpt>
      <trkpt lat="49.85144" lon="4.81625">
        <ele>393</ele>
        <time>2022-09-18T09:58:15.000Z</time>
      </trkpt>
      <trkpt lat="49.85144" lon="4.81632">
        <ele>393</ele>
        <time>2022-09-18T09:58:16.000Z</time>
      </trkpt>
      <trkpt lat="49.85145" lon="4.8164">
        <ele>393</ele>
        <time>2022-09-18T09:58:17.000Z</time>
      </trkpt>
      <trkpt lat="49.85145" lon="4.81646">
        <ele>393</ele>
        <time>2022-09-18T09:58:18.000Z</time>
      </trkpt>
      <trkpt lat="49.85146" lon="4.81654">
        <ele>393</ele>
        <time>2022-09-18T09:58:19.000Z</time>
      </trkpt>
      <trkpt lat="49.85147" lon="4.8166">
        <ele>393</ele>
        <time>2022-09-18T09:58:20.000Z</time>
      </trkpt>
      <trkpt lat="49.85148" lon="4.81667">
        <ele>393</ele>
        <time>2022-09-18T09:58:21.000Z</time>
      </trkpt>
      <trkpt lat="49.85149" lon="4.81674">
        <ele>393</ele>
        <time>2022-09-18T09:58:22.000Z</time>
      </trkpt>
      <trkpt lat="49.8515" lon="4.81681">
        <ele>394</ele>
        <time>2022-09-18T09:58:23.000Z</time>
      </trkpt>
      <trkpt lat="49.85152" lon="4.81688">
        <ele>394</ele>
        <time>2022-09-18T09:58:24.000Z</time>
      </trkpt>
      <trkpt lat="49.85154" lon="4.81695">
        <ele>394</ele>
        <time>2022-09-18T09:58:25.000Z</time>
      </trkpt>
      <trkpt lat="49.85155" lon="4.81701">
        <ele>394</ele>
        <time>2022-09-18T09:58:26.000Z</time>
      </trkpt>
      <trkpt lat="49.85157" lon="4.81708">
        <ele>394</ele>
        <time>2022-09-18T09:58:27.000Z</time>
      </trkpt>
      <trkpt lat="49.85159" lon="4.81714">
        <ele>394</ele>
        <time>2022-09-18T09:58:28.000Z</time>
      </trkpt>
      <trkpt lat="49.8516" lon="4.8172">
        <ele>394</ele>
        <time>2022-09-18T09:58:29.000Z</time>
      </trkpt>
      <trkpt lat="49.85161" lon="4.81726">
        <ele>394</ele>
        <time>2022-09-18T09:58:30.000Z</time>
      </trkpt>
      <trkpt lat="49.85163" lon="4.81733">
        <ele>394</ele>
        <time>2022-09-18T09:58:31.000Z</time>
      </trkpt>
      <trkpt lat="49.85164" lon="4.8174">
        <ele>394</ele>
        <time>2022-09-18T09:58:32.000Z</time>
      </trkpt>
      <trkpt lat="49.85165" lon="4.81748">
        <ele>395</ele>
        <time>2022-09-18T09:58:33.000Z</time>
      </trkpt>
      <trkpt lat="49.85167" lon="4.81756">
        <ele>395</ele>
        <time>2022-09-18T09:58:34.000Z</time>
      </trkpt>
      <trkpt lat="49.85169" lon="4.81764">
        <ele>395</ele>
        <time>2022-09-18T09:58:35.000Z</time>
      </trkpt>
      <trkpt lat="49.85171" lon="4.81772">
        <ele>395</ele>
        <time>2022-09-18T09:58:36.000Z</time>
      </trkpt>
      <trkpt lat="49.85173" lon="4.81781">
        <ele>395</ele>
        <time>2022-09-18T09:58:37.000Z</time>
      </trkpt>
      <trkpt lat="49.85174" lon="4.8179">
        <ele>395</ele>
        <time>2022-09-18T09:58:38.000Z</time>
      </trkpt>
      <trkpt lat="49.85176" lon="4.81799">
        <ele>395</ele>
        <time>2022-09-18T09:58:39.000Z</time>
      </trkpt>
      <trkpt lat="49.85178" lon="4.81808">
        <ele>395</ele>
        <time>2022-09-18T09:58:40.000Z</time>
      </trkpt>
      <trkpt lat="49.8518" lon="4.81817">
        <ele>395</ele>
        <time>2022-09-18T09:58:41.000Z</time>
      </trkpt>
      <trkpt lat="49.85181" lon="4.81827">
        <ele>395</ele>
        <time>2022-09-18T09:58:42.000Z</time>
      </trkpt>
      <trkpt lat="49.85183" lon="4.81836">
        <ele>395</ele>
        <time>2022-09-18T09:58:43.000Z</time>
      </trkpt>
      <trkpt lat="49.85184" lon="4.81845">
        <ele>394</ele>
        <time>2022-09-18T09:58:44.000Z</time>
      </trkpt>
      <trkpt lat="49.85185" lon="4.81853">
        <ele>394</ele>
        <time>2022-09-18T09:58:45.000Z</time>
      </trkpt>
      <trkpt lat="49.85185" lon="4.81862">
        <ele>394</ele>
        <time>2022-09-18T09:58:46.000Z</time>
      </trkpt>
      <trkpt lat="49.85186" lon="4.81872">
        <ele>394</ele>
        <time>2022-09-18T09:58:47.000Z</time>
      </trkpt>
      <trkpt lat="49.85187" lon="4.81881">
        <ele>394</ele>
        <time>2022-09-18T09:58:48.000Z</time>
      </trkpt>
      <trkpt lat="49.85188" lon="4.8189">
        <ele>394</ele>
        <time>2022-09-18T09:58:49.000Z</time>
      </trkpt>
      <trkpt lat="49.85189" lon="4.81899">
        <ele>393</ele>
        <time>2022-09-18T09:58:50.000Z</time>
      </trkpt>
      <trkpt lat="49.8519" lon="4.81909">
        <ele>393</ele>
        <time>2022-09-18T09:58:51.000Z</time>
      </trkpt>
      <trkpt lat="49.8519" lon="4.81919">
        <ele>393</ele>
        <time>2022-09-18T09:58:52.000Z</time>
      </trkpt>
      <trkpt lat="49.85189" lon="4.81929">
        <ele>393</ele>
        <time>2022-09-18T09:58:53.000Z</time>
      </trkpt>
      <trkpt lat="49.85189" lon="4.81938">
        <ele>392</ele>
        <time>2022-09-18T09:58:54.000Z</time>
      </trkpt>
      <trkpt lat="49.85188" lon="4.81948">
        <ele>392</ele>
        <time>2022-09-18T09:58:55.000Z</time>
      </trkpt>
      <trkpt lat="49.85188" lon="4.81958">
        <ele>392</ele>
        <time>2022-09-18T09:58:56.000Z</time>
      </trkpt>
      <trkpt lat="49.85188" lon="4.81967">
        <ele>392</ele>
        <time>2022-09-18T09:58:57.000Z</time>
      </trkpt>
      <trkpt lat="49.85188" lon="4.81977">
        <ele>391</ele>
        <time>2022-09-18T09:58:58.000Z</time>
      </trkpt>
      <trkpt lat="49.85188" lon="4.81987">
        <ele>391</ele>
        <time>2022-09-18T09:58:59.000Z</time>
      </trkpt>
      <trkpt lat="49.85188" lon="4.81997">
        <ele>391</ele>
        <time>2022-09-18T09:59:00.000Z</time>
      </trkpt>
      <trkpt lat="49.85189" lon="4.82008">
        <ele>390</ele>
        <time>2022-09-18T09:59:01.000Z</time>
      </trkpt>
      <trkpt lat="49.8519" lon="4.82019">
        <ele>390</ele>
        <time>2022-09-18T09:59:02.000Z</time>
      </trkpt>
      <trkpt lat="49.85192" lon="4.8203">
        <ele>389</ele>
        <time>2022-09-18T09:59:03.000Z</time>
      </trkpt>
      <trkpt lat="49.85194" lon="4.82041">
        <ele>389</ele>
        <time>2022-09-18T09:59:04.000Z</time>
      </trkpt>
      <trkpt lat="49.85195" lon="4.82053">
        <ele>388</ele>
        <time>2022-09-18T09:59:05.000Z</time>
      </trkpt>
      <trkpt lat="49.85197" lon="4.82064">
        <ele>388</ele>
        <time>2022-09-18T09:59:06.000Z</time>
      </trkpt>
      <trkpt lat="49.85199" lon="4.82075">
        <ele>387</ele>
        <time>2022-09-18T09:59:07.000Z</time>
      </trkpt>
      <trkpt lat="49.85201" lon="4.82086">
        <ele>387</ele>
        <time>2022-09-18T09:59:08.000Z</time>
      </trkpt>
      <trkpt lat="49.85202" lon="4.82097">
        <ele>386</ele>
        <time>2022-09-18T09:59:09.000Z</time>
      </trkpt>
      <trkpt lat="49.85204" lon="4.82108">
        <ele>386</ele>
        <time>2022-09-18T09:59:10.000Z</time>
      </trkpt>
      <trkpt lat="49.85206" lon="4.8212">
        <ele>385</ele>
        <time>2022-09-18T09:59:11.000Z</time>
      </trkpt>
      <trkpt lat="49.85207" lon="4.82131">
        <ele>384</ele>
        <time>2022-09-18T09:59:12.000Z</time>
      </trkpt>
      <trkpt lat="49.85209" lon="4.82143">
        <ele>384</ele>
        <time>2022-09-18T09:59:13.000Z</time>
      </trkpt>
      <trkpt lat="49.8521" lon="4.82155">
        <ele>383</ele>
        <time>2022-09-18T09:59:14.000Z</time>
      </trkpt>
      <trkpt lat="49.85212" lon="4.82166">
        <ele>382</ele>
        <time>2022-09-18T09:59:15.000Z</time>
      </trkpt>
      <trkpt lat="49.85214" lon="4.82178">
        <ele>382</ele>
        <time>2022-09-18T09:59:16.000Z</time>
      </trkpt>
      <trkpt lat="49.85216" lon="4.82189">
        <ele>381</ele>
        <time>2022-09-18T09:59:17.000Z</time>
      </trkpt>
      <trkpt lat="49.85218" lon="4.82201">
        <ele>380</ele>
        <time>2022-09-18T09:59:18.000Z</time>
      </trkpt>
      <trkpt lat="49.8522" lon="4.82214">
        <ele>380</ele>
        <time>2022-09-18T09:59:19.000Z</time>
      </trkpt>
      <trkpt lat="49.85222" lon="4.82228">
        <ele>379</ele>
        <time>2022-09-18T09:59:20.000Z</time>
      </trkpt>
      <trkpt lat="49.85223" lon="4.82241">
        <ele>379</ele>
        <time>2022-09-18T09:59:21.000Z</time>
      </trkpt>
      <trkpt lat="49.85224" lon="4.82254">
        <ele>378</ele>
        <time>2022-09-18T09:59:22.000Z</time>
      </trkpt>
      <trkpt lat="49.85225" lon="4.82266">
        <ele>377</ele>
        <time>2022-09-18T09:59:23.000Z</time>
      </trkpt>
      <trkpt lat="49.85226" lon="4.82279">
        <ele>376</ele>
        <time>2022-09-18T09:59:24.000Z</time>
      </trkpt>
      <trkpt lat="49.85227" lon="4.82292">
        <ele>375</ele>
        <time>2022-09-18T09:59:25.000Z</time>
      </trkpt>
      <trkpt lat="49.85228" lon="4.82304">
        <ele>375</ele>
        <time>2022-09-18T09:59:26.000Z</time>
      </trkpt>
      <trkpt lat="49.8523" lon="4.82316">
        <ele>374</ele>
        <time>2022-09-18T09:59:27.000Z</time>
      </trkpt>
      <trkpt lat="49.85231" lon="4.82328">
        <ele>373</ele>
        <time>2022-09-18T09:59:28.000Z</time>
      </trkpt>
      <trkpt lat="49.85232" lon="4.8234">
        <ele>372</ele>
        <time>2022-09-18T09:59:29.000Z</time>
      </trkpt>
      <trkpt lat="49.85233" lon="4.82352">
        <ele>371</ele>
        <time>2022-09-18T09:59:30.000Z</time>
      </trkpt>
      <trkpt lat="49.85233" lon="4.82364">
        <ele>370</ele>
        <time>2022-09-18T09:59:31.000Z</time>
      </trkpt>
      <trkpt lat="49.85233" lon="4.82375">
        <ele>370</ele>
        <time>2022-09-18T09:59:32.000Z</time>
      </trkpt>
      <trkpt lat="49.85233" lon="4.82385">
        <ele>369</ele>
        <time>2022-09-18T09:59:33.000Z</time>
      </trkpt>
      <trkpt lat="49.85233" lon="4.82394">
        <ele>369</ele>
        <time>2022-09-18T09:59:34.000Z</time>
      </trkpt>
      <trkpt lat="49.85231" lon="4.82402">
        <ele>368</ele>
        <time>2022-09-18T09:59:35.000Z</time>
      </trkpt>
      <trkpt lat="49.85229" lon="4.82409">
        <ele>367</ele>
        <time>2022-09-18T09:59:36.000Z</time>
      </trkpt>
      <trkpt lat="49.85227" lon="4.82417">
        <ele>367</ele>
        <time>2022-09-18T09:59:37.000Z</time>
      </trkpt>
      <trkpt lat="49.85225" lon="4.82424">
        <ele>366</ele>
        <time>2022-09-18T09:59:38.000Z</time>
      </trkpt>
      <trkpt lat="49.85223" lon="4.82431">
        <ele>366</ele>
        <time>2022-09-18T09:59:39.000Z</time>
      </trkpt>
      <trkpt lat="49.85222" lon="4.82439">
        <ele>366</ele>
        <time>2022-09-18T09:59:40.000Z</time>
      </trkpt>
      <trkpt lat="49.8522" lon="4.82446">
        <ele>365</ele>
        <time>2022-09-18T09:59:41.000Z</time>
      </trkpt>
      <trkpt lat="49.85219" lon="4.82453">
        <ele>365</ele>
        <time>2022-09-18T09:59:42.000Z</time>
      </trkpt>
      <trkpt lat="49.85217" lon="4.82459">
        <ele>364</ele>
        <time>2022-09-18T09:59:43.000Z</time>
      </trkpt>
      <trkpt lat="49.85216" lon="4.82465">
        <ele>364</ele>
        <time>2022-09-18T09:59:44.000Z</time>
      </trkpt>
      <trkpt lat="49.85215" lon="4.82469">
        <ele>364</ele>
        <time>2022-09-18T09:59:45.000Z</time>
      </trkpt>
      <trkpt lat="49.85213" lon="4.82474">
        <ele>364</ele>
        <time>2022-09-18T09:59:46.000Z</time>
      </trkpt>
      <trkpt lat="49.85212" lon="4.82478">
        <ele>364</ele>
        <time>2022-09-18T09:59:47.000Z</time>
      </trkpt>
      <trkpt lat="49.85211" lon="4.82481">
        <ele>364</ele>
        <time>2022-09-18T09:59:48.000Z</time>
      </trkpt>
      <trkpt lat="49.85209" lon="4.82485">
        <ele>364</ele>
        <time>2022-09-18T09:59:49.000Z</time>
      </trkpt>
      <trkpt lat="49.85209" lon="4.82488">
        <ele>364</ele>
        <time>2022-09-18T09:59:50.000Z</time>
      </trkpt>
      <trkpt lat="49.85208" lon="4.82491">
        <ele>364</ele>
        <time>2022-09-18T09:59:51.000Z</time>
      </trkpt>
      <trkpt lat="49.85206" lon="4.82494">
        <ele>364</ele>
        <time>2022-09-18T09:59:52.000Z</time>
      </trkpt>
      <trkpt lat="49.85205" lon="4.82497">
        <ele>364</ele>
        <time>2022-09-18T09:59:53.000Z</time>
      </trkpt>
      <trkpt lat="49.85204" lon="4.825">
        <ele>364</ele>
        <time>2022-09-18T09:59:54.000Z</time>
      </trkpt>
      <trkpt lat="49.85203" lon="4.82502">
        <ele>365</ele>
        <time>2022-09-18T09:59:55.000Z</time>
      </trkpt>
      <trkpt lat="49.85202" lon="4.82504">
        <ele>365</ele>
        <time>2022-09-18T09:59:56.000Z</time>
      </trkpt>
      <trkpt lat="49.852" lon="4.82507">
        <ele>365</ele>
        <time>2022-09-18T09:59:57.000Z</time>
      </trkpt>
      <trkpt lat="49.852" lon="4.8251">
        <ele>365</ele>
        <time>2022-09-18T09:59:58.000Z</time>
      </trkpt>
      <trkpt lat="49.85198" lon="4.82513">
        <ele>365</ele>
        <time>2022-09-18T09:59:59.000Z</time>
      </trkpt>
      <trkpt lat="49.85197" lon="4.82515">
        <ele>365</ele>
        <time>2022-09-18T10:00:00.000Z</time>
      </trkpt>
      <trkpt lat="49.85196" lon="4.82517">
        <ele>365</ele>
        <time>2022-09-18T10:00:01.000Z</time>
      </trkpt>
      <trkpt lat="49.85194" lon="4.8252">
        <ele>366</ele>
        <time>2022-09-18T10:00:02.000Z</time>
      </trkpt>
      <trkpt lat="49.85193" lon="4.82522">
        <ele>366</ele>
        <time>2022-09-18T10:00:03.000Z</time>
      </trkpt>
      <trkpt lat="49.85191" lon="4.82524">
        <ele>366</ele>
        <time>2022-09-18T10:00:04.000Z</time>
      </trkpt>
      <trkpt lat="49.8519" lon="4.82525">
        <ele>366</ele>
        <time>2022-09-18T10:00:05.000Z</time>
      </trkpt>
      <trkpt lat="49.85188" lon="4.82527">
        <ele>366</ele>
        <time>2022-09-18T10:00:06.000Z</time>
      </trkpt>
      <trkpt lat="49.85187" lon="4.82529">
        <ele>367</ele>
        <time>2022-09-18T10:00:07.000Z</time>
      </trkpt>
      <trkpt lat="49.85185" lon="4.8253">
        <ele>367</ele>
        <time>2022-09-18T10:00:08.000Z</time>
      </trkpt>
      <trkpt lat="49.85184" lon="4.82532">
        <ele>367</ele>
        <time>2022-09-18T10:00:09.000Z</time>
      </trkpt>
      <trkpt lat="49.85183" lon="4.82535">
        <ele>367</ele>
        <time>2022-09-18T10:00:10.000Z</time>
      </trkpt>
      <trkpt lat="49.85182" lon="4.82538">
        <ele>368</ele>
        <time>2022-09-18T10:00:11.000Z</time>
      </trkpt>
      <trkpt lat="49.85181" lon="4.8254">
        <ele>368</ele>
        <time>2022-09-18T10:00:12.000Z</time>
      </trkpt>
      <trkpt lat="49.8518" lon="4.82541">
        <ele>368</ele>
        <time>2022-09-18T10:00:13.000Z</time>
      </trkpt>
      <trkpt lat="49.8518" lon="4.82541">
        <ele>368</ele>
        <time>2022-09-18T10:00:14.000Z</time>
      </trkpt>
      <trkpt lat="49.85179" lon="4.82542">
        <ele>369</ele>
        <time>2022-09-18T10:00:15.000Z</time>
      </trkpt>
      <trkpt lat="49.85179" lon="4.82542">
        <ele>369</ele>
        <time>2022-09-18T10:00:16.000Z</time>
      </trkpt>
      <trkpt lat="49.85179" lon="4.82543">
        <ele>369</ele>
        <time>2022-09-18T10:00:17.000Z</time>
      </trkpt>
      <trkpt lat="49.85177" lon="4.82544">
        <ele>369</ele>
        <time>2022-09-18T10:00:18.000Z</time>
      </trkpt>
      <trkpt lat="49.85176" lon="4.82546">
        <ele>369</ele>
        <time>2022-09-18T10:00:19.000Z</time>
      </trkpt>
      <trkpt lat="49.85175" lon="4.82547">
        <ele>369</ele>
        <time>2022-09-18T10:00:20.000Z</time>
      </trkpt>
      <trkpt lat="49.85174" lon="4.82549">
        <ele>369</ele>
        <time>2022-09-18T10:00:21.000Z</time>
      </trkpt>
      <trkpt lat="49.85173" lon="4.82552">
        <ele>369</ele>
        <time>2022-09-18T10:00:22.000Z</time>
      </trkpt>
      <trkpt lat="49.85172" lon="4.82554">
        <ele>370</ele>
        <time>2022-09-18T10:00:23.000Z</time>
      </trkpt>
      <trkpt lat="49.85171" lon="4.82555">
        <ele>370</ele>
        <time>2022-09-18T10:00:24.000Z</time>
      </trkpt>
      <trkpt lat="49.85171" lon="4.82557">
        <ele>370</ele>
        <time>2022-09-18T10:00:25.000Z</time>
      </trkpt>
      <trkpt lat="49.8517" lon="4.82558">
        <ele>370</ele>
        <time>2022-09-18T10:00:26.000Z</time>
      </trkpt>
      <trkpt lat="49.85169" lon="4.8256">
        <ele>370</ele>
        <time>2022-09-18T10:00:27.000Z</time>
      </trkpt>
      <trkpt lat="49.85167" lon="4.82562">
        <ele>370</ele>
        <time>2022-09-18T10:00:28.000Z</time>
      </trkpt>
      <trkpt lat="49.85167" lon="4.82563">
        <ele>370</ele>
        <time>2022-09-18T10:00:29.000Z</time>
      </trkpt>
      <trkpt lat="49.85165" lon="4.82565">
        <ele>371</ele>
        <time>2022-09-18T10:00:30.000Z</time>
      </trkpt>
      <trkpt lat="49.85164" lon="4.82567">
        <ele>371</ele>
        <time>2022-09-18T10:00:31.000Z</time>
      </trkpt>
      <trkpt lat="49.85163" lon="4.82568">
        <ele>371</ele>
        <time>2022-09-18T10:00:32.000Z</time>
      </trkpt>
      <trkpt lat="49.85162" lon="4.8257">
        <ele>371</ele>
        <time>2022-09-18T10:00:33.000Z</time>
      </trkpt>
      <trkpt lat="49.85161" lon="4.82573">
        <ele>371</ele>
        <time>2022-09-18T10:00:34.000Z</time>
      </trkpt>
      <trkpt lat="49.85159" lon="4.82575">
        <ele>371</ele>
        <time>2022-09-18T10:00:35.000Z</time>
      </trkpt>
      <trkpt lat="49.85158" lon="4.82578">
        <ele>372</ele>
        <time>2022-09-18T10:00:36.000Z</time>
      </trkpt>
      <trkpt lat="49.85156" lon="4.8258">
        <ele>372</ele>
        <time>2022-09-18T10:00:37.000Z</time>
      </trkpt>
      <trkpt lat="49.85155" lon="4.82582">
        <ele>372</ele>
        <time>2022-09-18T10:00:38.000Z</time>
      </trkpt>
      <trkpt lat="49.85154" lon="4.82583">
        <ele>372</ele>
        <time>2022-09-18T10:00:39.000Z</time>
      </trkpt>
      <trkpt lat="49.85153" lon="4.82586">
        <ele>372</ele>
        <time>2022-09-18T10:00:40.000Z</time>
      </trkpt>
      <trkpt lat="49.85152" lon="4.82588">
        <ele>372</ele>
        <time>2022-09-18T10:00:41.000Z</time>
      </trkpt>
      <trkpt lat="49.8515" lon="4.8259">
        <ele>373</ele>
        <time>2022-09-18T10:00:42.000Z</time>
      </trkpt>
      <trkpt lat="49.85149" lon="4.82592">
        <ele>373</ele>
        <time>2022-09-18T10:00:43.000Z</time>
      </trkpt>
      <trkpt lat="49.85148" lon="4.82594">
        <ele>373</ele>
        <time>2022-09-18T10:00:44.000Z</time>
      </trkpt>
      <trkpt lat="49.85147" lon="4.82597">
        <ele>374</ele>
        <time>2022-09-18T10:00:45.000Z</time>
      </trkpt>
      <trkpt lat="49.85146" lon="4.82599">
        <ele>374</ele>
        <time>2022-09-18T10:00:46.000Z</time>
      </trkpt>
      <trkpt lat="49.85145" lon="4.82602">
        <ele>374</ele>
        <time>2022-09-18T10:00:47.000Z</time>
      </trkpt>
      <trkpt lat="49.85143" lon="4.82604">
        <ele>375</ele>
        <time>2022-09-18T10:00:48.000Z</time>
      </trkpt>
      <trkpt lat="49.85142" lon="4.82607">
        <ele>375</ele>
        <time>2022-09-18T10:00:49.000Z</time>
      </trkpt>
      <trkpt lat="49.8514" lon="4.8261">
        <ele>375</ele>
        <time>2022-09-18T10:00:50.000Z</time>
      </trkpt>
      <trkpt lat="49.85138" lon="4.82612">
        <ele>375</ele>
        <time>2022-09-18T10:00:51.000Z</time>
      </trkpt>
      <trkpt lat="49.85137" lon="4.82615">
        <ele>376</ele>
        <time>2022-09-18T10:00:52.000Z</time>
      </trkpt>
      <trkpt lat="49.85136" lon="4.82617">
        <ele>376</ele>
        <time>2022-09-18T10:00:53.000Z</time>
      </trkpt>
      <trkpt lat="49.85134" lon="4.8262">
        <ele>376</ele>
        <time>2022-09-18T10:00:54.000Z</time>
      </trkpt>
      <trkpt lat="49.85134" lon="4.82623">
        <ele>376</ele>
        <time>2022-09-18T10:00:55.000Z</time>
      </trkpt>
      <trkpt lat="49.85132" lon="4.82626">
        <ele>377</ele>
        <time>2022-09-18T10:00:56.000Z</time>
      </trkpt>
      <trkpt lat="49.8513" lon="4.82628">
        <ele>377</ele>
        <time>2022-09-18T10:00:57.000Z</time>
      </trkpt>
      <trkpt lat="49.85129" lon="4.82631">
        <ele>377</ele>
        <time>2022-09-18T10:00:58.000Z</time>
      </trkpt>
      <trkpt lat="49.85127" lon="4.82634">
        <ele>377</ele>
        <time>2022-09-18T10:00:59.000Z</time>
      </trkpt>
      <trkpt lat="49.85126" lon="4.82638">
        <ele>377</ele>
        <time>2022-09-18T10:01:00.000Z</time>
      </trkpt>
      <trkpt lat="49.85125" lon="4.82641">
        <ele>377</ele>
        <time>2022-09-18T10:01:01.000Z</time>
      </trkpt>
      <trkpt lat="49.85124" lon="4.82644">
        <ele>377</ele>
        <time>2022-09-18T10:01:02.000Z</time>
      </trkpt>
      <trkpt lat="49.85124" lon="4.82647">
        <ele>377</ele>
        <time>2022-09-18T10:01:03.000Z</time>
      </trkpt>
      <trkpt lat="49.85123" lon="4.8265">
        <ele>377</ele>
        <time>2022-09-18T10:01:04.000Z</time>
      </trkpt>
      <trkpt lat="49.85122" lon="4.82653">
        <ele>377</ele>
        <time>2022-09-18T10:01:05.000Z</time>
      </trkpt>
      <trkpt lat="49.8512" lon="4.82656">
        <ele>377</ele>
        <time>2022-09-18T10:01:06.000Z</time>
      </trkpt>
      <trkpt lat="49.85119" lon="4.82659">
        <ele>377</ele>
        <time>2022-09-18T10:01:07.000Z</time>
      </trkpt>
      <trkpt lat="49.85118" lon="4.82662">
        <ele>377</ele>
        <time>2022-09-18T10:01:08.000Z</time>
      </trkpt>
      <trkpt lat="49.85116" lon="4.82665">
        <ele>377</ele>
        <time>2022-09-18T10:01:09.000Z</time>
      </trkpt>
      <trkpt lat="49.85115" lon="4.82667">
        <ele>377</ele>
        <time>2022-09-18T10:01:10.000Z</time>
      </trkpt>
      <trkpt lat="49.85113" lon="4.82669">
        <ele>377</ele>
        <time>2022-09-18T10:01:11.000Z</time>
      </trkpt>
      <trkpt lat="49.85111" lon="4.8267">
        <ele>377</ele>
        <time>2022-09-18T10:01:12.000Z</time>
      </trkpt>
      <trkpt lat="49.85109" lon="4.82673">
        <ele>378</ele>
        <time>2022-09-18T10:01:13.000Z</time>
      </trkpt>
      <trkpt lat="49.85107" lon="4.82677">
        <ele>378</ele>
        <time>2022-09-18T10:01:14.000Z</time>
      </trkpt>
      <trkpt lat="49.85105" lon="4.8268">
        <ele>378</ele>
        <time>2022-09-18T10:01:15.000Z</time>
      </trkpt>
      <trkpt lat="49.85104" lon="4.82684">
        <ele>378</ele>
        <time>2022-09-18T10:01:16.000Z</time>
      </trkpt>
      <trkpt lat="49.85103" lon="4.82686">
        <ele>378</ele>
        <time>2022-09-18T10:01:17.000Z</time>
      </trkpt>
      <trkpt lat="49.85103" lon="4.82688">
        <ele>378</ele>
        <time>2022-09-18T10:01:18.000Z</time>
      </trkpt>
      <trkpt lat="49.85102" lon="4.82689">
        <ele>378</ele>
        <time>2022-09-18T10:01:19.000Z</time>
      </trkpt>
      <trkpt lat="49.85102" lon="4.8269">
        <ele>378</ele>
        <time>2022-09-18T10:01:20.000Z</time>
      </trkpt>
      <trkpt lat="49.85101" lon="4.82691">
        <ele>378</ele>
        <time>2022-09-18T10:01:21.000Z</time>
      </trkpt>
      <trkpt lat="49.85101" lon="4.82692">
        <ele>378</ele>
        <time>2022-09-18T10:01:22.000Z</time>
      </trkpt>
      <trkpt lat="49.85101" lon="4.82693">
        <ele>378</ele>
        <time>2022-09-18T10:01:23.000Z</time>
      </trkpt>
      <trkpt lat="49.85101" lon="4.82694">
        <ele>379</ele>
        <time>2022-09-18T10:01:24.000Z</time>
      </trkpt>
      <trkpt lat="49.85101" lon="4.82694">
        <ele>379</ele>
        <time>2022-09-18T10:01:25.000Z</time>
      </trkpt>
      <trkpt lat="49.85101" lon="4.82695">
        <ele>379</ele>
        <time>2022-09-18T10:01:26.000Z</time>
      </trkpt>
      <trkpt lat="49.85101" lon="4.82695">
        <ele>379</ele>
        <time>2022-09-18T10:01:27.000Z</time>
      </trkpt>
      <trkpt lat="49.85101" lon="4.82695">
        <ele>379</ele>
        <time>2022-09-18T10:01:28.000Z</time>
      </trkpt>
      <trkpt lat="49.85101" lon="4.82696">
        <ele>379</ele>
        <time>2022-09-18T10:01:29.000Z</time>
      </trkpt>
      <trkpt lat="49.851" lon="4.82697">
        <ele>379</ele>
        <time>2022-09-18T10:01:30.000Z</time>
      </trkpt>
      <trkpt lat="49.851" lon="4.827">
        <ele>379</ele>
        <time>2022-09-18T10:01:31.000Z</time>
      </trkpt>
      <trkpt lat="49.85099" lon="4.82705">
        <ele>379</ele>
        <time>2022-09-18T10:01:32.000Z</time>
      </trkpt>
      <trkpt lat="49.85098" lon="4.8271">
        <ele>380</ele>
        <time>2022-09-18T10:01:33.000Z</time>
      </trkpt>
      <trkpt lat="49.85097" lon="4.82717">
        <ele>380</ele>
        <time>2022-09-18T10:01:34.000Z</time>
      </trkpt>
      <trkpt lat="49.85096" lon="4.82723">
        <ele>380</ele>
        <time>2022-09-18T10:01:35.000Z</time>
      </trkpt>
      <trkpt lat="49.85095" lon="4.82728">
        <ele>380</ele>
        <time>2022-09-18T10:01:36.000Z</time>
      </trkpt>
      <trkpt lat="49.85092" lon="4.82732">
        <ele>380</ele>
        <time>2022-09-18T10:01:37.000Z</time>
      </trkpt>
      <trkpt lat="49.8509" lon="4.82733">
        <ele>380</ele>
        <time>2022-09-18T10:01:38.000Z</time>
      </trkpt>
      <trkpt lat="49.85087" lon="4.82732">
        <ele>380</ele>
        <time>2022-09-18T10:01:39.000Z</time>
      </trkpt>
      <trkpt lat="49.85085" lon="4.82732">
        <ele>380</ele>
        <time>2022-09-18T10:01:40.000Z</time>
      </trkpt>
      <trkpt lat="49.85083" lon="4.82733">
        <ele>380</ele>
        <time>2022-09-18T10:01:41.000Z</time>
      </trkpt>
      <trkpt lat="49.85081" lon="4.82736">
        <ele>380</ele>
        <time>2022-09-18T10:01:42.000Z</time>
      </trkpt>
      <trkpt lat="49.8508" lon="4.82738">
        <ele>380</ele>
        <time>2022-09-18T10:01:43.000Z</time>
      </trkpt>
      <trkpt lat="49.85077" lon="4.8274">
        <ele>380</ele>
        <time>2022-09-18T10:01:44.000Z</time>
      </trkpt>
      <trkpt lat="49.85075" lon="4.82741">
        <ele>380</ele>
        <time>2022-09-18T10:01:45.000Z</time>
      </trkpt>
      <trkpt lat="49.85073" lon="4.82744">
        <ele>380</ele>
        <time>2022-09-18T10:01:46.000Z</time>
      </trkpt>
      <trkpt lat="49.85071" lon="4.82746">
        <ele>380</ele>
        <time>2022-09-18T10:01:47.000Z</time>
      </trkpt>
      <trkpt lat="49.85069" lon="4.82749">
        <ele>380</ele>
        <time>2022-09-18T10:01:48.000Z</time>
      </trkpt>
      <trkpt lat="49.85067" lon="4.82751">
        <ele>380</ele>
        <time>2022-09-18T10:01:49.000Z</time>
      </trkpt>
      <trkpt lat="49.85066" lon="4.82754">
        <ele>380</ele>
        <time>2022-09-18T10:01:50.000Z</time>
      </trkpt>
      <trkpt lat="49.85064" lon="4.82757">
        <ele>380</ele>
        <time>2022-09-18T10:01:51.000Z</time>
      </trkpt>
      <trkpt lat="49.85062" lon="4.82761">
        <ele>380</ele>
        <time>2022-09-18T10:01:52.000Z</time>
      </trkpt>
      <trkpt lat="49.8506" lon="4.82766">
        <ele>380</ele>
        <time>2022-09-18T10:01:53.000Z</time>
      </trkpt>
      <trkpt lat="49.85057" lon="4.82771">
        <ele>380</ele>
        <time>2022-09-18T10:01:54.000Z</time>
      </trkpt>
      <trkpt lat="49.85054" lon="4.82776">
        <ele>380</ele>
        <time>2022-09-18T10:01:55.000Z</time>
      </trkpt>
      <trkpt lat="49.85051" lon="4.82781">
        <ele>380</ele>
        <time>2022-09-18T10:01:56.000Z</time>
      </trkpt>
      <trkpt lat="49.85049" lon="4.82785">
        <ele>380</ele>
        <time>2022-09-18T10:01:57.000Z</time>
      </trkpt>
      <trkpt lat="49.85046" lon="4.82788">
        <ele>381</ele>
        <time>2022-09-18T10:01:58.000Z</time>
      </trkpt>
      <trkpt lat="49.85043" lon="4.8279">
        <ele>381</ele>
        <time>2022-09-18T10:01:59.000Z</time>
      </trkpt>
      <trkpt lat="49.85041" lon="4.82791">
        <ele>381</ele>
        <time>2022-09-18T10:02:00.000Z</time>
      </trkpt>
      <trkpt lat="49.85039" lon="4.82793">
        <ele>381</ele>
        <time>2022-09-18T10:02:01.000Z</time>
      </trkpt>
      <trkpt lat="49.85037" lon="4.82794">
        <ele>381</ele>
        <time>2022-09-18T10:02:02.000Z</time>
      </trkpt>
      <trkpt lat="49.85035" lon="4.82796">
        <ele>381</ele>
        <time>2022-09-18T10:02:03.000Z</time>
      </trkpt>
      <trkpt lat="49.85032" lon="4.82799">
        <ele>381</ele>
        <time>2022-09-18T10:02:04.000Z</time>
      </trkpt>
      <trkpt lat="49.8503" lon="4.82801">
        <ele>381</ele>
        <time>2022-09-18T10:02:05.000Z</time>
      </trkpt>
      <trkpt lat="49.85028" lon="4.82803">
        <ele>381</ele>
        <time>2022-09-18T10:02:06.000Z</time>
      </trkpt>
      <trkpt lat="49.85026" lon="4.82804">
        <ele>381</ele>
        <time>2022-09-18T10:02:07.000Z</time>
      </trkpt>
      <trkpt lat="49.85023" lon="4.82806">
        <ele>381</ele>
        <time>2022-09-18T10:02:08.000Z</time>
      </trkpt>
      <trkpt lat="49.85021" lon="4.82808">
        <ele>381</ele>
        <time>2022-09-18T10:02:09.000Z</time>
      </trkpt>
      <trkpt lat="49.85018" lon="4.8281">
        <ele>382</ele>
        <time>2022-09-18T10:02:10.000Z</time>
      </trkpt>
      <trkpt lat="49.85016" lon="4.82813">
        <ele>381</ele>
        <time>2022-09-18T10:02:11.000Z</time>
      </trkpt>
      <trkpt lat="49.85013" lon="4.82816">
        <ele>381</ele>
        <time>2022-09-18T10:02:12.000Z</time>
      </trkpt>
      <trkpt lat="49.85011" lon="4.82818">
        <ele>381</ele>
        <time>2022-09-18T10:02:13.000Z</time>
      </trkpt>
      <trkpt lat="49.85009" lon="4.8282">
        <ele>381</ele>
        <time>2022-09-18T10:02:14.000Z</time>
      </trkpt>
      <trkpt lat="49.85007" lon="4.82822">
        <ele>381</ele>
        <time>2022-09-18T10:02:15.000Z</time>
      </trkpt>
      <trkpt lat="49.85005" lon="4.82824">
        <ele>381</ele>
        <time>2022-09-18T10:02:16.000Z</time>
      </trkpt>
      <trkpt lat="49.85004" lon="4.82825">
        <ele>381</ele>
        <time>2022-09-18T10:02:17.000Z</time>
      </trkpt>
      <trkpt lat="49.85002" lon="4.82826">
        <ele>381</ele>
        <time>2022-09-18T10:02:18.000Z</time>
      </trkpt>
      <trkpt lat="49.85001" lon="4.82826">
        <ele>381</ele>
        <time>2022-09-18T10:02:19.000Z</time>
      </trkpt>
      <trkpt lat="49.84998" lon="4.82827">
        <ele>381</ele>
        <time>2022-09-18T10:02:20.000Z</time>
      </trkpt>
      <trkpt lat="49.84996" lon="4.82828">
        <ele>381</ele>
        <time>2022-09-18T10:02:21.000Z</time>
      </trkpt>
      <trkpt lat="49.84995" lon="4.8283">
        <ele>380</ele>
        <time>2022-09-18T10:02:22.000Z</time>
      </trkpt>
      <trkpt lat="49.84994" lon="4.82832">
        <ele>380</ele>
        <time>2022-09-18T10:02:23.000Z</time>
      </trkpt>
      <trkpt lat="49.84992" lon="4.82834">
        <ele>380</ele>
        <time>2022-09-18T10:02:24.000Z</time>
      </trkpt>
      <trkpt lat="49.8499" lon="4.82837">
        <ele>380</ele>
        <time>2022-09-18T10:02:25.000Z</time>
      </trkpt>
      <trkpt lat="49.84988" lon="4.8284">
        <ele>380</ele>
        <time>2022-09-18T10:02:26.000Z</time>
      </trkpt>
      <trkpt lat="49.84986" lon="4.82843">
        <ele>380</ele>
        <time>2022-09-18T10:02:27.000Z</time>
      </trkpt>
      <trkpt lat="49.84985" lon="4.82847">
        <ele>380</ele>
        <time>2022-09-18T10:02:28.000Z</time>
      </trkpt>
      <trkpt lat="49.84983" lon="4.82849">
        <ele>380</ele>
        <time>2022-09-18T10:02:29.000Z</time>
      </trkpt>
      <trkpt lat="49.84982" lon="4.82851">
        <ele>380</ele>
        <time>2022-09-18T10:02:30.000Z</time>
      </trkpt>
      <trkpt lat="49.8498" lon="4.82852">
        <ele>380</ele>
        <time>2022-09-18T10:02:31.000Z</time>
      </trkpt>
      <trkpt lat="49.84979" lon="4.82853">
        <ele>380</ele>
        <time>2022-09-18T10:02:32.000Z</time>
      </trkpt>
      <trkpt lat="49.84977" lon="4.82853">
        <ele>380</ele>
        <time>2022-09-18T10:02:33.000Z</time>
      </trkpt>
      <trkpt lat="49.84975" lon="4.82854">
        <ele>380</ele>
        <time>2022-09-18T10:02:34.000Z</time>
      </trkpt>
      <trkpt lat="49.84973" lon="4.82856">
        <ele>380</ele>
        <time>2022-09-18T10:02:35.000Z</time>
      </trkpt>
      <trkpt lat="49.84971" lon="4.82856">
        <ele>380</ele>
        <time>2022-09-18T10:02:36.000Z</time>
      </trkpt>
      <trkpt lat="49.8497" lon="4.82857">
        <ele>380</ele>
        <time>2022-09-18T10:02:37.000Z</time>
      </trkpt>
      <trkpt lat="49.84968" lon="4.82859">
        <ele>380</ele>
        <time>2022-09-18T10:02:38.000Z</time>
      </trkpt>
      <trkpt lat="49.84967" lon="4.82861">
        <ele>380</ele>
        <time>2022-09-18T10:02:39.000Z</time>
      </trkpt>
      <trkpt lat="49.84965" lon="4.82863">
        <ele>380</ele>
        <time>2022-09-18T10:02:40.000Z</time>
      </trkpt>
      <trkpt lat="49.84964" lon="4.82865">
        <ele>380</ele>
        <time>2022-09-18T10:02:41.000Z</time>
      </trkpt>
      <trkpt lat="49.84963" lon="4.82868">
        <ele>380</ele>
        <time>2022-09-18T10:02:42.000Z</time>
      </trkpt>
      <trkpt lat="49.84962" lon="4.82869">
        <ele>380</ele>
        <time>2022-09-18T10:02:43.000Z</time>
      </trkpt>
      <trkpt lat="49.8496" lon="4.82871">
        <ele>379</ele>
        <time>2022-09-18T10:02:44.000Z</time>
      </trkpt>
      <trkpt lat="49.8496" lon="4.82873">
        <ele>379</ele>
        <time>2022-09-18T10:02:45.000Z</time>
      </trkpt>
      <trkpt lat="49.84958" lon="4.82875">
        <ele>379</ele>
        <time>2022-09-18T10:02:46.000Z</time>
      </trkpt>
      <trkpt lat="49.84957" lon="4.82876">
        <ele>379</ele>
        <time>2022-09-18T10:02:47.000Z</time>
      </trkpt>
      <trkpt lat="49.84957" lon="4.82878">
        <ele>379</ele>
        <time>2022-09-18T10:02:48.000Z</time>
      </trkpt>
      <trkpt lat="49.84956" lon="4.82879">
        <ele>378</ele>
        <time>2022-09-18T10:02:49.000Z</time>
      </trkpt>
      <trkpt lat="49.84956" lon="4.82882">
        <ele>378</ele>
        <time>2022-09-18T10:02:50.000Z</time>
      </trkpt>
      <trkpt lat="49.84956" lon="4.82885">
        <ele>378</ele>
        <time>2022-09-18T10:02:51.000Z</time>
      </trkpt>
      <trkpt lat="49.84955" lon="4.82889">
        <ele>378</ele>
        <time>2022-09-18T10:02:52.000Z</time>
      </trkpt>
      <trkpt lat="49.84955" lon="4.82892">
        <ele>378</ele>
        <time>2022-09-18T10:02:53.000Z</time>
      </trkpt>
      <trkpt lat="49.84955" lon="4.82895">
        <ele>377</ele>
        <time>2022-09-18T10:02:54.000Z</time>
      </trkpt>
      <trkpt lat="49.84955" lon="4.82898">
        <ele>377</ele>
        <time>2022-09-18T10:02:55.000Z</time>
      </trkpt>
      <trkpt lat="49.84956" lon="4.829">
        <ele>377</ele>
        <time>2022-09-18T10:02:56.000Z</time>
      </trkpt>
      <trkpt lat="49.84956" lon="4.82903">
        <ele>377</ele>
        <time>2022-09-18T10:02:57.000Z</time>
      </trkpt>
      <trkpt lat="49.84955" lon="4.82908">
        <ele>377</ele>
        <time>2022-09-18T10:02:58.000Z</time>
      </trkpt>
      <trkpt lat="49.84954" lon="4.82912">
        <ele>377</ele>
        <time>2022-09-18T10:02:59.000Z</time>
      </trkpt>
      <trkpt lat="49.84952" lon="4.82917">
        <ele>377</ele>
        <time>2022-09-18T10:03:00.000Z</time>
      </trkpt>
      <trkpt lat="49.84951" lon="4.82922">
        <ele>377</ele>
        <time>2022-09-18T10:03:01.000Z</time>
      </trkpt>
      <trkpt lat="49.8495" lon="4.82929">
        <ele>377</ele>
        <time>2022-09-18T10:03:02.000Z</time>
      </trkpt>
      <trkpt lat="49.84948" lon="4.82935">
        <ele>377</ele>
        <time>2022-09-18T10:03:03.000Z</time>
      </trkpt>
      <trkpt lat="49.84946" lon="4.82941">
        <ele>377</ele>
        <time>2022-09-18T10:03:04.000Z</time>
      </trkpt>
      <trkpt lat="49.84943" lon="4.82947">
        <ele>377</ele>
        <time>2022-09-18T10:03:05.000Z</time>
      </trkpt>
      <trkpt lat="49.8494" lon="4.82953">
        <ele>377</ele>
        <time>2022-09-18T10:03:06.000Z</time>
      </trkpt>
      <trkpt lat="49.84938" lon="4.8296">
        <ele>377</ele>
        <time>2022-09-18T10:03:07.000Z</time>
      </trkpt>
      <trkpt lat="49.84936" lon="4.82966">
        <ele>377</ele>
        <time>2022-09-18T10:03:08.000Z</time>
      </trkpt>
      <trkpt lat="49.84934" lon="4.82973">
        <ele>377</ele>
        <time>2022-09-18T10:03:09.000Z</time>
      </trkpt>
      <trkpt lat="49.84931" lon="4.82981">
        <ele>377</ele>
        <time>2022-09-18T10:03:10.000Z</time>
      </trkpt>
      <trkpt lat="49.84929" lon="4.82988">
        <ele>377</ele>
        <time>2022-09-18T10:03:11.000Z</time>
      </trkpt>
      <trkpt lat="49.84927" lon="4.82994">
        <ele>377</ele>
        <time>2022-09-18T10:03:12.000Z</time>
      </trkpt>
      <trkpt lat="49.84925" lon="4.83">
        <ele>376</ele>
        <time>2022-09-18T10:03:13.000Z</time>
      </trkpt>
      <trkpt lat="49.84922" lon="4.83006">
        <ele>376</ele>
        <time>2022-09-18T10:03:14.000Z</time>
      </trkpt>
      <trkpt lat="49.84919" lon="4.83012">
        <ele>376</ele>
        <time>2022-09-18T10:03:15.000Z</time>
      </trkpt>
      <trkpt lat="49.84916" lon="4.83018">
        <ele>376</ele>
        <time>2022-09-18T10:03:16.000Z</time>
      </trkpt>
      <trkpt lat="49.84914" lon="4.83024">
        <ele>375</ele>
        <time>2022-09-18T10:03:17.000Z</time>
      </trkpt>
      <trkpt lat="49.84911" lon="4.83029">
        <ele>375</ele>
        <time>2022-09-18T10:03:18.000Z</time>
      </trkpt>
      <trkpt lat="49.84908" lon="4.83033">
        <ele>375</ele>
        <time>2022-09-18T10:03:19.000Z</time>
      </trkpt>
      <trkpt lat="49.84905" lon="4.83038">
        <ele>374</ele>
        <time>2022-09-18T10:03:20.000Z</time>
      </trkpt>
      <trkpt lat="49.84902" lon="4.83042">
        <ele>374</ele>
        <time>2022-09-18T10:03:21.000Z</time>
      </trkpt>
      <trkpt lat="49.84899" lon="4.83047">
        <ele>374</ele>
        <time>2022-09-18T10:03:22.000Z</time>
      </trkpt>
      <trkpt lat="49.84895" lon="4.83052">
        <ele>373</ele>
        <time>2022-09-18T10:03:23.000Z</time>
      </trkpt>
      <trkpt lat="49.84891" lon="4.83056">
        <ele>373</ele>
        <time>2022-09-18T10:03:24.000Z</time>
      </trkpt>
      <trkpt lat="49.84887" lon="4.83061">
        <ele>373</ele>
        <time>2022-09-18T10:03:25.000Z</time>
      </trkpt>
      <trkpt lat="49.84884" lon="4.83066">
        <ele>372</ele>
        <time>2022-09-18T10:03:26.000Z</time>
      </trkpt>
      <trkpt lat="49.8488" lon="4.83071">
        <ele>372</ele>
        <time>2022-09-18T10:03:27.000Z</time>
      </trkpt>
      <trkpt lat="49.84878" lon="4.83075">
        <ele>372</ele>
        <time>2022-09-18T10:03:28.000Z</time>
      </trkpt>
      <trkpt lat="49.84875" lon="4.8308">
        <ele>371</ele>
        <time>2022-09-18T10:03:29.000Z</time>
      </trkpt>
      <trkpt lat="49.84873" lon="4.83085">
        <ele>371</ele>
        <time>2022-09-18T10:03:30.000Z</time>
      </trkpt>
      <trkpt lat="49.8487" lon="4.8309">
        <ele>371</ele>
        <time>2022-09-18T10:03:31.000Z</time>
      </trkpt>
      <trkpt lat="49.84867" lon="4.83095">
        <ele>370</ele>
        <time>2022-09-18T10:03:32.000Z</time>
      </trkpt>
      <trkpt lat="49.84863" lon="4.831">
        <ele>370</ele>
        <time>2022-09-18T10:03:33.000Z</time>
      </trkpt>
      <trkpt lat="49.8486" lon="4.83104">
        <ele>370</ele>
        <time>2022-09-18T10:03:34.000Z</time>
      </trkpt>
      <trkpt lat="49.84857" lon="4.83108">
        <ele>370</ele>
        <time>2022-09-18T10:03:35.000Z</time>
      </trkpt>
      <trkpt lat="49.84854" lon="4.83112">
        <ele>370</ele>
        <time>2022-09-18T10:03:36.000Z</time>
      </trkpt>
      <trkpt lat="49.8485" lon="4.83116">
        <ele>369</ele>
        <time>2022-09-18T10:03:37.000Z</time>
      </trkpt>
      <trkpt lat="49.84846" lon="4.83121">
        <ele>369</ele>
        <time>2022-09-18T10:03:38.000Z</time>
      </trkpt>
      <trkpt lat="49.84843" lon="4.83125">
        <ele>369</ele>
        <time>2022-09-18T10:03:39.000Z</time>
      </trkpt>
      <trkpt lat="49.8484" lon="4.83129">
        <ele>368</ele>
        <time>2022-09-18T10:03:40.000Z</time>
      </trkpt>
      <trkpt lat="49.84836" lon="4.83134">
        <ele>368</ele>
        <time>2022-09-18T10:03:41.000Z</time>
      </trkpt>
      <trkpt lat="49.84833" lon="4.83139">
        <ele>368</ele>
        <time>2022-09-18T10:03:42.000Z</time>
      </trkpt>
      <trkpt lat="49.8483" lon="4.83143">
        <ele>368</ele>
        <time>2022-09-18T10:03:43.000Z</time>
      </trkpt>
      <trkpt lat="49.84827" lon="4.83147">
        <ele>368</ele>
        <time>2022-09-18T10:03:44.000Z</time>
      </trkpt>
      <trkpt lat="49.84824" lon="4.8315">
        <ele>367</ele>
        <time>2022-09-18T10:03:45.000Z</time>
      </trkpt>
      <trkpt lat="49.84822" lon="4.83155">
        <ele>367</ele>
        <time>2022-09-18T10:03:46.000Z</time>
      </trkpt>
      <trkpt lat="49.84819" lon="4.83159">
        <ele>367</ele>
        <time>2022-09-18T10:03:47.000Z</time>
      </trkpt>
      <trkpt lat="49.84816" lon="4.83163">
        <ele>366</ele>
        <time>2022-09-18T10:03:48.000Z</time>
      </trkpt>
      <trkpt lat="49.84813" lon="4.83167">
        <ele>366</ele>
        <time>2022-09-18T10:03:49.000Z</time>
      </trkpt>
      <trkpt lat="49.8481" lon="4.83172">
        <ele>366</ele>
        <time>2022-09-18T10:03:50.000Z</time>
      </trkpt>
      <trkpt lat="49.84807" lon="4.83176">
        <ele>365</ele>
        <time>2022-09-18T10:03:51.000Z</time>
      </trkpt>
      <trkpt lat="49.84805" lon="4.83181">
        <ele>365</ele>
        <time>2022-09-18T10:03:52.000Z</time>
      </trkpt>
      <trkpt lat="49.84802" lon="4.83185">
        <ele>365</ele>
        <time>2022-09-18T10:03:53.000Z</time>
      </trkpt>
      <trkpt lat="49.84798" lon="4.8319">
        <ele>365</ele>
        <time>2022-09-18T10:03:54.000Z</time>
      </trkpt>
      <trkpt lat="49.84795" lon="4.83195">
        <ele>365</ele>
        <time>2022-09-18T10:03:55.000Z</time>
      </trkpt>
      <trkpt lat="49.84792" lon="4.832">
        <ele>364</ele>
        <time>2022-09-18T10:03:56.000Z</time>
      </trkpt>
      <trkpt lat="49.84789" lon="4.83205">
        <ele>364</ele>
        <time>2022-09-18T10:03:57.000Z</time>
      </trkpt>
      <trkpt lat="49.84787" lon="4.8321">
        <ele>364</ele>
        <time>2022-09-18T10:03:58.000Z</time>
      </trkpt>
      <trkpt lat="49.84785" lon="4.83215">
        <ele>364</ele>
        <time>2022-09-18T10:03:59.000Z</time>
      </trkpt>
      <trkpt lat="49.84783" lon="4.8322">
        <ele>364</ele>
        <time>2022-09-18T10:04:00.000Z</time>
      </trkpt>
      <trkpt lat="49.84782" lon="4.83225">
        <ele>364</ele>
        <time>2022-09-18T10:04:01.000Z</time>
      </trkpt>
      <trkpt lat="49.84781" lon="4.83229">
        <ele>364</ele>
        <time>2022-09-18T10:04:02.000Z</time>
      </trkpt>
      <trkpt lat="49.8478" lon="4.83234">
        <ele>364</ele>
        <time>2022-09-18T10:04:03.000Z</time>
      </trkpt>
      <trkpt lat="49.84778" lon="4.8324">
        <ele>364</ele>
        <time>2022-09-18T10:04:04.000Z</time>
      </trkpt>
      <trkpt lat="49.84777" lon="4.83245">
        <ele>364</ele>
        <time>2022-09-18T10:04:05.000Z</time>
      </trkpt>
      <trkpt lat="49.84776" lon="4.83251">
        <ele>364</ele>
        <time>2022-09-18T10:04:06.000Z</time>
      </trkpt>
      <trkpt lat="49.84776" lon="4.83256">
        <ele>364</ele>
        <time>2022-09-18T10:04:07.000Z</time>
      </trkpt>
      <trkpt lat="49.84776" lon="4.83261">
        <ele>364</ele>
        <time>2022-09-18T10:04:08.000Z</time>
      </trkpt>
      <trkpt lat="49.84777" lon="4.83267">
        <ele>364</ele>
        <time>2022-09-18T10:04:09.000Z</time>
      </trkpt>
      <trkpt lat="49.84778" lon="4.83273">
        <ele>364</ele>
        <time>2022-09-18T10:04:10.000Z</time>
      </trkpt>
      <trkpt lat="49.84779" lon="4.8328">
        <ele>364</ele>
        <time>2022-09-18T10:04:11.000Z</time>
      </trkpt>
      <trkpt lat="49.8478" lon="4.83289">
        <ele>364</ele>
        <time>2022-09-18T10:04:12.000Z</time>
      </trkpt>
      <trkpt lat="49.84781" lon="4.83299">
        <ele>364</ele>
        <time>2022-09-18T10:04:13.000Z</time>
      </trkpt>
      <trkpt lat="49.84782" lon="4.83309">
        <ele>364</ele>
        <time>2022-09-18T10:04:14.000Z</time>
      </trkpt>
      <trkpt lat="49.84783" lon="4.83319">
        <ele>364</ele>
        <time>2022-09-18T10:04:15.000Z</time>
      </trkpt>
      <trkpt lat="49.84783" lon="4.83329">
        <ele>364</ele>
        <time>2022-09-18T10:04:16.000Z</time>
      </trkpt>
      <trkpt lat="49.84784" lon="4.8334">
        <ele>364</ele>
        <time>2022-09-18T10:04:17.000Z</time>
      </trkpt>
      <trkpt lat="49.84784" lon="4.8335">
        <ele>363</ele>
        <time>2022-09-18T10:04:18.000Z</time>
      </trkpt>
      <trkpt lat="49.84783" lon="4.83361">
        <ele>363</ele>
        <time>2022-09-18T10:04:19.000Z</time>
      </trkpt>
      <trkpt lat="49.84783" lon="4.83371">
        <ele>363</ele>
        <time>2022-09-18T10:04:20.000Z</time>
      </trkpt>
      <trkpt lat="49.84783" lon="4.83381">
        <ele>363</ele>
        <time>2022-09-18T10:04:21.000Z</time>
      </trkpt>
      <trkpt lat="49.84783" lon="4.83391">
        <ele>362</ele>
        <time>2022-09-18T10:04:22.000Z</time>
      </trkpt>
      <trkpt lat="49.84783" lon="4.834">
        <ele>362</ele>
        <time>2022-09-18T10:04:23.000Z</time>
      </trkpt>
      <trkpt lat="49.84782" lon="4.83411">
        <ele>362</ele>
        <time>2022-09-18T10:04:24.000Z</time>
      </trkpt>
      <trkpt lat="49.84781" lon="4.83423">
        <ele>361</ele>
        <time>2022-09-18T10:04:25.000Z</time>
      </trkpt>
      <trkpt lat="49.84781" lon="4.83434">
        <ele>361</ele>
        <time>2022-09-18T10:04:26.000Z</time>
      </trkpt>
      <trkpt lat="49.8478" lon="4.83446">
        <ele>361</ele>
        <time>2022-09-18T10:04:27.000Z</time>
      </trkpt>
      <trkpt lat="49.8478" lon="4.83456">
        <ele>360</ele>
        <time>2022-09-18T10:04:28.000Z</time>
      </trkpt>
      <trkpt lat="49.8478" lon="4.83464">
        <ele>360</ele>
        <time>2022-09-18T10:04:29.000Z</time>
      </trkpt>
      <trkpt lat="49.8478" lon="4.83472">
        <ele>360</ele>
        <time>2022-09-18T10:04:30.000Z</time>
      </trkpt>
      <trkpt lat="49.8478" lon="4.8348">
        <ele>359</ele>
        <time>2022-09-18T10:04:31.000Z</time>
      </trkpt>
      <trkpt lat="49.8478" lon="4.83488">
        <ele>359</ele>
        <time>2022-09-18T10:04:32.000Z</time>
      </trkpt>
      <trkpt lat="49.8478" lon="4.83496">
        <ele>359</ele>
        <time>2022-09-18T10:04:33.000Z</time>
      </trkpt>
      <trkpt lat="49.8478" lon="4.83504">
        <ele>359</ele>
        <time>2022-09-18T10:04:34.000Z</time>
      </trkpt>
      <trkpt lat="49.8478" lon="4.83512">
        <ele>359</ele>
        <time>2022-09-18T10:04:35.000Z</time>
      </trkpt>
      <trkpt lat="49.8478" lon="4.83521">
        <ele>359</ele>
        <time>2022-09-18T10:04:36.000Z</time>
      </trkpt>
      <trkpt lat="49.8478" lon="4.8353">
        <ele>359</ele>
        <time>2022-09-18T10:04:37.000Z</time>
      </trkpt>
      <trkpt lat="49.8478" lon="4.83539">
        <ele>358</ele>
        <time>2022-09-18T10:04:38.000Z</time>
      </trkpt>
      <trkpt lat="49.8478" lon="4.83547">
        <ele>358</ele>
        <time>2022-09-18T10:04:39.000Z</time>
      </trkpt>
      <trkpt lat="49.8478" lon="4.83555">
        <ele>358</ele>
        <time>2022-09-18T10:04:40.000Z</time>
      </trkpt>
      <trkpt lat="49.84779" lon="4.83563">
        <ele>358</ele>
        <time>2022-09-18T10:04:41.000Z</time>
      </trkpt>
      <trkpt lat="49.84779" lon="4.8357">
        <ele>358</ele>
        <time>2022-09-18T10:04:42.000Z</time>
      </trkpt>
      <trkpt lat="49.84779" lon="4.83578">
        <ele>358</ele>
        <time>2022-09-18T10:04:43.000Z</time>
      </trkpt>
      <trkpt lat="49.84779" lon="4.83585">
        <ele>358</ele>
        <time>2022-09-18T10:04:44.000Z</time>
      </trkpt>
      <trkpt lat="49.84778" lon="4.83591">
        <ele>358</ele>
        <time>2022-09-18T10:04:45.000Z</time>
      </trkpt>
      <trkpt lat="49.84778" lon="4.83597">
        <ele>357</ele>
        <time>2022-09-18T10:04:46.000Z</time>
      </trkpt>
      <trkpt lat="49.84778" lon="4.83605">
        <ele>357</ele>
        <time>2022-09-18T10:04:47.000Z</time>
      </trkpt>
      <trkpt lat="49.84778" lon="4.83613">
        <ele>357</ele>
        <time>2022-09-18T10:04:48.000Z</time>
      </trkpt>
      <trkpt lat="49.84778" lon="4.8362">
        <ele>357</ele>
        <time>2022-09-18T10:04:49.000Z</time>
      </trkpt>
      <trkpt lat="49.84778" lon="4.83627">
        <ele>357</ele>
        <time>2022-09-18T10:04:50.000Z</time>
      </trkpt>
      <trkpt lat="49.84778" lon="4.83634">
        <ele>357</ele>
        <time>2022-09-18T10:04:51.000Z</time>
      </trkpt>
      <trkpt lat="49.84778" lon="4.83642">
        <ele>357</ele>
        <time>2022-09-18T10:04:52.000Z</time>
      </trkpt>
      <trkpt lat="49.84778" lon="4.8365">
        <ele>357</ele>
        <time>2022-09-18T10:04:53.000Z</time>
      </trkpt>
      <trkpt lat="49.84778" lon="4.83658">
        <ele>357</ele>
        <time>2022-09-18T10:04:54.000Z</time>
      </trkpt>
      <trkpt lat="49.84778" lon="4.83666">
        <ele>357</ele>
        <time>2022-09-18T10:04:55.000Z</time>
      </trkpt>
      <trkpt lat="49.84778" lon="4.83675">
        <ele>356</ele>
        <time>2022-09-18T10:04:56.000Z</time>
      </trkpt>
      <trkpt lat="49.84778" lon="4.83683">
        <ele>356</ele>
        <time>2022-09-18T10:04:57.000Z</time>
      </trkpt>
      <trkpt lat="49.84778" lon="4.83691">
        <ele>356</ele>
        <time>2022-09-18T10:04:58.000Z</time>
      </trkpt>
      <trkpt lat="49.84779" lon="4.83698">
        <ele>356</ele>
        <time>2022-09-18T10:04:59.000Z</time>
      </trkpt>
      <trkpt lat="49.84779" lon="4.83706">
        <ele>356</ele>
        <time>2022-09-18T10:05:00.000Z</time>
      </trkpt>
      <trkpt lat="49.84779" lon="4.83714">
        <ele>356</ele>
        <time>2022-09-18T10:05:01.000Z</time>
      </trkpt>
      <trkpt lat="49.84778" lon="4.83721">
        <ele>356</ele>
        <time>2022-09-18T10:05:02.000Z</time>
      </trkpt>
      <trkpt lat="49.84778" lon="4.83729">
        <ele>356</ele>
        <time>2022-09-18T10:05:03.000Z</time>
      </trkpt>
      <trkpt lat="49.84779" lon="4.83737">
        <ele>356</ele>
        <time>2022-09-18T10:05:04.000Z</time>
      </trkpt>
      <trkpt lat="49.8478" lon="4.83744">
        <ele>356</ele>
        <time>2022-09-18T10:05:05.000Z</time>
      </trkpt>
      <trkpt lat="49.84781" lon="4.83753">
        <ele>355</ele>
        <time>2022-09-18T10:05:06.000Z</time>
      </trkpt>
      <trkpt lat="49.84781" lon="4.83761">
        <ele>355</ele>
        <time>2022-09-18T10:05:07.000Z</time>
      </trkpt>
      <trkpt lat="49.84781" lon="4.83769">
        <ele>355</ele>
        <time>2022-09-18T10:05:08.000Z</time>
      </trkpt>
      <trkpt lat="49.84781" lon="4.83777">
        <ele>355</ele>
        <time>2022-09-18T10:05:09.000Z</time>
      </trkpt>
      <trkpt lat="49.84781" lon="4.83784">
        <ele>355</ele>
        <time>2022-09-18T10:05:10.000Z</time>
      </trkpt>
      <trkpt lat="49.84782" lon="4.83791">
        <ele>355</ele>
        <time>2022-09-18T10:05:11.000Z</time>
      </trkpt>
      <trkpt lat="49.84782" lon="4.83799">
        <ele>355</ele>
        <time>2022-09-18T10:05:12.000Z</time>
      </trkpt>
      <trkpt lat="49.84782" lon="4.83806">
        <ele>355</ele>
        <time>2022-09-18T10:05:13.000Z</time>
      </trkpt>
      <trkpt lat="49.84782" lon="4.83812">
        <ele>355</ele>
        <time>2022-09-18T10:05:14.000Z</time>
      </trkpt>
      <trkpt lat="49.84782" lon="4.83818">
        <ele>355</ele>
        <time>2022-09-18T10:05:15.000Z</time>
      </trkpt>
      <trkpt lat="49.84781" lon="4.83823">
        <ele>355</ele>
        <time>2022-09-18T10:05:16.000Z</time>
      </trkpt>
      <trkpt lat="49.8478" lon="4.83829">
        <ele>355</ele>
        <time>2022-09-18T10:05:17.000Z</time>
      </trkpt>
      <trkpt lat="49.84778" lon="4.83834">
        <ele>355</ele>
        <time>2022-09-18T10:05:18.000Z</time>
      </trkpt>
      <trkpt lat="49.84776" lon="4.8384">
        <ele>355</ele>
        <time>2022-09-18T10:05:19.000Z</time>
      </trkpt>
      <trkpt lat="49.84774" lon="4.83847">
        <ele>355</ele>
        <time>2022-09-18T10:05:20.000Z</time>
      </trkpt>
      <trkpt lat="49.84772" lon="4.83853">
        <ele>355</ele>
        <time>2022-09-18T10:05:21.000Z</time>
      </trkpt>
      <trkpt lat="49.8477" lon="4.83859">
        <ele>355</ele>
        <time>2022-09-18T10:05:22.000Z</time>
      </trkpt>
      <trkpt lat="49.84768" lon="4.83865">
        <ele>355</ele>
        <time>2022-09-18T10:05:23.000Z</time>
      </trkpt>
      <trkpt lat="49.84766" lon="4.83872">
        <ele>355</ele>
        <time>2022-09-18T10:05:24.000Z</time>
      </trkpt>
      <trkpt lat="49.84763" lon="4.83878">
        <ele>355</ele>
        <time>2022-09-18T10:05:25.000Z</time>
      </trkpt>
      <trkpt lat="49.84761" lon="4.83885">
        <ele>355</ele>
        <time>2022-09-18T10:05:26.000Z</time>
      </trkpt>
      <trkpt lat="49.84758" lon="4.83891">
        <ele>355</ele>
        <time>2022-09-18T10:05:27.000Z</time>
      </trkpt>
      <trkpt lat="49.84756" lon="4.83896">
        <ele>354</ele>
        <time>2022-09-18T10:05:28.000Z</time>
      </trkpt>
      <trkpt lat="49.84753" lon="4.83901">
        <ele>354</ele>
        <time>2022-09-18T10:05:29.000Z</time>
      </trkpt>
      <trkpt lat="49.8475" lon="4.83906">
        <ele>354</ele>
        <time>2022-09-18T10:05:30.000Z</time>
      </trkpt>
      <trkpt lat="49.84747" lon="4.83911">
        <ele>354</ele>
        <time>2022-09-18T10:05:31.000Z</time>
      </trkpt>
      <trkpt lat="49.84745" lon="4.83916">
        <ele>354</ele>
        <time>2022-09-18T10:05:32.000Z</time>
      </trkpt>
      <trkpt lat="49.84742" lon="4.83921">
        <ele>354</ele>
        <time>2022-09-18T10:05:33.000Z</time>
      </trkpt>
      <trkpt lat="49.8474" lon="4.83926">
        <ele>354</ele>
        <time>2022-09-18T10:05:34.000Z</time>
      </trkpt>
      <trkpt lat="49.84737" lon="4.8393">
        <ele>354</ele>
        <time>2022-09-18T10:05:35.000Z</time>
      </trkpt>
      <trkpt lat="49.84734" lon="4.83934">
        <ele>355</ele>
        <time>2022-09-18T10:05:36.000Z</time>
      </trkpt>
      <trkpt lat="49.84731" lon="4.83938">
        <ele>355</ele>
        <time>2022-09-18T10:05:37.000Z</time>
      </trkpt>
      <trkpt lat="49.84728" lon="4.83943">
        <ele>355</ele>
        <time>2022-09-18T10:05:38.000Z</time>
      </trkpt>
      <trkpt lat="49.84725" lon="4.83948">
        <ele>355</ele>
        <time>2022-09-18T10:05:39.000Z</time>
      </trkpt>
      <trkpt lat="49.84722" lon="4.83952">
        <ele>355</ele>
        <time>2022-09-18T10:05:40.000Z</time>
      </trkpt>
      <trkpt lat="49.84719" lon="4.83956">
        <ele>355</ele>
        <time>2022-09-18T10:05:41.000Z</time>
      </trkpt>
      <trkpt lat="49.84716" lon="4.83959">
        <ele>355</ele>
        <time>2022-09-18T10:05:42.000Z</time>
      </trkpt>
      <trkpt lat="49.84712" lon="4.83963">
        <ele>355</ele>
        <time>2022-09-18T10:05:43.000Z</time>
      </trkpt>
      <trkpt lat="49.84708" lon="4.83966">
        <ele>355</ele>
        <time>2022-09-18T10:05:44.000Z</time>
      </trkpt>
      <trkpt lat="49.84704" lon="4.83969">
        <ele>355</ele>
        <time>2022-09-18T10:05:45.000Z</time>
      </trkpt>
      <trkpt lat="49.84699" lon="4.83973">
        <ele>355</ele>
        <time>2022-09-18T10:05:46.000Z</time>
      </trkpt>
      <trkpt lat="49.84694" lon="4.83975">
        <ele>355</ele>
        <time>2022-09-18T10:05:47.000Z</time>
      </trkpt>
      <trkpt lat="49.8469" lon="4.83978">
        <ele>356</ele>
        <time>2022-09-18T10:05:48.000Z</time>
      </trkpt>
      <trkpt lat="49.84685" lon="4.8398">
        <ele>356</ele>
        <time>2022-09-18T10:05:49.000Z</time>
      </trkpt>
      <trkpt lat="49.84681" lon="4.83981">
        <ele>356</ele>
        <time>2022-09-18T10:05:50.000Z</time>
      </trkpt>
      <trkpt lat="49.84677" lon="4.83982">
        <ele>357</ele>
        <time>2022-09-18T10:05:51.000Z</time>
      </trkpt>
      <trkpt lat="49.84673" lon="4.83984">
        <ele>357</ele>
        <time>2022-09-18T10:05:52.000Z</time>
      </trkpt>
      <trkpt lat="49.84669" lon="4.83986">
        <ele>357</ele>
        <time>2022-09-18T10:05:53.000Z</time>
      </trkpt>
      <trkpt lat="49.84665" lon="4.83987">
        <ele>358</ele>
        <time>2022-09-18T10:05:54.000Z</time>
      </trkpt>
      <trkpt lat="49.84661" lon="4.83988">
        <ele>358</ele>
        <time>2022-09-18T10:05:55.000Z</time>
      </trkpt>
      <trkpt lat="49.84657" lon="4.83989">
        <ele>358</ele>
        <time>2022-09-18T10:05:56.000Z</time>
      </trkpt>
      <trkpt lat="49.84654" lon="4.8399">
        <ele>359</ele>
        <time>2022-09-18T10:05:57.000Z</time>
      </trkpt>
      <trkpt lat="49.84651" lon="4.83991">
        <ele>359</ele>
        <time>2022-09-18T10:05:58.000Z</time>
      </trkpt>
      <trkpt lat="49.84647" lon="4.83992">
        <ele>359</ele>
        <time>2022-09-18T10:05:59.000Z</time>
      </trkpt>
      <trkpt lat="49.84644" lon="4.83992">
        <ele>359</ele>
        <time>2022-09-18T10:06:00.000Z</time>
      </trkpt>
      <trkpt lat="49.84641" lon="4.83993">
        <ele>360</ele>
        <time>2022-09-18T10:06:01.000Z</time>
      </trkpt>
      <trkpt lat="49.84639" lon="4.83994">
        <ele>360</ele>
        <time>2022-09-18T10:06:02.000Z</time>
      </trkpt>
      <trkpt lat="49.84636" lon="4.83995">
        <ele>360</ele>
        <time>2022-09-18T10:06:03.000Z</time>
      </trkpt>
      <trkpt lat="49.84633" lon="4.83996">
        <ele>361</ele>
        <time>2022-09-18T10:06:04.000Z</time>
      </trkpt>
      <trkpt lat="49.8463" lon="4.83998">
        <ele>361</ele>
        <time>2022-09-18T10:06:05.000Z</time>
      </trkpt>
      <trkpt lat="49.84628" lon="4.83999">
        <ele>361</ele>
        <time>2022-09-18T10:06:06.000Z</time>
      </trkpt>
      <trkpt lat="49.84626" lon="4.83999">
        <ele>362</ele>
        <time>2022-09-18T10:06:07.000Z</time>
      </trkpt>
      <trkpt lat="49.84623" lon="4.84">
        <ele>362</ele>
        <time>2022-09-18T10:06:08.000Z</time>
      </trkpt>
      <trkpt lat="49.84621" lon="4.84001">
        <ele>362</ele>
        <time>2022-09-18T10:06:09.000Z</time>
      </trkpt>
      <trkpt lat="49.84618" lon="4.84002">
        <ele>363</ele>
        <time>2022-09-18T10:06:10.000Z</time>
      </trkpt>
      <trkpt lat="49.84616" lon="4.84004">
        <ele>363</ele>
        <time>2022-09-18T10:06:11.000Z</time>
      </trkpt>
      <trkpt lat="49.84613" lon="4.84005">
        <ele>364</ele>
        <time>2022-09-18T10:06:12.000Z</time>
      </trkpt>
      <trkpt lat="49.8461" lon="4.84006">
        <ele>364</ele>
        <time>2022-09-18T10:06:13.000Z</time>
      </trkpt>
      <trkpt lat="49.84607" lon="4.84007">
        <ele>365</ele>
        <time>2022-09-18T10:06:14.000Z</time>
      </trkpt>
      <trkpt lat="49.84604" lon="4.84009">
        <ele>365</ele>
        <time>2022-09-18T10:06:15.000Z</time>
      </trkpt>
      <trkpt lat="49.84601" lon="4.84011">
        <ele>365</ele>
        <time>2022-09-18T10:06:16.000Z</time>
      </trkpt>
      <trkpt lat="49.84598" lon="4.84013">
        <ele>366</ele>
        <time>2022-09-18T10:06:17.000Z</time>
      </trkpt>
      <trkpt lat="49.84595" lon="4.84016">
        <ele>366</ele>
        <time>2022-09-18T10:06:18.000Z</time>
      </trkpt>
      <trkpt lat="49.84592" lon="4.84019">
        <ele>366</ele>
        <time>2022-09-18T10:06:19.000Z</time>
      </trkpt>
      <trkpt lat="49.84589" lon="4.84022">
        <ele>366</ele>
        <time>2022-09-18T10:06:20.000Z</time>
      </trkpt>
      <trkpt lat="49.84585" lon="4.84025">
        <ele>366</ele>
        <time>2022-09-18T10:06:21.000Z</time>
      </trkpt>
      <trkpt lat="49.84582" lon="4.84028">
        <ele>366</ele>
        <time>2022-09-18T10:06:22.000Z</time>
      </trkpt>
      <trkpt lat="49.84579" lon="4.84032">
        <ele>366</ele>
        <time>2022-09-18T10:06:23.000Z</time>
      </trkpt>
      <trkpt lat="49.84576" lon="4.84035">
        <ele>367</ele>
        <time>2022-09-18T10:06:24.000Z</time>
      </trkpt>
      <trkpt lat="49.84573" lon="4.84038">
        <ele>367</ele>
        <time>2022-09-18T10:06:25.000Z</time>
      </trkpt>
      <trkpt lat="49.8457" lon="4.84041">
        <ele>367</ele>
        <time>2022-09-18T10:06:26.000Z</time>
      </trkpt>
      <trkpt lat="49.84566" lon="4.84044">
        <ele>367</ele>
        <time>2022-09-18T10:06:27.000Z</time>
      </trkpt>
      <trkpt lat="49.84563" lon="4.84047">
        <ele>367</ele>
        <time>2022-09-18T10:06:28.000Z</time>
      </trkpt>
      <trkpt lat="49.8456" lon="4.84051">
        <ele>367</ele>
        <time>2022-09-18T10:06:29.000Z</time>
      </trkpt>
      <trkpt lat="49.84556" lon="4.84054">
        <ele>367</ele>
        <time>2022-09-18T10:06:30.000Z</time>
      </trkpt>
      <trkpt lat="49.84552" lon="4.84058">
        <ele>367</ele>
        <time>2022-09-18T10:06:31.000Z</time>
      </trkpt>
      <trkpt lat="49.84547" lon="4.84063">
        <ele>367</ele>
        <time>2022-09-18T10:06:32.000Z</time>
      </trkpt>
      <trkpt lat="49.84543" lon="4.84068">
        <ele>367</ele>
        <time>2022-09-18T10:06:33.000Z</time>
      </trkpt>
      <trkpt lat="49.8454" lon="4.84073">
        <ele>367</ele>
        <time>2022-09-18T10:06:34.000Z</time>
      </trkpt>
      <trkpt lat="49.84536" lon="4.84078">
        <ele>367</ele>
        <time>2022-09-18T10:06:35.000Z</time>
      </trkpt>
      <trkpt lat="49.84532" lon="4.84084">
        <ele>368</ele>
        <time>2022-09-18T10:06:36.000Z</time>
      </trkpt>
      <trkpt lat="49.84529" lon="4.8409">
        <ele>368</ele>
        <time>2022-09-18T10:06:37.000Z</time>
      </trkpt>
      <trkpt lat="49.84524" lon="4.84096">
        <ele>367</ele>
        <time>2022-09-18T10:06:38.000Z</time>
      </trkpt>
      <trkpt lat="49.8452" lon="4.84101">
        <ele>367</ele>
        <time>2022-09-18T10:06:39.000Z</time>
      </trkpt>
      <trkpt lat="49.84517" lon="4.84106">
        <ele>367</ele>
        <time>2022-09-18T10:06:40.000Z</time>
      </trkpt>
      <trkpt lat="49.84512" lon="4.8411">
        <ele>367</ele>
        <time>2022-09-18T10:06:41.000Z</time>
      </trkpt>
      <trkpt lat="49.84509" lon="4.84115">
        <ele>367</ele>
        <time>2022-09-18T10:06:42.000Z</time>
      </trkpt>
      <trkpt lat="49.84505" lon="4.8412">
        <ele>367</ele>
        <time>2022-09-18T10:06:43.000Z</time>
      </trkpt>
      <trkpt lat="49.84501" lon="4.84125">
        <ele>367</ele>
        <time>2022-09-18T10:06:44.000Z</time>
      </trkpt>
      <trkpt lat="49.84497" lon="4.8413">
        <ele>367</ele>
        <time>2022-09-18T10:06:45.000Z</time>
      </trkpt>
      <trkpt lat="49.84493" lon="4.84135">
        <ele>367</ele>
        <time>2022-09-18T10:06:46.000Z</time>
      </trkpt>
      <trkpt lat="49.84489" lon="4.8414">
        <ele>367</ele>
        <time>2022-09-18T10:06:47.000Z</time>
      </trkpt>
      <trkpt lat="49.84485" lon="4.84146">
        <ele>367</ele>
        <time>2022-09-18T10:06:48.000Z</time>
      </trkpt>
      <trkpt lat="49.8448" lon="4.84151">
        <ele>367</ele>
        <time>2022-09-18T10:06:49.000Z</time>
      </trkpt>
      <trkpt lat="49.84475" lon="4.84156">
        <ele>367</ele>
        <time>2022-09-18T10:06:50.000Z</time>
      </trkpt>
      <trkpt lat="49.84469" lon="4.84161">
        <ele>366</ele>
        <time>2022-09-18T10:06:51.000Z</time>
      </trkpt>
      <trkpt lat="49.84464" lon="4.84167">
        <ele>366</ele>
        <time>2022-09-18T10:06:52.000Z</time>
      </trkpt>
      <trkpt lat="49.84458" lon="4.84172">
        <ele>366</ele>
        <time>2022-09-18T10:06:53.000Z</time>
      </trkpt>
      <trkpt lat="49.84453" lon="4.84178">
        <ele>366</ele>
        <time>2022-09-18T10:06:54.000Z</time>
      </trkpt>
      <trkpt lat="49.84448" lon="4.84183">
        <ele>366</ele>
        <time>2022-09-18T10:06:55.000Z</time>
      </trkpt>
      <trkpt lat="49.84443" lon="4.84187">
        <ele>366</ele>
        <time>2022-09-18T10:06:56.000Z</time>
      </trkpt>
      <trkpt lat="49.84439" lon="4.84192">
        <ele>366</ele>
        <time>2022-09-18T10:06:57.000Z</time>
      </trkpt>
      <trkpt lat="49.84434" lon="4.84198">
        <ele>366</ele>
        <time>2022-09-18T10:06:58.000Z</time>
      </trkpt>
      <trkpt lat="49.84429" lon="4.84203">
        <ele>366</ele>
        <time>2022-09-18T10:06:59.000Z</time>
      </trkpt>
      <trkpt lat="49.84424" lon="4.84208">
        <ele>365</ele>
        <time>2022-09-18T10:07:00.000Z</time>
      </trkpt>
      <trkpt lat="49.84419" lon="4.84212">
        <ele>365</ele>
        <time>2022-09-18T10:07:01.000Z</time>
      </trkpt>
      <trkpt lat="49.84413" lon="4.84215">
        <ele>365</ele>
        <time>2022-09-18T10:07:02.000Z</time>
      </trkpt>
      <trkpt lat="49.84407" lon="4.84219">
        <ele>365</ele>
        <time>2022-09-18T10:07:03.000Z</time>
      </trkpt>
      <trkpt lat="49.84401" lon="4.84222">
        <ele>365</ele>
        <time>2022-09-18T10:07:04.000Z</time>
      </trkpt>
      <trkpt lat="49.84396" lon="4.84226">
        <ele>365</ele>
        <time>2022-09-18T10:07:05.000Z</time>
      </trkpt>
      <trkpt lat="49.84391" lon="4.8423">
        <ele>365</ele>
        <time>2022-09-18T10:07:06.000Z</time>
      </trkpt>
      <trkpt lat="49.84386" lon="4.84233">
        <ele>365</ele>
        <time>2022-09-18T10:07:07.000Z</time>
      </trkpt>
      <trkpt lat="49.84382" lon="4.84235">
        <ele>365</ele>
        <time>2022-09-18T10:07:08.000Z</time>
      </trkpt>
      <trkpt lat="49.84376" lon="4.84236">
        <ele>364</ele>
        <time>2022-09-18T10:07:09.000Z</time>
      </trkpt>
      <trkpt lat="49.84371" lon="4.84238">
        <ele>364</ele>
        <time>2022-09-18T10:07:10.000Z</time>
      </trkpt>
      <trkpt lat="49.84366" lon="4.8424">
        <ele>364</ele>
        <time>2022-09-18T10:07:11.000Z</time>
      </trkpt>
      <trkpt lat="49.8436" lon="4.84241">
        <ele>364</ele>
        <time>2022-09-18T10:07:12.000Z</time>
      </trkpt>
      <trkpt lat="49.84354" lon="4.84242">
        <ele>364</ele>
        <time>2022-09-18T10:07:13.000Z</time>
      </trkpt>
      <trkpt lat="49.84349" lon="4.84243">
        <ele>364</ele>
        <time>2022-09-18T10:07:14.000Z</time>
      </trkpt>
      <trkpt lat="49.84344" lon="4.84243">
        <ele>364</ele>
        <time>2022-09-18T10:07:15.000Z</time>
      </trkpt>
      <trkpt lat="49.84338" lon="4.84244">
        <ele>364</ele>
        <time>2022-09-18T10:07:16.000Z</time>
      </trkpt>
      <trkpt lat="49.84333" lon="4.84246">
        <ele>364</ele>
        <time>2022-09-18T10:07:17.000Z</time>
      </trkpt>
      <trkpt lat="49.84327" lon="4.84248">
        <ele>364</ele>
        <time>2022-09-18T10:07:18.000Z</time>
      </trkpt>
      <trkpt lat="49.84322" lon="4.8425">
        <ele>363</ele>
        <time>2022-09-18T10:07:19.000Z</time>
      </trkpt>
      <trkpt lat="49.84318" lon="4.84252">
        <ele>363</ele>
        <time>2022-09-18T10:07:20.000Z</time>
      </trkpt>
      <trkpt lat="49.84313" lon="4.84253">
        <ele>363</ele>
        <time>2022-09-18T10:07:21.000Z</time>
      </trkpt>
      <trkpt lat="49.84308" lon="4.84256">
        <ele>363</ele>
        <time>2022-09-18T10:07:22.000Z</time>
      </trkpt>
      <trkpt lat="49.84304" lon="4.84259">
        <ele>363</ele>
        <time>2022-09-18T10:07:23.000Z</time>
      </trkpt>
      <trkpt lat="49.843" lon="4.84263">
        <ele>363</ele>
        <time>2022-09-18T10:07:24.000Z</time>
      </trkpt>
      <trkpt lat="49.84296" lon="4.84266">
        <ele>363</ele>
        <time>2022-09-18T10:07:25.000Z</time>
      </trkpt>
      <trkpt lat="49.84292" lon="4.84268">
        <ele>363</ele>
        <time>2022-09-18T10:07:26.000Z</time>
      </trkpt>
      <trkpt lat="49.84289" lon="4.84271">
        <ele>363</ele>
        <time>2022-09-18T10:07:27.000Z</time>
      </trkpt>
      <trkpt lat="49.84284" lon="4.84273">
        <ele>363</ele>
        <time>2022-09-18T10:07:28.000Z</time>
      </trkpt>
      <trkpt lat="49.8428" lon="4.84274">
        <ele>363</ele>
        <time>2022-09-18T10:07:29.000Z</time>
      </trkpt>
      <trkpt lat="49.84277" lon="4.84276">
        <ele>363</ele>
        <time>2022-09-18T10:07:30.000Z</time>
      </trkpt>
      <trkpt lat="49.84273" lon="4.84278">
        <ele>363</ele>
        <time>2022-09-18T10:07:31.000Z</time>
      </trkpt>
      <trkpt lat="49.8427" lon="4.8428">
        <ele>363</ele>
        <time>2022-09-18T10:07:32.000Z</time>
      </trkpt>
      <trkpt lat="49.84267" lon="4.84281">
        <ele>363</ele>
        <time>2022-09-18T10:07:33.000Z</time>
      </trkpt>
      <trkpt lat="49.84264" lon="4.84281">
        <ele>362</ele>
        <time>2022-09-18T10:07:34.000Z</time>
      </trkpt>
      <trkpt lat="49.84261" lon="4.84281">
        <ele>362</ele>
        <time>2022-09-18T10:07:35.000Z</time>
      </trkpt>
      <trkpt lat="49.84258" lon="4.84282">
        <ele>362</ele>
        <time>2022-09-18T10:07:36.000Z</time>
      </trkpt>
      <trkpt lat="49.84256" lon="4.84284">
        <ele>362</ele>
        <time>2022-09-18T10:07:37.000Z</time>
      </trkpt>
      <trkpt lat="49.84254" lon="4.84287">
        <ele>362</ele>
        <time>2022-09-18T10:07:38.000Z</time>
      </trkpt>
      <trkpt lat="49.84253" lon="4.84292">
        <ele>362</ele>
        <time>2022-09-18T10:07:39.000Z</time>
      </trkpt>
      <trkpt lat="49.84251" lon="4.84297">
        <ele>361</ele>
        <time>2022-09-18T10:07:40.000Z</time>
      </trkpt>
      <trkpt lat="49.84248" lon="4.84302">
        <ele>361</ele>
        <time>2022-09-18T10:07:41.000Z</time>
      </trkpt>
      <trkpt lat="49.84246" lon="4.84306">
        <ele>361</ele>
        <time>2022-09-18T10:07:42.000Z</time>
      </trkpt>
      <trkpt lat="49.84242" lon="4.84309">
        <ele>361</ele>
        <time>2022-09-18T10:07:43.000Z</time>
      </trkpt>
      <trkpt lat="49.84238" lon="4.8431">
        <ele>360</ele>
        <time>2022-09-18T10:07:44.000Z</time>
      </trkpt>
      <trkpt lat="49.84233" lon="4.8431">
        <ele>360</ele>
        <time>2022-09-18T10:07:45.000Z</time>
      </trkpt>
      <trkpt lat="49.84229" lon="4.84311">
        <ele>360</ele>
        <time>2022-09-18T10:07:46.000Z</time>
      </trkpt>
      <trkpt lat="49.84223" lon="4.84311">
        <ele>360</ele>
        <time>2022-09-18T10:07:47.000Z</time>
      </trkpt>
      <trkpt lat="49.84218" lon="4.84311">
        <ele>359</ele>
        <time>2022-09-18T10:07:48.000Z</time>
      </trkpt>
      <trkpt lat="49.84213" lon="4.84311">
        <ele>359</ele>
        <time>2022-09-18T10:07:49.000Z</time>
      </trkpt>
      <trkpt lat="49.84208" lon="4.84311">
        <ele>359</ele>
        <time>2022-09-18T10:07:50.000Z</time>
      </trkpt>
      <trkpt lat="49.84203" lon="4.8431">
        <ele>359</ele>
        <time>2022-09-18T10:07:51.000Z</time>
      </trkpt>
      <trkpt lat="49.84199" lon="4.84309">
        <ele>359</ele>
        <time>2022-09-18T10:07:52.000Z</time>
      </trkpt>
      <trkpt lat="49.84194" lon="4.8431">
        <ele>359</ele>
        <time>2022-09-18T10:07:53.000Z</time>
      </trkpt>
      <trkpt lat="49.84189" lon="4.8431">
        <ele>358</ele>
        <time>2022-09-18T10:07:54.000Z</time>
      </trkpt>
      <trkpt lat="49.84184" lon="4.8431">
        <ele>358</ele>
        <time>2022-09-18T10:07:55.000Z</time>
      </trkpt>
      <trkpt lat="49.84179" lon="4.84309">
        <ele>358</ele>
        <time>2022-09-18T10:07:56.000Z</time>
      </trkpt>
      <trkpt lat="49.84174" lon="4.84308">
        <ele>358</ele>
        <time>2022-09-18T10:07:57.000Z</time>
      </trkpt>
      <trkpt lat="49.84168" lon="4.84308">
        <ele>358</ele>
        <time>2022-09-18T10:07:58.000Z</time>
      </trkpt>
      <trkpt lat="49.84163" lon="4.84307">
        <ele>358</ele>
        <time>2022-09-18T10:07:59.000Z</time>
      </trkpt>
      <trkpt lat="49.84158" lon="4.84306">
        <ele>358</ele>
        <time>2022-09-18T10:08:00.000Z</time>
      </trkpt>
      <trkpt lat="49.84152" lon="4.84306">
        <ele>358</ele>
        <time>2022-09-18T10:08:01.000Z</time>
      </trkpt>
      <trkpt lat="49.84147" lon="4.84306">
        <ele>358</ele>
        <time>2022-09-18T10:08:02.000Z</time>
      </trkpt>
      <trkpt lat="49.84142" lon="4.84305">
        <ele>358</ele>
        <time>2022-09-18T10:08:03.000Z</time>
      </trkpt>
      <trkpt lat="49.84138" lon="4.84304">
        <ele>358</ele>
        <time>2022-09-18T10:08:04.000Z</time>
      </trkpt>
      <trkpt lat="49.84132" lon="4.84304">
        <ele>357</ele>
        <time>2022-09-18T10:08:05.000Z</time>
      </trkpt>
      <trkpt lat="49.84127" lon="4.84304">
        <ele>357</ele>
        <time>2022-09-18T10:08:06.000Z</time>
      </trkpt>
      <trkpt lat="49.84122" lon="4.84303">
        <ele>357</ele>
        <time>2022-09-18T10:08:07.000Z</time>
      </trkpt>
      <trkpt lat="49.84117" lon="4.84301">
        <ele>357</ele>
        <time>2022-09-18T10:08:08.000Z</time>
      </trkpt>
      <trkpt lat="49.84112" lon="4.843">
        <ele>357</ele>
        <time>2022-09-18T10:08:09.000Z</time>
      </trkpt>
      <trkpt lat="49.84106" lon="4.84299">
        <ele>357</ele>
        <time>2022-09-18T10:08:10.000Z</time>
      </trkpt>
      <trkpt lat="49.84101" lon="4.84298">
        <ele>357</ele>
        <time>2022-09-18T10:08:11.000Z</time>
      </trkpt>
      <trkpt lat="49.84096" lon="4.84297">
        <ele>357</ele>
        <time>2022-09-18T10:08:12.000Z</time>
      </trkpt>
      <trkpt lat="49.84091" lon="4.84296">
        <ele>358</ele>
        <time>2022-09-18T10:08:13.000Z</time>
      </trkpt>
      <trkpt lat="49.84085" lon="4.84295">
        <ele>357</ele>
        <time>2022-09-18T10:08:14.000Z</time>
      </trkpt>
      <trkpt lat="49.8408" lon="4.84294">
        <ele>357</ele>
        <time>2022-09-18T10:08:15.000Z</time>
      </trkpt>
      <trkpt lat="49.84074" lon="4.84293">
        <ele>358</ele>
        <time>2022-09-18T10:08:16.000Z</time>
      </trkpt>
      <trkpt lat="49.84068" lon="4.84292">
        <ele>358</ele>
        <time>2022-09-18T10:08:17.000Z</time>
      </trkpt>
      <trkpt lat="49.84062" lon="4.84291">
        <ele>358</ele>
        <time>2022-09-18T10:08:18.000Z</time>
      </trkpt>
      <trkpt lat="49.84056" lon="4.84291">
        <ele>358</ele>
        <time>2022-09-18T10:08:19.000Z</time>
      </trkpt>
      <trkpt lat="49.8405" lon="4.8429">
        <ele>358</ele>
        <time>2022-09-18T10:08:20.000Z</time>
      </trkpt>
      <trkpt lat="49.84044" lon="4.84289">
        <ele>358</ele>
        <time>2022-09-18T10:08:21.000Z</time>
      </trkpt>
      <trkpt lat="49.84037" lon="4.84287">
        <ele>358</ele>
        <time>2022-09-18T10:08:22.000Z</time>
      </trkpt>
      <trkpt lat="49.84031" lon="4.84286">
        <ele>358</ele>
        <time>2022-09-18T10:08:23.000Z</time>
      </trkpt>
      <trkpt lat="49.84025" lon="4.84285">
        <ele>358</ele>
        <time>2022-09-18T10:08:24.000Z</time>
      </trkpt>
      <trkpt lat="49.84018" lon="4.84283">
        <ele>358</ele>
        <time>2022-09-18T10:08:25.000Z</time>
      </trkpt>
      <trkpt lat="49.84012" lon="4.84282">
        <ele>358</ele>
        <time>2022-09-18T10:08:26.000Z</time>
      </trkpt>
      <trkpt lat="49.84005" lon="4.84281">
        <ele>358</ele>
        <time>2022-09-18T10:08:27.000Z</time>
      </trkpt>
      <trkpt lat="49.83998" lon="4.84279">
        <ele>358</ele>
        <time>2022-09-18T10:08:28.000Z</time>
      </trkpt>
      <trkpt lat="49.83992" lon="4.84278">
        <ele>358</ele>
        <time>2022-09-18T10:08:29.000Z</time>
      </trkpt>
      <trkpt lat="49.83985" lon="4.84277">
        <ele>358</ele>
        <time>2022-09-18T10:08:30.000Z</time>
      </trkpt>
      <trkpt lat="49.83978" lon="4.84276">
        <ele>358</ele>
        <time>2022-09-18T10:08:31.000Z</time>
      </trkpt>
      <trkpt lat="49.83972" lon="4.84275">
        <ele>358</ele>
        <time>2022-09-18T10:08:32.000Z</time>
      </trkpt>
      <trkpt lat="49.83966" lon="4.84273">
        <ele>358</ele>
        <time>2022-09-18T10:08:33.000Z</time>
      </trkpt>
      <trkpt lat="49.83959" lon="4.84271">
        <ele>358</ele>
        <time>2022-09-18T10:08:34.000Z</time>
      </trkpt>
      <trkpt lat="49.83953" lon="4.8427">
        <ele>357</ele>
        <time>2022-09-18T10:08:35.000Z</time>
      </trkpt>
      <trkpt lat="49.83946" lon="4.84268">
        <ele>357</ele>
        <time>2022-09-18T10:08:36.000Z</time>
      </trkpt>
      <trkpt lat="49.8394" lon="4.84267">
        <ele>357</ele>
        <time>2022-09-18T10:08:37.000Z</time>
      </trkpt>
      <trkpt lat="49.83934" lon="4.84265">
        <ele>357</ele>
        <time>2022-09-18T10:08:38.000Z</time>
      </trkpt>
      <trkpt lat="49.83927" lon="4.84264">
        <ele>357</ele>
        <time>2022-09-18T10:08:39.000Z</time>
      </trkpt>
      <trkpt lat="49.83921" lon="4.84263">
        <ele>357</ele>
        <time>2022-09-18T10:08:40.000Z</time>
      </trkpt>
      <trkpt lat="49.83914" lon="4.84262">
        <ele>357</ele>
        <time>2022-09-18T10:08:41.000Z</time>
      </trkpt>
      <trkpt lat="49.83908" lon="4.8426">
        <ele>356</ele>
        <time>2022-09-18T10:08:42.000Z</time>
      </trkpt>
      <trkpt lat="49.83901" lon="4.84259">
        <ele>356</ele>
        <time>2022-09-18T10:08:43.000Z</time>
      </trkpt>
      <trkpt lat="49.83895" lon="4.84257">
        <ele>356</ele>
        <time>2022-09-18T10:08:44.000Z</time>
      </trkpt>
      <trkpt lat="49.83888" lon="4.84256">
        <ele>356</ele>
        <time>2022-09-18T10:08:45.000Z</time>
      </trkpt>
      <trkpt lat="49.83882" lon="4.84255">
        <ele>355</ele>
        <time>2022-09-18T10:08:46.000Z</time>
      </trkpt>
      <trkpt lat="49.83876" lon="4.84253">
        <ele>355</ele>
        <time>2022-09-18T10:08:47.000Z</time>
      </trkpt>
      <trkpt lat="49.8387" lon="4.84251">
        <ele>355</ele>
        <time>2022-09-18T10:08:48.000Z</time>
      </trkpt>
      <trkpt lat="49.83865" lon="4.84249">
        <ele>355</ele>
        <time>2022-09-18T10:08:49.000Z</time>
      </trkpt>
      <trkpt lat="49.83859" lon="4.84248">
        <ele>355</ele>
        <time>2022-09-18T10:08:50.000Z</time>
      </trkpt>
      <trkpt lat="49.83854" lon="4.84247">
        <ele>355</ele>
        <time>2022-09-18T10:08:51.000Z</time>
      </trkpt>
      <trkpt lat="49.83848" lon="4.84246">
        <ele>355</ele>
        <time>2022-09-18T10:08:52.000Z</time>
      </trkpt>
      <trkpt lat="49.83843" lon="4.84244">
        <ele>354</ele>
        <time>2022-09-18T10:08:53.000Z</time>
      </trkpt>
      <trkpt lat="49.83838" lon="4.84243">
        <ele>354</ele>
        <time>2022-09-18T10:08:54.000Z</time>
      </trkpt>
      <trkpt lat="49.83833" lon="4.84242">
        <ele>354</ele>
        <time>2022-09-18T10:08:55.000Z</time>
      </trkpt>
      <trkpt lat="49.83827" lon="4.84241">
        <ele>354</ele>
        <time>2022-09-18T10:08:56.000Z</time>
      </trkpt>
      <trkpt lat="49.83822" lon="4.8424">
        <ele>354</ele>
        <time>2022-09-18T10:08:57.000Z</time>
      </trkpt>
      <trkpt lat="49.83817" lon="4.84239">
        <ele>354</ele>
        <time>2022-09-18T10:08:58.000Z</time>
      </trkpt>
      <trkpt lat="49.83812" lon="4.84238">
        <ele>354</ele>
        <time>2022-09-18T10:08:59.000Z</time>
      </trkpt>
      <trkpt lat="49.83807" lon="4.84237">
        <ele>354</ele>
        <time>2022-09-18T10:09:00.000Z</time>
      </trkpt>
      <trkpt lat="49.83802" lon="4.84236">
        <ele>354</ele>
        <time>2022-09-18T10:09:01.000Z</time>
      </trkpt>
      <trkpt lat="49.83798" lon="4.84235">
        <ele>354</ele>
        <time>2022-09-18T10:09:02.000Z</time>
      </trkpt>
      <trkpt lat="49.83793" lon="4.84234">
        <ele>354</ele>
        <time>2022-09-18T10:09:03.000Z</time>
      </trkpt>
      <trkpt lat="49.83788" lon="4.84233">
        <ele>354</ele>
        <time>2022-09-18T10:09:04.000Z</time>
      </trkpt>
      <trkpt lat="49.83784" lon="4.84231">
        <ele>354</ele>
        <time>2022-09-18T10:09:05.000Z</time>
      </trkpt>
      <trkpt lat="49.83779" lon="4.84231">
        <ele>354</ele>
        <time>2022-09-18T10:09:06.000Z</time>
      </trkpt>
      <trkpt lat="49.83775" lon="4.8423">
        <ele>354</ele>
        <time>2022-09-18T10:09:07.000Z</time>
      </trkpt>
      <trkpt lat="49.8377" lon="4.84229">
        <ele>354</ele>
        <time>2022-09-18T10:09:08.000Z</time>
      </trkpt>
      <trkpt lat="49.83766" lon="4.84228">
        <ele>354</ele>
        <time>2022-09-18T10:09:09.000Z</time>
      </trkpt>
      <trkpt lat="49.83762" lon="4.84227">
        <ele>354</ele>
        <time>2022-09-18T10:09:10.000Z</time>
      </trkpt>
      <trkpt lat="49.83759" lon="4.84227">
        <ele>355</ele>
        <time>2022-09-18T10:09:11.000Z</time>
      </trkpt>
      <trkpt lat="49.83755" lon="4.84226">
        <ele>355</ele>
        <time>2022-09-18T10:09:12.000Z</time>
      </trkpt>
      <trkpt lat="49.83751" lon="4.84225">
        <ele>355</ele>
        <time>2022-09-18T10:09:13.000Z</time>
      </trkpt>
      <trkpt lat="49.83747" lon="4.84225">
        <ele>355</ele>
        <time>2022-09-18T10:09:14.000Z</time>
      </trkpt>
      <trkpt lat="49.83744" lon="4.84224">
        <ele>355</ele>
        <time>2022-09-18T10:09:15.000Z</time>
      </trkpt>
      <trkpt lat="49.8374" lon="4.84223">
        <ele>355</ele>
        <time>2022-09-18T10:09:16.000Z</time>
      </trkpt>
      <trkpt lat="49.83736" lon="4.84223">
        <ele>355</ele>
        <time>2022-09-18T10:09:17.000Z</time>
      </trkpt>
      <trkpt lat="49.83732" lon="4.84222">
        <ele>355</ele>
        <time>2022-09-18T10:09:18.000Z</time>
      </trkpt>
      <trkpt lat="49.83728" lon="4.84221">
        <ele>355</ele>
        <time>2022-09-18T10:09:19.000Z</time>
      </trkpt>
      <trkpt lat="49.83724" lon="4.84221">
        <ele>355</ele>
        <time>2022-09-18T10:09:20.000Z</time>
      </trkpt>
      <trkpt lat="49.8372" lon="4.8422">
        <ele>356</ele>
        <time>2022-09-18T10:09:21.000Z</time>
      </trkpt>
      <trkpt lat="49.83715" lon="4.84219">
        <ele>356</ele>
        <time>2022-09-18T10:09:22.000Z</time>
      </trkpt>
      <trkpt lat="49.83711" lon="4.84218">
        <ele>356</ele>
        <time>2022-09-18T10:09:23.000Z</time>
      </trkpt>
      <trkpt lat="49.83707" lon="4.84218">
        <ele>356</ele>
        <time>2022-09-18T10:09:24.000Z</time>
      </trkpt>
      <trkpt lat="49.83702" lon="4.84218">
        <ele>356</ele>
        <time>2022-09-18T10:09:25.000Z</time>
      </trkpt>
      <trkpt lat="49.83698" lon="4.84218">
        <ele>356</ele>
        <time>2022-09-18T10:09:26.000Z</time>
      </trkpt>
      <trkpt lat="49.83693" lon="4.84217">
        <ele>357</ele>
        <time>2022-09-18T10:09:27.000Z</time>
      </trkpt>
      <trkpt lat="49.83689" lon="4.84215">
        <ele>357</ele>
        <time>2022-09-18T10:09:28.000Z</time>
      </trkpt>
      <trkpt lat="49.83685" lon="4.84215">
        <ele>357</ele>
        <time>2022-09-18T10:09:29.000Z</time>
      </trkpt>
      <trkpt lat="49.83681" lon="4.84214">
        <ele>357</ele>
        <time>2022-09-18T10:09:30.000Z</time>
      </trkpt>
      <trkpt lat="49.83678" lon="4.84213">
        <ele>357</ele>
        <time>2022-09-18T10:09:31.000Z</time>
      </trkpt>
      <trkpt lat="49.83674" lon="4.84212">
        <ele>358</ele>
        <time>2022-09-18T10:09:32.000Z</time>
      </trkpt>
      <trkpt lat="49.83671" lon="4.8421">
        <ele>358</ele>
        <time>2022-09-18T10:09:33.000Z</time>
      </trkpt>
      <trkpt lat="49.83667" lon="4.84209">
        <ele>358</ele>
        <time>2022-09-18T10:09:34.000Z</time>
      </trkpt>
      <trkpt lat="49.83664" lon="4.84208">
        <ele>358</ele>
        <time>2022-09-18T10:09:35.000Z</time>
      </trkpt>
      <trkpt lat="49.83661" lon="4.84207">
        <ele>358</ele>
        <time>2022-09-18T10:09:36.000Z</time>
      </trkpt>
      <trkpt lat="49.83659" lon="4.84206">
        <ele>359</ele>
        <time>2022-09-18T10:09:37.000Z</time>
      </trkpt>
      <trkpt lat="49.83656" lon="4.84204">
        <ele>359</ele>
        <time>2022-09-18T10:09:38.000Z</time>
      </trkpt>
      <trkpt lat="49.83655" lon="4.84205">
        <ele>359</ele>
        <time>2022-09-18T10:09:39.000Z</time>
      </trkpt>
      <trkpt lat="49.83653" lon="4.84206">
        <ele>359</ele>
        <time>2022-09-18T10:09:40.000Z</time>
      </trkpt>
      <trkpt lat="49.83652" lon="4.84209">
        <ele>359</ele>
        <time>2022-09-18T10:09:41.000Z</time>
      </trkpt>
      <trkpt lat="49.8365" lon="4.84211">
        <ele>360</ele>
        <time>2022-09-18T10:09:42.000Z</time>
      </trkpt>
      <trkpt lat="49.83647" lon="4.84214">
        <ele>360</ele>
        <time>2022-09-18T10:09:43.000Z</time>
      </trkpt>
      <trkpt lat="49.83645" lon="4.84218">
        <ele>360</ele>
        <time>2022-09-18T10:09:44.000Z</time>
      </trkpt>
      <trkpt lat="49.83642" lon="4.84223">
        <ele>360</ele>
        <time>2022-09-18T10:09:45.000Z</time>
      </trkpt>
      <trkpt lat="49.8364" lon="4.84229">
        <ele>360</ele>
        <time>2022-09-18T10:09:46.000Z</time>
      </trkpt>
      <trkpt lat="49.83636" lon="4.84237">
        <ele>360</ele>
        <time>2022-09-18T10:09:47.000Z</time>
      </trkpt>
      <trkpt lat="49.83633" lon="4.84245">
        <ele>360</ele>
        <time>2022-09-18T10:09:48.000Z</time>
      </trkpt>
      <trkpt lat="49.83629" lon="4.84253">
        <ele>360</ele>
        <time>2022-09-18T10:09:49.000Z</time>
      </trkpt>
      <trkpt lat="49.83625" lon="4.84263">
        <ele>360</ele>
        <time>2022-09-18T10:09:50.000Z</time>
      </trkpt>
      <trkpt lat="49.83621" lon="4.84274">
        <ele>360</ele>
        <time>2022-09-18T10:09:51.000Z</time>
      </trkpt>
      <trkpt lat="49.83617" lon="4.84285">
        <ele>360</ele>
        <time>2022-09-18T10:09:52.000Z</time>
      </trkpt>
      <trkpt lat="49.83613" lon="4.84295">
        <ele>359</ele>
        <time>2022-09-18T10:09:53.000Z</time>
      </trkpt>
      <trkpt lat="49.83608" lon="4.84305">
        <ele>359</ele>
        <time>2022-09-18T10:09:54.000Z</time>
      </trkpt>
      <trkpt lat="49.83605" lon="4.84316">
        <ele>359</ele>
        <time>2022-09-18T10:09:55.000Z</time>
      </trkpt>
      <trkpt lat="49.83601" lon="4.84326">
        <ele>358</ele>
        <time>2022-09-18T10:09:56.000Z</time>
      </trkpt>
      <trkpt lat="49.83598" lon="4.84337">
        <ele>358</ele>
        <time>2022-09-18T10:09:57.000Z</time>
      </trkpt>
      <trkpt lat="49.83595" lon="4.84348">
        <ele>358</ele>
        <time>2022-09-18T10:09:58.000Z</time>
      </trkpt>
      <trkpt lat="49.83593" lon="4.8436">
        <ele>357</ele>
        <time>2022-09-18T10:09:59.000Z</time>
      </trkpt>
      <trkpt lat="49.8359" lon="4.84371">
        <ele>357</ele>
        <time>2022-09-18T10:10:00.000Z</time>
      </trkpt>
      <trkpt lat="49.83588" lon="4.84382">
        <ele>357</ele>
        <time>2022-09-18T10:10:01.000Z</time>
      </trkpt>
      <trkpt lat="49.83585" lon="4.84393">
        <ele>356</ele>
        <time>2022-09-18T10:10:02.000Z</time>
      </trkpt>
      <trkpt lat="49.83583" lon="4.84405">
        <ele>356</ele>
        <time>2022-09-18T10:10:03.000Z</time>
      </trkpt>
      <trkpt lat="49.8358" lon="4.84415">
        <ele>356</ele>
        <time>2022-09-18T10:10:04.000Z</time>
      </trkpt>
      <trkpt lat="49.83579" lon="4.84426">
        <ele>356</ele>
        <time>2022-09-18T10:10:05.000Z</time>
      </trkpt>
      <trkpt lat="49.83577" lon="4.84437">
        <ele>355</ele>
        <time>2022-09-18T10:10:06.000Z</time>
      </trkpt>
      <trkpt lat="49.83576" lon="4.84448">
        <ele>355</ele>
        <time>2022-09-18T10:10:07.000Z</time>
      </trkpt>
      <trkpt lat="49.83575" lon="4.84458">
        <ele>355</ele>
        <time>2022-09-18T10:10:08.000Z</time>
      </trkpt>
      <trkpt lat="49.83574" lon="4.84468">
        <ele>354</ele>
        <time>2022-09-18T10:10:09.000Z</time>
      </trkpt>
      <trkpt lat="49.83572" lon="4.84478">
        <ele>354</ele>
        <time>2022-09-18T10:10:10.000Z</time>
      </trkpt>
      <trkpt lat="49.83571" lon="4.84487">
        <ele>354</ele>
        <time>2022-09-18T10:10:11.000Z</time>
      </trkpt>
      <trkpt lat="49.83569" lon="4.84497">
        <ele>353</ele>
        <time>2022-09-18T10:10:12.000Z</time>
      </trkpt>
      <trkpt lat="49.83566" lon="4.84505">
        <ele>353</ele>
        <time>2022-09-18T10:10:13.000Z</time>
      </trkpt>
      <trkpt lat="49.83564" lon="4.84514">
        <ele>353</ele>
        <time>2022-09-18T10:10:14.000Z</time>
      </trkpt>
      <trkpt lat="49.83563" lon="4.84523">
        <ele>352</ele>
        <time>2022-09-18T10:10:15.000Z</time>
      </trkpt>
      <trkpt lat="49.83561" lon="4.84533">
        <ele>352</ele>
        <time>2022-09-18T10:10:16.000Z</time>
      </trkpt>
      <trkpt lat="49.83559" lon="4.84542">
        <ele>352</ele>
        <time>2022-09-18T10:10:17.000Z</time>
      </trkpt>
      <trkpt lat="49.83558" lon="4.84551">
        <ele>351</ele>
        <time>2022-09-18T10:10:18.000Z</time>
      </trkpt>
      <trkpt lat="49.83556" lon="4.8456">
        <ele>351</ele>
        <time>2022-09-18T10:10:19.000Z</time>
      </trkpt>
      <trkpt lat="49.83554" lon="4.84569">
        <ele>351</ele>
        <time>2022-09-18T10:10:20.000Z</time>
      </trkpt>
      <trkpt lat="49.83553" lon="4.84578">
        <ele>351</ele>
        <time>2022-09-18T10:10:21.000Z</time>
      </trkpt>
      <trkpt lat="49.83551" lon="4.84587">
        <ele>351</ele>
        <time>2022-09-18T10:10:22.000Z</time>
      </trkpt>
      <trkpt lat="49.83549" lon="4.84596">
        <ele>350</ele>
        <time>2022-09-18T10:10:23.000Z</time>
      </trkpt>
      <trkpt lat="49.83548" lon="4.84605">
        <ele>350</ele>
        <time>2022-09-18T10:10:24.000Z</time>
      </trkpt>
      <trkpt lat="49.83546" lon="4.84613">
        <ele>350</ele>
        <time>2022-09-18T10:10:25.000Z</time>
      </trkpt>
      <trkpt lat="49.83545" lon="4.84622">
        <ele>350</ele>
        <time>2022-09-18T10:10:26.000Z</time>
      </trkpt>
      <trkpt lat="49.83543" lon="4.8463">
        <ele>349</ele>
        <time>2022-09-18T10:10:27.000Z</time>
      </trkpt>
      <trkpt lat="49.83542" lon="4.84639">
        <ele>349</ele>
        <time>2022-09-18T10:10:28.000Z</time>
      </trkpt>
      <trkpt lat="49.8354" lon="4.84647">
        <ele>349</ele>
        <time>2022-09-18T10:10:29.000Z</time>
      </trkpt>
      <trkpt lat="49.83538" lon="4.84655">
        <ele>349</ele>
        <time>2022-09-18T10:10:30.000Z</time>
      </trkpt>
      <trkpt lat="49.83537" lon="4.84664">
        <ele>349</ele>
        <time>2022-09-18T10:10:31.000Z</time>
      </trkpt>
      <trkpt lat="49.83535" lon="4.84672">
        <ele>349</ele>
        <time>2022-09-18T10:10:32.000Z</time>
      </trkpt>
      <trkpt lat="49.83534" lon="4.8468">
        <ele>349</ele>
        <time>2022-09-18T10:10:33.000Z</time>
      </trkpt>
      <trkpt lat="49.83532" lon="4.84688">
        <ele>348</ele>
        <time>2022-09-18T10:10:34.000Z</time>
      </trkpt>
      <trkpt lat="49.83531" lon="4.84697">
        <ele>348</ele>
        <time>2022-09-18T10:10:35.000Z</time>
      </trkpt>
      <trkpt lat="49.83529" lon="4.84705">
        <ele>348</ele>
        <time>2022-09-18T10:10:36.000Z</time>
      </trkpt>
      <trkpt lat="49.83527" lon="4.84713">
        <ele>348</ele>
        <time>2022-09-18T10:10:37.000Z</time>
      </trkpt>
      <trkpt lat="49.83526" lon="4.84721">
        <ele>348</ele>
        <time>2022-09-18T10:10:38.000Z</time>
      </trkpt>
      <trkpt lat="49.83525" lon="4.84729">
        <ele>348</ele>
        <time>2022-09-18T10:10:39.000Z</time>
      </trkpt>
      <trkpt lat="49.83524" lon="4.84737">
        <ele>348</ele>
        <time>2022-09-18T10:10:40.000Z</time>
      </trkpt>
      <trkpt lat="49.83522" lon="4.84746">
        <ele>348</ele>
        <time>2022-09-18T10:10:41.000Z</time>
      </trkpt>
      <trkpt lat="49.83521" lon="4.84754">
        <ele>348</ele>
        <time>2022-09-18T10:10:42.000Z</time>
      </trkpt>
      <trkpt lat="49.8352" lon="4.84762">
        <ele>348</ele>
        <time>2022-09-18T10:10:43.000Z</time>
      </trkpt>
      <trkpt lat="49.83518" lon="4.8477">
        <ele>347</ele>
        <time>2022-09-18T10:10:44.000Z</time>
      </trkpt>
      <trkpt lat="49.83517" lon="4.84779">
        <ele>347</ele>
        <time>2022-09-18T10:10:45.000Z</time>
      </trkpt>
      <trkpt lat="49.83516" lon="4.84787">
        <ele>347</ele>
        <time>2022-09-18T10:10:46.000Z</time>
      </trkpt>
      <trkpt lat="49.83514" lon="4.84796">
        <ele>347</ele>
        <time>2022-09-18T10:10:47.000Z</time>
      </trkpt>
      <trkpt lat="49.83513" lon="4.84805">
        <ele>347</ele>
        <time>2022-09-18T10:10:48.000Z</time>
      </trkpt>
      <trkpt lat="49.83512" lon="4.84813">
        <ele>347</ele>
        <time>2022-09-18T10:10:49.000Z</time>
      </trkpt>
      <trkpt lat="49.83511" lon="4.84822">
        <ele>347</ele>
        <time>2022-09-18T10:10:50.000Z</time>
      </trkpt>
      <trkpt lat="49.83509" lon="4.8483">
        <ele>347</ele>
        <time>2022-09-18T10:10:51.000Z</time>
      </trkpt>
      <trkpt lat="49.83508" lon="4.84838">
        <ele>348</ele>
        <time>2022-09-18T10:10:52.000Z</time>
      </trkpt>
      <trkpt lat="49.83507" lon="4.84846">
        <ele>348</ele>
        <time>2022-09-18T10:10:53.000Z</time>
      </trkpt>
      <trkpt lat="49.83505" lon="4.84853">
        <ele>348</ele>
        <time>2022-09-18T10:10:54.000Z</time>
      </trkpt>
      <trkpt lat="49.83503" lon="4.84861">
        <ele>348</ele>
        <time>2022-09-18T10:10:55.000Z</time>
      </trkpt>
      <trkpt lat="49.83501" lon="4.84868">
        <ele>348</ele>
        <time>2022-09-18T10:10:56.000Z</time>
      </trkpt>
      <trkpt lat="49.835" lon="4.84874">
        <ele>348</ele>
        <time>2022-09-18T10:10:57.000Z</time>
      </trkpt>
      <trkpt lat="49.83497" lon="4.8488">
        <ele>348</ele>
        <time>2022-09-18T10:10:58.000Z</time>
      </trkpt>
      <trkpt lat="49.83496" lon="4.84885">
        <ele>348</ele>
        <time>2022-09-18T10:10:59.000Z</time>
      </trkpt>
      <trkpt lat="49.83494" lon="4.84891">
        <ele>348</ele>
        <time>2022-09-18T10:11:00.000Z</time>
      </trkpt>
      <trkpt lat="49.83491" lon="4.84895">
        <ele>348</ele>
        <time>2022-09-18T10:11:01.000Z</time>
      </trkpt>
      <trkpt lat="49.83488" lon="4.84899">
        <ele>348</ele>
        <time>2022-09-18T10:11:02.000Z</time>
      </trkpt>
      <trkpt lat="49.83486" lon="4.84904">
        <ele>348</ele>
        <time>2022-09-18T10:11:03.000Z</time>
      </trkpt>
      <trkpt lat="49.83483" lon="4.84907">
        <ele>348</ele>
        <time>2022-09-18T10:11:04.000Z</time>
      </trkpt>
      <trkpt lat="49.8348" lon="4.84911">
        <ele>348</ele>
        <time>2022-09-18T10:11:05.000Z</time>
      </trkpt>
      <trkpt lat="49.83477" lon="4.84915">
        <ele>348</ele>
        <time>2022-09-18T10:11:06.000Z</time>
      </trkpt>
      <trkpt lat="49.83473" lon="4.84918">
        <ele>349</ele>
        <time>2022-09-18T10:11:07.000Z</time>
      </trkpt>
      <trkpt lat="49.8347" lon="4.84922">
        <ele>349</ele>
        <time>2022-09-18T10:11:08.000Z</time>
      </trkpt>
      <trkpt lat="49.83467" lon="4.84924">
        <ele>349</ele>
        <time>2022-09-18T10:11:09.000Z</time>
      </trkpt>
      <trkpt lat="49.83464" lon="4.84927">
        <ele>349</ele>
        <time>2022-09-18T10:11:10.000Z</time>
      </trkpt>
      <trkpt lat="49.8346" lon="4.84931">
        <ele>349</ele>
        <time>2022-09-18T10:11:11.000Z</time>
      </trkpt>
      <trkpt lat="49.83457" lon="4.84934">
        <ele>349</ele>
        <time>2022-09-18T10:11:12.000Z</time>
      </trkpt>
      <trkpt lat="49.83454" lon="4.84938">
        <ele>349</ele>
        <time>2022-09-18T10:11:13.000Z</time>
      </trkpt>
      <trkpt lat="49.83451" lon="4.84941">
        <ele>349</ele>
        <time>2022-09-18T10:11:14.000Z</time>
      </trkpt>
      <trkpt lat="49.83447" lon="4.84944">
        <ele>349</ele>
        <time>2022-09-18T10:11:15.000Z</time>
      </trkpt>
      <trkpt lat="49.83444" lon="4.84948">
        <ele>349</ele>
        <time>2022-09-18T10:11:16.000Z</time>
      </trkpt>
      <trkpt lat="49.83441" lon="4.84951">
        <ele>349</ele>
        <time>2022-09-18T10:11:17.000Z</time>
      </trkpt>
      <trkpt lat="49.83437" lon="4.84955">
        <ele>350</ele>
        <time>2022-09-18T10:11:18.000Z</time>
      </trkpt>
      <trkpt lat="49.83434" lon="4.84958">
        <ele>350</ele>
        <time>2022-09-18T10:11:19.000Z</time>
      </trkpt>
      <trkpt lat="49.83431" lon="4.84961">
        <ele>350</ele>
        <time>2022-09-18T10:11:20.000Z</time>
      </trkpt>
      <trkpt lat="49.83427" lon="4.84964">
        <ele>350</ele>
        <time>2022-09-18T10:11:21.000Z</time>
      </trkpt>
      <trkpt lat="49.83424" lon="4.84967">
        <ele>350</ele>
        <time>2022-09-18T10:11:22.000Z</time>
      </trkpt>
      <trkpt lat="49.83421" lon="4.8497">
        <ele>350</ele>
        <time>2022-09-18T10:11:23.000Z</time>
      </trkpt>
      <trkpt lat="49.83417" lon="4.84973">
        <ele>350</ele>
        <time>2022-09-18T10:11:24.000Z</time>
      </trkpt>
      <trkpt lat="49.83414" lon="4.84976">
        <ele>351</ele>
        <time>2022-09-18T10:11:25.000Z</time>
      </trkpt>
      <trkpt lat="49.83411" lon="4.84979">
        <ele>351</ele>
        <time>2022-09-18T10:11:26.000Z</time>
      </trkpt>
      <trkpt lat="49.83408" lon="4.84982">
        <ele>351</ele>
        <time>2022-09-18T10:11:27.000Z</time>
      </trkpt>
      <trkpt lat="49.83405" lon="4.84985">
        <ele>351</ele>
        <time>2022-09-18T10:11:28.000Z</time>
      </trkpt>
      <trkpt lat="49.83402" lon="4.84988">
        <ele>351</ele>
        <time>2022-09-18T10:11:29.000Z</time>
      </trkpt>
      <trkpt lat="49.83399" lon="4.84991">
        <ele>351</ele>
        <time>2022-09-18T10:11:30.000Z</time>
      </trkpt>
      <trkpt lat="49.83396" lon="4.84995">
        <ele>351</ele>
        <time>2022-09-18T10:11:31.000Z</time>
      </trkpt>
      <trkpt lat="49.83392" lon="4.84998">
        <ele>352</ele>
        <time>2022-09-18T10:11:32.000Z</time>
      </trkpt>
      <trkpt lat="49.83389" lon="4.85001">
        <ele>352</ele>
        <time>2022-09-18T10:11:33.000Z</time>
      </trkpt>
      <trkpt lat="49.83386" lon="4.85004">
        <ele>352</ele>
        <time>2022-09-18T10:11:34.000Z</time>
      </trkpt>
      <trkpt lat="49.83383" lon="4.85007">
        <ele>352</ele>
        <time>2022-09-18T10:11:35.000Z</time>
      </trkpt>
      <trkpt lat="49.8338" lon="4.8501">
        <ele>352</ele>
        <time>2022-09-18T10:11:36.000Z</time>
      </trkpt>
      <trkpt lat="49.83376" lon="4.85013">
        <ele>352</ele>
        <time>2022-09-18T10:11:37.000Z</time>
      </trkpt>
      <trkpt lat="49.83373" lon="4.85016">
        <ele>352</ele>
        <time>2022-09-18T10:11:38.000Z</time>
      </trkpt>
      <trkpt lat="49.8337" lon="4.85018">
        <ele>353</ele>
        <time>2022-09-18T10:11:39.000Z</time>
      </trkpt>
      <trkpt lat="49.83367" lon="4.85021">
        <ele>353</ele>
        <time>2022-09-18T10:11:40.000Z</time>
      </trkpt>
      <trkpt lat="49.83364" lon="4.85022">
        <ele>353</ele>
        <time>2022-09-18T10:11:41.000Z</time>
      </trkpt>
      <trkpt lat="49.83362" lon="4.85024">
        <ele>353</ele>
        <time>2022-09-18T10:11:42.000Z</time>
      </trkpt>
      <trkpt lat="49.8336" lon="4.85026">
        <ele>353</ele>
        <time>2022-09-18T10:11:43.000Z</time>
      </trkpt>
      <trkpt lat="49.83357" lon="4.85028">
        <ele>353</ele>
        <time>2022-09-18T10:11:44.000Z</time>
      </trkpt>
      <trkpt lat="49.83355" lon="4.8503">
        <ele>353</ele>
        <time>2022-09-18T10:11:45.000Z</time>
      </trkpt>
      <trkpt lat="49.83352" lon="4.85032">
        <ele>353</ele>
        <time>2022-09-18T10:11:46.000Z</time>
      </trkpt>
      <trkpt lat="49.8335" lon="4.85034">
        <ele>353</ele>
        <time>2022-09-18T10:11:47.000Z</time>
      </trkpt>
      <trkpt lat="49.83348" lon="4.85036">
        <ele>353</ele>
        <time>2022-09-18T10:11:48.000Z</time>
      </trkpt>
      <trkpt lat="49.83345" lon="4.85038">
        <ele>354</ele>
        <time>2022-09-18T10:11:49.000Z</time>
      </trkpt>
      <trkpt lat="49.83343" lon="4.85039">
        <ele>354</ele>
        <time>2022-09-18T10:11:50.000Z</time>
      </trkpt>
      <trkpt lat="49.8334" lon="4.85041">
        <ele>354</ele>
        <time>2022-09-18T10:11:51.000Z</time>
      </trkpt>
      <trkpt lat="49.83338" lon="4.85042">
        <ele>354</ele>
        <time>2022-09-18T10:11:52.000Z</time>
      </trkpt>
      <trkpt lat="49.83335" lon="4.85043">
        <ele>354</ele>
        <time>2022-09-18T10:11:53.000Z</time>
      </trkpt>
      <trkpt lat="49.83332" lon="4.85044">
        <ele>354</ele>
        <time>2022-09-18T10:11:54.000Z</time>
      </trkpt>
      <trkpt lat="49.83329" lon="4.85044">
        <ele>354</ele>
        <time>2022-09-18T10:11:55.000Z</time>
      </trkpt>
      <trkpt lat="49.83327" lon="4.85045">
        <ele>355</ele>
        <time>2022-09-18T10:11:56.000Z</time>
      </trkpt>
      <trkpt lat="49.83325" lon="4.85045">
        <ele>355</ele>
        <time>2022-09-18T10:11:57.000Z</time>
      </trkpt>
      <trkpt lat="49.83322" lon="4.85045">
        <ele>355</ele>
        <time>2022-09-18T10:11:58.000Z</time>
      </trkpt>
      <trkpt lat="49.8332" lon="4.85045">
        <ele>355</ele>
        <time>2022-09-18T10:11:59.000Z</time>
      </trkpt>
      <trkpt lat="49.83317" lon="4.85046">
        <ele>355</ele>
        <time>2022-09-18T10:12:00.000Z</time>
      </trkpt>
      <trkpt lat="49.83313" lon="4.85047">
        <ele>356</ele>
        <time>2022-09-18T10:12:01.000Z</time>
      </trkpt>
      <trkpt lat="49.8331" lon="4.85047">
        <ele>356</ele>
        <time>2022-09-18T10:12:02.000Z</time>
      </trkpt>
      <trkpt lat="49.83306" lon="4.85048">
        <ele>356</ele>
        <time>2022-09-18T10:12:03.000Z</time>
      </trkpt>
      <trkpt lat="49.83303" lon="4.8505">
        <ele>356</ele>
        <time>2022-09-18T10:12:04.000Z</time>
      </trkpt>
      <trkpt lat="49.83299" lon="4.85051">
        <ele>357</ele>
        <time>2022-09-18T10:12:05.000Z</time>
      </trkpt>
      <trkpt lat="49.83296" lon="4.85052">
        <ele>357</ele>
        <time>2022-09-18T10:12:06.000Z</time>
      </trkpt>
      <trkpt lat="49.83293" lon="4.85053">
        <ele>357</ele>
        <time>2022-09-18T10:12:07.000Z</time>
      </trkpt>
      <trkpt lat="49.83289" lon="4.85054">
        <ele>358</ele>
        <time>2022-09-18T10:12:08.000Z</time>
      </trkpt>
      <trkpt lat="49.83286" lon="4.85055">
        <ele>358</ele>
        <time>2022-09-18T10:12:09.000Z</time>
      </trkpt>
      <trkpt lat="49.83283" lon="4.85055">
        <ele>358</ele>
        <time>2022-09-18T10:12:10.000Z</time>
      </trkpt>
      <trkpt lat="49.83279" lon="4.85056">
        <ele>358</ele>
        <time>2022-09-18T10:12:11.000Z</time>
      </trkpt>
      <trkpt lat="49.83276" lon="4.85056">
        <ele>359</ele>
        <time>2022-09-18T10:12:12.000Z</time>
      </trkpt>
      <trkpt lat="49.83273" lon="4.85056">
        <ele>359</ele>
        <time>2022-09-18T10:12:13.000Z</time>
      </trkpt>
      <trkpt lat="49.8327" lon="4.85054">
        <ele>359</ele>
        <time>2022-09-18T10:12:14.000Z</time>
      </trkpt>
      <trkpt lat="49.83267" lon="4.85054">
        <ele>359</ele>
        <time>2022-09-18T10:12:15.000Z</time>
      </trkpt>
      <trkpt lat="49.83265" lon="4.85052">
        <ele>360</ele>
        <time>2022-09-18T10:12:16.000Z</time>
      </trkpt>
      <trkpt lat="49.83262" lon="4.8505">
        <ele>360</ele>
        <time>2022-09-18T10:12:17.000Z</time>
      </trkpt>
      <trkpt lat="49.83259" lon="4.85047">
        <ele>360</ele>
        <time>2022-09-18T10:12:18.000Z</time>
      </trkpt>
      <trkpt lat="49.83256" lon="4.85045">
        <ele>360</ele>
        <time>2022-09-18T10:12:19.000Z</time>
      </trkpt>
      <trkpt lat="49.83253" lon="4.85043">
        <ele>360</ele>
        <time>2022-09-18T10:12:20.000Z</time>
      </trkpt>
      <trkpt lat="49.83249" lon="4.8504">
        <ele>360</ele>
        <time>2022-09-18T10:12:21.000Z</time>
      </trkpt>
      <trkpt lat="49.83246" lon="4.85036">
        <ele>360</ele>
        <time>2022-09-18T10:12:22.000Z</time>
      </trkpt>
      <trkpt lat="49.83243" lon="4.85033">
        <ele>361</ele>
        <time>2022-09-18T10:12:23.000Z</time>
      </trkpt>
      <trkpt lat="49.83239" lon="4.8503">
        <ele>361</ele>
        <time>2022-09-18T10:12:24.000Z</time>
      </trkpt>
      <trkpt lat="49.83236" lon="4.85027">
        <ele>361</ele>
        <time>2022-09-18T10:12:25.000Z</time>
      </trkpt>
      <trkpt lat="49.83233" lon="4.85024">
        <ele>361</ele>
        <time>2022-09-18T10:12:26.000Z</time>
      </trkpt>
      <trkpt lat="49.8323" lon="4.85022">
        <ele>361</ele>
        <time>2022-09-18T10:12:27.000Z</time>
      </trkpt>
      <trkpt lat="49.83226" lon="4.85019">
        <ele>361</ele>
        <time>2022-09-18T10:12:28.000Z</time>
      </trkpt>
      <trkpt lat="49.83223" lon="4.85016">
        <ele>361</ele>
        <time>2022-09-18T10:12:29.000Z</time>
      </trkpt>
      <trkpt lat="49.8322" lon="4.85012">
        <ele>361</ele>
        <time>2022-09-18T10:12:30.000Z</time>
      </trkpt>
      <trkpt lat="49.83217" lon="4.85009">
        <ele>361</ele>
        <time>2022-09-18T10:12:31.000Z</time>
      </trkpt>
      <trkpt lat="49.83213" lon="4.85005">
        <ele>361</ele>
        <time>2022-09-18T10:12:32.000Z</time>
      </trkpt>
      <trkpt lat="49.83209" lon="4.85001">
        <ele>361</ele>
        <time>2022-09-18T10:12:33.000Z</time>
      </trkpt>
      <trkpt lat="49.83205" lon="4.84998">
        <ele>361</ele>
        <time>2022-09-18T10:12:34.000Z</time>
      </trkpt>
      <trkpt lat="49.83202" lon="4.84996">
        <ele>361</ele>
        <time>2022-09-18T10:12:35.000Z</time>
      </trkpt>
      <trkpt lat="49.83198" lon="4.84993">
        <ele>361</ele>
        <time>2022-09-18T10:12:36.000Z</time>
      </trkpt>
      <trkpt lat="49.83195" lon="4.8499">
        <ele>361</ele>
        <time>2022-09-18T10:12:37.000Z</time>
      </trkpt>
      <trkpt lat="49.83192" lon="4.84986">
        <ele>361</ele>
        <time>2022-09-18T10:12:38.000Z</time>
      </trkpt>
      <trkpt lat="49.83188" lon="4.84982">
        <ele>362</ele>
        <time>2022-09-18T10:12:39.000Z</time>
      </trkpt>
      <trkpt lat="49.83184" lon="4.84978">
        <ele>362</ele>
        <time>2022-09-18T10:12:40.000Z</time>
      </trkpt>
      <trkpt lat="49.83179" lon="4.84973">
        <ele>362</ele>
        <time>2022-09-18T10:12:41.000Z</time>
      </trkpt>
      <trkpt lat="49.83175" lon="4.84969">
        <ele>362</ele>
        <time>2022-09-18T10:12:42.000Z</time>
      </trkpt>
      <trkpt lat="49.83171" lon="4.84965">
        <ele>362</ele>
        <time>2022-09-18T10:12:43.000Z</time>
      </trkpt>
      <trkpt lat="49.83167" lon="4.8496">
        <ele>362</ele>
        <time>2022-09-18T10:12:44.000Z</time>
      </trkpt>
      <trkpt lat="49.83162" lon="4.84956">
        <ele>362</ele>
        <time>2022-09-18T10:12:45.000Z</time>
      </trkpt>
      <trkpt lat="49.83158" lon="4.84953">
        <ele>362</ele>
        <time>2022-09-18T10:12:46.000Z</time>
      </trkpt>
      <trkpt lat="49.83154" lon="4.84949">
        <ele>362</ele>
        <time>2022-09-18T10:12:47.000Z</time>
      </trkpt>
      <trkpt lat="49.83149" lon="4.84945">
        <ele>362</ele>
        <time>2022-09-18T10:12:48.000Z</time>
      </trkpt>
      <trkpt lat="49.83145" lon="4.84941">
        <ele>362</ele>
        <time>2022-09-18T10:12:49.000Z</time>
      </trkpt>
      <trkpt lat="49.83142" lon="4.84938">
        <ele>362</ele>
        <time>2022-09-18T10:12:50.000Z</time>
      </trkpt>
      <trkpt lat="49.83138" lon="4.84934">
        <ele>362</ele>
        <time>2022-09-18T10:12:51.000Z</time>
      </trkpt>
      <trkpt lat="49.83135" lon="4.84932">
        <ele>362</ele>
        <time>2022-09-18T10:12:52.000Z</time>
      </trkpt>
      <trkpt lat="49.83131" lon="4.84928">
        <ele>362</ele>
        <time>2022-09-18T10:12:53.000Z</time>
      </trkpt>
      <trkpt lat="49.83128" lon="4.84925">
        <ele>362</ele>
        <time>2022-09-18T10:12:54.000Z</time>
      </trkpt>
      <trkpt lat="49.83125" lon="4.84922">
        <ele>362</ele>
        <time>2022-09-18T10:12:55.000Z</time>
      </trkpt>
      <trkpt lat="49.83122" lon="4.84919">
        <ele>362</ele>
        <time>2022-09-18T10:12:56.000Z</time>
      </trkpt>
      <trkpt lat="49.83119" lon="4.84917">
        <ele>362</ele>
        <time>2022-09-18T10:12:57.000Z</time>
      </trkpt>
      <trkpt lat="49.83116" lon="4.84914">
        <ele>362</ele>
        <time>2022-09-18T10:12:58.000Z</time>
      </trkpt>
      <trkpt lat="49.83113" lon="4.84911">
        <ele>362</ele>
        <time>2022-09-18T10:12:59.000Z</time>
      </trkpt>
      <trkpt lat="49.8311" lon="4.84907">
        <ele>362</ele>
        <time>2022-09-18T10:13:00.000Z</time>
      </trkpt>
      <trkpt lat="49.83106" lon="4.84903">
        <ele>362</ele>
        <time>2022-09-18T10:13:01.000Z</time>
      </trkpt>
      <trkpt lat="49.83102" lon="4.84899">
        <ele>362</ele>
        <time>2022-09-18T10:13:02.000Z</time>
      </trkpt>
      <trkpt lat="49.83097" lon="4.84896">
        <ele>362</ele>
        <time>2022-09-18T10:13:03.000Z</time>
      </trkpt>
      <trkpt lat="49.83092" lon="4.84891">
        <ele>362</ele>
        <time>2022-09-18T10:13:04.000Z</time>
      </trkpt>
      <trkpt lat="49.83087" lon="4.84886">
        <ele>362</ele>
        <time>2022-09-18T10:13:05.000Z</time>
      </trkpt>
      <trkpt lat="49.8308" lon="4.8488">
        <ele>362</ele>
        <time>2022-09-18T10:13:06.000Z</time>
      </trkpt>
      <trkpt lat="49.83074" lon="4.84875">
        <ele>362</ele>
        <time>2022-09-18T10:13:07.000Z</time>
      </trkpt>
      <trkpt lat="49.83067" lon="4.8487">
        <ele>362</ele>
        <time>2022-09-18T10:13:08.000Z</time>
      </trkpt>
      <trkpt lat="49.83062" lon="4.84865">
        <ele>362</ele>
        <time>2022-09-18T10:13:09.000Z</time>
      </trkpt>
      <trkpt lat="49.83056" lon="4.8486">
        <ele>361</ele>
        <time>2022-09-18T10:13:10.000Z</time>
      </trkpt>
      <trkpt lat="49.83051" lon="4.84854">
        <ele>361</ele>
        <time>2022-09-18T10:13:11.000Z</time>
      </trkpt>
      <trkpt lat="49.83045" lon="4.8485">
        <ele>361</ele>
        <time>2022-09-18T10:13:12.000Z</time>
      </trkpt>
      <trkpt lat="49.83041" lon="4.84846">
        <ele>361</ele>
        <time>2022-09-18T10:13:13.000Z</time>
      </trkpt>
      <trkpt lat="49.83037" lon="4.84843">
        <ele>361</ele>
        <time>2022-09-18T10:13:14.000Z</time>
      </trkpt>
      <trkpt lat="49.83033" lon="4.8484">
        <ele>361</ele>
        <time>2022-09-18T10:13:15.000Z</time>
      </trkpt>
      <trkpt lat="49.8303" lon="4.8484">
        <ele>360</ele>
        <time>2022-09-18T10:13:16.000Z</time>
      </trkpt>
      <trkpt lat="49.83026" lon="4.84841">
        <ele>360</ele>
        <time>2022-09-18T10:13:17.000Z</time>
      </trkpt>
      <trkpt lat="49.83022" lon="4.84844">
        <ele>360</ele>
        <time>2022-09-18T10:13:18.000Z</time>
      </trkpt>
      <trkpt lat="49.83017" lon="4.84846">
        <ele>360</ele>
        <time>2022-09-18T10:13:19.000Z</time>
      </trkpt>
      <trkpt lat="49.83011" lon="4.84848">
        <ele>360</ele>
        <time>2022-09-18T10:13:20.000Z</time>
      </trkpt>
      <trkpt lat="49.83005" lon="4.84849">
        <ele>360</ele>
        <time>2022-09-18T10:13:21.000Z</time>
      </trkpt>
      <trkpt lat="49.82999" lon="4.84849">
        <ele>360</ele>
        <time>2022-09-18T10:13:22.000Z</time>
      </trkpt>
      <trkpt lat="49.82993" lon="4.84849">
        <ele>360</ele>
        <time>2022-09-18T10:13:23.000Z</time>
      </trkpt>
      <trkpt lat="49.82986" lon="4.84848">
        <ele>359</ele>
        <time>2022-09-18T10:13:24.000Z</time>
      </trkpt>
      <trkpt lat="49.8298" lon="4.84846">
        <ele>359</ele>
        <time>2022-09-18T10:13:25.000Z</time>
      </trkpt>
      <trkpt lat="49.82973" lon="4.84845">
        <ele>359</ele>
        <time>2022-09-18T10:13:26.000Z</time>
      </trkpt>
      <trkpt lat="49.82966" lon="4.84845">
        <ele>358</ele>
        <time>2022-09-18T10:13:27.000Z</time>
      </trkpt>
      <trkpt lat="49.8296" lon="4.84845">
        <ele>358</ele>
        <time>2022-09-18T10:13:28.000Z</time>
      </trkpt>
      <trkpt lat="49.82954" lon="4.84846">
        <ele>357</ele>
        <time>2022-09-18T10:13:29.000Z</time>
      </trkpt>
      <trkpt lat="49.82949" lon="4.84848">
        <ele>357</ele>
        <time>2022-09-18T10:13:30.000Z</time>
      </trkpt>
      <trkpt lat="49.82945" lon="4.84851">
        <ele>356</ele>
        <time>2022-09-18T10:13:31.000Z</time>
      </trkpt>
      <trkpt lat="49.82941" lon="4.84854">
        <ele>356</ele>
        <time>2022-09-18T10:13:32.000Z</time>
      </trkpt>
      <trkpt lat="49.82937" lon="4.84857">
        <ele>355</ele>
        <time>2022-09-18T10:13:33.000Z</time>
      </trkpt>
      <trkpt lat="49.82933" lon="4.84861">
        <ele>355</ele>
        <time>2022-09-18T10:13:34.000Z</time>
      </trkpt>
      <trkpt lat="49.82929" lon="4.84865">
        <ele>354</ele>
        <time>2022-09-18T10:13:35.000Z</time>
      </trkpt>
      <trkpt lat="49.82925" lon="4.84869">
        <ele>354</ele>
        <time>2022-09-18T10:13:36.000Z</time>
      </trkpt>
      <trkpt lat="49.82921" lon="4.84873">
        <ele>353</ele>
        <time>2022-09-18T10:13:37.000Z</time>
      </trkpt>
      <trkpt lat="49.82916" lon="4.84875">
        <ele>353</ele>
        <time>2022-09-18T10:13:38.000Z</time>
      </trkpt>
      <trkpt lat="49.82912" lon="4.84877">
        <ele>352</ele>
        <time>2022-09-18T10:13:39.000Z</time>
      </trkpt>
      <trkpt lat="49.82907" lon="4.84878">
        <ele>351</ele>
        <time>2022-09-18T10:13:40.000Z</time>
      </trkpt>
      <trkpt lat="49.82902" lon="4.8488">
        <ele>351</ele>
        <time>2022-09-18T10:13:41.000Z</time>
      </trkpt>
      <trkpt lat="49.82897" lon="4.84882">
        <ele>350</ele>
        <time>2022-09-18T10:13:42.000Z</time>
      </trkpt>
      <trkpt lat="49.82893" lon="4.84883">
        <ele>350</ele>
        <time>2022-09-18T10:13:43.000Z</time>
      </trkpt>
      <trkpt lat="49.8289" lon="4.84883">
        <ele>349</ele>
        <time>2022-09-18T10:13:44.000Z</time>
      </trkpt>
      <trkpt lat="49.82887" lon="4.84884">
        <ele>348</ele>
        <time>2022-09-18T10:13:45.000Z</time>
      </trkpt>
      <trkpt lat="49.82886" lon="4.84886">
        <ele>348</ele>
        <time>2022-09-18T10:13:46.000Z</time>
      </trkpt>
      <trkpt lat="49.82885" lon="4.84889">
        <ele>347</ele>
        <time>2022-09-18T10:13:47.000Z</time>
      </trkpt>
      <trkpt lat="49.82885" lon="4.84892">
        <ele>347</ele>
        <time>2022-09-18T10:13:48.000Z</time>
      </trkpt>
      <trkpt lat="49.82886" lon="4.84894">
        <ele>346</ele>
        <time>2022-09-18T10:13:49.000Z</time>
      </trkpt>
      <trkpt lat="49.82886" lon="4.84897">
        <ele>346</ele>
        <time>2022-09-18T10:13:50.000Z</time>
      </trkpt>
      <trkpt lat="49.82887" lon="4.849">
        <ele>345</ele>
        <time>2022-09-18T10:13:51.000Z</time>
      </trkpt>
      <trkpt lat="49.82887" lon="4.84904">
        <ele>344</ele>
        <time>2022-09-18T10:13:52.000Z</time>
      </trkpt>
      <trkpt lat="49.82887" lon="4.84907">
        <ele>344</ele>
        <time>2022-09-18T10:13:53.000Z</time>
      </trkpt>
      <trkpt lat="49.82887" lon="4.84911">
        <ele>344</ele>
        <time>2022-09-18T10:13:54.000Z</time>
      </trkpt>
      <trkpt lat="49.82887" lon="4.84914">
        <ele>343</ele>
        <time>2022-09-18T10:13:55.000Z</time>
      </trkpt>
      <trkpt lat="49.82887" lon="4.84918">
        <ele>343</ele>
        <time>2022-09-18T10:13:56.000Z</time>
      </trkpt>
      <trkpt lat="49.82888" lon="4.84921">
        <ele>342</ele>
        <time>2022-09-18T10:13:57.000Z</time>
      </trkpt>
      <trkpt lat="49.82889" lon="4.84925">
        <ele>341</ele>
        <time>2022-09-18T10:13:58.000Z</time>
      </trkpt>
      <trkpt lat="49.8289" lon="4.84929">
        <ele>341</ele>
        <time>2022-09-18T10:13:59.000Z</time>
      </trkpt>
      <trkpt lat="49.82892" lon="4.84933">
        <ele>341</ele>
        <time>2022-09-18T10:14:00.000Z</time>
      </trkpt>
      <trkpt lat="49.82893" lon="4.84937">
        <ele>340</ele>
        <time>2022-09-18T10:14:01.000Z</time>
      </trkpt>
      <trkpt lat="49.82895" lon="4.84941">
        <ele>340</ele>
        <time>2022-09-18T10:14:02.000Z</time>
      </trkpt>
      <trkpt lat="49.82897" lon="4.84946">
        <ele>339</ele>
        <time>2022-09-18T10:14:03.000Z</time>
      </trkpt>
      <trkpt lat="49.82898" lon="4.84949">
        <ele>339</ele>
        <time>2022-09-18T10:14:04.000Z</time>
      </trkpt>
      <trkpt lat="49.829" lon="4.84953">
        <ele>339</ele>
        <time>2022-09-18T10:14:05.000Z</time>
      </trkpt>
      <trkpt lat="49.82901" lon="4.84957">
        <ele>338</ele>
        <time>2022-09-18T10:14:06.000Z</time>
      </trkpt>
      <trkpt lat="49.82903" lon="4.8496">
        <ele>338</ele>
        <time>2022-09-18T10:14:07.000Z</time>
      </trkpt>
      <trkpt lat="49.82904" lon="4.84964">
        <ele>337</ele>
        <time>2022-09-18T10:14:08.000Z</time>
      </trkpt>
      <trkpt lat="49.82905" lon="4.84967">
        <ele>337</ele>
        <time>2022-09-18T10:14:09.000Z</time>
      </trkpt>
      <trkpt lat="49.82906" lon="4.84971">
        <ele>337</ele>
        <time>2022-09-18T10:14:10.000Z</time>
      </trkpt>
      <trkpt lat="49.82907" lon="4.84975">
        <ele>336</ele>
        <time>2022-09-18T10:14:11.000Z</time>
      </trkpt>
      <trkpt lat="49.82908" lon="4.84979">
        <ele>336</ele>
        <time>2022-09-18T10:14:12.000Z</time>
      </trkpt>
      <trkpt lat="49.82908" lon="4.84983">
        <ele>336</ele>
        <time>2022-09-18T10:14:13.000Z</time>
      </trkpt>
      <trkpt lat="49.82909" lon="4.84988">
        <ele>336</ele>
        <time>2022-09-18T10:14:14.000Z</time>
      </trkpt>
      <trkpt lat="49.82909" lon="4.84992">
        <ele>336</ele>
        <time>2022-09-18T10:14:15.000Z</time>
      </trkpt>
      <trkpt lat="49.82909" lon="4.84996">
        <ele>336</ele>
        <time>2022-09-18T10:14:16.000Z</time>
      </trkpt>
      <trkpt lat="49.82909" lon="4.85">
        <ele>336</ele>
        <time>2022-09-18T10:14:17.000Z</time>
      </trkpt>
      <trkpt lat="49.8291" lon="4.85004">
        <ele>336</ele>
        <time>2022-09-18T10:14:18.000Z</time>
      </trkpt>
      <trkpt lat="49.8291" lon="4.85008">
        <ele>336</ele>
        <time>2022-09-18T10:14:19.000Z</time>
      </trkpt>
      <trkpt lat="49.8291" lon="4.85013">
        <ele>336</ele>
        <time>2022-09-18T10:14:20.000Z</time>
      </trkpt>
      <trkpt lat="49.8291" lon="4.85017">
        <ele>336</ele>
        <time>2022-09-18T10:14:21.000Z</time>
      </trkpt>
      <trkpt lat="49.8291" lon="4.85022">
        <ele>336</ele>
        <time>2022-09-18T10:14:22.000Z</time>
      </trkpt>
      <trkpt lat="49.8291" lon="4.85026">
        <ele>336</ele>
        <time>2022-09-18T10:14:23.000Z</time>
      </trkpt>
      <trkpt lat="49.8291" lon="4.8503">
        <ele>336</ele>
        <time>2022-09-18T10:14:24.000Z</time>
      </trkpt>
      <trkpt lat="49.82909" lon="4.85034">
        <ele>336</ele>
        <time>2022-09-18T10:14:25.000Z</time>
      </trkpt>
      <trkpt lat="49.82909" lon="4.85037">
        <ele>336</ele>
        <time>2022-09-18T10:14:26.000Z</time>
      </trkpt>
      <trkpt lat="49.82908" lon="4.85041">
        <ele>336</ele>
        <time>2022-09-18T10:14:27.000Z</time>
      </trkpt>
      <trkpt lat="49.82907" lon="4.85044">
        <ele>336</ele>
        <time>2022-09-18T10:14:28.000Z</time>
      </trkpt>
      <trkpt lat="49.82906" lon="4.85047">
        <ele>336</ele>
        <time>2022-09-18T10:14:29.000Z</time>
      </trkpt>
      <trkpt lat="49.82904" lon="4.85049">
        <ele>336</ele>
        <time>2022-09-18T10:14:30.000Z</time>
      </trkpt>
      <trkpt lat="49.82903" lon="4.85052">
        <ele>336</ele>
        <time>2022-09-18T10:14:31.000Z</time>
      </trkpt>
      <trkpt lat="49.82902" lon="4.85055">
        <ele>336</ele>
        <time>2022-09-18T10:14:32.000Z</time>
      </trkpt>
      <trkpt lat="49.829" lon="4.85057">
        <ele>336</ele>
        <time>2022-09-18T10:14:33.000Z</time>
      </trkpt>
      <trkpt lat="49.82898" lon="4.8506">
        <ele>337</ele>
        <time>2022-09-18T10:14:34.000Z</time>
      </trkpt>
      <trkpt lat="49.82897" lon="4.85063">
        <ele>337</ele>
        <time>2022-09-18T10:14:35.000Z</time>
      </trkpt>
      <trkpt lat="49.82896" lon="4.85066">
        <ele>337</ele>
        <time>2022-09-18T10:14:36.000Z</time>
      </trkpt>
      <trkpt lat="49.82894" lon="4.85068">
        <ele>337</ele>
        <time>2022-09-18T10:14:37.000Z</time>
      </trkpt>
      <trkpt lat="49.82892" lon="4.8507">
        <ele>337</ele>
        <time>2022-09-18T10:14:38.000Z</time>
      </trkpt>
      <trkpt lat="49.82891" lon="4.85073">
        <ele>337</ele>
        <time>2022-09-18T10:14:39.000Z</time>
      </trkpt>
      <trkpt lat="49.82889" lon="4.85075">
        <ele>337</ele>
        <time>2022-09-18T10:14:40.000Z</time>
      </trkpt>
      <trkpt lat="49.82887" lon="4.85077">
        <ele>337</ele>
        <time>2022-09-18T10:14:41.000Z</time>
      </trkpt>
      <trkpt lat="49.82885" lon="4.8508">
        <ele>337</ele>
        <time>2022-09-18T10:14:42.000Z</time>
      </trkpt>
      <trkpt lat="49.82884" lon="4.85083">
        <ele>338</ele>
        <time>2022-09-18T10:14:43.000Z</time>
      </trkpt>
      <trkpt lat="49.82882" lon="4.85085">
        <ele>338</ele>
        <time>2022-09-18T10:14:44.000Z</time>
      </trkpt>
      <trkpt lat="49.8288" lon="4.85088">
        <ele>338</ele>
        <time>2022-09-18T10:14:45.000Z</time>
      </trkpt>
      <trkpt lat="49.82878" lon="4.85091">
        <ele>338</ele>
        <time>2022-09-18T10:14:46.000Z</time>
      </trkpt>
      <trkpt lat="49.82876" lon="4.85093">
        <ele>338</ele>
        <time>2022-09-18T10:14:47.000Z</time>
      </trkpt>
      <trkpt lat="49.82874" lon="4.85095">
        <ele>338</ele>
        <time>2022-09-18T10:14:48.000Z</time>
      </trkpt>
      <trkpt lat="49.82872" lon="4.85098">
        <ele>338</ele>
        <time>2022-09-18T10:14:49.000Z</time>
      </trkpt>
      <trkpt lat="49.8287" lon="4.85101">
        <ele>338</ele>
        <time>2022-09-18T10:14:50.000Z</time>
      </trkpt>
      <trkpt lat="49.82868" lon="4.85104">
        <ele>338</ele>
        <time>2022-09-18T10:14:51.000Z</time>
      </trkpt>
      <trkpt lat="49.82866" lon="4.85106">
        <ele>338</ele>
        <time>2022-09-18T10:14:52.000Z</time>
      </trkpt>
      <trkpt lat="49.82864" lon="4.85109">
        <ele>339</ele>
        <time>2022-09-18T10:14:53.000Z</time>
      </trkpt>
      <trkpt lat="49.82863" lon="4.85112">
        <ele>339</ele>
        <time>2022-09-18T10:14:54.000Z</time>
      </trkpt>
      <trkpt lat="49.82861" lon="4.85115">
        <ele>339</ele>
        <time>2022-09-18T10:14:55.000Z</time>
      </trkpt>
      <trkpt lat="49.82858" lon="4.85118">
        <ele>339</ele>
        <time>2022-09-18T10:14:56.000Z</time>
      </trkpt>
      <trkpt lat="49.82856" lon="4.85121">
        <ele>339</ele>
        <time>2022-09-18T10:14:57.000Z</time>
      </trkpt>
      <trkpt lat="49.82854" lon="4.85124">
        <ele>339</ele>
        <time>2022-09-18T10:14:58.000Z</time>
      </trkpt>
      <trkpt lat="49.82852" lon="4.85127">
        <ele>340</ele>
        <time>2022-09-18T10:14:59.000Z</time>
      </trkpt>
      <trkpt lat="49.8285" lon="4.85131">
        <ele>340</ele>
        <time>2022-09-18T10:15:00.000Z</time>
      </trkpt>
      <trkpt lat="49.82847" lon="4.85134">
        <ele>340</ele>
        <time>2022-09-18T10:15:01.000Z</time>
      </trkpt>
      <trkpt lat="49.82845" lon="4.85137">
        <ele>340</ele>
        <time>2022-09-18T10:15:02.000Z</time>
      </trkpt>
      <trkpt lat="49.82843" lon="4.85141">
        <ele>340</ele>
        <time>2022-09-18T10:15:03.000Z</time>
      </trkpt>
      <trkpt lat="49.82841" lon="4.85144">
        <ele>340</ele>
        <time>2022-09-18T10:15:04.000Z</time>
      </trkpt>
      <trkpt lat="49.82839" lon="4.85148">
        <ele>340</ele>
        <time>2022-09-18T10:15:05.000Z</time>
      </trkpt>
      <trkpt lat="49.82837" lon="4.85151">
        <ele>340</ele>
        <time>2022-09-18T10:15:06.000Z</time>
      </trkpt>
      <trkpt lat="49.82835" lon="4.85154">
        <ele>340</ele>
        <time>2022-09-18T10:15:07.000Z</time>
      </trkpt>
      <trkpt lat="49.82833" lon="4.85157">
        <ele>341</ele>
        <time>2022-09-18T10:15:08.000Z</time>
      </trkpt>
      <trkpt lat="49.82831" lon="4.8516">
        <ele>341</ele>
        <time>2022-09-18T10:15:09.000Z</time>
      </trkpt>
      <trkpt lat="49.82829" lon="4.85163">
        <ele>341</ele>
        <time>2022-09-18T10:15:10.000Z</time>
      </trkpt>
      <trkpt lat="49.82826" lon="4.85166">
        <ele>341</ele>
        <time>2022-09-18T10:15:11.000Z</time>
      </trkpt>
      <trkpt lat="49.82823" lon="4.85169">
        <ele>341</ele>
        <time>2022-09-18T10:15:12.000Z</time>
      </trkpt>
      <trkpt lat="49.82821" lon="4.85172">
        <ele>341</ele>
        <time>2022-09-18T10:15:13.000Z</time>
      </trkpt>
      <trkpt lat="49.82819" lon="4.85176">
        <ele>341</ele>
        <time>2022-09-18T10:15:14.000Z</time>
      </trkpt>
      <trkpt lat="49.82817" lon="4.85179">
        <ele>341</ele>
        <time>2022-09-18T10:15:15.000Z</time>
      </trkpt>
      <trkpt lat="49.82815" lon="4.85182">
        <ele>341</ele>
        <time>2022-09-18T10:15:16.000Z</time>
      </trkpt>
      <trkpt lat="49.82814" lon="4.85185">
        <ele>342</ele>
        <time>2022-09-18T10:15:17.000Z</time>
      </trkpt>
      <trkpt lat="49.82812" lon="4.85189">
        <ele>342</ele>
        <time>2022-09-18T10:15:18.000Z</time>
      </trkpt>
      <trkpt lat="49.8281" lon="4.85192">
        <ele>342</ele>
        <time>2022-09-18T10:15:19.000Z</time>
      </trkpt>
      <trkpt lat="49.82808" lon="4.85196">
        <ele>342</ele>
        <time>2022-09-18T10:15:20.000Z</time>
      </trkpt>
      <trkpt lat="49.82806" lon="4.852">
        <ele>342</ele>
        <time>2022-09-18T10:15:21.000Z</time>
      </trkpt>
      <trkpt lat="49.82805" lon="4.85204">
        <ele>342</ele>
        <time>2022-09-18T10:15:22.000Z</time>
      </trkpt>
      <trkpt lat="49.82803" lon="4.85207">
        <ele>343</ele>
        <time>2022-09-18T10:15:23.000Z</time>
      </trkpt>
      <trkpt lat="49.82802" lon="4.85211">
        <ele>343</ele>
        <time>2022-09-18T10:15:24.000Z</time>
      </trkpt>
      <trkpt lat="49.828" lon="4.85215">
        <ele>343</ele>
        <time>2022-09-18T10:15:25.000Z</time>
      </trkpt>
      <trkpt lat="49.82798" lon="4.85218">
        <ele>343</ele>
        <time>2022-09-18T10:15:26.000Z</time>
      </trkpt>
      <trkpt lat="49.82796" lon="4.85222">
        <ele>343</ele>
        <time>2022-09-18T10:15:27.000Z</time>
      </trkpt>
      <trkpt lat="49.82793" lon="4.85225">
        <ele>343</ele>
        <time>2022-09-18T10:15:28.000Z</time>
      </trkpt>
      <trkpt lat="49.82791" lon="4.85227">
        <ele>344</ele>
        <time>2022-09-18T10:15:29.000Z</time>
      </trkpt>
      <trkpt lat="49.82789" lon="4.85228">
        <ele>344</ele>
        <time>2022-09-18T10:15:30.000Z</time>
      </trkpt>
      <trkpt lat="49.82787" lon="4.8523">
        <ele>344</ele>
        <time>2022-09-18T10:15:31.000Z</time>
      </trkpt>
      <trkpt lat="49.82785" lon="4.8523">
        <ele>344</ele>
        <time>2022-09-18T10:15:32.000Z</time>
      </trkpt>
      <trkpt lat="49.82783" lon="4.8523">
        <ele>344</ele>
        <time>2022-09-18T10:15:33.000Z</time>
      </trkpt>
      <trkpt lat="49.82783" lon="4.85229">
        <ele>344</ele>
        <time>2022-09-18T10:15:34.000Z</time>
      </trkpt>
      <trkpt lat="49.82783" lon="4.8523">
        <ele>345</ele>
        <time>2022-09-18T10:15:35.000Z</time>
      </trkpt>
      <trkpt lat="49.82782" lon="4.8523">
        <ele>345</ele>
        <time>2022-09-18T10:15:36.000Z</time>
      </trkpt>
      <trkpt lat="49.82782" lon="4.85231">
        <ele>345</ele>
        <time>2022-09-18T10:15:37.000Z</time>
      </trkpt>
      <trkpt lat="49.82781" lon="4.8523">
        <ele>345</ele>
        <time>2022-09-18T10:15:38.000Z</time>
      </trkpt>
      <trkpt lat="49.82781" lon="4.85231">
        <ele>346</ele>
        <time>2022-09-18T10:15:39.000Z</time>
      </trkpt>
      <trkpt lat="49.82781" lon="4.8523">
        <ele>346</ele>
        <time>2022-09-18T10:15:40.000Z</time>
      </trkpt>
      <trkpt lat="49.82781" lon="4.8523">
        <ele>346</ele>
        <time>2022-09-18T10:15:41.000Z</time>
      </trkpt>
      <trkpt lat="49.8278" lon="4.8523">
        <ele>346</ele>
        <time>2022-09-18T10:15:42.000Z</time>
      </trkpt>
      <trkpt lat="49.8278" lon="4.8523">
        <ele>347</ele>
        <time>2022-09-18T10:15:43.000Z</time>
      </trkpt>
      <trkpt lat="49.8278" lon="4.8523">
        <ele>347</ele>
        <time>2022-09-18T10:15:44.000Z</time>
      </trkpt>
      <trkpt lat="49.82779" lon="4.8523">
        <ele>347</ele>
        <time>2022-09-18T10:15:45.000Z</time>
      </trkpt>
      <trkpt lat="49.82779" lon="4.8523">
        <ele>347</ele>
        <time>2022-09-18T10:15:46.000Z</time>
      </trkpt>
      <trkpt lat="49.82778" lon="4.8523">
        <ele>347</ele>
        <time>2022-09-18T10:15:47.000Z</time>
      </trkpt>
      <trkpt lat="49.82778" lon="4.85229">
        <ele>348</ele>
        <time>2022-09-18T10:15:48.000Z</time>
      </trkpt>
      <trkpt lat="49.82778" lon="4.85229">
        <ele>348</ele>
        <time>2022-09-18T10:15:49.000Z</time>
      </trkpt>
      <trkpt lat="49.82778" lon="4.85229">
        <ele>348</ele>
        <time>2022-09-18T10:15:50.000Z</time>
      </trkpt>
      <trkpt lat="49.82777" lon="4.85229">
        <ele>348</ele>
        <time>2022-09-18T10:15:51.000Z</time>
      </trkpt>
      <trkpt lat="49.82777" lon="4.85229">
        <ele>348</ele>
        <time>2022-09-18T10:15:52.000Z</time>
      </trkpt>
      <trkpt lat="49.82777" lon="4.85229">
        <ele>348</ele>
        <time>2022-09-18T10:15:53.000Z</time>
      </trkpt>
      <trkpt lat="49.82777" lon="4.85229">
        <ele>348</ele>
        <time>2022-09-18T10:15:54.000Z</time>
      </trkpt>
      <trkpt lat="49.82777" lon="4.85229">
        <ele>348</ele>
        <time>2022-09-18T10:15:55.000Z</time>
      </trkpt>
      <trkpt lat="49.82777" lon="4.85228">
        <ele>348</ele>
        <time>2022-09-18T10:15:56.000Z</time>
      </trkpt>
      <trkpt lat="49.82777" lon="4.85228">
        <ele>349</ele>
        <time>2022-09-18T10:15:57.000Z</time>
      </trkpt>
      <trkpt lat="49.82776" lon="4.85228">
        <ele>349</ele>
        <time>2022-09-18T10:15:58.000Z</time>
      </trkpt>
      <trkpt lat="49.82776" lon="4.85228">
        <ele>349</ele>
        <time>2022-09-18T10:15:59.000Z</time>
      </trkpt>
      <trkpt lat="49.82776" lon="4.85228">
        <ele>349</ele>
        <time>2022-09-18T10:16:00.000Z</time>
      </trkpt>
      <trkpt lat="49.82776" lon="4.85228">
        <ele>349</ele>
        <time>2022-09-18T10:16:01.000Z</time>
      </trkpt>
      <trkpt lat="49.82776" lon="4.85228">
        <ele>349</ele>
        <time>2022-09-18T10:16:02.000Z</time>
      </trkpt>
      <trkpt lat="49.82776" lon="4.85228">
        <ele>349</ele>
        <time>2022-09-18T10:16:03.000Z</time>
      </trkpt>
      <trkpt lat="49.82776" lon="4.85228">
        <ele>349</ele>
        <time>2022-09-18T10:16:04.000Z</time>
      </trkpt>
      <trkpt lat="49.82776" lon="4.85228">
        <ele>349</ele>
        <time>2022-09-18T10:16:05.000Z</time>
      </trkpt>
      <trkpt lat="49.82776" lon="4.85228">
        <ele>349</ele>
        <time>2022-09-18T10:16:06.000Z</time>
      </trkpt>
      <trkpt lat="49.82776" lon="4.85228">
        <ele>349</ele>
        <time>2022-09-18T10:16:07.000Z</time>
      </trkpt>
      <trkpt lat="49.82776" lon="4.85228">
        <ele>350</ele>
        <time>2022-09-18T10:16:08.000Z</time>
      </trkpt>
      <trkpt lat="49.82775" lon="4.85228">
        <ele>350</ele>
        <time>2022-09-18T10:16:09.000Z</time>
      </trkpt>
      <trkpt lat="49.82775" lon="4.85228">
        <ele>350</ele>
        <time>2022-09-18T10:16:10.000Z</time>
      </trkpt>
      <trkpt lat="49.82775" lon="4.85228">
        <ele>350</ele>
        <time>2022-09-18T10:16:11.000Z</time>
      </trkpt>
      <trkpt lat="49.82775" lon="4.85228">
        <ele>350</ele>
        <time>2022-09-18T10:16:12.000Z</time>
      </trkpt>
      <trkpt lat="49.82775" lon="4.85228">
        <ele>350</ele>
        <time>2022-09-18T10:16:13.000Z</time>
      </trkpt>
      <trkpt lat="49.82775" lon="4.85228">
        <ele>350</ele>
        <time>2022-09-18T10:16:14.000Z</time>
      </trkpt>
      <trkpt lat="49.82775" lon="4.85228">
        <ele>350</ele>
        <time>2022-09-18T10:16:15.000Z</time>
      </trkpt>
      <trkpt lat="49.82775" lon="4.85228">
        <ele>350</ele>
        <time>2022-09-18T10:16:16.000Z</time>
      </trkpt>
      <trkpt lat="49.82775" lon="4.85228">
        <ele>350</ele>
        <time>2022-09-18T10:16:17.000Z</time>
      </trkpt>
      <trkpt lat="49.82775" lon="4.85228">
        <ele>350</ele>
        <time>2022-09-18T10:16:18.000Z</time>
      </trkpt>
      <trkpt lat="49.82775" lon="4.85228">
        <ele>350</ele>
        <time>2022-09-18T10:16:19.000Z</time>
      </trkpt>
      <trkpt lat="49.82775" lon="4.85228">
        <ele>350</ele>
        <time>2022-09-18T10:16:20.000Z</time>
      </trkpt>
      <trkpt lat="49.82775" lon="4.85228">
        <ele>350</ele>
        <time>2022-09-18T10:16:21.000Z</time>
      </trkpt>
      <trkpt lat="49.82775" lon="4.85228">
        <ele>350</ele>
        <time>2022-09-18T10:16:22.000Z</time>
      </trkpt>
      <trkpt lat="49.82775" lon="4.85228">
        <ele>351</ele>
        <time>2022-09-18T10:16:23.000Z</time>
      </trkpt>
      <trkpt lat="49.82775" lon="4.85227">
        <ele>351</ele>
        <time>2022-09-18T10:16:24.000Z</time>
      </trkpt>
      <trkpt lat="49.82775" lon="4.85227">
        <ele>351</ele>
        <time>2022-09-18T10:16:25.000Z</time>
      </trkpt>
      <trkpt lat="49.82775" lon="4.85227">
        <ele>351</ele>
        <time>2022-09-18T10:16:26.000Z</time>
      </trkpt>
      <trkpt lat="49.82775" lon="4.85227">
        <ele>351</ele>
        <time>2022-09-18T10:16:27.000Z</time>
      </trkpt>
      <trkpt lat="49.82775" lon="4.85227">
        <ele>351</ele>
        <time>2022-09-18T10:16:28.000Z</time>
      </trkpt>
      <trkpt lat="49.82775" lon="4.85227">
        <ele>351</ele>
        <time>2022-09-18T10:16:29.000Z</time>
      </trkpt>
      <trkpt lat="49.82774" lon="4.85227">
        <ele>351</ele>
        <time>2022-09-18T10:16:30.000Z</time>
      </trkpt>
      <trkpt lat="49.82774" lon="4.85227">
        <ele>351</ele>
        <time>2022-09-18T10:16:31.000Z</time>
      </trkpt>
      <trkpt lat="49.82774" lon="4.85227">
        <ele>351</ele>
        <time>2022-09-18T10:16:32.000Z</time>
      </trkpt>
      <trkpt lat="49.82774" lon="4.85227">
        <ele>351</ele>
        <time>2022-09-18T10:16:33.000Z</time>
      </trkpt>
      <trkpt lat="49.82774" lon="4.85226">
        <ele>351</ele>
        <time>2022-09-18T10:16:34.000Z</time>
      </trkpt>
      <trkpt lat="49.82774" lon="4.85226">
        <ele>351</ele>
        <time>2022-09-18T10:16:35.000Z</time>
      </trkpt>
      <trkpt lat="49.82774" lon="4.85226">
        <ele>351</ele>
        <time>2022-09-18T10:16:36.000Z</time>
      </trkpt>
      <trkpt lat="49.82774" lon="4.85226">
        <ele>351</ele>
        <time>2022-09-18T10:16:37.000Z</time>
      </trkpt>
      <trkpt lat="49.82774" lon="4.85226">
        <ele>351</ele>
        <time>2022-09-18T10:16:38.000Z</time>
      </trkpt>
      <trkpt lat="49.82774" lon="4.85226">
        <ele>351</ele>
        <time>2022-09-18T10:16:39.000Z</time>
      </trkpt>
      <trkpt lat="49.82774" lon="4.85226">
        <ele>351</ele>
        <time>2022-09-18T10:16:40.000Z</time>
      </trkpt>
      <trkpt lat="49.82774" lon="4.85226">
        <ele>351</ele>
        <time>2022-09-18T10:16:41.000Z</time>
      </trkpt>
      <trkpt lat="49.82775" lon="4.85226">
        <ele>351</ele>
        <time>2022-09-18T10:16:42.000Z</time>
      </trkpt>
      <trkpt lat="49.82775" lon="4.85225">
        <ele>351</ele>
        <time>2022-09-18T10:16:43.000Z</time>
      </trkpt>
      <trkpt lat="49.82775" lon="4.85225">
        <ele>351</ele>
        <time>2022-09-18T10:16:44.000Z</time>
      </trkpt>
      <trkpt lat="49.82775" lon="4.85225">
        <ele>351</ele>
        <time>2022-09-18T10:16:45.000Z</time>
      </trkpt>
      <trkpt lat="49.82775" lon="4.85225">
        <ele>351</ele>
        <time>2022-09-18T10:16:46.000Z</time>
      </trkpt>
      <trkpt lat="49.82775" lon="4.85225">
        <ele>351</ele>
        <time>2022-09-18T10:16:47.000Z</time>
      </trkpt>
      <trkpt lat="49.82775" lon="4.85225">
        <ele>351</ele>
        <time>2022-09-18T10:16:48.000Z</time>
      </trkpt>
      <trkpt lat="49.82775" lon="4.85226">
        <ele>351</ele>
        <time>2022-09-18T10:16:49.000Z</time>
      </trkpt>
      <trkpt lat="49.82775" lon="4.85225">
        <ele>351</ele>
        <time>2022-09-18T10:16:50.000Z</time>
      </trkpt>
      <trkpt lat="49.82775" lon="4.85225">
        <ele>351</ele>
        <time>2022-09-18T10:16:51.000Z</time>
      </trkpt>
      <trkpt lat="49.82775" lon="4.85225">
        <ele>351</ele>
        <time>2022-09-18T10:16:52.000Z</time>
      </trkpt>
      <trkpt lat="49.82775" lon="4.85225">
        <ele>351</ele>
        <time>2022-09-18T10:16:53.000Z</time>
      </trkpt>
      <trkpt lat="49.82775" lon="4.85225">
        <ele>352</ele>
        <time>2022-09-18T10:16:54.000Z</time>
      </trkpt>
      <trkpt lat="49.82775" lon="4.85225">
        <ele>352</ele>
        <time>2022-09-18T10:16:55.000Z</time>
      </trkpt>
      <trkpt lat="49.82775" lon="4.85225">
        <ele>352</ele>
        <time>2022-09-18T10:16:56.000Z</time>
      </trkpt>
      <trkpt lat="49.82775" lon="4.85225">
        <ele>352</ele>
        <time>2022-09-18T10:16:57.000Z</time>
      </trkpt>
      <trkpt lat="49.82775" lon="4.85225">
        <ele>352</ele>
        <time>2022-09-18T10:16:58.000Z</time>
      </trkpt>
      <trkpt lat="49.82775" lon="4.85225">
        <ele>352</ele>
        <time>2022-09-18T10:16:59.000Z</time>
      </trkpt>
      <trkpt lat="49.82775" lon="4.85225">
        <ele>352</ele>
        <time>2022-09-18T10:17:00.000Z</time>
      </trkpt>
      <trkpt lat="49.82775" lon="4.85225">
        <ele>352</ele>
        <time>2022-09-18T10:17:01.000Z</time>
      </trkpt>
      <trkpt lat="49.82775" lon="4.85225">
        <ele>352</ele>
        <time>2022-09-18T10:17:02.000Z</time>
      </trkpt>
      <trkpt lat="49.82775" lon="4.85225">
        <ele>352</ele>
        <time>2022-09-18T10:17:03.000Z</time>
      </trkpt>
      <trkpt lat="49.82774" lon="4.85226">
        <ele>353</ele>
        <time>2022-09-18T10:17:04.000Z</time>
      </trkpt>
      <trkpt lat="49.82774" lon="4.85225">
        <ele>353</ele>
        <time>2022-09-18T10:17:05.000Z</time>
      </trkpt>
      <trkpt lat="49.82773" lon="4.85225">
        <ele>353</ele>
        <time>2022-09-18T10:17:06.000Z</time>
      </trkpt>
      <trkpt lat="49.82771" lon="4.85224">
        <ele>353</ele>
        <time>2022-09-18T10:17:07.000Z</time>
      </trkpt>
      <trkpt lat="49.8277" lon="4.85223">
        <ele>353</ele>
        <time>2022-09-18T10:17:08.000Z</time>
      </trkpt>
      <trkpt lat="49.82769" lon="4.8522">
        <ele>353</ele>
        <time>2022-09-18T10:17:09.000Z</time>
      </trkpt>
      <trkpt lat="49.82767" lon="4.85216">
        <ele>353</ele>
        <time>2022-09-18T10:17:10.000Z</time>
      </trkpt>
      <trkpt lat="49.82765" lon="4.85211">
        <ele>352</ele>
        <time>2022-09-18T10:17:11.000Z</time>
      </trkpt>
      <trkpt lat="49.82762" lon="4.85206">
        <ele>352</ele>
        <time>2022-09-18T10:17:12.000Z</time>
      </trkpt>
      <trkpt lat="49.82759" lon="4.852">
        <ele>352</ele>
        <time>2022-09-18T10:17:13.000Z</time>
      </trkpt>
      <trkpt lat="49.82756" lon="4.85194">
        <ele>352</ele>
        <time>2022-09-18T10:17:14.000Z</time>
      </trkpt>
      <trkpt lat="49.82754" lon="4.85188">
        <ele>352</ele>
        <time>2022-09-18T10:17:15.000Z</time>
      </trkpt>
      <trkpt lat="49.82752" lon="4.85181">
        <ele>352</ele>
        <time>2022-09-18T10:17:16.000Z</time>
      </trkpt>
      <trkpt lat="49.82749" lon="4.85175">
        <ele>352</ele>
        <time>2022-09-18T10:17:17.000Z</time>
      </trkpt>
      <trkpt lat="49.82747" lon="4.8517">
        <ele>352</ele>
        <time>2022-09-18T10:17:18.000Z</time>
      </trkpt>
      <trkpt lat="49.82744" lon="4.85163">
        <ele>351</ele>
        <time>2022-09-18T10:17:19.000Z</time>
      </trkpt>
      <trkpt lat="49.82741" lon="4.85155">
        <ele>351</ele>
        <time>2022-09-18T10:17:20.000Z</time>
      </trkpt>
      <trkpt lat="49.82737" lon="4.85148">
        <ele>351</ele>
        <time>2022-09-18T10:17:21.000Z</time>
      </trkpt>
      <trkpt lat="49.82734" lon="4.85141">
        <ele>351</ele>
        <time>2022-09-18T10:17:22.000Z</time>
      </trkpt>
      <trkpt lat="49.82732" lon="4.85134">
        <ele>350</ele>
        <time>2022-09-18T10:17:23.000Z</time>
      </trkpt>
      <trkpt lat="49.82729" lon="4.85127">
        <ele>350</ele>
        <time>2022-09-18T10:17:24.000Z</time>
      </trkpt>
      <trkpt lat="49.82726" lon="4.85121">
        <ele>350</ele>
        <time>2022-09-18T10:17:25.000Z</time>
      </trkpt>
      <trkpt lat="49.82723" lon="4.85115">
        <ele>350</ele>
        <time>2022-09-18T10:17:26.000Z</time>
      </trkpt>
      <trkpt lat="49.8272" lon="4.85108">
        <ele>350</ele>
        <time>2022-09-18T10:17:27.000Z</time>
      </trkpt>
      <trkpt lat="49.82716" lon="4.85101">
        <ele>350</ele>
        <time>2022-09-18T10:17:28.000Z</time>
      </trkpt>
      <trkpt lat="49.82713" lon="4.85095">
        <ele>349</ele>
        <time>2022-09-18T10:17:29.000Z</time>
      </trkpt>
      <trkpt lat="49.8271" lon="4.85088">
        <ele>349</ele>
        <time>2022-09-18T10:17:30.000Z</time>
      </trkpt>
      <trkpt lat="49.82707" lon="4.85082">
        <ele>349</ele>
        <time>2022-09-18T10:17:31.000Z</time>
      </trkpt>
      <trkpt lat="49.82704" lon="4.85076">
        <ele>349</ele>
        <time>2022-09-18T10:17:32.000Z</time>
      </trkpt>
      <trkpt lat="49.82701" lon="4.85069">
        <ele>349</ele>
        <time>2022-09-18T10:17:33.000Z</time>
      </trkpt>
      <trkpt lat="49.82698" lon="4.85063">
        <ele>348</ele>
        <time>2022-09-18T10:17:34.000Z</time>
      </trkpt>
      <trkpt lat="49.82695" lon="4.85058">
        <ele>348</ele>
        <time>2022-09-18T10:17:35.000Z</time>
      </trkpt>
      <trkpt lat="49.82693" lon="4.85053">
        <ele>348</ele>
        <time>2022-09-18T10:17:36.000Z</time>
      </trkpt>
      <trkpt lat="49.8269" lon="4.85047">
        <ele>348</ele>
        <time>2022-09-18T10:17:37.000Z</time>
      </trkpt>
      <trkpt lat="49.82688" lon="4.85042">
        <ele>347</ele>
        <time>2022-09-18T10:17:38.000Z</time>
      </trkpt>
      <trkpt lat="49.82685" lon="4.85037">
        <ele>347</ele>
        <time>2022-09-18T10:17:39.000Z</time>
      </trkpt>
      <trkpt lat="49.82683" lon="4.85032">
        <ele>347</ele>
        <time>2022-09-18T10:17:40.000Z</time>
      </trkpt>
      <trkpt lat="49.82681" lon="4.85028">
        <ele>347</ele>
        <time>2022-09-18T10:17:41.000Z</time>
      </trkpt>
      <trkpt lat="49.82679" lon="4.85024">
        <ele>347</ele>
        <time>2022-09-18T10:17:42.000Z</time>
      </trkpt>
      <trkpt lat="49.82676" lon="4.85019">
        <ele>346</ele>
        <time>2022-09-18T10:17:43.000Z</time>
      </trkpt>
      <trkpt lat="49.82674" lon="4.85014">
        <ele>346</ele>
        <time>2022-09-18T10:17:44.000Z</time>
      </trkpt>
      <trkpt lat="49.82672" lon="4.85009">
        <ele>346</ele>
        <time>2022-09-18T10:17:45.000Z</time>
      </trkpt>
      <trkpt lat="49.82669" lon="4.85004">
        <ele>346</ele>
        <time>2022-09-18T10:17:46.000Z</time>
      </trkpt>
      <trkpt lat="49.82667" lon="4.84999">
        <ele>346</ele>
        <time>2022-09-18T10:17:47.000Z</time>
      </trkpt>
      <trkpt lat="49.82665" lon="4.84993">
        <ele>346</ele>
        <time>2022-09-18T10:17:48.000Z</time>
      </trkpt>
      <trkpt lat="49.82663" lon="4.84988">
        <ele>346</ele>
        <time>2022-09-18T10:17:49.000Z</time>
      </trkpt>
      <trkpt lat="49.8266" lon="4.84982">
        <ele>346</ele>
        <time>2022-09-18T10:17:50.000Z</time>
      </trkpt>
      <trkpt lat="49.82658" lon="4.84977">
        <ele>346</ele>
        <time>2022-09-18T10:17:51.000Z</time>
      </trkpt>
      <trkpt lat="49.82656" lon="4.84972">
        <ele>346</ele>
        <time>2022-09-18T10:17:52.000Z</time>
      </trkpt>
      <trkpt lat="49.82653" lon="4.84967">
        <ele>346</ele>
        <time>2022-09-18T10:17:53.000Z</time>
      </trkpt>
      <trkpt lat="49.8265" lon="4.84961">
        <ele>346</ele>
        <time>2022-09-18T10:17:54.000Z</time>
      </trkpt>
      <trkpt lat="49.82647" lon="4.84955">
        <ele>346</ele>
        <time>2022-09-18T10:17:55.000Z</time>
      </trkpt>
      <trkpt lat="49.82644" lon="4.84949">
        <ele>346</ele>
        <time>2022-09-18T10:17:56.000Z</time>
      </trkpt>
      <trkpt lat="49.82642" lon="4.84943">
        <ele>346</ele>
        <time>2022-09-18T10:17:57.000Z</time>
      </trkpt>
      <trkpt lat="49.82639" lon="4.84937">
        <ele>346</ele>
        <time>2022-09-18T10:17:58.000Z</time>
      </trkpt>
      <trkpt lat="49.82636" lon="4.84931">
        <ele>346</ele>
        <time>2022-09-18T10:17:59.000Z</time>
      </trkpt>
      <trkpt lat="49.82634" lon="4.84925">
        <ele>346</ele>
        <time>2022-09-18T10:18:00.000Z</time>
      </trkpt>
      <trkpt lat="49.82631" lon="4.84919">
        <ele>346</ele>
        <time>2022-09-18T10:18:01.000Z</time>
      </trkpt>
      <trkpt lat="49.82628" lon="4.84913">
        <ele>346</ele>
        <time>2022-09-18T10:18:02.000Z</time>
      </trkpt>
      <trkpt lat="49.82626" lon="4.84907">
        <ele>346</ele>
        <time>2022-09-18T10:18:03.000Z</time>
      </trkpt>
      <trkpt lat="49.82624" lon="4.84902">
        <ele>346</ele>
        <time>2022-09-18T10:18:04.000Z</time>
      </trkpt>
      <trkpt lat="49.82621" lon="4.84896">
        <ele>346</ele>
        <time>2022-09-18T10:18:05.000Z</time>
      </trkpt>
      <trkpt lat="49.82618" lon="4.84891">
        <ele>346</ele>
        <time>2022-09-18T10:18:06.000Z</time>
      </trkpt>
      <trkpt lat="49.82615" lon="4.84885">
        <ele>346</ele>
        <time>2022-09-18T10:18:07.000Z</time>
      </trkpt>
      <trkpt lat="49.82613" lon="4.84881">
        <ele>346</ele>
        <time>2022-09-18T10:18:08.000Z</time>
      </trkpt>
      <trkpt lat="49.8261" lon="4.84876">
        <ele>346</ele>
        <time>2022-09-18T10:18:09.000Z</time>
      </trkpt>
      <trkpt lat="49.82608" lon="4.84872">
        <ele>346</ele>
        <time>2022-09-18T10:18:10.000Z</time>
      </trkpt>
      <trkpt lat="49.82605" lon="4.84867">
        <ele>346</ele>
        <time>2022-09-18T10:18:11.000Z</time>
      </trkpt>
      <trkpt lat="49.82603" lon="4.84863">
        <ele>346</ele>
        <time>2022-09-18T10:18:12.000Z</time>
      </trkpt>
      <trkpt lat="49.82601" lon="4.8486">
        <ele>346</ele>
        <time>2022-09-18T10:18:13.000Z</time>
      </trkpt>
      <trkpt lat="49.82598" lon="4.84855">
        <ele>346</ele>
        <time>2022-09-18T10:18:14.000Z</time>
      </trkpt>
      <trkpt lat="49.82596" lon="4.8485">
        <ele>347</ele>
        <time>2022-09-18T10:18:15.000Z</time>
      </trkpt>
      <trkpt lat="49.82593" lon="4.84846">
        <ele>347</ele>
        <time>2022-09-18T10:18:16.000Z</time>
      </trkpt>
      <trkpt lat="49.82591" lon="4.84841">
        <ele>347</ele>
        <time>2022-09-18T10:18:17.000Z</time>
      </trkpt>
      <trkpt lat="49.82588" lon="4.84836">
        <ele>347</ele>
        <time>2022-09-18T10:18:18.000Z</time>
      </trkpt>
      <trkpt lat="49.82586" lon="4.84831">
        <ele>347</ele>
        <time>2022-09-18T10:18:19.000Z</time>
      </trkpt>
      <trkpt lat="49.82584" lon="4.84827">
        <ele>348</ele>
        <time>2022-09-18T10:18:20.000Z</time>
      </trkpt>
      <trkpt lat="49.82581" lon="4.84822">
        <ele>348</ele>
        <time>2022-09-18T10:18:21.000Z</time>
      </trkpt>
      <trkpt lat="49.82578" lon="4.84817">
        <ele>348</ele>
        <time>2022-09-18T10:18:22.000Z</time>
      </trkpt>
      <trkpt lat="49.82576" lon="4.84813">
        <ele>349</ele>
        <time>2022-09-18T10:18:23.000Z</time>
      </trkpt>
      <trkpt lat="49.82573" lon="4.84808">
        <ele>349</ele>
        <time>2022-09-18T10:18:24.000Z</time>
      </trkpt>
      <trkpt lat="49.82571" lon="4.84803">
        <ele>349</ele>
        <time>2022-09-18T10:18:25.000Z</time>
      </trkpt>
      <trkpt lat="49.82568" lon="4.84798">
        <ele>349</ele>
        <time>2022-09-18T10:18:26.000Z</time>
      </trkpt>
      <trkpt lat="49.82566" lon="4.84793">
        <ele>350</ele>
        <time>2022-09-18T10:18:27.000Z</time>
      </trkpt>
      <trkpt lat="49.82563" lon="4.84788">
        <ele>350</ele>
        <time>2022-09-18T10:18:28.000Z</time>
      </trkpt>
      <trkpt lat="49.82561" lon="4.84783">
        <ele>350</ele>
        <time>2022-09-18T10:18:29.000Z</time>
      </trkpt>
      <trkpt lat="49.82558" lon="4.84778">
        <ele>350</ele>
        <time>2022-09-18T10:18:30.000Z</time>
      </trkpt>
      <trkpt lat="49.82555" lon="4.84773">
        <ele>350</ele>
        <time>2022-09-18T10:18:31.000Z</time>
      </trkpt>
      <trkpt lat="49.82553" lon="4.84767">
        <ele>350</ele>
        <time>2022-09-18T10:18:32.000Z</time>
      </trkpt>
      <trkpt lat="49.82551" lon="4.84762">
        <ele>351</ele>
        <time>2022-09-18T10:18:33.000Z</time>
      </trkpt>
      <trkpt lat="49.82549" lon="4.84757">
        <ele>351</ele>
        <time>2022-09-18T10:18:34.000Z</time>
      </trkpt>
      <trkpt lat="49.82546" lon="4.84751">
        <ele>351</ele>
        <time>2022-09-18T10:18:35.000Z</time>
      </trkpt>
      <trkpt lat="49.82544" lon="4.84744">
        <ele>351</ele>
        <time>2022-09-18T10:18:36.000Z</time>
      </trkpt>
      <trkpt lat="49.82541" lon="4.84736">
        <ele>351</ele>
        <time>2022-09-18T10:18:37.000Z</time>
      </trkpt>
      <trkpt lat="49.82537" lon="4.84728">
        <ele>351</ele>
        <time>2022-09-18T10:18:38.000Z</time>
      </trkpt>
      <trkpt lat="49.82534" lon="4.84721">
        <ele>351</ele>
        <time>2022-09-18T10:18:39.000Z</time>
      </trkpt>
      <trkpt lat="49.8253" lon="4.84714">
        <ele>351</ele>
        <time>2022-09-18T10:18:40.000Z</time>
      </trkpt>
      <trkpt lat="49.82526" lon="4.84706">
        <ele>351</ele>
        <time>2022-09-18T10:18:41.000Z</time>
      </trkpt>
      <trkpt lat="49.82523" lon="4.84698">
        <ele>351</ele>
        <time>2022-09-18T10:18:42.000Z</time>
      </trkpt>
      <trkpt lat="49.82519" lon="4.84691">
        <ele>351</ele>
        <time>2022-09-18T10:18:43.000Z</time>
      </trkpt>
      <trkpt lat="49.82516" lon="4.84685">
        <ele>351</ele>
        <time>2022-09-18T10:18:44.000Z</time>
      </trkpt>
      <trkpt lat="49.82512" lon="4.84679">
        <ele>351</ele>
        <time>2022-09-18T10:18:45.000Z</time>
      </trkpt>
      <trkpt lat="49.82509" lon="4.84672">
        <ele>351</ele>
        <time>2022-09-18T10:18:46.000Z</time>
      </trkpt>
      <trkpt lat="49.82505" lon="4.84664">
        <ele>351</ele>
        <time>2022-09-18T10:18:47.000Z</time>
      </trkpt>
      <trkpt lat="49.82501" lon="4.84656">
        <ele>351</ele>
        <time>2022-09-18T10:18:48.000Z</time>
      </trkpt>
      <trkpt lat="49.82497" lon="4.84648">
        <ele>350</ele>
        <time>2022-09-18T10:18:49.000Z</time>
      </trkpt>
      <trkpt lat="49.82494" lon="4.8464">
        <ele>350</ele>
        <time>2022-09-18T10:18:50.000Z</time>
      </trkpt>
      <trkpt lat="49.82491" lon="4.84633">
        <ele>350</ele>
        <time>2022-09-18T10:18:51.000Z</time>
      </trkpt>
      <trkpt lat="49.82487" lon="4.84625">
        <ele>350</ele>
        <time>2022-09-18T10:18:52.000Z</time>
      </trkpt>
      <trkpt lat="49.82483" lon="4.84618">
        <ele>349</ele>
        <time>2022-09-18T10:18:53.000Z</time>
      </trkpt>
      <trkpt lat="49.8248" lon="4.8461">
        <ele>349</ele>
        <time>2022-09-18T10:18:54.000Z</time>
      </trkpt>
      <trkpt lat="49.82476" lon="4.84602">
        <ele>349</ele>
        <time>2022-09-18T10:18:55.000Z</time>
      </trkpt>
      <trkpt lat="49.82472" lon="4.84594">
        <ele>348</ele>
        <time>2022-09-18T10:18:56.000Z</time>
      </trkpt>
      <trkpt lat="49.82468" lon="4.84586">
        <ele>348</ele>
        <time>2022-09-18T10:18:57.000Z</time>
      </trkpt>
      <trkpt lat="49.82464" lon="4.84579">
        <ele>348</ele>
        <time>2022-09-18T10:18:58.000Z</time>
      </trkpt>
      <trkpt lat="49.8246" lon="4.84571">
        <ele>347</ele>
        <time>2022-09-18T10:18:59.000Z</time>
      </trkpt>
      <trkpt lat="49.82456" lon="4.84563">
        <ele>347</ele>
        <time>2022-09-18T10:19:00.000Z</time>
      </trkpt>
      <trkpt lat="49.82452" lon="4.84555">
        <ele>346</ele>
        <time>2022-09-18T10:19:01.000Z</time>
      </trkpt>
      <trkpt lat="49.82448" lon="4.84546">
        <ele>346</ele>
        <time>2022-09-18T10:19:02.000Z</time>
      </trkpt>
      <trkpt lat="49.82445" lon="4.84538">
        <ele>345</ele>
        <time>2022-09-18T10:19:03.000Z</time>
      </trkpt>
      <trkpt lat="49.82441" lon="4.8453">
        <ele>344</ele>
        <time>2022-09-18T10:19:04.000Z</time>
      </trkpt>
      <trkpt lat="49.82437" lon="4.84522">
        <ele>344</ele>
        <time>2022-09-18T10:19:05.000Z</time>
      </trkpt>
      <trkpt lat="49.82433" lon="4.84514">
        <ele>343</ele>
        <time>2022-09-18T10:19:06.000Z</time>
      </trkpt>
      <trkpt lat="49.8243" lon="4.84505">
        <ele>342</ele>
        <time>2022-09-18T10:19:07.000Z</time>
      </trkpt>
      <trkpt lat="49.82427" lon="4.84497">
        <ele>342</ele>
        <time>2022-09-18T10:19:08.000Z</time>
      </trkpt>
      <trkpt lat="49.82424" lon="4.8449">
        <ele>341</ele>
        <time>2022-09-18T10:19:09.000Z</time>
      </trkpt>
      <trkpt lat="49.8242" lon="4.84482">
        <ele>340</ele>
        <time>2022-09-18T10:19:10.000Z</time>
      </trkpt>
      <trkpt lat="49.82417" lon="4.84475">
        <ele>340</ele>
        <time>2022-09-18T10:19:11.000Z</time>
      </trkpt>
      <trkpt lat="49.82413" lon="4.84468">
        <ele>339</ele>
        <time>2022-09-18T10:19:12.000Z</time>
      </trkpt>
      <trkpt lat="49.8241" lon="4.84461">
        <ele>339</ele>
        <time>2022-09-18T10:19:13.000Z</time>
      </trkpt>
      <trkpt lat="49.82406" lon="4.84454">
        <ele>338</ele>
        <time>2022-09-18T10:19:14.000Z</time>
      </trkpt>
      <trkpt lat="49.82402" lon="4.84446">
        <ele>337</ele>
        <time>2022-09-18T10:19:15.000Z</time>
      </trkpt>
      <trkpt lat="49.82398" lon="4.84439">
        <ele>336</ele>
        <time>2022-09-18T10:19:16.000Z</time>
      </trkpt>
      <trkpt lat="49.82395" lon="4.84431">
        <ele>336</ele>
        <time>2022-09-18T10:19:17.000Z</time>
      </trkpt>
      <trkpt lat="49.82392" lon="4.84424">
        <ele>335</ele>
        <time>2022-09-18T10:19:18.000Z</time>
      </trkpt>
      <trkpt lat="49.82388" lon="4.84417">
        <ele>334</ele>
        <time>2022-09-18T10:19:19.000Z</time>
      </trkpt>
      <trkpt lat="49.82386" lon="4.84411">
        <ele>333</ele>
        <time>2022-09-18T10:19:20.000Z</time>
      </trkpt>
      <trkpt lat="49.82383" lon="4.84404">
        <ele>332</ele>
        <time>2022-09-18T10:19:21.000Z</time>
      </trkpt>
      <trkpt lat="49.8238" lon="4.84397">
        <ele>331</ele>
        <time>2022-09-18T10:19:22.000Z</time>
      </trkpt>
      <trkpt lat="49.82378" lon="4.84391">
        <ele>331</ele>
        <time>2022-09-18T10:19:23.000Z</time>
      </trkpt>
      <trkpt lat="49.82375" lon="4.84385">
        <ele>330</ele>
        <time>2022-09-18T10:19:24.000Z</time>
      </trkpt>
      <trkpt lat="49.82372" lon="4.84378">
        <ele>329</ele>
        <time>2022-09-18T10:19:25.000Z</time>
      </trkpt>
      <trkpt lat="49.82369" lon="4.84371">
        <ele>328</ele>
        <time>2022-09-18T10:19:26.000Z</time>
      </trkpt>
      <trkpt lat="49.82366" lon="4.84364">
        <ele>327</ele>
        <time>2022-09-18T10:19:27.000Z</time>
      </trkpt>
      <trkpt lat="49.82363" lon="4.84356">
        <ele>326</ele>
        <time>2022-09-18T10:19:28.000Z</time>
      </trkpt>
      <trkpt lat="49.82359" lon="4.84347">
        <ele>325</ele>
        <time>2022-09-18T10:19:29.000Z</time>
      </trkpt>
      <trkpt lat="49.82356" lon="4.84338">
        <ele>324</ele>
        <time>2022-09-18T10:19:30.000Z</time>
      </trkpt>
      <trkpt lat="49.82352" lon="4.8433">
        <ele>323</ele>
        <time>2022-09-18T10:19:31.000Z</time>
      </trkpt>
      <trkpt lat="49.82349" lon="4.84322">
        <ele>322</ele>
        <time>2022-09-18T10:19:32.000Z</time>
      </trkpt>
      <trkpt lat="49.82345" lon="4.84314">
        <ele>321</ele>
        <time>2022-09-18T10:19:33.000Z</time>
      </trkpt>
      <trkpt lat="49.82342" lon="4.84307">
        <ele>320</ele>
        <time>2022-09-18T10:19:34.000Z</time>
      </trkpt>
      <trkpt lat="49.82339" lon="4.84301">
        <ele>319</ele>
        <time>2022-09-18T10:19:35.000Z</time>
      </trkpt>
      <trkpt lat="49.82336" lon="4.84295">
        <ele>318</ele>
        <time>2022-09-18T10:19:36.000Z</time>
      </trkpt>
      <trkpt lat="49.82333" lon="4.84289">
        <ele>317</ele>
        <time>2022-09-18T10:19:37.000Z</time>
      </trkpt>
      <trkpt lat="49.8233" lon="4.84284">
        <ele>316</ele>
        <time>2022-09-18T10:19:38.000Z</time>
      </trkpt>
      <trkpt lat="49.82327" lon="4.84278">
        <ele>315</ele>
        <time>2022-09-18T10:19:39.000Z</time>
      </trkpt>
      <trkpt lat="49.82324" lon="4.84272">
        <ele>314</ele>
        <time>2022-09-18T10:19:40.000Z</time>
      </trkpt>
      <trkpt lat="49.82321" lon="4.84266">
        <ele>313</ele>
        <time>2022-09-18T10:19:41.000Z</time>
      </trkpt>
      <trkpt lat="49.82319" lon="4.84259">
        <ele>312</ele>
        <time>2022-09-18T10:19:42.000Z</time>
      </trkpt>
      <trkpt lat="49.82315" lon="4.84252">
        <ele>311</ele>
        <time>2022-09-18T10:19:43.000Z</time>
      </trkpt>
      <trkpt lat="49.82312" lon="4.84245">
        <ele>310</ele>
        <time>2022-09-18T10:19:44.000Z</time>
      </trkpt>
      <trkpt lat="49.82309" lon="4.84238">
        <ele>309</ele>
        <time>2022-09-18T10:19:45.000Z</time>
      </trkpt>
      <trkpt lat="49.82307" lon="4.84231">
        <ele>308</ele>
        <time>2022-09-18T10:19:46.000Z</time>
      </trkpt>
      <trkpt lat="49.82304" lon="4.84225">
        <ele>307</ele>
        <time>2022-09-18T10:19:47.000Z</time>
      </trkpt>
      <trkpt lat="49.82302" lon="4.8422">
        <ele>306</ele>
        <time>2022-09-18T10:19:48.000Z</time>
      </trkpt>
      <trkpt lat="49.82301" lon="4.84217">
        <ele>305</ele>
        <time>2022-09-18T10:19:49.000Z</time>
      </trkpt>
      <trkpt lat="49.82299" lon="4.84215">
        <ele>304</ele>
        <time>2022-09-18T10:19:50.000Z</time>
      </trkpt>
      <trkpt lat="49.82298" lon="4.84212">
        <ele>303</ele>
        <time>2022-09-18T10:19:51.000Z</time>
      </trkpt>
      <trkpt lat="49.82297" lon="4.84209">
        <ele>302</ele>
        <time>2022-09-18T10:19:52.000Z</time>
      </trkpt>
      <trkpt lat="49.82296" lon="4.84207">
        <ele>301</ele>
        <time>2022-09-18T10:19:53.000Z</time>
      </trkpt>
      <trkpt lat="49.82295" lon="4.84205">
        <ele>301</ele>
        <time>2022-09-18T10:19:54.000Z</time>
      </trkpt>
      <trkpt lat="49.82294" lon="4.84202">
        <ele>300</ele>
        <time>2022-09-18T10:19:55.000Z</time>
      </trkpt>
      <trkpt lat="49.82293" lon="4.84199">
        <ele>299</ele>
        <time>2022-09-18T10:19:56.000Z</time>
      </trkpt>
      <trkpt lat="49.82291" lon="4.84195">
        <ele>298</ele>
        <time>2022-09-18T10:19:57.000Z</time>
      </trkpt>
      <trkpt lat="49.8229" lon="4.84191">
        <ele>298</ele>
        <time>2022-09-18T10:19:58.000Z</time>
      </trkpt>
      <trkpt lat="49.82289" lon="4.84188">
        <ele>297</ele>
        <time>2022-09-18T10:19:59.000Z</time>
      </trkpt>
      <trkpt lat="49.82287" lon="4.84185">
        <ele>297</ele>
        <time>2022-09-18T10:20:00.000Z</time>
      </trkpt>
      <trkpt lat="49.82286" lon="4.8418">
        <ele>296</ele>
        <time>2022-09-18T10:20:01.000Z</time>
      </trkpt>
      <trkpt lat="49.82285" lon="4.84175">
        <ele>295</ele>
        <time>2022-09-18T10:20:02.000Z</time>
      </trkpt>
      <trkpt lat="49.82283" lon="4.84169">
        <ele>295</ele>
        <time>2022-09-18T10:20:03.000Z</time>
      </trkpt>
      <trkpt lat="49.82282" lon="4.84165">
        <ele>294</ele>
        <time>2022-09-18T10:20:04.000Z</time>
      </trkpt>
      <trkpt lat="49.8228" lon="4.84162">
        <ele>294</ele>
        <time>2022-09-18T10:20:05.000Z</time>
      </trkpt>
      <trkpt lat="49.82278" lon="4.84161">
        <ele>293</ele>
        <time>2022-09-18T10:20:06.000Z</time>
      </trkpt>
      <trkpt lat="49.82275" lon="4.8416">
        <ele>293</ele>
        <time>2022-09-18T10:20:07.000Z</time>
      </trkpt>
      <trkpt lat="49.82271" lon="4.8416">
        <ele>292</ele>
        <time>2022-09-18T10:20:08.000Z</time>
      </trkpt>
      <trkpt lat="49.82267" lon="4.84159">
        <ele>291</ele>
        <time>2022-09-18T10:20:09.000Z</time>
      </trkpt>
      <trkpt lat="49.82263" lon="4.84157">
        <ele>291</ele>
        <time>2022-09-18T10:20:10.000Z</time>
      </trkpt>
      <trkpt lat="49.82258" lon="4.84154">
        <ele>290</ele>
        <time>2022-09-18T10:20:11.000Z</time>
      </trkpt>
      <trkpt lat="49.82254" lon="4.8415">
        <ele>290</ele>
        <time>2022-09-18T10:20:12.000Z</time>
      </trkpt>
      <trkpt lat="49.82248" lon="4.84147">
        <ele>289</ele>
        <time>2022-09-18T10:20:13.000Z</time>
      </trkpt>
      <trkpt lat="49.82243" lon="4.84143">
        <ele>288</ele>
        <time>2022-09-18T10:20:14.000Z</time>
      </trkpt>
      <trkpt lat="49.82238" lon="4.84139">
        <ele>288</ele>
        <time>2022-09-18T10:20:15.000Z</time>
      </trkpt>
      <trkpt lat="49.82234" lon="4.84136">
        <ele>287</ele>
        <time>2022-09-18T10:20:16.000Z</time>
      </trkpt>
      <trkpt lat="49.82229" lon="4.84133">
        <ele>286</ele>
        <time>2022-09-18T10:20:17.000Z</time>
      </trkpt>
      <trkpt lat="49.82225" lon="4.84129">
        <ele>286</ele>
        <time>2022-09-18T10:20:18.000Z</time>
      </trkpt>
      <trkpt lat="49.82221" lon="4.84124">
        <ele>285</ele>
        <time>2022-09-18T10:20:19.000Z</time>
      </trkpt>
      <trkpt lat="49.82218" lon="4.84119">
        <ele>285</ele>
        <time>2022-09-18T10:20:20.000Z</time>
      </trkpt>
      <trkpt lat="49.82215" lon="4.84114">
        <ele>284</ele>
        <time>2022-09-18T10:20:21.000Z</time>
      </trkpt>
      <trkpt lat="49.82213" lon="4.84109">
        <ele>283</ele>
        <time>2022-09-18T10:20:22.000Z</time>
      </trkpt>
      <trkpt lat="49.82211" lon="4.84104">
        <ele>283</ele>
        <time>2022-09-18T10:20:23.000Z</time>
      </trkpt>
      <trkpt lat="49.8221" lon="4.84101">
        <ele>282</ele>
        <time>2022-09-18T10:20:24.000Z</time>
      </trkpt>
      <trkpt lat="49.82208" lon="4.84097">
        <ele>281</ele>
        <time>2022-09-18T10:20:25.000Z</time>
      </trkpt>
      <trkpt lat="49.82206" lon="4.84092">
        <ele>281</ele>
        <time>2022-09-18T10:20:26.000Z</time>
      </trkpt>
      <trkpt lat="49.82204" lon="4.84088">
        <ele>280</ele>
        <time>2022-09-18T10:20:27.000Z</time>
      </trkpt>
      <trkpt lat="49.82203" lon="4.84084">
        <ele>280</ele>
        <time>2022-09-18T10:20:28.000Z</time>
      </trkpt>
      <trkpt lat="49.82202" lon="4.8408">
        <ele>279</ele>
        <time>2022-09-18T10:20:29.000Z</time>
      </trkpt>
      <trkpt lat="49.82201" lon="4.84076">
        <ele>279</ele>
        <time>2022-09-18T10:20:30.000Z</time>
      </trkpt>
      <trkpt lat="49.822" lon="4.84074">
        <ele>278</ele>
        <time>2022-09-18T10:20:31.000Z</time>
      </trkpt>
      <trkpt lat="49.82198" lon="4.8407">
        <ele>278</ele>
        <time>2022-09-18T10:20:32.000Z</time>
      </trkpt>
      <trkpt lat="49.82197" lon="4.84065">
        <ele>277</ele>
        <time>2022-09-18T10:20:33.000Z</time>
      </trkpt>
      <trkpt lat="49.82195" lon="4.84061">
        <ele>277</ele>
        <time>2022-09-18T10:20:34.000Z</time>
      </trkpt>
      <trkpt lat="49.82193" lon="4.84055">
        <ele>276</ele>
        <time>2022-09-18T10:20:35.000Z</time>
      </trkpt>
      <trkpt lat="49.82191" lon="4.84051">
        <ele>276</ele>
        <time>2022-09-18T10:20:36.000Z</time>
      </trkpt>
      <trkpt lat="49.82189" lon="4.84046">
        <ele>275</ele>
        <time>2022-09-18T10:20:37.000Z</time>
      </trkpt>
      <trkpt lat="49.82186" lon="4.84042">
        <ele>275</ele>
        <time>2022-09-18T10:20:38.000Z</time>
      </trkpt>
      <trkpt lat="49.82184" lon="4.84038">
        <ele>274</ele>
        <time>2022-09-18T10:20:39.000Z</time>
      </trkpt>
      <trkpt lat="49.82181" lon="4.84033">
        <ele>274</ele>
        <time>2022-09-18T10:20:40.000Z</time>
      </trkpt>
      <trkpt lat="49.82179" lon="4.84029">
        <ele>273</ele>
        <time>2022-09-18T10:20:41.000Z</time>
      </trkpt>
      <trkpt lat="49.82176" lon="4.84023">
        <ele>273</ele>
        <time>2022-09-18T10:20:42.000Z</time>
      </trkpt>
      <trkpt lat="49.82174" lon="4.84018">
        <ele>272</ele>
        <time>2022-09-18T10:20:43.000Z</time>
      </trkpt>
      <trkpt lat="49.82172" lon="4.84012">
        <ele>272</ele>
        <time>2022-09-18T10:20:44.000Z</time>
      </trkpt>
      <trkpt lat="49.82169" lon="4.84006">
        <ele>271</ele>
        <time>2022-09-18T10:20:45.000Z</time>
      </trkpt>
      <trkpt lat="49.82166" lon="4.84">
        <ele>270</ele>
        <time>2022-09-18T10:20:46.000Z</time>
      </trkpt>
      <trkpt lat="49.82163" lon="4.83994">
        <ele>270</ele>
        <time>2022-09-18T10:20:47.000Z</time>
      </trkpt>
      <trkpt lat="49.82162" lon="4.83989">
        <ele>269</ele>
        <time>2022-09-18T10:20:48.000Z</time>
      </trkpt>
      <trkpt lat="49.8216" lon="4.83984">
        <ele>269</ele>
        <time>2022-09-18T10:20:49.000Z</time>
      </trkpt>
      <trkpt lat="49.82158" lon="4.83979">
        <ele>268</ele>
        <time>2022-09-18T10:20:50.000Z</time>
      </trkpt>
      <trkpt lat="49.82156" lon="4.83976">
        <ele>267</ele>
        <time>2022-09-18T10:20:51.000Z</time>
      </trkpt>
      <trkpt lat="49.82153" lon="4.83973">
        <ele>267</ele>
        <time>2022-09-18T10:20:52.000Z</time>
      </trkpt>
      <trkpt lat="49.82152" lon="4.83972">
        <ele>266</ele>
        <time>2022-09-18T10:20:53.000Z</time>
      </trkpt>
      <trkpt lat="49.8215" lon="4.83972">
        <ele>265</ele>
        <time>2022-09-18T10:20:54.000Z</time>
      </trkpt>
      <trkpt lat="49.82148" lon="4.83973">
        <ele>265</ele>
        <time>2022-09-18T10:20:55.000Z</time>
      </trkpt>
      <trkpt lat="49.82147" lon="4.83975">
        <ele>264</ele>
        <time>2022-09-18T10:20:56.000Z</time>
      </trkpt>
      <trkpt lat="49.82145" lon="4.83976">
        <ele>263</ele>
        <time>2022-09-18T10:20:57.000Z</time>
      </trkpt>
      <trkpt lat="49.82142" lon="4.83978">
        <ele>263</ele>
        <time>2022-09-18T10:20:58.000Z</time>
      </trkpt>
      <trkpt lat="49.8214" lon="4.83981">
        <ele>262</ele>
        <time>2022-09-18T10:20:59.000Z</time>
      </trkpt>
      <trkpt lat="49.82137" lon="4.83983">
        <ele>262</ele>
        <time>2022-09-18T10:21:00.000Z</time>
      </trkpt>
      <trkpt lat="49.82135" lon="4.83985">
        <ele>262</ele>
        <time>2022-09-18T10:21:01.000Z</time>
      </trkpt>
      <trkpt lat="49.82132" lon="4.83987">
        <ele>261</ele>
        <time>2022-09-18T10:21:02.000Z</time>
      </trkpt>
      <trkpt lat="49.82129" lon="4.8399">
        <ele>261</ele>
        <time>2022-09-18T10:21:03.000Z</time>
      </trkpt>
      <trkpt lat="49.82125" lon="4.83992">
        <ele>261</ele>
        <time>2022-09-18T10:21:04.000Z</time>
      </trkpt>
      <trkpt lat="49.82121" lon="4.83995">
        <ele>261</ele>
        <time>2022-09-18T10:21:05.000Z</time>
      </trkpt>
      <trkpt lat="49.82117" lon="4.83996">
        <ele>261</ele>
        <time>2022-09-18T10:21:06.000Z</time>
      </trkpt>
      <trkpt lat="49.82113" lon="4.83997">
        <ele>261</ele>
        <time>2022-09-18T10:21:07.000Z</time>
      </trkpt>
      <trkpt lat="49.82109" lon="4.83997">
        <ele>261</ele>
        <time>2022-09-18T10:21:08.000Z</time>
      </trkpt>
      <trkpt lat="49.82105" lon="4.83997">
        <ele>261</ele>
        <time>2022-09-18T10:21:09.000Z</time>
      </trkpt>
      <trkpt lat="49.82101" lon="4.83997">
        <ele>260</ele>
        <time>2022-09-18T10:21:10.000Z</time>
      </trkpt>
      <trkpt lat="49.82098" lon="4.83997">
        <ele>260</ele>
        <time>2022-09-18T10:21:11.000Z</time>
      </trkpt>
      <trkpt lat="49.82094" lon="4.83997">
        <ele>260</ele>
        <time>2022-09-18T10:21:12.000Z</time>
      </trkpt>
      <trkpt lat="49.82089" lon="4.83997">
        <ele>260</ele>
        <time>2022-09-18T10:21:13.000Z</time>
      </trkpt>
      <trkpt lat="49.82085" lon="4.83996">
        <ele>260</ele>
        <time>2022-09-18T10:21:14.000Z</time>
      </trkpt>
      <trkpt lat="49.8208" lon="4.83996">
        <ele>260</ele>
        <time>2022-09-18T10:21:15.000Z</time>
      </trkpt>
      <trkpt lat="49.82076" lon="4.83995">
        <ele>260</ele>
        <time>2022-09-18T10:21:16.000Z</time>
      </trkpt>
      <trkpt lat="49.82071" lon="4.83995">
        <ele>259</ele>
        <time>2022-09-18T10:21:17.000Z</time>
      </trkpt>
      <trkpt lat="49.82066" lon="4.83994">
        <ele>259</ele>
        <time>2022-09-18T10:21:18.000Z</time>
      </trkpt>
      <trkpt lat="49.82061" lon="4.83994">
        <ele>259</ele>
        <time>2022-09-18T10:21:19.000Z</time>
      </trkpt>
      <trkpt lat="49.82056" lon="4.83993">
        <ele>259</ele>
        <time>2022-09-18T10:21:20.000Z</time>
      </trkpt>
      <trkpt lat="49.8205" lon="4.83992">
        <ele>258</ele>
        <time>2022-09-18T10:21:21.000Z</time>
      </trkpt>
      <trkpt lat="49.82045" lon="4.8399">
        <ele>258</ele>
        <time>2022-09-18T10:21:22.000Z</time>
      </trkpt>
      <trkpt lat="49.8204" lon="4.83989">
        <ele>258</ele>
        <time>2022-09-18T10:21:23.000Z</time>
      </trkpt>
      <trkpt lat="49.82035" lon="4.83987">
        <ele>258</ele>
        <time>2022-09-18T10:21:24.000Z</time>
      </trkpt>
      <trkpt lat="49.82029" lon="4.83986">
        <ele>258</ele>
        <time>2022-09-18T10:21:25.000Z</time>
      </trkpt>
      <trkpt lat="49.82024" lon="4.83986">
        <ele>257</ele>
        <time>2022-09-18T10:21:26.000Z</time>
      </trkpt>
      <trkpt lat="49.82019" lon="4.83986">
        <ele>257</ele>
        <time>2022-09-18T10:21:27.000Z</time>
      </trkpt>
      <trkpt lat="49.82015" lon="4.83986">
        <ele>257</ele>
        <time>2022-09-18T10:21:28.000Z</time>
      </trkpt>
      <trkpt lat="49.8201" lon="4.83985">
        <ele>257</ele>
        <time>2022-09-18T10:21:29.000Z</time>
      </trkpt>
      <trkpt lat="49.82006" lon="4.83985">
        <ele>257</ele>
        <time>2022-09-18T10:21:30.000Z</time>
      </trkpt>
      <trkpt lat="49.82001" lon="4.83985">
        <ele>257</ele>
        <time>2022-09-18T10:21:31.000Z</time>
      </trkpt>
      <trkpt lat="49.81996" lon="4.83985">
        <ele>257</ele>
        <time>2022-09-18T10:21:32.000Z</time>
      </trkpt>
      <trkpt lat="49.81993" lon="4.83985">
        <ele>256</ele>
        <time>2022-09-18T10:21:33.000Z</time>
      </trkpt>
      <trkpt lat="49.81988" lon="4.83986">
        <ele>256</ele>
        <time>2022-09-18T10:21:34.000Z</time>
      </trkpt>
      <trkpt lat="49.81985" lon="4.83986">
        <ele>256</ele>
        <time>2022-09-18T10:21:35.000Z</time>
      </trkpt>
      <trkpt lat="49.81981" lon="4.83988">
        <ele>256</ele>
        <time>2022-09-18T10:21:36.000Z</time>
      </trkpt>
      <trkpt lat="49.81978" lon="4.83988">
        <ele>256</ele>
        <time>2022-09-18T10:21:37.000Z</time>
      </trkpt>
      <trkpt lat="49.81975" lon="4.83988">
        <ele>256</ele>
        <time>2022-09-18T10:21:38.000Z</time>
      </trkpt>
      <trkpt lat="49.8197" lon="4.83988">
        <ele>256</ele>
        <time>2022-09-18T10:21:39.000Z</time>
      </trkpt>
      <trkpt lat="49.81964" lon="4.83987">
        <ele>256</ele>
        <time>2022-09-18T10:21:40.000Z</time>
      </trkpt>
      <trkpt lat="49.81956" lon="4.83985">
        <ele>256</ele>
        <time>2022-09-18T10:21:41.000Z</time>
      </trkpt>
      <trkpt lat="49.81949" lon="4.83984">
        <ele>256</ele>
        <time>2022-09-18T10:21:42.000Z</time>
      </trkpt>
      <trkpt lat="49.81942" lon="4.83982">
        <ele>256</ele>
        <time>2022-09-18T10:21:43.000Z</time>
      </trkpt>
      <trkpt lat="49.81935" lon="4.8398">
        <ele>255</ele>
        <time>2022-09-18T10:21:44.000Z</time>
      </trkpt>
      <trkpt lat="49.81928" lon="4.83979">
        <ele>255</ele>
        <time>2022-09-18T10:21:45.000Z</time>
      </trkpt>
      <trkpt lat="49.81922" lon="4.83977">
        <ele>255</ele>
        <time>2022-09-18T10:21:46.000Z</time>
      </trkpt>
      <trkpt lat="49.81916" lon="4.83975">
        <ele>255</ele>
        <time>2022-09-18T10:21:47.000Z</time>
      </trkpt>
      <trkpt lat="49.81909" lon="4.83972">
        <ele>255</ele>
        <time>2022-09-18T10:21:48.000Z</time>
      </trkpt>
      <trkpt lat="49.81902" lon="4.83971">
        <ele>254</ele>
        <time>2022-09-18T10:21:49.000Z</time>
      </trkpt>
      <trkpt lat="49.81895" lon="4.8397">
        <ele>254</ele>
        <time>2022-09-18T10:21:50.000Z</time>
      </trkpt>
      <trkpt lat="49.81888" lon="4.83969">
        <ele>254</ele>
        <time>2022-09-18T10:21:51.000Z</time>
      </trkpt>
      <trkpt lat="49.81881" lon="4.83967">
        <ele>254</ele>
        <time>2022-09-18T10:21:52.000Z</time>
      </trkpt>
      <trkpt lat="49.81875" lon="4.83965">
        <ele>254</ele>
        <time>2022-09-18T10:21:53.000Z</time>
      </trkpt>
      <trkpt lat="49.81868" lon="4.83964">
        <ele>253</ele>
        <time>2022-09-18T10:21:54.000Z</time>
      </trkpt>
      <trkpt lat="49.81862" lon="4.83962">
        <ele>253</ele>
        <time>2022-09-18T10:21:55.000Z</time>
      </trkpt>
      <trkpt lat="49.81856" lon="4.8396">
        <ele>253</ele>
        <time>2022-09-18T10:21:56.000Z</time>
      </trkpt>
      <trkpt lat="49.8185" lon="4.83958">
        <ele>252</ele>
        <time>2022-09-18T10:21:57.000Z</time>
      </trkpt>
      <trkpt lat="49.81844" lon="4.83958">
        <ele>252</ele>
        <time>2022-09-18T10:21:58.000Z</time>
      </trkpt>
      <trkpt lat="49.81838" lon="4.83958">
        <ele>252</ele>
        <time>2022-09-18T10:21:59.000Z</time>
      </trkpt>
      <trkpt lat="49.81833" lon="4.83958">
        <ele>251</ele>
        <time>2022-09-18T10:22:00.000Z</time>
      </trkpt>
      <trkpt lat="49.81828" lon="4.83957">
        <ele>251</ele>
        <time>2022-09-18T10:22:01.000Z</time>
      </trkpt>
      <trkpt lat="49.81823" lon="4.83956">
        <ele>251</ele>
        <time>2022-09-18T10:22:02.000Z</time>
      </trkpt>
      <trkpt lat="49.81818" lon="4.83954">
        <ele>250</ele>
        <time>2022-09-18T10:22:03.000Z</time>
      </trkpt>
      <trkpt lat="49.81814" lon="4.83952">
        <ele>250</ele>
        <time>2022-09-18T10:22:04.000Z</time>
      </trkpt>
      <trkpt lat="49.8181" lon="4.83949">
        <ele>249</ele>
        <time>2022-09-18T10:22:05.000Z</time>
      </trkpt>
      <trkpt lat="49.81807" lon="4.83948">
        <ele>249</ele>
        <time>2022-09-18T10:22:06.000Z</time>
      </trkpt>
      <trkpt lat="49.81803" lon="4.83947">
        <ele>249</ele>
        <time>2022-09-18T10:22:07.000Z</time>
      </trkpt>
      <trkpt lat="49.818" lon="4.83946">
        <ele>248</ele>
        <time>2022-09-18T10:22:08.000Z</time>
      </trkpt>
      <trkpt lat="49.81796" lon="4.83945">
        <ele>248</ele>
        <time>2022-09-18T10:22:09.000Z</time>
      </trkpt>
      <trkpt lat="49.81793" lon="4.83942">
        <ele>247</ele>
        <time>2022-09-18T10:22:10.000Z</time>
      </trkpt>
      <trkpt lat="49.81791" lon="4.83938">
        <ele>247</ele>
        <time>2022-09-18T10:22:11.000Z</time>
      </trkpt>
      <trkpt lat="49.81789" lon="4.83935">
        <ele>246</ele>
        <time>2022-09-18T10:22:12.000Z</time>
      </trkpt>
      <trkpt lat="49.81787" lon="4.83931">
        <ele>246</ele>
        <time>2022-09-18T10:22:13.000Z</time>
      </trkpt>
      <trkpt lat="49.81785" lon="4.83927">
        <ele>245</ele>
        <time>2022-09-18T10:22:14.000Z</time>
      </trkpt>
      <trkpt lat="49.81783" lon="4.83923">
        <ele>245</ele>
        <time>2022-09-18T10:22:15.000Z</time>
      </trkpt>
      <trkpt lat="49.81781" lon="4.83919">
        <ele>244</ele>
        <time>2022-09-18T10:22:16.000Z</time>
      </trkpt>
      <trkpt lat="49.81778" lon="4.83917">
        <ele>243</ele>
        <time>2022-09-18T10:22:17.000Z</time>
      </trkpt>
      <trkpt lat="49.81776" lon="4.83914">
        <ele>243</ele>
        <time>2022-09-18T10:22:18.000Z</time>
      </trkpt>
      <trkpt lat="49.81774" lon="4.83913">
        <ele>242</ele>
        <time>2022-09-18T10:22:19.000Z</time>
      </trkpt>
      <trkpt lat="49.81772" lon="4.83913">
        <ele>242</ele>
        <time>2022-09-18T10:22:20.000Z</time>
      </trkpt>
      <trkpt lat="49.8177" lon="4.83916">
        <ele>241</ele>
        <time>2022-09-18T10:22:21.000Z</time>
      </trkpt>
      <trkpt lat="49.81768" lon="4.8392">
        <ele>241</ele>
        <time>2022-09-18T10:22:22.000Z</time>
      </trkpt>
      <trkpt lat="49.81766" lon="4.83924">
        <ele>240</ele>
        <time>2022-09-18T10:22:23.000Z</time>
      </trkpt>
      <trkpt lat="49.81764" lon="4.83929">
        <ele>239</ele>
        <time>2022-09-18T10:22:24.000Z</time>
      </trkpt>
      <trkpt lat="49.81763" lon="4.83934">
        <ele>239</ele>
        <time>2022-09-18T10:22:25.000Z</time>
      </trkpt>
      <trkpt lat="49.81761" lon="4.83941">
        <ele>238</ele>
        <time>2022-09-18T10:22:26.000Z</time>
      </trkpt>
      <trkpt lat="49.81759" lon="4.83948">
        <ele>238</ele>
        <time>2022-09-18T10:22:27.000Z</time>
      </trkpt>
      <trkpt lat="49.81757" lon="4.83954">
        <ele>237</ele>
        <time>2022-09-18T10:22:28.000Z</time>
      </trkpt>
      <trkpt lat="49.81755" lon="4.83961">
        <ele>237</ele>
        <time>2022-09-18T10:22:29.000Z</time>
      </trkpt>
      <trkpt lat="49.81754" lon="4.83968">
        <ele>236</ele>
        <time>2022-09-18T10:22:30.000Z</time>
      </trkpt>
      <trkpt lat="49.81753" lon="4.83974">
        <ele>236</ele>
        <time>2022-09-18T10:22:31.000Z</time>
      </trkpt>
      <trkpt lat="49.81752" lon="4.8398">
        <ele>236</ele>
        <time>2022-09-18T10:22:32.000Z</time>
      </trkpt>
      <trkpt lat="49.81751" lon="4.83986">
        <ele>235</ele>
        <time>2022-09-18T10:22:33.000Z</time>
      </trkpt>
      <trkpt lat="49.81749" lon="4.83992">
        <ele>235</ele>
        <time>2022-09-18T10:22:34.000Z</time>
      </trkpt>
      <trkpt lat="49.81747" lon="4.83997">
        <ele>235</ele>
        <time>2022-09-18T10:22:35.000Z</time>
      </trkpt>
      <trkpt lat="49.81746" lon="4.84001">
        <ele>235</ele>
        <time>2022-09-18T10:22:36.000Z</time>
      </trkpt>
      <trkpt lat="49.81745" lon="4.84005">
        <ele>234</ele>
        <time>2022-09-18T10:22:37.000Z</time>
      </trkpt>
      <trkpt lat="49.81744" lon="4.8401">
        <ele>234</ele>
        <time>2022-09-18T10:22:38.000Z</time>
      </trkpt>
      <trkpt lat="49.81743" lon="4.84015">
        <ele>234</ele>
        <time>2022-09-18T10:22:39.000Z</time>
      </trkpt>
      <trkpt lat="49.81743" lon="4.84021">
        <ele>234</ele>
        <time>2022-09-18T10:22:40.000Z</time>
      </trkpt>
      <trkpt lat="49.81743" lon="4.84027">
        <ele>233</ele>
        <time>2022-09-18T10:22:41.000Z</time>
      </trkpt>
      <trkpt lat="49.81743" lon="4.84033">
        <ele>233</ele>
        <time>2022-09-18T10:22:42.000Z</time>
      </trkpt>
      <trkpt lat="49.81743" lon="4.84039">
        <ele>232</ele>
        <time>2022-09-18T10:22:43.000Z</time>
      </trkpt>
      <trkpt lat="49.81743" lon="4.84046">
        <ele>232</ele>
        <time>2022-09-18T10:22:44.000Z</time>
      </trkpt>
      <trkpt lat="49.81742" lon="4.84052">
        <ele>232</ele>
        <time>2022-09-18T10:22:45.000Z</time>
      </trkpt>
      <trkpt lat="49.81743" lon="4.84058">
        <ele>231</ele>
        <time>2022-09-18T10:22:46.000Z</time>
      </trkpt>
      <trkpt lat="49.81743" lon="4.84064">
        <ele>231</ele>
        <time>2022-09-18T10:22:47.000Z</time>
      </trkpt>
      <trkpt lat="49.81744" lon="4.84071">
        <ele>231</ele>
        <time>2022-09-18T10:22:48.000Z</time>
      </trkpt>
      <trkpt lat="49.81745" lon="4.84077">
        <ele>231</ele>
        <time>2022-09-18T10:22:49.000Z</time>
      </trkpt>
      <trkpt lat="49.81745" lon="4.84083">
        <ele>230</ele>
        <time>2022-09-18T10:22:50.000Z</time>
      </trkpt>
      <trkpt lat="49.81746" lon="4.84089">
        <ele>230</ele>
        <time>2022-09-18T10:22:51.000Z</time>
      </trkpt>
      <trkpt lat="49.81747" lon="4.84096">
        <ele>229</ele>
        <time>2022-09-18T10:22:52.000Z</time>
      </trkpt>
      <trkpt lat="49.81749" lon="4.84102">
        <ele>229</ele>
        <time>2022-09-18T10:22:53.000Z</time>
      </trkpt>
      <trkpt lat="49.8175" lon="4.84108">
        <ele>229</ele>
        <time>2022-09-18T10:22:54.000Z</time>
      </trkpt>
      <trkpt lat="49.81751" lon="4.84113">
        <ele>228</ele>
        <time>2022-09-18T10:22:55.000Z</time>
      </trkpt>
      <trkpt lat="49.81751" lon="4.84117">
        <ele>228</ele>
        <time>2022-09-18T10:22:56.000Z</time>
      </trkpt>
      <trkpt lat="49.81752" lon="4.84122">
        <ele>227</ele>
        <time>2022-09-18T10:22:57.000Z</time>
      </trkpt>
      <trkpt lat="49.81753" lon="4.84126">
        <ele>227</ele>
        <time>2022-09-18T10:22:58.000Z</time>
      </trkpt>
      <trkpt lat="49.81754" lon="4.84131">
        <ele>227</ele>
        <time>2022-09-18T10:22:59.000Z</time>
      </trkpt>
      <trkpt lat="49.81755" lon="4.84136">
        <ele>227</ele>
        <time>2022-09-18T10:23:00.000Z</time>
      </trkpt>
      <trkpt lat="49.81756" lon="4.84142">
        <ele>227</ele>
        <time>2022-09-18T10:23:01.000Z</time>
      </trkpt>
      <trkpt lat="49.81757" lon="4.84147">
        <ele>227</ele>
        <time>2022-09-18T10:23:02.000Z</time>
      </trkpt>
      <trkpt lat="49.81756" lon="4.84151">
        <ele>227</ele>
        <time>2022-09-18T10:23:03.000Z</time>
      </trkpt>
      <trkpt lat="49.81756" lon="4.84156">
        <ele>227</ele>
        <time>2022-09-18T10:23:04.000Z</time>
      </trkpt>
      <trkpt lat="49.81756" lon="4.84161">
        <ele>226</ele>
        <time>2022-09-18T10:23:05.000Z</time>
      </trkpt>
      <trkpt lat="49.81756" lon="4.84166">
        <ele>226</ele>
        <time>2022-09-18T10:23:06.000Z</time>
      </trkpt>
      <trkpt lat="49.81756" lon="4.8417">
        <ele>226</ele>
        <time>2022-09-18T10:23:07.000Z</time>
      </trkpt>
      <trkpt lat="49.81756" lon="4.84175">
        <ele>226</ele>
        <time>2022-09-18T10:23:08.000Z</time>
      </trkpt>
      <trkpt lat="49.81757" lon="4.8418">
        <ele>226</ele>
        <time>2022-09-18T10:23:09.000Z</time>
      </trkpt>
      <trkpt lat="49.81757" lon="4.84185">
        <ele>226</ele>
        <time>2022-09-18T10:23:10.000Z</time>
      </trkpt>
      <trkpt lat="49.81757" lon="4.8419">
        <ele>226</ele>
        <time>2022-09-18T10:23:11.000Z</time>
      </trkpt>
      <trkpt lat="49.81759" lon="4.84195">
        <ele>226</ele>
        <time>2022-09-18T10:23:12.000Z</time>
      </trkpt>
      <trkpt lat="49.81759" lon="4.842">
        <ele>226</ele>
        <time>2022-09-18T10:23:13.000Z</time>
      </trkpt>
      <trkpt lat="49.8176" lon="4.84205">
        <ele>226</ele>
        <time>2022-09-18T10:23:14.000Z</time>
      </trkpt>
      <trkpt lat="49.8176" lon="4.8421">
        <ele>226</ele>
        <time>2022-09-18T10:23:15.000Z</time>
      </trkpt>
      <trkpt lat="49.8176" lon="4.84214">
        <ele>226</ele>
        <time>2022-09-18T10:23:16.000Z</time>
      </trkpt>
      <trkpt lat="49.81761" lon="4.84219">
        <ele>226</ele>
        <time>2022-09-18T10:23:17.000Z</time>
      </trkpt>
      <trkpt lat="49.81761" lon="4.84224">
        <ele>226</ele>
        <time>2022-09-18T10:23:18.000Z</time>
      </trkpt>
      <trkpt lat="49.81761" lon="4.84229">
        <ele>226</ele>
        <time>2022-09-18T10:23:19.000Z</time>
      </trkpt>
      <trkpt lat="49.81761" lon="4.84234">
        <ele>226</ele>
        <time>2022-09-18T10:23:20.000Z</time>
      </trkpt>
      <trkpt lat="49.81761" lon="4.84238">
        <ele>226</ele>
        <time>2022-09-18T10:23:21.000Z</time>
      </trkpt>
      <trkpt lat="49.81762" lon="4.84242">
        <ele>226</ele>
        <time>2022-09-18T10:23:22.000Z</time>
      </trkpt>
      <trkpt lat="49.81763" lon="4.84245">
        <ele>226</ele>
        <time>2022-09-18T10:23:23.000Z</time>
      </trkpt>
      <trkpt lat="49.81763" lon="4.84249">
        <ele>225</ele>
        <time>2022-09-18T10:23:24.000Z</time>
      </trkpt>
      <trkpt lat="49.81764" lon="4.84252">
        <ele>225</ele>
        <time>2022-09-18T10:23:25.000Z</time>
      </trkpt>
      <trkpt lat="49.81764" lon="4.84255">
        <ele>225</ele>
        <time>2022-09-18T10:23:26.000Z</time>
      </trkpt>
      <trkpt lat="49.81765" lon="4.84258">
        <ele>226</ele>
        <time>2022-09-18T10:23:27.000Z</time>
      </trkpt>
      <trkpt lat="49.81765" lon="4.84262">
        <ele>226</ele>
        <time>2022-09-18T10:23:28.000Z</time>
      </trkpt>
      <trkpt lat="49.81766" lon="4.84266">
        <ele>226</ele>
        <time>2022-09-18T10:23:29.000Z</time>
      </trkpt>
      <trkpt lat="49.81767" lon="4.84269">
        <ele>226</ele>
        <time>2022-09-18T10:23:30.000Z</time>
      </trkpt>
      <trkpt lat="49.81768" lon="4.84273">
        <ele>226</ele>
        <time>2022-09-18T10:23:31.000Z</time>
      </trkpt>
      <trkpt lat="49.81768" lon="4.84277">
        <ele>226</ele>
        <time>2022-09-18T10:23:32.000Z</time>
      </trkpt>
      <trkpt lat="49.81769" lon="4.84281">
        <ele>226</ele>
        <time>2022-09-18T10:23:33.000Z</time>
      </trkpt>
      <trkpt lat="49.81769" lon="4.84284">
        <ele>227</ele>
        <time>2022-09-18T10:23:34.000Z</time>
      </trkpt>
      <trkpt lat="49.8177" lon="4.84288">
        <ele>227</ele>
        <time>2022-09-18T10:23:35.000Z</time>
      </trkpt>
      <trkpt lat="49.81771" lon="4.84292">
        <ele>227</ele>
        <time>2022-09-18T10:23:36.000Z</time>
      </trkpt>
      <trkpt lat="49.81771" lon="4.84294">
        <ele>227</ele>
        <time>2022-09-18T10:23:37.000Z</time>
      </trkpt>
      <trkpt lat="49.81771" lon="4.84296">
        <ele>227</ele>
        <time>2022-09-18T10:23:38.000Z</time>
      </trkpt>
      <trkpt lat="49.81772" lon="4.84299">
        <ele>227</ele>
        <time>2022-09-18T10:23:39.000Z</time>
      </trkpt>
      <trkpt lat="49.81772" lon="4.84302">
        <ele>228</ele>
        <time>2022-09-18T10:23:40.000Z</time>
      </trkpt>
      <trkpt lat="49.81773" lon="4.84304">
        <ele>228</ele>
        <time>2022-09-18T10:23:41.000Z</time>
      </trkpt>
      <trkpt lat="49.81774" lon="4.84307">
        <ele>228</ele>
        <time>2022-09-18T10:23:42.000Z</time>
      </trkpt>
      <trkpt lat="49.81774" lon="4.84309">
        <ele>228</ele>
        <time>2022-09-18T10:23:43.000Z</time>
      </trkpt>
      <trkpt lat="49.81775" lon="4.84311">
        <ele>228</ele>
        <time>2022-09-18T10:23:44.000Z</time>
      </trkpt>
      <trkpt lat="49.81776" lon="4.84314">
        <ele>228</ele>
        <time>2022-09-18T10:23:45.000Z</time>
      </trkpt>
      <trkpt lat="49.81777" lon="4.84317">
        <ele>229</ele>
        <time>2022-09-18T10:23:46.000Z</time>
      </trkpt>
      <trkpt lat="49.81778" lon="4.8432">
        <ele>229</ele>
        <time>2022-09-18T10:23:47.000Z</time>
      </trkpt>
      <trkpt lat="49.81779" lon="4.84322">
        <ele>229</ele>
        <time>2022-09-18T10:23:48.000Z</time>
      </trkpt>
      <trkpt lat="49.81779" lon="4.84325">
        <ele>229</ele>
        <time>2022-09-18T10:23:49.000Z</time>
      </trkpt>
      <trkpt lat="49.8178" lon="4.84328">
        <ele>229</ele>
        <time>2022-09-18T10:23:50.000Z</time>
      </trkpt>
      <trkpt lat="49.81781" lon="4.8433">
        <ele>230</ele>
        <time>2022-09-18T10:23:51.000Z</time>
      </trkpt>
      <trkpt lat="49.81781" lon="4.84333">
        <ele>230</ele>
        <time>2022-09-18T10:23:52.000Z</time>
      </trkpt>
      <trkpt lat="49.81781" lon="4.84335">
        <ele>230</ele>
        <time>2022-09-18T10:23:53.000Z</time>
      </trkpt>
      <trkpt lat="49.81782" lon="4.84338">
        <ele>230</ele>
        <time>2022-09-18T10:23:54.000Z</time>
      </trkpt>
      <trkpt lat="49.81782" lon="4.84341">
        <ele>231</ele>
        <time>2022-09-18T10:23:55.000Z</time>
      </trkpt>
      <trkpt lat="49.81783" lon="4.84344">
        <ele>231</ele>
        <time>2022-09-18T10:23:56.000Z</time>
      </trkpt>
      <trkpt lat="49.81783" lon="4.84347">
        <ele>231</ele>
        <time>2022-09-18T10:23:57.000Z</time>
      </trkpt>
      <trkpt lat="49.81784" lon="4.8435">
        <ele>231</ele>
        <time>2022-09-18T10:23:58.000Z</time>
      </trkpt>
      <trkpt lat="49.81784" lon="4.84352">
        <ele>232</ele>
        <time>2022-09-18T10:23:59.000Z</time>
      </trkpt>
      <trkpt lat="49.81785" lon="4.84354">
        <ele>232</ele>
        <time>2022-09-18T10:24:00.000Z</time>
      </trkpt>
      <trkpt lat="49.81786" lon="4.84356">
        <ele>232</ele>
        <time>2022-09-18T10:24:01.000Z</time>
      </trkpt>
      <trkpt lat="49.81786" lon="4.84358">
        <ele>232</ele>
        <time>2022-09-18T10:24:02.000Z</time>
      </trkpt>
      <trkpt lat="49.81787" lon="4.84361">
        <ele>233</ele>
        <time>2022-09-18T10:24:03.000Z</time>
      </trkpt>
      <trkpt lat="49.81787" lon="4.84364">
        <ele>233</ele>
        <time>2022-09-18T10:24:04.000Z</time>
      </trkpt>
      <trkpt lat="49.81788" lon="4.84367">
        <ele>234</ele>
        <time>2022-09-18T10:24:05.000Z</time>
      </trkpt>
      <trkpt lat="49.81788" lon="4.8437">
        <ele>234</ele>
        <time>2022-09-18T10:24:06.000Z</time>
      </trkpt>
      <trkpt lat="49.81789" lon="4.84373">
        <ele>234</ele>
        <time>2022-09-18T10:24:07.000Z</time>
      </trkpt>
      <trkpt lat="49.8179" lon="4.84376">
        <ele>235</ele>
        <time>2022-09-18T10:24:08.000Z</time>
      </trkpt>
      <trkpt lat="49.81791" lon="4.84379">
        <ele>235</ele>
        <time>2022-09-18T10:24:09.000Z</time>
      </trkpt>
      <trkpt lat="49.81792" lon="4.84382">
        <ele>236</ele>
        <time>2022-09-18T10:24:10.000Z</time>
      </trkpt>
      <trkpt lat="49.81793" lon="4.84386">
        <ele>236</ele>
        <time>2022-09-18T10:24:11.000Z</time>
      </trkpt>
      <trkpt lat="49.81794" lon="4.84388">
        <ele>236</ele>
        <time>2022-09-18T10:24:12.000Z</time>
      </trkpt>
      <trkpt lat="49.81795" lon="4.84392">
        <ele>237</ele>
        <time>2022-09-18T10:24:13.000Z</time>
      </trkpt>
      <trkpt lat="49.81796" lon="4.84395">
        <ele>237</ele>
        <time>2022-09-18T10:24:14.000Z</time>
      </trkpt>
      <trkpt lat="49.81797" lon="4.84399">
        <ele>238</ele>
        <time>2022-09-18T10:24:15.000Z</time>
      </trkpt>
      <trkpt lat="49.81798" lon="4.84402">
        <ele>238</ele>
        <time>2022-09-18T10:24:16.000Z</time>
      </trkpt>
      <trkpt lat="49.81799" lon="4.84405">
        <ele>238</ele>
        <time>2022-09-18T10:24:17.000Z</time>
      </trkpt>
      <trkpt lat="49.81801" lon="4.84409">
        <ele>239</ele>
        <time>2022-09-18T10:24:18.000Z</time>
      </trkpt>
      <trkpt lat="49.81803" lon="4.84413">
        <ele>239</ele>
        <time>2022-09-18T10:24:19.000Z</time>
      </trkpt>
      <trkpt lat="49.81804" lon="4.84416">
        <ele>239</ele>
        <time>2022-09-18T10:24:20.000Z</time>
      </trkpt>
      <trkpt lat="49.81805" lon="4.84418">
        <ele>240</ele>
        <time>2022-09-18T10:24:21.000Z</time>
      </trkpt>
      <trkpt lat="49.81807" lon="4.84422">
        <ele>240</ele>
        <time>2022-09-18T10:24:22.000Z</time>
      </trkpt>
      <trkpt lat="49.81808" lon="4.84425">
        <ele>240</ele>
        <time>2022-09-18T10:24:23.000Z</time>
      </trkpt>
      <trkpt lat="49.8181" lon="4.84428">
        <ele>240</ele>
        <time>2022-09-18T10:24:24.000Z</time>
      </trkpt>
      <trkpt lat="49.81812" lon="4.84432">
        <ele>241</ele>
        <time>2022-09-18T10:24:25.000Z</time>
      </trkpt>
      <trkpt lat="49.81813" lon="4.84435">
        <ele>241</ele>
        <time>2022-09-18T10:24:26.000Z</time>
      </trkpt>
      <trkpt lat="49.81814" lon="4.84438">
        <ele>241</ele>
        <time>2022-09-18T10:24:27.000Z</time>
      </trkpt>
      <trkpt lat="49.81815" lon="4.84441">
        <ele>241</ele>
        <time>2022-09-18T10:24:28.000Z</time>
      </trkpt>
      <trkpt lat="49.81816" lon="4.84445">
        <ele>242</ele>
        <time>2022-09-18T10:24:29.000Z</time>
      </trkpt>
      <trkpt lat="49.81817" lon="4.84448">
        <ele>242</ele>
        <time>2022-09-18T10:24:30.000Z</time>
      </trkpt>
      <trkpt lat="49.81819" lon="4.84452">
        <ele>242</ele>
        <time>2022-09-18T10:24:31.000Z</time>
      </trkpt>
      <trkpt lat="49.8182" lon="4.84456">
        <ele>242</ele>
        <time>2022-09-18T10:24:32.000Z</time>
      </trkpt>
      <trkpt lat="49.81822" lon="4.8446">
        <ele>243</ele>
        <time>2022-09-18T10:24:33.000Z</time>
      </trkpt>
      <trkpt lat="49.81823" lon="4.84464">
        <ele>243</ele>
        <time>2022-09-18T10:24:34.000Z</time>
      </trkpt>
      <trkpt lat="49.81826" lon="4.84468">
        <ele>243</ele>
        <time>2022-09-18T10:24:35.000Z</time>
      </trkpt>
      <trkpt lat="49.81827" lon="4.84472">
        <ele>243</ele>
        <time>2022-09-18T10:24:36.000Z</time>
      </trkpt>
      <trkpt lat="49.81829" lon="4.84476">
        <ele>244</ele>
        <time>2022-09-18T10:24:37.000Z</time>
      </trkpt>
      <trkpt lat="49.81831" lon="4.8448">
        <ele>244</ele>
        <time>2022-09-18T10:24:38.000Z</time>
      </trkpt>
      <trkpt lat="49.81832" lon="4.84484">
        <ele>244</ele>
        <time>2022-09-18T10:24:39.000Z</time>
      </trkpt>
      <trkpt lat="49.81834" lon="4.84489">
        <ele>244</ele>
        <time>2022-09-18T10:24:40.000Z</time>
      </trkpt>
      <trkpt lat="49.81836" lon="4.84493">
        <ele>244</ele>
        <time>2022-09-18T10:24:41.000Z</time>
      </trkpt>
      <trkpt lat="49.81838" lon="4.84498">
        <ele>244</ele>
        <time>2022-09-18T10:24:42.000Z</time>
      </trkpt>
      <trkpt lat="49.81839" lon="4.84502">
        <ele>244</ele>
        <time>2022-09-18T10:24:43.000Z</time>
      </trkpt>
      <trkpt lat="49.8184" lon="4.84505">
        <ele>244</ele>
        <time>2022-09-18T10:24:44.000Z</time>
      </trkpt>
      <trkpt lat="49.81842" lon="4.84509">
        <ele>244</ele>
        <time>2022-09-18T10:24:45.000Z</time>
      </trkpt>
      <trkpt lat="49.81843" lon="4.84512">
        <ele>244</ele>
        <time>2022-09-18T10:24:46.000Z</time>
      </trkpt>
      <trkpt lat="49.81844" lon="4.84515">
        <ele>244</ele>
        <time>2022-09-18T10:24:47.000Z</time>
      </trkpt>
      <trkpt lat="49.81845" lon="4.84518">
        <ele>244</ele>
        <time>2022-09-18T10:24:48.000Z</time>
      </trkpt>
      <trkpt lat="49.81847" lon="4.84522">
        <ele>244</ele>
        <time>2022-09-18T10:24:49.000Z</time>
      </trkpt>
      <trkpt lat="49.81848" lon="4.84526">
        <ele>244</ele>
        <time>2022-09-18T10:24:50.000Z</time>
      </trkpt>
      <trkpt lat="49.8185" lon="4.84531">
        <ele>245</ele>
        <time>2022-09-18T10:24:51.000Z</time>
      </trkpt>
      <trkpt lat="49.81852" lon="4.84536">
        <ele>245</ele>
        <time>2022-09-18T10:24:52.000Z</time>
      </trkpt>
      <trkpt lat="49.81853" lon="4.84541">
        <ele>245</ele>
        <time>2022-09-18T10:24:53.000Z</time>
      </trkpt>
      <trkpt lat="49.81854" lon="4.84545">
        <ele>246</ele>
        <time>2022-09-18T10:24:54.000Z</time>
      </trkpt>
      <trkpt lat="49.81856" lon="4.8455">
        <ele>246</ele>
        <time>2022-09-18T10:24:55.000Z</time>
      </trkpt>
      <trkpt lat="49.81857" lon="4.84555">
        <ele>246</ele>
        <time>2022-09-18T10:24:56.000Z</time>
      </trkpt>
      <trkpt lat="49.81859" lon="4.84561">
        <ele>246</ele>
        <time>2022-09-18T10:24:57.000Z</time>
      </trkpt>
      <trkpt lat="49.8186" lon="4.84567">
        <ele>246</ele>
        <time>2022-09-18T10:24:58.000Z</time>
      </trkpt>
      <trkpt lat="49.8186" lon="4.84572">
        <ele>246</ele>
        <time>2022-09-18T10:24:59.000Z</time>
      </trkpt>
      <trkpt lat="49.81861" lon="4.84578">
        <ele>246</ele>
        <time>2022-09-18T10:25:00.000Z</time>
      </trkpt>
      <trkpt lat="49.81861" lon="4.84583">
        <ele>246</ele>
        <time>2022-09-18T10:25:01.000Z</time>
      </trkpt>
      <trkpt lat="49.81862" lon="4.84588">
        <ele>246</ele>
        <time>2022-09-18T10:25:02.000Z</time>
      </trkpt>
      <trkpt lat="49.81863" lon="4.84592">
        <ele>246</ele>
        <time>2022-09-18T10:25:03.000Z</time>
      </trkpt>
      <trkpt lat="49.81864" lon="4.84597">
        <ele>246</ele>
        <time>2022-09-18T10:25:04.000Z</time>
      </trkpt>
      <trkpt lat="49.81866" lon="4.84602">
        <ele>246</ele>
        <time>2022-09-18T10:25:05.000Z</time>
      </trkpt>
      <trkpt lat="49.81867" lon="4.84608">
        <ele>246</ele>
        <time>2022-09-18T10:25:06.000Z</time>
      </trkpt>
      <trkpt lat="49.81869" lon="4.84614">
        <ele>246</ele>
        <time>2022-09-18T10:25:07.000Z</time>
      </trkpt>
      <trkpt lat="49.81869" lon="4.84618">
        <ele>246</ele>
        <time>2022-09-18T10:25:08.000Z</time>
      </trkpt>
      <trkpt lat="49.8187" lon="4.84623">
        <ele>246</ele>
        <time>2022-09-18T10:25:09.000Z</time>
      </trkpt>
      <trkpt lat="49.81871" lon="4.84628">
        <ele>246</ele>
        <time>2022-09-18T10:25:10.000Z</time>
      </trkpt>
      <trkpt lat="49.81872" lon="4.84634">
        <ele>246</ele>
        <time>2022-09-18T10:25:11.000Z</time>
      </trkpt>
      <trkpt lat="49.81872" lon="4.84639">
        <ele>246</ele>
        <time>2022-09-18T10:25:12.000Z</time>
      </trkpt>
      <trkpt lat="49.81873" lon="4.84643">
        <ele>247</ele>
        <time>2022-09-18T10:25:13.000Z</time>
      </trkpt>
      <trkpt lat="49.81873" lon="4.84649">
        <ele>247</ele>
        <time>2022-09-18T10:25:14.000Z</time>
      </trkpt>
      <trkpt lat="49.81873" lon="4.84655">
        <ele>247</ele>
        <time>2022-09-18T10:25:15.000Z</time>
      </trkpt>
      <trkpt lat="49.81874" lon="4.84661">
        <ele>247</ele>
        <time>2022-09-18T10:25:16.000Z</time>
      </trkpt>
      <trkpt lat="49.81874" lon="4.84667">
        <ele>247</ele>
        <time>2022-09-18T10:25:17.000Z</time>
      </trkpt>
      <trkpt lat="49.81875" lon="4.84674">
        <ele>247</ele>
        <time>2022-09-18T10:25:18.000Z</time>
      </trkpt>
      <trkpt lat="49.81877" lon="4.84681">
        <ele>247</ele>
        <time>2022-09-18T10:25:19.000Z</time>
      </trkpt>
      <trkpt lat="49.81878" lon="4.84688">
        <ele>247</ele>
        <time>2022-09-18T10:25:20.000Z</time>
      </trkpt>
      <trkpt lat="49.8188" lon="4.84694">
        <ele>247</ele>
        <time>2022-09-18T10:25:21.000Z</time>
      </trkpt>
      <trkpt lat="49.81882" lon="4.847">
        <ele>247</ele>
        <time>2022-09-18T10:25:22.000Z</time>
      </trkpt>
      <trkpt lat="49.81884" lon="4.84705">
        <ele>247</ele>
        <time>2022-09-18T10:25:23.000Z</time>
      </trkpt>
      <trkpt lat="49.81885" lon="4.84711">
        <ele>247</ele>
        <time>2022-09-18T10:25:24.000Z</time>
      </trkpt>
      <trkpt lat="49.81887" lon="4.84716">
        <ele>247</ele>
        <time>2022-09-18T10:25:25.000Z</time>
      </trkpt>
      <trkpt lat="49.81889" lon="4.84722">
        <ele>247</ele>
        <time>2022-09-18T10:25:26.000Z</time>
      </trkpt>
      <trkpt lat="49.81891" lon="4.84728">
        <ele>247</ele>
        <time>2022-09-18T10:25:27.000Z</time>
      </trkpt>
      <trkpt lat="49.81893" lon="4.84734">
        <ele>247</ele>
        <time>2022-09-18T10:25:28.000Z</time>
      </trkpt>
      <trkpt lat="49.81894" lon="4.8474">
        <ele>246</ele>
        <time>2022-09-18T10:25:29.000Z</time>
      </trkpt>
      <trkpt lat="49.81896" lon="4.84746">
        <ele>246</ele>
        <time>2022-09-18T10:25:30.000Z</time>
      </trkpt>
      <trkpt lat="49.81898" lon="4.84751">
        <ele>246</ele>
        <time>2022-09-18T10:25:31.000Z</time>
      </trkpt>
      <trkpt lat="49.819" lon="4.84758">
        <ele>246</ele>
        <time>2022-09-18T10:25:32.000Z</time>
      </trkpt>
      <trkpt lat="49.81901" lon="4.84764">
        <ele>246</ele>
        <time>2022-09-18T10:25:33.000Z</time>
      </trkpt>
      <trkpt lat="49.81903" lon="4.84769">
        <ele>246</ele>
        <time>2022-09-18T10:25:34.000Z</time>
      </trkpt>
      <trkpt lat="49.81905" lon="4.84774">
        <ele>246</ele>
        <time>2022-09-18T10:25:35.000Z</time>
      </trkpt>
      <trkpt lat="49.81907" lon="4.84781">
        <ele>246</ele>
        <time>2022-09-18T10:25:36.000Z</time>
      </trkpt>
      <trkpt lat="49.81909" lon="4.84787">
        <ele>246</ele>
        <time>2022-09-18T10:25:37.000Z</time>
      </trkpt>
      <trkpt lat="49.81911" lon="4.84793">
        <ele>246</ele>
        <time>2022-09-18T10:25:38.000Z</time>
      </trkpt>
      <trkpt lat="49.81913" lon="4.84799">
        <ele>246</ele>
        <time>2022-09-18T10:25:39.000Z</time>
      </trkpt>
      <trkpt lat="49.81915" lon="4.84805">
        <ele>246</ele>
        <time>2022-09-18T10:25:40.000Z</time>
      </trkpt>
      <trkpt lat="49.81918" lon="4.84809">
        <ele>246</ele>
        <time>2022-09-18T10:25:41.000Z</time>
      </trkpt>
      <trkpt lat="49.81921" lon="4.84812">
        <ele>246</ele>
        <time>2022-09-18T10:25:42.000Z</time>
      </trkpt>
      <trkpt lat="49.81924" lon="4.84816">
        <ele>246</ele>
        <time>2022-09-18T10:25:43.000Z</time>
      </trkpt>
      <trkpt lat="49.81926" lon="4.84819">
        <ele>246</ele>
        <time>2022-09-18T10:25:44.000Z</time>
      </trkpt>
      <trkpt lat="49.81928" lon="4.84821">
        <ele>246</ele>
        <time>2022-09-18T10:25:45.000Z</time>
      </trkpt>
      <trkpt lat="49.81931" lon="4.84823">
        <ele>246</ele>
        <time>2022-09-18T10:25:46.000Z</time>
      </trkpt>
      <trkpt lat="49.81931" lon="4.84826">
        <ele>246</ele>
        <time>2022-09-18T10:25:47.000Z</time>
      </trkpt>
      <trkpt lat="49.81931" lon="4.8483">
        <ele>246</ele>
        <time>2022-09-18T10:25:48.000Z</time>
      </trkpt>
      <trkpt lat="49.8193" lon="4.84833">
        <ele>246</ele>
        <time>2022-09-18T10:25:49.000Z</time>
      </trkpt>
      <trkpt lat="49.81928" lon="4.84837">
        <ele>246</ele>
        <time>2022-09-18T10:25:50.000Z</time>
      </trkpt>
      <trkpt lat="49.81924" lon="4.8484">
        <ele>246</ele>
        <time>2022-09-18T10:25:51.000Z</time>
      </trkpt>
      <trkpt lat="49.81919" lon="4.84844">
        <ele>246</ele>
        <time>2022-09-18T10:25:52.000Z</time>
      </trkpt>
      <trkpt lat="49.81915" lon="4.84848">
        <ele>246</ele>
        <time>2022-09-18T10:25:53.000Z</time>
      </trkpt>
      <trkpt lat="49.8191" lon="4.84852">
        <ele>246</ele>
        <time>2022-09-18T10:25:54.000Z</time>
      </trkpt>
      <trkpt lat="49.81905" lon="4.84855">
        <ele>246</ele>
        <time>2022-09-18T10:25:55.000Z</time>
      </trkpt>
      <trkpt lat="49.819" lon="4.84858">
        <ele>246</ele>
        <time>2022-09-18T10:25:56.000Z</time>
      </trkpt>
      <trkpt lat="49.81895" lon="4.8486">
        <ele>245</ele>
        <time>2022-09-18T10:25:57.000Z</time>
      </trkpt>
      <trkpt lat="49.8189" lon="4.84864">
        <ele>245</ele>
        <time>2022-09-18T10:25:58.000Z</time>
      </trkpt>
      <trkpt lat="49.81885" lon="4.84868">
        <ele>245</ele>
        <time>2022-09-18T10:25:59.000Z</time>
      </trkpt>
      <trkpt lat="49.8188" lon="4.84872">
        <ele>245</ele>
        <time>2022-09-18T10:26:00.000Z</time>
      </trkpt>
      <trkpt lat="49.81876" lon="4.84878">
        <ele>245</ele>
        <time>2022-09-18T10:26:01.000Z</time>
      </trkpt>
      <trkpt lat="49.8187" lon="4.84883">
        <ele>245</ele>
        <time>2022-09-18T10:26:02.000Z</time>
      </trkpt>
      <trkpt lat="49.81864" lon="4.84888">
        <ele>244</ele>
        <time>2022-09-18T10:26:03.000Z</time>
      </trkpt>
      <trkpt lat="49.81858" lon="4.84894">
        <ele>244</ele>
        <time>2022-09-18T10:26:04.000Z</time>
      </trkpt>
      <trkpt lat="49.81852" lon="4.84902">
        <ele>243</ele>
        <time>2022-09-18T10:26:05.000Z</time>
      </trkpt>
      <trkpt lat="49.81846" lon="4.84909">
        <ele>243</ele>
        <time>2022-09-18T10:26:06.000Z</time>
      </trkpt>
      <trkpt lat="49.81841" lon="4.84916">
        <ele>242</ele>
        <time>2022-09-18T10:26:07.000Z</time>
      </trkpt>
      <trkpt lat="49.81836" lon="4.84922">
        <ele>241</ele>
        <time>2022-09-18T10:26:08.000Z</time>
      </trkpt>
      <trkpt lat="49.8183" lon="4.84927">
        <ele>241</ele>
        <time>2022-09-18T10:26:09.000Z</time>
      </trkpt>
      <trkpt lat="49.81824" lon="4.8493">
        <ele>240</ele>
        <time>2022-09-18T10:26:10.000Z</time>
      </trkpt>
      <trkpt lat="49.81818" lon="4.84933">
        <ele>239</ele>
        <time>2022-09-18T10:26:11.000Z</time>
      </trkpt>
      <trkpt lat="49.81812" lon="4.84935">
        <ele>239</ele>
        <time>2022-09-18T10:26:12.000Z</time>
      </trkpt>
      <trkpt lat="49.81807" lon="4.84938">
        <ele>238</ele>
        <time>2022-09-18T10:26:13.000Z</time>
      </trkpt>
      <trkpt lat="49.81801" lon="4.8494">
        <ele>238</ele>
        <time>2022-09-18T10:26:14.000Z</time>
      </trkpt>
      <trkpt lat="49.81796" lon="4.84941">
        <ele>237</ele>
        <time>2022-09-18T10:26:15.000Z</time>
      </trkpt>
      <trkpt lat="49.8179" lon="4.84942">
        <ele>236</ele>
        <time>2022-09-18T10:26:16.000Z</time>
      </trkpt>
      <trkpt lat="49.81784" lon="4.84943">
        <ele>236</ele>
        <time>2022-09-18T10:26:17.000Z</time>
      </trkpt>
      <trkpt lat="49.81778" lon="4.84944">
        <ele>235</ele>
        <time>2022-09-18T10:26:18.000Z</time>
      </trkpt>
      <trkpt lat="49.81771" lon="4.84945">
        <ele>235</ele>
        <time>2022-09-18T10:26:19.000Z</time>
      </trkpt>
      <trkpt lat="49.81764" lon="4.84946">
        <ele>234</ele>
        <time>2022-09-18T10:26:20.000Z</time>
      </trkpt>
      <trkpt lat="49.81757" lon="4.84947">
        <ele>234</ele>
        <time>2022-09-18T10:26:21.000Z</time>
      </trkpt>
      <trkpt lat="49.81749" lon="4.84947">
        <ele>233</ele>
        <time>2022-09-18T10:26:22.000Z</time>
      </trkpt>
      <trkpt lat="49.81742" lon="4.84947">
        <ele>232</ele>
        <time>2022-09-18T10:26:23.000Z</time>
      </trkpt>
      <trkpt lat="49.81734" lon="4.84947">
        <ele>232</ele>
        <time>2022-09-18T10:26:24.000Z</time>
      </trkpt>
      <trkpt lat="49.81726" lon="4.84947">
        <ele>231</ele>
        <time>2022-09-18T10:26:25.000Z</time>
      </trkpt>
      <trkpt lat="49.81719" lon="4.84947">
        <ele>230</ele>
        <time>2022-09-18T10:26:26.000Z</time>
      </trkpt>
      <trkpt lat="49.81711" lon="4.84946">
        <ele>229</ele>
        <time>2022-09-18T10:26:27.000Z</time>
      </trkpt>
      <trkpt lat="49.81704" lon="4.84946">
        <ele>229</ele>
        <time>2022-09-18T10:26:28.000Z</time>
      </trkpt>
      <trkpt lat="49.81697" lon="4.84947">
        <ele>228</ele>
        <time>2022-09-18T10:26:29.000Z</time>
      </trkpt>
      <trkpt lat="49.81691" lon="4.84948">
        <ele>228</ele>
        <time>2022-09-18T10:26:30.000Z</time>
      </trkpt>
      <trkpt lat="49.81686" lon="4.84949">
        <ele>227</ele>
        <time>2022-09-18T10:26:31.000Z</time>
      </trkpt>
      <trkpt lat="49.81681" lon="4.84949">
        <ele>227</ele>
        <time>2022-09-18T10:26:32.000Z</time>
      </trkpt>
      <trkpt lat="49.81676" lon="4.84948">
        <ele>226</ele>
        <time>2022-09-18T10:26:33.000Z</time>
      </trkpt>
      <trkpt lat="49.81671" lon="4.84948">
        <ele>226</ele>
        <time>2022-09-18T10:26:34.000Z</time>
      </trkpt>
      <trkpt lat="49.81666" lon="4.84948">
        <ele>225</ele>
        <time>2022-09-18T10:26:35.000Z</time>
      </trkpt>
      <trkpt lat="49.8166" lon="4.84948">
        <ele>225</ele>
        <time>2022-09-18T10:26:36.000Z</time>
      </trkpt>
      <trkpt lat="49.81655" lon="4.84946">
        <ele>225</ele>
        <time>2022-09-18T10:26:37.000Z</time>
      </trkpt>
      <trkpt lat="49.81649" lon="4.84946">
        <ele>224</ele>
        <time>2022-09-18T10:26:38.000Z</time>
      </trkpt>
      <trkpt lat="49.81643" lon="4.84945">
        <ele>224</ele>
        <time>2022-09-18T10:26:39.000Z</time>
      </trkpt>
      <trkpt lat="49.81637" lon="4.84944">
        <ele>224</ele>
        <time>2022-09-18T10:26:40.000Z</time>
      </trkpt>
      <trkpt lat="49.81631" lon="4.84943">
        <ele>224</ele>
        <time>2022-09-18T10:26:41.000Z</time>
      </trkpt>
      <trkpt lat="49.81626" lon="4.84942">
        <ele>224</ele>
        <time>2022-09-18T10:26:42.000Z</time>
      </trkpt>
      <trkpt lat="49.81621" lon="4.84941">
        <ele>224</ele>
        <time>2022-09-18T10:26:43.000Z</time>
      </trkpt>
      <trkpt lat="49.81616" lon="4.84941">
        <ele>224</ele>
        <time>2022-09-18T10:26:44.000Z</time>
      </trkpt>
      <trkpt lat="49.81612" lon="4.8494">
        <ele>224</ele>
        <time>2022-09-18T10:26:45.000Z</time>
      </trkpt>
      <trkpt lat="49.81607" lon="4.8494">
        <ele>224</ele>
        <time>2022-09-18T10:26:46.000Z</time>
      </trkpt>
      <trkpt lat="49.81603" lon="4.84939">
        <ele>224</ele>
        <time>2022-09-18T10:26:47.000Z</time>
      </trkpt>
      <trkpt lat="49.81599" lon="4.84939">
        <ele>224</ele>
        <time>2022-09-18T10:26:48.000Z</time>
      </trkpt>
      <trkpt lat="49.81596" lon="4.84938">
        <ele>224</ele>
        <time>2022-09-18T10:26:49.000Z</time>
      </trkpt>
      <trkpt lat="49.81592" lon="4.84937">
        <ele>224</ele>
        <time>2022-09-18T10:26:50.000Z</time>
      </trkpt>
      <trkpt lat="49.81589" lon="4.84937">
        <ele>224</ele>
        <time>2022-09-18T10:26:51.000Z</time>
      </trkpt>
      <trkpt lat="49.81585" lon="4.84936">
        <ele>223</ele>
        <time>2022-09-18T10:26:52.000Z</time>
      </trkpt>
      <trkpt lat="49.81582" lon="4.84936">
        <ele>223</ele>
        <time>2022-09-18T10:26:53.000Z</time>
      </trkpt>
      <trkpt lat="49.8158" lon="4.84936">
        <ele>223</ele>
        <time>2022-09-18T10:26:54.000Z</time>
      </trkpt>
      <trkpt lat="49.81577" lon="4.84936">
        <ele>223</ele>
        <time>2022-09-18T10:26:55.000Z</time>
      </trkpt>
      <trkpt lat="49.81574" lon="4.84937">
        <ele>223</ele>
        <time>2022-09-18T10:26:56.000Z</time>
      </trkpt>
      <trkpt lat="49.81571" lon="4.84939">
        <ele>223</ele>
        <time>2022-09-18T10:26:57.000Z</time>
      </trkpt>
      <trkpt lat="49.81568" lon="4.84943">
        <ele>223</ele>
        <time>2022-09-18T10:26:58.000Z</time>
      </trkpt>
      <trkpt lat="49.81566" lon="4.84948">
        <ele>223</ele>
        <time>2022-09-18T10:26:59.000Z</time>
      </trkpt>
      <trkpt lat="49.81563" lon="4.84953">
        <ele>223</ele>
        <time>2022-09-18T10:27:00.000Z</time>
      </trkpt>
      <trkpt lat="49.81561" lon="4.84959">
        <ele>223</ele>
        <time>2022-09-18T10:27:01.000Z</time>
      </trkpt>
      <trkpt lat="49.81559" lon="4.84965">
        <ele>222</ele>
        <time>2022-09-18T10:27:02.000Z</time>
      </trkpt>
      <trkpt lat="49.81556" lon="4.84971">
        <ele>222</ele>
        <time>2022-09-18T10:27:03.000Z</time>
      </trkpt>
      <trkpt lat="49.81554" lon="4.84977">
        <ele>222</ele>
        <time>2022-09-18T10:27:04.000Z</time>
      </trkpt>
      <trkpt lat="49.8155" lon="4.84983">
        <ele>222</ele>
        <time>2022-09-18T10:27:05.000Z</time>
      </trkpt>
      <trkpt lat="49.81547" lon="4.84987">
        <ele>223</ele>
        <time>2022-09-18T10:27:06.000Z</time>
      </trkpt>
      <trkpt lat="49.81544" lon="4.8499">
        <ele>223</ele>
        <time>2022-09-18T10:27:07.000Z</time>
      </trkpt>
      <trkpt lat="49.81541" lon="4.84992">
        <ele>223</ele>
        <time>2022-09-18T10:27:08.000Z</time>
      </trkpt>
      <trkpt lat="49.81538" lon="4.84992">
        <ele>223</ele>
        <time>2022-09-18T10:27:09.000Z</time>
      </trkpt>
      <trkpt lat="49.81535" lon="4.84991">
        <ele>223</ele>
        <time>2022-09-18T10:27:10.000Z</time>
      </trkpt>
      <trkpt lat="49.81532" lon="4.8499">
        <ele>223</ele>
        <time>2022-09-18T10:27:11.000Z</time>
      </trkpt>
      <trkpt lat="49.8153" lon="4.84988">
        <ele>223</ele>
        <time>2022-09-18T10:27:12.000Z</time>
      </trkpt>
      <trkpt lat="49.81529" lon="4.84985">
        <ele>224</ele>
        <time>2022-09-18T10:27:13.000Z</time>
      </trkpt>
      <trkpt lat="49.81528" lon="4.84981">
        <ele>224</ele>
        <time>2022-09-18T10:27:14.000Z</time>
      </trkpt>
      <trkpt lat="49.81528" lon="4.84977">
        <ele>224</ele>
        <time>2022-09-18T10:27:15.000Z</time>
      </trkpt>
      <trkpt lat="49.81528" lon="4.84973">
        <ele>224</ele>
        <time>2022-09-18T10:27:16.000Z</time>
      </trkpt>
      <trkpt lat="49.81529" lon="4.84968">
        <ele>224</ele>
        <time>2022-09-18T10:27:17.000Z</time>
      </trkpt>
      <trkpt lat="49.8153" lon="4.84963">
        <ele>224</ele>
        <time>2022-09-18T10:27:18.000Z</time>
      </trkpt>
      <trkpt lat="49.81532" lon="4.84957">
        <ele>224</ele>
        <time>2022-09-18T10:27:19.000Z</time>
      </trkpt>
      <trkpt lat="49.81534" lon="4.84951">
        <ele>224</ele>
        <time>2022-09-18T10:27:20.000Z</time>
      </trkpt>
      <trkpt lat="49.81535" lon="4.84946">
        <ele>224</ele>
        <time>2022-09-18T10:27:21.000Z</time>
      </trkpt>
      <trkpt lat="49.81537" lon="4.84939">
        <ele>224</ele>
        <time>2022-09-18T10:27:22.000Z</time>
      </trkpt>
      <trkpt lat="49.81538" lon="4.84933">
        <ele>224</ele>
        <time>2022-09-18T10:27:23.000Z</time>
      </trkpt>
      <trkpt lat="49.8154" lon="4.84926">
        <ele>224</ele>
        <time>2022-09-18T10:27:24.000Z</time>
      </trkpt>
      <trkpt lat="49.8154" lon="4.8492">
        <ele>224</ele>
        <time>2022-09-18T10:27:25.000Z</time>
      </trkpt>
      <trkpt lat="49.81541" lon="4.84914">
        <ele>225</ele>
        <time>2022-09-18T10:27:26.000Z</time>
      </trkpt>
      <trkpt lat="49.81541" lon="4.84908">
        <ele>225</ele>
        <time>2022-09-18T10:27:27.000Z</time>
      </trkpt>
      <trkpt lat="49.81541" lon="4.84902">
        <ele>225</ele>
        <time>2022-09-18T10:27:28.000Z</time>
      </trkpt>
      <trkpt lat="49.81541" lon="4.84896">
        <ele>225</ele>
        <time>2022-09-18T10:27:29.000Z</time>
      </trkpt>
      <trkpt lat="49.8154" lon="4.84891">
        <ele>225</ele>
        <time>2022-09-18T10:27:30.000Z</time>
      </trkpt>
      <trkpt lat="49.81539" lon="4.84885">
        <ele>225</ele>
        <time>2022-09-18T10:27:31.000Z</time>
      </trkpt>
      <trkpt lat="49.81539" lon="4.8488">
        <ele>225</ele>
        <time>2022-09-18T10:27:32.000Z</time>
      </trkpt>
      <trkpt lat="49.81538" lon="4.84874">
        <ele>225</ele>
        <time>2022-09-18T10:27:33.000Z</time>
      </trkpt>
      <trkpt lat="49.81537" lon="4.84869">
        <ele>225</ele>
        <time>2022-09-18T10:27:34.000Z</time>
      </trkpt>
      <trkpt lat="49.81535" lon="4.84863">
        <ele>225</ele>
        <time>2022-09-18T10:27:35.000Z</time>
      </trkpt>
      <trkpt lat="49.81534" lon="4.84857">
        <ele>225</ele>
        <time>2022-09-18T10:27:36.000Z</time>
      </trkpt>
      <trkpt lat="49.81534" lon="4.84852">
        <ele>225</ele>
        <time>2022-09-18T10:27:37.000Z</time>
      </trkpt>
      <trkpt lat="49.81532" lon="4.84846">
        <ele>225</ele>
        <time>2022-09-18T10:27:38.000Z</time>
      </trkpt>
      <trkpt lat="49.81532" lon="4.8484">
        <ele>225</ele>
        <time>2022-09-18T10:27:39.000Z</time>
      </trkpt>
      <trkpt lat="49.81531" lon="4.84835">
        <ele>225</ele>
        <time>2022-09-18T10:27:40.000Z</time>
      </trkpt>
      <trkpt lat="49.81529" lon="4.84829">
        <ele>225</ele>
        <time>2022-09-18T10:27:41.000Z</time>
      </trkpt>
      <trkpt lat="49.81528" lon="4.84823">
        <ele>225</ele>
        <time>2022-09-18T10:27:42.000Z</time>
      </trkpt>
      <trkpt lat="49.81526" lon="4.84816">
        <ele>225</ele>
        <time>2022-09-18T10:27:43.000Z</time>
      </trkpt>
      <trkpt lat="49.81525" lon="4.84809">
        <ele>225</ele>
        <time>2022-09-18T10:27:44.000Z</time>
      </trkpt>
      <trkpt lat="49.81523" lon="4.84802">
        <ele>225</ele>
        <time>2022-09-18T10:27:45.000Z</time>
      </trkpt>
      <trkpt lat="49.81522" lon="4.84795">
        <ele>225</ele>
        <time>2022-09-18T10:27:46.000Z</time>
      </trkpt>
      <trkpt lat="49.8152" lon="4.84788">
        <ele>225</ele>
        <time>2022-09-18T10:27:47.000Z</time>
      </trkpt>
      <trkpt lat="49.81518" lon="4.8478">
        <ele>225</ele>
        <time>2022-09-18T10:27:48.000Z</time>
      </trkpt>
      <trkpt lat="49.81517" lon="4.84773">
        <ele>225</ele>
        <time>2022-09-18T10:27:49.000Z</time>
      </trkpt>
      <trkpt lat="49.81515" lon="4.84766">
        <ele>225</ele>
        <time>2022-09-18T10:27:50.000Z</time>
      </trkpt>
      <trkpt lat="49.81513" lon="4.84758">
        <ele>225</ele>
        <time>2022-09-18T10:27:51.000Z</time>
      </trkpt>
      <trkpt lat="49.81512" lon="4.8475">
        <ele>225</ele>
        <time>2022-09-18T10:27:52.000Z</time>
      </trkpt>
      <trkpt lat="49.8151" lon="4.84743">
        <ele>225</ele>
        <time>2022-09-18T10:27:53.000Z</time>
      </trkpt>
      <trkpt lat="49.81509" lon="4.84736">
        <ele>225</ele>
        <time>2022-09-18T10:27:54.000Z</time>
      </trkpt>
      <trkpt lat="49.81507" lon="4.84729">
        <ele>225</ele>
        <time>2022-09-18T10:27:55.000Z</time>
      </trkpt>
      <trkpt lat="49.81505" lon="4.84722">
        <ele>225</ele>
        <time>2022-09-18T10:27:56.000Z</time>
      </trkpt>
      <trkpt lat="49.81503" lon="4.84715">
        <ele>225</ele>
        <time>2022-09-18T10:27:57.000Z</time>
      </trkpt>
      <trkpt lat="49.81502" lon="4.84709">
        <ele>226</ele>
        <time>2022-09-18T10:27:58.000Z</time>
      </trkpt>
      <trkpt lat="49.815" lon="4.84702">
        <ele>226</ele>
        <time>2022-09-18T10:27:59.000Z</time>
      </trkpt>
      <trkpt lat="49.81499" lon="4.84696">
        <ele>226</ele>
        <time>2022-09-18T10:28:00.000Z</time>
      </trkpt>
      <trkpt lat="49.81497" lon="4.84689">
        <ele>226</ele>
        <time>2022-09-18T10:28:01.000Z</time>
      </trkpt>
      <trkpt lat="49.81495" lon="4.84682">
        <ele>226</ele>
        <time>2022-09-18T10:28:02.000Z</time>
      </trkpt>
      <trkpt lat="49.81494" lon="4.84676">
        <ele>226</ele>
        <time>2022-09-18T10:28:03.000Z</time>
      </trkpt>
      <trkpt lat="49.81492" lon="4.84669">
        <ele>226</ele>
        <time>2022-09-18T10:28:04.000Z</time>
      </trkpt>
      <trkpt lat="49.8149" lon="4.84663">
        <ele>226</ele>
        <time>2022-09-18T10:28:05.000Z</time>
      </trkpt>
      <trkpt lat="49.81487" lon="4.84658">
        <ele>226</ele>
        <time>2022-09-18T10:28:06.000Z</time>
      </trkpt>
      <trkpt lat="49.81484" lon="4.84653">
        <ele>226</ele>
        <time>2022-09-18T10:28:07.000Z</time>
      </trkpt>
      <trkpt lat="49.81481" lon="4.84648">
        <ele>226</ele>
        <time>2022-09-18T10:28:08.000Z</time>
      </trkpt>
      <trkpt lat="49.81478" lon="4.84644">
        <ele>226</ele>
        <time>2022-09-18T10:28:09.000Z</time>
      </trkpt>
      <trkpt lat="49.81475" lon="4.84641">
        <ele>226</ele>
        <time>2022-09-18T10:28:10.000Z</time>
      </trkpt>
      <trkpt lat="49.81471" lon="4.84639">
        <ele>226</ele>
        <time>2022-09-18T10:28:11.000Z</time>
      </trkpt>
      <trkpt lat="49.81468" lon="4.84637">
        <ele>226</ele>
        <time>2022-09-18T10:28:12.000Z</time>
      </trkpt>
      <trkpt lat="49.81465" lon="4.84635">
        <ele>226</ele>
        <time>2022-09-18T10:28:13.000Z</time>
      </trkpt>
      <trkpt lat="49.81462" lon="4.84631">
        <ele>226</ele>
        <time>2022-09-18T10:28:14.000Z</time>
      </trkpt>
      <trkpt lat="49.8146" lon="4.84628">
        <ele>226</ele>
        <time>2022-09-18T10:28:15.000Z</time>
      </trkpt>
      <trkpt lat="49.81459" lon="4.84622">
        <ele>226</ele>
        <time>2022-09-18T10:28:16.000Z</time>
      </trkpt>
      <trkpt lat="49.81459" lon="4.84616">
        <ele>226</ele>
        <time>2022-09-18T10:28:17.000Z</time>
      </trkpt>
      <trkpt lat="49.81459" lon="4.8461">
        <ele>226</ele>
        <time>2022-09-18T10:28:18.000Z</time>
      </trkpt>
      <trkpt lat="49.8146" lon="4.84604">
        <ele>226</ele>
        <time>2022-09-18T10:28:19.000Z</time>
      </trkpt>
      <trkpt lat="49.8146" lon="4.84596">
        <ele>226</ele>
        <time>2022-09-18T10:28:20.000Z</time>
      </trkpt>
      <trkpt lat="49.81461" lon="4.84589">
        <ele>225</ele>
        <time>2022-09-18T10:28:21.000Z</time>
      </trkpt>
      <trkpt lat="49.81462" lon="4.84581">
        <ele>225</ele>
        <time>2022-09-18T10:28:22.000Z</time>
      </trkpt>
      <trkpt lat="49.81463" lon="4.84573">
        <ele>225</ele>
        <time>2022-09-18T10:28:23.000Z</time>
      </trkpt>
      <trkpt lat="49.81463" lon="4.84564">
        <ele>225</ele>
        <time>2022-09-18T10:28:24.000Z</time>
      </trkpt>
      <trkpt lat="49.81463" lon="4.84554">
        <ele>225</ele>
        <time>2022-09-18T10:28:25.000Z</time>
      </trkpt>
      <trkpt lat="49.81462" lon="4.84543">
        <ele>225</ele>
        <time>2022-09-18T10:28:26.000Z</time>
      </trkpt>
      <trkpt lat="49.81462" lon="4.84532">
        <ele>225</ele>
        <time>2022-09-18T10:28:27.000Z</time>
      </trkpt>
      <trkpt lat="49.81462" lon="4.8452">
        <ele>225</ele>
        <time>2022-09-18T10:28:28.000Z</time>
      </trkpt>
      <trkpt lat="49.81462" lon="4.84508">
        <ele>224</ele>
        <time>2022-09-18T10:28:29.000Z</time>
      </trkpt>
      <trkpt lat="49.81462" lon="4.84496">
        <ele>224</ele>
        <time>2022-09-18T10:28:30.000Z</time>
      </trkpt>
      <trkpt lat="49.81462" lon="4.84484">
        <ele>224</ele>
        <time>2022-09-18T10:28:31.000Z</time>
      </trkpt>
      <trkpt lat="49.81462" lon="4.84473">
        <ele>223</ele>
        <time>2022-09-18T10:28:32.000Z</time>
      </trkpt>
      <trkpt lat="49.81461" lon="4.84462">
        <ele>223</ele>
        <time>2022-09-18T10:28:33.000Z</time>
      </trkpt>
      <trkpt lat="49.81461" lon="4.84451">
        <ele>223</ele>
        <time>2022-09-18T10:28:34.000Z</time>
      </trkpt>
      <trkpt lat="49.8146" lon="4.84442">
        <ele>222</ele>
        <time>2022-09-18T10:28:35.000Z</time>
      </trkpt>
      <trkpt lat="49.8146" lon="4.84435">
        <ele>222</ele>
        <time>2022-09-18T10:28:36.000Z</time>
      </trkpt>
      <trkpt lat="49.81461" lon="4.8443">
        <ele>222</ele>
        <time>2022-09-18T10:28:37.000Z</time>
      </trkpt>
      <trkpt lat="49.81464" lon="4.84425">
        <ele>222</ele>
        <time>2022-09-18T10:28:38.000Z</time>
      </trkpt>
      <trkpt lat="49.81467" lon="4.8442">
        <ele>221</ele>
        <time>2022-09-18T10:28:39.000Z</time>
      </trkpt>
      <trkpt lat="49.81469" lon="4.84414">
        <ele>221</ele>
        <time>2022-09-18T10:28:40.000Z</time>
      </trkpt>
      <trkpt lat="49.8147" lon="4.84408">
        <ele>221</ele>
        <time>2022-09-18T10:28:41.000Z</time>
      </trkpt>
      <trkpt lat="49.8147" lon="4.84402">
        <ele>221</ele>
        <time>2022-09-18T10:28:42.000Z</time>
      </trkpt>
      <trkpt lat="49.8147" lon="4.84394">
        <ele>220</ele>
        <time>2022-09-18T10:28:43.000Z</time>
      </trkpt>
      <trkpt lat="49.8147" lon="4.84387">
        <ele>220</ele>
        <time>2022-09-18T10:28:44.000Z</time>
      </trkpt>
      <trkpt lat="49.8147" lon="4.84379">
        <ele>220</ele>
        <time>2022-09-18T10:28:45.000Z</time>
      </trkpt>
      <trkpt lat="49.8147" lon="4.84371">
        <ele>220</ele>
        <time>2022-09-18T10:28:46.000Z</time>
      </trkpt>
      <trkpt lat="49.81471" lon="4.84364">
        <ele>220</ele>
        <time>2022-09-18T10:28:47.000Z</time>
      </trkpt>
      <trkpt lat="49.81473" lon="4.84356">
        <ele>220</ele>
        <time>2022-09-18T10:28:48.000Z</time>
      </trkpt>
      <trkpt lat="49.81475" lon="4.84349">
        <ele>220</ele>
        <time>2022-09-18T10:28:49.000Z</time>
      </trkpt>
      <trkpt lat="49.81477" lon="4.84341">
        <ele>220</ele>
        <time>2022-09-18T10:28:50.000Z</time>
      </trkpt>
      <trkpt lat="49.81479" lon="4.84334">
        <ele>220</ele>
        <time>2022-09-18T10:28:51.000Z</time>
      </trkpt>
      <trkpt lat="49.81481" lon="4.84326">
        <ele>220</ele>
        <time>2022-09-18T10:28:52.000Z</time>
      </trkpt>
      <trkpt lat="49.81482" lon="4.84317">
        <ele>220</ele>
        <time>2022-09-18T10:28:53.000Z</time>
      </trkpt>
      <trkpt lat="49.81485" lon="4.8431">
        <ele>219</ele>
        <time>2022-09-18T10:28:54.000Z</time>
      </trkpt>
      <trkpt lat="49.81487" lon="4.84302">
        <ele>219</ele>
        <time>2022-09-18T10:28:55.000Z</time>
      </trkpt>
      <trkpt lat="49.81488" lon="4.84294">
        <ele>219</ele>
        <time>2022-09-18T10:28:56.000Z</time>
      </trkpt>
      <trkpt lat="49.8149" lon="4.84287">
        <ele>219</ele>
        <time>2022-09-18T10:28:57.000Z</time>
      </trkpt>
      <trkpt lat="49.81492" lon="4.8428">
        <ele>219</ele>
        <time>2022-09-18T10:28:58.000Z</time>
      </trkpt>
      <trkpt lat="49.81493" lon="4.84273">
        <ele>219</ele>
        <time>2022-09-18T10:28:59.000Z</time>
      </trkpt>
      <trkpt lat="49.81494" lon="4.84266">
        <ele>219</ele>
        <time>2022-09-18T10:29:00.000Z</time>
      </trkpt>
      <trkpt lat="49.81494" lon="4.84259">
        <ele>219</ele>
        <time>2022-09-18T10:29:01.000Z</time>
      </trkpt>
      <trkpt lat="49.81494" lon="4.84252">
        <ele>219</ele>
        <time>2022-09-18T10:29:02.000Z</time>
      </trkpt>
      <trkpt lat="49.81494" lon="4.84246">
        <ele>219</ele>
        <time>2022-09-18T10:29:03.000Z</time>
      </trkpt>
      <trkpt lat="49.81493" lon="4.8424">
        <ele>219</ele>
        <time>2022-09-18T10:29:04.000Z</time>
      </trkpt>
      <trkpt lat="49.81492" lon="4.84236">
        <ele>219</ele>
        <time>2022-09-18T10:29:05.000Z</time>
      </trkpt>
      <trkpt lat="49.81491" lon="4.84232">
        <ele>219</ele>
        <time>2022-09-18T10:29:06.000Z</time>
      </trkpt>
      <trkpt lat="49.8149" lon="4.84228">
        <ele>219</ele>
        <time>2022-09-18T10:29:07.000Z</time>
      </trkpt>
      <trkpt lat="49.8149" lon="4.84225">
        <ele>219</ele>
        <time>2022-09-18T10:29:08.000Z</time>
      </trkpt>
      <trkpt lat="49.81489" lon="4.8422">
        <ele>219</ele>
        <time>2022-09-18T10:29:09.000Z</time>
      </trkpt>
      <trkpt lat="49.81489" lon="4.84214">
        <ele>219</ele>
        <time>2022-09-18T10:29:10.000Z</time>
      </trkpt>
      <trkpt lat="49.81489" lon="4.84208">
        <ele>220</ele>
        <time>2022-09-18T10:29:11.000Z</time>
      </trkpt>
      <trkpt lat="49.8149" lon="4.84203">
        <ele>220</ele>
        <time>2022-09-18T10:29:12.000Z</time>
      </trkpt>
      <trkpt lat="49.81491" lon="4.84197">
        <ele>220</ele>
        <time>2022-09-18T10:29:13.000Z</time>
      </trkpt>
      <trkpt lat="49.81492" lon="4.8419">
        <ele>220</ele>
        <time>2022-09-18T10:29:14.000Z</time>
      </trkpt>
      <trkpt lat="49.81494" lon="4.84184">
        <ele>220</ele>
        <time>2022-09-18T10:29:15.000Z</time>
      </trkpt>
      <trkpt lat="49.81495" lon="4.84176">
        <ele>220</ele>
        <time>2022-09-18T10:29:16.000Z</time>
      </trkpt>
      <trkpt lat="49.81496" lon="4.84169">
        <ele>220</ele>
        <time>2022-09-18T10:29:17.000Z</time>
      </trkpt>
      <trkpt lat="49.81497" lon="4.84162">
        <ele>220</ele>
        <time>2022-09-18T10:29:18.000Z</time>
      </trkpt>
      <trkpt lat="49.81497" lon="4.84155">
        <ele>220</ele>
        <time>2022-09-18T10:29:19.000Z</time>
      </trkpt>
      <trkpt lat="49.81498" lon="4.84147">
        <ele>220</ele>
        <time>2022-09-18T10:29:20.000Z</time>
      </trkpt>
      <trkpt lat="49.81499" lon="4.84139">
        <ele>220</ele>
        <time>2022-09-18T10:29:21.000Z</time>
      </trkpt>
      <trkpt lat="49.815" lon="4.8413">
        <ele>220</ele>
        <time>2022-09-18T10:29:22.000Z</time>
      </trkpt>
      <trkpt lat="49.81501" lon="4.84122">
        <ele>220</ele>
        <time>2022-09-18T10:29:23.000Z</time>
      </trkpt>
      <trkpt lat="49.81501" lon="4.84114">
        <ele>220</ele>
        <time>2022-09-18T10:29:24.000Z</time>
      </trkpt>
      <trkpt lat="49.81501" lon="4.84106">
        <ele>220</ele>
        <time>2022-09-18T10:29:25.000Z</time>
      </trkpt>
      <trkpt lat="49.81501" lon="4.84098">
        <ele>221</ele>
        <time>2022-09-18T10:29:26.000Z</time>
      </trkpt>
      <trkpt lat="49.81502" lon="4.84091">
        <ele>221</ele>
        <time>2022-09-18T10:29:27.000Z</time>
      </trkpt>
      <trkpt lat="49.81502" lon="4.84084">
        <ele>221</ele>
        <time>2022-09-18T10:29:28.000Z</time>
      </trkpt>
      <trkpt lat="49.81501" lon="4.84076">
        <ele>221</ele>
        <time>2022-09-18T10:29:29.000Z</time>
      </trkpt>
      <trkpt lat="49.815" lon="4.84068">
        <ele>221</ele>
        <time>2022-09-18T10:29:30.000Z</time>
      </trkpt>
      <trkpt lat="49.81499" lon="4.8406">
        <ele>221</ele>
        <time>2022-09-18T10:29:31.000Z</time>
      </trkpt>
      <trkpt lat="49.81498" lon="4.84051">
        <ele>221</ele>
        <time>2022-09-18T10:29:32.000Z</time>
      </trkpt>
      <trkpt lat="49.81497" lon="4.84043">
        <ele>221</ele>
        <time>2022-09-18T10:29:33.000Z</time>
      </trkpt>
      <trkpt lat="49.81496" lon="4.84035">
        <ele>221</ele>
        <time>2022-09-18T10:29:34.000Z</time>
      </trkpt>
      <trkpt lat="49.81496" lon="4.84028">
        <ele>221</ele>
        <time>2022-09-18T10:29:35.000Z</time>
      </trkpt>
      <trkpt lat="49.81494" lon="4.84021">
        <ele>221</ele>
        <time>2022-09-18T10:29:36.000Z</time>
      </trkpt>
      <trkpt lat="49.81493" lon="4.84013">
        <ele>221</ele>
        <time>2022-09-18T10:29:37.000Z</time>
      </trkpt>
      <trkpt lat="49.81492" lon="4.84006">
        <ele>221</ele>
        <time>2022-09-18T10:29:38.000Z</time>
      </trkpt>
      <trkpt lat="49.81491" lon="4.83999">
        <ele>221</ele>
        <time>2022-09-18T10:29:39.000Z</time>
      </trkpt>
      <trkpt lat="49.8149" lon="4.83992">
        <ele>222</ele>
        <time>2022-09-18T10:29:40.000Z</time>
      </trkpt>
      <trkpt lat="49.81488" lon="4.83984">
        <ele>222</ele>
        <time>2022-09-18T10:29:41.000Z</time>
      </trkpt>
      <trkpt lat="49.81487" lon="4.83977">
        <ele>222</ele>
        <time>2022-09-18T10:29:42.000Z</time>
      </trkpt>
      <trkpt lat="49.81485" lon="4.83969">
        <ele>222</ele>
        <time>2022-09-18T10:29:43.000Z</time>
      </trkpt>
      <trkpt lat="49.81484" lon="4.83962">
        <ele>222</ele>
        <time>2022-09-18T10:29:44.000Z</time>
      </trkpt>
      <trkpt lat="49.81483" lon="4.83953">
        <ele>222</ele>
        <time>2022-09-18T10:29:45.000Z</time>
      </trkpt>
      <trkpt lat="49.81481" lon="4.83945">
        <ele>222</ele>
        <time>2022-09-18T10:29:46.000Z</time>
      </trkpt>
      <trkpt lat="49.8148" lon="4.83937">
        <ele>223</ele>
        <time>2022-09-18T10:29:47.000Z</time>
      </trkpt>
      <trkpt lat="49.81479" lon="4.83928">
        <ele>223</ele>
        <time>2022-09-18T10:29:48.000Z</time>
      </trkpt>
      <trkpt lat="49.81478" lon="4.83919">
        <ele>223</ele>
        <time>2022-09-18T10:29:49.000Z</time>
      </trkpt>
      <trkpt lat="49.81477" lon="4.83911">
        <ele>223</ele>
        <time>2022-09-18T10:29:50.000Z</time>
      </trkpt>
      <trkpt lat="49.81475" lon="4.83903">
        <ele>223</ele>
        <time>2022-09-18T10:29:51.000Z</time>
      </trkpt>
      <trkpt lat="49.81474" lon="4.83896">
        <ele>222</ele>
        <time>2022-09-18T10:29:52.000Z</time>
      </trkpt>
      <trkpt lat="49.81474" lon="4.83888">
        <ele>222</ele>
        <time>2022-09-18T10:29:53.000Z</time>
      </trkpt>
      <trkpt lat="49.81473" lon="4.8388">
        <ele>222</ele>
        <time>2022-09-18T10:29:54.000Z</time>
      </trkpt>
      <trkpt lat="49.81472" lon="4.83872">
        <ele>222</ele>
        <time>2022-09-18T10:29:55.000Z</time>
      </trkpt>
      <trkpt lat="49.81471" lon="4.83866">
        <ele>222</ele>
        <time>2022-09-18T10:29:56.000Z</time>
      </trkpt>
      <trkpt lat="49.81469" lon="4.83862">
        <ele>222</ele>
        <time>2022-09-18T10:29:57.000Z</time>
      </trkpt>
      <trkpt lat="49.81467" lon="4.83858">
        <ele>222</ele>
        <time>2022-09-18T10:29:58.000Z</time>
      </trkpt>
      <trkpt lat="49.81465" lon="4.83856">
        <ele>222</ele>
        <time>2022-09-18T10:29:59.000Z</time>
      </trkpt>
      <trkpt lat="49.81463" lon="4.83855">
        <ele>222</ele>
        <time>2022-09-18T10:30:00.000Z</time>
      </trkpt>
      <trkpt lat="49.81461" lon="4.83854">
        <ele>222</ele>
        <time>2022-09-18T10:30:01.000Z</time>
      </trkpt>
      <trkpt lat="49.8146" lon="4.83853">
        <ele>222</ele>
        <time>2022-09-18T10:30:02.000Z</time>
      </trkpt>
      <trkpt lat="49.81458" lon="4.83853">
        <ele>222</ele>
        <time>2022-09-18T10:30:03.000Z</time>
      </trkpt>
      <trkpt lat="49.81456" lon="4.83853">
        <ele>222</ele>
        <time>2022-09-18T10:30:04.000Z</time>
      </trkpt>
      <trkpt lat="49.81454" lon="4.83853">
        <ele>222</ele>
        <time>2022-09-18T10:30:05.000Z</time>
      </trkpt>
      <trkpt lat="49.81453" lon="4.83853">
        <ele>222</ele>
        <time>2022-09-18T10:30:06.000Z</time>
      </trkpt>
      <trkpt lat="49.81452" lon="4.83852">
        <ele>222</ele>
        <time>2022-09-18T10:30:07.000Z</time>
      </trkpt>
      <trkpt lat="49.81451" lon="4.83852">
        <ele>222</ele>
        <time>2022-09-18T10:30:08.000Z</time>
      </trkpt>
      <trkpt lat="49.81449" lon="4.83852">
        <ele>222</ele>
        <time>2022-09-18T10:30:09.000Z</time>
      </trkpt>
      <trkpt lat="49.81448" lon="4.83852">
        <ele>222</ele>
        <time>2022-09-18T10:30:10.000Z</time>
      </trkpt>
      <trkpt lat="49.81447" lon="4.83852">
        <ele>222</ele>
        <time>2022-09-18T10:30:11.000Z</time>
      </trkpt>
      <trkpt lat="49.81446" lon="4.83852">
        <ele>222</ele>
        <time>2022-09-18T10:30:12.000Z</time>
      </trkpt>
      <trkpt lat="49.81444" lon="4.83852">
        <ele>222</ele>
        <time>2022-09-18T10:30:13.000Z</time>
      </trkpt>
      <trkpt lat="49.81443" lon="4.83852">
        <ele>222</ele>
        <time>2022-09-18T10:30:14.000Z</time>
      </trkpt>
      <trkpt lat="49.81442" lon="4.83852">
        <ele>222</ele>
        <time>2022-09-18T10:30:15.000Z</time>
      </trkpt>
      <trkpt lat="49.8144" lon="4.83853">
        <ele>222</ele>
        <time>2022-09-18T10:30:16.000Z</time>
      </trkpt>
      <trkpt lat="49.81438" lon="4.83853">
        <ele>222</ele>
        <time>2022-09-18T10:30:17.000Z</time>
      </trkpt>
      <trkpt lat="49.81436" lon="4.83853">
        <ele>222</ele>
        <time>2022-09-18T10:30:18.000Z</time>
      </trkpt>
      <trkpt lat="49.81435" lon="4.83854">
        <ele>222</ele>
        <time>2022-09-18T10:30:19.000Z</time>
      </trkpt>
      <trkpt lat="49.81433" lon="4.83853">
        <ele>222</ele>
        <time>2022-09-18T10:30:20.000Z</time>
      </trkpt>
      <trkpt lat="49.81431" lon="4.83852">
        <ele>222</ele>
        <time>2022-09-18T10:30:21.000Z</time>
      </trkpt>
      <trkpt lat="49.8143" lon="4.8385">
        <ele>223</ele>
        <time>2022-09-18T10:30:22.000Z</time>
      </trkpt>
      <trkpt lat="49.81428" lon="4.83849">
        <ele>223</ele>
        <time>2022-09-18T10:30:23.000Z</time>
      </trkpt>
      <trkpt lat="49.81427" lon="4.83847">
        <ele>223</ele>
        <time>2022-09-18T10:30:24.000Z</time>
      </trkpt>
      <trkpt lat="49.81425" lon="4.83846">
        <ele>223</ele>
        <time>2022-09-18T10:30:25.000Z</time>
      </trkpt>
      <trkpt lat="49.81424" lon="4.83845">
        <ele>223</ele>
        <time>2022-09-18T10:30:26.000Z</time>
      </trkpt>
      <trkpt lat="49.81422" lon="4.83844">
        <ele>223</ele>
        <time>2022-09-18T10:30:27.000Z</time>
      </trkpt>
      <trkpt lat="49.8142" lon="4.83844">
        <ele>223</ele>
        <time>2022-09-18T10:30:28.000Z</time>
      </trkpt>
      <trkpt lat="49.81418" lon="4.83844">
        <ele>223</ele>
        <time>2022-09-18T10:30:29.000Z</time>
      </trkpt>
      <trkpt lat="49.81415" lon="4.83845">
        <ele>223</ele>
        <time>2022-09-18T10:30:30.000Z</time>
      </trkpt>
      <trkpt lat="49.81412" lon="4.83845">
        <ele>223</ele>
        <time>2022-09-18T10:30:31.000Z</time>
      </trkpt>
      <trkpt lat="49.8141" lon="4.83844">
        <ele>223</ele>
        <time>2022-09-18T10:30:32.000Z</time>
      </trkpt>
      <trkpt lat="49.81408" lon="4.83844">
        <ele>223</ele>
        <time>2022-09-18T10:30:33.000Z</time>
      </trkpt>
      <trkpt lat="49.81405" lon="4.83844">
        <ele>223</ele>
        <time>2022-09-18T10:30:34.000Z</time>
      </trkpt>
      <trkpt lat="49.81403" lon="4.83846">
        <ele>224</ele>
        <time>2022-09-18T10:30:35.000Z</time>
      </trkpt>
      <trkpt lat="49.814" lon="4.83847">
        <ele>224</ele>
        <time>2022-09-18T10:30:36.000Z</time>
      </trkpt>
      <trkpt lat="49.81398" lon="4.83848">
        <ele>224</ele>
        <time>2022-09-18T10:30:37.000Z</time>
      </trkpt>
      <trkpt lat="49.81395" lon="4.83849">
        <ele>224</ele>
        <time>2022-09-18T10:30:38.000Z</time>
      </trkpt>
      <trkpt lat="49.81393" lon="4.83851">
        <ele>224</ele>
        <time>2022-09-18T10:30:39.000Z</time>
      </trkpt>
      <trkpt lat="49.81391" lon="4.83852">
        <ele>225</ele>
        <time>2022-09-18T10:30:40.000Z</time>
      </trkpt>
      <trkpt lat="49.81389" lon="4.83852">
        <ele>225</ele>
        <time>2022-09-18T10:30:41.000Z</time>
      </trkpt>
      <trkpt lat="49.81386" lon="4.83853">
        <ele>225</ele>
        <time>2022-09-18T10:30:42.000Z</time>
      </trkpt>
      <trkpt lat="49.81384" lon="4.83853">
        <ele>225</ele>
        <time>2022-09-18T10:30:43.000Z</time>
      </trkpt>
      <trkpt lat="49.81382" lon="4.83853">
        <ele>225</ele>
        <time>2022-09-18T10:30:44.000Z</time>
      </trkpt>
      <trkpt lat="49.81379" lon="4.83853">
        <ele>225</ele>
        <time>2022-09-18T10:30:45.000Z</time>
      </trkpt>
      <trkpt lat="49.81376" lon="4.83852">
        <ele>226</ele>
        <time>2022-09-18T10:30:46.000Z</time>
      </trkpt>
      <trkpt lat="49.81374" lon="4.83852">
        <ele>226</ele>
        <time>2022-09-18T10:30:47.000Z</time>
      </trkpt>
      <trkpt lat="49.81371" lon="4.83851">
        <ele>226</ele>
        <time>2022-09-18T10:30:48.000Z</time>
      </trkpt>
      <trkpt lat="49.81368" lon="4.83851">
        <ele>226</ele>
        <time>2022-09-18T10:30:49.000Z</time>
      </trkpt>
      <trkpt lat="49.81365" lon="4.8385">
        <ele>226</ele>
        <time>2022-09-18T10:30:50.000Z</time>
      </trkpt>
      <trkpt lat="49.81362" lon="4.8385">
        <ele>226</ele>
        <time>2022-09-18T10:30:51.000Z</time>
      </trkpt>
      <trkpt lat="49.81359" lon="4.83849">
        <ele>226</ele>
        <time>2022-09-18T10:30:52.000Z</time>
      </trkpt>
      <trkpt lat="49.81355" lon="4.83848">
        <ele>226</ele>
        <time>2022-09-18T10:30:53.000Z</time>
      </trkpt>
      <trkpt lat="49.81352" lon="4.83846">
        <ele>226</ele>
        <time>2022-09-18T10:30:54.000Z</time>
      </trkpt>
      <trkpt lat="49.81348" lon="4.83844">
        <ele>226</ele>
        <time>2022-09-18T10:30:55.000Z</time>
      </trkpt>
      <trkpt lat="49.81343" lon="4.83843">
        <ele>227</ele>
        <time>2022-09-18T10:30:56.000Z</time>
      </trkpt>
      <trkpt lat="49.81339" lon="4.83842">
        <ele>227</ele>
        <time>2022-09-18T10:30:57.000Z</time>
      </trkpt>
      <trkpt lat="49.81335" lon="4.83842">
        <ele>227</ele>
        <time>2022-09-18T10:30:58.000Z</time>
      </trkpt>
      <trkpt lat="49.81332" lon="4.83841">
        <ele>227</ele>
        <time>2022-09-18T10:30:59.000Z</time>
      </trkpt>
      <trkpt lat="49.81328" lon="4.8384">
        <ele>227</ele>
        <time>2022-09-18T10:31:00.000Z</time>
      </trkpt>
      <trkpt lat="49.81323" lon="4.8384">
        <ele>227</ele>
        <time>2022-09-18T10:31:01.000Z</time>
      </trkpt>
      <trkpt lat="49.81318" lon="4.8384">
        <ele>228</ele>
        <time>2022-09-18T10:31:02.000Z</time>
      </trkpt>
      <trkpt lat="49.81314" lon="4.83841">
        <ele>228</ele>
        <time>2022-09-18T10:31:03.000Z</time>
      </trkpt>
      <trkpt lat="49.81311" lon="4.83843">
        <ele>228</ele>
        <time>2022-09-18T10:31:04.000Z</time>
      </trkpt>
      <trkpt lat="49.81309" lon="4.83845">
        <ele>228</ele>
        <time>2022-09-18T10:31:05.000Z</time>
      </trkpt>
      <trkpt lat="49.81306" lon="4.83847">
        <ele>228</ele>
        <time>2022-09-18T10:31:06.000Z</time>
      </trkpt>
      <trkpt lat="49.81304" lon="4.8385">
        <ele>228</ele>
        <time>2022-09-18T10:31:07.000Z</time>
      </trkpt>
      <trkpt lat="49.81302" lon="4.83853">
        <ele>228</ele>
        <time>2022-09-18T10:31:08.000Z</time>
      </trkpt>
      <trkpt lat="49.813" lon="4.83855">
        <ele>228</ele>
        <time>2022-09-18T10:31:09.000Z</time>
      </trkpt>
      <trkpt lat="49.81298" lon="4.83857">
        <ele>228</ele>
        <time>2022-09-18T10:31:10.000Z</time>
      </trkpt>
      <trkpt lat="49.81297" lon="4.83858">
        <ele>229</ele>
        <time>2022-09-18T10:31:11.000Z</time>
      </trkpt>
      <trkpt lat="49.81295" lon="4.83858">
        <ele>229</ele>
        <time>2022-09-18T10:31:12.000Z</time>
      </trkpt>
      <trkpt lat="49.81294" lon="4.8386">
        <ele>229</ele>
        <time>2022-09-18T10:31:13.000Z</time>
      </trkpt>
      <trkpt lat="49.81292" lon="4.83861">
        <ele>229</ele>
        <time>2022-09-18T10:31:14.000Z</time>
      </trkpt>
      <trkpt lat="49.8129" lon="4.83862">
        <ele>229</ele>
        <time>2022-09-18T10:31:15.000Z</time>
      </trkpt>
      <trkpt lat="49.81288" lon="4.83863">
        <ele>229</ele>
        <time>2022-09-18T10:31:16.000Z</time>
      </trkpt>
      <trkpt lat="49.81287" lon="4.83865">
        <ele>229</ele>
        <time>2022-09-18T10:31:17.000Z</time>
      </trkpt>
      <trkpt lat="49.81286" lon="4.83866">
        <ele>229</ele>
        <time>2022-09-18T10:31:18.000Z</time>
      </trkpt>
      <trkpt lat="49.81284" lon="4.83868">
        <ele>229</ele>
        <time>2022-09-18T10:31:19.000Z</time>
      </trkpt>
      <trkpt lat="49.81282" lon="4.83869">
        <ele>229</ele>
        <time>2022-09-18T10:31:20.000Z</time>
      </trkpt>
      <trkpt lat="49.8128" lon="4.83871">
        <ele>229</ele>
        <time>2022-09-18T10:31:21.000Z</time>
      </trkpt>
      <trkpt lat="49.81278" lon="4.83873">
        <ele>229</ele>
        <time>2022-09-18T10:31:22.000Z</time>
      </trkpt>
      <trkpt lat="49.81275" lon="4.83875">
        <ele>229</ele>
        <time>2022-09-18T10:31:23.000Z</time>
      </trkpt>
      <trkpt lat="49.81273" lon="4.83877">
        <ele>229</ele>
        <time>2022-09-18T10:31:24.000Z</time>
      </trkpt>
      <trkpt lat="49.81271" lon="4.83878">
        <ele>229</ele>
        <time>2022-09-18T10:31:25.000Z</time>
      </trkpt>
      <trkpt lat="49.81269" lon="4.83879">
        <ele>229</ele>
        <time>2022-09-18T10:31:26.000Z</time>
      </trkpt>
      <trkpt lat="49.81266" lon="4.83881">
        <ele>229</ele>
        <time>2022-09-18T10:31:27.000Z</time>
      </trkpt>
      <trkpt lat="49.81264" lon="4.83882">
        <ele>230</ele>
        <time>2022-09-18T10:31:28.000Z</time>
      </trkpt>
      <trkpt lat="49.81261" lon="4.83883">
        <ele>230</ele>
        <time>2022-09-18T10:31:29.000Z</time>
      </trkpt>
      <trkpt lat="49.81258" lon="4.83884">
        <ele>230</ele>
        <time>2022-09-18T10:31:30.000Z</time>
      </trkpt>
      <trkpt lat="49.81253" lon="4.83885">
        <ele>230</ele>
        <time>2022-09-18T10:31:31.000Z</time>
      </trkpt>
      <trkpt lat="49.8125" lon="4.83885">
        <ele>230</ele>
        <time>2022-09-18T10:31:32.000Z</time>
      </trkpt>
      <trkpt lat="49.81246" lon="4.83886">
        <ele>230</ele>
        <time>2022-09-18T10:31:33.000Z</time>
      </trkpt>
      <trkpt lat="49.81242" lon="4.83886">
        <ele>230</ele>
        <time>2022-09-18T10:31:34.000Z</time>
      </trkpt>
      <trkpt lat="49.81238" lon="4.83887">
        <ele>231</ele>
        <time>2022-09-18T10:31:35.000Z</time>
      </trkpt>
      <trkpt lat="49.81234" lon="4.83888">
        <ele>231</ele>
        <time>2022-09-18T10:31:36.000Z</time>
      </trkpt>
      <trkpt lat="49.8123" lon="4.83889">
        <ele>231</ele>
        <time>2022-09-18T10:31:37.000Z</time>
      </trkpt>
      <trkpt lat="49.81226" lon="4.8389">
        <ele>231</ele>
        <time>2022-09-18T10:31:38.000Z</time>
      </trkpt>
      <trkpt lat="49.81221" lon="4.8389">
        <ele>231</ele>
        <time>2022-09-18T10:31:39.000Z</time>
      </trkpt>
      <trkpt lat="49.81217" lon="4.8389">
        <ele>231</ele>
        <time>2022-09-18T10:31:40.000Z</time>
      </trkpt>
      <trkpt lat="49.81212" lon="4.83891">
        <ele>232</ele>
        <time>2022-09-18T10:31:41.000Z</time>
      </trkpt>
      <trkpt lat="49.81209" lon="4.83892">
        <ele>232</ele>
        <time>2022-09-18T10:31:42.000Z</time>
      </trkpt>
      <trkpt lat="49.81205" lon="4.83892">
        <ele>232</ele>
        <time>2022-09-18T10:31:43.000Z</time>
      </trkpt>
      <trkpt lat="49.81201" lon="4.83892">
        <ele>232</ele>
        <time>2022-09-18T10:31:44.000Z</time>
      </trkpt>
      <trkpt lat="49.81197" lon="4.83893">
        <ele>232</ele>
        <time>2022-09-18T10:31:45.000Z</time>
      </trkpt>
      <trkpt lat="49.81194" lon="4.83892">
        <ele>232</ele>
        <time>2022-09-18T10:31:46.000Z</time>
      </trkpt>
      <trkpt lat="49.8119" lon="4.83893">
        <ele>232</ele>
        <time>2022-09-18T10:31:47.000Z</time>
      </trkpt>
      <trkpt lat="49.81187" lon="4.83893">
        <ele>232</ele>
        <time>2022-09-18T10:31:48.000Z</time>
      </trkpt>
      <trkpt lat="49.81183" lon="4.83894">
        <ele>233</ele>
        <time>2022-09-18T10:31:49.000Z</time>
      </trkpt>
      <trkpt lat="49.81179" lon="4.83894">
        <ele>233</ele>
        <time>2022-09-18T10:31:50.000Z</time>
      </trkpt>
      <trkpt lat="49.81176" lon="4.83895">
        <ele>233</ele>
        <time>2022-09-18T10:31:51.000Z</time>
      </trkpt>
      <trkpt lat="49.81172" lon="4.83895">
        <ele>233</ele>
        <time>2022-09-18T10:31:52.000Z</time>
      </trkpt>
      <trkpt lat="49.81167" lon="4.83896">
        <ele>233</ele>
        <time>2022-09-18T10:31:53.000Z</time>
      </trkpt>
      <trkpt lat="49.81163" lon="4.83897">
        <ele>233</ele>
        <time>2022-09-18T10:31:54.000Z</time>
      </trkpt>
      <trkpt lat="49.81159" lon="4.83897">
        <ele>234</ele>
        <time>2022-09-18T10:31:55.000Z</time>
      </trkpt>
      <trkpt lat="49.81155" lon="4.83898">
        <ele>234</ele>
        <time>2022-09-18T10:31:56.000Z</time>
      </trkpt>
      <trkpt lat="49.8115" lon="4.83897">
        <ele>234</ele>
        <time>2022-09-18T10:31:57.000Z</time>
      </trkpt>
      <trkpt lat="49.81145" lon="4.83897">
        <ele>234</ele>
        <time>2022-09-18T10:31:58.000Z</time>
      </trkpt>
      <trkpt lat="49.81142" lon="4.83898">
        <ele>234</ele>
        <time>2022-09-18T10:31:59.000Z</time>
      </trkpt>
      <trkpt lat="49.81138" lon="4.83898">
        <ele>235</ele>
        <time>2022-09-18T10:32:00.000Z</time>
      </trkpt>
      <trkpt lat="49.81134" lon="4.83899">
        <ele>235</ele>
        <time>2022-09-18T10:32:01.000Z</time>
      </trkpt>
      <trkpt lat="49.8113" lon="4.83899">
        <ele>235</ele>
        <time>2022-09-18T10:32:02.000Z</time>
      </trkpt>
      <trkpt lat="49.81126" lon="4.83898">
        <ele>235</ele>
        <time>2022-09-18T10:32:03.000Z</time>
      </trkpt>
      <trkpt lat="49.81122" lon="4.83898">
        <ele>235</ele>
        <time>2022-09-18T10:32:04.000Z</time>
      </trkpt>
      <trkpt lat="49.81117" lon="4.83898">
        <ele>235</ele>
        <time>2022-09-18T10:32:05.000Z</time>
      </trkpt>
      <trkpt lat="49.81112" lon="4.83897">
        <ele>235</ele>
        <time>2022-09-18T10:32:06.000Z</time>
      </trkpt>
      <trkpt lat="49.81108" lon="4.83897">
        <ele>235</ele>
        <time>2022-09-18T10:32:07.000Z</time>
      </trkpt>
      <trkpt lat="49.81104" lon="4.83896">
        <ele>235</ele>
        <time>2022-09-18T10:32:08.000Z</time>
      </trkpt>
      <trkpt lat="49.811" lon="4.83897">
        <ele>235</ele>
        <time>2022-09-18T10:32:09.000Z</time>
      </trkpt>
      <trkpt lat="49.81096" lon="4.83896">
        <ele>235</ele>
        <time>2022-09-18T10:32:10.000Z</time>
      </trkpt>
      <trkpt lat="49.81092" lon="4.83896">
        <ele>236</ele>
        <time>2022-09-18T10:32:11.000Z</time>
      </trkpt>
      <trkpt lat="49.81087" lon="4.83895">
        <ele>236</ele>
        <time>2022-09-18T10:32:12.000Z</time>
      </trkpt>
      <trkpt lat="49.81082" lon="4.83893">
        <ele>236</ele>
        <time>2022-09-18T10:32:13.000Z</time>
      </trkpt>
      <trkpt lat="49.81078" lon="4.83892">
        <ele>236</ele>
        <time>2022-09-18T10:32:14.000Z</time>
      </trkpt>
      <trkpt lat="49.81073" lon="4.83891">
        <ele>236</ele>
        <time>2022-09-18T10:32:15.000Z</time>
      </trkpt>
      <trkpt lat="49.81069" lon="4.83891">
        <ele>236</ele>
        <time>2022-09-18T10:32:16.000Z</time>
      </trkpt>
      <trkpt lat="49.81064" lon="4.83891">
        <ele>236</ele>
        <time>2022-09-18T10:32:17.000Z</time>
      </trkpt>
      <trkpt lat="49.81059" lon="4.8389">
        <ele>236</ele>
        <time>2022-09-18T10:32:18.000Z</time>
      </trkpt>
      <trkpt lat="49.81054" lon="4.83889">
        <ele>236</ele>
        <time>2022-09-18T10:32:19.000Z</time>
      </trkpt>
      <trkpt lat="49.8105" lon="4.83888">
        <ele>236</ele>
        <time>2022-09-18T10:32:20.000Z</time>
      </trkpt>
      <trkpt lat="49.81045" lon="4.83887">
        <ele>236</ele>
        <time>2022-09-18T10:32:21.000Z</time>
      </trkpt>
      <trkpt lat="49.81041" lon="4.83887">
        <ele>237</ele>
        <time>2022-09-18T10:32:22.000Z</time>
      </trkpt>
      <trkpt lat="49.81037" lon="4.83887">
        <ele>237</ele>
        <time>2022-09-18T10:32:23.000Z</time>
      </trkpt>
      <trkpt lat="49.81033" lon="4.83887">
        <ele>237</ele>
        <time>2022-09-18T10:32:24.000Z</time>
      </trkpt>
      <trkpt lat="49.81029" lon="4.83887">
        <ele>237</ele>
        <time>2022-09-18T10:32:25.000Z</time>
      </trkpt>
      <trkpt lat="49.81025" lon="4.83887">
        <ele>237</ele>
        <time>2022-09-18T10:32:26.000Z</time>
      </trkpt>
      <trkpt lat="49.8102" lon="4.83887">
        <ele>237</ele>
        <time>2022-09-18T10:32:27.000Z</time>
      </trkpt>
      <trkpt lat="49.81016" lon="4.83888">
        <ele>237</ele>
        <time>2022-09-18T10:32:28.000Z</time>
      </trkpt>
      <trkpt lat="49.81012" lon="4.83888">
        <ele>237</ele>
        <time>2022-09-18T10:32:29.000Z</time>
      </trkpt>
      <trkpt lat="49.81008" lon="4.83888">
        <ele>237</ele>
        <time>2022-09-18T10:32:30.000Z</time>
      </trkpt>
      <trkpt lat="49.81003" lon="4.83889">
        <ele>237</ele>
        <time>2022-09-18T10:32:31.000Z</time>
      </trkpt>
      <trkpt lat="49.80999" lon="4.83889">
        <ele>237</ele>
        <time>2022-09-18T10:32:32.000Z</time>
      </trkpt>
      <trkpt lat="49.80995" lon="4.83888">
        <ele>237</ele>
        <time>2022-09-18T10:32:33.000Z</time>
      </trkpt>
      <trkpt lat="49.80991" lon="4.83888">
        <ele>237</ele>
        <time>2022-09-18T10:32:34.000Z</time>
      </trkpt>
      <trkpt lat="49.80987" lon="4.83888">
        <ele>237</ele>
        <time>2022-09-18T10:32:35.000Z</time>
      </trkpt>
      <trkpt lat="49.80982" lon="4.83888">
        <ele>237</ele>
        <time>2022-09-18T10:32:36.000Z</time>
      </trkpt>
      <trkpt lat="49.80978" lon="4.83887">
        <ele>237</ele>
        <time>2022-09-18T10:32:37.000Z</time>
      </trkpt>
      <trkpt lat="49.80973" lon="4.83887">
        <ele>237</ele>
        <time>2022-09-18T10:32:38.000Z</time>
      </trkpt>
      <trkpt lat="49.80969" lon="4.83887">
        <ele>237</ele>
        <time>2022-09-18T10:32:39.000Z</time>
      </trkpt>
      <trkpt lat="49.80965" lon="4.83887">
        <ele>237</ele>
        <time>2022-09-18T10:32:40.000Z</time>
      </trkpt>
      <trkpt lat="49.80961" lon="4.83888">
        <ele>237</ele>
        <time>2022-09-18T10:32:41.000Z</time>
      </trkpt>
      <trkpt lat="49.80957" lon="4.83888">
        <ele>237</ele>
        <time>2022-09-18T10:32:42.000Z</time>
      </trkpt>
      <trkpt lat="49.80953" lon="4.83888">
        <ele>237</ele>
        <time>2022-09-18T10:32:43.000Z</time>
      </trkpt>
      <trkpt lat="49.80949" lon="4.83887">
        <ele>237</ele>
        <time>2022-09-18T10:32:44.000Z</time>
      </trkpt>
      <trkpt lat="49.80944" lon="4.83887">
        <ele>236</ele>
        <time>2022-09-18T10:32:45.000Z</time>
      </trkpt>
      <trkpt lat="49.8094" lon="4.83888">
        <ele>236</ele>
        <time>2022-09-18T10:32:46.000Z</time>
      </trkpt>
      <trkpt lat="49.80936" lon="4.83888">
        <ele>236</ele>
        <time>2022-09-18T10:32:47.000Z</time>
      </trkpt>
      <trkpt lat="49.80932" lon="4.83888">
        <ele>236</ele>
        <time>2022-09-18T10:32:48.000Z</time>
      </trkpt>
      <trkpt lat="49.80928" lon="4.83888">
        <ele>236</ele>
        <time>2022-09-18T10:32:49.000Z</time>
      </trkpt>
      <trkpt lat="49.80924" lon="4.83888">
        <ele>236</ele>
        <time>2022-09-18T10:32:50.000Z</time>
      </trkpt>
      <trkpt lat="49.80921" lon="4.83888">
        <ele>235</ele>
        <time>2022-09-18T10:32:51.000Z</time>
      </trkpt>
      <trkpt lat="49.80917" lon="4.83887">
        <ele>235</ele>
        <time>2022-09-18T10:32:52.000Z</time>
      </trkpt>
      <trkpt lat="49.80913" lon="4.83888">
        <ele>235</ele>
        <time>2022-09-18T10:32:53.000Z</time>
      </trkpt>
      <trkpt lat="49.80909" lon="4.83888">
        <ele>235</ele>
        <time>2022-09-18T10:32:54.000Z</time>
      </trkpt>
      <trkpt lat="49.80904" lon="4.83888">
        <ele>235</ele>
        <time>2022-09-18T10:32:55.000Z</time>
      </trkpt>
      <trkpt lat="49.809" lon="4.83888">
        <ele>235</ele>
        <time>2022-09-18T10:32:56.000Z</time>
      </trkpt>
      <trkpt lat="49.80896" lon="4.83888">
        <ele>235</ele>
        <time>2022-09-18T10:32:57.000Z</time>
      </trkpt>
      <trkpt lat="49.80891" lon="4.83888">
        <ele>235</ele>
        <time>2022-09-18T10:32:58.000Z</time>
      </trkpt>
      <trkpt lat="49.80886" lon="4.83888">
        <ele>235</ele>
        <time>2022-09-18T10:32:59.000Z</time>
      </trkpt>
      <trkpt lat="49.80882" lon="4.83888">
        <ele>235</ele>
        <time>2022-09-18T10:33:00.000Z</time>
      </trkpt>
      <trkpt lat="49.80877" lon="4.83889">
        <ele>235</ele>
        <time>2022-09-18T10:33:01.000Z</time>
      </trkpt>
      <trkpt lat="49.80873" lon="4.83889">
        <ele>234</ele>
        <time>2022-09-18T10:33:02.000Z</time>
      </trkpt>
      <trkpt lat="49.80869" lon="4.83889">
        <ele>234</ele>
        <time>2022-09-18T10:33:03.000Z</time>
      </trkpt>
      <trkpt lat="49.80865" lon="4.8389">
        <ele>234</ele>
        <time>2022-09-18T10:33:04.000Z</time>
      </trkpt>
      <trkpt lat="49.8086" lon="4.8389">
        <ele>234</ele>
        <time>2022-09-18T10:33:05.000Z</time>
      </trkpt>
      <trkpt lat="49.80856" lon="4.83891">
        <ele>234</ele>
        <time>2022-09-18T10:33:06.000Z</time>
      </trkpt>
      <trkpt lat="49.80852" lon="4.83891">
        <ele>234</ele>
        <time>2022-09-18T10:33:07.000Z</time>
      </trkpt>
      <trkpt lat="49.80848" lon="4.83892">
        <ele>234</ele>
        <time>2022-09-18T10:33:08.000Z</time>
      </trkpt>
      <trkpt lat="49.80844" lon="4.83892">
        <ele>234</ele>
        <time>2022-09-18T10:33:09.000Z</time>
      </trkpt>
      <trkpt lat="49.8084" lon="4.83892">
        <ele>234</ele>
        <time>2022-09-18T10:33:10.000Z</time>
      </trkpt>
      <trkpt lat="49.80836" lon="4.83892">
        <ele>234</ele>
        <time>2022-09-18T10:33:11.000Z</time>
      </trkpt>
      <trkpt lat="49.80832" lon="4.83892">
        <ele>234</ele>
        <time>2022-09-18T10:33:12.000Z</time>
      </trkpt>
      <trkpt lat="49.80828" lon="4.83892">
        <ele>234</ele>
        <time>2022-09-18T10:33:13.000Z</time>
      </trkpt>
      <trkpt lat="49.80824" lon="4.83892">
        <ele>234</ele>
        <time>2022-09-18T10:33:14.000Z</time>
      </trkpt>
      <trkpt lat="49.80819" lon="4.83892">
        <ele>234</ele>
        <time>2022-09-18T10:33:15.000Z</time>
      </trkpt>
      <trkpt lat="49.80815" lon="4.83891">
        <ele>234</ele>
        <time>2022-09-18T10:33:16.000Z</time>
      </trkpt>
      <trkpt lat="49.8081" lon="4.8389">
        <ele>234</ele>
        <time>2022-09-18T10:33:17.000Z</time>
      </trkpt>
      <trkpt lat="49.80805" lon="4.83892">
        <ele>234</ele>
        <time>2022-09-18T10:33:18.000Z</time>
      </trkpt>
      <trkpt lat="49.80802" lon="4.83893">
        <ele>234</ele>
        <time>2022-09-18T10:33:19.000Z</time>
      </trkpt>
      <trkpt lat="49.80798" lon="4.83894">
        <ele>234</ele>
        <time>2022-09-18T10:33:20.000Z</time>
      </trkpt>
      <trkpt lat="49.80793" lon="4.83893">
        <ele>234</ele>
        <time>2022-09-18T10:33:21.000Z</time>
      </trkpt>
      <trkpt lat="49.80788" lon="4.83893">
        <ele>234</ele>
        <time>2022-09-18T10:33:22.000Z</time>
      </trkpt>
      <trkpt lat="49.80783" lon="4.83894">
        <ele>234</ele>
        <time>2022-09-18T10:33:23.000Z</time>
      </trkpt>
      <trkpt lat="49.80779" lon="4.83895">
        <ele>234</ele>
        <time>2022-09-18T10:33:24.000Z</time>
      </trkpt>
      <trkpt lat="49.80774" lon="4.83896">
        <ele>234</ele>
        <time>2022-09-18T10:33:25.000Z</time>
      </trkpt>
      <trkpt lat="49.8077" lon="4.83896">
        <ele>234</ele>
        <time>2022-09-18T10:33:26.000Z</time>
      </trkpt>
      <trkpt lat="49.80766" lon="4.83897">
        <ele>234</ele>
        <time>2022-09-18T10:33:27.000Z</time>
      </trkpt>
      <trkpt lat="49.80761" lon="4.83898">
        <ele>234</ele>
        <time>2022-09-18T10:33:28.000Z</time>
      </trkpt>
      <trkpt lat="49.80757" lon="4.83899">
        <ele>235</ele>
        <time>2022-09-18T10:33:29.000Z</time>
      </trkpt>
      <trkpt lat="49.80752" lon="4.83901">
        <ele>235</ele>
        <time>2022-09-18T10:33:30.000Z</time>
      </trkpt>
      <trkpt lat="49.80748" lon="4.83902">
        <ele>235</ele>
        <time>2022-09-18T10:33:31.000Z</time>
      </trkpt>
      <trkpt lat="49.80744" lon="4.83903">
        <ele>235</ele>
        <time>2022-09-18T10:33:32.000Z</time>
      </trkpt>
      <trkpt lat="49.80741" lon="4.83904">
        <ele>235</ele>
        <time>2022-09-18T10:33:33.000Z</time>
      </trkpt>
      <trkpt lat="49.80737" lon="4.83905">
        <ele>236</ele>
        <time>2022-09-18T10:33:34.000Z</time>
      </trkpt>
      <trkpt lat="49.80734" lon="4.83907">
        <ele>236</ele>
        <time>2022-09-18T10:33:35.000Z</time>
      </trkpt>
      <trkpt lat="49.80731" lon="4.83908">
        <ele>236</ele>
        <time>2022-09-18T10:33:36.000Z</time>
      </trkpt>
      <trkpt lat="49.80727" lon="4.83908">
        <ele>236</ele>
        <time>2022-09-18T10:33:37.000Z</time>
      </trkpt>
      <trkpt lat="49.80723" lon="4.83909">
        <ele>236</ele>
        <time>2022-09-18T10:33:38.000Z</time>
      </trkpt>
      <trkpt lat="49.80719" lon="4.83911">
        <ele>236</ele>
        <time>2022-09-18T10:33:39.000Z</time>
      </trkpt>
      <trkpt lat="49.80716" lon="4.83912">
        <ele>237</ele>
        <time>2022-09-18T10:33:40.000Z</time>
      </trkpt>
      <trkpt lat="49.80712" lon="4.83913">
        <ele>237</ele>
        <time>2022-09-18T10:33:41.000Z</time>
      </trkpt>
      <trkpt lat="49.80709" lon="4.83912">
        <ele>237</ele>
        <time>2022-09-18T10:33:42.000Z</time>
      </trkpt>
      <trkpt lat="49.80706" lon="4.83913">
        <ele>237</ele>
        <time>2022-09-18T10:33:43.000Z</time>
      </trkpt>
      <trkpt lat="49.80703" lon="4.83914">
        <ele>237</ele>
        <time>2022-09-18T10:33:44.000Z</time>
      </trkpt>
      <trkpt lat="49.807" lon="4.83916">
        <ele>237</ele>
        <time>2022-09-18T10:33:45.000Z</time>
      </trkpt>
      <trkpt lat="49.80696" lon="4.83917">
        <ele>237</ele>
        <time>2022-09-18T10:33:46.000Z</time>
      </trkpt>
      <trkpt lat="49.80693" lon="4.83918">
        <ele>237</ele>
        <time>2022-09-18T10:33:47.000Z</time>
      </trkpt>
      <trkpt lat="49.8069" lon="4.83919">
        <ele>237</ele>
        <time>2022-09-18T10:33:48.000Z</time>
      </trkpt>
      <trkpt lat="49.80686" lon="4.8392">
        <ele>237</ele>
        <time>2022-09-18T10:33:49.000Z</time>
      </trkpt>
      <trkpt lat="49.80682" lon="4.83922">
        <ele>237</ele>
        <time>2022-09-18T10:33:50.000Z</time>
      </trkpt>
      <trkpt lat="49.80679" lon="4.83923">
        <ele>237</ele>
        <time>2022-09-18T10:33:51.000Z</time>
      </trkpt>
      <trkpt lat="49.80676" lon="4.83924">
        <ele>237</ele>
        <time>2022-09-18T10:33:52.000Z</time>
      </trkpt>
      <trkpt lat="49.80674" lon="4.83924">
        <ele>237</ele>
        <time>2022-09-18T10:33:53.000Z</time>
      </trkpt>
      <trkpt lat="49.80671" lon="4.83923">
        <ele>237</ele>
        <time>2022-09-18T10:33:54.000Z</time>
      </trkpt>
      <trkpt lat="49.80668" lon="4.83922">
        <ele>237</ele>
        <time>2022-09-18T10:33:55.000Z</time>
      </trkpt>
      <trkpt lat="49.80665" lon="4.83921">
        <ele>237</ele>
        <time>2022-09-18T10:33:56.000Z</time>
      </trkpt>
      <trkpt lat="49.80661" lon="4.83922">
        <ele>237</ele>
        <time>2022-09-18T10:33:57.000Z</time>
      </trkpt>
      <trkpt lat="49.80656" lon="4.83922">
        <ele>237</ele>
        <time>2022-09-18T10:33:58.000Z</time>
      </trkpt>
      <trkpt lat="49.80652" lon="4.83924">
        <ele>237</ele>
        <time>2022-09-18T10:33:59.000Z</time>
      </trkpt>
      <trkpt lat="49.80649" lon="4.83925">
        <ele>237</ele>
        <time>2022-09-18T10:34:00.000Z</time>
      </trkpt>
      <trkpt lat="49.80645" lon="4.83927">
        <ele>237</ele>
        <time>2022-09-18T10:34:01.000Z</time>
      </trkpt>
      <trkpt lat="49.80641" lon="4.83929">
        <ele>237</ele>
        <time>2022-09-18T10:34:02.000Z</time>
      </trkpt>
      <trkpt lat="49.80637" lon="4.83931">
        <ele>236</ele>
        <time>2022-09-18T10:34:03.000Z</time>
      </trkpt>
      <trkpt lat="49.80633" lon="4.83932">
        <ele>236</ele>
        <time>2022-09-18T10:34:04.000Z</time>
      </trkpt>
      <trkpt lat="49.80629" lon="4.83934">
        <ele>236</ele>
        <time>2022-09-18T10:34:05.000Z</time>
      </trkpt>
      <trkpt lat="49.80624" lon="4.83936">
        <ele>236</ele>
        <time>2022-09-18T10:34:06.000Z</time>
      </trkpt>
      <trkpt lat="49.8062" lon="4.83937">
        <ele>236</ele>
        <time>2022-09-18T10:34:07.000Z</time>
      </trkpt>
      <trkpt lat="49.80616" lon="4.83938">
        <ele>236</ele>
        <time>2022-09-18T10:34:08.000Z</time>
      </trkpt>
      <trkpt lat="49.80613" lon="4.83938">
        <ele>236</ele>
        <time>2022-09-18T10:34:09.000Z</time>
      </trkpt>
      <trkpt lat="49.80608" lon="4.83939">
        <ele>236</ele>
        <time>2022-09-18T10:34:10.000Z</time>
      </trkpt>
      <trkpt lat="49.80604" lon="4.83939">
        <ele>236</ele>
        <time>2022-09-18T10:34:11.000Z</time>
      </trkpt>
      <trkpt lat="49.80599" lon="4.8394">
        <ele>235</ele>
        <time>2022-09-18T10:34:12.000Z</time>
      </trkpt>
      <trkpt lat="49.80595" lon="4.83941">
        <ele>235</ele>
        <time>2022-09-18T10:34:13.000Z</time>
      </trkpt>
      <trkpt lat="49.80592" lon="4.83941">
        <ele>235</ele>
        <time>2022-09-18T10:34:14.000Z</time>
      </trkpt>
      <trkpt lat="49.80588" lon="4.83942">
        <ele>235</ele>
        <time>2022-09-18T10:34:15.000Z</time>
      </trkpt>
      <trkpt lat="49.80584" lon="4.83942">
        <ele>235</ele>
        <time>2022-09-18T10:34:16.000Z</time>
      </trkpt>
      <trkpt lat="49.80581" lon="4.83943">
        <ele>235</ele>
        <time>2022-09-18T10:34:17.000Z</time>
      </trkpt>
      <trkpt lat="49.80577" lon="4.83944">
        <ele>235</ele>
        <time>2022-09-18T10:34:18.000Z</time>
      </trkpt>
      <trkpt lat="49.80574" lon="4.83945">
        <ele>234</ele>
        <time>2022-09-18T10:34:19.000Z</time>
      </trkpt>
      <trkpt lat="49.80571" lon="4.83945">
        <ele>234</ele>
        <time>2022-09-18T10:34:20.000Z</time>
      </trkpt>
      <trkpt lat="49.80568" lon="4.83946">
        <ele>234</ele>
        <time>2022-09-18T10:34:21.000Z</time>
      </trkpt>
      <trkpt lat="49.80565" lon="4.83947">
        <ele>233</ele>
        <time>2022-09-18T10:34:22.000Z</time>
      </trkpt>
      <trkpt lat="49.80562" lon="4.83947">
        <ele>233</ele>
        <time>2022-09-18T10:34:23.000Z</time>
      </trkpt>
      <trkpt lat="49.80558" lon="4.83947">
        <ele>233</ele>
        <time>2022-09-18T10:34:24.000Z</time>
      </trkpt>
      <trkpt lat="49.80555" lon="4.83948">
        <ele>232</ele>
        <time>2022-09-18T10:34:25.000Z</time>
      </trkpt>
      <trkpt lat="49.80552" lon="4.83949">
        <ele>232</ele>
        <time>2022-09-18T10:34:26.000Z</time>
      </trkpt>
      <trkpt lat="49.80548" lon="4.8395">
        <ele>232</ele>
        <time>2022-09-18T10:34:27.000Z</time>
      </trkpt>
      <trkpt lat="49.80545" lon="4.8395">
        <ele>231</ele>
        <time>2022-09-18T10:34:28.000Z</time>
      </trkpt>
      <trkpt lat="49.80541" lon="4.83951">
        <ele>231</ele>
        <time>2022-09-18T10:34:29.000Z</time>
      </trkpt>
      <trkpt lat="49.80538" lon="4.83951">
        <ele>231</ele>
        <time>2022-09-18T10:34:30.000Z</time>
      </trkpt>
      <trkpt lat="49.80534" lon="4.83952">
        <ele>230</ele>
        <time>2022-09-18T10:34:31.000Z</time>
      </trkpt>
      <trkpt lat="49.80531" lon="4.83953">
        <ele>230</ele>
        <time>2022-09-18T10:34:32.000Z</time>
      </trkpt>
      <trkpt lat="49.80528" lon="4.83953">
        <ele>229</ele>
        <time>2022-09-18T10:34:33.000Z</time>
      </trkpt>
      <trkpt lat="49.80526" lon="4.83954">
        <ele>229</ele>
        <time>2022-09-18T10:34:34.000Z</time>
      </trkpt>
      <trkpt lat="49.80523" lon="4.83955">
        <ele>229</ele>
        <time>2022-09-18T10:34:35.000Z</time>
      </trkpt>
      <trkpt lat="49.80521" lon="4.83956">
        <ele>228</ele>
        <time>2022-09-18T10:34:36.000Z</time>
      </trkpt>
      <trkpt lat="49.80518" lon="4.83957">
        <ele>228</ele>
        <time>2022-09-18T10:34:37.000Z</time>
      </trkpt>
      <trkpt lat="49.80515" lon="4.83957">
        <ele>228</ele>
        <time>2022-09-18T10:34:38.000Z</time>
      </trkpt>
      <trkpt lat="49.80513" lon="4.83957">
        <ele>227</ele>
        <time>2022-09-18T10:34:39.000Z</time>
      </trkpt>
      <trkpt lat="49.80511" lon="4.83958">
        <ele>227</ele>
        <time>2022-09-18T10:34:40.000Z</time>
      </trkpt>
      <trkpt lat="49.80509" lon="4.83958">
        <ele>227</ele>
        <time>2022-09-18T10:34:41.000Z</time>
      </trkpt>
      <trkpt lat="49.80507" lon="4.83958">
        <ele>226</ele>
        <time>2022-09-18T10:34:42.000Z</time>
      </trkpt>
      <trkpt lat="49.80505" lon="4.83956">
        <ele>226</ele>
        <time>2022-09-18T10:34:43.000Z</time>
      </trkpt>
      <trkpt lat="49.80503" lon="4.83954">
        <ele>226</ele>
        <time>2022-09-18T10:34:44.000Z</time>
      </trkpt>
      <trkpt lat="49.80501" lon="4.83952">
        <ele>225</ele>
        <time>2022-09-18T10:34:45.000Z</time>
      </trkpt>
      <trkpt lat="49.80499" lon="4.83949">
        <ele>225</ele>
        <time>2022-09-18T10:34:46.000Z</time>
      </trkpt>
      <trkpt lat="49.80496" lon="4.83945">
        <ele>225</ele>
        <time>2022-09-18T10:34:47.000Z</time>
      </trkpt>
      <trkpt lat="49.80493" lon="4.83941">
        <ele>224</ele>
        <time>2022-09-18T10:34:48.000Z</time>
      </trkpt>
      <trkpt lat="49.8049" lon="4.83937">
        <ele>224</ele>
        <time>2022-09-18T10:34:49.000Z</time>
      </trkpt>
      <trkpt lat="49.80486" lon="4.83934">
        <ele>224</ele>
        <time>2022-09-18T10:34:50.000Z</time>
      </trkpt>
      <trkpt lat="49.80483" lon="4.8393">
        <ele>224</ele>
        <time>2022-09-18T10:34:51.000Z</time>
      </trkpt>
      <trkpt lat="49.8048" lon="4.83927">
        <ele>223</ele>
        <time>2022-09-18T10:34:52.000Z</time>
      </trkpt>
      <trkpt lat="49.80476" lon="4.83924">
        <ele>223</ele>
        <time>2022-09-18T10:34:53.000Z</time>
      </trkpt>
      <trkpt lat="49.80473" lon="4.83921">
        <ele>223</ele>
        <time>2022-09-18T10:34:54.000Z</time>
      </trkpt>
      <trkpt lat="49.80469" lon="4.83918">
        <ele>223</ele>
        <time>2022-09-18T10:34:55.000Z</time>
      </trkpt>
      <trkpt lat="49.80465" lon="4.83916">
        <ele>223</ele>
        <time>2022-09-18T10:34:56.000Z</time>
      </trkpt>
      <trkpt lat="49.80461" lon="4.83914">
        <ele>222</ele>
        <time>2022-09-18T10:34:57.000Z</time>
      </trkpt>
      <trkpt lat="49.80457" lon="4.83912">
        <ele>222</ele>
        <time>2022-09-18T10:34:58.000Z</time>
      </trkpt>
      <trkpt lat="49.80453" lon="4.83911">
        <ele>222</ele>
        <time>2022-09-18T10:34:59.000Z</time>
      </trkpt>
      <trkpt lat="49.8045" lon="4.83909">
        <ele>222</ele>
        <time>2022-09-18T10:35:00.000Z</time>
      </trkpt>
      <trkpt lat="49.80446" lon="4.83907">
        <ele>222</ele>
        <time>2022-09-18T10:35:01.000Z</time>
      </trkpt>
      <trkpt lat="49.80442" lon="4.83904">
        <ele>222</ele>
        <time>2022-09-18T10:35:02.000Z</time>
      </trkpt>
      <trkpt lat="49.80438" lon="4.83901">
        <ele>222</ele>
        <time>2022-09-18T10:35:03.000Z</time>
      </trkpt>
      <trkpt lat="49.80434" lon="4.83899">
        <ele>222</ele>
        <time>2022-09-18T10:35:04.000Z</time>
      </trkpt>
      <trkpt lat="49.8043" lon="4.83896">
        <ele>222</ele>
        <time>2022-09-18T10:35:05.000Z</time>
      </trkpt>
      <trkpt lat="49.80427" lon="4.83893">
        <ele>222</ele>
        <time>2022-09-18T10:35:06.000Z</time>
      </trkpt>
      <trkpt lat="49.80423" lon="4.8389">
        <ele>222</ele>
        <time>2022-09-18T10:35:07.000Z</time>
      </trkpt>
      <trkpt lat="49.80419" lon="4.83887">
        <ele>222</ele>
        <time>2022-09-18T10:35:08.000Z</time>
      </trkpt>
      <trkpt lat="49.80416" lon="4.83884">
        <ele>222</ele>
        <time>2022-09-18T10:35:09.000Z</time>
      </trkpt>
      <trkpt lat="49.80412" lon="4.83881">
        <ele>222</ele>
        <time>2022-09-18T10:35:10.000Z</time>
      </trkpt>
      <trkpt lat="49.80409" lon="4.83877">
        <ele>222</ele>
        <time>2022-09-18T10:35:11.000Z</time>
      </trkpt>
      <trkpt lat="49.80406" lon="4.83872">
        <ele>222</ele>
        <time>2022-09-18T10:35:12.000Z</time>
      </trkpt>
      <trkpt lat="49.80403" lon="4.83866">
        <ele>222</ele>
        <time>2022-09-18T10:35:13.000Z</time>
      </trkpt>
      <trkpt lat="49.804" lon="4.83863">
        <ele>222</ele>
        <time>2022-09-18T10:35:14.000Z</time>
      </trkpt>
      <trkpt lat="49.80397" lon="4.83861">
        <ele>222</ele>
        <time>2022-09-18T10:35:15.000Z</time>
      </trkpt>
      <trkpt lat="49.80393" lon="4.83861">
        <ele>222</ele>
        <time>2022-09-18T10:35:16.000Z</time>
      </trkpt>
      <trkpt lat="49.80389" lon="4.83861">
        <ele>222</ele>
        <time>2022-09-18T10:35:17.000Z</time>
      </trkpt>
      <trkpt lat="49.80385" lon="4.8386">
        <ele>222</ele>
        <time>2022-09-18T10:35:18.000Z</time>
      </trkpt>
      <trkpt lat="49.80382" lon="4.83859">
        <ele>222</ele>
        <time>2022-09-18T10:35:19.000Z</time>
      </trkpt>
      <trkpt lat="49.80378" lon="4.83858">
        <ele>222</ele>
        <time>2022-09-18T10:35:20.000Z</time>
      </trkpt>
      <trkpt lat="49.80374" lon="4.83857">
        <ele>222</ele>
        <time>2022-09-18T10:35:21.000Z</time>
      </trkpt>
      <trkpt lat="49.80371" lon="4.83857">
        <ele>222</ele>
        <time>2022-09-18T10:35:22.000Z</time>
      </trkpt>
      <trkpt lat="49.80367" lon="4.83857">
        <ele>222</ele>
        <time>2022-09-18T10:35:23.000Z</time>
      </trkpt>
      <trkpt lat="49.80363" lon="4.83856">
        <ele>222</ele>
        <time>2022-09-18T10:35:24.000Z</time>
      </trkpt>
      <trkpt lat="49.80359" lon="4.83856">
        <ele>222</ele>
        <time>2022-09-18T10:35:25.000Z</time>
      </trkpt>
      <trkpt lat="49.80356" lon="4.83856">
        <ele>222</ele>
        <time>2022-09-18T10:35:26.000Z</time>
      </trkpt>
      <trkpt lat="49.80352" lon="4.83855">
        <ele>222</ele>
        <time>2022-09-18T10:35:27.000Z</time>
      </trkpt>
      <trkpt lat="49.80348" lon="4.83854">
        <ele>222</ele>
        <time>2022-09-18T10:35:28.000Z</time>
      </trkpt>
      <trkpt lat="49.80344" lon="4.83853">
        <ele>222</ele>
        <time>2022-09-18T10:35:29.000Z</time>
      </trkpt>
      <trkpt lat="49.8034" lon="4.83853">
        <ele>222</ele>
        <time>2022-09-18T10:35:30.000Z</time>
      </trkpt>
      <trkpt lat="49.80336" lon="4.83852">
        <ele>223</ele>
        <time>2022-09-18T10:35:31.000Z</time>
      </trkpt>
      <trkpt lat="49.80332" lon="4.83851">
        <ele>223</ele>
        <time>2022-09-18T10:35:32.000Z</time>
      </trkpt>
      <trkpt lat="49.80328" lon="4.8385">
        <ele>223</ele>
        <time>2022-09-18T10:35:33.000Z</time>
      </trkpt>
      <trkpt lat="49.80324" lon="4.8385">
        <ele>223</ele>
        <time>2022-09-18T10:35:34.000Z</time>
      </trkpt>
      <trkpt lat="49.8032" lon="4.83849">
        <ele>223</ele>
        <time>2022-09-18T10:35:35.000Z</time>
      </trkpt>
      <trkpt lat="49.80316" lon="4.83848">
        <ele>223</ele>
        <time>2022-09-18T10:35:36.000Z</time>
      </trkpt>
      <trkpt lat="49.80313" lon="4.83848">
        <ele>224</ele>
        <time>2022-09-18T10:35:37.000Z</time>
      </trkpt>
      <trkpt lat="49.8031" lon="4.83847">
        <ele>224</ele>
        <time>2022-09-18T10:35:38.000Z</time>
      </trkpt>
      <trkpt lat="49.80306" lon="4.83847">
        <ele>224</ele>
        <time>2022-09-18T10:35:39.000Z</time>
      </trkpt>
      <trkpt lat="49.80303" lon="4.83846">
        <ele>224</ele>
        <time>2022-09-18T10:35:40.000Z</time>
      </trkpt>
      <trkpt lat="49.80299" lon="4.83846">
        <ele>225</ele>
        <time>2022-09-18T10:35:41.000Z</time>
      </trkpt>
      <trkpt lat="49.80295" lon="4.83846">
        <ele>225</ele>
        <time>2022-09-18T10:35:42.000Z</time>
      </trkpt>
      <trkpt lat="49.80291" lon="4.83846">
        <ele>225</ele>
        <time>2022-09-18T10:35:43.000Z</time>
      </trkpt>
      <trkpt lat="49.80287" lon="4.83845">
        <ele>225</ele>
        <time>2022-09-18T10:35:44.000Z</time>
      </trkpt>
      <trkpt lat="49.80283" lon="4.83845">
        <ele>225</ele>
        <time>2022-09-18T10:35:45.000Z</time>
      </trkpt>
      <trkpt lat="49.80279" lon="4.83844">
        <ele>226</ele>
        <time>2022-09-18T10:35:46.000Z</time>
      </trkpt>
      <trkpt lat="49.80275" lon="4.83844">
        <ele>226</ele>
        <time>2022-09-18T10:35:47.000Z</time>
      </trkpt>
      <trkpt lat="49.80271" lon="4.83844">
        <ele>226</ele>
        <time>2022-09-18T10:35:48.000Z</time>
      </trkpt>
      <trkpt lat="49.80267" lon="4.83844">
        <ele>226</ele>
        <time>2022-09-18T10:35:49.000Z</time>
      </trkpt>
      <trkpt lat="49.80263" lon="4.83843">
        <ele>226</ele>
        <time>2022-09-18T10:35:50.000Z</time>
      </trkpt>
      <trkpt lat="49.8026" lon="4.83843">
        <ele>226</ele>
        <time>2022-09-18T10:35:51.000Z</time>
      </trkpt>
      <trkpt lat="49.80257" lon="4.83843">
        <ele>227</ele>
        <time>2022-09-18T10:35:52.000Z</time>
      </trkpt>
      <trkpt lat="49.80254" lon="4.83843">
        <ele>227</ele>
        <time>2022-09-18T10:35:53.000Z</time>
      </trkpt>
      <trkpt lat="49.8025" lon="4.83843">
        <ele>227</ele>
        <time>2022-09-18T10:35:54.000Z</time>
      </trkpt>
      <trkpt lat="49.80247" lon="4.83843">
        <ele>227</ele>
        <time>2022-09-18T10:35:55.000Z</time>
      </trkpt>
      <trkpt lat="49.80244" lon="4.83844">
        <ele>227</ele>
        <time>2022-09-18T10:35:56.000Z</time>
      </trkpt>
      <trkpt lat="49.80241" lon="4.83844">
        <ele>227</ele>
        <time>2022-09-18T10:35:57.000Z</time>
      </trkpt>
      <trkpt lat="49.80237" lon="4.83845">
        <ele>227</ele>
        <time>2022-09-18T10:35:58.000Z</time>
      </trkpt>
      <trkpt lat="49.80234" lon="4.83845">
        <ele>227</ele>
        <time>2022-09-18T10:35:59.000Z</time>
      </trkpt>
      <trkpt lat="49.8023" lon="4.83846">
        <ele>227</ele>
        <time>2022-09-18T10:36:00.000Z</time>
      </trkpt>
      <trkpt lat="49.80226" lon="4.83847">
        <ele>227</ele>
        <time>2022-09-18T10:36:01.000Z</time>
      </trkpt>
      <trkpt lat="49.80222" lon="4.83848">
        <ele>227</ele>
        <time>2022-09-18T10:36:02.000Z</time>
      </trkpt>
      <trkpt lat="49.80218" lon="4.83848">
        <ele>227</ele>
        <time>2022-09-18T10:36:03.000Z</time>
      </trkpt>
      <trkpt lat="49.80214" lon="4.83848">
        <ele>227</ele>
        <time>2022-09-18T10:36:04.000Z</time>
      </trkpt>
      <trkpt lat="49.8021" lon="4.83847">
        <ele>226</ele>
        <time>2022-09-18T10:36:05.000Z</time>
      </trkpt>
      <trkpt lat="49.80206" lon="4.83847">
        <ele>226</ele>
        <time>2022-09-18T10:36:06.000Z</time>
      </trkpt>
      <trkpt lat="49.80202" lon="4.83846">
        <ele>226</ele>
        <time>2022-09-18T10:36:07.000Z</time>
      </trkpt>
      <trkpt lat="49.80198" lon="4.83845">
        <ele>226</ele>
        <time>2022-09-18T10:36:08.000Z</time>
      </trkpt>
      <trkpt lat="49.80194" lon="4.83844">
        <ele>226</ele>
        <time>2022-09-18T10:36:09.000Z</time>
      </trkpt>
      <trkpt lat="49.80191" lon="4.83843">
        <ele>226</ele>
        <time>2022-09-18T10:36:10.000Z</time>
      </trkpt>
      <trkpt lat="49.80188" lon="4.83842">
        <ele>226</ele>
        <time>2022-09-18T10:36:11.000Z</time>
      </trkpt>
      <trkpt lat="49.80185" lon="4.83842">
        <ele>226</ele>
        <time>2022-09-18T10:36:12.000Z</time>
      </trkpt>
      <trkpt lat="49.80182" lon="4.83842">
        <ele>226</ele>
        <time>2022-09-18T10:36:13.000Z</time>
      </trkpt>
      <trkpt lat="49.80178" lon="4.83841">
        <ele>226</ele>
        <time>2022-09-18T10:36:14.000Z</time>
      </trkpt>
      <trkpt lat="49.80174" lon="4.8384">
        <ele>226</ele>
        <time>2022-09-18T10:36:15.000Z</time>
      </trkpt>
      <trkpt lat="49.8017" lon="4.83839">
        <ele>226</ele>
        <time>2022-09-18T10:36:16.000Z</time>
      </trkpt>
      <trkpt lat="49.80166" lon="4.83838">
        <ele>226</ele>
        <time>2022-09-18T10:36:17.000Z</time>
      </trkpt>
      <trkpt lat="49.80163" lon="4.83837">
        <ele>227</ele>
        <time>2022-09-18T10:36:18.000Z</time>
      </trkpt>
      <trkpt lat="49.80159" lon="4.83836">
        <ele>227</ele>
        <time>2022-09-18T10:36:19.000Z</time>
      </trkpt>
      <trkpt lat="49.80155" lon="4.83835">
        <ele>227</ele>
        <time>2022-09-18T10:36:20.000Z</time>
      </trkpt>
      <trkpt lat="49.80151" lon="4.83834">
        <ele>227</ele>
        <time>2022-09-18T10:36:21.000Z</time>
      </trkpt>
      <trkpt lat="49.80148" lon="4.83832">
        <ele>227</ele>
        <time>2022-09-18T10:36:22.000Z</time>
      </trkpt>
      <trkpt lat="49.80144" lon="4.83831">
        <ele>227</ele>
        <time>2022-09-18T10:36:23.000Z</time>
      </trkpt>
      <trkpt lat="49.8014" lon="4.83831">
        <ele>227</ele>
        <time>2022-09-18T10:36:24.000Z</time>
      </trkpt>
      <trkpt lat="49.80136" lon="4.83829">
        <ele>227</ele>
        <time>2022-09-18T10:36:25.000Z</time>
      </trkpt>
      <trkpt lat="49.80132" lon="4.83828">
        <ele>227</ele>
        <time>2022-09-18T10:36:26.000Z</time>
      </trkpt>
      <trkpt lat="49.80128" lon="4.83826">
        <ele>227</ele>
        <time>2022-09-18T10:36:27.000Z</time>
      </trkpt>
      <trkpt lat="49.80124" lon="4.83824">
        <ele>227</ele>
        <time>2022-09-18T10:36:28.000Z</time>
      </trkpt>
      <trkpt lat="49.80121" lon="4.83823">
        <ele>227</ele>
        <time>2022-09-18T10:36:29.000Z</time>
      </trkpt>
      <trkpt lat="49.80117" lon="4.83821">
        <ele>227</ele>
        <time>2022-09-18T10:36:30.000Z</time>
      </trkpt>
      <trkpt lat="49.80113" lon="4.83819">
        <ele>227</ele>
        <time>2022-09-18T10:36:31.000Z</time>
      </trkpt>
      <trkpt lat="49.80109" lon="4.83817">
        <ele>227</ele>
        <time>2022-09-18T10:36:32.000Z</time>
      </trkpt>
      <trkpt lat="49.80105" lon="4.83815">
        <ele>227</ele>
        <time>2022-09-18T10:36:33.000Z</time>
      </trkpt>
      <trkpt lat="49.80101" lon="4.83814">
        <ele>227</ele>
        <time>2022-09-18T10:36:34.000Z</time>
      </trkpt>
      <trkpt lat="49.80096" lon="4.83814">
        <ele>227</ele>
        <time>2022-09-18T10:36:35.000Z</time>
      </trkpt>
      <trkpt lat="49.8009" lon="4.83813">
        <ele>227</ele>
        <time>2022-09-18T10:36:36.000Z</time>
      </trkpt>
      <trkpt lat="49.80085" lon="4.8381">
        <ele>227</ele>
        <time>2022-09-18T10:36:37.000Z</time>
      </trkpt>
      <trkpt lat="49.8008" lon="4.83809">
        <ele>227</ele>
        <time>2022-09-18T10:36:38.000Z</time>
      </trkpt>
      <trkpt lat="49.80075" lon="4.83806">
        <ele>227</ele>
        <time>2022-09-18T10:36:39.000Z</time>
      </trkpt>
      <trkpt lat="49.8007" lon="4.83803">
        <ele>227</ele>
        <time>2022-09-18T10:36:40.000Z</time>
      </trkpt>
      <trkpt lat="49.80065" lon="4.83801">
        <ele>227</ele>
        <time>2022-09-18T10:36:41.000Z</time>
      </trkpt>
      <trkpt lat="49.8006" lon="4.838">
        <ele>227</ele>
        <time>2022-09-18T10:36:42.000Z</time>
      </trkpt>
      <trkpt lat="49.80054" lon="4.838">
        <ele>228</ele>
        <time>2022-09-18T10:36:43.000Z</time>
      </trkpt>
      <trkpt lat="49.80049" lon="4.83799">
        <ele>228</ele>
        <time>2022-09-18T10:36:44.000Z</time>
      </trkpt>
      <trkpt lat="49.80043" lon="4.83797">
        <ele>228</ele>
        <time>2022-09-18T10:36:45.000Z</time>
      </trkpt>
      <trkpt lat="49.80038" lon="4.83795">
        <ele>228</ele>
        <time>2022-09-18T10:36:46.000Z</time>
      </trkpt>
      <trkpt lat="49.80033" lon="4.83794">
        <ele>228</ele>
        <time>2022-09-18T10:36:47.000Z</time>
      </trkpt>
      <trkpt lat="49.80028" lon="4.83792">
        <ele>228</ele>
        <time>2022-09-18T10:36:48.000Z</time>
      </trkpt>
      <trkpt lat="49.80024" lon="4.83789">
        <ele>228</ele>
        <time>2022-09-18T10:36:49.000Z</time>
      </trkpt>
      <trkpt lat="49.80019" lon="4.83787">
        <ele>228</ele>
        <time>2022-09-18T10:36:50.000Z</time>
      </trkpt>
      <trkpt lat="49.80014" lon="4.83786">
        <ele>229</ele>
        <time>2022-09-18T10:36:51.000Z</time>
      </trkpt>
      <trkpt lat="49.80009" lon="4.83786">
        <ele>229</ele>
        <time>2022-09-18T10:36:52.000Z</time>
      </trkpt>
      <trkpt lat="49.80004" lon="4.83785">
        <ele>229</ele>
        <time>2022-09-18T10:36:53.000Z</time>
      </trkpt>
      <trkpt lat="49.79999" lon="4.83784">
        <ele>229</ele>
        <time>2022-09-18T10:36:54.000Z</time>
      </trkpt>
      <trkpt lat="49.79994" lon="4.83782">
        <ele>229</ele>
        <time>2022-09-18T10:36:55.000Z</time>
      </trkpt>
      <trkpt lat="49.79988" lon="4.8378">
        <ele>229</ele>
        <time>2022-09-18T10:36:56.000Z</time>
      </trkpt>
      <trkpt lat="49.79983" lon="4.83778">
        <ele>230</ele>
        <time>2022-09-18T10:36:57.000Z</time>
      </trkpt>
      <trkpt lat="49.79978" lon="4.83776">
        <ele>230</ele>
        <time>2022-09-18T10:36:58.000Z</time>
      </trkpt>
      <trkpt lat="49.79973" lon="4.83774">
        <ele>230</ele>
        <time>2022-09-18T10:36:59.000Z</time>
      </trkpt>
      <trkpt lat="49.79968" lon="4.83773">
        <ele>230</ele>
        <time>2022-09-18T10:37:00.000Z</time>
      </trkpt>
      <trkpt lat="49.79963" lon="4.83771">
        <ele>230</ele>
        <time>2022-09-18T10:37:01.000Z</time>
      </trkpt>
      <trkpt lat="49.79957" lon="4.8377">
        <ele>230</ele>
        <time>2022-09-18T10:37:02.000Z</time>
      </trkpt>
      <trkpt lat="49.79952" lon="4.83768">
        <ele>230</ele>
        <time>2022-09-18T10:37:03.000Z</time>
      </trkpt>
      <trkpt lat="49.79947" lon="4.83768">
        <ele>231</ele>
        <time>2022-09-18T10:37:04.000Z</time>
      </trkpt>
      <trkpt lat="49.79943" lon="4.83766">
        <ele>231</ele>
        <time>2022-09-18T10:37:05.000Z</time>
      </trkpt>
      <trkpt lat="49.79938" lon="4.83765">
        <ele>231</ele>
        <time>2022-09-18T10:37:06.000Z</time>
      </trkpt>
      <trkpt lat="49.79934" lon="4.83765">
        <ele>231</ele>
        <time>2022-09-18T10:37:07.000Z</time>
      </trkpt>
      <trkpt lat="49.79929" lon="4.83764">
        <ele>231</ele>
        <time>2022-09-18T10:37:08.000Z</time>
      </trkpt>
      <trkpt lat="49.79924" lon="4.83764">
        <ele>231</ele>
        <time>2022-09-18T10:37:09.000Z</time>
      </trkpt>
      <trkpt lat="49.79919" lon="4.83763">
        <ele>231</ele>
        <time>2022-09-18T10:37:10.000Z</time>
      </trkpt>
      <trkpt lat="49.79913" lon="4.83761">
        <ele>231</ele>
        <time>2022-09-18T10:37:11.000Z</time>
      </trkpt>
      <trkpt lat="49.79909" lon="4.8376">
        <ele>231</ele>
        <time>2022-09-18T10:37:12.000Z</time>
      </trkpt>
      <trkpt lat="49.79904" lon="4.83759">
        <ele>232</ele>
        <time>2022-09-18T10:37:13.000Z</time>
      </trkpt>
      <trkpt lat="49.79899" lon="4.83757">
        <ele>232</ele>
        <time>2022-09-18T10:37:14.000Z</time>
      </trkpt>
      <trkpt lat="49.79894" lon="4.83756">
        <ele>232</ele>
        <time>2022-09-18T10:37:15.000Z</time>
      </trkpt>
      <trkpt lat="49.79889" lon="4.83755">
        <ele>232</ele>
        <time>2022-09-18T10:37:16.000Z</time>
      </trkpt>
      <trkpt lat="49.79884" lon="4.83754">
        <ele>232</ele>
        <time>2022-09-18T10:37:17.000Z</time>
      </trkpt>
      <trkpt lat="49.79879" lon="4.83752">
        <ele>232</ele>
        <time>2022-09-18T10:37:18.000Z</time>
      </trkpt>
      <trkpt lat="49.79874" lon="4.83751">
        <ele>232</ele>
        <time>2022-09-18T10:37:19.000Z</time>
      </trkpt>
      <trkpt lat="49.79869" lon="4.8375">
        <ele>232</ele>
        <time>2022-09-18T10:37:20.000Z</time>
      </trkpt>
      <trkpt lat="49.79864" lon="4.83749">
        <ele>232</ele>
        <time>2022-09-18T10:37:21.000Z</time>
      </trkpt>
      <trkpt lat="49.7986" lon="4.83748">
        <ele>232</ele>
        <time>2022-09-18T10:37:22.000Z</time>
      </trkpt>
      <trkpt lat="49.79855" lon="4.83747">
        <ele>232</ele>
        <time>2022-09-18T10:37:23.000Z</time>
      </trkpt>
      <trkpt lat="49.7985" lon="4.83745">
        <ele>232</ele>
        <time>2022-09-18T10:37:24.000Z</time>
      </trkpt>
      <trkpt lat="49.79845" lon="4.83743">
        <ele>233</ele>
        <time>2022-09-18T10:37:25.000Z</time>
      </trkpt>
      <trkpt lat="49.79839" lon="4.83742">
        <ele>233</ele>
        <time>2022-09-18T10:37:26.000Z</time>
      </trkpt>
      <trkpt lat="49.79834" lon="4.83741">
        <ele>233</ele>
        <time>2022-09-18T10:37:27.000Z</time>
      </trkpt>
      <trkpt lat="49.79828" lon="4.83739">
        <ele>233</ele>
        <time>2022-09-18T10:37:28.000Z</time>
      </trkpt>
      <trkpt lat="49.79823" lon="4.83739">
        <ele>233</ele>
        <time>2022-09-18T10:37:29.000Z</time>
      </trkpt>
      <trkpt lat="49.79818" lon="4.83738">
        <ele>233</ele>
        <time>2022-09-18T10:37:30.000Z</time>
      </trkpt>
      <trkpt lat="49.79813" lon="4.83738">
        <ele>233</ele>
        <time>2022-09-18T10:37:31.000Z</time>
      </trkpt>
      <trkpt lat="49.79807" lon="4.83738">
        <ele>233</ele>
        <time>2022-09-18T10:37:32.000Z</time>
      </trkpt>
      <trkpt lat="49.79802" lon="4.83736">
        <ele>234</ele>
        <time>2022-09-18T10:37:33.000Z</time>
      </trkpt>
      <trkpt lat="49.79796" lon="4.83736">
        <ele>234</ele>
        <time>2022-09-18T10:37:34.000Z</time>
      </trkpt>
      <trkpt lat="49.7979" lon="4.83736">
        <ele>234</ele>
        <time>2022-09-18T10:37:35.000Z</time>
      </trkpt>
      <trkpt lat="49.79785" lon="4.83735">
        <ele>234</ele>
        <time>2022-09-18T10:37:36.000Z</time>
      </trkpt>
      <trkpt lat="49.7978" lon="4.83734">
        <ele>234</ele>
        <time>2022-09-18T10:37:37.000Z</time>
      </trkpt>
      <trkpt lat="49.79774" lon="4.83734">
        <ele>235</ele>
        <time>2022-09-18T10:37:38.000Z</time>
      </trkpt>
      <trkpt lat="49.79769" lon="4.83734">
        <ele>235</ele>
        <time>2022-09-18T10:37:39.000Z</time>
      </trkpt>
      <trkpt lat="49.79764" lon="4.83733">
        <ele>235</ele>
        <time>2022-09-18T10:37:40.000Z</time>
      </trkpt>
      <trkpt lat="49.79758" lon="4.83733">
        <ele>235</ele>
        <time>2022-09-18T10:37:41.000Z</time>
      </trkpt>
      <trkpt lat="49.79753" lon="4.83732">
        <ele>236</ele>
        <time>2022-09-18T10:37:42.000Z</time>
      </trkpt>
      <trkpt lat="49.79747" lon="4.83732">
        <ele>236</ele>
        <time>2022-09-18T10:37:43.000Z</time>
      </trkpt>
      <trkpt lat="49.79742" lon="4.83732">
        <ele>236</ele>
        <time>2022-09-18T10:37:44.000Z</time>
      </trkpt>
      <trkpt lat="49.79737" lon="4.83731">
        <ele>236</ele>
        <time>2022-09-18T10:37:45.000Z</time>
      </trkpt>
      <trkpt lat="49.79732" lon="4.83731">
        <ele>236</ele>
        <time>2022-09-18T10:37:46.000Z</time>
      </trkpt>
      <trkpt lat="49.79727" lon="4.83731">
        <ele>236</ele>
        <time>2022-09-18T10:37:47.000Z</time>
      </trkpt>
      <trkpt lat="49.79721" lon="4.83731">
        <ele>236</ele>
        <time>2022-09-18T10:37:48.000Z</time>
      </trkpt>
      <trkpt lat="49.79715" lon="4.83731">
        <ele>236</ele>
        <time>2022-09-18T10:37:49.000Z</time>
      </trkpt>
      <trkpt lat="49.79709" lon="4.83731">
        <ele>236</ele>
        <time>2022-09-18T10:37:50.000Z</time>
      </trkpt>
      <trkpt lat="49.79702" lon="4.83731">
        <ele>236</ele>
        <time>2022-09-18T10:37:51.000Z</time>
      </trkpt>
      <trkpt lat="49.79696" lon="4.8373">
        <ele>236</ele>
        <time>2022-09-18T10:37:52.000Z</time>
      </trkpt>
      <trkpt lat="49.7969" lon="4.8373">
        <ele>236</ele>
        <time>2022-09-18T10:37:53.000Z</time>
      </trkpt>
      <trkpt lat="49.79684" lon="4.8373">
        <ele>236</ele>
        <time>2022-09-18T10:37:54.000Z</time>
      </trkpt>
      <trkpt lat="49.79678" lon="4.83729">
        <ele>236</ele>
        <time>2022-09-18T10:37:55.000Z</time>
      </trkpt>
      <trkpt lat="49.79672" lon="4.83729">
        <ele>236</ele>
        <time>2022-09-18T10:37:56.000Z</time>
      </trkpt>
      <trkpt lat="49.79667" lon="4.8373">
        <ele>236</ele>
        <time>2022-09-18T10:37:57.000Z</time>
      </trkpt>
      <trkpt lat="49.79661" lon="4.8373">
        <ele>236</ele>
        <time>2022-09-18T10:37:58.000Z</time>
      </trkpt>
      <trkpt lat="49.79656" lon="4.8373">
        <ele>236</ele>
        <time>2022-09-18T10:37:59.000Z</time>
      </trkpt>
      <trkpt lat="49.7965" lon="4.8373">
        <ele>236</ele>
        <time>2022-09-18T10:38:00.000Z</time>
      </trkpt>
      <trkpt lat="49.79644" lon="4.8373">
        <ele>236</ele>
        <time>2022-09-18T10:38:01.000Z</time>
      </trkpt>
      <trkpt lat="49.79638" lon="4.83731">
        <ele>236</ele>
        <time>2022-09-18T10:38:02.000Z</time>
      </trkpt>
      <trkpt lat="49.79632" lon="4.8373">
        <ele>236</ele>
        <time>2022-09-18T10:38:03.000Z</time>
      </trkpt>
      <trkpt lat="49.79626" lon="4.8373">
        <ele>235</ele>
        <time>2022-09-18T10:38:04.000Z</time>
      </trkpt>
      <trkpt lat="49.7962" lon="4.83729">
        <ele>235</ele>
        <time>2022-09-18T10:38:05.000Z</time>
      </trkpt>
      <trkpt lat="49.79614" lon="4.83729">
        <ele>235</ele>
        <time>2022-09-18T10:38:06.000Z</time>
      </trkpt>
      <trkpt lat="49.79607" lon="4.83729">
        <ele>235</ele>
        <time>2022-09-18T10:38:07.000Z</time>
      </trkpt>
      <trkpt lat="49.79601" lon="4.83728">
        <ele>235</ele>
        <time>2022-09-18T10:38:08.000Z</time>
      </trkpt>
      <trkpt lat="49.79594" lon="4.83728">
        <ele>234</ele>
        <time>2022-09-18T10:38:09.000Z</time>
      </trkpt>
      <trkpt lat="49.79588" lon="4.83728">
        <ele>234</ele>
        <time>2022-09-18T10:38:10.000Z</time>
      </trkpt>
      <trkpt lat="49.79582" lon="4.83727">
        <ele>234</ele>
        <time>2022-09-18T10:38:11.000Z</time>
      </trkpt>
      <trkpt lat="49.79575" lon="4.83727">
        <ele>234</ele>
        <time>2022-09-18T10:38:12.000Z</time>
      </trkpt>
      <trkpt lat="49.79568" lon="4.83726">
        <ele>233</ele>
        <time>2022-09-18T10:38:13.000Z</time>
      </trkpt>
      <trkpt lat="49.79562" lon="4.83725">
        <ele>233</ele>
        <time>2022-09-18T10:38:14.000Z</time>
      </trkpt>
      <trkpt lat="49.79556" lon="4.83724">
        <ele>232</ele>
        <time>2022-09-18T10:38:15.000Z</time>
      </trkpt>
      <trkpt lat="49.7955" lon="4.83723">
        <ele>232</ele>
        <time>2022-09-18T10:38:16.000Z</time>
      </trkpt>
      <trkpt lat="49.79544" lon="4.83721">
        <ele>231</ele>
        <time>2022-09-18T10:38:17.000Z</time>
      </trkpt>
      <trkpt lat="49.79539" lon="4.8372">
        <ele>231</ele>
        <time>2022-09-18T10:38:18.000Z</time>
      </trkpt>
      <trkpt lat="49.79533" lon="4.83719">
        <ele>231</ele>
        <time>2022-09-18T10:38:19.000Z</time>
      </trkpt>
      <trkpt lat="49.79527" lon="4.83718">
        <ele>230</ele>
        <time>2022-09-18T10:38:20.000Z</time>
      </trkpt>
      <trkpt lat="49.79521" lon="4.83717">
        <ele>230</ele>
        <time>2022-09-18T10:38:21.000Z</time>
      </trkpt>
      <trkpt lat="49.79516" lon="4.83715">
        <ele>229</ele>
        <time>2022-09-18T10:38:22.000Z</time>
      </trkpt>
      <trkpt lat="49.7951" lon="4.83714">
        <ele>229</ele>
        <time>2022-09-18T10:38:23.000Z</time>
      </trkpt>
      <trkpt lat="49.79505" lon="4.83712">
        <ele>229</ele>
        <time>2022-09-18T10:38:24.000Z</time>
      </trkpt>
      <trkpt lat="49.79499" lon="4.83711">
        <ele>228</ele>
        <time>2022-09-18T10:38:25.000Z</time>
      </trkpt>
      <trkpt lat="49.79494" lon="4.83709">
        <ele>228</ele>
        <time>2022-09-18T10:38:26.000Z</time>
      </trkpt>
      <trkpt lat="49.79488" lon="4.83708">
        <ele>227</ele>
        <time>2022-09-18T10:38:27.000Z</time>
      </trkpt>
      <trkpt lat="49.79482" lon="4.83707">
        <ele>227</ele>
        <time>2022-09-18T10:38:28.000Z</time>
      </trkpt>
      <trkpt lat="49.79476" lon="4.83706">
        <ele>226</ele>
        <time>2022-09-18T10:38:29.000Z</time>
      </trkpt>
      <trkpt lat="49.79471" lon="4.83706">
        <ele>226</ele>
        <time>2022-09-18T10:38:30.000Z</time>
      </trkpt>
      <trkpt lat="49.79465" lon="4.83705">
        <ele>226</ele>
        <time>2022-09-18T10:38:31.000Z</time>
      </trkpt>
      <trkpt lat="49.79458" lon="4.83704">
        <ele>226</ele>
        <time>2022-09-18T10:38:32.000Z</time>
      </trkpt>
      <trkpt lat="49.79453" lon="4.83702">
        <ele>226</ele>
        <time>2022-09-18T10:38:33.000Z</time>
      </trkpt>
      <trkpt lat="49.79446" lon="4.837">
        <ele>226</ele>
        <time>2022-09-18T10:38:34.000Z</time>
      </trkpt>
      <trkpt lat="49.7944" lon="4.83699">
        <ele>226</ele>
        <time>2022-09-18T10:38:35.000Z</time>
      </trkpt>
      <trkpt lat="49.79434" lon="4.83699">
        <ele>226</ele>
        <time>2022-09-18T10:38:36.000Z</time>
      </trkpt>
      <trkpt lat="49.79428" lon="4.83699">
        <ele>226</ele>
        <time>2022-09-18T10:38:37.000Z</time>
      </trkpt>
      <trkpt lat="49.79422" lon="4.83698">
        <ele>225</ele>
        <time>2022-09-18T10:38:38.000Z</time>
      </trkpt>
      <trkpt lat="49.79417" lon="4.83697">
        <ele>225</ele>
        <time>2022-09-18T10:38:39.000Z</time>
      </trkpt>
      <trkpt lat="49.79412" lon="4.83696">
        <ele>225</ele>
        <time>2022-09-18T10:38:40.000Z</time>
      </trkpt>
      <trkpt lat="49.79406" lon="4.83695">
        <ele>225</ele>
        <time>2022-09-18T10:38:41.000Z</time>
      </trkpt>
      <trkpt lat="49.794" lon="4.83695">
        <ele>225</ele>
        <time>2022-09-18T10:38:42.000Z</time>
      </trkpt>
      <trkpt lat="49.79395" lon="4.83694">
        <ele>225</ele>
        <time>2022-09-18T10:38:43.000Z</time>
      </trkpt>
      <trkpt lat="49.79389" lon="4.83693">
        <ele>225</ele>
        <time>2022-09-18T10:38:44.000Z</time>
      </trkpt>
      <trkpt lat="49.79383" lon="4.83693">
        <ele>225</ele>
        <time>2022-09-18T10:38:45.000Z</time>
      </trkpt>
      <trkpt lat="49.79378" lon="4.83694">
        <ele>225</ele>
        <time>2022-09-18T10:38:46.000Z</time>
      </trkpt>
      <trkpt lat="49.79373" lon="4.83695">
        <ele>225</ele>
        <time>2022-09-18T10:38:47.000Z</time>
      </trkpt>
      <trkpt lat="49.79367" lon="4.83697">
        <ele>225</ele>
        <time>2022-09-18T10:38:48.000Z</time>
      </trkpt>
      <trkpt lat="49.79362" lon="4.83698">
        <ele>225</ele>
        <time>2022-09-18T10:38:49.000Z</time>
      </trkpt>
      <trkpt lat="49.79357" lon="4.83701">
        <ele>225</ele>
        <time>2022-09-18T10:38:50.000Z</time>
      </trkpt>
      <trkpt lat="49.79352" lon="4.83705">
        <ele>225</ele>
        <time>2022-09-18T10:38:51.000Z</time>
      </trkpt>
      <trkpt lat="49.79348" lon="4.83711">
        <ele>224</ele>
        <time>2022-09-18T10:38:52.000Z</time>
      </trkpt>
      <trkpt lat="49.79344" lon="4.83717">
        <ele>224</ele>
        <time>2022-09-18T10:38:53.000Z</time>
      </trkpt>
      <trkpt lat="49.7934" lon="4.83723">
        <ele>224</ele>
        <time>2022-09-18T10:38:54.000Z</time>
      </trkpt>
      <trkpt lat="49.79336" lon="4.83729">
        <ele>224</ele>
        <time>2022-09-18T10:38:55.000Z</time>
      </trkpt>
      <trkpt lat="49.79331" lon="4.83735">
        <ele>224</ele>
        <time>2022-09-18T10:38:56.000Z</time>
      </trkpt>
      <trkpt lat="49.79327" lon="4.83741">
        <ele>224</ele>
        <time>2022-09-18T10:38:57.000Z</time>
      </trkpt>
      <trkpt lat="49.79323" lon="4.83747">
        <ele>224</ele>
        <time>2022-09-18T10:38:58.000Z</time>
      </trkpt>
      <trkpt lat="49.79319" lon="4.83754">
        <ele>224</ele>
        <time>2022-09-18T10:38:59.000Z</time>
      </trkpt>
      <trkpt lat="49.79315" lon="4.8376">
        <ele>223</ele>
        <time>2022-09-18T10:39:00.000Z</time>
      </trkpt>
      <trkpt lat="49.79311" lon="4.83767">
        <ele>223</ele>
        <time>2022-09-18T10:39:01.000Z</time>
      </trkpt>
      <trkpt lat="49.79306" lon="4.83774">
        <ele>223</ele>
        <time>2022-09-18T10:39:02.000Z</time>
      </trkpt>
      <trkpt lat="49.79302" lon="4.83781">
        <ele>223</ele>
        <time>2022-09-18T10:39:03.000Z</time>
      </trkpt>
      <trkpt lat="49.79299" lon="4.83788">
        <ele>222</ele>
        <time>2022-09-18T10:39:04.000Z</time>
      </trkpt>
      <trkpt lat="49.79294" lon="4.83795">
        <ele>222</ele>
        <time>2022-09-18T10:39:05.000Z</time>
      </trkpt>
      <trkpt lat="49.7929" lon="4.83803">
        <ele>222</ele>
        <time>2022-09-18T10:39:06.000Z</time>
      </trkpt>
      <trkpt lat="49.79286" lon="4.8381">
        <ele>222</ele>
        <time>2022-09-18T10:39:07.000Z</time>
      </trkpt>
      <trkpt lat="49.79283" lon="4.83817">
        <ele>222</ele>
        <time>2022-09-18T10:39:08.000Z</time>
      </trkpt>
      <trkpt lat="49.79279" lon="4.83825">
        <ele>222</ele>
        <time>2022-09-18T10:39:09.000Z</time>
      </trkpt>
      <trkpt lat="49.79276" lon="4.83832">
        <ele>222</ele>
        <time>2022-09-18T10:39:10.000Z</time>
      </trkpt>
      <trkpt lat="49.79272" lon="4.8384">
        <ele>222</ele>
        <time>2022-09-18T10:39:11.000Z</time>
      </trkpt>
      <trkpt lat="49.7927" lon="4.83847">
        <ele>221</ele>
        <time>2022-09-18T10:39:12.000Z</time>
      </trkpt>
      <trkpt lat="49.79267" lon="4.83854">
        <ele>221</ele>
        <time>2022-09-18T10:39:13.000Z</time>
      </trkpt>
      <trkpt lat="49.79263" lon="4.83862">
        <ele>221</ele>
        <time>2022-09-18T10:39:14.000Z</time>
      </trkpt>
      <trkpt lat="49.7926" lon="4.83869">
        <ele>221</ele>
        <time>2022-09-18T10:39:15.000Z</time>
      </trkpt>
      <trkpt lat="49.79257" lon="4.83876">
        <ele>221</ele>
        <time>2022-09-18T10:39:16.000Z</time>
      </trkpt>
      <trkpt lat="49.79254" lon="4.83883">
        <ele>221</ele>
        <time>2022-09-18T10:39:17.000Z</time>
      </trkpt>
      <trkpt lat="49.79251" lon="4.8389">
        <ele>221</ele>
        <time>2022-09-18T10:39:18.000Z</time>
      </trkpt>
      <trkpt lat="49.79247" lon="4.83897">
        <ele>221</ele>
        <time>2022-09-18T10:39:19.000Z</time>
      </trkpt>
      <trkpt lat="49.79244" lon="4.83905">
        <ele>221</ele>
        <time>2022-09-18T10:39:20.000Z</time>
      </trkpt>
      <trkpt lat="49.79241" lon="4.83912">
        <ele>220</ele>
        <time>2022-09-18T10:39:21.000Z</time>
      </trkpt>
      <trkpt lat="49.79237" lon="4.8392">
        <ele>220</ele>
        <time>2022-09-18T10:39:22.000Z</time>
      </trkpt>
      <trkpt lat="49.79234" lon="4.83928">
        <ele>220</ele>
        <time>2022-09-18T10:39:23.000Z</time>
      </trkpt>
      <trkpt lat="49.79231" lon="4.83935">
        <ele>220</ele>
        <time>2022-09-18T10:39:24.000Z</time>
      </trkpt>
      <trkpt lat="49.79227" lon="4.83942">
        <ele>220</ele>
        <time>2022-09-18T10:39:25.000Z</time>
      </trkpt>
      <trkpt lat="49.79223" lon="4.83949">
        <ele>220</ele>
        <time>2022-09-18T10:39:26.000Z</time>
      </trkpt>
      <trkpt lat="49.79219" lon="4.83957">
        <ele>220</ele>
        <time>2022-09-18T10:39:27.000Z</time>
      </trkpt>
      <trkpt lat="49.79215" lon="4.83964">
        <ele>219</ele>
        <time>2022-09-18T10:39:28.000Z</time>
      </trkpt>
      <trkpt lat="49.79212" lon="4.83971">
        <ele>219</ele>
        <time>2022-09-18T10:39:29.000Z</time>
      </trkpt>
      <trkpt lat="49.79209" lon="4.83979">
        <ele>219</ele>
        <time>2022-09-18T10:39:30.000Z</time>
      </trkpt>
      <trkpt lat="49.79205" lon="4.83986">
        <ele>219</ele>
        <time>2022-09-18T10:39:31.000Z</time>
      </trkpt>
      <trkpt lat="49.79202" lon="4.83994">
        <ele>219</ele>
        <time>2022-09-18T10:39:32.000Z</time>
      </trkpt>
      <trkpt lat="49.79198" lon="4.84002">
        <ele>219</ele>
        <time>2022-09-18T10:39:33.000Z</time>
      </trkpt>
      <trkpt lat="49.79195" lon="4.84009">
        <ele>219</ele>
        <time>2022-09-18T10:39:34.000Z</time>
      </trkpt>
      <trkpt lat="49.79192" lon="4.84017">
        <ele>219</ele>
        <time>2022-09-18T10:39:35.000Z</time>
      </trkpt>
      <trkpt lat="49.79188" lon="4.84025">
        <ele>219</ele>
        <time>2022-09-18T10:39:36.000Z</time>
      </trkpt>
      <trkpt lat="49.79184" lon="4.84033">
        <ele>219</ele>
        <time>2022-09-18T10:39:37.000Z</time>
      </trkpt>
      <trkpt lat="49.7918" lon="4.8404">
        <ele>219</ele>
        <time>2022-09-18T10:39:38.000Z</time>
      </trkpt>
      <trkpt lat="49.79177" lon="4.84047">
        <ele>219</ele>
        <time>2022-09-18T10:39:39.000Z</time>
      </trkpt>
      <trkpt lat="49.79173" lon="4.84054">
        <ele>219</ele>
        <time>2022-09-18T10:39:40.000Z</time>
      </trkpt>
      <trkpt lat="49.79169" lon="4.8406">
        <ele>219</ele>
        <time>2022-09-18T10:39:41.000Z</time>
      </trkpt>
      <trkpt lat="49.79166" lon="4.84068">
        <ele>218</ele>
        <time>2022-09-18T10:39:42.000Z</time>
      </trkpt>
      <trkpt lat="49.79162" lon="4.84074">
        <ele>218</ele>
        <time>2022-09-18T10:39:43.000Z</time>
      </trkpt>
      <trkpt lat="49.79159" lon="4.84082">
        <ele>218</ele>
        <time>2022-09-18T10:39:44.000Z</time>
      </trkpt>
      <trkpt lat="49.79155" lon="4.84089">
        <ele>218</ele>
        <time>2022-09-18T10:39:45.000Z</time>
      </trkpt>
      <trkpt lat="49.79151" lon="4.84095">
        <ele>218</ele>
        <time>2022-09-18T10:39:46.000Z</time>
      </trkpt>
      <trkpt lat="49.79147" lon="4.84102">
        <ele>218</ele>
        <time>2022-09-18T10:39:47.000Z</time>
      </trkpt>
      <trkpt lat="49.79143" lon="4.84108">
        <ele>217</ele>
        <time>2022-09-18T10:39:48.000Z</time>
      </trkpt>
      <trkpt lat="49.79139" lon="4.84114">
        <ele>217</ele>
        <time>2022-09-18T10:39:49.000Z</time>
      </trkpt>
      <trkpt lat="49.79134" lon="4.84121">
        <ele>217</ele>
        <time>2022-09-18T10:39:50.000Z</time>
      </trkpt>
      <trkpt lat="49.79129" lon="4.84127">
        <ele>217</ele>
        <time>2022-09-18T10:39:51.000Z</time>
      </trkpt>
      <trkpt lat="49.79124" lon="4.84133">
        <ele>217</ele>
        <time>2022-09-18T10:39:52.000Z</time>
      </trkpt>
      <trkpt lat="49.7912" lon="4.84139">
        <ele>217</ele>
        <time>2022-09-18T10:39:53.000Z</time>
      </trkpt>
      <trkpt lat="49.79115" lon="4.84144">
        <ele>217</ele>
        <time>2022-09-18T10:39:54.000Z</time>
      </trkpt>
      <trkpt lat="49.7911" lon="4.8415">
        <ele>217</ele>
        <time>2022-09-18T10:39:55.000Z</time>
      </trkpt>
      <trkpt lat="49.79106" lon="4.84155">
        <ele>217</ele>
        <time>2022-09-18T10:39:56.000Z</time>
      </trkpt>
      <trkpt lat="49.79101" lon="4.84161">
        <ele>217</ele>
        <time>2022-09-18T10:39:57.000Z</time>
      </trkpt>
      <trkpt lat="49.79096" lon="4.84168">
        <ele>217</ele>
        <time>2022-09-18T10:39:58.000Z</time>
      </trkpt>
      <trkpt lat="49.79092" lon="4.84173">
        <ele>217</ele>
        <time>2022-09-18T10:39:59.000Z</time>
      </trkpt>
      <trkpt lat="49.79087" lon="4.84179">
        <ele>217</ele>
        <time>2022-09-18T10:40:00.000Z</time>
      </trkpt>
      <trkpt lat="49.79082" lon="4.84185">
        <ele>217</ele>
        <time>2022-09-18T10:40:01.000Z</time>
      </trkpt>
      <trkpt lat="49.79078" lon="4.84191">
        <ele>217</ele>
        <time>2022-09-18T10:40:02.000Z</time>
      </trkpt>
      <trkpt lat="49.79074" lon="4.84197">
        <ele>217</ele>
        <time>2022-09-18T10:40:03.000Z</time>
      </trkpt>
      <trkpt lat="49.79069" lon="4.84203">
        <ele>217</ele>
        <time>2022-09-18T10:40:04.000Z</time>
      </trkpt>
      <trkpt lat="49.79064" lon="4.84209">
        <ele>217</ele>
        <time>2022-09-18T10:40:05.000Z</time>
      </trkpt>
      <trkpt lat="49.79059" lon="4.84215">
        <ele>217</ele>
        <time>2022-09-18T10:40:06.000Z</time>
      </trkpt>
      <trkpt lat="49.79054" lon="4.84221">
        <ele>217</ele>
        <time>2022-09-18T10:40:07.000Z</time>
      </trkpt>
      <trkpt lat="49.79048" lon="4.84227">
        <ele>218</ele>
        <time>2022-09-18T10:40:08.000Z</time>
      </trkpt>
      <trkpt lat="49.79043" lon="4.84233">
        <ele>218</ele>
        <time>2022-09-18T10:40:09.000Z</time>
      </trkpt>
      <trkpt lat="49.79039" lon="4.84238">
        <ele>218</ele>
        <time>2022-09-18T10:40:10.000Z</time>
      </trkpt>
      <trkpt lat="49.79034" lon="4.84243">
        <ele>218</ele>
        <time>2022-09-18T10:40:11.000Z</time>
      </trkpt>
      <trkpt lat="49.79029" lon="4.84249">
        <ele>218</ele>
        <time>2022-09-18T10:40:12.000Z</time>
      </trkpt>
      <trkpt lat="49.79023" lon="4.84254">
        <ele>218</ele>
        <time>2022-09-18T10:40:13.000Z</time>
      </trkpt>
      <trkpt lat="49.79018" lon="4.84259">
        <ele>218</ele>
        <time>2022-09-18T10:40:14.000Z</time>
      </trkpt>
      <trkpt lat="49.79012" lon="4.84264">
        <ele>218</ele>
        <time>2022-09-18T10:40:15.000Z</time>
      </trkpt>
      <trkpt lat="49.79006" lon="4.84268">
        <ele>218</ele>
        <time>2022-09-18T10:40:16.000Z</time>
      </trkpt>
      <trkpt lat="49.79" lon="4.84271">
        <ele>218</ele>
        <time>2022-09-18T10:40:17.000Z</time>
      </trkpt>
      <trkpt lat="49.78994" lon="4.84274">
        <ele>218</ele>
        <time>2022-09-18T10:40:18.000Z</time>
      </trkpt>
      <trkpt lat="49.78988" lon="4.84278">
        <ele>218</ele>
        <time>2022-09-18T10:40:19.000Z</time>
      </trkpt>
      <trkpt lat="49.78981" lon="4.84283">
        <ele>219</ele>
        <time>2022-09-18T10:40:20.000Z</time>
      </trkpt>
      <trkpt lat="49.78975" lon="4.84287">
        <ele>219</ele>
        <time>2022-09-18T10:40:21.000Z</time>
      </trkpt>
      <trkpt lat="49.78969" lon="4.8429">
        <ele>219</ele>
        <time>2022-09-18T10:40:22.000Z</time>
      </trkpt>
      <trkpt lat="49.78963" lon="4.84293">
        <ele>219</ele>
        <time>2022-09-18T10:40:23.000Z</time>
      </trkpt>
      <trkpt lat="49.78957" lon="4.84295">
        <ele>219</ele>
        <time>2022-09-18T10:40:24.000Z</time>
      </trkpt>
      <trkpt lat="49.78951" lon="4.84297">
        <ele>219</ele>
        <time>2022-09-18T10:40:25.000Z</time>
      </trkpt>
      <trkpt lat="49.78945" lon="4.843">
        <ele>219</ele>
        <time>2022-09-18T10:40:26.000Z</time>
      </trkpt>
      <trkpt lat="49.78939" lon="4.84303">
        <ele>218</ele>
        <time>2022-09-18T10:40:27.000Z</time>
      </trkpt>
      <trkpt lat="49.78934" lon="4.84306">
        <ele>218</ele>
        <time>2022-09-18T10:40:28.000Z</time>
      </trkpt>
      <trkpt lat="49.78929" lon="4.84309">
        <ele>218</ele>
        <time>2022-09-18T10:40:29.000Z</time>
      </trkpt>
      <trkpt lat="49.78924" lon="4.84311">
        <ele>218</ele>
        <time>2022-09-18T10:40:30.000Z</time>
      </trkpt>
      <trkpt lat="49.78918" lon="4.84312">
        <ele>218</ele>
        <time>2022-09-18T10:40:31.000Z</time>
      </trkpt>
      <trkpt lat="49.78912" lon="4.84314">
        <ele>218</ele>
        <time>2022-09-18T10:40:32.000Z</time>
      </trkpt>
      <trkpt lat="49.78906" lon="4.84316">
        <ele>218</ele>
        <time>2022-09-18T10:40:33.000Z</time>
      </trkpt>
      <trkpt lat="49.789" lon="4.84319">
        <ele>218</ele>
        <time>2022-09-18T10:40:34.000Z</time>
      </trkpt>
      <trkpt lat="49.78895" lon="4.84321">
        <ele>218</ele>
        <time>2022-09-18T10:40:35.000Z</time>
      </trkpt>
      <trkpt lat="49.78889" lon="4.84323">
        <ele>218</ele>
        <time>2022-09-18T10:40:36.000Z</time>
      </trkpt>
      <trkpt lat="49.78883" lon="4.84325">
        <ele>218</ele>
        <time>2022-09-18T10:40:37.000Z</time>
      </trkpt>
      <trkpt lat="49.78876" lon="4.84327">
        <ele>218</ele>
        <time>2022-09-18T10:40:38.000Z</time>
      </trkpt>
      <trkpt lat="49.78869" lon="4.84327">
        <ele>218</ele>
        <time>2022-09-18T10:40:39.000Z</time>
      </trkpt>
      <trkpt lat="49.78862" lon="4.84328">
        <ele>218</ele>
        <time>2022-09-18T10:40:40.000Z</time>
      </trkpt>
      <trkpt lat="49.78856" lon="4.84328">
        <ele>218</ele>
        <time>2022-09-18T10:40:41.000Z</time>
      </trkpt>
      <trkpt lat="49.78849" lon="4.84327">
        <ele>218</ele>
        <time>2022-09-18T10:40:42.000Z</time>
      </trkpt>
      <trkpt lat="49.78842" lon="4.84327">
        <ele>218</ele>
        <time>2022-09-18T10:40:43.000Z</time>
      </trkpt>
      <trkpt lat="49.78835" lon="4.84326">
        <ele>218</ele>
        <time>2022-09-18T10:40:44.000Z</time>
      </trkpt>
      <trkpt lat="49.78828" lon="4.84326">
        <ele>218</ele>
        <time>2022-09-18T10:40:45.000Z</time>
      </trkpt>
      <trkpt lat="49.78821" lon="4.84326">
        <ele>218</ele>
        <time>2022-09-18T10:40:46.000Z</time>
      </trkpt>
      <trkpt lat="49.78814" lon="4.84325">
        <ele>218</ele>
        <time>2022-09-18T10:40:47.000Z</time>
      </trkpt>
      <trkpt lat="49.78808" lon="4.84325">
        <ele>217</ele>
        <time>2022-09-18T10:40:48.000Z</time>
      </trkpt>
      <trkpt lat="49.78801" lon="4.84325">
        <ele>217</ele>
        <time>2022-09-18T10:40:49.000Z</time>
      </trkpt>
      <trkpt lat="49.78794" lon="4.84325">
        <ele>217</ele>
        <time>2022-09-18T10:40:50.000Z</time>
      </trkpt>
      <trkpt lat="49.78787" lon="4.84324">
        <ele>216</ele>
        <time>2022-09-18T10:40:51.000Z</time>
      </trkpt>
      <trkpt lat="49.78781" lon="4.84324">
        <ele>216</ele>
        <time>2022-09-18T10:40:52.000Z</time>
      </trkpt>
      <trkpt lat="49.78774" lon="4.84324">
        <ele>216</ele>
        <time>2022-09-18T10:40:53.000Z</time>
      </trkpt>
      <trkpt lat="49.78768" lon="4.84324">
        <ele>216</ele>
        <time>2022-09-18T10:40:54.000Z</time>
      </trkpt>
      <trkpt lat="49.78762" lon="4.84324">
        <ele>215</ele>
        <time>2022-09-18T10:40:55.000Z</time>
      </trkpt>
      <trkpt lat="49.78756" lon="4.84324">
        <ele>215</ele>
        <time>2022-09-18T10:40:56.000Z</time>
      </trkpt>
      <trkpt lat="49.78749" lon="4.84324">
        <ele>215</ele>
        <time>2022-09-18T10:40:57.000Z</time>
      </trkpt>
      <trkpt lat="49.78743" lon="4.84324">
        <ele>215</ele>
        <time>2022-09-18T10:40:58.000Z</time>
      </trkpt>
      <trkpt lat="49.78736" lon="4.84323">
        <ele>214</ele>
        <time>2022-09-18T10:40:59.000Z</time>
      </trkpt>
      <trkpt lat="49.78729" lon="4.84323">
        <ele>214</ele>
        <time>2022-09-18T10:41:00.000Z</time>
      </trkpt>
      <trkpt lat="49.78722" lon="4.84323">
        <ele>214</ele>
        <time>2022-09-18T10:41:01.000Z</time>
      </trkpt>
      <trkpt lat="49.78715" lon="4.84323">
        <ele>214</ele>
        <time>2022-09-18T10:41:02.000Z</time>
      </trkpt>
      <trkpt lat="49.78708" lon="4.84323">
        <ele>214</ele>
        <time>2022-09-18T10:41:03.000Z</time>
      </trkpt>
      <trkpt lat="49.78701" lon="4.84323">
        <ele>214</ele>
        <time>2022-09-18T10:41:04.000Z</time>
      </trkpt>
      <trkpt lat="49.78694" lon="4.84323">
        <ele>213</ele>
        <time>2022-09-18T10:41:05.000Z</time>
      </trkpt>
      <trkpt lat="49.78688" lon="4.84323">
        <ele>213</ele>
        <time>2022-09-18T10:41:06.000Z</time>
      </trkpt>
      <trkpt lat="49.78681" lon="4.84322">
        <ele>213</ele>
        <time>2022-09-18T10:41:07.000Z</time>
      </trkpt>
      <trkpt lat="49.78674" lon="4.84321">
        <ele>213</ele>
        <time>2022-09-18T10:41:08.000Z</time>
      </trkpt>
      <trkpt lat="49.78667" lon="4.84321">
        <ele>213</ele>
        <time>2022-09-18T10:41:09.000Z</time>
      </trkpt>
      <trkpt lat="49.7866" lon="4.8432">
        <ele>213</ele>
        <time>2022-09-18T10:41:10.000Z</time>
      </trkpt>
      <trkpt lat="49.78653" lon="4.8432">
        <ele>212</ele>
        <time>2022-09-18T10:41:11.000Z</time>
      </trkpt>
      <trkpt lat="49.78646" lon="4.8432">
        <ele>212</ele>
        <time>2022-09-18T10:41:12.000Z</time>
      </trkpt>
      <trkpt lat="49.78639" lon="4.84319">
        <ele>211</ele>
        <time>2022-09-18T10:41:13.000Z</time>
      </trkpt>
      <trkpt lat="49.78633" lon="4.84319">
        <ele>211</ele>
        <time>2022-09-18T10:41:14.000Z</time>
      </trkpt>
      <trkpt lat="49.78626" lon="4.84318">
        <ele>211</ele>
        <time>2022-09-18T10:41:15.000Z</time>
      </trkpt>
      <trkpt lat="49.7862" lon="4.84318">
        <ele>210</ele>
        <time>2022-09-18T10:41:16.000Z</time>
      </trkpt>
      <trkpt lat="49.78614" lon="4.84317">
        <ele>210</ele>
        <time>2022-09-18T10:41:17.000Z</time>
      </trkpt>
      <trkpt lat="49.78608" lon="4.84316">
        <ele>210</ele>
        <time>2022-09-18T10:41:18.000Z</time>
      </trkpt>
      <trkpt lat="49.78602" lon="4.84315">
        <ele>209</ele>
        <time>2022-09-18T10:41:19.000Z</time>
      </trkpt>
      <trkpt lat="49.78596" lon="4.84315">
        <ele>209</ele>
        <time>2022-09-18T10:41:20.000Z</time>
      </trkpt>
      <trkpt lat="49.78589" lon="4.84314">
        <ele>208</ele>
        <time>2022-09-18T10:41:21.000Z</time>
      </trkpt>
      <trkpt lat="49.78583" lon="4.84314">
        <ele>208</ele>
        <time>2022-09-18T10:41:22.000Z</time>
      </trkpt>
      <trkpt lat="49.78576" lon="4.84314">
        <ele>208</ele>
        <time>2022-09-18T10:41:23.000Z</time>
      </trkpt>
      <trkpt lat="49.7857" lon="4.84313">
        <ele>207</ele>
        <time>2022-09-18T10:41:24.000Z</time>
      </trkpt>
      <trkpt lat="49.78563" lon="4.84313">
        <ele>207</ele>
        <time>2022-09-18T10:41:25.000Z</time>
      </trkpt>
      <trkpt lat="49.78556" lon="4.84312">
        <ele>206</ele>
        <time>2022-09-18T10:41:26.000Z</time>
      </trkpt>
      <trkpt lat="49.78549" lon="4.84312">
        <ele>206</ele>
        <time>2022-09-18T10:41:27.000Z</time>
      </trkpt>
      <trkpt lat="49.78542" lon="4.84311">
        <ele>205</ele>
        <time>2022-09-18T10:41:28.000Z</time>
      </trkpt>
      <trkpt lat="49.78536" lon="4.8431">
        <ele>205</ele>
        <time>2022-09-18T10:41:29.000Z</time>
      </trkpt>
      <trkpt lat="49.78529" lon="4.8431">
        <ele>204</ele>
        <time>2022-09-18T10:41:30.000Z</time>
      </trkpt>
      <trkpt lat="49.78522" lon="4.84309">
        <ele>204</ele>
        <time>2022-09-18T10:41:31.000Z</time>
      </trkpt>
      <trkpt lat="49.78515" lon="4.84309">
        <ele>204</ele>
        <time>2022-09-18T10:41:32.000Z</time>
      </trkpt>
      <trkpt lat="49.78509" lon="4.84308">
        <ele>203</ele>
        <time>2022-09-18T10:41:33.000Z</time>
      </trkpt>
      <trkpt lat="49.78502" lon="4.84307">
        <ele>203</ele>
        <time>2022-09-18T10:41:34.000Z</time>
      </trkpt>
      <trkpt lat="49.78496" lon="4.84307">
        <ele>203</ele>
        <time>2022-09-18T10:41:35.000Z</time>
      </trkpt>
      <trkpt lat="49.78491" lon="4.84306">
        <ele>202</ele>
        <time>2022-09-18T10:41:36.000Z</time>
      </trkpt>
      <trkpt lat="49.78485" lon="4.84305">
        <ele>202</ele>
        <time>2022-09-18T10:41:37.000Z</time>
      </trkpt>
      <trkpt lat="49.78479" lon="4.84304">
        <ele>202</ele>
        <time>2022-09-18T10:41:38.000Z</time>
      </trkpt>
      <trkpt lat="49.78473" lon="4.84304">
        <ele>202</ele>
        <time>2022-09-18T10:41:39.000Z</time>
      </trkpt>
      <trkpt lat="49.78467" lon="4.84303">
        <ele>202</ele>
        <time>2022-09-18T10:41:40.000Z</time>
      </trkpt>
      <trkpt lat="49.78461" lon="4.84302">
        <ele>202</ele>
        <time>2022-09-18T10:41:41.000Z</time>
      </trkpt>
      <trkpt lat="49.78454" lon="4.84301">
        <ele>201</ele>
        <time>2022-09-18T10:41:42.000Z</time>
      </trkpt>
      <trkpt lat="49.78448" lon="4.843">
        <ele>201</ele>
        <time>2022-09-18T10:41:43.000Z</time>
      </trkpt>
      <trkpt lat="49.78443" lon="4.84301">
        <ele>201</ele>
        <time>2022-09-18T10:41:44.000Z</time>
      </trkpt>
      <trkpt lat="49.78438" lon="4.84302">
        <ele>201</ele>
        <time>2022-09-18T10:41:45.000Z</time>
      </trkpt>
      <trkpt lat="49.78433" lon="4.84304">
        <ele>201</ele>
        <time>2022-09-18T10:41:46.000Z</time>
      </trkpt>
      <trkpt lat="49.78428" lon="4.84308">
        <ele>201</ele>
        <time>2022-09-18T10:41:47.000Z</time>
      </trkpt>
      <trkpt lat="49.78424" lon="4.84311">
        <ele>201</ele>
        <time>2022-09-18T10:41:48.000Z</time>
      </trkpt>
      <trkpt lat="49.7842" lon="4.84315">
        <ele>200</ele>
        <time>2022-09-18T10:41:49.000Z</time>
      </trkpt>
      <trkpt lat="49.78416" lon="4.84319">
        <ele>200</ele>
        <time>2022-09-18T10:41:50.000Z</time>
      </trkpt>
      <trkpt lat="49.78412" lon="4.84323">
        <ele>200</ele>
        <time>2022-09-18T10:41:51.000Z</time>
      </trkpt>
      <trkpt lat="49.78408" lon="4.84328">
        <ele>200</ele>
        <time>2022-09-18T10:41:52.000Z</time>
      </trkpt>
      <trkpt lat="49.78404" lon="4.84331">
        <ele>199</ele>
        <time>2022-09-18T10:41:53.000Z</time>
      </trkpt>
      <trkpt lat="49.784" lon="4.84333">
        <ele>199</ele>
        <time>2022-09-18T10:41:54.000Z</time>
      </trkpt>
      <trkpt lat="49.78397" lon="4.84337">
        <ele>199</ele>
        <time>2022-09-18T10:41:55.000Z</time>
      </trkpt>
      <trkpt lat="49.78393" lon="4.84341">
        <ele>199</ele>
        <time>2022-09-18T10:41:56.000Z</time>
      </trkpt>
      <trkpt lat="49.7839" lon="4.84344">
        <ele>199</ele>
        <time>2022-09-18T10:41:57.000Z</time>
      </trkpt>
      <trkpt lat="49.78387" lon="4.84347">
        <ele>199</ele>
        <time>2022-09-18T10:41:58.000Z</time>
      </trkpt>
      <trkpt lat="49.78384" lon="4.84349">
        <ele>199</ele>
        <time>2022-09-18T10:41:59.000Z</time>
      </trkpt>
      <trkpt lat="49.7838" lon="4.8435">
        <ele>199</ele>
        <time>2022-09-18T10:42:00.000Z</time>
      </trkpt>
      <trkpt lat="49.78376" lon="4.8435">
        <ele>199</ele>
        <time>2022-09-18T10:42:01.000Z</time>
      </trkpt>
      <trkpt lat="49.78372" lon="4.84348">
        <ele>199</ele>
        <time>2022-09-18T10:42:02.000Z</time>
      </trkpt>
      <trkpt lat="49.78368" lon="4.84346">
        <ele>198</ele>
        <time>2022-09-18T10:42:03.000Z</time>
      </trkpt>
      <trkpt lat="49.78365" lon="4.84344">
        <ele>198</ele>
        <time>2022-09-18T10:42:04.000Z</time>
      </trkpt>
      <trkpt lat="49.78361" lon="4.84341">
        <ele>198</ele>
        <time>2022-09-18T10:42:05.000Z</time>
      </trkpt>
      <trkpt lat="49.78357" lon="4.84338">
        <ele>198</ele>
        <time>2022-09-18T10:42:06.000Z</time>
      </trkpt>
      <trkpt lat="49.78353" lon="4.84335">
        <ele>197</ele>
        <time>2022-09-18T10:42:07.000Z</time>
      </trkpt>
      <trkpt lat="49.78349" lon="4.84333">
        <ele>197</ele>
        <time>2022-09-18T10:42:08.000Z</time>
      </trkpt>
      <trkpt lat="49.78345" lon="4.8433">
        <ele>197</ele>
        <time>2022-09-18T10:42:09.000Z</time>
      </trkpt>
      <trkpt lat="49.78342" lon="4.84327">
        <ele>197</ele>
        <time>2022-09-18T10:42:10.000Z</time>
      </trkpt>
      <trkpt lat="49.78337" lon="4.84325">
        <ele>196</ele>
        <time>2022-09-18T10:42:11.000Z</time>
      </trkpt>
      <trkpt lat="49.78334" lon="4.84322">
        <ele>196</ele>
        <time>2022-09-18T10:42:12.000Z</time>
      </trkpt>
      <trkpt lat="49.7833" lon="4.84319">
        <ele>196</ele>
        <time>2022-09-18T10:42:13.000Z</time>
      </trkpt>
      <trkpt lat="49.78326" lon="4.84316">
        <ele>196</ele>
        <time>2022-09-18T10:42:14.000Z</time>
      </trkpt>
      <trkpt lat="49.78321" lon="4.84313">
        <ele>196</ele>
        <time>2022-09-18T10:42:15.000Z</time>
      </trkpt>
      <trkpt lat="49.78317" lon="4.84309">
        <ele>196</ele>
        <time>2022-09-18T10:42:16.000Z</time>
      </trkpt>
      <trkpt lat="49.78313" lon="4.84306">
        <ele>195</ele>
        <time>2022-09-18T10:42:17.000Z</time>
      </trkpt>
      <trkpt lat="49.78308" lon="4.84303">
        <ele>195</ele>
        <time>2022-09-18T10:42:18.000Z</time>
      </trkpt>
      <trkpt lat="49.78303" lon="4.843">
        <ele>195</ele>
        <time>2022-09-18T10:42:19.000Z</time>
      </trkpt>
      <trkpt lat="49.78298" lon="4.84296">
        <ele>195</ele>
        <time>2022-09-18T10:42:20.000Z</time>
      </trkpt>
      <trkpt lat="49.78294" lon="4.84293">
        <ele>195</ele>
        <time>2022-09-18T10:42:21.000Z</time>
      </trkpt>
      <trkpt lat="49.78289" lon="4.84289">
        <ele>195</ele>
        <time>2022-09-18T10:42:22.000Z</time>
      </trkpt>
      <trkpt lat="49.78285" lon="4.84287">
        <ele>195</ele>
        <time>2022-09-18T10:42:23.000Z</time>
      </trkpt>
      <trkpt lat="49.7828" lon="4.84284">
        <ele>195</ele>
        <time>2022-09-18T10:42:24.000Z</time>
      </trkpt>
      <trkpt lat="49.78276" lon="4.84281">
        <ele>195</ele>
        <time>2022-09-18T10:42:25.000Z</time>
      </trkpt>
      <trkpt lat="49.78272" lon="4.84279">
        <ele>195</ele>
        <time>2022-09-18T10:42:26.000Z</time>
      </trkpt>
      <trkpt lat="49.78267" lon="4.84277">
        <ele>195</ele>
        <time>2022-09-18T10:42:27.000Z</time>
      </trkpt>
      <trkpt lat="49.78262" lon="4.84275">
        <ele>196</ele>
        <time>2022-09-18T10:42:28.000Z</time>
      </trkpt>
      <trkpt lat="49.78258" lon="4.84272">
        <ele>196</ele>
        <time>2022-09-18T10:42:29.000Z</time>
      </trkpt>
      <trkpt lat="49.78255" lon="4.84268">
        <ele>196</ele>
        <time>2022-09-18T10:42:30.000Z</time>
      </trkpt>
      <trkpt lat="49.78251" lon="4.84264">
        <ele>196</ele>
        <time>2022-09-18T10:42:31.000Z</time>
      </trkpt>
      <trkpt lat="49.78248" lon="4.84259">
        <ele>196</ele>
        <time>2022-09-18T10:42:32.000Z</time>
      </trkpt>
      <trkpt lat="49.78246" lon="4.84253">
        <ele>196</ele>
        <time>2022-09-18T10:42:33.000Z</time>
      </trkpt>
      <trkpt lat="49.78243" lon="4.84247">
        <ele>196</ele>
        <time>2022-09-18T10:42:34.000Z</time>
      </trkpt>
      <trkpt lat="49.78241" lon="4.84242">
        <ele>197</ele>
        <time>2022-09-18T10:42:35.000Z</time>
      </trkpt>
      <trkpt lat="49.78239" lon="4.84238">
        <ele>197</ele>
        <time>2022-09-18T10:42:36.000Z</time>
      </trkpt>
      <trkpt lat="49.78238" lon="4.84233">
        <ele>197</ele>
        <time>2022-09-18T10:42:37.000Z</time>
      </trkpt>
      <trkpt lat="49.78237" lon="4.84229">
        <ele>197</ele>
        <time>2022-09-18T10:42:38.000Z</time>
      </trkpt>
      <trkpt lat="49.78236" lon="4.84225">
        <ele>196</ele>
        <time>2022-09-18T10:42:39.000Z</time>
      </trkpt>
      <trkpt lat="49.78236" lon="4.8422">
        <ele>196</ele>
        <time>2022-09-18T10:42:40.000Z</time>
      </trkpt>
      <trkpt lat="49.78235" lon="4.84216">
        <ele>196</ele>
        <time>2022-09-18T10:42:41.000Z</time>
      </trkpt>
      <trkpt lat="49.78234" lon="4.84211">
        <ele>196</ele>
        <time>2022-09-18T10:42:42.000Z</time>
      </trkpt>
      <trkpt lat="49.78233" lon="4.84207">
        <ele>196</ele>
        <time>2022-09-18T10:42:43.000Z</time>
      </trkpt>
      <trkpt lat="49.78232" lon="4.84204">
        <ele>196</ele>
        <time>2022-09-18T10:42:44.000Z</time>
      </trkpt>
      <trkpt lat="49.78232" lon="4.842">
        <ele>196</ele>
        <time>2022-09-18T10:42:45.000Z</time>
      </trkpt>
      <trkpt lat="49.78231" lon="4.84196">
        <ele>196</ele>
        <time>2022-09-18T10:42:46.000Z</time>
      </trkpt>
      <trkpt lat="49.7823" lon="4.84192">
        <ele>196</ele>
        <time>2022-09-18T10:42:47.000Z</time>
      </trkpt>
      <trkpt lat="49.78229" lon="4.84189">
        <ele>195</ele>
        <time>2022-09-18T10:42:48.000Z</time>
      </trkpt>
      <trkpt lat="49.78228" lon="4.84185">
        <ele>195</ele>
        <time>2022-09-18T10:42:49.000Z</time>
      </trkpt>
      <trkpt lat="49.78227" lon="4.84182">
        <ele>195</ele>
        <time>2022-09-18T10:42:50.000Z</time>
      </trkpt>
      <trkpt lat="49.78226" lon="4.84178">
        <ele>195</ele>
        <time>2022-09-18T10:42:51.000Z</time>
      </trkpt>
      <trkpt lat="49.78225" lon="4.84174">
        <ele>195</ele>
        <time>2022-09-18T10:42:52.000Z</time>
      </trkpt>
      <trkpt lat="49.78224" lon="4.84169">
        <ele>195</ele>
        <time>2022-09-18T10:42:53.000Z</time>
      </trkpt>
      <trkpt lat="49.78222" lon="4.84165">
        <ele>195</ele>
        <time>2022-09-18T10:42:54.000Z</time>
      </trkpt>
      <trkpt lat="49.7822" lon="4.84162">
        <ele>195</ele>
        <time>2022-09-18T10:42:55.000Z</time>
      </trkpt>
      <trkpt lat="49.78219" lon="4.84158">
        <ele>194</ele>
        <time>2022-09-18T10:42:56.000Z</time>
      </trkpt>
      <trkpt lat="49.78217" lon="4.84154">
        <ele>194</ele>
        <time>2022-09-18T10:42:57.000Z</time>
      </trkpt>
      <trkpt lat="49.78215" lon="4.8415">
        <ele>194</ele>
        <time>2022-09-18T10:42:58.000Z</time>
      </trkpt>
      <trkpt lat="49.78214" lon="4.84146">
        <ele>194</ele>
        <time>2022-09-18T10:42:59.000Z</time>
      </trkpt>
      <trkpt lat="49.78212" lon="4.84142">
        <ele>194</ele>
        <time>2022-09-18T10:43:00.000Z</time>
      </trkpt>
      <trkpt lat="49.78209" lon="4.84138">
        <ele>194</ele>
        <time>2022-09-18T10:43:01.000Z</time>
      </trkpt>
      <trkpt lat="49.78207" lon="4.84135">
        <ele>194</ele>
        <time>2022-09-18T10:43:02.000Z</time>
      </trkpt>
      <trkpt lat="49.78204" lon="4.84131">
        <ele>194</ele>
        <time>2022-09-18T10:43:03.000Z</time>
      </trkpt>
      <trkpt lat="49.78202" lon="4.84129">
        <ele>194</ele>
        <time>2022-09-18T10:43:04.000Z</time>
      </trkpt>
      <trkpt lat="49.78199" lon="4.84126">
        <ele>194</ele>
        <time>2022-09-18T10:43:05.000Z</time>
      </trkpt>
      <trkpt lat="49.78196" lon="4.84124">
        <ele>193</ele>
        <time>2022-09-18T10:43:06.000Z</time>
      </trkpt>
      <trkpt lat="49.78193" lon="4.84122">
        <ele>193</ele>
        <time>2022-09-18T10:43:07.000Z</time>
      </trkpt>
      <trkpt lat="49.78191" lon="4.8412">
        <ele>193</ele>
        <time>2022-09-18T10:43:08.000Z</time>
      </trkpt>
      <trkpt lat="49.78189" lon="4.84119">
        <ele>193</ele>
        <time>2022-09-18T10:43:09.000Z</time>
      </trkpt>
      <trkpt lat="49.78186" lon="4.84117">
        <ele>193</ele>
        <time>2022-09-18T10:43:10.000Z</time>
      </trkpt>
      <trkpt lat="49.78184" lon="4.84116">
        <ele>193</ele>
        <time>2022-09-18T10:43:11.000Z</time>
      </trkpt>
      <trkpt lat="49.78182" lon="4.84115">
        <ele>193</ele>
        <time>2022-09-18T10:43:12.000Z</time>
      </trkpt>
      <trkpt lat="49.7818" lon="4.84113">
        <ele>193</ele>
        <time>2022-09-18T10:43:13.000Z</time>
      </trkpt>
      <trkpt lat="49.78178" lon="4.84111">
        <ele>192</ele>
        <time>2022-09-18T10:43:14.000Z</time>
      </trkpt>
      <trkpt lat="49.78175" lon="4.84109">
        <ele>192</ele>
        <time>2022-09-18T10:43:15.000Z</time>
      </trkpt>
      <trkpt lat="49.78172" lon="4.84107">
        <ele>192</ele>
        <time>2022-09-18T10:43:16.000Z</time>
      </trkpt>
      <trkpt lat="49.7817" lon="4.84105">
        <ele>192</ele>
        <time>2022-09-18T10:43:17.000Z</time>
      </trkpt>
      <trkpt lat="49.78167" lon="4.84104">
        <ele>192</ele>
        <time>2022-09-18T10:43:18.000Z</time>
      </trkpt>
      <trkpt lat="49.78164" lon="4.84102">
        <ele>192</ele>
        <time>2022-09-18T10:43:19.000Z</time>
      </trkpt>
      <trkpt lat="49.78161" lon="4.84101">
        <ele>192</ele>
        <time>2022-09-18T10:43:20.000Z</time>
      </trkpt>
      <trkpt lat="49.78159" lon="4.84099">
        <ele>192</ele>
        <time>2022-09-18T10:43:21.000Z</time>
      </trkpt>
      <trkpt lat="49.78156" lon="4.84097">
        <ele>192</ele>
        <time>2022-09-18T10:43:22.000Z</time>
      </trkpt>
      <trkpt lat="49.78153" lon="4.84095">
        <ele>192</ele>
        <time>2022-09-18T10:43:23.000Z</time>
      </trkpt>
      <trkpt lat="49.7815" lon="4.84093">
        <ele>192</ele>
        <time>2022-09-18T10:43:24.000Z</time>
      </trkpt>
      <trkpt lat="49.78147" lon="4.84092">
        <ele>192</ele>
        <time>2022-09-18T10:43:25.000Z</time>
      </trkpt>
      <trkpt lat="49.78144" lon="4.8409">
        <ele>192</ele>
        <time>2022-09-18T10:43:26.000Z</time>
      </trkpt>
      <trkpt lat="49.78141" lon="4.84088">
        <ele>192</ele>
        <time>2022-09-18T10:43:27.000Z</time>
      </trkpt>
      <trkpt lat="49.78138" lon="4.84086">
        <ele>192</ele>
        <time>2022-09-18T10:43:28.000Z</time>
      </trkpt>
      <trkpt lat="49.78135" lon="4.84084">
        <ele>192</ele>
        <time>2022-09-18T10:43:29.000Z</time>
      </trkpt>
      <trkpt lat="49.78132" lon="4.84082">
        <ele>192</ele>
        <time>2022-09-18T10:43:30.000Z</time>
      </trkpt>
      <trkpt lat="49.78128" lon="4.84081">
        <ele>191</ele>
        <time>2022-09-18T10:43:31.000Z</time>
      </trkpt>
      <trkpt lat="49.78125" lon="4.8408">
        <ele>191</ele>
        <time>2022-09-18T10:43:32.000Z</time>
      </trkpt>
      <trkpt lat="49.78122" lon="4.84078">
        <ele>191</ele>
        <time>2022-09-18T10:43:33.000Z</time>
      </trkpt>
      <trkpt lat="49.78119" lon="4.84076">
        <ele>191</ele>
        <time>2022-09-18T10:43:34.000Z</time>
      </trkpt>
      <trkpt lat="49.78116" lon="4.84074">
        <ele>191</ele>
        <time>2022-09-18T10:43:35.000Z</time>
      </trkpt>
      <trkpt lat="49.78113" lon="4.84073">
        <ele>191</ele>
        <time>2022-09-18T10:43:36.000Z</time>
      </trkpt>
      <trkpt lat="49.7811" lon="4.84071">
        <ele>191</ele>
        <time>2022-09-18T10:43:37.000Z</time>
      </trkpt>
      <trkpt lat="49.78107" lon="4.84069">
        <ele>191</ele>
        <time>2022-09-18T10:43:38.000Z</time>
      </trkpt>
      <trkpt lat="49.78104" lon="4.84068">
        <ele>191</ele>
        <time>2022-09-18T10:43:39.000Z</time>
      </trkpt>
      <trkpt lat="49.78101" lon="4.84066">
        <ele>191</ele>
        <time>2022-09-18T10:43:40.000Z</time>
      </trkpt>
      <trkpt lat="49.78098" lon="4.84064">
        <ele>192</ele>
        <time>2022-09-18T10:43:41.000Z</time>
      </trkpt>
      <trkpt lat="49.78095" lon="4.84062">
        <ele>192</ele>
        <time>2022-09-18T10:43:42.000Z</time>
      </trkpt>
      <trkpt lat="49.78092" lon="4.8406">
        <ele>192</ele>
        <time>2022-09-18T10:43:43.000Z</time>
      </trkpt>
      <trkpt lat="49.78089" lon="4.84058">
        <ele>191</ele>
        <time>2022-09-18T10:43:44.000Z</time>
      </trkpt>
      <trkpt lat="49.78086" lon="4.84056">
        <ele>191</ele>
        <time>2022-09-18T10:43:45.000Z</time>
      </trkpt>
      <trkpt lat="49.78084" lon="4.84054">
        <ele>191</ele>
        <time>2022-09-18T10:43:46.000Z</time>
      </trkpt>
      <trkpt lat="49.78081" lon="4.84052">
        <ele>191</ele>
        <time>2022-09-18T10:43:47.000Z</time>
      </trkpt>
      <trkpt lat="49.78078" lon="4.84051">
        <ele>191</ele>
        <time>2022-09-18T10:43:48.000Z</time>
      </trkpt>
      <trkpt lat="49.78074" lon="4.84049">
        <ele>192</ele>
        <time>2022-09-18T10:43:49.000Z</time>
      </trkpt>
      <trkpt lat="49.78071" lon="4.84047">
        <ele>192</ele>
        <time>2022-09-18T10:43:50.000Z</time>
      </trkpt>
      <trkpt lat="49.78068" lon="4.84045">
        <ele>192</ele>
        <time>2022-09-18T10:43:51.000Z</time>
      </trkpt>
      <trkpt lat="49.78064" lon="4.84044">
        <ele>192</ele>
        <time>2022-09-18T10:43:52.000Z</time>
      </trkpt>
      <trkpt lat="49.78061" lon="4.84042">
        <ele>192</ele>
        <time>2022-09-18T10:43:53.000Z</time>
      </trkpt>
      <trkpt lat="49.78058" lon="4.8404">
        <ele>192</ele>
        <time>2022-09-18T10:43:54.000Z</time>
      </trkpt>
      <trkpt lat="49.78055" lon="4.84038">
        <ele>192</ele>
        <time>2022-09-18T10:43:55.000Z</time>
      </trkpt>
      <trkpt lat="49.78051" lon="4.84036">
        <ele>192</ele>
        <time>2022-09-18T10:43:56.000Z</time>
      </trkpt>
      <trkpt lat="49.78048" lon="4.84035">
        <ele>192</ele>
        <time>2022-09-18T10:43:57.000Z</time>
      </trkpt>
      <trkpt lat="49.78045" lon="4.84033">
        <ele>193</ele>
        <time>2022-09-18T10:43:58.000Z</time>
      </trkpt>
      <trkpt lat="49.78042" lon="4.84031">
        <ele>193</ele>
        <time>2022-09-18T10:43:59.000Z</time>
      </trkpt>
      <trkpt lat="49.78039" lon="4.84029">
        <ele>193</ele>
        <time>2022-09-18T10:44:00.000Z</time>
      </trkpt>
      <trkpt lat="49.78036" lon="4.84028">
        <ele>193</ele>
        <time>2022-09-18T10:44:01.000Z</time>
      </trkpt>
      <trkpt lat="49.78033" lon="4.84025">
        <ele>193</ele>
        <time>2022-09-18T10:44:02.000Z</time>
      </trkpt>
      <trkpt lat="49.7803" lon="4.84023">
        <ele>193</ele>
        <time>2022-09-18T10:44:03.000Z</time>
      </trkpt>
      <trkpt lat="49.78027" lon="4.84021">
        <ele>193</ele>
        <time>2022-09-18T10:44:04.000Z</time>
      </trkpt>
      <trkpt lat="49.78025" lon="4.84019">
        <ele>193</ele>
        <time>2022-09-18T10:44:05.000Z</time>
      </trkpt>
      <trkpt lat="49.78022" lon="4.84018">
        <ele>194</ele>
        <time>2022-09-18T10:44:06.000Z</time>
      </trkpt>
      <trkpt lat="49.78019" lon="4.84016">
        <ele>194</ele>
        <time>2022-09-18T10:44:07.000Z</time>
      </trkpt>
      <trkpt lat="49.78016" lon="4.84013">
        <ele>194</ele>
        <time>2022-09-18T10:44:08.000Z</time>
      </trkpt>
      <trkpt lat="49.78013" lon="4.8401">
        <ele>194</ele>
        <time>2022-09-18T10:44:09.000Z</time>
      </trkpt>
      <trkpt lat="49.78009" lon="4.84007">
        <ele>194</ele>
        <time>2022-09-18T10:44:10.000Z</time>
      </trkpt>
      <trkpt lat="49.78007" lon="4.84005">
        <ele>195</ele>
        <time>2022-09-18T10:44:11.000Z</time>
      </trkpt>
      <trkpt lat="49.78003" lon="4.84002">
        <ele>195</ele>
        <time>2022-09-18T10:44:12.000Z</time>
      </trkpt>
      <trkpt lat="49.78" lon="4.83998">
        <ele>195</ele>
        <time>2022-09-18T10:44:13.000Z</time>
      </trkpt>
      <trkpt lat="49.77997" lon="4.83995">
        <ele>195</ele>
        <time>2022-09-18T10:44:14.000Z</time>
      </trkpt>
      <trkpt lat="49.77994" lon="4.83991">
        <ele>195</ele>
        <time>2022-09-18T10:44:15.000Z</time>
      </trkpt>
      <trkpt lat="49.7799" lon="4.83986">
        <ele>196</ele>
        <time>2022-09-18T10:44:16.000Z</time>
      </trkpt>
      <trkpt lat="49.77987" lon="4.83982">
        <ele>196</ele>
        <time>2022-09-18T10:44:17.000Z</time>
      </trkpt>
      <trkpt lat="49.77984" lon="4.83978">
        <ele>196</ele>
        <time>2022-09-18T10:44:18.000Z</time>
      </trkpt>
      <trkpt lat="49.77981" lon="4.83974">
        <ele>197</ele>
        <time>2022-09-18T10:44:19.000Z</time>
      </trkpt>
      <trkpt lat="49.77978" lon="4.8397">
        <ele>197</ele>
        <time>2022-09-18T10:44:20.000Z</time>
      </trkpt>
      <trkpt lat="49.77975" lon="4.83966">
        <ele>198</ele>
        <time>2022-09-18T10:44:21.000Z</time>
      </trkpt>
      <trkpt lat="49.77972" lon="4.83962">
        <ele>198</ele>
        <time>2022-09-18T10:44:22.000Z</time>
      </trkpt>
      <trkpt lat="49.77969" lon="4.83958">
        <ele>198</ele>
        <time>2022-09-18T10:44:23.000Z</time>
      </trkpt>
      <trkpt lat="49.77966" lon="4.83954">
        <ele>198</ele>
        <time>2022-09-18T10:44:24.000Z</time>
      </trkpt>
      <trkpt lat="49.77962" lon="4.8395">
        <ele>199</ele>
        <time>2022-09-18T10:44:25.000Z</time>
      </trkpt>
      <trkpt lat="49.77959" lon="4.83946">
        <ele>199</ele>
        <time>2022-09-18T10:44:26.000Z</time>
      </trkpt>
      <trkpt lat="49.77956" lon="4.83941">
        <ele>199</ele>
        <time>2022-09-18T10:44:27.000Z</time>
      </trkpt>
      <trkpt lat="49.77953" lon="4.83937">
        <ele>199</ele>
        <time>2022-09-18T10:44:28.000Z</time>
      </trkpt>
      <trkpt lat="49.7795" lon="4.83933">
        <ele>200</ele>
        <time>2022-09-18T10:44:29.000Z</time>
      </trkpt>
      <trkpt lat="49.77947" lon="4.83929">
        <ele>200</ele>
        <time>2022-09-18T10:44:30.000Z</time>
      </trkpt>
      <trkpt lat="49.77944" lon="4.83925">
        <ele>200</ele>
        <time>2022-09-18T10:44:31.000Z</time>
      </trkpt>
      <trkpt lat="49.77941" lon="4.83921">
        <ele>200</ele>
        <time>2022-09-18T10:44:32.000Z</time>
      </trkpt>
      <trkpt lat="49.77938" lon="4.83917">
        <ele>200</ele>
        <time>2022-09-18T10:44:33.000Z</time>
      </trkpt>
      <trkpt lat="49.77935" lon="4.83912">
        <ele>200</ele>
        <time>2022-09-18T10:44:34.000Z</time>
      </trkpt>
      <trkpt lat="49.77932" lon="4.83908">
        <ele>201</ele>
        <time>2022-09-18T10:44:35.000Z</time>
      </trkpt>
      <trkpt lat="49.77929" lon="4.83904">
        <ele>201</ele>
        <time>2022-09-18T10:44:36.000Z</time>
      </trkpt>
      <trkpt lat="49.77926" lon="4.839">
        <ele>201</ele>
        <time>2022-09-18T10:44:37.000Z</time>
      </trkpt>
      <trkpt lat="49.77923" lon="4.83897">
        <ele>201</ele>
        <time>2022-09-18T10:44:38.000Z</time>
      </trkpt>
      <trkpt lat="49.7792" lon="4.83893">
        <ele>201</ele>
        <time>2022-09-18T10:44:39.000Z</time>
      </trkpt>
      <trkpt lat="49.77917" lon="4.83889">
        <ele>201</ele>
        <time>2022-09-18T10:44:40.000Z</time>
      </trkpt>
      <trkpt lat="49.77914" lon="4.83885">
        <ele>202</ele>
        <time>2022-09-18T10:44:41.000Z</time>
      </trkpt>
      <trkpt lat="49.77912" lon="4.83881">
        <ele>202</ele>
        <time>2022-09-18T10:44:42.000Z</time>
      </trkpt>
      <trkpt lat="49.77909" lon="4.83877">
        <ele>202</ele>
        <time>2022-09-18T10:44:43.000Z</time>
      </trkpt>
      <trkpt lat="49.77906" lon="4.83873">
        <ele>202</ele>
        <time>2022-09-18T10:44:44.000Z</time>
      </trkpt>
      <trkpt lat="49.77903" lon="4.8387">
        <ele>202</ele>
        <time>2022-09-18T10:44:45.000Z</time>
      </trkpt>
      <trkpt lat="49.779" lon="4.83866">
        <ele>202</ele>
        <time>2022-09-18T10:44:46.000Z</time>
      </trkpt>
      <trkpt lat="49.77898" lon="4.83863">
        <ele>202</ele>
        <time>2022-09-18T10:44:47.000Z</time>
      </trkpt>
      <trkpt lat="49.77895" lon="4.8386">
        <ele>202</ele>
        <time>2022-09-18T10:44:48.000Z</time>
      </trkpt>
      <trkpt lat="49.77892" lon="4.83856">
        <ele>202</ele>
        <time>2022-09-18T10:44:49.000Z</time>
      </trkpt>
      <trkpt lat="49.7789" lon="4.83852">
        <ele>202</ele>
        <time>2022-09-18T10:44:50.000Z</time>
      </trkpt>
      <trkpt lat="49.77887" lon="4.83848">
        <ele>202</ele>
        <time>2022-09-18T10:44:51.000Z</time>
      </trkpt>
      <trkpt lat="49.77884" lon="4.83845">
        <ele>202</ele>
        <time>2022-09-18T10:44:52.000Z</time>
      </trkpt>
      <trkpt lat="49.77881" lon="4.83841">
        <ele>202</ele>
        <time>2022-09-18T10:44:53.000Z</time>
      </trkpt>
      <trkpt lat="49.77879" lon="4.83838">
        <ele>202</ele>
        <time>2022-09-18T10:44:54.000Z</time>
      </trkpt>
      <trkpt lat="49.77876" lon="4.83834">
        <ele>202</ele>
        <time>2022-09-18T10:44:55.000Z</time>
      </trkpt>
      <trkpt lat="49.77874" lon="4.83831">
        <ele>202</ele>
        <time>2022-09-18T10:44:56.000Z</time>
      </trkpt>
      <trkpt lat="49.77871" lon="4.83828">
        <ele>202</ele>
        <time>2022-09-18T10:44:57.000Z</time>
      </trkpt>
      <trkpt lat="49.77869" lon="4.83825">
        <ele>202</ele>
        <time>2022-09-18T10:44:58.000Z</time>
      </trkpt>
      <trkpt lat="49.77866" lon="4.83823">
        <ele>202</ele>
        <time>2022-09-18T10:44:59.000Z</time>
      </trkpt>
      <trkpt lat="49.77863" lon="4.83822">
        <ele>202</ele>
        <time>2022-09-18T10:45:00.000Z</time>
      </trkpt>
      <trkpt lat="49.77861" lon="4.83823">
        <ele>202</ele>
        <time>2022-09-18T10:45:01.000Z</time>
      </trkpt>
      <trkpt lat="49.77859" lon="4.83825">
        <ele>202</ele>
        <time>2022-09-18T10:45:02.000Z</time>
      </trkpt>
      <trkpt lat="49.77857" lon="4.83825">
        <ele>202</ele>
        <time>2022-09-18T10:45:03.000Z</time>
      </trkpt>
      <trkpt lat="49.77854" lon="4.83824">
        <ele>202</ele>
        <time>2022-09-18T10:45:04.000Z</time>
      </trkpt>
      <trkpt lat="49.77853" lon="4.83823">
        <ele>202</ele>
        <time>2022-09-18T10:45:05.000Z</time>
      </trkpt>
      <trkpt lat="49.77851" lon="4.83823">
        <ele>202</ele>
        <time>2022-09-18T10:45:06.000Z</time>
      </trkpt>
      <trkpt lat="49.77849" lon="4.83823">
        <ele>202</ele>
        <time>2022-09-18T10:45:07.000Z</time>
      </trkpt>
      <trkpt lat="49.77848" lon="4.83823">
        <ele>202</ele>
        <time>2022-09-18T10:45:08.000Z</time>
      </trkpt>
      <trkpt lat="49.77846" lon="4.83824">
        <ele>202</ele>
        <time>2022-09-18T10:45:09.000Z</time>
      </trkpt>
      <trkpt lat="49.77844" lon="4.83823">
        <ele>202</ele>
        <time>2022-09-18T10:45:10.000Z</time>
      </trkpt>
      <trkpt lat="49.77842" lon="4.83822">
        <ele>202</ele>
        <time>2022-09-18T10:45:11.000Z</time>
      </trkpt>
      <trkpt lat="49.7784" lon="4.83822">
        <ele>202</ele>
        <time>2022-09-18T10:45:12.000Z</time>
      </trkpt>
      <trkpt lat="49.77838" lon="4.83822">
        <ele>202</ele>
        <time>2022-09-18T10:45:13.000Z</time>
      </trkpt>
      <trkpt lat="49.77836" lon="4.83822">
        <ele>202</ele>
        <time>2022-09-18T10:45:14.000Z</time>
      </trkpt>
      <trkpt lat="49.77834" lon="4.83821">
        <ele>202</ele>
        <time>2022-09-18T10:45:15.000Z</time>
      </trkpt>
      <trkpt lat="49.77832" lon="4.8382">
        <ele>203</ele>
        <time>2022-09-18T10:45:16.000Z</time>
      </trkpt>
      <trkpt lat="49.7783" lon="4.8382">
        <ele>203</ele>
        <time>2022-09-18T10:45:17.000Z</time>
      </trkpt>
      <trkpt lat="49.77827" lon="4.8382">
        <ele>203</ele>
        <time>2022-09-18T10:45:18.000Z</time>
      </trkpt>
      <trkpt lat="49.77826" lon="4.83819">
        <ele>203</ele>
        <time>2022-09-18T10:45:19.000Z</time>
      </trkpt>
      <trkpt lat="49.77824" lon="4.83819">
        <ele>203</ele>
        <time>2022-09-18T10:45:20.000Z</time>
      </trkpt>
      <trkpt lat="49.77823" lon="4.83819">
        <ele>203</ele>
        <time>2022-09-18T10:45:21.000Z</time>
      </trkpt>
      <trkpt lat="49.77821" lon="4.83818">
        <ele>204</ele>
        <time>2022-09-18T10:45:22.000Z</time>
      </trkpt>
      <trkpt lat="49.77819" lon="4.83819">
        <ele>204</ele>
        <time>2022-09-18T10:45:23.000Z</time>
      </trkpt>
      <trkpt lat="49.77818" lon="4.83819">
        <ele>204</ele>
        <time>2022-09-18T10:45:24.000Z</time>
      </trkpt>
      <trkpt lat="49.77815" lon="4.83819">
        <ele>204</ele>
        <time>2022-09-18T10:45:25.000Z</time>
      </trkpt>
      <trkpt lat="49.77813" lon="4.83819">
        <ele>205</ele>
        <time>2022-09-18T10:45:26.000Z</time>
      </trkpt>
      <trkpt lat="49.77811" lon="4.83818">
        <ele>205</ele>
        <time>2022-09-18T10:45:27.000Z</time>
      </trkpt>
      <trkpt lat="49.77809" lon="4.83819">
        <ele>205</ele>
        <time>2022-09-18T10:45:28.000Z</time>
      </trkpt>
      <trkpt lat="49.77807" lon="4.83819">
        <ele>206</ele>
        <time>2022-09-18T10:45:29.000Z</time>
      </trkpt>
      <trkpt lat="49.77805" lon="4.83818">
        <ele>206</ele>
        <time>2022-09-18T10:45:30.000Z</time>
      </trkpt>
      <trkpt lat="49.77802" lon="4.83818">
        <ele>206</ele>
        <time>2022-09-18T10:45:31.000Z</time>
      </trkpt>
      <trkpt lat="49.778" lon="4.83818">
        <ele>207</ele>
        <time>2022-09-18T10:45:32.000Z</time>
      </trkpt>
      <trkpt lat="49.77797" lon="4.83816">
        <ele>207</ele>
        <time>2022-09-18T10:45:33.000Z</time>
      </trkpt>
      <trkpt lat="49.77795" lon="4.83816">
        <ele>208</ele>
        <time>2022-09-18T10:45:34.000Z</time>
      </trkpt>
      <trkpt lat="49.77793" lon="4.83816">
        <ele>208</ele>
        <time>2022-09-18T10:45:35.000Z</time>
      </trkpt>
      <trkpt lat="49.77791" lon="4.83815">
        <ele>208</ele>
        <time>2022-09-18T10:45:36.000Z</time>
      </trkpt>
      <trkpt lat="49.77788" lon="4.83814">
        <ele>209</ele>
        <time>2022-09-18T10:45:37.000Z</time>
      </trkpt>
      <trkpt lat="49.77786" lon="4.83813">
        <ele>209</ele>
        <time>2022-09-18T10:45:38.000Z</time>
      </trkpt>
      <trkpt lat="49.77784" lon="4.83813">
        <ele>209</ele>
        <time>2022-09-18T10:45:39.000Z</time>
      </trkpt>
      <trkpt lat="49.77782" lon="4.83812">
        <ele>210</ele>
        <time>2022-09-18T10:45:40.000Z</time>
      </trkpt>
      <trkpt lat="49.7778" lon="4.83812">
        <ele>210</ele>
        <time>2022-09-18T10:45:41.000Z</time>
      </trkpt>
      <trkpt lat="49.77777" lon="4.83811">
        <ele>210</ele>
        <time>2022-09-18T10:45:42.000Z</time>
      </trkpt>
      <trkpt lat="49.77775" lon="4.8381">
        <ele>211</ele>
        <time>2022-09-18T10:45:43.000Z</time>
      </trkpt>
      <trkpt lat="49.77773" lon="4.8381">
        <ele>211</ele>
        <time>2022-09-18T10:45:44.000Z</time>
      </trkpt>
      <trkpt lat="49.77771" lon="4.83809">
        <ele>212</ele>
        <time>2022-09-18T10:45:45.000Z</time>
      </trkpt>
      <trkpt lat="49.77769" lon="4.83808">
        <ele>212</ele>
        <time>2022-09-18T10:45:46.000Z</time>
      </trkpt>
      <trkpt lat="49.77768" lon="4.83806">
        <ele>212</ele>
        <time>2022-09-18T10:45:47.000Z</time>
      </trkpt>
      <trkpt lat="49.77765" lon="4.83806">
        <ele>213</ele>
        <time>2022-09-18T10:45:48.000Z</time>
      </trkpt>
      <trkpt lat="49.77763" lon="4.83805">
        <ele>213</ele>
        <time>2022-09-18T10:45:49.000Z</time>
      </trkpt>
      <trkpt lat="49.7776" lon="4.83805">
        <ele>214</ele>
        <time>2022-09-18T10:45:50.000Z</time>
      </trkpt>
      <trkpt lat="49.77758" lon="4.83804">
        <ele>214</ele>
        <time>2022-09-18T10:45:51.000Z</time>
      </trkpt>
      <trkpt lat="49.77756" lon="4.83804">
        <ele>215</ele>
        <time>2022-09-18T10:45:52.000Z</time>
      </trkpt>
      <trkpt lat="49.77754" lon="4.83804">
        <ele>215</ele>
        <time>2022-09-18T10:45:53.000Z</time>
      </trkpt>
      <trkpt lat="49.77752" lon="4.83803">
        <ele>215</ele>
        <time>2022-09-18T10:45:54.000Z</time>
      </trkpt>
      <trkpt lat="49.7775" lon="4.83802">
        <ele>216</ele>
        <time>2022-09-18T10:45:55.000Z</time>
      </trkpt>
      <trkpt lat="49.77748" lon="4.83801">
        <ele>216</ele>
        <time>2022-09-18T10:45:56.000Z</time>
      </trkpt>
      <trkpt lat="49.77746" lon="4.83801">
        <ele>217</ele>
        <time>2022-09-18T10:45:57.000Z</time>
      </trkpt>
      <trkpt lat="49.77744" lon="4.838">
        <ele>217</ele>
        <time>2022-09-18T10:45:58.000Z</time>
      </trkpt>
      <trkpt lat="49.77742" lon="4.83799">
        <ele>217</ele>
        <time>2022-09-18T10:45:59.000Z</time>
      </trkpt>
      <trkpt lat="49.7774" lon="4.83798">
        <ele>218</ele>
        <time>2022-09-18T10:46:00.000Z</time>
      </trkpt>
      <trkpt lat="49.77739" lon="4.83797">
        <ele>218</ele>
        <time>2022-09-18T10:46:01.000Z</time>
      </trkpt>
      <trkpt lat="49.77737" lon="4.83796">
        <ele>218</ele>
        <time>2022-09-18T10:46:02.000Z</time>
      </trkpt>
      <trkpt lat="49.77735" lon="4.83796">
        <ele>219</ele>
        <time>2022-09-18T10:46:03.000Z</time>
      </trkpt>
      <trkpt lat="49.77733" lon="4.83796">
        <ele>219</ele>
        <time>2022-09-18T10:46:04.000Z</time>
      </trkpt>
      <trkpt lat="49.77731" lon="4.83795">
        <ele>220</ele>
        <time>2022-09-18T10:46:05.000Z</time>
      </trkpt>
      <trkpt lat="49.77729" lon="4.83794">
        <ele>220</ele>
        <time>2022-09-18T10:46:06.000Z</time>
      </trkpt>
      <trkpt lat="49.77728" lon="4.83794">
        <ele>220</ele>
        <time>2022-09-18T10:46:07.000Z</time>
      </trkpt>
      <trkpt lat="49.77726" lon="4.83793">
        <ele>221</ele>
        <time>2022-09-18T10:46:08.000Z</time>
      </trkpt>
      <trkpt lat="49.77724" lon="4.83792">
        <ele>221</ele>
        <time>2022-09-18T10:46:09.000Z</time>
      </trkpt>
      <trkpt lat="49.77722" lon="4.83792">
        <ele>222</ele>
        <time>2022-09-18T10:46:10.000Z</time>
      </trkpt>
      <trkpt lat="49.77721" lon="4.83791">
        <ele>222</ele>
        <time>2022-09-18T10:46:11.000Z</time>
      </trkpt>
      <trkpt lat="49.77719" lon="4.83791">
        <ele>222</ele>
        <time>2022-09-18T10:46:12.000Z</time>
      </trkpt>
      <trkpt lat="49.77717" lon="4.8379">
        <ele>223</ele>
        <time>2022-09-18T10:46:13.000Z</time>
      </trkpt>
      <trkpt lat="49.77715" lon="4.83789">
        <ele>223</ele>
        <time>2022-09-18T10:46:14.000Z</time>
      </trkpt>
      <trkpt lat="49.77714" lon="4.83788">
        <ele>223</ele>
        <time>2022-09-18T10:46:15.000Z</time>
      </trkpt>
      <trkpt lat="49.77713" lon="4.83787">
        <ele>224</ele>
        <time>2022-09-18T10:46:16.000Z</time>
      </trkpt>
      <trkpt lat="49.77712" lon="4.83784">
        <ele>224</ele>
        <time>2022-09-18T10:46:17.000Z</time>
      </trkpt>
      <trkpt lat="49.77711" lon="4.83781">
        <ele>224</ele>
        <time>2022-09-18T10:46:18.000Z</time>
      </trkpt>
      <trkpt lat="49.77709" lon="4.83776">
        <ele>225</ele>
        <time>2022-09-18T10:46:19.000Z</time>
      </trkpt>
      <trkpt lat="49.77708" lon="4.83772">
        <ele>225</ele>
        <time>2022-09-18T10:46:20.000Z</time>
      </trkpt>
      <trkpt lat="49.77706" lon="4.83768">
        <ele>225</ele>
        <time>2022-09-18T10:46:21.000Z</time>
      </trkpt>
      <trkpt lat="49.77704" lon="4.83764">
        <ele>225</ele>
        <time>2022-09-18T10:46:22.000Z</time>
      </trkpt>
      <trkpt lat="49.77702" lon="4.83759">
        <ele>225</ele>
        <time>2022-09-18T10:46:23.000Z</time>
      </trkpt>
      <trkpt lat="49.777" lon="4.83756">
        <ele>226</ele>
        <time>2022-09-18T10:46:24.000Z</time>
      </trkpt>
      <trkpt lat="49.77698" lon="4.83752">
        <ele>226</ele>
        <time>2022-09-18T10:46:25.000Z</time>
      </trkpt>
      <trkpt lat="49.77697" lon="4.83747">
        <ele>226</ele>
        <time>2022-09-18T10:46:26.000Z</time>
      </trkpt>
      <trkpt lat="49.77695" lon="4.83742">
        <ele>226</ele>
        <time>2022-09-18T10:46:27.000Z</time>
      </trkpt>
      <trkpt lat="49.77694" lon="4.83737">
        <ele>226</ele>
        <time>2022-09-18T10:46:28.000Z</time>
      </trkpt>
      <trkpt lat="49.77692" lon="4.83733">
        <ele>226</ele>
        <time>2022-09-18T10:46:29.000Z</time>
      </trkpt>
      <trkpt lat="49.77691" lon="4.83728">
        <ele>227</ele>
        <time>2022-09-18T10:46:30.000Z</time>
      </trkpt>
      <trkpt lat="49.77689" lon="4.83722">
        <ele>227</ele>
        <time>2022-09-18T10:46:31.000Z</time>
      </trkpt>
      <trkpt lat="49.77688" lon="4.83717">
        <ele>227</ele>
        <time>2022-09-18T10:46:32.000Z</time>
      </trkpt>
      <trkpt lat="49.77687" lon="4.83712">
        <ele>227</ele>
        <time>2022-09-18T10:46:33.000Z</time>
      </trkpt>
      <trkpt lat="49.77686" lon="4.83707">
        <ele>227</ele>
        <time>2022-09-18T10:46:34.000Z</time>
      </trkpt>
      <trkpt lat="49.77685" lon="4.83703">
        <ele>227</ele>
        <time>2022-09-18T10:46:35.000Z</time>
      </trkpt>
      <trkpt lat="49.77684" lon="4.83698">
        <ele>227</ele>
        <time>2022-09-18T10:46:36.000Z</time>
      </trkpt>
      <trkpt lat="49.77683" lon="4.83693">
        <ele>228</ele>
        <time>2022-09-18T10:46:37.000Z</time>
      </trkpt>
      <trkpt lat="49.77682" lon="4.83689">
        <ele>228</ele>
        <time>2022-09-18T10:46:38.000Z</time>
      </trkpt>
      <trkpt lat="49.77681" lon="4.83685">
        <ele>228</ele>
        <time>2022-09-18T10:46:39.000Z</time>
      </trkpt>
      <trkpt lat="49.7768" lon="4.8368">
        <ele>228</ele>
        <time>2022-09-18T10:46:40.000Z</time>
      </trkpt>
      <trkpt lat="49.77679" lon="4.83675">
        <ele>228</ele>
        <time>2022-09-18T10:46:41.000Z</time>
      </trkpt>
      <trkpt lat="49.77677" lon="4.8367">
        <ele>228</ele>
        <time>2022-09-18T10:46:42.000Z</time>
      </trkpt>
      <trkpt lat="49.77676" lon="4.83664">
        <ele>228</ele>
        <time>2022-09-18T10:46:43.000Z</time>
      </trkpt>
      <trkpt lat="49.77675" lon="4.83659">
        <ele>228</ele>
        <time>2022-09-18T10:46:44.000Z</time>
      </trkpt>
      <trkpt lat="49.77674" lon="4.83654">
        <ele>228</ele>
        <time>2022-09-18T10:46:45.000Z</time>
      </trkpt>
      <trkpt lat="49.77673" lon="4.83649">
        <ele>228</ele>
        <time>2022-09-18T10:46:46.000Z</time>
      </trkpt>
      <trkpt lat="49.77671" lon="4.83644">
        <ele>228</ele>
        <time>2022-09-18T10:46:47.000Z</time>
      </trkpt>
      <trkpt lat="49.7767" lon="4.8364">
        <ele>228</ele>
        <time>2022-09-18T10:46:48.000Z</time>
      </trkpt>
      <trkpt lat="49.77668" lon="4.83635">
        <ele>228</ele>
        <time>2022-09-18T10:46:49.000Z</time>
      </trkpt>
      <trkpt lat="49.77666" lon="4.8363">
        <ele>228</ele>
        <time>2022-09-18T10:46:50.000Z</time>
      </trkpt>
      <trkpt lat="49.77665" lon="4.83626">
        <ele>228</ele>
        <time>2022-09-18T10:46:51.000Z</time>
      </trkpt>
      <trkpt lat="49.77664" lon="4.83621">
        <ele>227</ele>
        <time>2022-09-18T10:46:52.000Z</time>
      </trkpt>
      <trkpt lat="49.77662" lon="4.83618">
        <ele>227</ele>
        <time>2022-09-18T10:46:53.000Z</time>
      </trkpt>
      <trkpt lat="49.77662" lon="4.83613">
        <ele>227</ele>
        <time>2022-09-18T10:46:54.000Z</time>
      </trkpt>
      <trkpt lat="49.77661" lon="4.83609">
        <ele>227</ele>
        <time>2022-09-18T10:46:55.000Z</time>
      </trkpt>
      <trkpt lat="49.7766" lon="4.83605">
        <ele>227</ele>
        <time>2022-09-18T10:46:56.000Z</time>
      </trkpt>
      <trkpt lat="49.77659" lon="4.83601">
        <ele>227</ele>
        <time>2022-09-18T10:46:57.000Z</time>
      </trkpt>
      <trkpt lat="49.77659" lon="4.83597">
        <ele>227</ele>
        <time>2022-09-18T10:46:58.000Z</time>
      </trkpt>
      <trkpt lat="49.77657" lon="4.83594">
        <ele>227</ele>
        <time>2022-09-18T10:46:59.000Z</time>
      </trkpt>
      <trkpt lat="49.77655" lon="4.8359">
        <ele>227</ele>
        <time>2022-09-18T10:47:00.000Z</time>
      </trkpt>
      <trkpt lat="49.77653" lon="4.83587">
        <ele>227</ele>
        <time>2022-09-18T10:47:01.000Z</time>
      </trkpt>
      <trkpt lat="49.77651" lon="4.83584">
        <ele>227</ele>
        <time>2022-09-18T10:47:02.000Z</time>
      </trkpt>
      <trkpt lat="49.77649" lon="4.8358">
        <ele>227</ele>
        <time>2022-09-18T10:47:03.000Z</time>
      </trkpt>
      <trkpt lat="49.77647" lon="4.83576">
        <ele>227</ele>
        <time>2022-09-18T10:47:04.000Z</time>
      </trkpt>
      <trkpt lat="49.77646" lon="4.83572">
        <ele>227</ele>
        <time>2022-09-18T10:47:05.000Z</time>
      </trkpt>
      <trkpt lat="49.77644" lon="4.83569">
        <ele>227</ele>
        <time>2022-09-18T10:47:06.000Z</time>
      </trkpt>
      <trkpt lat="49.77642" lon="4.83566">
        <ele>227</ele>
        <time>2022-09-18T10:47:07.000Z</time>
      </trkpt>
      <trkpt lat="49.7764" lon="4.83562">
        <ele>227</ele>
        <time>2022-09-18T10:47:08.000Z</time>
      </trkpt>
      <trkpt lat="49.77639" lon="4.83559">
        <ele>227</ele>
        <time>2022-09-18T10:47:09.000Z</time>
      </trkpt>
      <trkpt lat="49.77637" lon="4.83555">
        <ele>227</ele>
        <time>2022-09-18T10:47:10.000Z</time>
      </trkpt>
      <trkpt lat="49.77635" lon="4.83552">
        <ele>227</ele>
        <time>2022-09-18T10:47:11.000Z</time>
      </trkpt>
      <trkpt lat="49.77634" lon="4.83548">
        <ele>227</ele>
        <time>2022-09-18T10:47:12.000Z</time>
      </trkpt>
      <trkpt lat="49.77632" lon="4.83545">
        <ele>227</ele>
        <time>2022-09-18T10:47:13.000Z</time>
      </trkpt>
      <trkpt lat="49.77631" lon="4.83541">
        <ele>227</ele>
        <time>2022-09-18T10:47:14.000Z</time>
      </trkpt>
      <trkpt lat="49.7763" lon="4.83538">
        <ele>227</ele>
        <time>2022-09-18T10:47:15.000Z</time>
      </trkpt>
      <trkpt lat="49.77628" lon="4.83535">
        <ele>227</ele>
        <time>2022-09-18T10:47:16.000Z</time>
      </trkpt>
      <trkpt lat="49.77626" lon="4.83532">
        <ele>227</ele>
        <time>2022-09-18T10:47:17.000Z</time>
      </trkpt>
      <trkpt lat="49.77625" lon="4.83529">
        <ele>227</ele>
        <time>2022-09-18T10:47:18.000Z</time>
      </trkpt>
      <trkpt lat="49.77623" lon="4.83526">
        <ele>227</ele>
        <time>2022-09-18T10:47:19.000Z</time>
      </trkpt>
      <trkpt lat="49.77621" lon="4.83523">
        <ele>227</ele>
        <time>2022-09-18T10:47:20.000Z</time>
      </trkpt>
      <trkpt lat="49.77619" lon="4.8352">
        <ele>227</ele>
        <time>2022-09-18T10:47:21.000Z</time>
      </trkpt>
      <trkpt lat="49.77618" lon="4.83517">
        <ele>227</ele>
        <time>2022-09-18T10:47:22.000Z</time>
      </trkpt>
      <trkpt lat="49.77615" lon="4.83514">
        <ele>227</ele>
        <time>2022-09-18T10:47:23.000Z</time>
      </trkpt>
      <trkpt lat="49.77613" lon="4.83511">
        <ele>227</ele>
        <time>2022-09-18T10:47:24.000Z</time>
      </trkpt>
      <trkpt lat="49.77611" lon="4.83508">
        <ele>227</ele>
        <time>2022-09-18T10:47:25.000Z</time>
      </trkpt>
      <trkpt lat="49.77609" lon="4.83506">
        <ele>227</ele>
        <time>2022-09-18T10:47:26.000Z</time>
      </trkpt>
      <trkpt lat="49.77607" lon="4.83503">
        <ele>227</ele>
        <time>2022-09-18T10:47:27.000Z</time>
      </trkpt>
      <trkpt lat="49.77605" lon="4.83501">
        <ele>227</ele>
        <time>2022-09-18T10:47:28.000Z</time>
      </trkpt>
      <trkpt lat="49.77602" lon="4.83498">
        <ele>227</ele>
        <time>2022-09-18T10:47:29.000Z</time>
      </trkpt>
      <trkpt lat="49.776" lon="4.83496">
        <ele>227</ele>
        <time>2022-09-18T10:47:30.000Z</time>
      </trkpt>
      <trkpt lat="49.77598" lon="4.83494">
        <ele>227</ele>
        <time>2022-09-18T10:47:31.000Z</time>
      </trkpt>
      <trkpt lat="49.77596" lon="4.83492">
        <ele>227</ele>
        <time>2022-09-18T10:47:32.000Z</time>
      </trkpt>
      <trkpt lat="49.77595" lon="4.8349">
        <ele>227</ele>
        <time>2022-09-18T10:47:33.000Z</time>
      </trkpt>
      <trkpt lat="49.77593" lon="4.83488">
        <ele>227</ele>
        <time>2022-09-18T10:47:34.000Z</time>
      </trkpt>
      <trkpt lat="49.77591" lon="4.83486">
        <ele>227</ele>
        <time>2022-09-18T10:47:35.000Z</time>
      </trkpt>
      <trkpt lat="49.77588" lon="4.83484">
        <ele>227</ele>
        <time>2022-09-18T10:47:36.000Z</time>
      </trkpt>
      <trkpt lat="49.77586" lon="4.83482">
        <ele>227</ele>
        <time>2022-09-18T10:47:37.000Z</time>
      </trkpt>
      <trkpt lat="49.77585" lon="4.83481">
        <ele>227</ele>
        <time>2022-09-18T10:47:38.000Z</time>
      </trkpt>
      <trkpt lat="49.77584" lon="4.83479">
        <ele>227</ele>
        <time>2022-09-18T10:47:39.000Z</time>
      </trkpt>
      <trkpt lat="49.77582" lon="4.83477">
        <ele>226</ele>
        <time>2022-09-18T10:47:40.000Z</time>
      </trkpt>
      <trkpt lat="49.7758" lon="4.83475">
        <ele>227</ele>
        <time>2022-09-18T10:47:41.000Z</time>
      </trkpt>
      <trkpt lat="49.77578" lon="4.83473">
        <ele>227</ele>
        <time>2022-09-18T10:47:42.000Z</time>
      </trkpt>
      <trkpt lat="49.77575" lon="4.83472">
        <ele>227</ele>
        <time>2022-09-18T10:47:43.000Z</time>
      </trkpt>
      <trkpt lat="49.77573" lon="4.8347">
        <ele>227</ele>
        <time>2022-09-18T10:47:44.000Z</time>
      </trkpt>
      <trkpt lat="49.7757" lon="4.83469">
        <ele>226</ele>
        <time>2022-09-18T10:47:45.000Z</time>
      </trkpt>
      <trkpt lat="49.77568" lon="4.83468">
        <ele>226</ele>
        <time>2022-09-18T10:47:46.000Z</time>
      </trkpt>
      <trkpt lat="49.77565" lon="4.83467">
        <ele>226</ele>
        <time>2022-09-18T10:47:47.000Z</time>
      </trkpt>
      <trkpt lat="49.77562" lon="4.83466">
        <ele>226</ele>
        <time>2022-09-18T10:47:48.000Z</time>
      </trkpt>
      <trkpt lat="49.77559" lon="4.83465">
        <ele>226</ele>
        <time>2022-09-18T10:47:49.000Z</time>
      </trkpt>
      <trkpt lat="49.77556" lon="4.83464">
        <ele>226</ele>
        <time>2022-09-18T10:47:50.000Z</time>
      </trkpt>
      <trkpt lat="49.77554" lon="4.83463">
        <ele>226</ele>
        <time>2022-09-18T10:47:51.000Z</time>
      </trkpt>
      <trkpt lat="49.7755" lon="4.83462">
        <ele>226</ele>
        <time>2022-09-18T10:47:52.000Z</time>
      </trkpt>
      <trkpt lat="49.77547" lon="4.83461">
        <ele>226</ele>
        <time>2022-09-18T10:47:53.000Z</time>
      </trkpt>
      <trkpt lat="49.77545" lon="4.83461">
        <ele>226</ele>
        <time>2022-09-18T10:47:54.000Z</time>
      </trkpt>
      <trkpt lat="49.77541" lon="4.83461">
        <ele>226</ele>
        <time>2022-09-18T10:47:55.000Z</time>
      </trkpt>
      <trkpt lat="49.77538" lon="4.8346">
        <ele>227</ele>
        <time>2022-09-18T10:47:56.000Z</time>
      </trkpt>
      <trkpt lat="49.77535" lon="4.83459">
        <ele>227</ele>
        <time>2022-09-18T10:47:57.000Z</time>
      </trkpt>
      <trkpt lat="49.77532" lon="4.83458">
        <ele>227</ele>
        <time>2022-09-18T10:47:58.000Z</time>
      </trkpt>
      <trkpt lat="49.77528" lon="4.83457">
        <ele>227</ele>
        <time>2022-09-18T10:47:59.000Z</time>
      </trkpt>
      <trkpt lat="49.77525" lon="4.83457">
        <ele>227</ele>
        <time>2022-09-18T10:48:00.000Z</time>
      </trkpt>
      <trkpt lat="49.77522" lon="4.83458">
        <ele>228</ele>
        <time>2022-09-18T10:48:01.000Z</time>
      </trkpt>
      <trkpt lat="49.77518" lon="4.83458">
        <ele>228</ele>
        <time>2022-09-18T10:48:02.000Z</time>
      </trkpt>
      <trkpt lat="49.77515" lon="4.83457">
        <ele>228</ele>
        <time>2022-09-18T10:48:03.000Z</time>
      </trkpt>
      <trkpt lat="49.77512" lon="4.83457">
        <ele>229</ele>
        <time>2022-09-18T10:48:04.000Z</time>
      </trkpt>
      <trkpt lat="49.77509" lon="4.83457">
        <ele>229</ele>
        <time>2022-09-18T10:48:05.000Z</time>
      </trkpt>
      <trkpt lat="49.77505" lon="4.83457">
        <ele>229</ele>
        <time>2022-09-18T10:48:06.000Z</time>
      </trkpt>
      <trkpt lat="49.77502" lon="4.83457">
        <ele>230</ele>
        <time>2022-09-18T10:48:07.000Z</time>
      </trkpt>
      <trkpt lat="49.77498" lon="4.83458">
        <ele>230</ele>
        <time>2022-09-18T10:48:08.000Z</time>
      </trkpt>
      <trkpt lat="49.77495" lon="4.83458">
        <ele>230</ele>
        <time>2022-09-18T10:48:09.000Z</time>
      </trkpt>
      <trkpt lat="49.77491" lon="4.83458">
        <ele>231</ele>
        <time>2022-09-18T10:48:10.000Z</time>
      </trkpt>
      <trkpt lat="49.77488" lon="4.83459">
        <ele>231</ele>
        <time>2022-09-18T10:48:11.000Z</time>
      </trkpt>
      <trkpt lat="49.77484" lon="4.83459">
        <ele>231</ele>
        <time>2022-09-18T10:48:12.000Z</time>
      </trkpt>
      <trkpt lat="49.77481" lon="4.83458">
        <ele>232</ele>
        <time>2022-09-18T10:48:13.000Z</time>
      </trkpt>
      <trkpt lat="49.77478" lon="4.83458">
        <ele>232</ele>
        <time>2022-09-18T10:48:14.000Z</time>
      </trkpt>
      <trkpt lat="49.77474" lon="4.83457">
        <ele>233</ele>
        <time>2022-09-18T10:48:15.000Z</time>
      </trkpt>
      <trkpt lat="49.77471" lon="4.83457">
        <ele>233</ele>
        <time>2022-09-18T10:48:16.000Z</time>
      </trkpt>
      <trkpt lat="49.77468" lon="4.83458">
        <ele>233</ele>
        <time>2022-09-18T10:48:17.000Z</time>
      </trkpt>
      <trkpt lat="49.77464" lon="4.83458">
        <ele>234</ele>
        <time>2022-09-18T10:48:18.000Z</time>
      </trkpt>
      <trkpt lat="49.77461" lon="4.83458">
        <ele>234</ele>
        <time>2022-09-18T10:48:19.000Z</time>
      </trkpt>
      <trkpt lat="49.77457" lon="4.83458">
        <ele>234</ele>
        <time>2022-09-18T10:48:20.000Z</time>
      </trkpt>
      <trkpt lat="49.77454" lon="4.83458">
        <ele>235</ele>
        <time>2022-09-18T10:48:21.000Z</time>
      </trkpt>
      <trkpt lat="49.77451" lon="4.83458">
        <ele>235</ele>
        <time>2022-09-18T10:48:22.000Z</time>
      </trkpt>
      <trkpt lat="49.77448" lon="4.83458">
        <ele>235</ele>
        <time>2022-09-18T10:48:23.000Z</time>
      </trkpt>
      <trkpt lat="49.77444" lon="4.83459">
        <ele>236</ele>
        <time>2022-09-18T10:48:24.000Z</time>
      </trkpt>
      <trkpt lat="49.77441" lon="4.83459">
        <ele>236</ele>
        <time>2022-09-18T10:48:25.000Z</time>
      </trkpt>
      <trkpt lat="49.77437" lon="4.8346">
        <ele>237</ele>
        <time>2022-09-18T10:48:26.000Z</time>
      </trkpt>
      <trkpt lat="49.77434" lon="4.8346">
        <ele>237</ele>
        <time>2022-09-18T10:48:27.000Z</time>
      </trkpt>
      <trkpt lat="49.77431" lon="4.83461">
        <ele>237</ele>
        <time>2022-09-18T10:48:28.000Z</time>
      </trkpt>
      <trkpt lat="49.77427" lon="4.8346">
        <ele>238</ele>
        <time>2022-09-18T10:48:29.000Z</time>
      </trkpt>
      <trkpt lat="49.77424" lon="4.83459">
        <ele>238</ele>
        <time>2022-09-18T10:48:30.000Z</time>
      </trkpt>
      <trkpt lat="49.77421" lon="4.83458">
        <ele>238</ele>
        <time>2022-09-18T10:48:31.000Z</time>
      </trkpt>
      <trkpt lat="49.77418" lon="4.83458">
        <ele>238</ele>
        <time>2022-09-18T10:48:32.000Z</time>
      </trkpt>
      <trkpt lat="49.77415" lon="4.83459">
        <ele>239</ele>
        <time>2022-09-18T10:48:33.000Z</time>
      </trkpt>
      <trkpt lat="49.77413" lon="4.8346">
        <ele>239</ele>
        <time>2022-09-18T10:48:34.000Z</time>
      </trkpt>
      <trkpt lat="49.77411" lon="4.83461">
        <ele>239</ele>
        <time>2022-09-18T10:48:35.000Z</time>
      </trkpt>
      <trkpt lat="49.77409" lon="4.83463">
        <ele>240</ele>
        <time>2022-09-18T10:48:36.000Z</time>
      </trkpt>
      <trkpt lat="49.77408" lon="4.83464">
        <ele>240</ele>
        <time>2022-09-18T10:48:37.000Z</time>
      </trkpt>
      <trkpt lat="49.77406" lon="4.83466">
        <ele>241</ele>
        <time>2022-09-18T10:48:38.000Z</time>
      </trkpt>
      <trkpt lat="49.77404" lon="4.83468">
        <ele>241</ele>
        <time>2022-09-18T10:48:39.000Z</time>
      </trkpt>
      <trkpt lat="49.77402" lon="4.8347">
        <ele>241</ele>
        <time>2022-09-18T10:48:40.000Z</time>
      </trkpt>
      <trkpt lat="49.774" lon="4.83471">
        <ele>242</ele>
        <time>2022-09-18T10:48:41.000Z</time>
      </trkpt>
      <trkpt lat="49.77398" lon="4.83472">
        <ele>242</ele>
        <time>2022-09-18T10:48:42.000Z</time>
      </trkpt>
      <trkpt lat="49.77396" lon="4.83473">
        <ele>242</ele>
        <time>2022-09-18T10:48:43.000Z</time>
      </trkpt>
      <trkpt lat="49.77395" lon="4.83473">
        <ele>242</ele>
        <time>2022-09-18T10:48:44.000Z</time>
      </trkpt>
      <trkpt lat="49.77394" lon="4.83474">
        <ele>243</ele>
        <time>2022-09-18T10:48:45.000Z</time>
      </trkpt>
      <trkpt lat="49.77392" lon="4.83474">
        <ele>243</ele>
        <time>2022-09-18T10:48:46.000Z</time>
      </trkpt>
      <trkpt lat="49.7739" lon="4.83474">
        <ele>243</ele>
        <time>2022-09-18T10:48:47.000Z</time>
      </trkpt>
      <trkpt lat="49.77388" lon="4.83475">
        <ele>244</ele>
        <time>2022-09-18T10:48:48.000Z</time>
      </trkpt>
      <trkpt lat="49.77387" lon="4.83475">
        <ele>244</ele>
        <time>2022-09-18T10:48:49.000Z</time>
      </trkpt>
      <trkpt lat="49.77385" lon="4.83475">
        <ele>244</ele>
        <time>2022-09-18T10:48:50.000Z</time>
      </trkpt>
      <trkpt lat="49.77383" lon="4.83474">
        <ele>245</ele>
        <time>2022-09-18T10:48:51.000Z</time>
      </trkpt>
      <trkpt lat="49.77382" lon="4.83475">
        <ele>245</ele>
        <time>2022-09-18T10:48:52.000Z</time>
      </trkpt>
      <trkpt lat="49.7738" lon="4.83476">
        <ele>246</ele>
        <time>2022-09-18T10:48:53.000Z</time>
      </trkpt>
      <trkpt lat="49.77378" lon="4.83476">
        <ele>246</ele>
        <time>2022-09-18T10:48:54.000Z</time>
      </trkpt>
      <trkpt lat="49.77376" lon="4.83477">
        <ele>246</ele>
        <time>2022-09-18T10:48:55.000Z</time>
      </trkpt>
      <trkpt lat="49.77374" lon="4.83477">
        <ele>246</ele>
        <time>2022-09-18T10:48:56.000Z</time>
      </trkpt>
      <trkpt lat="49.77372" lon="4.83477">
        <ele>247</ele>
        <time>2022-09-18T10:48:57.000Z</time>
      </trkpt>
      <trkpt lat="49.7737" lon="4.83477">
        <ele>247</ele>
        <time>2022-09-18T10:48:58.000Z</time>
      </trkpt>
      <trkpt lat="49.77368" lon="4.83477">
        <ele>247</ele>
        <time>2022-09-18T10:48:59.000Z</time>
      </trkpt>
      <trkpt lat="49.77366" lon="4.83478">
        <ele>247</ele>
        <time>2022-09-18T10:49:00.000Z</time>
      </trkpt>
      <trkpt lat="49.77364" lon="4.83478">
        <ele>247</ele>
        <time>2022-09-18T10:49:01.000Z</time>
      </trkpt>
      <trkpt lat="49.77362" lon="4.83478">
        <ele>248</ele>
        <time>2022-09-18T10:49:02.000Z</time>
      </trkpt>
      <trkpt lat="49.77359" lon="4.83478">
        <ele>248</ele>
        <time>2022-09-18T10:49:03.000Z</time>
      </trkpt>
      <trkpt lat="49.77357" lon="4.83478">
        <ele>248</ele>
        <time>2022-09-18T10:49:04.000Z</time>
      </trkpt>
      <trkpt lat="49.77355" lon="4.83478">
        <ele>248</ele>
        <time>2022-09-18T10:49:05.000Z</time>
      </trkpt>
      <trkpt lat="49.77353" lon="4.83477">
        <ele>248</ele>
        <time>2022-09-18T10:49:06.000Z</time>
      </trkpt>
      <trkpt lat="49.77351" lon="4.83476">
        <ele>248</ele>
        <time>2022-09-18T10:49:07.000Z</time>
      </trkpt>
      <trkpt lat="49.77349" lon="4.83475">
        <ele>249</ele>
        <time>2022-09-18T10:49:08.000Z</time>
      </trkpt>
      <trkpt lat="49.77346" lon="4.83474">
        <ele>249</ele>
        <time>2022-09-18T10:49:09.000Z</time>
      </trkpt>
      <trkpt lat="49.77344" lon="4.83472">
        <ele>249</ele>
        <time>2022-09-18T10:49:10.000Z</time>
      </trkpt>
      <trkpt lat="49.77342" lon="4.83471">
        <ele>250</ele>
        <time>2022-09-18T10:49:11.000Z</time>
      </trkpt>
      <trkpt lat="49.7734" lon="4.83469">
        <ele>250</ele>
        <time>2022-09-18T10:49:12.000Z</time>
      </trkpt>
      <trkpt lat="49.77338" lon="4.83468">
        <ele>250</ele>
        <time>2022-09-18T10:49:13.000Z</time>
      </trkpt>
      <trkpt lat="49.77336" lon="4.83466">
        <ele>250</ele>
        <time>2022-09-18T10:49:14.000Z</time>
      </trkpt>
      <trkpt lat="49.77334" lon="4.83463">
        <ele>251</ele>
        <time>2022-09-18T10:49:15.000Z</time>
      </trkpt>
      <trkpt lat="49.77332" lon="4.83461">
        <ele>251</ele>
        <time>2022-09-18T10:49:16.000Z</time>
      </trkpt>
      <trkpt lat="49.77329" lon="4.83459">
        <ele>251</ele>
        <time>2022-09-18T10:49:17.000Z</time>
      </trkpt>
      <trkpt lat="49.77326" lon="4.83457">
        <ele>251</ele>
        <time>2022-09-18T10:49:18.000Z</time>
      </trkpt>
      <trkpt lat="49.77324" lon="4.83454">
        <ele>252</ele>
        <time>2022-09-18T10:49:19.000Z</time>
      </trkpt>
      <trkpt lat="49.77321" lon="4.83451">
        <ele>252</ele>
        <time>2022-09-18T10:49:20.000Z</time>
      </trkpt>
      <trkpt lat="49.77319" lon="4.83449">
        <ele>252</ele>
        <time>2022-09-18T10:49:21.000Z</time>
      </trkpt>
      <trkpt lat="49.77317" lon="4.83446">
        <ele>252</ele>
        <time>2022-09-18T10:49:22.000Z</time>
      </trkpt>
      <trkpt lat="49.77315" lon="4.83444">
        <ele>252</ele>
        <time>2022-09-18T10:49:23.000Z</time>
      </trkpt>
      <trkpt lat="49.77313" lon="4.83442">
        <ele>253</ele>
        <time>2022-09-18T10:49:24.000Z</time>
      </trkpt>
      <trkpt lat="49.77311" lon="4.8344">
        <ele>253</ele>
        <time>2022-09-18T10:49:25.000Z</time>
      </trkpt>
      <trkpt lat="49.77309" lon="4.83439">
        <ele>253</ele>
        <time>2022-09-18T10:49:26.000Z</time>
      </trkpt>
      <trkpt lat="49.77307" lon="4.83437">
        <ele>253</ele>
        <time>2022-09-18T10:49:27.000Z</time>
      </trkpt>
      <trkpt lat="49.77305" lon="4.83436">
        <ele>253</ele>
        <time>2022-09-18T10:49:28.000Z</time>
      </trkpt>
      <trkpt lat="49.77303" lon="4.83434">
        <ele>253</ele>
        <time>2022-09-18T10:49:29.000Z</time>
      </trkpt>
      <trkpt lat="49.77302" lon="4.83431">
        <ele>253</ele>
        <time>2022-09-18T10:49:30.000Z</time>
      </trkpt>
      <trkpt lat="49.773" lon="4.83429">
        <ele>254</ele>
        <time>2022-09-18T10:49:31.000Z</time>
      </trkpt>
      <trkpt lat="49.77297" lon="4.83427">
        <ele>254</ele>
        <time>2022-09-18T10:49:32.000Z</time>
      </trkpt>
      <trkpt lat="49.77295" lon="4.83424">
        <ele>254</ele>
        <time>2022-09-18T10:49:33.000Z</time>
      </trkpt>
      <trkpt lat="49.77293" lon="4.83421">
        <ele>254</ele>
        <time>2022-09-18T10:49:34.000Z</time>
      </trkpt>
      <trkpt lat="49.77291" lon="4.83419">
        <ele>254</ele>
        <time>2022-09-18T10:49:35.000Z</time>
      </trkpt>
      <trkpt lat="49.77289" lon="4.83417">
        <ele>254</ele>
        <time>2022-09-18T10:49:36.000Z</time>
      </trkpt>
      <trkpt lat="49.77287" lon="4.83415">
        <ele>254</ele>
        <time>2022-09-18T10:49:37.000Z</time>
      </trkpt>
      <trkpt lat="49.77285" lon="4.83412">
        <ele>254</ele>
        <time>2022-09-18T10:49:38.000Z</time>
      </trkpt>
      <trkpt lat="49.77283" lon="4.8341">
        <ele>254</ele>
        <time>2022-09-18T10:49:39.000Z</time>
      </trkpt>
      <trkpt lat="49.7728" lon="4.83409">
        <ele>254</ele>
        <time>2022-09-18T10:49:40.000Z</time>
      </trkpt>
      <trkpt lat="49.77278" lon="4.83407">
        <ele>255</ele>
        <time>2022-09-18T10:49:41.000Z</time>
      </trkpt>
      <trkpt lat="49.77276" lon="4.83405">
        <ele>255</ele>
        <time>2022-09-18T10:49:42.000Z</time>
      </trkpt>
      <trkpt lat="49.77273" lon="4.83403">
        <ele>255</ele>
        <time>2022-09-18T10:49:43.000Z</time>
      </trkpt>
      <trkpt lat="49.77271" lon="4.83401">
        <ele>255</ele>
        <time>2022-09-18T10:49:44.000Z</time>
      </trkpt>
      <trkpt lat="49.77269" lon="4.834">
        <ele>255</ele>
        <time>2022-09-18T10:49:45.000Z</time>
      </trkpt>
      <trkpt lat="49.77267" lon="4.83398">
        <ele>255</ele>
        <time>2022-09-18T10:49:46.000Z</time>
      </trkpt>
      <trkpt lat="49.77265" lon="4.83397">
        <ele>255</ele>
        <time>2022-09-18T10:49:47.000Z</time>
      </trkpt>
      <trkpt lat="49.77263" lon="4.83396">
        <ele>256</ele>
        <time>2022-09-18T10:49:48.000Z</time>
      </trkpt>
      <trkpt lat="49.77261" lon="4.83394">
        <ele>256</ele>
        <time>2022-09-18T10:49:49.000Z</time>
      </trkpt>
      <trkpt lat="49.7726" lon="4.83393">
        <ele>256</ele>
        <time>2022-09-18T10:49:50.000Z</time>
      </trkpt>
      <trkpt lat="49.77258" lon="4.83392">
        <ele>256</ele>
        <time>2022-09-18T10:49:51.000Z</time>
      </trkpt>
      <trkpt lat="49.77256" lon="4.8339">
        <ele>256</ele>
        <time>2022-09-18T10:49:52.000Z</time>
      </trkpt>
      <trkpt lat="49.77255" lon="4.83389">
        <ele>256</ele>
        <time>2022-09-18T10:49:53.000Z</time>
      </trkpt>
      <trkpt lat="49.77253" lon="4.83388">
        <ele>256</ele>
        <time>2022-09-18T10:49:54.000Z</time>
      </trkpt>
      <trkpt lat="49.77251" lon="4.83387">
        <ele>256</ele>
        <time>2022-09-18T10:49:55.000Z</time>
      </trkpt>
      <trkpt lat="49.77249" lon="4.83387">
        <ele>257</ele>
        <time>2022-09-18T10:49:56.000Z</time>
      </trkpt>
      <trkpt lat="49.77247" lon="4.83386">
        <ele>257</ele>
        <time>2022-09-18T10:49:57.000Z</time>
      </trkpt>
      <trkpt lat="49.77246" lon="4.83385">
        <ele>257</ele>
        <time>2022-09-18T10:49:58.000Z</time>
      </trkpt>
      <trkpt lat="49.77245" lon="4.83385">
        <ele>257</ele>
        <time>2022-09-18T10:49:59.000Z</time>
      </trkpt>
      <trkpt lat="49.77243" lon="4.83384">
        <ele>257</ele>
        <time>2022-09-18T10:50:00.000Z</time>
      </trkpt>
      <trkpt lat="49.77241" lon="4.83383">
        <ele>257</ele>
        <time>2022-09-18T10:50:01.000Z</time>
      </trkpt>
      <trkpt lat="49.7724" lon="4.83382">
        <ele>257</ele>
        <time>2022-09-18T10:50:02.000Z</time>
      </trkpt>
      <trkpt lat="49.77239" lon="4.83381">
        <ele>258</ele>
        <time>2022-09-18T10:50:03.000Z</time>
      </trkpt>
      <trkpt lat="49.77238" lon="4.8338">
        <ele>258</ele>
        <time>2022-09-18T10:50:04.000Z</time>
      </trkpt>
      <trkpt lat="49.77236" lon="4.83378">
        <ele>258</ele>
        <time>2022-09-18T10:50:05.000Z</time>
      </trkpt>
      <trkpt lat="49.77235" lon="4.83377">
        <ele>258</ele>
        <time>2022-09-18T10:50:06.000Z</time>
      </trkpt>
      <trkpt lat="49.77233" lon="4.83376">
        <ele>258</ele>
        <time>2022-09-18T10:50:07.000Z</time>
      </trkpt>
      <trkpt lat="49.77231" lon="4.83375">
        <ele>258</ele>
        <time>2022-09-18T10:50:08.000Z</time>
      </trkpt>
      <trkpt lat="49.77229" lon="4.83375">
        <ele>259</ele>
        <time>2022-09-18T10:50:09.000Z</time>
      </trkpt>
      <trkpt lat="49.77227" lon="4.83374">
        <ele>259</ele>
        <time>2022-09-18T10:50:10.000Z</time>
      </trkpt>
      <trkpt lat="49.77225" lon="4.83374">
        <ele>259</ele>
        <time>2022-09-18T10:50:11.000Z</time>
      </trkpt>
      <trkpt lat="49.77223" lon="4.83373">
        <ele>259</ele>
        <time>2022-09-18T10:50:12.000Z</time>
      </trkpt>
      <trkpt lat="49.77221" lon="4.83373">
        <ele>259</ele>
        <time>2022-09-18T10:50:13.000Z</time>
      </trkpt>
      <trkpt lat="49.77219" lon="4.83372">
        <ele>260</ele>
        <time>2022-09-18T10:50:14.000Z</time>
      </trkpt>
      <trkpt lat="49.77217" lon="4.83371">
        <ele>260</ele>
        <time>2022-09-18T10:50:15.000Z</time>
      </trkpt>
      <trkpt lat="49.77215" lon="4.83371">
        <ele>260</ele>
        <time>2022-09-18T10:50:16.000Z</time>
      </trkpt>
      <trkpt lat="49.77212" lon="4.83371">
        <ele>260</ele>
        <time>2022-09-18T10:50:17.000Z</time>
      </trkpt>
      <trkpt lat="49.7721" lon="4.83371">
        <ele>260</ele>
        <time>2022-09-18T10:50:18.000Z</time>
      </trkpt>
      <trkpt lat="49.77208" lon="4.83371">
        <ele>260</ele>
        <time>2022-09-18T10:50:19.000Z</time>
      </trkpt>
      <trkpt lat="49.77206" lon="4.8337">
        <ele>260</ele>
        <time>2022-09-18T10:50:20.000Z</time>
      </trkpt>
      <trkpt lat="49.77204" lon="4.8337">
        <ele>260</ele>
        <time>2022-09-18T10:50:21.000Z</time>
      </trkpt>
      <trkpt lat="49.77202" lon="4.8337">
        <ele>260</ele>
        <time>2022-09-18T10:50:22.000Z</time>
      </trkpt>
      <trkpt lat="49.77199" lon="4.8337">
        <ele>261</ele>
        <time>2022-09-18T10:50:23.000Z</time>
      </trkpt>
      <trkpt lat="49.77196" lon="4.83369">
        <ele>261</ele>
        <time>2022-09-18T10:50:24.000Z</time>
      </trkpt>
      <trkpt lat="49.77194" lon="4.83369">
        <ele>261</ele>
        <time>2022-09-18T10:50:25.000Z</time>
      </trkpt>
      <trkpt lat="49.77192" lon="4.83368">
        <ele>261</ele>
        <time>2022-09-18T10:50:26.000Z</time>
      </trkpt>
      <trkpt lat="49.77191" lon="4.83368">
        <ele>261</ele>
        <time>2022-09-18T10:50:27.000Z</time>
      </trkpt>
      <trkpt lat="49.77189" lon="4.83368">
        <ele>261</ele>
        <time>2022-09-18T10:50:28.000Z</time>
      </trkpt>
      <trkpt lat="49.77188" lon="4.83368">
        <ele>261</ele>
        <time>2022-09-18T10:50:29.000Z</time>
      </trkpt>
      <trkpt lat="49.77186" lon="4.83368">
        <ele>262</ele>
        <time>2022-09-18T10:50:30.000Z</time>
      </trkpt>
      <trkpt lat="49.77184" lon="4.83369">
        <ele>262</ele>
        <time>2022-09-18T10:50:31.000Z</time>
      </trkpt>
      <trkpt lat="49.77182" lon="4.8337">
        <ele>262</ele>
        <time>2022-09-18T10:50:32.000Z</time>
      </trkpt>
      <trkpt lat="49.77179" lon="4.8337">
        <ele>262</ele>
        <time>2022-09-18T10:50:33.000Z</time>
      </trkpt>
      <trkpt lat="49.77177" lon="4.83371">
        <ele>262</ele>
        <time>2022-09-18T10:50:34.000Z</time>
      </trkpt>
      <trkpt lat="49.77176" lon="4.83372">
        <ele>263</ele>
        <time>2022-09-18T10:50:35.000Z</time>
      </trkpt>
      <trkpt lat="49.77174" lon="4.83372">
        <ele>263</ele>
        <time>2022-09-18T10:50:36.000Z</time>
      </trkpt>
      <trkpt lat="49.77171" lon="4.83373">
        <ele>263</ele>
        <time>2022-09-18T10:50:37.000Z</time>
      </trkpt>
      <trkpt lat="49.77169" lon="4.83374">
        <ele>263</ele>
        <time>2022-09-18T10:50:38.000Z</time>
      </trkpt>
      <trkpt lat="49.77168" lon="4.83375">
        <ele>263</ele>
        <time>2022-09-18T10:50:39.000Z</time>
      </trkpt>
      <trkpt lat="49.77166" lon="4.83375">
        <ele>263</ele>
        <time>2022-09-18T10:50:40.000Z</time>
      </trkpt>
      <trkpt lat="49.77165" lon="4.83376">
        <ele>264</ele>
        <time>2022-09-18T10:50:41.000Z</time>
      </trkpt>
      <trkpt lat="49.77163" lon="4.83376">
        <ele>264</ele>
        <time>2022-09-18T10:50:42.000Z</time>
      </trkpt>
      <trkpt lat="49.77161" lon="4.83376">
        <ele>264</ele>
        <time>2022-09-18T10:50:43.000Z</time>
      </trkpt>
      <trkpt lat="49.77159" lon="4.83377">
        <ele>264</ele>
        <time>2022-09-18T10:50:44.000Z</time>
      </trkpt>
      <trkpt lat="49.77157" lon="4.83379">
        <ele>265</ele>
        <time>2022-09-18T10:50:45.000Z</time>
      </trkpt>
      <trkpt lat="49.77155" lon="4.8338">
        <ele>265</ele>
        <time>2022-09-18T10:50:46.000Z</time>
      </trkpt>
      <trkpt lat="49.77153" lon="4.83381">
        <ele>265</ele>
        <time>2022-09-18T10:50:47.000Z</time>
      </trkpt>
      <trkpt lat="49.77151" lon="4.83382">
        <ele>266</ele>
        <time>2022-09-18T10:50:48.000Z</time>
      </trkpt>
      <trkpt lat="49.77149" lon="4.83383">
        <ele>266</ele>
        <time>2022-09-18T10:50:49.000Z</time>
      </trkpt>
      <trkpt lat="49.77147" lon="4.83384">
        <ele>266</ele>
        <time>2022-09-18T10:50:50.000Z</time>
      </trkpt>
      <trkpt lat="49.77146" lon="4.83385">
        <ele>266</ele>
        <time>2022-09-18T10:50:51.000Z</time>
      </trkpt>
      <trkpt lat="49.77144" lon="4.83386">
        <ele>266</ele>
        <time>2022-09-18T10:50:52.000Z</time>
      </trkpt>
      <trkpt lat="49.77142" lon="4.83387">
        <ele>267</ele>
        <time>2022-09-18T10:50:53.000Z</time>
      </trkpt>
      <trkpt lat="49.7714" lon="4.83388">
        <ele>267</ele>
        <time>2022-09-18T10:50:54.000Z</time>
      </trkpt>
      <trkpt lat="49.77139" lon="4.83389">
        <ele>267</ele>
        <time>2022-09-18T10:50:55.000Z</time>
      </trkpt>
      <trkpt lat="49.77137" lon="4.83389">
        <ele>267</ele>
        <time>2022-09-18T10:50:56.000Z</time>
      </trkpt>
      <trkpt lat="49.77134" lon="4.8339">
        <ele>267</ele>
        <time>2022-09-18T10:50:57.000Z</time>
      </trkpt>
      <trkpt lat="49.77132" lon="4.83391">
        <ele>267</ele>
        <time>2022-09-18T10:50:58.000Z</time>
      </trkpt>
      <trkpt lat="49.77129" lon="4.83393">
        <ele>268</ele>
        <time>2022-09-18T10:50:59.000Z</time>
      </trkpt>
      <trkpt lat="49.77127" lon="4.83394">
        <ele>268</ele>
        <time>2022-09-18T10:51:00.000Z</time>
      </trkpt>
      <trkpt lat="49.77125" lon="4.83395">
        <ele>268</ele>
        <time>2022-09-18T10:51:01.000Z</time>
      </trkpt>
      <trkpt lat="49.77122" lon="4.83396">
        <ele>268</ele>
        <time>2022-09-18T10:51:02.000Z</time>
      </trkpt>
      <trkpt lat="49.7712" lon="4.83397">
        <ele>268</ele>
        <time>2022-09-18T10:51:03.000Z</time>
      </trkpt>
      <trkpt lat="49.77117" lon="4.83399">
        <ele>268</ele>
        <time>2022-09-18T10:51:04.000Z</time>
      </trkpt>
      <trkpt lat="49.77115" lon="4.83401">
        <ele>268</ele>
        <time>2022-09-18T10:51:05.000Z</time>
      </trkpt>
      <trkpt lat="49.77112" lon="4.83402">
        <ele>268</ele>
        <time>2022-09-18T10:51:06.000Z</time>
      </trkpt>
      <trkpt lat="49.77109" lon="4.83402">
        <ele>268</ele>
        <time>2022-09-18T10:51:07.000Z</time>
      </trkpt>
      <trkpt lat="49.77106" lon="4.83402">
        <ele>268</ele>
        <time>2022-09-18T10:51:08.000Z</time>
      </trkpt>
      <trkpt lat="49.77103" lon="4.83402">
        <ele>268</ele>
        <time>2022-09-18T10:51:09.000Z</time>
      </trkpt>
      <trkpt lat="49.77101" lon="4.83401">
        <ele>268</ele>
        <time>2022-09-18T10:51:10.000Z</time>
      </trkpt>
      <trkpt lat="49.77098" lon="4.83399">
        <ele>268</ele>
        <time>2022-09-18T10:51:11.000Z</time>
      </trkpt>
      <trkpt lat="49.77095" lon="4.83398">
        <ele>268</ele>
        <time>2022-09-18T10:51:12.000Z</time>
      </trkpt>
      <trkpt lat="49.77093" lon="4.83397">
        <ele>268</ele>
        <time>2022-09-18T10:51:13.000Z</time>
      </trkpt>
      <trkpt lat="49.7709" lon="4.83396">
        <ele>268</ele>
        <time>2022-09-18T10:51:14.000Z</time>
      </trkpt>
      <trkpt lat="49.77088" lon="4.83395">
        <ele>268</ele>
        <time>2022-09-18T10:51:15.000Z</time>
      </trkpt>
      <trkpt lat="49.77085" lon="4.83396">
        <ele>268</ele>
        <time>2022-09-18T10:51:16.000Z</time>
      </trkpt>
      <trkpt lat="49.77083" lon="4.83396">
        <ele>268</ele>
        <time>2022-09-18T10:51:17.000Z</time>
      </trkpt>
      <trkpt lat="49.7708" lon="4.83396">
        <ele>268</ele>
        <time>2022-09-18T10:51:18.000Z</time>
      </trkpt>
      <trkpt lat="49.77077" lon="4.83395">
        <ele>268</ele>
        <time>2022-09-18T10:51:19.000Z</time>
      </trkpt>
      <trkpt lat="49.77074" lon="4.83394">
        <ele>268</ele>
        <time>2022-09-18T10:51:20.000Z</time>
      </trkpt>
      <trkpt lat="49.77071" lon="4.83392">
        <ele>268</ele>
        <time>2022-09-18T10:51:21.000Z</time>
      </trkpt>
      <trkpt lat="49.77068" lon="4.83391">
        <ele>268</ele>
        <time>2022-09-18T10:51:22.000Z</time>
      </trkpt>
      <trkpt lat="49.77065" lon="4.83389">
        <ele>268</ele>
        <time>2022-09-18T10:51:23.000Z</time>
      </trkpt>
      <trkpt lat="49.77062" lon="4.83388">
        <ele>268</ele>
        <time>2022-09-18T10:51:24.000Z</time>
      </trkpt>
      <trkpt lat="49.77059" lon="4.83387">
        <ele>268</ele>
        <time>2022-09-18T10:51:25.000Z</time>
      </trkpt>
      <trkpt lat="49.77056" lon="4.83385">
        <ele>268</ele>
        <time>2022-09-18T10:51:26.000Z</time>
      </trkpt>
      <trkpt lat="49.77054" lon="4.83384">
        <ele>268</ele>
        <time>2022-09-18T10:51:27.000Z</time>
      </trkpt>
      <trkpt lat="49.77051" lon="4.83383">
        <ele>267</ele>
        <time>2022-09-18T10:51:28.000Z</time>
      </trkpt>
      <trkpt lat="49.77048" lon="4.83381">
        <ele>267</ele>
        <time>2022-09-18T10:51:29.000Z</time>
      </trkpt>
      <trkpt lat="49.77045" lon="4.8338">
        <ele>267</ele>
        <time>2022-09-18T10:51:30.000Z</time>
      </trkpt>
      <trkpt lat="49.77042" lon="4.83379">
        <ele>267</ele>
        <time>2022-09-18T10:51:31.000Z</time>
      </trkpt>
      <trkpt lat="49.77039" lon="4.83377">
        <ele>267</ele>
        <time>2022-09-18T10:51:32.000Z</time>
      </trkpt>
      <trkpt lat="49.77036" lon="4.83376">
        <ele>267</ele>
        <time>2022-09-18T10:51:33.000Z</time>
      </trkpt>
      <trkpt lat="49.77033" lon="4.83375">
        <ele>267</ele>
        <time>2022-09-18T10:51:34.000Z</time>
      </trkpt>
      <trkpt lat="49.7703" lon="4.83373">
        <ele>267</ele>
        <time>2022-09-18T10:51:35.000Z</time>
      </trkpt>
      <trkpt lat="49.77028" lon="4.83371">
        <ele>267</ele>
        <time>2022-09-18T10:51:36.000Z</time>
      </trkpt>
      <trkpt lat="49.77025" lon="4.8337">
        <ele>267</ele>
        <time>2022-09-18T10:51:37.000Z</time>
      </trkpt>
      <trkpt lat="49.77022" lon="4.83369">
        <ele>267</ele>
        <time>2022-09-18T10:51:38.000Z</time>
      </trkpt>
      <trkpt lat="49.77019" lon="4.83367">
        <ele>267</ele>
        <time>2022-09-18T10:51:39.000Z</time>
      </trkpt>
      <trkpt lat="49.77017" lon="4.83366">
        <ele>267</ele>
        <time>2022-09-18T10:51:40.000Z</time>
      </trkpt>
      <trkpt lat="49.77014" lon="4.83364">
        <ele>267</ele>
        <time>2022-09-18T10:51:41.000Z</time>
      </trkpt>
      <trkpt lat="49.77012" lon="4.83363">
        <ele>267</ele>
        <time>2022-09-18T10:51:42.000Z</time>
      </trkpt>
      <trkpt lat="49.77009" lon="4.83361">
        <ele>266</ele>
        <time>2022-09-18T10:51:43.000Z</time>
      </trkpt>
      <trkpt lat="49.77006" lon="4.83359">
        <ele>266</ele>
        <time>2022-09-18T10:51:44.000Z</time>
      </trkpt>
      <trkpt lat="49.77003" lon="4.83358">
        <ele>266</ele>
        <time>2022-09-18T10:51:45.000Z</time>
      </trkpt>
      <trkpt lat="49.77001" lon="4.83356">
        <ele>266</ele>
        <time>2022-09-18T10:51:46.000Z</time>
      </trkpt>
      <trkpt lat="49.76998" lon="4.83354">
        <ele>266</ele>
        <time>2022-09-18T10:51:47.000Z</time>
      </trkpt>
      <trkpt lat="49.76995" lon="4.83351">
        <ele>266</ele>
        <time>2022-09-18T10:51:48.000Z</time>
      </trkpt>
      <trkpt lat="49.76993" lon="4.83348">
        <ele>266</ele>
        <time>2022-09-18T10:51:49.000Z</time>
      </trkpt>
      <trkpt lat="49.76991" lon="4.83345">
        <ele>266</ele>
        <time>2022-09-18T10:51:50.000Z</time>
      </trkpt>
      <trkpt lat="49.76989" lon="4.83342">
        <ele>267</ele>
        <time>2022-09-18T10:51:51.000Z</time>
      </trkpt>
      <trkpt lat="49.76987" lon="4.83339">
        <ele>267</ele>
        <time>2022-09-18T10:51:52.000Z</time>
      </trkpt>
      <trkpt lat="49.76985" lon="4.83336">
        <ele>267</ele>
        <time>2022-09-18T10:51:53.000Z</time>
      </trkpt>
      <trkpt lat="49.76983" lon="4.83334">
        <ele>267</ele>
        <time>2022-09-18T10:51:54.000Z</time>
      </trkpt>
      <trkpt lat="49.76981" lon="4.8333">
        <ele>267</ele>
        <time>2022-09-18T10:51:55.000Z</time>
      </trkpt>
      <trkpt lat="49.76979" lon="4.83327">
        <ele>267</ele>
        <time>2022-09-18T10:51:56.000Z</time>
      </trkpt>
      <trkpt lat="49.76977" lon="4.83324">
        <ele>267</ele>
        <time>2022-09-18T10:51:57.000Z</time>
      </trkpt>
      <trkpt lat="49.76976" lon="4.8332">
        <ele>267</ele>
        <time>2022-09-18T10:51:58.000Z</time>
      </trkpt>
      <trkpt lat="49.76974" lon="4.83317">
        <ele>267</ele>
        <time>2022-09-18T10:51:59.000Z</time>
      </trkpt>
      <trkpt lat="49.76973" lon="4.83313">
        <ele>267</ele>
        <time>2022-09-18T10:52:00.000Z</time>
      </trkpt>
      <trkpt lat="49.76972" lon="4.8331">
        <ele>267</ele>
        <time>2022-09-18T10:52:01.000Z</time>
      </trkpt>
      <trkpt lat="49.76971" lon="4.83306">
        <ele>267</ele>
        <time>2022-09-18T10:52:02.000Z</time>
      </trkpt>
      <trkpt lat="49.76969" lon="4.83303">
        <ele>267</ele>
        <time>2022-09-18T10:52:03.000Z</time>
      </trkpt>
      <trkpt lat="49.76968" lon="4.833">
        <ele>267</ele>
        <time>2022-09-18T10:52:04.000Z</time>
      </trkpt>
      <trkpt lat="49.76967" lon="4.83297">
        <ele>267</ele>
        <time>2022-09-18T10:52:05.000Z</time>
      </trkpt>
      <trkpt lat="49.76965" lon="4.83293">
        <ele>267</ele>
        <time>2022-09-18T10:52:06.000Z</time>
      </trkpt>
      <trkpt lat="49.76963" lon="4.83289">
        <ele>267</ele>
        <time>2022-09-18T10:52:07.000Z</time>
      </trkpt>
      <trkpt lat="49.76962" lon="4.83286">
        <ele>267</ele>
        <time>2022-09-18T10:52:08.000Z</time>
      </trkpt>
      <trkpt lat="49.76961" lon="4.83283">
        <ele>267</ele>
        <time>2022-09-18T10:52:09.000Z</time>
      </trkpt>
      <trkpt lat="49.76959" lon="4.83279">
        <ele>267</ele>
        <time>2022-09-18T10:52:10.000Z</time>
      </trkpt>
      <trkpt lat="49.76958" lon="4.83276">
        <ele>267</ele>
        <time>2022-09-18T10:52:11.000Z</time>
      </trkpt>
      <trkpt lat="49.76956" lon="4.83272">
        <ele>267</ele>
        <time>2022-09-18T10:52:12.000Z</time>
      </trkpt>
      <trkpt lat="49.76955" lon="4.83269">
        <ele>267</ele>
        <time>2022-09-18T10:52:13.000Z</time>
      </trkpt>
      <trkpt lat="49.76953" lon="4.83265">
        <ele>267</ele>
        <time>2022-09-18T10:52:14.000Z</time>
      </trkpt>
      <trkpt lat="49.76952" lon="4.83262">
        <ele>267</ele>
        <time>2022-09-18T10:52:15.000Z</time>
      </trkpt>
      <trkpt lat="49.7695" lon="4.83259">
        <ele>267</ele>
        <time>2022-09-18T10:52:16.000Z</time>
      </trkpt>
      <trkpt lat="49.76949" lon="4.83255">
        <ele>267</ele>
        <time>2022-09-18T10:52:17.000Z</time>
      </trkpt>
      <trkpt lat="49.76947" lon="4.83251">
        <ele>267</ele>
        <time>2022-09-18T10:52:18.000Z</time>
      </trkpt>
      <trkpt lat="49.76945" lon="4.83247">
        <ele>267</ele>
        <time>2022-09-18T10:52:19.000Z</time>
      </trkpt>
      <trkpt lat="49.76943" lon="4.83243">
        <ele>267</ele>
        <time>2022-09-18T10:52:20.000Z</time>
      </trkpt>
      <trkpt lat="49.76941" lon="4.83239">
        <ele>267</ele>
        <time>2022-09-18T10:52:21.000Z</time>
      </trkpt>
      <trkpt lat="49.76939" lon="4.83235">
        <ele>267</ele>
        <time>2022-09-18T10:52:22.000Z</time>
      </trkpt>
      <trkpt lat="49.76937" lon="4.8323">
        <ele>267</ele>
        <time>2022-09-18T10:52:23.000Z</time>
      </trkpt>
      <trkpt lat="49.76935" lon="4.83226">
        <ele>267</ele>
        <time>2022-09-18T10:52:24.000Z</time>
      </trkpt>
      <trkpt lat="49.76932" lon="4.83221">
        <ele>267</ele>
        <time>2022-09-18T10:52:25.000Z</time>
      </trkpt>
      <trkpt lat="49.7693" lon="4.83216">
        <ele>267</ele>
        <time>2022-09-18T10:52:26.000Z</time>
      </trkpt>
      <trkpt lat="49.76929" lon="4.83211">
        <ele>267</ele>
        <time>2022-09-18T10:52:27.000Z</time>
      </trkpt>
      <trkpt lat="49.76928" lon="4.83207">
        <ele>267</ele>
        <time>2022-09-18T10:52:28.000Z</time>
      </trkpt>
      <trkpt lat="49.76928" lon="4.83202">
        <ele>267</ele>
        <time>2022-09-18T10:52:29.000Z</time>
      </trkpt>
      <trkpt lat="49.76928" lon="4.83197">
        <ele>267</ele>
        <time>2022-09-18T10:52:30.000Z</time>
      </trkpt>
      <trkpt lat="49.76929" lon="4.83192">
        <ele>267</ele>
        <time>2022-09-18T10:52:31.000Z</time>
      </trkpt>
      <trkpt lat="49.7693" lon="4.83188">
        <ele>267</ele>
        <time>2022-09-18T10:52:32.000Z</time>
      </trkpt>
      <trkpt lat="49.76932" lon="4.83184">
        <ele>267</ele>
        <time>2022-09-18T10:52:33.000Z</time>
      </trkpt>
      <trkpt lat="49.76934" lon="4.8318">
        <ele>267</ele>
        <time>2022-09-18T10:52:34.000Z</time>
      </trkpt>
      <trkpt lat="49.76936" lon="4.83177">
        <ele>267</ele>
        <time>2022-09-18T10:52:35.000Z</time>
      </trkpt>
      <trkpt lat="49.76937" lon="4.83173">
        <ele>267</ele>
        <time>2022-09-18T10:52:36.000Z</time>
      </trkpt>
      <trkpt lat="49.76938" lon="4.83168">
        <ele>267</ele>
        <time>2022-09-18T10:52:37.000Z</time>
      </trkpt>
      <trkpt lat="49.76939" lon="4.83163">
        <ele>268</ele>
        <time>2022-09-18T10:52:38.000Z</time>
      </trkpt>
      <trkpt lat="49.7694" lon="4.83159">
        <ele>268</ele>
        <time>2022-09-18T10:52:39.000Z</time>
      </trkpt>
      <trkpt lat="49.7694" lon="4.83154">
        <ele>268</ele>
        <time>2022-09-18T10:52:40.000Z</time>
      </trkpt>
      <trkpt lat="49.76939" lon="4.8315">
        <ele>268</ele>
        <time>2022-09-18T10:52:41.000Z</time>
      </trkpt>
      <trkpt lat="49.76938" lon="4.83145">
        <ele>268</ele>
        <time>2022-09-18T10:52:42.000Z</time>
      </trkpt>
      <trkpt lat="49.76937" lon="4.8314">
        <ele>268</ele>
        <time>2022-09-18T10:52:43.000Z</time>
      </trkpt>
      <trkpt lat="49.76935" lon="4.83136">
        <ele>268</ele>
        <time>2022-09-18T10:52:44.000Z</time>
      </trkpt>
      <trkpt lat="49.76933" lon="4.83131">
        <ele>268</ele>
        <time>2022-09-18T10:52:45.000Z</time>
      </trkpt>
      <trkpt lat="49.76931" lon="4.83127">
        <ele>268</ele>
        <time>2022-09-18T10:52:46.000Z</time>
      </trkpt>
      <trkpt lat="49.76929" lon="4.83122">
        <ele>268</ele>
        <time>2022-09-18T10:52:47.000Z</time>
      </trkpt>
      <trkpt lat="49.76927" lon="4.83117">
        <ele>268</ele>
        <time>2022-09-18T10:52:48.000Z</time>
      </trkpt>
      <trkpt lat="49.76925" lon="4.83112">
        <ele>268</ele>
        <time>2022-09-18T10:52:49.000Z</time>
      </trkpt>
      <trkpt lat="49.76923" lon="4.83107">
        <ele>268</ele>
        <time>2022-09-18T10:52:50.000Z</time>
      </trkpt>
      <trkpt lat="49.7692" lon="4.83101">
        <ele>268</ele>
        <time>2022-09-18T10:52:51.000Z</time>
      </trkpt>
      <trkpt lat="49.76918" lon="4.83096">
        <ele>267</ele>
        <time>2022-09-18T10:52:52.000Z</time>
      </trkpt>
      <trkpt lat="49.76915" lon="4.83091">
        <ele>267</ele>
        <time>2022-09-18T10:52:53.000Z</time>
      </trkpt>
      <trkpt lat="49.76913" lon="4.83085">
        <ele>267</ele>
        <time>2022-09-18T10:52:54.000Z</time>
      </trkpt>
      <trkpt lat="49.7691" lon="4.83079">
        <ele>267</ele>
        <time>2022-09-18T10:52:55.000Z</time>
      </trkpt>
      <trkpt lat="49.76908" lon="4.83073">
        <ele>267</ele>
        <time>2022-09-18T10:52:56.000Z</time>
      </trkpt>
      <trkpt lat="49.76905" lon="4.83067">
        <ele>267</ele>
        <time>2022-09-18T10:52:57.000Z</time>
      </trkpt>
      <trkpt lat="49.76902" lon="4.83061">
        <ele>267</ele>
        <time>2022-09-18T10:52:58.000Z</time>
      </trkpt>
      <trkpt lat="49.769" lon="4.83055">
        <ele>267</ele>
        <time>2022-09-18T10:52:59.000Z</time>
      </trkpt>
      <trkpt lat="49.76897" lon="4.8305">
        <ele>267</ele>
        <time>2022-09-18T10:53:00.000Z</time>
      </trkpt>
      <trkpt lat="49.76895" lon="4.83044">
        <ele>267</ele>
        <time>2022-09-18T10:53:01.000Z</time>
      </trkpt>
      <trkpt lat="49.76893" lon="4.83039">
        <ele>267</ele>
        <time>2022-09-18T10:53:02.000Z</time>
      </trkpt>
      <trkpt lat="49.76891" lon="4.83035">
        <ele>267</ele>
        <time>2022-09-18T10:53:03.000Z</time>
      </trkpt>
      <trkpt lat="49.76888" lon="4.83029">
        <ele>267</ele>
        <time>2022-09-18T10:53:04.000Z</time>
      </trkpt>
      <trkpt lat="49.76886" lon="4.83024">
        <ele>267</ele>
        <time>2022-09-18T10:53:05.000Z</time>
      </trkpt>
      <trkpt lat="49.76884" lon="4.83018">
        <ele>267</ele>
        <time>2022-09-18T10:53:06.000Z</time>
      </trkpt>
      <trkpt lat="49.76881" lon="4.83012">
        <ele>266</ele>
        <time>2022-09-18T10:53:07.000Z</time>
      </trkpt>
      <trkpt lat="49.76879" lon="4.83007">
        <ele>266</ele>
        <time>2022-09-18T10:53:08.000Z</time>
      </trkpt>
      <trkpt lat="49.76876" lon="4.83001">
        <ele>266</ele>
        <time>2022-09-18T10:53:09.000Z</time>
      </trkpt>
      <trkpt lat="49.76873" lon="4.82995">
        <ele>266</ele>
        <time>2022-09-18T10:53:10.000Z</time>
      </trkpt>
      <trkpt lat="49.76871" lon="4.82989">
        <ele>266</ele>
        <time>2022-09-18T10:53:11.000Z</time>
      </trkpt>
      <trkpt lat="49.76868" lon="4.82983">
        <ele>266</ele>
        <time>2022-09-18T10:53:12.000Z</time>
      </trkpt>
      <trkpt lat="49.76866" lon="4.82977">
        <ele>266</ele>
        <time>2022-09-18T10:53:13.000Z</time>
      </trkpt>
      <trkpt lat="49.76863" lon="4.82971">
        <ele>265</ele>
        <time>2022-09-18T10:53:14.000Z</time>
      </trkpt>
      <trkpt lat="49.76861" lon="4.82965">
        <ele>265</ele>
        <time>2022-09-18T10:53:15.000Z</time>
      </trkpt>
      <trkpt lat="49.76859" lon="4.8296">
        <ele>265</ele>
        <time>2022-09-18T10:53:16.000Z</time>
      </trkpt>
      <trkpt lat="49.76857" lon="4.82955">
        <ele>265</ele>
        <time>2022-09-18T10:53:17.000Z</time>
      </trkpt>
      <trkpt lat="49.76854" lon="4.82949">
        <ele>265</ele>
        <time>2022-09-18T10:53:18.000Z</time>
      </trkpt>
      <trkpt lat="49.76852" lon="4.82943">
        <ele>265</ele>
        <time>2022-09-18T10:53:19.000Z</time>
      </trkpt>
      <trkpt lat="49.76849" lon="4.82937">
        <ele>265</ele>
        <time>2022-09-18T10:53:20.000Z</time>
      </trkpt>
      <trkpt lat="49.76847" lon="4.82931">
        <ele>264</ele>
        <time>2022-09-18T10:53:21.000Z</time>
      </trkpt>
      <trkpt lat="49.76844" lon="4.82924">
        <ele>264</ele>
        <time>2022-09-18T10:53:22.000Z</time>
      </trkpt>
      <trkpt lat="49.76841" lon="4.82918">
        <ele>264</ele>
        <time>2022-09-18T10:53:23.000Z</time>
      </trkpt>
      <trkpt lat="49.76838" lon="4.82912">
        <ele>264</ele>
        <time>2022-09-18T10:53:24.000Z</time>
      </trkpt>
      <trkpt lat="49.76835" lon="4.82905">
        <ele>264</ele>
        <time>2022-09-18T10:53:25.000Z</time>
      </trkpt>
      <trkpt lat="49.76832" lon="4.82899">
        <ele>264</ele>
        <time>2022-09-18T10:53:26.000Z</time>
      </trkpt>
      <trkpt lat="49.76829" lon="4.82892">
        <ele>263</ele>
        <time>2022-09-18T10:53:27.000Z</time>
      </trkpt>
      <trkpt lat="49.76827" lon="4.82886">
        <ele>263</ele>
        <time>2022-09-18T10:53:28.000Z</time>
      </trkpt>
      <trkpt lat="49.76824" lon="4.82879">
        <ele>263</ele>
        <time>2022-09-18T10:53:29.000Z</time>
      </trkpt>
      <trkpt lat="49.7682" lon="4.82873">
        <ele>263</ele>
        <time>2022-09-18T10:53:30.000Z</time>
      </trkpt>
      <trkpt lat="49.76817" lon="4.82867">
        <ele>263</ele>
        <time>2022-09-18T10:53:31.000Z</time>
      </trkpt>
      <trkpt lat="49.76815" lon="4.82861">
        <ele>263</ele>
        <time>2022-09-18T10:53:32.000Z</time>
      </trkpt>
      <trkpt lat="49.76812" lon="4.82855">
        <ele>263</ele>
        <time>2022-09-18T10:53:33.000Z</time>
      </trkpt>
      <trkpt lat="49.76809" lon="4.8285">
        <ele>262</ele>
        <time>2022-09-18T10:53:34.000Z</time>
      </trkpt>
      <trkpt lat="49.76807" lon="4.82844">
        <ele>262</ele>
        <time>2022-09-18T10:53:35.000Z</time>
      </trkpt>
      <trkpt lat="49.76804" lon="4.82839">
        <ele>262</ele>
        <time>2022-09-18T10:53:36.000Z</time>
      </trkpt>
      <trkpt lat="49.76801" lon="4.82833">
        <ele>262</ele>
        <time>2022-09-18T10:53:37.000Z</time>
      </trkpt>
      <trkpt lat="49.76798" lon="4.82828">
        <ele>262</ele>
        <time>2022-09-18T10:53:38.000Z</time>
      </trkpt>
      <trkpt lat="49.76795" lon="4.82822">
        <ele>262</ele>
        <time>2022-09-18T10:53:39.000Z</time>
      </trkpt>
      <trkpt lat="49.76793" lon="4.82816">
        <ele>262</ele>
        <time>2022-09-18T10:53:40.000Z</time>
      </trkpt>
      <trkpt lat="49.7679" lon="4.8281">
        <ele>261</ele>
        <time>2022-09-18T10:53:41.000Z</time>
      </trkpt>
      <trkpt lat="49.76786" lon="4.82804">
        <ele>261</ele>
        <time>2022-09-18T10:53:42.000Z</time>
      </trkpt>
      <trkpt lat="49.76783" lon="4.82797">
        <ele>261</ele>
        <time>2022-09-18T10:53:43.000Z</time>
      </trkpt>
      <trkpt lat="49.7678" lon="4.82791">
        <ele>261</ele>
        <time>2022-09-18T10:53:44.000Z</time>
      </trkpt>
      <trkpt lat="49.76777" lon="4.82785">
        <ele>260</ele>
        <time>2022-09-18T10:53:45.000Z</time>
      </trkpt>
      <trkpt lat="49.76774" lon="4.82778">
        <ele>260</ele>
        <time>2022-09-18T10:53:46.000Z</time>
      </trkpt>
      <trkpt lat="49.76771" lon="4.82772">
        <ele>260</ele>
        <time>2022-09-18T10:53:47.000Z</time>
      </trkpt>
      <trkpt lat="49.76768" lon="4.82765">
        <ele>260</ele>
        <time>2022-09-18T10:53:48.000Z</time>
      </trkpt>
      <trkpt lat="49.76765" lon="4.82758">
        <ele>259</ele>
        <time>2022-09-18T10:53:49.000Z</time>
      </trkpt>
      <trkpt lat="49.76762" lon="4.82752">
        <ele>259</ele>
        <time>2022-09-18T10:53:50.000Z</time>
      </trkpt>
      <trkpt lat="49.7676" lon="4.82745">
        <ele>259</ele>
        <time>2022-09-18T10:53:51.000Z</time>
      </trkpt>
      <trkpt lat="49.76757" lon="4.82739">
        <ele>259</ele>
        <time>2022-09-18T10:53:52.000Z</time>
      </trkpt>
      <trkpt lat="49.76754" lon="4.82733">
        <ele>259</ele>
        <time>2022-09-18T10:53:53.000Z</time>
      </trkpt>
      <trkpt lat="49.76751" lon="4.82726">
        <ele>258</ele>
        <time>2022-09-18T10:53:54.000Z</time>
      </trkpt>
      <trkpt lat="49.76748" lon="4.82719">
        <ele>258</ele>
        <time>2022-09-18T10:53:55.000Z</time>
      </trkpt>
      <trkpt lat="49.76745" lon="4.82712">
        <ele>258</ele>
        <time>2022-09-18T10:53:56.000Z</time>
      </trkpt>
      <trkpt lat="49.76742" lon="4.82705">
        <ele>258</ele>
        <time>2022-09-18T10:53:57.000Z</time>
      </trkpt>
      <trkpt lat="49.76739" lon="4.82698">
        <ele>258</ele>
        <time>2022-09-18T10:53:58.000Z</time>
      </trkpt>
      <trkpt lat="49.76736" lon="4.8269">
        <ele>258</ele>
        <time>2022-09-18T10:53:59.000Z</time>
      </trkpt>
      <trkpt lat="49.76733" lon="4.82683">
        <ele>258</ele>
        <time>2022-09-18T10:54:00.000Z</time>
      </trkpt>
      <trkpt lat="49.76731" lon="4.82676">
        <ele>258</ele>
        <time>2022-09-18T10:54:01.000Z</time>
      </trkpt>
      <trkpt lat="49.76729" lon="4.82669">
        <ele>258</ele>
        <time>2022-09-18T10:54:02.000Z</time>
      </trkpt>
      <trkpt lat="49.76727" lon="4.82661">
        <ele>257</ele>
        <time>2022-09-18T10:54:03.000Z</time>
      </trkpt>
      <trkpt lat="49.76724" lon="4.82653">
        <ele>257</ele>
        <time>2022-09-18T10:54:04.000Z</time>
      </trkpt>
      <trkpt lat="49.76722" lon="4.82646">
        <ele>257</ele>
        <time>2022-09-18T10:54:05.000Z</time>
      </trkpt>
      <trkpt lat="49.7672" lon="4.82638">
        <ele>257</ele>
        <time>2022-09-18T10:54:06.000Z</time>
      </trkpt>
      <trkpt lat="49.76718" lon="4.8263">
        <ele>257</ele>
        <time>2022-09-18T10:54:07.000Z</time>
      </trkpt>
      <trkpt lat="49.76716" lon="4.82623">
        <ele>257</ele>
        <time>2022-09-18T10:54:08.000Z</time>
      </trkpt>
      <trkpt lat="49.76714" lon="4.82615">
        <ele>257</ele>
        <time>2022-09-18T10:54:09.000Z</time>
      </trkpt>
      <trkpt lat="49.76712" lon="4.82607">
        <ele>256</ele>
        <time>2022-09-18T10:54:10.000Z</time>
      </trkpt>
      <trkpt lat="49.7671" lon="4.826">
        <ele>256</ele>
        <time>2022-09-18T10:54:11.000Z</time>
      </trkpt>
      <trkpt lat="49.76708" lon="4.82592">
        <ele>256</ele>
        <time>2022-09-18T10:54:12.000Z</time>
      </trkpt>
      <trkpt lat="49.76706" lon="4.82585">
        <ele>256</ele>
        <time>2022-09-18T10:54:13.000Z</time>
      </trkpt>
      <trkpt lat="49.76705" lon="4.82578">
        <ele>256</ele>
        <time>2022-09-18T10:54:14.000Z</time>
      </trkpt>
      <trkpt lat="49.76703" lon="4.82571">
        <ele>256</ele>
        <time>2022-09-18T10:54:15.000Z</time>
      </trkpt>
      <trkpt lat="49.76701" lon="4.82564">
        <ele>256</ele>
        <time>2022-09-18T10:54:16.000Z</time>
      </trkpt>
      <trkpt lat="49.76699" lon="4.82557">
        <ele>256</ele>
        <time>2022-09-18T10:54:17.000Z</time>
      </trkpt>
      <trkpt lat="49.76697" lon="4.8255">
        <ele>255</ele>
        <time>2022-09-18T10:54:18.000Z</time>
      </trkpt>
      <trkpt lat="49.76696" lon="4.82542">
        <ele>255</ele>
        <time>2022-09-18T10:54:19.000Z</time>
      </trkpt>
      <trkpt lat="49.76694" lon="4.82534">
        <ele>255</ele>
        <time>2022-09-18T10:54:20.000Z</time>
      </trkpt>
      <trkpt lat="49.76692" lon="4.82526">
        <ele>255</ele>
        <time>2022-09-18T10:54:21.000Z</time>
      </trkpt>
      <trkpt lat="49.7669" lon="4.82518">
        <ele>255</ele>
        <time>2022-09-18T10:54:22.000Z</time>
      </trkpt>
      <trkpt lat="49.76688" lon="4.8251">
        <ele>255</ele>
        <time>2022-09-18T10:54:23.000Z</time>
      </trkpt>
      <trkpt lat="49.76686" lon="4.82502">
        <ele>255</ele>
        <time>2022-09-18T10:54:24.000Z</time>
      </trkpt>
      <trkpt lat="49.76684" lon="4.82494">
        <ele>255</ele>
        <time>2022-09-18T10:54:25.000Z</time>
      </trkpt>
      <trkpt lat="49.76681" lon="4.82486">
        <ele>254</ele>
        <time>2022-09-18T10:54:26.000Z</time>
      </trkpt>
      <trkpt lat="49.76679" lon="4.82479">
        <ele>254</ele>
        <time>2022-09-18T10:54:27.000Z</time>
      </trkpt>
      <trkpt lat="49.76677" lon="4.82471">
        <ele>254</ele>
        <time>2022-09-18T10:54:28.000Z</time>
      </trkpt>
      <trkpt lat="49.76675" lon="4.82463">
        <ele>254</ele>
        <time>2022-09-18T10:54:29.000Z</time>
      </trkpt>
      <trkpt lat="49.76672" lon="4.82455">
        <ele>254</ele>
        <time>2022-09-18T10:54:30.000Z</time>
      </trkpt>
      <trkpt lat="49.7667" lon="4.82447">
        <ele>254</ele>
        <time>2022-09-18T10:54:31.000Z</time>
      </trkpt>
      <trkpt lat="49.76668" lon="4.82439">
        <ele>254</ele>
        <time>2022-09-18T10:54:32.000Z</time>
      </trkpt>
      <trkpt lat="49.76665" lon="4.82431">
        <ele>254</ele>
        <time>2022-09-18T10:54:33.000Z</time>
      </trkpt>
      <trkpt lat="49.76663" lon="4.82423">
        <ele>254</ele>
        <time>2022-09-18T10:54:34.000Z</time>
      </trkpt>
      <trkpt lat="49.76661" lon="4.82415">
        <ele>254</ele>
        <time>2022-09-18T10:54:35.000Z</time>
      </trkpt>
      <trkpt lat="49.7666" lon="4.82406">
        <ele>254</ele>
        <time>2022-09-18T10:54:36.000Z</time>
      </trkpt>
      <trkpt lat="49.76658" lon="4.82398">
        <ele>254</ele>
        <time>2022-09-18T10:54:37.000Z</time>
      </trkpt>
      <trkpt lat="49.76657" lon="4.8239">
        <ele>253</ele>
        <time>2022-09-18T10:54:38.000Z</time>
      </trkpt>
      <trkpt lat="49.76656" lon="4.82381">
        <ele>253</ele>
        <time>2022-09-18T10:54:39.000Z</time>
      </trkpt>
      <trkpt lat="49.76655" lon="4.82374">
        <ele>253</ele>
        <time>2022-09-18T10:54:40.000Z</time>
      </trkpt>
      <trkpt lat="49.76654" lon="4.82366">
        <ele>253</ele>
        <time>2022-09-18T10:54:41.000Z</time>
      </trkpt>
      <trkpt lat="49.76653" lon="4.82358">
        <ele>253</ele>
        <time>2022-09-18T10:54:42.000Z</time>
      </trkpt>
      <trkpt lat="49.76653" lon="4.8235">
        <ele>253</ele>
        <time>2022-09-18T10:54:43.000Z</time>
      </trkpt>
      <trkpt lat="49.76652" lon="4.82342">
        <ele>253</ele>
        <time>2022-09-18T10:54:44.000Z</time>
      </trkpt>
      <trkpt lat="49.76652" lon="4.82334">
        <ele>252</ele>
        <time>2022-09-18T10:54:45.000Z</time>
      </trkpt>
      <trkpt lat="49.76651" lon="4.82326">
        <ele>252</ele>
        <time>2022-09-18T10:54:46.000Z</time>
      </trkpt>
      <trkpt lat="49.76651" lon="4.82318">
        <ele>252</ele>
        <time>2022-09-18T10:54:47.000Z</time>
      </trkpt>
      <trkpt lat="49.76651" lon="4.8231">
        <ele>252</ele>
        <time>2022-09-18T10:54:48.000Z</time>
      </trkpt>
      <trkpt lat="49.76651" lon="4.82302">
        <ele>252</ele>
        <time>2022-09-18T10:54:49.000Z</time>
      </trkpt>
      <trkpt lat="49.76651" lon="4.82295">
        <ele>252</ele>
        <time>2022-09-18T10:54:50.000Z</time>
      </trkpt>
      <trkpt lat="49.76651" lon="4.82287">
        <ele>252</ele>
        <time>2022-09-18T10:54:51.000Z</time>
      </trkpt>
      <trkpt lat="49.76651" lon="4.8228">
        <ele>252</ele>
        <time>2022-09-18T10:54:52.000Z</time>
      </trkpt>
      <trkpt lat="49.7665" lon="4.82273">
        <ele>252</ele>
        <time>2022-09-18T10:54:53.000Z</time>
      </trkpt>
      <trkpt lat="49.76649" lon="4.82266">
        <ele>251</ele>
        <time>2022-09-18T10:54:54.000Z</time>
      </trkpt>
      <trkpt lat="49.76648" lon="4.82259">
        <ele>251</ele>
        <time>2022-09-18T10:54:55.000Z</time>
      </trkpt>
      <trkpt lat="49.76647" lon="4.82252">
        <ele>251</ele>
        <time>2022-09-18T10:54:56.000Z</time>
      </trkpt>
      <trkpt lat="49.76646" lon="4.82246">
        <ele>251</ele>
        <time>2022-09-18T10:54:57.000Z</time>
      </trkpt>
      <trkpt lat="49.76644" lon="4.8224">
        <ele>251</ele>
        <time>2022-09-18T10:54:58.000Z</time>
      </trkpt>
      <trkpt lat="49.76643" lon="4.82233">
        <ele>251</ele>
        <time>2022-09-18T10:54:59.000Z</time>
      </trkpt>
      <trkpt lat="49.76641" lon="4.82227">
        <ele>251</ele>
        <time>2022-09-18T10:55:00.000Z</time>
      </trkpt>
      <trkpt lat="49.7664" lon="4.82221">
        <ele>251</ele>
        <time>2022-09-18T10:55:01.000Z</time>
      </trkpt>
      <trkpt lat="49.76638" lon="4.82215">
        <ele>251</ele>
        <time>2022-09-18T10:55:02.000Z</time>
      </trkpt>
      <trkpt lat="49.76637" lon="4.82209">
        <ele>251</ele>
        <time>2022-09-18T10:55:03.000Z</time>
      </trkpt>
      <trkpt lat="49.76636" lon="4.82202">
        <ele>251</ele>
        <time>2022-09-18T10:55:04.000Z</time>
      </trkpt>
      <trkpt lat="49.76634" lon="4.82196">
        <ele>251</ele>
        <time>2022-09-18T10:55:05.000Z</time>
      </trkpt>
      <trkpt lat="49.76633" lon="4.8219">
        <ele>251</ele>
        <time>2022-09-18T10:55:06.000Z</time>
      </trkpt>
      <trkpt lat="49.76632" lon="4.82183">
        <ele>251</ele>
        <time>2022-09-18T10:55:07.000Z</time>
      </trkpt>
      <trkpt lat="49.76631" lon="4.82177">
        <ele>251</ele>
        <time>2022-09-18T10:55:08.000Z</time>
      </trkpt>
      <trkpt lat="49.7663" lon="4.82171">
        <ele>251</ele>
        <time>2022-09-18T10:55:09.000Z</time>
      </trkpt>
      <trkpt lat="49.76629" lon="4.82165">
        <ele>251</ele>
        <time>2022-09-18T10:55:10.000Z</time>
      </trkpt>
      <trkpt lat="49.76627" lon="4.8216">
        <ele>251</ele>
        <time>2022-09-18T10:55:11.000Z</time>
      </trkpt>
      <trkpt lat="49.76625" lon="4.82156">
        <ele>251</ele>
        <time>2022-09-18T10:55:12.000Z</time>
      </trkpt>
      <trkpt lat="49.76623" lon="4.8215">
        <ele>251</ele>
        <time>2022-09-18T10:55:13.000Z</time>
      </trkpt>
      <trkpt lat="49.76622" lon="4.82145">
        <ele>251</ele>
        <time>2022-09-18T10:55:14.000Z</time>
      </trkpt>
      <trkpt lat="49.7662" lon="4.8214">
        <ele>251</ele>
        <time>2022-09-18T10:55:15.000Z</time>
      </trkpt>
      <trkpt lat="49.76619" lon="4.82134">
        <ele>251</ele>
        <time>2022-09-18T10:55:16.000Z</time>
      </trkpt>
      <trkpt lat="49.76617" lon="4.82128">
        <ele>251</ele>
        <time>2022-09-18T10:55:17.000Z</time>
      </trkpt>
      <trkpt lat="49.76616" lon="4.82122">
        <ele>251</ele>
        <time>2022-09-18T10:55:18.000Z</time>
      </trkpt>
      <trkpt lat="49.76614" lon="4.82117">
        <ele>251</ele>
        <time>2022-09-18T10:55:19.000Z</time>
      </trkpt>
      <trkpt lat="49.76612" lon="4.82111">
        <ele>251</ele>
        <time>2022-09-18T10:55:20.000Z</time>
      </trkpt>
      <trkpt lat="49.76611" lon="4.82106">
        <ele>252</ele>
        <time>2022-09-18T10:55:21.000Z</time>
      </trkpt>
      <trkpt lat="49.76609" lon="4.821">
        <ele>252</ele>
        <time>2022-09-18T10:55:22.000Z</time>
      </trkpt>
      <trkpt lat="49.76608" lon="4.82094">
        <ele>252</ele>
        <time>2022-09-18T10:55:23.000Z</time>
      </trkpt>
      <trkpt lat="49.76606" lon="4.82088">
        <ele>252</ele>
        <time>2022-09-18T10:55:24.000Z</time>
      </trkpt>
      <trkpt lat="49.76605" lon="4.82082">
        <ele>252</ele>
        <time>2022-09-18T10:55:25.000Z</time>
      </trkpt>
      <trkpt lat="49.76603" lon="4.82076">
        <ele>252</ele>
        <time>2022-09-18T10:55:26.000Z</time>
      </trkpt>
      <trkpt lat="49.76602" lon="4.8207">
        <ele>252</ele>
        <time>2022-09-18T10:55:27.000Z</time>
      </trkpt>
      <trkpt lat="49.76601" lon="4.82064">
        <ele>252</ele>
        <time>2022-09-18T10:55:28.000Z</time>
      </trkpt>
      <trkpt lat="49.76599" lon="4.82059">
        <ele>252</ele>
        <time>2022-09-18T10:55:29.000Z</time>
      </trkpt>
      <trkpt lat="49.76598" lon="4.82053">
        <ele>252</ele>
        <time>2022-09-18T10:55:30.000Z</time>
      </trkpt>
      <trkpt lat="49.76597" lon="4.82047">
        <ele>252</ele>
        <time>2022-09-18T10:55:31.000Z</time>
      </trkpt>
      <trkpt lat="49.76595" lon="4.82041">
        <ele>252</ele>
        <time>2022-09-18T10:55:32.000Z</time>
      </trkpt>
      <trkpt lat="49.76594" lon="4.82035">
        <ele>251</ele>
        <time>2022-09-18T10:55:33.000Z</time>
      </trkpt>
      <trkpt lat="49.76593" lon="4.82029">
        <ele>251</ele>
        <time>2022-09-18T10:55:34.000Z</time>
      </trkpt>
      <trkpt lat="49.76593" lon="4.82022">
        <ele>251</ele>
        <time>2022-09-18T10:55:35.000Z</time>
      </trkpt>
      <trkpt lat="49.76592" lon="4.82016">
        <ele>251</ele>
        <time>2022-09-18T10:55:36.000Z</time>
      </trkpt>
      <trkpt lat="49.76592" lon="4.8201">
        <ele>251</ele>
        <time>2022-09-18T10:55:37.000Z</time>
      </trkpt>
      <trkpt lat="49.76591" lon="4.82005">
        <ele>251</ele>
        <time>2022-09-18T10:55:38.000Z</time>
      </trkpt>
      <trkpt lat="49.76589" lon="4.82002">
        <ele>251</ele>
        <time>2022-09-18T10:55:39.000Z</time>
      </trkpt>
      <trkpt lat="49.76586" lon="4.82">
        <ele>251</ele>
        <time>2022-09-18T10:55:40.000Z</time>
      </trkpt>
      <trkpt lat="49.76583" lon="4.82">
        <ele>251</ele>
        <time>2022-09-18T10:55:41.000Z</time>
      </trkpt>
      <trkpt lat="49.7658" lon="4.82002">
        <ele>251</ele>
        <time>2022-09-18T10:55:42.000Z</time>
      </trkpt>
      <trkpt lat="49.76576" lon="4.82004">
        <ele>251</ele>
        <time>2022-09-18T10:55:43.000Z</time>
      </trkpt>
      <trkpt lat="49.76573" lon="4.82008">
        <ele>251</ele>
        <time>2022-09-18T10:55:44.000Z</time>
      </trkpt>
      <trkpt lat="49.76569" lon="4.82011">
        <ele>251</ele>
        <time>2022-09-18T10:55:45.000Z</time>
      </trkpt>
      <trkpt lat="49.76565" lon="4.82015">
        <ele>251</ele>
        <time>2022-09-18T10:55:46.000Z</time>
      </trkpt>
      <trkpt lat="49.76562" lon="4.82019">
        <ele>251</ele>
        <time>2022-09-18T10:55:47.000Z</time>
      </trkpt>
      <trkpt lat="49.76558" lon="4.82023">
        <ele>251</ele>
        <time>2022-09-18T10:55:48.000Z</time>
      </trkpt>
      <trkpt lat="49.76554" lon="4.82025">
        <ele>251</ele>
        <time>2022-09-18T10:55:49.000Z</time>
      </trkpt>
      <trkpt lat="49.76549" lon="4.82025">
        <ele>251</ele>
        <time>2022-09-18T10:55:50.000Z</time>
      </trkpt>
      <trkpt lat="49.76545" lon="4.82024">
        <ele>251</ele>
        <time>2022-09-18T10:55:51.000Z</time>
      </trkpt>
      <trkpt lat="49.76541" lon="4.8202">
        <ele>251</ele>
        <time>2022-09-18T10:55:52.000Z</time>
      </trkpt>
      <trkpt lat="49.76537" lon="4.82015">
        <ele>251</ele>
        <time>2022-09-18T10:55:53.000Z</time>
      </trkpt>
      <trkpt lat="49.76535" lon="4.82008">
        <ele>251</ele>
        <time>2022-09-18T10:55:54.000Z</time>
      </trkpt>
      <trkpt lat="49.76533" lon="4.82002">
        <ele>251</ele>
        <time>2022-09-18T10:55:55.000Z</time>
      </trkpt>
      <trkpt lat="49.76531" lon="4.81995">
        <ele>251</ele>
        <time>2022-09-18T10:55:56.000Z</time>
      </trkpt>
      <trkpt lat="49.76529" lon="4.81988">
        <ele>251</ele>
        <time>2022-09-18T10:55:57.000Z</time>
      </trkpt>
      <trkpt lat="49.76527" lon="4.81981">
        <ele>251</ele>
        <time>2022-09-18T10:55:58.000Z</time>
      </trkpt>
      <trkpt lat="49.76525" lon="4.81975">
        <ele>251</ele>
        <time>2022-09-18T10:55:59.000Z</time>
      </trkpt>
      <trkpt lat="49.76523" lon="4.81968">
        <ele>251</ele>
        <time>2022-09-18T10:56:00.000Z</time>
      </trkpt>
      <trkpt lat="49.76521" lon="4.81962">
        <ele>252</ele>
        <time>2022-09-18T10:56:01.000Z</time>
      </trkpt>
      <trkpt lat="49.76519" lon="4.81956">
        <ele>252</ele>
        <time>2022-09-18T10:56:02.000Z</time>
      </trkpt>
      <trkpt lat="49.76517" lon="4.8195">
        <ele>252</ele>
        <time>2022-09-18T10:56:03.000Z</time>
      </trkpt>
      <trkpt lat="49.76515" lon="4.81945">
        <ele>252</ele>
        <time>2022-09-18T10:56:04.000Z</time>
      </trkpt>
      <trkpt lat="49.76513" lon="4.81939">
        <ele>252</ele>
        <time>2022-09-18T10:56:05.000Z</time>
      </trkpt>
      <trkpt lat="49.76512" lon="4.81934">
        <ele>252</ele>
        <time>2022-09-18T10:56:06.000Z</time>
      </trkpt>
      <trkpt lat="49.7651" lon="4.81928">
        <ele>252</ele>
        <time>2022-09-18T10:56:07.000Z</time>
      </trkpt>
      <trkpt lat="49.76508" lon="4.81922">
        <ele>252</ele>
        <time>2022-09-18T10:56:08.000Z</time>
      </trkpt>
      <trkpt lat="49.76507" lon="4.81916">
        <ele>252</ele>
        <time>2022-09-18T10:56:09.000Z</time>
      </trkpt>
      <trkpt lat="49.76505" lon="4.8191">
        <ele>252</ele>
        <time>2022-09-18T10:56:10.000Z</time>
      </trkpt>
      <trkpt lat="49.76504" lon="4.81905">
        <ele>252</ele>
        <time>2022-09-18T10:56:11.000Z</time>
      </trkpt>
      <trkpt lat="49.76503" lon="4.81899">
        <ele>252</ele>
        <time>2022-09-18T10:56:12.000Z</time>
      </trkpt>
      <trkpt lat="49.76501" lon="4.81893">
        <ele>252</ele>
        <time>2022-09-18T10:56:13.000Z</time>
      </trkpt>
      <trkpt lat="49.76499" lon="4.81887">
        <ele>253</ele>
        <time>2022-09-18T10:56:14.000Z</time>
      </trkpt>
      <trkpt lat="49.76498" lon="4.81882">
        <ele>253</ele>
        <time>2022-09-18T10:56:15.000Z</time>
      </trkpt>
      <trkpt lat="49.76496" lon="4.81876">
        <ele>253</ele>
        <time>2022-09-18T10:56:16.000Z</time>
      </trkpt>
      <trkpt lat="49.76495" lon="4.8187">
        <ele>253</ele>
        <time>2022-09-18T10:56:17.000Z</time>
      </trkpt>
      <trkpt lat="49.76494" lon="4.81864">
        <ele>253</ele>
        <time>2022-09-18T10:56:18.000Z</time>
      </trkpt>
      <trkpt lat="49.76492" lon="4.81858">
        <ele>253</ele>
        <time>2022-09-18T10:56:19.000Z</time>
      </trkpt>
      <trkpt lat="49.76491" lon="4.81852">
        <ele>253</ele>
        <time>2022-09-18T10:56:20.000Z</time>
      </trkpt>
      <trkpt lat="49.76489" lon="4.81846">
        <ele>253</ele>
        <time>2022-09-18T10:56:21.000Z</time>
      </trkpt>
      <trkpt lat="49.76488" lon="4.81841">
        <ele>253</ele>
        <time>2022-09-18T10:56:22.000Z</time>
      </trkpt>
      <trkpt lat="49.76487" lon="4.81835">
        <ele>253</ele>
        <time>2022-09-18T10:56:23.000Z</time>
      </trkpt>
      <trkpt lat="49.76486" lon="4.81829">
        <ele>254</ele>
        <time>2022-09-18T10:56:24.000Z</time>
      </trkpt>
      <trkpt lat="49.76485" lon="4.81823">
        <ele>254</ele>
        <time>2022-09-18T10:56:25.000Z</time>
      </trkpt>
      <trkpt lat="49.76483" lon="4.81817">
        <ele>254</ele>
        <time>2022-09-18T10:56:26.000Z</time>
      </trkpt>
      <trkpt lat="49.76482" lon="4.81811">
        <ele>254</ele>
        <time>2022-09-18T10:56:27.000Z</time>
      </trkpt>
      <trkpt lat="49.76481" lon="4.81806">
        <ele>254</ele>
        <time>2022-09-18T10:56:28.000Z</time>
      </trkpt>
      <trkpt lat="49.76479" lon="4.81801">
        <ele>254</ele>
        <time>2022-09-18T10:56:29.000Z</time>
      </trkpt>
      <trkpt lat="49.76478" lon="4.81796">
        <ele>254</ele>
        <time>2022-09-18T10:56:30.000Z</time>
      </trkpt>
      <trkpt lat="49.76477" lon="4.81792">
        <ele>254</ele>
        <time>2022-09-18T10:56:31.000Z</time>
      </trkpt>
      <trkpt lat="49.76476" lon="4.81788">
        <ele>255</ele>
        <time>2022-09-18T10:56:32.000Z</time>
      </trkpt>
      <trkpt lat="49.76475" lon="4.81784">
        <ele>255</ele>
        <time>2022-09-18T10:56:33.000Z</time>
      </trkpt>
      <trkpt lat="49.76474" lon="4.8178">
        <ele>255</ele>
        <time>2022-09-18T10:56:34.000Z</time>
      </trkpt>
      <trkpt lat="49.76473" lon="4.81776">
        <ele>255</ele>
        <time>2022-09-18T10:56:35.000Z</time>
      </trkpt>
      <trkpt lat="49.76471" lon="4.81771">
        <ele>255</ele>
        <time>2022-09-18T10:56:36.000Z</time>
      </trkpt>
      <trkpt lat="49.7647" lon="4.81767">
        <ele>255</ele>
        <time>2022-09-18T10:56:37.000Z</time>
      </trkpt>
      <trkpt lat="49.76469" lon="4.81763">
        <ele>255</ele>
        <time>2022-09-18T10:56:38.000Z</time>
      </trkpt>
      <trkpt lat="49.76468" lon="4.81759">
        <ele>255</ele>
        <time>2022-09-18T10:56:39.000Z</time>
      </trkpt>
      <trkpt lat="49.76467" lon="4.81755">
        <ele>256</ele>
        <time>2022-09-18T10:56:40.000Z</time>
      </trkpt>
      <trkpt lat="49.76466" lon="4.81751">
        <ele>256</ele>
        <time>2022-09-18T10:56:41.000Z</time>
      </trkpt>
      <trkpt lat="49.76465" lon="4.81747">
        <ele>256</ele>
        <time>2022-09-18T10:56:42.000Z</time>
      </trkpt>
      <trkpt lat="49.76464" lon="4.81744">
        <ele>256</ele>
        <time>2022-09-18T10:56:43.000Z</time>
      </trkpt>
      <trkpt lat="49.76463" lon="4.81739">
        <ele>256</ele>
        <time>2022-09-18T10:56:44.000Z</time>
      </trkpt>
      <trkpt lat="49.76462" lon="4.81734">
        <ele>256</ele>
        <time>2022-09-18T10:56:45.000Z</time>
      </trkpt>
      <trkpt lat="49.76461" lon="4.8173">
        <ele>256</ele>
        <time>2022-09-18T10:56:46.000Z</time>
      </trkpt>
      <trkpt lat="49.7646" lon="4.81725">
        <ele>256</ele>
        <time>2022-09-18T10:56:47.000Z</time>
      </trkpt>
      <trkpt lat="49.76458" lon="4.8172">
        <ele>256</ele>
        <time>2022-09-18T10:56:48.000Z</time>
      </trkpt>
      <trkpt lat="49.76457" lon="4.81716">
        <ele>257</ele>
        <time>2022-09-18T10:56:49.000Z</time>
      </trkpt>
      <trkpt lat="49.76456" lon="4.81711">
        <ele>257</ele>
        <time>2022-09-18T10:56:50.000Z</time>
      </trkpt>
      <trkpt lat="49.76455" lon="4.81707">
        <ele>257</ele>
        <time>2022-09-18T10:56:51.000Z</time>
      </trkpt>
      <trkpt lat="49.76454" lon="4.81703">
        <ele>257</ele>
        <time>2022-09-18T10:56:52.000Z</time>
      </trkpt>
      <trkpt lat="49.76453" lon="4.81699">
        <ele>257</ele>
        <time>2022-09-18T10:56:53.000Z</time>
      </trkpt>
      <trkpt lat="49.76452" lon="4.81695">
        <ele>257</ele>
        <time>2022-09-18T10:56:54.000Z</time>
      </trkpt>
      <trkpt lat="49.76451" lon="4.8169">
        <ele>257</ele>
        <time>2022-09-18T10:56:55.000Z</time>
      </trkpt>
      <trkpt lat="49.7645" lon="4.81686">
        <ele>258</ele>
        <time>2022-09-18T10:56:56.000Z</time>
      </trkpt>
      <trkpt lat="49.76449" lon="4.81682">
        <ele>258</ele>
        <time>2022-09-18T10:56:57.000Z</time>
      </trkpt>
      <trkpt lat="49.76448" lon="4.81679">
        <ele>258</ele>
        <time>2022-09-18T10:56:58.000Z</time>
      </trkpt>
      <trkpt lat="49.76447" lon="4.81675">
        <ele>258</ele>
        <time>2022-09-18T10:56:59.000Z</time>
      </trkpt>
      <trkpt lat="49.76445" lon="4.81671">
        <ele>258</ele>
        <time>2022-09-18T10:57:00.000Z</time>
      </trkpt>
      <trkpt lat="49.76444" lon="4.81667">
        <ele>258</ele>
        <time>2022-09-18T10:57:01.000Z</time>
      </trkpt>
      <trkpt lat="49.76443" lon="4.81663">
        <ele>258</ele>
        <time>2022-09-18T10:57:02.000Z</time>
      </trkpt>
      <trkpt lat="49.76442" lon="4.81659">
        <ele>258</ele>
        <time>2022-09-18T10:57:03.000Z</time>
      </trkpt>
      <trkpt lat="49.76441" lon="4.81655">
        <ele>258</ele>
        <time>2022-09-18T10:57:04.000Z</time>
      </trkpt>
      <trkpt lat="49.7644" lon="4.81651">
        <ele>259</ele>
        <time>2022-09-18T10:57:05.000Z</time>
      </trkpt>
      <trkpt lat="49.7644" lon="4.81648">
        <ele>259</ele>
        <time>2022-09-18T10:57:06.000Z</time>
      </trkpt>
      <trkpt lat="49.76439" lon="4.81645">
        <ele>259</ele>
        <time>2022-09-18T10:57:07.000Z</time>
      </trkpt>
      <trkpt lat="49.76438" lon="4.81642">
        <ele>259</ele>
        <time>2022-09-18T10:57:08.000Z</time>
      </trkpt>
      <trkpt lat="49.76438" lon="4.81638">
        <ele>259</ele>
        <time>2022-09-18T10:57:09.000Z</time>
      </trkpt>
      <trkpt lat="49.76437" lon="4.81634">
        <ele>259</ele>
        <time>2022-09-18T10:57:10.000Z</time>
      </trkpt>
      <trkpt lat="49.76436" lon="4.81631">
        <ele>260</ele>
        <time>2022-09-18T10:57:11.000Z</time>
      </trkpt>
      <trkpt lat="49.76435" lon="4.81627">
        <ele>260</ele>
        <time>2022-09-18T10:57:12.000Z</time>
      </trkpt>
      <trkpt lat="49.76435" lon="4.81624">
        <ele>260</ele>
        <time>2022-09-18T10:57:13.000Z</time>
      </trkpt>
      <trkpt lat="49.76434" lon="4.81621">
        <ele>260</ele>
        <time>2022-09-18T10:57:14.000Z</time>
      </trkpt>
      <trkpt lat="49.76433" lon="4.81618">
        <ele>260</ele>
        <time>2022-09-18T10:57:15.000Z</time>
      </trkpt>
      <trkpt lat="49.76432" lon="4.81615">
        <ele>261</ele>
        <time>2022-09-18T10:57:16.000Z</time>
      </trkpt>
      <trkpt lat="49.76431" lon="4.81613">
        <ele>261</ele>
        <time>2022-09-18T10:57:17.000Z</time>
      </trkpt>
      <trkpt lat="49.76431" lon="4.8161">
        <ele>261</ele>
        <time>2022-09-18T10:57:18.000Z</time>
      </trkpt>
      <trkpt lat="49.76431" lon="4.81607">
        <ele>261</ele>
        <time>2022-09-18T10:57:19.000Z</time>
      </trkpt>
      <trkpt lat="49.76431" lon="4.81605">
        <ele>261</ele>
        <time>2022-09-18T10:57:20.000Z</time>
      </trkpt>
      <trkpt lat="49.76432" lon="4.81603">
        <ele>261</ele>
        <time>2022-09-18T10:57:21.000Z</time>
      </trkpt>
      <trkpt lat="49.76432" lon="4.816">
        <ele>262</ele>
        <time>2022-09-18T10:57:22.000Z</time>
      </trkpt>
      <trkpt lat="49.76432" lon="4.81598">
        <ele>262</ele>
        <time>2022-09-18T10:57:23.000Z</time>
      </trkpt>
      <trkpt lat="49.76431" lon="4.81595">
        <ele>262</ele>
        <time>2022-09-18T10:57:24.000Z</time>
      </trkpt>
      <trkpt lat="49.76431" lon="4.81593">
        <ele>262</ele>
        <time>2022-09-18T10:57:25.000Z</time>
      </trkpt>
      <trkpt lat="49.7643" lon="4.8159">
        <ele>262</ele>
        <time>2022-09-18T10:57:26.000Z</time>
      </trkpt>
      <trkpt lat="49.7643" lon="4.81587">
        <ele>263</ele>
        <time>2022-09-18T10:57:27.000Z</time>
      </trkpt>
      <trkpt lat="49.76429" lon="4.81584">
        <ele>263</ele>
        <time>2022-09-18T10:57:28.000Z</time>
      </trkpt>
      <trkpt lat="49.76429" lon="4.81582">
        <ele>263</ele>
        <time>2022-09-18T10:57:29.000Z</time>
      </trkpt>
      <trkpt lat="49.76428" lon="4.81579">
        <ele>263</ele>
        <time>2022-09-18T10:57:30.000Z</time>
      </trkpt>
      <trkpt lat="49.76427" lon="4.81576">
        <ele>264</ele>
        <time>2022-09-18T10:57:31.000Z</time>
      </trkpt>
      <trkpt lat="49.76426" lon="4.81573">
        <ele>264</ele>
        <time>2022-09-18T10:57:32.000Z</time>
      </trkpt>
      <trkpt lat="49.76425" lon="4.8157">
        <ele>264</ele>
        <time>2022-09-18T10:57:33.000Z</time>
      </trkpt>
      <trkpt lat="49.76424" lon="4.81567">
        <ele>265</ele>
        <time>2022-09-18T10:57:34.000Z</time>
      </trkpt>
      <trkpt lat="49.76423" lon="4.81565">
        <ele>265</ele>
        <time>2022-09-18T10:57:35.000Z</time>
      </trkpt>
      <trkpt lat="49.76422" lon="4.81562">
        <ele>265</ele>
        <time>2022-09-18T10:57:36.000Z</time>
      </trkpt>
      <trkpt lat="49.76421" lon="4.8156">
        <ele>266</ele>
        <time>2022-09-18T10:57:37.000Z</time>
      </trkpt>
      <trkpt lat="49.76419" lon="4.81558">
        <ele>266</ele>
        <time>2022-09-18T10:57:38.000Z</time>
      </trkpt>
      <trkpt lat="49.76418" lon="4.81556">
        <ele>266</ele>
        <time>2022-09-18T10:57:39.000Z</time>
      </trkpt>
      <trkpt lat="49.76416" lon="4.81553">
        <ele>266</ele>
        <time>2022-09-18T10:57:40.000Z</time>
      </trkpt>
      <trkpt lat="49.76415" lon="4.81551">
        <ele>267</ele>
        <time>2022-09-18T10:57:41.000Z</time>
      </trkpt>
      <trkpt lat="49.76413" lon="4.81548">
        <ele>267</ele>
        <time>2022-09-18T10:57:42.000Z</time>
      </trkpt>
      <trkpt lat="49.76412" lon="4.81546">
        <ele>267</ele>
        <time>2022-09-18T10:57:43.000Z</time>
      </trkpt>
      <trkpt lat="49.7641" lon="4.81543">
        <ele>268</ele>
        <time>2022-09-18T10:57:44.000Z</time>
      </trkpt>
      <trkpt lat="49.76409" lon="4.81541">
        <ele>268</ele>
        <time>2022-09-18T10:57:45.000Z</time>
      </trkpt>
      <trkpt lat="49.76407" lon="4.81539">
        <ele>268</ele>
        <time>2022-09-18T10:57:46.000Z</time>
      </trkpt>
      <trkpt lat="49.76405" lon="4.81537">
        <ele>269</ele>
        <time>2022-09-18T10:57:47.000Z</time>
      </trkpt>
      <trkpt lat="49.76403" lon="4.81535">
        <ele>269</ele>
        <time>2022-09-18T10:57:48.000Z</time>
      </trkpt>
      <trkpt lat="49.76402" lon="4.81532">
        <ele>269</ele>
        <time>2022-09-18T10:57:49.000Z</time>
      </trkpt>
      <trkpt lat="49.76401" lon="4.81529">
        <ele>269</ele>
        <time>2022-09-18T10:57:50.000Z</time>
      </trkpt>
      <trkpt lat="49.764" lon="4.81526">
        <ele>270</ele>
        <time>2022-09-18T10:57:51.000Z</time>
      </trkpt>
      <trkpt lat="49.76398" lon="4.81523">
        <ele>270</ele>
        <time>2022-09-18T10:57:52.000Z</time>
      </trkpt>
      <trkpt lat="49.76397" lon="4.8152">
        <ele>270</ele>
        <time>2022-09-18T10:57:53.000Z</time>
      </trkpt>
      <trkpt lat="49.76395" lon="4.81516">
        <ele>271</ele>
        <time>2022-09-18T10:57:54.000Z</time>
      </trkpt>
      <trkpt lat="49.76393" lon="4.81513">
        <ele>271</ele>
        <time>2022-09-18T10:57:55.000Z</time>
      </trkpt>
      <trkpt lat="49.76391" lon="4.8151">
        <ele>271</ele>
        <time>2022-09-18T10:57:56.000Z</time>
      </trkpt>
      <trkpt lat="49.76389" lon="4.81506">
        <ele>272</ele>
        <time>2022-09-18T10:57:57.000Z</time>
      </trkpt>
      <trkpt lat="49.76387" lon="4.81503">
        <ele>272</ele>
        <time>2022-09-18T10:57:58.000Z</time>
      </trkpt>
      <trkpt lat="49.76385" lon="4.81499">
        <ele>272</ele>
        <time>2022-09-18T10:57:59.000Z</time>
      </trkpt>
      <trkpt lat="49.76383" lon="4.81496">
        <ele>272</ele>
        <time>2022-09-18T10:58:00.000Z</time>
      </trkpt>
      <trkpt lat="49.76381" lon="4.81492">
        <ele>273</ele>
        <time>2022-09-18T10:58:01.000Z</time>
      </trkpt>
      <trkpt lat="49.76379" lon="4.81489">
        <ele>273</ele>
        <time>2022-09-18T10:58:02.000Z</time>
      </trkpt>
      <trkpt lat="49.76377" lon="4.81486">
        <ele>273</ele>
        <time>2022-09-18T10:58:03.000Z</time>
      </trkpt>
      <trkpt lat="49.76374" lon="4.81482">
        <ele>273</ele>
        <time>2022-09-18T10:58:04.000Z</time>
      </trkpt>
      <trkpt lat="49.76372" lon="4.81479">
        <ele>273</ele>
        <time>2022-09-18T10:58:05.000Z</time>
      </trkpt>
      <trkpt lat="49.7637" lon="4.81477">
        <ele>274</ele>
        <time>2022-09-18T10:58:06.000Z</time>
      </trkpt>
      <trkpt lat="49.76367" lon="4.81476">
        <ele>274</ele>
        <time>2022-09-18T10:58:07.000Z</time>
      </trkpt>
      <trkpt lat="49.76364" lon="4.81474">
        <ele>274</ele>
        <time>2022-09-18T10:58:08.000Z</time>
      </trkpt>
      <trkpt lat="49.76362" lon="4.81473">
        <ele>274</ele>
        <time>2022-09-18T10:58:09.000Z</time>
      </trkpt>
      <trkpt lat="49.76361" lon="4.81473">
        <ele>274</ele>
        <time>2022-09-18T10:58:10.000Z</time>
      </trkpt>
      <trkpt lat="49.76361" lon="4.81473">
        <ele>274</ele>
        <time>2022-09-18T10:58:11.000Z</time>
      </trkpt>
      <trkpt lat="49.76362" lon="4.81472">
        <ele>274</ele>
        <time>2022-09-18T10:58:12.000Z</time>
      </trkpt>
      <trkpt lat="49.76361" lon="4.81472">
        <ele>275</ele>
        <time>2022-09-18T10:58:13.000Z</time>
      </trkpt>
      <trkpt lat="49.76361" lon="4.81472">
        <ele>275</ele>
        <time>2022-09-18T10:58:14.000Z</time>
      </trkpt>
      <trkpt lat="49.76361" lon="4.81472">
        <ele>275</ele>
        <time>2022-09-18T10:58:15.000Z</time>
      </trkpt>
      <trkpt lat="49.76361" lon="4.81472">
        <ele>275</ele>
        <time>2022-09-18T10:58:16.000Z</time>
      </trkpt>
      <trkpt lat="49.76361" lon="4.81472">
        <ele>275</ele>
        <time>2022-09-18T10:58:17.000Z</time>
      </trkpt>
      <trkpt lat="49.76361" lon="4.81472">
        <ele>275</ele>
        <time>2022-09-18T10:58:18.000Z</time>
      </trkpt>
      <trkpt lat="49.76361" lon="4.81472">
        <ele>275</ele>
        <time>2022-09-18T10:58:19.000Z</time>
      </trkpt>
      <trkpt lat="49.76361" lon="4.81472">
        <ele>275</ele>
        <time>2022-09-18T10:58:20.000Z</time>
      </trkpt>
      <trkpt lat="49.76361" lon="4.81471">
        <ele>275</ele>
        <time>2022-09-18T10:58:21.000Z</time>
      </trkpt>
      <trkpt lat="49.76361" lon="4.81471">
        <ele>275</ele>
        <time>2022-09-18T10:58:22.000Z</time>
      </trkpt>
      <trkpt lat="49.76361" lon="4.81471">
        <ele>275</ele>
        <time>2022-09-18T10:58:23.000Z</time>
      </trkpt>
      <trkpt lat="49.76361" lon="4.81471">
        <ele>275</ele>
        <time>2022-09-18T10:58:24.000Z</time>
      </trkpt>
      <trkpt lat="49.76361" lon="4.81471">
        <ele>275</ele>
        <time>2022-09-18T10:58:25.000Z</time>
      </trkpt>
      <trkpt lat="49.76361" lon="4.81471">
        <ele>275</ele>
        <time>2022-09-18T10:58:26.000Z</time>
      </trkpt>
      <trkpt lat="49.76361" lon="4.81471">
        <ele>275</ele>
        <time>2022-09-18T10:58:27.000Z</time>
      </trkpt>
      <trkpt lat="49.76361" lon="4.81471">
        <ele>275</ele>
        <time>2022-09-18T10:58:28.000Z</time>
      </trkpt>
      <trkpt lat="49.76361" lon="4.81471">
        <ele>275</ele>
        <time>2022-09-18T10:58:29.000Z</time>
      </trkpt>
      <trkpt lat="49.76361" lon="4.81471">
        <ele>275</ele>
        <time>2022-09-18T10:58:30.000Z</time>
      </trkpt>
      <trkpt lat="49.76361" lon="4.81471">
        <ele>275</ele>
        <time>2022-09-18T10:58:31.000Z</time>
      </trkpt>
      <trkpt lat="49.76361" lon="4.81471">
        <ele>275</ele>
        <time>2022-09-18T10:58:32.000Z</time>
      </trkpt>
      <trkpt lat="49.76361" lon="4.81471">
        <ele>275</ele>
        <time>2022-09-18T10:58:33.000Z</time>
      </trkpt>
      <trkpt lat="49.76361" lon="4.81471">
        <ele>275</ele>
        <time>2022-09-18T10:58:34.000Z</time>
      </trkpt>
      <trkpt lat="49.76361" lon="4.81471">
        <ele>275</ele>
        <time>2022-09-18T10:58:35.000Z</time>
      </trkpt>
      <trkpt lat="49.76361" lon="4.81471">
        <ele>275</ele>
        <time>2022-09-18T10:58:36.000Z</time>
      </trkpt>
      <trkpt lat="49.76361" lon="4.81471">
        <ele>275</ele>
        <time>2022-09-18T10:58:37.000Z</time>
      </trkpt>
      <trkpt lat="49.76361" lon="4.81471">
        <ele>275</ele>
        <time>2022-09-18T10:58:38.000Z</time>
      </trkpt>
      <trkpt lat="49.76361" lon="4.81471">
        <ele>275</ele>
        <time>2022-09-18T10:58:39.000Z</time>
      </trkpt>
      <trkpt lat="49.76361" lon="4.81471">
        <ele>275</ele>
        <time>2022-09-18T10:58:40.000Z</time>
      </trkpt>
      <trkpt lat="49.76361" lon="4.81471">
        <ele>275</ele>
        <time>2022-09-18T10:58:41.000Z</time>
      </trkpt>
      <trkpt lat="49.76361" lon="4.81471">
        <ele>275</ele>
        <time>2022-09-18T10:58:42.000Z</time>
      </trkpt>
      <trkpt lat="49.76361" lon="4.81471">
        <ele>275</ele>
        <time>2022-09-18T10:58:43.000Z</time>
      </trkpt>
      <trkpt lat="49.76361" lon="4.81471">
        <ele>275</ele>
        <time>2022-09-18T10:58:44.000Z</time>
      </trkpt>
      <trkpt lat="49.76361" lon="4.81471">
        <ele>275</ele>
        <time>2022-09-18T10:58:45.000Z</time>
      </trkpt>
      <trkpt lat="49.76361" lon="4.81471">
        <ele>275</ele>
        <time>2022-09-18T10:58:46.000Z</time>
      </trkpt>
      <trkpt lat="49.76361" lon="4.81471">
        <ele>275</ele>
        <time>2022-09-18T10:58:47.000Z</time>
      </trkpt>
      <trkpt lat="49.76361" lon="4.81471">
        <ele>275</ele>
        <time>2022-09-18T10:58:48.000Z</time>
      </trkpt>
      <trkpt lat="49.76361" lon="4.81471">
        <ele>275</ele>
        <time>2022-09-18T10:58:49.000Z</time>
      </trkpt>
      <trkpt lat="49.76361" lon="4.81471">
        <ele>275</ele>
        <time>2022-09-18T10:58:50.000Z</time>
      </trkpt>
      <trkpt lat="49.76361" lon="4.81471">
        <ele>275</ele>
        <time>2022-09-18T10:58:51.000Z</time>
      </trkpt>
      <trkpt lat="49.76361" lon="4.81471">
        <ele>275</ele>
        <time>2022-09-18T10:58:52.000Z</time>
      </trkpt>
      <trkpt lat="49.76361" lon="4.81471">
        <ele>275</ele>
        <time>2022-09-18T10:58:53.000Z</time>
      </trkpt>
      <trkpt lat="49.76362" lon="4.81471">
        <ele>275</ele>
        <time>2022-09-18T10:58:54.000Z</time>
      </trkpt>
      <trkpt lat="49.76362" lon="4.81471">
        <ele>275</ele>
        <time>2022-09-18T10:58:55.000Z</time>
      </trkpt>
      <trkpt lat="49.76362" lon="4.81471">
        <ele>275</ele>
        <time>2022-09-18T10:58:56.000Z</time>
      </trkpt>
      <trkpt lat="49.76362" lon="4.81471">
        <ele>275</ele>
        <time>2022-09-18T10:58:57.000Z</time>
      </trkpt>
      <trkpt lat="49.76361" lon="4.81471">
        <ele>275</ele>
        <time>2022-09-18T10:58:58.000Z</time>
      </trkpt>
      <trkpt lat="49.76361" lon="4.81471">
        <ele>275</ele>
        <time>2022-09-18T10:58:59.000Z</time>
      </trkpt>
      <trkpt lat="49.7636" lon="4.8147">
        <ele>275</ele>
        <time>2022-09-18T10:59:00.000Z</time>
      </trkpt>
      <trkpt lat="49.76358" lon="4.81469">
        <ele>276</ele>
        <time>2022-09-18T10:59:01.000Z</time>
      </trkpt>
      <trkpt lat="49.76356" lon="4.81468">
        <ele>276</ele>
        <time>2022-09-18T10:59:02.000Z</time>
      </trkpt>
      <trkpt lat="49.76354" lon="4.81467">
        <ele>276</ele>
        <time>2022-09-18T10:59:03.000Z</time>
      </trkpt>
      <trkpt lat="49.76351" lon="4.81466">
        <ele>276</ele>
        <time>2022-09-18T10:59:04.000Z</time>
      </trkpt>
      <trkpt lat="49.76348" lon="4.81465">
        <ele>276</ele>
        <time>2022-09-18T10:59:05.000Z</time>
      </trkpt>
      <trkpt lat="49.76345" lon="4.81464">
        <ele>276</ele>
        <time>2022-09-18T10:59:06.000Z</time>
      </trkpt>
      <trkpt lat="49.76342" lon="4.81463">
        <ele>276</ele>
        <time>2022-09-18T10:59:07.000Z</time>
      </trkpt>
      <trkpt lat="49.7634" lon="4.81463">
        <ele>276</ele>
        <time>2022-09-18T10:59:08.000Z</time>
      </trkpt>
      <trkpt lat="49.76337" lon="4.81462">
        <ele>276</ele>
        <time>2022-09-18T10:59:09.000Z</time>
      </trkpt>
      <trkpt lat="49.76334" lon="4.81461">
        <ele>276</ele>
        <time>2022-09-18T10:59:10.000Z</time>
      </trkpt>
      <trkpt lat="49.76331" lon="4.81461">
        <ele>276</ele>
        <time>2022-09-18T10:59:11.000Z</time>
      </trkpt>
      <trkpt lat="49.76327" lon="4.8146">
        <ele>276</ele>
        <time>2022-09-18T10:59:12.000Z</time>
      </trkpt>
      <trkpt lat="49.76323" lon="4.81459">
        <ele>275</ele>
        <time>2022-09-18T10:59:13.000Z</time>
      </trkpt>
      <trkpt lat="49.76319" lon="4.81458">
        <ele>275</ele>
        <time>2022-09-18T10:59:14.000Z</time>
      </trkpt>
      <trkpt lat="49.76314" lon="4.81457">
        <ele>275</ele>
        <time>2022-09-18T10:59:15.000Z</time>
      </trkpt>
      <trkpt lat="49.7631" lon="4.81456">
        <ele>275</ele>
        <time>2022-09-18T10:59:16.000Z</time>
      </trkpt>
      <trkpt lat="49.76305" lon="4.81455">
        <ele>275</ele>
        <time>2022-09-18T10:59:17.000Z</time>
      </trkpt>
      <trkpt lat="49.763" lon="4.81455">
        <ele>275</ele>
        <time>2022-09-18T10:59:18.000Z</time>
      </trkpt>
      <trkpt lat="49.76295" lon="4.81455">
        <ele>275</ele>
        <time>2022-09-18T10:59:19.000Z</time>
      </trkpt>
      <trkpt lat="49.76289" lon="4.81454">
        <ele>275</ele>
        <time>2022-09-18T10:59:20.000Z</time>
      </trkpt>
      <trkpt lat="49.76283" lon="4.81453">
        <ele>275</ele>
        <time>2022-09-18T10:59:21.000Z</time>
      </trkpt>
      <trkpt lat="49.76276" lon="4.81452">
        <ele>275</ele>
        <time>2022-09-18T10:59:22.000Z</time>
      </trkpt>
      <trkpt lat="49.7627" lon="4.81451">
        <ele>275</ele>
        <time>2022-09-18T10:59:23.000Z</time>
      </trkpt>
      <trkpt lat="49.76263" lon="4.81451">
        <ele>275</ele>
        <time>2022-09-18T10:59:24.000Z</time>
      </trkpt>
      <trkpt lat="49.76256" lon="4.8145">
        <ele>275</ele>
        <time>2022-09-18T10:59:25.000Z</time>
      </trkpt>
      <trkpt lat="49.76248" lon="4.81449">
        <ele>275</ele>
        <time>2022-09-18T10:59:26.000Z</time>
      </trkpt>
      <trkpt lat="49.76241" lon="4.81448">
        <ele>275</ele>
        <time>2022-09-18T10:59:27.000Z</time>
      </trkpt>
      <trkpt lat="49.76234" lon="4.81447">
        <ele>275</ele>
        <time>2022-09-18T10:59:28.000Z</time>
      </trkpt>
      <trkpt lat="49.76227" lon="4.81447">
        <ele>274</ele>
        <time>2022-09-18T10:59:29.000Z</time>
      </trkpt>
      <trkpt lat="49.7622" lon="4.81447">
        <ele>274</ele>
        <time>2022-09-18T10:59:30.000Z</time>
      </trkpt>
      <trkpt lat="49.76213" lon="4.81447">
        <ele>274</ele>
        <time>2022-09-18T10:59:31.000Z</time>
      </trkpt>
      <trkpt lat="49.76205" lon="4.81447">
        <ele>274</ele>
        <time>2022-09-18T10:59:32.000Z</time>
      </trkpt>
      <trkpt lat="49.76198" lon="4.81446">
        <ele>273</ele>
        <time>2022-09-18T10:59:33.000Z</time>
      </trkpt>
      <trkpt lat="49.76191" lon="4.81445">
        <ele>273</ele>
        <time>2022-09-18T10:59:34.000Z</time>
      </trkpt>
      <trkpt lat="49.76183" lon="4.81444">
        <ele>273</ele>
        <time>2022-09-18T10:59:35.000Z</time>
      </trkpt>
      <trkpt lat="49.76176" lon="4.81443">
        <ele>273</ele>
        <time>2022-09-18T10:59:36.000Z</time>
      </trkpt>
      <trkpt lat="49.76169" lon="4.81442">
        <ele>272</ele>
        <time>2022-09-18T10:59:37.000Z</time>
      </trkpt>
      <trkpt lat="49.76162" lon="4.81441">
        <ele>272</ele>
        <time>2022-09-18T10:59:38.000Z</time>
      </trkpt>
      <trkpt lat="49.76156" lon="4.8144">
        <ele>272</ele>
        <time>2022-09-18T10:59:39.000Z</time>
      </trkpt>
      <trkpt lat="49.76149" lon="4.81439">
        <ele>272</ele>
        <time>2022-09-18T10:59:40.000Z</time>
      </trkpt>
      <trkpt lat="49.76143" lon="4.81438">
        <ele>272</ele>
        <time>2022-09-18T10:59:41.000Z</time>
      </trkpt>
      <trkpt lat="49.76137" lon="4.81436">
        <ele>271</ele>
        <time>2022-09-18T10:59:42.000Z</time>
      </trkpt>
      <trkpt lat="49.7613" lon="4.81435">
        <ele>271</ele>
        <time>2022-09-18T10:59:43.000Z</time>
      </trkpt>
      <trkpt lat="49.76124" lon="4.81435">
        <ele>271</ele>
        <time>2022-09-18T10:59:44.000Z</time>
      </trkpt>
      <trkpt lat="49.76118" lon="4.81434">
        <ele>271</ele>
        <time>2022-09-18T10:59:45.000Z</time>
      </trkpt>
      <trkpt lat="49.76112" lon="4.81432">
        <ele>271</ele>
        <time>2022-09-18T10:59:46.000Z</time>
      </trkpt>
      <trkpt lat="49.76106" lon="4.81429">
        <ele>270</ele>
        <time>2022-09-18T10:59:47.000Z</time>
      </trkpt>
      <trkpt lat="49.761" lon="4.81426">
        <ele>270</ele>
        <time>2022-09-18T10:59:48.000Z</time>
      </trkpt>
      <trkpt lat="49.76094" lon="4.81423">
        <ele>270</ele>
        <time>2022-09-18T10:59:49.000Z</time>
      </trkpt>
      <trkpt lat="49.76088" lon="4.81419">
        <ele>270</ele>
        <time>2022-09-18T10:59:50.000Z</time>
      </trkpt>
      <trkpt lat="49.76082" lon="4.81415">
        <ele>269</ele>
        <time>2022-09-18T10:59:51.000Z</time>
      </trkpt>
      <trkpt lat="49.76076" lon="4.81411">
        <ele>269</ele>
        <time>2022-09-18T10:59:52.000Z</time>
      </trkpt>
      <trkpt lat="49.7607" lon="4.81407">
        <ele>269</ele>
        <time>2022-09-18T10:59:53.000Z</time>
      </trkpt>
      <trkpt lat="49.76065" lon="4.81403">
        <ele>268</ele>
        <time>2022-09-18T10:59:54.000Z</time>
      </trkpt>
      <trkpt lat="49.76059" lon="4.81399">
        <ele>268</ele>
        <time>2022-09-18T10:59:55.000Z</time>
      </trkpt>
      <trkpt lat="49.76053" lon="4.81395">
        <ele>268</ele>
        <time>2022-09-18T10:59:56.000Z</time>
      </trkpt>
      <trkpt lat="49.76047" lon="4.81391">
        <ele>267</ele>
        <time>2022-09-18T10:59:57.000Z</time>
      </trkpt>
      <trkpt lat="49.76041" lon="4.81386">
        <ele>267</ele>
        <time>2022-09-18T10:59:58.000Z</time>
      </trkpt>
      <trkpt lat="49.76035" lon="4.81382">
        <ele>266</ele>
        <time>2022-09-18T10:59:59.000Z</time>
      </trkpt>
      <trkpt lat="49.7603" lon="4.81378">
        <ele>266</ele>
        <time>2022-09-18T11:00:00.000Z</time>
      </trkpt>
      <trkpt lat="49.76024" lon="4.81374">
        <ele>266</ele>
        <time>2022-09-18T11:00:01.000Z</time>
      </trkpt>
      <trkpt lat="49.76019" lon="4.81371">
        <ele>265</ele>
        <time>2022-09-18T11:00:02.000Z</time>
      </trkpt>
      <trkpt lat="49.76014" lon="4.81368">
        <ele>265</ele>
        <time>2022-09-18T11:00:03.000Z</time>
      </trkpt>
      <trkpt lat="49.76009" lon="4.81365">
        <ele>265</ele>
        <time>2022-09-18T11:00:04.000Z</time>
      </trkpt>
      <trkpt lat="49.76004" lon="4.81361">
        <ele>264</ele>
        <time>2022-09-18T11:00:05.000Z</time>
      </trkpt>
      <trkpt lat="49.75999" lon="4.81358">
        <ele>264</ele>
        <time>2022-09-18T11:00:06.000Z</time>
      </trkpt>
      <trkpt lat="49.75994" lon="4.81355">
        <ele>264</ele>
        <time>2022-09-18T11:00:07.000Z</time>
      </trkpt>
      <trkpt lat="49.75989" lon="4.81351">
        <ele>264</ele>
        <time>2022-09-18T11:00:08.000Z</time>
      </trkpt>
      <trkpt lat="49.75984" lon="4.81348">
        <ele>264</ele>
        <time>2022-09-18T11:00:09.000Z</time>
      </trkpt>
      <trkpt lat="49.75978" lon="4.81345">
        <ele>264</ele>
        <time>2022-09-18T11:00:10.000Z</time>
      </trkpt>
      <trkpt lat="49.75973" lon="4.81342">
        <ele>264</ele>
        <time>2022-09-18T11:00:11.000Z</time>
      </trkpt>
      <trkpt lat="49.75967" lon="4.8134">
        <ele>263</ele>
        <time>2022-09-18T11:00:12.000Z</time>
      </trkpt>
      <trkpt lat="49.75961" lon="4.81337">
        <ele>263</ele>
        <time>2022-09-18T11:00:13.000Z</time>
      </trkpt>
      <trkpt lat="49.75956" lon="4.81334">
        <ele>263</ele>
        <time>2022-09-18T11:00:14.000Z</time>
      </trkpt>
      <trkpt lat="49.7595" lon="4.81332">
        <ele>263</ele>
        <time>2022-09-18T11:00:15.000Z</time>
      </trkpt>
      <trkpt lat="49.75944" lon="4.8133">
        <ele>263</ele>
        <time>2022-09-18T11:00:16.000Z</time>
      </trkpt>
      <trkpt lat="49.75939" lon="4.81329">
        <ele>263</ele>
        <time>2022-09-18T11:00:17.000Z</time>
      </trkpt>
      <trkpt lat="49.75934" lon="4.81327">
        <ele>263</ele>
        <time>2022-09-18T11:00:18.000Z</time>
      </trkpt>
      <trkpt lat="49.75929" lon="4.81325">
        <ele>263</ele>
        <time>2022-09-18T11:00:19.000Z</time>
      </trkpt>
      <trkpt lat="49.75924" lon="4.81324">
        <ele>263</ele>
        <time>2022-09-18T11:00:20.000Z</time>
      </trkpt>
      <trkpt lat="49.75918" lon="4.81325">
        <ele>263</ele>
        <time>2022-09-18T11:00:21.000Z</time>
      </trkpt>
      <trkpt lat="49.75912" lon="4.81326">
        <ele>263</ele>
        <time>2022-09-18T11:00:22.000Z</time>
      </trkpt>
      <trkpt lat="49.75906" lon="4.81328">
        <ele>263</ele>
        <time>2022-09-18T11:00:23.000Z</time>
      </trkpt>
      <trkpt lat="49.759" lon="4.8133">
        <ele>263</ele>
        <time>2022-09-18T11:00:24.000Z</time>
      </trkpt>
      <trkpt lat="49.75894" lon="4.81333">
        <ele>263</ele>
        <time>2022-09-18T11:00:25.000Z</time>
      </trkpt>
      <trkpt lat="49.75888" lon="4.81336">
        <ele>263</ele>
        <time>2022-09-18T11:00:26.000Z</time>
      </trkpt>
      <trkpt lat="49.75882" lon="4.81339">
        <ele>263</ele>
        <time>2022-09-18T11:00:27.000Z</time>
      </trkpt>
      <trkpt lat="49.75876" lon="4.81342">
        <ele>263</ele>
        <time>2022-09-18T11:00:28.000Z</time>
      </trkpt>
      <trkpt lat="49.7587" lon="4.81345">
        <ele>263</ele>
        <time>2022-09-18T11:00:29.000Z</time>
      </trkpt>
      <trkpt lat="49.75864" lon="4.81347">
        <ele>263</ele>
        <time>2022-09-18T11:00:30.000Z</time>
      </trkpt>
      <trkpt lat="49.75858" lon="4.8135">
        <ele>263</ele>
        <time>2022-09-18T11:00:31.000Z</time>
      </trkpt>
      <trkpt lat="49.75852" lon="4.81354">
        <ele>263</ele>
        <time>2022-09-18T11:00:32.000Z</time>
      </trkpt>
      <trkpt lat="49.75847" lon="4.81359">
        <ele>263</ele>
        <time>2022-09-18T11:00:33.000Z</time>
      </trkpt>
      <trkpt lat="49.75841" lon="4.81364">
        <ele>263</ele>
        <time>2022-09-18T11:00:34.000Z</time>
      </trkpt>
      <trkpt lat="49.75836" lon="4.8137">
        <ele>262</ele>
        <time>2022-09-18T11:00:35.000Z</time>
      </trkpt>
      <trkpt lat="49.7583" lon="4.81375">
        <ele>262</ele>
        <time>2022-09-18T11:00:36.000Z</time>
      </trkpt>
      <trkpt lat="49.75825" lon="4.81381">
        <ele>262</ele>
        <time>2022-09-18T11:00:37.000Z</time>
      </trkpt>
      <trkpt lat="49.7582" lon="4.81389">
        <ele>262</ele>
        <time>2022-09-18T11:00:38.000Z</time>
      </trkpt>
      <trkpt lat="49.75814" lon="4.81397">
        <ele>261</ele>
        <time>2022-09-18T11:00:39.000Z</time>
      </trkpt>
      <trkpt lat="49.75809" lon="4.81403">
        <ele>261</ele>
        <time>2022-09-18T11:00:40.000Z</time>
      </trkpt>
      <trkpt lat="49.75803" lon="4.8141">
        <ele>261</ele>
        <time>2022-09-18T11:00:41.000Z</time>
      </trkpt>
      <trkpt lat="49.75797" lon="4.81416">
        <ele>260</ele>
        <time>2022-09-18T11:00:42.000Z</time>
      </trkpt>
      <trkpt lat="49.75792" lon="4.81421">
        <ele>260</ele>
        <time>2022-09-18T11:00:43.000Z</time>
      </trkpt>
      <trkpt lat="49.75785" lon="4.81426">
        <ele>260</ele>
        <time>2022-09-18T11:00:44.000Z</time>
      </trkpt>
      <trkpt lat="49.75779" lon="4.8143">
        <ele>259</ele>
        <time>2022-09-18T11:00:45.000Z</time>
      </trkpt>
      <trkpt lat="49.75773" lon="4.81434">
        <ele>259</ele>
        <time>2022-09-18T11:00:46.000Z</time>
      </trkpt>
      <trkpt lat="49.75767" lon="4.81438">
        <ele>259</ele>
        <time>2022-09-18T11:00:47.000Z</time>
      </trkpt>
      <trkpt lat="49.75761" lon="4.81443">
        <ele>258</ele>
        <time>2022-09-18T11:00:48.000Z</time>
      </trkpt>
      <trkpt lat="49.75755" lon="4.81447">
        <ele>258</ele>
        <time>2022-09-18T11:00:49.000Z</time>
      </trkpt>
      <trkpt lat="49.75749" lon="4.8145">
        <ele>257</ele>
        <time>2022-09-18T11:00:50.000Z</time>
      </trkpt>
      <trkpt lat="49.75743" lon="4.81454">
        <ele>257</ele>
        <time>2022-09-18T11:00:51.000Z</time>
      </trkpt>
      <trkpt lat="49.75737" lon="4.81457">
        <ele>257</ele>
        <time>2022-09-18T11:00:52.000Z</time>
      </trkpt>
      <trkpt lat="49.75731" lon="4.81459">
        <ele>256</ele>
        <time>2022-09-18T11:00:53.000Z</time>
      </trkpt>
      <trkpt lat="49.75725" lon="4.81462">
        <ele>256</ele>
        <time>2022-09-18T11:00:54.000Z</time>
      </trkpt>
      <trkpt lat="49.75719" lon="4.81464">
        <ele>256</ele>
        <time>2022-09-18T11:00:55.000Z</time>
      </trkpt>
      <trkpt lat="49.75713" lon="4.81467">
        <ele>255</ele>
        <time>2022-09-18T11:00:56.000Z</time>
      </trkpt>
      <trkpt lat="49.75707" lon="4.81469">
        <ele>255</ele>
        <time>2022-09-18T11:00:57.000Z</time>
      </trkpt>
      <trkpt lat="49.75701" lon="4.81471">
        <ele>254</ele>
        <time>2022-09-18T11:00:58.000Z</time>
      </trkpt>
      <trkpt lat="49.75695" lon="4.81473">
        <ele>254</ele>
        <time>2022-09-18T11:00:59.000Z</time>
      </trkpt>
      <trkpt lat="49.75689" lon="4.81475">
        <ele>254</ele>
        <time>2022-09-18T11:01:00.000Z</time>
      </trkpt>
      <trkpt lat="49.75684" lon="4.81477">
        <ele>253</ele>
        <time>2022-09-18T11:01:01.000Z</time>
      </trkpt>
      <trkpt lat="49.75678" lon="4.81479">
        <ele>253</ele>
        <time>2022-09-18T11:01:02.000Z</time>
      </trkpt>
      <trkpt lat="49.75671" lon="4.81481">
        <ele>252</ele>
        <time>2022-09-18T11:01:03.000Z</time>
      </trkpt>
      <trkpt lat="49.75665" lon="4.81484">
        <ele>252</ele>
        <time>2022-09-18T11:01:04.000Z</time>
      </trkpt>
      <trkpt lat="49.75658" lon="4.81486">
        <ele>252</ele>
        <time>2022-09-18T11:01:05.000Z</time>
      </trkpt>
      <trkpt lat="49.75652" lon="4.81488">
        <ele>251</ele>
        <time>2022-09-18T11:01:06.000Z</time>
      </trkpt>
      <trkpt lat="49.75646" lon="4.81491">
        <ele>251</ele>
        <time>2022-09-18T11:01:07.000Z</time>
      </trkpt>
      <trkpt lat="49.75639" lon="4.81494">
        <ele>250</ele>
        <time>2022-09-18T11:01:08.000Z</time>
      </trkpt>
      <trkpt lat="49.75633" lon="4.81497">
        <ele>250</ele>
        <time>2022-09-18T11:01:09.000Z</time>
      </trkpt>
      <trkpt lat="49.75627" lon="4.81501">
        <ele>249</ele>
        <time>2022-09-18T11:01:10.000Z</time>
      </trkpt>
      <trkpt lat="49.75621" lon="4.81505">
        <ele>249</ele>
        <time>2022-09-18T11:01:11.000Z</time>
      </trkpt>
      <trkpt lat="49.75615" lon="4.81511">
        <ele>248</ele>
        <time>2022-09-18T11:01:12.000Z</time>
      </trkpt>
      <trkpt lat="49.75609" lon="4.81516">
        <ele>248</ele>
        <time>2022-09-18T11:01:13.000Z</time>
      </trkpt>
      <trkpt lat="49.75603" lon="4.81521">
        <ele>248</ele>
        <time>2022-09-18T11:01:14.000Z</time>
      </trkpt>
      <trkpt lat="49.75597" lon="4.81526">
        <ele>247</ele>
        <time>2022-09-18T11:01:15.000Z</time>
      </trkpt>
      <trkpt lat="49.75591" lon="4.81532">
        <ele>247</ele>
        <time>2022-09-18T11:01:16.000Z</time>
      </trkpt>
      <trkpt lat="49.75586" lon="4.81537">
        <ele>246</ele>
        <time>2022-09-18T11:01:17.000Z</time>
      </trkpt>
      <trkpt lat="49.7558" lon="4.81543">
        <ele>246</ele>
        <time>2022-09-18T11:01:18.000Z</time>
      </trkpt>
      <trkpt lat="49.75575" lon="4.81549">
        <ele>245</ele>
        <time>2022-09-18T11:01:19.000Z</time>
      </trkpt>
      <trkpt lat="49.7557" lon="4.81555">
        <ele>245</ele>
        <time>2022-09-18T11:01:20.000Z</time>
      </trkpt>
      <trkpt lat="49.75566" lon="4.81562">
        <ele>245</ele>
        <time>2022-09-18T11:01:21.000Z</time>
      </trkpt>
      <trkpt lat="49.75561" lon="4.81568">
        <ele>244</ele>
        <time>2022-09-18T11:01:22.000Z</time>
      </trkpt>
      <trkpt lat="49.75556" lon="4.81573">
        <ele>244</ele>
        <time>2022-09-18T11:01:23.000Z</time>
      </trkpt>
      <trkpt lat="49.75552" lon="4.81578">
        <ele>243</ele>
        <time>2022-09-18T11:01:24.000Z</time>
      </trkpt>
      <trkpt lat="49.75548" lon="4.81584">
        <ele>243</ele>
        <time>2022-09-18T11:01:25.000Z</time>
      </trkpt>
      <trkpt lat="49.75545" lon="4.81591">
        <ele>243</ele>
        <time>2022-09-18T11:01:26.000Z</time>
      </trkpt>
      <trkpt lat="49.75541" lon="4.81597">
        <ele>243</ele>
        <time>2022-09-18T11:01:27.000Z</time>
      </trkpt>
      <trkpt lat="49.75536" lon="4.81603">
        <ele>242</ele>
        <time>2022-09-18T11:01:28.000Z</time>
      </trkpt>
      <trkpt lat="49.75531" lon="4.81609">
        <ele>242</ele>
        <time>2022-09-18T11:01:29.000Z</time>
      </trkpt>
      <trkpt lat="49.75525" lon="4.81614">
        <ele>242</ele>
        <time>2022-09-18T11:01:30.000Z</time>
      </trkpt>
      <trkpt lat="49.7552" lon="4.8162">
        <ele>241</ele>
        <time>2022-09-18T11:01:31.000Z</time>
      </trkpt>
      <trkpt lat="49.75514" lon="4.81626">
        <ele>241</ele>
        <time>2022-09-18T11:01:32.000Z</time>
      </trkpt>
      <trkpt lat="49.75507" lon="4.81631">
        <ele>241</ele>
        <time>2022-09-18T11:01:33.000Z</time>
      </trkpt>
      <trkpt lat="49.75502" lon="4.81636">
        <ele>240</ele>
        <time>2022-09-18T11:01:34.000Z</time>
      </trkpt>
      <trkpt lat="49.75495" lon="4.81641">
        <ele>240</ele>
        <time>2022-09-18T11:01:35.000Z</time>
      </trkpt>
      <trkpt lat="49.75488" lon="4.81646">
        <ele>239</ele>
        <time>2022-09-18T11:01:36.000Z</time>
      </trkpt>
      <trkpt lat="49.75481" lon="4.8165">
        <ele>239</ele>
        <time>2022-09-18T11:01:37.000Z</time>
      </trkpt>
      <trkpt lat="49.75473" lon="4.81654">
        <ele>238</ele>
        <time>2022-09-18T11:01:38.000Z</time>
      </trkpt>
      <trkpt lat="49.75465" lon="4.81657">
        <ele>238</ele>
        <time>2022-09-18T11:01:39.000Z</time>
      </trkpt>
      <trkpt lat="49.75457" lon="4.81662">
        <ele>237</ele>
        <time>2022-09-18T11:01:40.000Z</time>
      </trkpt>
      <trkpt lat="49.75448" lon="4.81667">
        <ele>236</ele>
        <time>2022-09-18T11:01:41.000Z</time>
      </trkpt>
      <trkpt lat="49.75441" lon="4.81673">
        <ele>236</ele>
        <time>2022-09-18T11:01:42.000Z</time>
      </trkpt>
      <trkpt lat="49.75432" lon="4.81679">
        <ele>235</ele>
        <time>2022-09-18T11:01:43.000Z</time>
      </trkpt>
      <trkpt lat="49.75424" lon="4.81684">
        <ele>234</ele>
        <time>2022-09-18T11:01:44.000Z</time>
      </trkpt>
      <trkpt lat="49.75416" lon="4.81688">
        <ele>233</ele>
        <time>2022-09-18T11:01:45.000Z</time>
      </trkpt>
      <trkpt lat="49.75408" lon="4.81693">
        <ele>233</ele>
        <time>2022-09-18T11:01:46.000Z</time>
      </trkpt>
      <trkpt lat="49.754" lon="4.81699">
        <ele>232</ele>
        <time>2022-09-18T11:01:47.000Z</time>
      </trkpt>
      <trkpt lat="49.75393" lon="4.81705">
        <ele>231</ele>
        <time>2022-09-18T11:01:48.000Z</time>
      </trkpt>
      <trkpt lat="49.75386" lon="4.81712">
        <ele>231</ele>
        <time>2022-09-18T11:01:49.000Z</time>
      </trkpt>
      <trkpt lat="49.75379" lon="4.81719">
        <ele>230</ele>
        <time>2022-09-18T11:01:50.000Z</time>
      </trkpt>
      <trkpt lat="49.75373" lon="4.81726">
        <ele>229</ele>
        <time>2022-09-18T11:01:51.000Z</time>
      </trkpt>
      <trkpt lat="49.75366" lon="4.81733">
        <ele>229</ele>
        <time>2022-09-18T11:01:52.000Z</time>
      </trkpt>
      <trkpt lat="49.75359" lon="4.81739">
        <ele>228</ele>
        <time>2022-09-18T11:01:53.000Z</time>
      </trkpt>
      <trkpt lat="49.75352" lon="4.81745">
        <ele>227</ele>
        <time>2022-09-18T11:01:54.000Z</time>
      </trkpt>
      <trkpt lat="49.75345" lon="4.81748">
        <ele>226</ele>
        <time>2022-09-18T11:01:55.000Z</time>
      </trkpt>
      <trkpt lat="49.75338" lon="4.8175">
        <ele>226</ele>
        <time>2022-09-18T11:01:56.000Z</time>
      </trkpt>
      <trkpt lat="49.75331" lon="4.81752">
        <ele>225</ele>
        <time>2022-09-18T11:01:57.000Z</time>
      </trkpt>
      <trkpt lat="49.75324" lon="4.81753">
        <ele>224</ele>
        <time>2022-09-18T11:01:58.000Z</time>
      </trkpt>
      <trkpt lat="49.75317" lon="4.81753">
        <ele>224</ele>
        <time>2022-09-18T11:01:59.000Z</time>
      </trkpt>
      <trkpt lat="49.75309" lon="4.81754">
        <ele>223</ele>
        <time>2022-09-18T11:02:00.000Z</time>
      </trkpt>
      <trkpt lat="49.75301" lon="4.81754">
        <ele>223</ele>
        <time>2022-09-18T11:02:01.000Z</time>
      </trkpt>
      <trkpt lat="49.75293" lon="4.81755">
        <ele>222</ele>
        <time>2022-09-18T11:02:02.000Z</time>
      </trkpt>
      <trkpt lat="49.75285" lon="4.81755">
        <ele>222</ele>
        <time>2022-09-18T11:02:03.000Z</time>
      </trkpt>
      <trkpt lat="49.75277" lon="4.81754">
        <ele>221</ele>
        <time>2022-09-18T11:02:04.000Z</time>
      </trkpt>
      <trkpt lat="49.75269" lon="4.81751">
        <ele>221</ele>
        <time>2022-09-18T11:02:05.000Z</time>
      </trkpt>
      <trkpt lat="49.75262" lon="4.81747">
        <ele>220</ele>
        <time>2022-09-18T11:02:06.000Z</time>
      </trkpt>
      <trkpt lat="49.75254" lon="4.81743">
        <ele>219</ele>
        <time>2022-09-18T11:02:07.000Z</time>
      </trkpt>
      <trkpt lat="49.75248" lon="4.81738">
        <ele>219</ele>
        <time>2022-09-18T11:02:08.000Z</time>
      </trkpt>
      <trkpt lat="49.75241" lon="4.81733">
        <ele>218</ele>
        <time>2022-09-18T11:02:09.000Z</time>
      </trkpt>
      <trkpt lat="49.75235" lon="4.81729">
        <ele>217</ele>
        <time>2022-09-18T11:02:10.000Z</time>
      </trkpt>
      <trkpt lat="49.75228" lon="4.81724">
        <ele>217</ele>
        <time>2022-09-18T11:02:11.000Z</time>
      </trkpt>
      <trkpt lat="49.75222" lon="4.81719">
        <ele>216</ele>
        <time>2022-09-18T11:02:12.000Z</time>
      </trkpt>
      <trkpt lat="49.75216" lon="4.81714">
        <ele>216</ele>
        <time>2022-09-18T11:02:13.000Z</time>
      </trkpt>
      <trkpt lat="49.75211" lon="4.81709">
        <ele>215</ele>
        <time>2022-09-18T11:02:14.000Z</time>
      </trkpt>
      <trkpt lat="49.75206" lon="4.81705">
        <ele>215</ele>
        <time>2022-09-18T11:02:15.000Z</time>
      </trkpt>
      <trkpt lat="49.75201" lon="4.81702">
        <ele>214</ele>
        <time>2022-09-18T11:02:16.000Z</time>
      </trkpt>
      <trkpt lat="49.75196" lon="4.81701">
        <ele>214</ele>
        <time>2022-09-18T11:02:17.000Z</time>
      </trkpt>
      <trkpt lat="49.75191" lon="4.81702">
        <ele>213</ele>
        <time>2022-09-18T11:02:18.000Z</time>
      </trkpt>
      <trkpt lat="49.75185" lon="4.81703">
        <ele>213</ele>
        <time>2022-09-18T11:02:19.000Z</time>
      </trkpt>
      <trkpt lat="49.75179" lon="4.81707">
        <ele>212</ele>
        <time>2022-09-18T11:02:20.000Z</time>
      </trkpt>
      <trkpt lat="49.75174" lon="4.81711">
        <ele>212</ele>
        <time>2022-09-18T11:02:21.000Z</time>
      </trkpt>
      <trkpt lat="49.75168" lon="4.81717">
        <ele>212</ele>
        <time>2022-09-18T11:02:22.000Z</time>
      </trkpt>
      <trkpt lat="49.75163" lon="4.81722">
        <ele>211</ele>
        <time>2022-09-18T11:02:23.000Z</time>
      </trkpt>
      <trkpt lat="49.75157" lon="4.81727">
        <ele>211</ele>
        <time>2022-09-18T11:02:24.000Z</time>
      </trkpt>
      <trkpt lat="49.75152" lon="4.81732">
        <ele>210</ele>
        <time>2022-09-18T11:02:25.000Z</time>
      </trkpt>
      <trkpt lat="49.75148" lon="4.81737">
        <ele>209</ele>
        <time>2022-09-18T11:02:26.000Z</time>
      </trkpt>
      <trkpt lat="49.75144" lon="4.81741">
        <ele>209</ele>
        <time>2022-09-18T11:02:27.000Z</time>
      </trkpt>
      <trkpt lat="49.75141" lon="4.81745">
        <ele>208</ele>
        <time>2022-09-18T11:02:28.000Z</time>
      </trkpt>
      <trkpt lat="49.75139" lon="4.8175">
        <ele>208</ele>
        <time>2022-09-18T11:02:29.000Z</time>
      </trkpt>
      <trkpt lat="49.75138" lon="4.81756">
        <ele>208</ele>
        <time>2022-09-18T11:02:30.000Z</time>
      </trkpt>
      <trkpt lat="49.7514" lon="4.81762">
        <ele>207</ele>
        <time>2022-09-18T11:02:31.000Z</time>
      </trkpt>
      <trkpt lat="49.75142" lon="4.81769">
        <ele>207</ele>
        <time>2022-09-18T11:02:32.000Z</time>
      </trkpt>
      <trkpt lat="49.75145" lon="4.81774">
        <ele>207</ele>
        <time>2022-09-18T11:02:33.000Z</time>
      </trkpt>
      <trkpt lat="49.75148" lon="4.81779">
        <ele>206</ele>
        <time>2022-09-18T11:02:34.000Z</time>
      </trkpt>
      <trkpt lat="49.75151" lon="4.81785">
        <ele>206</ele>
        <time>2022-09-18T11:02:35.000Z</time>
      </trkpt>
      <trkpt lat="49.75154" lon="4.81791">
        <ele>206</ele>
        <time>2022-09-18T11:02:36.000Z</time>
      </trkpt>
      <trkpt lat="49.75157" lon="4.81796">
        <ele>206</ele>
        <time>2022-09-18T11:02:37.000Z</time>
      </trkpt>
      <trkpt lat="49.75161" lon="4.81802">
        <ele>205</ele>
        <time>2022-09-18T11:02:38.000Z</time>
      </trkpt>
      <trkpt lat="49.75164" lon="4.81808">
        <ele>205</ele>
        <time>2022-09-18T11:02:39.000Z</time>
      </trkpt>
      <trkpt lat="49.75168" lon="4.81813">
        <ele>205</ele>
        <time>2022-09-18T11:02:40.000Z</time>
      </trkpt>
      <trkpt lat="49.75172" lon="4.81819">
        <ele>204</ele>
        <time>2022-09-18T11:02:41.000Z</time>
      </trkpt>
      <trkpt lat="49.75176" lon="4.81826">
        <ele>204</ele>
        <time>2022-09-18T11:02:42.000Z</time>
      </trkpt>
      <trkpt lat="49.7518" lon="4.81833">
        <ele>204</ele>
        <time>2022-09-18T11:02:43.000Z</time>
      </trkpt>
      <trkpt lat="49.75184" lon="4.8184">
        <ele>204</ele>
        <time>2022-09-18T11:02:44.000Z</time>
      </trkpt>
      <trkpt lat="49.75188" lon="4.81847">
        <ele>203</ele>
        <time>2022-09-18T11:02:45.000Z</time>
      </trkpt>
      <trkpt lat="49.75193" lon="4.81854">
        <ele>203</ele>
        <time>2022-09-18T11:02:46.000Z</time>
      </trkpt>
      <trkpt lat="49.75197" lon="4.81861">
        <ele>203</ele>
        <time>2022-09-18T11:02:47.000Z</time>
      </trkpt>
      <trkpt lat="49.75202" lon="4.81868">
        <ele>202</ele>
        <time>2022-09-18T11:02:48.000Z</time>
      </trkpt>
      <trkpt lat="49.75207" lon="4.81874">
        <ele>202</ele>
        <time>2022-09-18T11:02:49.000Z</time>
      </trkpt>
      <trkpt lat="49.75212" lon="4.8188">
        <ele>202</ele>
        <time>2022-09-18T11:02:50.000Z</time>
      </trkpt>
      <trkpt lat="49.75217" lon="4.81887">
        <ele>202</ele>
        <time>2022-09-18T11:02:51.000Z</time>
      </trkpt>
      <trkpt lat="49.75221" lon="4.81893">
        <ele>201</ele>
        <time>2022-09-18T11:02:52.000Z</time>
      </trkpt>
      <trkpt lat="49.75226" lon="4.81898">
        <ele>201</ele>
        <time>2022-09-18T11:02:53.000Z</time>
      </trkpt>
      <trkpt lat="49.75231" lon="4.81904">
        <ele>201</ele>
        <time>2022-09-18T11:02:54.000Z</time>
      </trkpt>
      <trkpt lat="49.75236" lon="4.8191">
        <ele>200</ele>
        <time>2022-09-18T11:02:55.000Z</time>
      </trkpt>
      <trkpt lat="49.75241" lon="4.81915">
        <ele>200</ele>
        <time>2022-09-18T11:02:56.000Z</time>
      </trkpt>
      <trkpt lat="49.75246" lon="4.81921">
        <ele>200</ele>
        <time>2022-09-18T11:02:57.000Z</time>
      </trkpt>
      <trkpt lat="49.75251" lon="4.81928">
        <ele>199</ele>
        <time>2022-09-18T11:02:58.000Z</time>
      </trkpt>
      <trkpt lat="49.75255" lon="4.81935">
        <ele>199</ele>
        <time>2022-09-18T11:02:59.000Z</time>
      </trkpt>
      <trkpt lat="49.75261" lon="4.81942">
        <ele>198</ele>
        <time>2022-09-18T11:03:00.000Z</time>
      </trkpt>
      <trkpt lat="49.75266" lon="4.81949">
        <ele>198</ele>
        <time>2022-09-18T11:03:01.000Z</time>
      </trkpt>
      <trkpt lat="49.75272" lon="4.81954">
        <ele>198</ele>
        <time>2022-09-18T11:03:02.000Z</time>
      </trkpt>
      <trkpt lat="49.75279" lon="4.8196">
        <ele>197</ele>
        <time>2022-09-18T11:03:03.000Z</time>
      </trkpt>
      <trkpt lat="49.75285" lon="4.81966">
        <ele>197</ele>
        <time>2022-09-18T11:03:04.000Z</time>
      </trkpt>
      <trkpt lat="49.75292" lon="4.81971">
        <ele>196</ele>
        <time>2022-09-18T11:03:05.000Z</time>
      </trkpt>
      <trkpt lat="49.75298" lon="4.81976">
        <ele>196</ele>
        <time>2022-09-18T11:03:06.000Z</time>
      </trkpt>
      <trkpt lat="49.75305" lon="4.81981">
        <ele>196</ele>
        <time>2022-09-18T11:03:07.000Z</time>
      </trkpt>
      <trkpt lat="49.75311" lon="4.81986">
        <ele>195</ele>
        <time>2022-09-18T11:03:08.000Z</time>
      </trkpt>
      <trkpt lat="49.75318" lon="4.8199">
        <ele>195</ele>
        <time>2022-09-18T11:03:09.000Z</time>
      </trkpt>
      <trkpt lat="49.75324" lon="4.81994">
        <ele>194</ele>
        <time>2022-09-18T11:03:10.000Z</time>
      </trkpt>
      <trkpt lat="49.7533" lon="4.81998">
        <ele>194</ele>
        <time>2022-09-18T11:03:11.000Z</time>
      </trkpt>
      <trkpt lat="49.75337" lon="4.82001">
        <ele>194</ele>
        <time>2022-09-18T11:03:12.000Z</time>
      </trkpt>
      <trkpt lat="49.75343" lon="4.82005">
        <ele>193</ele>
        <time>2022-09-18T11:03:13.000Z</time>
      </trkpt>
      <trkpt lat="49.75349" lon="4.82008">
        <ele>193</ele>
        <time>2022-09-18T11:03:14.000Z</time>
      </trkpt>
      <trkpt lat="49.75355" lon="4.82012">
        <ele>193</ele>
        <time>2022-09-18T11:03:15.000Z</time>
      </trkpt>
      <trkpt lat="49.75361" lon="4.82016">
        <ele>193</ele>
        <time>2022-09-18T11:03:16.000Z</time>
      </trkpt>
      <trkpt lat="49.75367" lon="4.82019">
        <ele>193</ele>
        <time>2022-09-18T11:03:17.000Z</time>
      </trkpt>
      <trkpt lat="49.75372" lon="4.82022">
        <ele>192</ele>
        <time>2022-09-18T11:03:18.000Z</time>
      </trkpt>
      <trkpt lat="49.75378" lon="4.82025">
        <ele>192</ele>
        <time>2022-09-18T11:03:19.000Z</time>
      </trkpt>
      <trkpt lat="49.75384" lon="4.82029">
        <ele>192</ele>
        <time>2022-09-18T11:03:20.000Z</time>
      </trkpt>
      <trkpt lat="49.7539" lon="4.82033">
        <ele>192</ele>
        <time>2022-09-18T11:03:21.000Z</time>
      </trkpt>
      <trkpt lat="49.75395" lon="4.82037">
        <ele>192</ele>
        <time>2022-09-18T11:03:22.000Z</time>
      </trkpt>
      <trkpt lat="49.75401" lon="4.82041">
        <ele>192</ele>
        <time>2022-09-18T11:03:23.000Z</time>
      </trkpt>
      <trkpt lat="49.75406" lon="4.82046">
        <ele>192</ele>
        <time>2022-09-18T11:03:24.000Z</time>
      </trkpt>
      <trkpt lat="49.75411" lon="4.8205">
        <ele>192</ele>
        <time>2022-09-18T11:03:25.000Z</time>
      </trkpt>
      <trkpt lat="49.75416" lon="4.82055">
        <ele>191</ele>
        <time>2022-09-18T11:03:26.000Z</time>
      </trkpt>
      <trkpt lat="49.75421" lon="4.8206">
        <ele>191</ele>
        <time>2022-09-18T11:03:27.000Z</time>
      </trkpt>
      <trkpt lat="49.75426" lon="4.82065">
        <ele>191</ele>
        <time>2022-09-18T11:03:28.000Z</time>
      </trkpt>
      <trkpt lat="49.7543" lon="4.82071">
        <ele>191</ele>
        <time>2022-09-18T11:03:29.000Z</time>
      </trkpt>
      <trkpt lat="49.75435" lon="4.82076">
        <ele>191</ele>
        <time>2022-09-18T11:03:30.000Z</time>
      </trkpt>
      <trkpt lat="49.7544" lon="4.8208">
        <ele>191</ele>
        <time>2022-09-18T11:03:31.000Z</time>
      </trkpt>
      <trkpt lat="49.75444" lon="4.82084">
        <ele>191</ele>
        <time>2022-09-18T11:03:32.000Z</time>
      </trkpt>
      <trkpt lat="49.75448" lon="4.82088">
        <ele>191</ele>
        <time>2022-09-18T11:03:33.000Z</time>
      </trkpt>
      <trkpt lat="49.75452" lon="4.82092">
        <ele>190</ele>
        <time>2022-09-18T11:03:34.000Z</time>
      </trkpt>
      <trkpt lat="49.75456" lon="4.82096">
        <ele>190</ele>
        <time>2022-09-18T11:03:35.000Z</time>
      </trkpt>
      <trkpt lat="49.7546" lon="4.821">
        <ele>190</ele>
        <time>2022-09-18T11:03:36.000Z</time>
      </trkpt>
      <trkpt lat="49.75464" lon="4.82106">
        <ele>190</ele>
        <time>2022-09-18T11:03:37.000Z</time>
      </trkpt>
      <trkpt lat="49.75467" lon="4.82111">
        <ele>190</ele>
        <time>2022-09-18T11:03:38.000Z</time>
      </trkpt>
      <trkpt lat="49.75471" lon="4.82116">
        <ele>190</ele>
        <time>2022-09-18T11:03:39.000Z</time>
      </trkpt>
      <trkpt lat="49.75475" lon="4.82121">
        <ele>190</ele>
        <time>2022-09-18T11:03:40.000Z</time>
      </trkpt>
      <trkpt lat="49.75479" lon="4.82126">
        <ele>190</ele>
        <time>2022-09-18T11:03:41.000Z</time>
      </trkpt>
      <trkpt lat="49.75483" lon="4.82131">
        <ele>190</ele>
        <time>2022-09-18T11:03:42.000Z</time>
      </trkpt>
      <trkpt lat="49.75487" lon="4.82137">
        <ele>190</ele>
        <time>2022-09-18T11:03:43.000Z</time>
      </trkpt>
      <trkpt lat="49.75491" lon="4.82143">
        <ele>190</ele>
        <time>2022-09-18T11:03:44.000Z</time>
      </trkpt>
      <trkpt lat="49.75495" lon="4.82149">
        <ele>190</ele>
        <time>2022-09-18T11:03:45.000Z</time>
      </trkpt>
      <trkpt lat="49.75499" lon="4.82155">
        <ele>190</ele>
        <time>2022-09-18T11:03:46.000Z</time>
      </trkpt>
      <trkpt lat="49.75502" lon="4.82162">
        <ele>190</ele>
        <time>2022-09-18T11:03:47.000Z</time>
      </trkpt>
      <trkpt lat="49.75506" lon="4.82169">
        <ele>189</ele>
        <time>2022-09-18T11:03:48.000Z</time>
      </trkpt>
      <trkpt lat="49.75509" lon="4.82175">
        <ele>189</ele>
        <time>2022-09-18T11:03:49.000Z</time>
      </trkpt>
      <trkpt lat="49.75512" lon="4.82182">
        <ele>189</ele>
        <time>2022-09-18T11:03:50.000Z</time>
      </trkpt>
      <trkpt lat="49.75516" lon="4.82188">
        <ele>189</ele>
        <time>2022-09-18T11:03:51.000Z</time>
      </trkpt>
      <trkpt lat="49.75519" lon="4.82195">
        <ele>189</ele>
        <time>2022-09-18T11:03:52.000Z</time>
      </trkpt>
      <trkpt lat="49.75522" lon="4.82202">
        <ele>189</ele>
        <time>2022-09-18T11:03:53.000Z</time>
      </trkpt>
      <trkpt lat="49.75525" lon="4.82208">
        <ele>189</ele>
        <time>2022-09-18T11:03:54.000Z</time>
      </trkpt>
      <trkpt lat="49.75528" lon="4.82215">
        <ele>189</ele>
        <time>2022-09-18T11:03:55.000Z</time>
      </trkpt>
      <trkpt lat="49.75532" lon="4.82221">
        <ele>189</ele>
        <time>2022-09-18T11:03:56.000Z</time>
      </trkpt>
      <trkpt lat="49.75535" lon="4.82228">
        <ele>189</ele>
        <time>2022-09-18T11:03:57.000Z</time>
      </trkpt>
      <trkpt lat="49.75539" lon="4.82235">
        <ele>189</ele>
        <time>2022-09-18T11:03:58.000Z</time>
      </trkpt>
      <trkpt lat="49.75542" lon="4.82241">
        <ele>189</ele>
        <time>2022-09-18T11:03:59.000Z</time>
      </trkpt>
      <trkpt lat="49.75545" lon="4.82248">
        <ele>189</ele>
        <time>2022-09-18T11:04:00.000Z</time>
      </trkpt>
      <trkpt lat="49.75548" lon="4.82255">
        <ele>188</ele>
        <time>2022-09-18T11:04:01.000Z</time>
      </trkpt>
      <trkpt lat="49.75549" lon="4.82263">
        <ele>188</ele>
        <time>2022-09-18T11:04:02.000Z</time>
      </trkpt>
      <trkpt lat="49.75548" lon="4.8227">
        <ele>188</ele>
        <time>2022-09-18T11:04:03.000Z</time>
      </trkpt>
      <trkpt lat="49.75544" lon="4.82276">
        <ele>188</ele>
        <time>2022-09-18T11:04:04.000Z</time>
      </trkpt>
      <trkpt lat="49.75539" lon="4.82279">
        <ele>188</ele>
        <time>2022-09-18T11:04:05.000Z</time>
      </trkpt>
      <trkpt lat="49.75534" lon="4.82278">
        <ele>188</ele>
        <time>2022-09-18T11:04:06.000Z</time>
      </trkpt>
      <trkpt lat="49.75529" lon="4.82276">
        <ele>188</ele>
        <time>2022-09-18T11:04:07.000Z</time>
      </trkpt>
      <trkpt lat="49.75524" lon="4.82274">
        <ele>187</ele>
        <time>2022-09-18T11:04:08.000Z</time>
      </trkpt>
      <trkpt lat="49.75519" lon="4.82271">
        <ele>187</ele>
        <time>2022-09-18T11:04:09.000Z</time>
      </trkpt>
      <trkpt lat="49.75514" lon="4.82269">
        <ele>187</ele>
        <time>2022-09-18T11:04:10.000Z</time>
      </trkpt>
      <trkpt lat="49.75509" lon="4.82266">
        <ele>187</ele>
        <time>2022-09-18T11:04:11.000Z</time>
      </trkpt>
      <trkpt lat="49.75504" lon="4.82263">
        <ele>187</ele>
        <time>2022-09-18T11:04:12.000Z</time>
      </trkpt>
      <trkpt lat="49.75499" lon="4.8226">
        <ele>187</ele>
        <time>2022-09-18T11:04:13.000Z</time>
      </trkpt>
      <trkpt lat="49.75494" lon="4.82257">
        <ele>187</ele>
        <time>2022-09-18T11:04:14.000Z</time>
      </trkpt>
      <trkpt lat="49.75489" lon="4.82253">
        <ele>187</ele>
        <time>2022-09-18T11:04:15.000Z</time>
      </trkpt>
      <trkpt lat="49.75485" lon="4.82249">
        <ele>186</ele>
        <time>2022-09-18T11:04:16.000Z</time>
      </trkpt>
      <trkpt lat="49.7548" lon="4.82245">
        <ele>186</ele>
        <time>2022-09-18T11:04:17.000Z</time>
      </trkpt>
      <trkpt lat="49.75476" lon="4.8224">
        <ele>186</ele>
        <time>2022-09-18T11:04:18.000Z</time>
      </trkpt>
      <trkpt lat="49.75472" lon="4.82235">
        <ele>186</ele>
        <time>2022-09-18T11:04:19.000Z</time>
      </trkpt>
      <trkpt lat="49.75468" lon="4.82231">
        <ele>187</ele>
        <time>2022-09-18T11:04:20.000Z</time>
      </trkpt>
      <trkpt lat="49.75463" lon="4.82227">
        <ele>187</ele>
        <time>2022-09-18T11:04:21.000Z</time>
      </trkpt>
      <trkpt lat="49.75459" lon="4.82224">
        <ele>187</ele>
        <time>2022-09-18T11:04:22.000Z</time>
      </trkpt>
      <trkpt lat="49.75454" lon="4.82221">
        <ele>187</ele>
        <time>2022-09-18T11:04:23.000Z</time>
      </trkpt>
      <trkpt lat="49.7545" lon="4.82218">
        <ele>187</ele>
        <time>2022-09-18T11:04:24.000Z</time>
      </trkpt>
      <trkpt lat="49.75445" lon="4.82215">
        <ele>187</ele>
        <time>2022-09-18T11:04:25.000Z</time>
      </trkpt>
      <trkpt lat="49.75441" lon="4.82213">
        <ele>187</ele>
        <time>2022-09-18T11:04:26.000Z</time>
      </trkpt>
      <trkpt lat="49.75436" lon="4.8221">
        <ele>187</ele>
        <time>2022-09-18T11:04:27.000Z</time>
      </trkpt>
      <trkpt lat="49.75432" lon="4.82208">
        <ele>187</ele>
        <time>2022-09-18T11:04:28.000Z</time>
      </trkpt>
      <trkpt lat="49.75428" lon="4.82206">
        <ele>187</ele>
        <time>2022-09-18T11:04:29.000Z</time>
      </trkpt>
      <trkpt lat="49.75424" lon="4.82204">
        <ele>187</ele>
        <time>2022-09-18T11:04:30.000Z</time>
      </trkpt>
      <trkpt lat="49.75419" lon="4.82202">
        <ele>187</ele>
        <time>2022-09-18T11:04:31.000Z</time>
      </trkpt>
      <trkpt lat="49.75415" lon="4.822">
        <ele>187</ele>
        <time>2022-09-18T11:04:32.000Z</time>
      </trkpt>
      <trkpt lat="49.75411" lon="4.82197">
        <ele>187</ele>
        <time>2022-09-18T11:04:33.000Z</time>
      </trkpt>
      <trkpt lat="49.75406" lon="4.82196">
        <ele>187</ele>
        <time>2022-09-18T11:04:34.000Z</time>
      </trkpt>
      <trkpt lat="49.75402" lon="4.82194">
        <ele>187</ele>
        <time>2022-09-18T11:04:35.000Z</time>
      </trkpt>
      <trkpt lat="49.75398" lon="4.82193">
        <ele>187</ele>
        <time>2022-09-18T11:04:36.000Z</time>
      </trkpt>
      <trkpt lat="49.75394" lon="4.82194">
        <ele>187</ele>
        <time>2022-09-18T11:04:37.000Z</time>
      </trkpt>
      <trkpt lat="49.75391" lon="4.82196">
        <ele>187</ele>
        <time>2022-09-18T11:04:38.000Z</time>
      </trkpt>
      <trkpt lat="49.75387" lon="4.82198">
        <ele>187</ele>
        <time>2022-09-18T11:04:39.000Z</time>
      </trkpt>
      <trkpt lat="49.75384" lon="4.822">
        <ele>187</ele>
        <time>2022-09-18T11:04:40.000Z</time>
      </trkpt>
      <trkpt lat="49.75382" lon="4.82202">
        <ele>187</ele>
        <time>2022-09-18T11:04:41.000Z</time>
      </trkpt>
      <trkpt lat="49.7538" lon="4.82203">
        <ele>187</ele>
        <time>2022-09-18T11:04:42.000Z</time>
      </trkpt>
      <trkpt lat="49.75378" lon="4.82204">
        <ele>187</ele>
        <time>2022-09-18T11:04:43.000Z</time>
      </trkpt>
      <trkpt lat="49.75377" lon="4.82204">
        <ele>187</ele>
        <time>2022-09-18T11:04:44.000Z</time>
      </trkpt>
    </trkseg>
  </trk>
</gpx>